<?xml version='1.0' encoding='UTF-8'?><gpx version="1.1" creator="JPX - https://github.com/jenetics/jpx" xmlns="http://www.topografix.com/GPX/1/1"><trk><trkseg><trkpt lat="40.95616416873973" lon="17.29602823609392"><ele>10.0</ele><time>2026-03-29T08:28:16.999Z</time></trkpt><trkpt lat="40.956017373095854" lon="17.295764355673988"><ele>10.0</ele><time>2026-03-29T08:28:19.999Z</time></trkpt><trkpt lat="40.95595492120353" lon="17.29570277644334"><ele>10.0</ele><time>2026-03-29T08:28:20.999Z</time></trkpt><trkpt lat="40.95587493508043" lon="17.29562390799341"><ele>10.0</ele><time>2026-03-29T08:28:21.999Z</time></trkpt><trkpt lat="40.95576960524475" lon="17.295521255735338"><ele>11.5</ele><time>2026-03-29T08:28:22.999Z</time></trkpt><trkpt lat="40.955667922138986" lon="17.295422201071176"><ele>13.0</ele><time>2026-03-29T08:28:23.999Z</time></trkpt><trkpt lat="40.95560045386914" lon="17.295356476799213"><ele>14.5</ele><time>2026-03-29T08:28:24.999Z</time></trkpt><trkpt lat="40.95550698379631" lon="17.295280168893058"><ele>16.0</ele><time>2026-03-29T08:28:26.999Z</time></trkpt><trkpt lat="40.95542790147953" lon="17.295134459667544"><ele>16.0</ele><time>2026-03-29T08:28:28.999Z</time></trkpt><trkpt lat="40.955296094998886" lon="17.295071549613304"><ele>16.0</ele><time>2026-03-29T08:28:29.999Z</time></trkpt><trkpt lat="40.95515023457367" lon="17.294937438907912"><ele>16.0</ele><time>2026-03-29T08:28:30.999Z</time></trkpt><trkpt lat="40.95502833776602" lon="17.294814174095183"><ele>16.0</ele><time>2026-03-29T08:28:31.999Z</time></trkpt><trkpt lat="40.954889199974694" lon="17.29467385267628"><ele>16.0</ele><time>2026-03-29T08:28:32.999Z</time></trkpt><trkpt lat="40.954779015918426" lon="17.294555696261543"><ele>16.0</ele><time>2026-03-29T08:28:33.999Z</time></trkpt><trkpt lat="40.95469288357897" lon="17.29447755081103"><ele>16.0</ele><time>2026-03-29T08:28:34.999Z</time></trkpt><trkpt lat="40.954616860553934" lon="17.29438945342159"><ele>16.0</ele><time>2026-03-29T08:28:36.999Z</time></trkpt><trkpt lat="40.95454344554525" lon="17.29432206273581"><ele>16.0</ele><time>2026-03-29T08:28:39.999Z</time></trkpt><trkpt lat="40.95450759082302" lon="17.294246770100766"><ele>16.0</ele><time>2026-03-29T08:28:40.999Z</time></trkpt><trkpt lat="40.954438875715276" lon="17.294150592524208"><ele>16.0</ele><time>2026-03-29T08:28:41.999Z</time></trkpt><trkpt lat="40.95435535803739" lon="17.294089923515514"><ele>16.0</ele><time>2026-03-29T08:28:42.999Z</time></trkpt><trkpt lat="40.95422573750768" lon="17.293950668945765"><ele>16.0</ele><time>2026-03-29T08:28:43.999Z</time></trkpt><trkpt lat="40.95411734046702" lon="17.293841069676144"><ele>16.0</ele><time>2026-03-29T08:28:44.999Z</time></trkpt><trkpt lat="40.95403063236672" lon="17.293751105017524"><ele>16.0</ele><time>2026-03-29T08:28:45.999Z</time></trkpt><trkpt lat="40.953975152037174" lon="17.293690347287843"><ele>16.0</ele><time>2026-03-29T08:28:47.999Z</time></trkpt><trkpt lat="40.95411258472645" lon="17.293392425066568"><ele>15.666666666666666</ele><time>2026-03-29T08:28:49.999Z</time></trkpt><trkpt lat="40.954220275793126" lon="17.293243751586882"><ele>15.333333333333332</ele><time>2026-03-29T08:28:50.999Z</time></trkpt><trkpt lat="40.95433158200818" lon="17.293067979897028"><ele>15.0</ele><time>2026-03-29T08:28:51.999Z</time></trkpt><trkpt lat="40.954443858007615" lon="17.29283787454437"><ele>16.0</ele><time>2026-03-29T08:28:52.999Z</time></trkpt><trkpt lat="40.95452016558683" lon="17.29261340303382"><ele>17.0</ele><time>2026-03-29T08:28:53.999Z</time></trkpt><trkpt lat="40.95464471310253" lon="17.292380470885888"><ele>18.0</ele><time>2026-03-29T08:28:54.999Z</time></trkpt><trkpt lat="40.95476172643784" lon="17.292178113703457"><ele>17.333333333333332</ele><time>2026-03-29T08:28:55.999Z</time></trkpt><trkpt lat="40.95488224127546" lon="17.29199968533735"><ele>16.666666666666664</ele><time>2026-03-29T08:28:56.999Z</time></trkpt><trkpt lat="40.95500319919743" lon="17.291806601900177"><ele>16.0</ele><time>2026-03-29T08:28:57.999Z</time></trkpt><trkpt lat="40.955112041058975" lon="17.29155102752839"><ele>16.666666666666664</ele><time>2026-03-29T08:28:58.999Z</time></trkpt><trkpt lat="40.955231105426584" lon="17.291328518913645"><ele>17.333333333333332</ele><time>2026-03-29T08:28:59.999Z</time></trkpt><trkpt lat="40.955349447516795" lon="17.29110799229718"><ele>18.0</ele><time>2026-03-29T08:29:00.999Z</time></trkpt><trkpt lat="40.95545347300792" lon="17.290914144365825"><ele>18.0</ele><time>2026-03-29T08:29:01.999Z</time></trkpt><trkpt lat="40.955529057459" lon="17.290772884608057"><ele>18.0</ele><time>2026-03-29T08:29:02.999Z</time></trkpt><trkpt lat="40.95558138559345" lon="17.29067503139218"><ele>18.0</ele><time>2026-03-29T08:29:03.999Z</time></trkpt><trkpt lat="40.95562342892249" lon="17.290601024642548"><ele>18.0</ele><time>2026-03-29T08:29:04.999Z</time></trkpt><trkpt lat="40.95568230485751" lon="17.290489309051726"><ele>18.0</ele><time>2026-03-29T08:29:06.999Z</time></trkpt><trkpt lat="40.95552864240363" lon="17.290403557398825"><ele>18.5</ele><time>2026-03-29T08:29:09.999Z</time></trkpt><trkpt lat="40.95545478496163" lon="17.290486414435435"><ele>19.0</ele><time>2026-03-29T08:29:10.999Z</time></trkpt><trkpt lat="40.9553439295765" lon="17.290414372865378"><ele>19.5</ele><time>2026-03-29T08:29:12.999Z</time></trkpt><trkpt lat="40.95524151316551" lon="17.29034148334746"><ele>20.0</ele><time>2026-03-29T08:29:13.999Z</time></trkpt><trkpt lat="40.95512430561071" lon="17.29025974891233"><ele>20.666666666666668</ele><time>2026-03-29T08:29:14.999Z</time></trkpt><trkpt lat="40.955015468738395" lon="17.290146034439072"><ele>21.333333333333332</ele><time>2026-03-29T08:29:15.999Z</time></trkpt><trkpt lat="40.9548940988451" lon="17.290063914878118"><ele>22.0</ele><time>2026-03-29T08:29:16.999Z</time></trkpt><trkpt lat="40.95480542373625" lon="17.289859595988176"><ele>22.0</ele><time>2026-03-29T08:29:17.999Z</time></trkpt><trkpt lat="40.9546902661254" lon="17.289689986225785"><ele>22.0</ele><time>2026-03-29T08:29:18.999Z</time></trkpt><trkpt lat="40.9545760569025" lon="17.28950411410992"><ele>22.0</ele><time>2026-03-29T08:29:19.999Z</time></trkpt><trkpt lat="40.95443204127107" lon="17.28931618952677"><ele>22.0</ele><time>2026-03-29T08:29:20.999Z</time></trkpt><trkpt lat="40.954302858878826" lon="17.28915507676594"><ele>22.0</ele><time>2026-03-29T08:29:21.999Z</time></trkpt><trkpt lat="40.95418936975181" lon="17.28899979915692"><ele>22.0</ele><time>2026-03-29T08:29:22.999Z</time></trkpt><trkpt lat="40.954063420531725" lon="17.288830554643887"><ele>21.666666666666664</ele><time>2026-03-29T08:29:23.999Z</time></trkpt><trkpt lat="40.95391773781264" lon="17.28863755376021"><ele>21.333333333333332</ele><time>2026-03-29T08:29:24.999Z</time></trkpt><trkpt lat="40.95379117621134" lon="17.288416557458415"><ele>21.0</ele><time>2026-03-29T08:29:25.999Z</time></trkpt><trkpt lat="40.9536618986728" lon="17.288224958542845"><ele>21.0</ele><time>2026-03-29T08:29:26.999Z</time></trkpt><trkpt lat="40.953548526575695" lon="17.288024867568733"><ele>21.0</ele><time>2026-03-29T08:29:27.999Z</time></trkpt><trkpt lat="40.95345623533527" lon="17.287770397266222"><ele>21.0</ele><time>2026-03-29T08:29:28.999Z</time></trkpt><trkpt lat="40.95327522458153" lon="17.28750476627835"><ele>21.0</ele><time>2026-03-29T08:29:29.999Z</time></trkpt><trkpt lat="40.953135447392704" lon="17.28731786190039"><ele>21.0</ele><time>2026-03-29T08:29:30.999Z</time></trkpt><trkpt lat="40.952975040780544" lon="17.287112002111527"><ele>21.0</ele><time>2026-03-29T08:29:31.999Z</time></trkpt><trkpt lat="40.952826688738924" lon="17.286938994094616"><ele>21.0</ele><time>2026-03-29T08:29:32.999Z</time></trkpt><trkpt lat="40.95268353818083" lon="17.286776762097283"><ele>21.0</ele><time>2026-03-29T08:29:33.999Z</time></trkpt><trkpt lat="40.95255203108587" lon="17.28663932617351"><ele>21.0</ele><time>2026-03-29T08:29:34.999Z</time></trkpt><trkpt lat="40.952435816918396" lon="17.28652527617811"><ele>21.25</ele><time>2026-03-29T08:29:35.999Z</time></trkpt><trkpt lat="40.952346323703914" lon="17.28641269129633"><ele>21.5</ele><time>2026-03-29T08:29:36.999Z</time></trkpt><trkpt lat="40.952285722568966" lon="17.286277773377567"><ele>21.75</ele><time>2026-03-29T08:29:37.999Z</time></trkpt><trkpt lat="40.95229086808089" lon="17.28612247356593"><ele>22.0</ele><time>2026-03-29T08:29:38.999Z</time></trkpt><trkpt lat="40.9522736113647" lon="17.285953371840378"><ele>22.0</ele><time>2026-03-29T08:29:39.999Z</time></trkpt><trkpt lat="40.952231430014194" lon="17.285846944922504"><ele>22.0</ele><time>2026-03-29T08:29:40.999Z</time></trkpt><trkpt lat="40.95218866615197" lon="17.285747013221307"><ele>22.0</ele><time>2026-03-29T08:29:41.999Z</time></trkpt><trkpt lat="40.952066156892286" lon="17.28569275664207"><ele>22.0</ele><time>2026-03-29T08:29:42.999Z</time></trkpt><trkpt lat="40.95194236803016" lon="17.28568255650891"><ele>22.0</ele><time>2026-03-29T08:29:43.999Z</time></trkpt><trkpt lat="40.951754169588376" lon="17.2855905741512"><ele>23.333333333333332</ele><time>2026-03-29T08:29:44.999Z</time></trkpt><trkpt lat="40.951621521626656" lon="17.28541924787124"><ele>24.666666666666664</ele><time>2026-03-29T08:29:45.999Z</time></trkpt><trkpt lat="40.951525037826066" lon="17.285255782281162"><ele>26.0</ele><time>2026-03-29T08:29:46.999Z</time></trkpt><trkpt lat="40.951451389468424" lon="17.285134222453625"><ele>26.0</ele><time>2026-03-29T08:29:47.999Z</time></trkpt><trkpt lat="40.95137567825382" lon="17.285057221793874"><ele>26.0</ele><time>2026-03-29T08:29:48.999Z</time></trkpt><trkpt lat="40.9512617890449" lon="17.28498749800552"><ele>26.0</ele><time>2026-03-29T08:29:49.999Z</time></trkpt><trkpt lat="40.95114837548636" lon="17.284919123950942"><ele>26.0</ele><time>2026-03-29T08:29:50.999Z</time></trkpt><trkpt lat="40.95106061710946" lon="17.28481984033696"><ele>26.4</ele><time>2026-03-29T08:29:51.999Z</time></trkpt><trkpt lat="40.95097348670508" lon="17.284717112437242"><ele>26.8</ele><time>2026-03-29T08:29:52.999Z</time></trkpt><trkpt lat="40.95090953601525" lon="17.284644614925735"><ele>27.199999999999996</ele><time>2026-03-29T08:29:53.999Z</time></trkpt><trkpt lat="40.95085978874684" lon="17.28451055593943"><ele>27.599999999999998</ele><time>2026-03-29T08:29:55.999Z</time></trkpt><trkpt lat="40.95082569221927" lon="17.284399729829367"><ele>28.0</ele><time>2026-03-29T08:29:57.999Z</time></trkpt><trkpt lat="40.95089254219802" lon="17.284270708509712"><ele>28.0</ele><time>2026-03-29T08:30:48.999Z</time></trkpt><trkpt lat="40.950837162671306" lon="17.284342851574717"><ele>28.0</ele><time>2026-03-29T08:30:49.999Z</time></trkpt><trkpt lat="40.95074862566095" lon="17.284327589138993"><ele>28.0</ele><time>2026-03-29T08:33:23Z</time></trkpt><trkpt lat="40.95059473160699" lon="17.28423210998155"><ele>28.0</ele><time>2026-03-29T08:33:24Z</time></trkpt><trkpt lat="40.9504577737977" lon="17.284264412860075"><ele>28.0</ele><time>2026-03-29T08:33:25Z</time></trkpt><trkpt lat="40.95031247124661" lon="17.28416805596846"><ele>28.0</ele><time>2026-03-29T08:33:26Z</time></trkpt><trkpt lat="40.95012238420485" lon="17.284055093732736"><ele>28.0</ele><time>2026-03-29T08:33:27Z</time></trkpt><trkpt lat="40.94990898137068" lon="17.283928084682604"><ele>30.5</ele><time>2026-03-29T08:33:28Z</time></trkpt><trkpt lat="40.94966363554364" lon="17.2838014811942"><ele>33.0</ele><time>2026-03-29T08:33:29Z</time></trkpt><trkpt lat="40.94939360513897" lon="17.283662756053722"><ele>33.5</ele><time>2026-03-29T08:33:30Z</time></trkpt><trkpt lat="40.94914756496359" lon="17.283567764921656"><ele>34.0</ele><time>2026-03-29T08:33:31Z</time></trkpt><trkpt lat="40.948953563918266" lon="17.2835122303705"><ele>34.0</ele><time>2026-03-29T08:33:32Z</time></trkpt><trkpt lat="40.9487954323123" lon="17.283456262275184"><ele>34.0</ele><time>2026-03-29T08:33:33Z</time></trkpt><trkpt lat="40.948641347227785" lon="17.28341785630541"><ele>34.0</ele><time>2026-03-29T08:33:34Z</time></trkpt><trkpt lat="40.948503264507856" lon="17.283383569827173"><ele>34.0</ele><time>2026-03-29T08:33:35Z</time></trkpt><trkpt lat="40.94838343899437" lon="17.283324652010887"><ele>34.0</ele><time>2026-03-29T08:33:36Z</time></trkpt><trkpt lat="40.948308954911546" lon="17.283234478514824"><ele>34.0</ele><time>2026-03-29T08:33:37Z</time></trkpt><trkpt lat="40.948243263820096" lon="17.28322137232241"><ele>34.0</ele><time>2026-03-29T08:33:38Z</time></trkpt><trkpt lat="40.94813540674817" lon="17.283367072894162"><ele>34.0</ele><time>2026-03-29T08:33:40Z</time></trkpt><trkpt lat="40.948125522330336" lon="17.28355021701843"><ele>35.333333333333336</ele><time>2026-03-29T08:33:41Z</time></trkpt><trkpt lat="40.94808437387994" lon="17.283789264828048"><ele>36.666666666666664</ele><time>2026-03-29T08:33:42Z</time></trkpt><trkpt lat="40.94805077955467" lon="17.28405046188649"><ele>38.0</ele><time>2026-03-29T08:33:43Z</time></trkpt><trkpt lat="40.94800102820873" lon="17.284350248673327"><ele>39.33333333333333</ele><time>2026-03-29T08:33:44Z</time></trkpt><trkpt lat="40.947974146142265" lon="17.284618860251047"><ele>40.666666666666664</ele><time>2026-03-29T08:33:45Z</time></trkpt><trkpt lat="40.94793798680318" lon="17.284849647843473"><ele>42.0</ele><time>2026-03-29T08:33:46Z</time></trkpt><trkpt lat="40.94790889857662" lon="17.285077348307063"><ele>42.0</ele><time>2026-03-29T08:33:47Z</time></trkpt><trkpt lat="40.94788540012171" lon="17.28529593934209"><ele>42.0</ele><time>2026-03-29T08:33:48Z</time></trkpt><trkpt lat="40.94786669547313" lon="17.28549537575027"><ele>42.0</ele><time>2026-03-29T08:33:49Z</time></trkpt><trkpt lat="40.94783037541322" lon="17.285675773907144"><ele>41.6</ele><time>2026-03-29T08:33:50Z</time></trkpt><trkpt lat="40.947825670238394" lon="17.285834158914106"><ele>41.2</ele><time>2026-03-29T08:33:51Z</time></trkpt><trkpt lat="40.94776285544205" lon="17.285953107088183"><ele>40.8</ele><time>2026-03-29T08:33:52Z</time></trkpt><trkpt lat="40.94770394160541" lon="17.28607569590082"><ele>40.4</ele><time>2026-03-29T08:33:53Z</time></trkpt><trkpt lat="40.94769616032757" lon="17.286217773403305"><ele>40.0</ele><time>2026-03-29T08:33:54Z</time></trkpt><trkpt lat="40.94771903340183" lon="17.28636944546118"><ele>39.8</ele><time>2026-03-29T08:33:55Z</time></trkpt><trkpt lat="40.94773910384049" lon="17.28647976558453"><ele>39.6</ele><time>2026-03-29T08:33:56Z</time></trkpt><trkpt lat="40.947706381034365" lon="17.286557699530928"><ele>39.4</ele><time>2026-03-29T08:33:57Z</time></trkpt><trkpt lat="40.947632469920784" lon="17.286617703564357"><ele>39.2</ele><time>2026-03-29T08:33:58Z</time></trkpt><trkpt lat="40.94753054656377" lon="17.286720467153803"><ele>39.0</ele><time>2026-03-29T08:33:59Z</time></trkpt><trkpt lat="40.94738283300912" lon="17.286878214935687"><ele>39.0</ele><time>2026-03-29T08:34:00Z</time></trkpt><trkpt lat="40.94723445197332" lon="17.287020919804117"><ele>39.0</ele><time>2026-03-29T08:34:01Z</time></trkpt><trkpt lat="40.94712651997605" lon="17.287144416529628"><ele>39.0</ele><time>2026-03-29T08:34:02Z</time></trkpt><trkpt lat="40.94701584275806" lon="17.28726094953714"><ele>39.4</ele><time>2026-03-29T08:34:03Z</time></trkpt><trkpt lat="40.94689871691113" lon="17.28735224013665"><ele>39.8</ele><time>2026-03-29T08:34:04Z</time></trkpt><trkpt lat="40.94680818371005" lon="17.28743589556844"><ele>40.199999999999996</ele><time>2026-03-29T08:34:05Z</time></trkpt><trkpt lat="40.94674140663328" lon="17.287481636689463"><ele>40.599999999999994</ele><time>2026-03-29T08:34:06Z</time></trkpt><trkpt lat="40.946661141903505" lon="17.28760132729182"><ele>41.0</ele><time>2026-03-29T08:34:08Z</time></trkpt><trkpt lat="40.94658125745697" lon="17.28770542753693"><ele>41.0</ele><time>2026-03-29T08:34:09Z</time></trkpt><trkpt lat="40.94646185544711" lon="17.287799260209187"><ele>41.0</ele><time>2026-03-29T08:34:10Z</time></trkpt><trkpt lat="40.94637062739406" lon="17.287892867182016"><ele>41.0</ele><time>2026-03-29T08:34:11Z</time></trkpt><trkpt lat="40.94628638707759" lon="17.28796211646392"><ele>41.0</ele><time>2026-03-29T08:34:12Z</time></trkpt><trkpt lat="40.9462254625714" lon="17.288011328615273"><ele>41.0</ele><time>2026-03-29T08:34:14Z</time></trkpt><trkpt lat="40.94614803859676" lon="17.287933728568376"><ele>41.0</ele><time>2026-03-29T08:34:16Z</time></trkpt><trkpt lat="40.94606713038789" lon="17.287839468640325"><ele>41.0</ele><time>2026-03-29T08:34:17Z</time></trkpt><trkpt lat="40.94600110957503" lon="17.28776255301835"><ele>41.0</ele><time>2026-03-29T08:34:18Z</time></trkpt><trkpt lat="40.945865165348366" lon="17.287603899137164"><ele>41.0</ele><time>2026-03-29T08:34:19Z</time></trkpt><trkpt lat="40.94570879846594" lon="17.287444009425627"><ele>41.0</ele><time>2026-03-29T08:34:20Z</time></trkpt><trkpt lat="40.94553505566221" lon="17.287215088404615"><ele>41.0</ele><time>2026-03-29T08:34:21Z</time></trkpt><trkpt lat="40.94533624934925" lon="17.286980236919558"><ele>41.0</ele><time>2026-03-29T08:34:22Z</time></trkpt><trkpt lat="40.94513602787759" lon="17.28674514422928"><ele>41.0</ele><time>2026-03-29T08:34:23Z</time></trkpt><trkpt lat="40.94494416835834" lon="17.28652039152851"><ele>41.33333333333333</ele><time>2026-03-29T08:34:24Z</time></trkpt><trkpt lat="40.944776480337005" lon="17.286324517575796"><ele>41.666666666666664</ele><time>2026-03-29T08:34:25Z</time></trkpt><trkpt lat="40.944602964881646" lon="17.286160262364234"><ele>42.0</ele><time>2026-03-29T08:34:26Z</time></trkpt><trkpt lat="40.944462859825215" lon="17.28597974579008"><ele>42.0</ele><time>2026-03-29T08:34:27Z</time></trkpt><trkpt lat="40.94433288359064" lon="17.28580603303079"><ele>42.0</ele><time>2026-03-29T08:34:28Z</time></trkpt><trkpt lat="40.94419170616624" lon="17.285664469667577"><ele>42.0</ele><time>2026-03-29T08:34:29Z</time></trkpt><trkpt lat="40.94403684734419" lon="17.285483604273104"><ele>41.666666666666664</ele><time>2026-03-29T08:34:30Z</time></trkpt><trkpt lat="40.943896777258104" lon="17.285290358785822"><ele>41.33333333333333</ele><time>2026-03-29T08:34:31Z</time></trkpt><trkpt lat="40.94372079974794" lon="17.2850837856195"><ele>41.0</ele><time>2026-03-29T08:34:32Z</time></trkpt><trkpt lat="40.943577650288745" lon="17.2849177190781"><ele>41.0</ele><time>2026-03-29T08:34:33Z</time></trkpt><trkpt lat="40.943449925868705" lon="17.28476513019151"><ele>41.0</ele><time>2026-03-29T08:34:34Z</time></trkpt><trkpt lat="40.943335685677475" lon="17.284627134255885"><ele>41.0</ele><time>2026-03-29T08:34:35Z</time></trkpt><trkpt lat="40.94324153402599" lon="17.284503234425937"><ele>41.0</ele><time>2026-03-29T08:34:36Z</time></trkpt><trkpt lat="40.94318646527793" lon="17.284424647726834"><ele>41.0</ele><time>2026-03-29T08:34:37Z</time></trkpt><trkpt lat="40.94317542706577" lon="17.28433350323521"><ele>41.0</ele><time>2026-03-29T08:34:38Z</time></trkpt><trkpt lat="40.943158657366894" lon="17.284248016273047"><ele>41.0</ele><time>2026-03-29T08:34:39Z</time></trkpt><trkpt lat="40.94307914725504" lon="17.284201054523187"><ele>41.0</ele><time>2026-03-29T08:34:41Z</time></trkpt><trkpt lat="40.94303329252347" lon="17.284268999428157"><ele>41.0</ele><time>2026-03-29T08:34:42Z</time></trkpt><trkpt lat="40.94299835850902" lon="17.28436030229184"><ele>41.0</ele><time>2026-03-29T08:34:43Z</time></trkpt><trkpt lat="40.942957130149814" lon="17.284481351916273"><ele>41.0</ele><time>2026-03-29T08:34:44Z</time></trkpt><trkpt lat="40.94291416702478" lon="17.284641162339703"><ele>41.0</ele><time>2026-03-29T08:34:45Z</time></trkpt><trkpt lat="40.942833289831086" lon="17.28478731137729"><ele>41.0</ele><time>2026-03-29T08:34:46Z</time></trkpt><trkpt lat="40.94272078439806" lon="17.28495839696545"><ele>41.0</ele><time>2026-03-29T08:34:47Z</time></trkpt><trkpt lat="40.942600360727425" lon="17.285173948642793"><ele>41.0</ele><time>2026-03-29T08:34:48Z</time></trkpt><trkpt lat="40.942458579294644" lon="17.28542773079876"><ele>41.0</ele><time>2026-03-29T08:34:49Z</time></trkpt><trkpt lat="40.94230170298577" lon="17.285708773510393"><ele>41.0</ele><time>2026-03-29T08:34:50Z</time></trkpt><trkpt lat="40.94214137713454" lon="17.28599677728971"><ele>41.0</ele><time>2026-03-29T08:34:51Z</time></trkpt><trkpt lat="40.941986643082416" lon="17.286243960398"><ele>41.0</ele><time>2026-03-29T08:34:52Z</time></trkpt><trkpt lat="40.94182646820921" lon="17.286418079668803"><ele>41.0</ele><time>2026-03-29T08:34:53Z</time></trkpt><trkpt lat="40.94167318499029" lon="17.286581226827074"><ele>41.0</ele><time>2026-03-29T08:34:54Z</time></trkpt><trkpt lat="40.941534077796696" lon="17.286761733774302"><ele>41.5</ele><time>2026-03-29T08:34:55Z</time></trkpt><trkpt lat="40.94133689301206" lon="17.286894782212592"><ele>42.0</ele><time>2026-03-29T08:34:56Z</time></trkpt><trkpt lat="40.94112780291644" lon="17.28704657304072"><ele>42.0</ele><time>2026-03-29T08:34:57Z</time></trkpt><trkpt lat="40.94088932035353" lon="17.287142696793275"><ele>42.0</ele><time>2026-03-29T08:34:58Z</time></trkpt><trkpt lat="40.940656459448064" lon="17.287218106237635"><ele>41.333333333333336</ele><time>2026-03-29T08:34:59Z</time></trkpt><trkpt lat="40.94046334616018" lon="17.287297972655214"><ele>40.66666666666667</ele><time>2026-03-29T08:35:00Z</time></trkpt><trkpt lat="40.94029367565148" lon="17.28741640961068"><ele>40.0</ele><time>2026-03-29T08:35:01Z</time></trkpt><trkpt lat="40.9401197766835" lon="17.28754766033449"><ele>40.25</ele><time>2026-03-29T08:35:02Z</time></trkpt><trkpt lat="40.939960259543945" lon="17.28766048485673"><ele>40.5</ele><time>2026-03-29T08:35:03Z</time></trkpt><trkpt lat="40.939840247082344" lon="17.28771221008343"><ele>40.75</ele><time>2026-03-29T08:35:04Z</time></trkpt><trkpt lat="40.939722138409415" lon="17.28773036679266"><ele>41.0</ele><time>2026-03-29T08:35:05Z</time></trkpt><trkpt lat="40.939628029294155" lon="17.287668673295727"><ele>41.0</ele><time>2026-03-29T08:35:06Z</time></trkpt><trkpt lat="40.93954100302083" lon="17.287607814287576"><ele>41.0</ele><time>2026-03-29T08:35:07Z</time></trkpt><trkpt lat="40.93943462884807" lon="17.2875138470527"><ele>41.0</ele><time>2026-03-29T08:35:08Z</time></trkpt><trkpt lat="40.93931282836309" lon="17.287413384229097"><ele>41.0</ele><time>2026-03-29T08:35:09Z</time></trkpt><trkpt lat="40.93920759836921" lon="17.287236433025743"><ele>41.33333333333333</ele><time>2026-03-29T08:35:10Z</time></trkpt><trkpt lat="40.93907155381527" lon="17.287036081569873"><ele>41.666666666666664</ele><time>2026-03-29T08:35:11Z</time></trkpt><trkpt lat="40.93896355372953" lon="17.286840737058995"><ele>42.0</ele><time>2026-03-29T08:35:12Z</time></trkpt><trkpt lat="40.938870450538595" lon="17.28669097911965"><ele>42.0</ele><time>2026-03-29T08:35:13Z</time></trkpt><trkpt lat="40.93880981520648" lon="17.28654916580842"><ele>42.0</ele><time>2026-03-29T08:35:14Z</time></trkpt><trkpt lat="40.93875133335418" lon="17.28643792991139"><ele>42.0</ele><time>2026-03-29T08:35:15Z</time></trkpt><trkpt lat="40.93873002140882" lon="17.28633592796225"><ele>42.0</ele><time>2026-03-29T08:35:16Z</time></trkpt><trkpt lat="40.93867254362063" lon="17.28624870946359"><ele>42.0</ele><time>2026-03-29T08:35:18Z</time></trkpt><trkpt lat="40.93869308448999" lon="17.286336562299724"><ele>42.0</ele><time>2026-03-29T08:35:20Z</time></trkpt><trkpt lat="40.93851068597317" lon="17.286522429175672"><ele>42.0</ele><time>2026-03-29T08:35:21Z</time></trkpt><trkpt lat="40.93842497421722" lon="17.286711779838978"><ele>42.0</ele><time>2026-03-29T08:35:22Z</time></trkpt><trkpt lat="40.9383204685062" lon="17.286917923634473"><ele>44.0</ele><time>2026-03-29T08:35:23Z</time></trkpt><trkpt lat="40.9381916493373" lon="17.287163863167976"><ele>46.0</ele><time>2026-03-29T08:35:24Z</time></trkpt><trkpt lat="40.938045457832196" lon="17.287443152878566"><ele>46.0</ele><time>2026-03-29T08:35:25Z</time></trkpt><trkpt lat="40.93788016458023" lon="17.28775483247089"><ele>46.0</ele><time>2026-03-29T08:35:26Z</time></trkpt><trkpt lat="40.93772520574474" lon="17.28804352709021"><ele>45.5</ele><time>2026-03-29T08:35:27Z</time></trkpt><trkpt lat="40.93758719640478" lon="17.288300644078888"><ele>45.0</ele><time>2026-03-29T08:35:28Z</time></trkpt><trkpt lat="40.937476184542405" lon="17.288542836260415"><ele>44.666666666666664</ele><time>2026-03-29T08:35:29Z</time></trkpt><trkpt lat="40.93734617262266" lon="17.288738137545433"><ele>44.33333333333333</ele><time>2026-03-29T08:35:30Z</time></trkpt><trkpt lat="40.93724440512995" lon="17.28888626689512"><ele>44.0</ele><time>2026-03-29T08:35:31Z</time></trkpt><trkpt lat="40.9371358463697" lon="17.28899228501157"><ele>44.0</ele><time>2026-03-29T08:35:32Z</time></trkpt><trkpt lat="40.936995097052375" lon="17.289079195314034"><ele>44.0</ele><time>2026-03-29T08:35:33Z</time></trkpt><trkpt lat="40.936885571144636" lon="17.289086283159538"><ele>44.0</ele><time>2026-03-29T08:35:34Z</time></trkpt><trkpt lat="40.93670893826305" lon="17.289055416296232"><ele>44.0</ele><time>2026-03-29T08:35:35Z</time></trkpt><trkpt lat="40.936563899819674" lon="17.288967919340063"><ele>44.33333333333333</ele><time>2026-03-29T08:35:36Z</time></trkpt><trkpt lat="40.93638283432028" lon="17.28903308575618"><ele>44.666666666666664</ele><time>2026-03-29T08:35:37Z</time></trkpt><trkpt lat="40.93621161846296" lon="17.289094251642094"><ele>45.0</ele><time>2026-03-29T08:35:38Z</time></trkpt><trkpt lat="40.93602505674623" lon="17.28919275194371"><ele>45.333333333333336</ele><time>2026-03-29T08:35:39Z</time></trkpt><trkpt lat="40.935832552537924" lon="17.289297892543626"><ele>45.66666666666667</ele><time>2026-03-29T08:35:40Z</time></trkpt><trkpt lat="40.93564890535406" lon="17.28944401714256"><ele>46.0</ele><time>2026-03-29T08:35:41Z</time></trkpt><trkpt lat="40.93545746873705" lon="17.289552997199632"><ele>46.0</ele><time>2026-03-29T08:35:42Z</time></trkpt><trkpt lat="40.935272249034696" lon="17.28966592109888"><ele>46.0</ele><time>2026-03-29T08:35:43Z</time></trkpt><trkpt lat="40.935095276716524" lon="17.28980574060855"><ele>46.0</ele><time>2026-03-29T08:35:44Z</time></trkpt><trkpt lat="40.934944639312526" lon="17.289957479497243"><ele>46.333333333333336</ele><time>2026-03-29T08:35:45Z</time></trkpt><trkpt lat="40.93482220854978" lon="17.290106460753094"><ele>46.666666666666664</ele><time>2026-03-29T08:35:46Z</time></trkpt><trkpt lat="40.93472468013461" lon="17.29026372918854"><ele>47.0</ele><time>2026-03-29T08:35:47Z</time></trkpt><trkpt lat="40.93463803131894" lon="17.290414072147634"><ele>47.0</ele><time>2026-03-29T08:35:48Z</time></trkpt><trkpt lat="40.934545764629114" lon="17.290590614954205"><ele>47.0</ele><time>2026-03-29T08:35:49Z</time></trkpt><trkpt lat="40.934451700818414" lon="17.29079611308471"><ele>47.0</ele><time>2026-03-29T08:35:50Z</time></trkpt><trkpt lat="40.93438157833631" lon="17.290886936775756"><ele>47.0</ele><time>2026-03-29T08:35:51Z</time></trkpt><trkpt lat="40.93431574776871" lon="17.290985690101895"><ele>46.666666666666664</ele><time>2026-03-29T08:35:52Z</time></trkpt><trkpt lat="40.9342625249713" lon="17.29108914987867"><ele>46.333333333333336</ele><time>2026-03-29T08:35:53Z</time></trkpt><trkpt lat="40.93404118609336" lon="17.291001605541155"><ele>46.0</ele><time>2026-03-29T08:35:54Z</time></trkpt><trkpt lat="40.93388833516387" lon="17.290980444724195"><ele>47.0</ele><time>2026-03-29T08:35:55Z</time></trkpt><trkpt lat="40.933706023692245" lon="17.290930406468856"><ele>48.0</ele><time>2026-03-29T08:35:56Z</time></trkpt><trkpt lat="40.933486432276396" lon="17.290823360125415"><ele>49.0</ele><time>2026-03-29T08:35:57Z</time></trkpt><trkpt lat="40.933271477921565" lon="17.290608336425617"><ele>49.0</ele><time>2026-03-29T08:35:58Z</time></trkpt><trkpt lat="40.93302517595691" lon="17.290398733966732"><ele>49.0</ele><time>2026-03-29T08:35:59Z</time></trkpt><trkpt lat="40.93274530266175" lon="17.290182088935712"><ele>48.5</ele><time>2026-03-29T08:36:00Z</time></trkpt><trkpt lat="40.93246201401271" lon="17.289922521912523"><ele>48.0</ele><time>2026-03-29T08:36:01Z</time></trkpt><trkpt lat="40.932170424120464" lon="17.28964198838393"><ele>49.0</ele><time>2026-03-29T08:36:02Z</time></trkpt><trkpt lat="40.931887031983756" lon="17.289311788267707"><ele>50.0</ele><time>2026-03-29T08:36:03Z</time></trkpt><trkpt lat="40.93159218238091" lon="17.2889620678229"><ele>51.0</ele><time>2026-03-29T08:36:04Z</time></trkpt><trkpt lat="40.93132080626507" lon="17.288637510505442"><ele>52.0</ele><time>2026-03-29T08:36:05Z</time></trkpt><trkpt lat="40.931080161286054" lon="17.28836460332796"><ele>52.0</ele><time>2026-03-29T08:36:06Z</time></trkpt><trkpt lat="40.93088519407018" lon="17.288110221722516"><ele>52.0</ele><time>2026-03-29T08:36:07Z</time></trkpt><trkpt lat="40.93067262751033" lon="17.287884572421635"><ele>53.0</ele><time>2026-03-29T08:36:08Z</time></trkpt><trkpt lat="40.93043408862554" lon="17.28770634189602"><ele>54.0</ele><time>2026-03-29T08:36:09Z</time></trkpt><trkpt lat="40.93015429079482" lon="17.287576297956864"><ele>53.5</ele><time>2026-03-29T08:36:10Z</time></trkpt><trkpt lat="40.92983117133651" lon="17.287450227089863"><ele>53.0</ele><time>2026-03-29T08:36:11Z</time></trkpt><trkpt lat="40.92947632025825" lon="17.287317622572495"><ele>52.0</ele><time>2026-03-29T08:36:12Z</time></trkpt><trkpt lat="40.92912575737742" lon="17.287170217534896"><ele>51.0</ele><time>2026-03-29T08:36:13Z</time></trkpt><trkpt lat="40.928761340317855" lon="17.28701688178634"><ele>51.0</ele><time>2026-03-29T08:36:14Z</time></trkpt><trkpt lat="40.92844168239197" lon="17.286881567124354"><ele>51.0</ele><time>2026-03-29T08:36:15Z</time></trkpt><trkpt lat="40.92817081683448" lon="17.286751373622806"><ele>52.5</ele><time>2026-03-29T08:36:16Z</time></trkpt><trkpt lat="40.92791871686495" lon="17.28654008921188"><ele>54.0</ele><time>2026-03-29T08:36:17Z</time></trkpt><trkpt lat="40.927658572009435" lon="17.28628094029332"><ele>55.5</ele><time>2026-03-29T08:36:18Z</time></trkpt><trkpt lat="40.9273739823158" lon="17.28602217980804"><ele>57.0</ele><time>2026-03-29T08:36:19Z</time></trkpt><trkpt lat="40.92709707606305" lon="17.28573518944225"><ele>57.0</ele><time>2026-03-29T08:36:20Z</time></trkpt><trkpt lat="40.92684722950895" lon="17.285481502342613"><ele>57.0</ele><time>2026-03-29T08:36:21Z</time></trkpt><trkpt lat="40.92663278300742" lon="17.28526829173141"><ele>58.0</ele><time>2026-03-29T08:36:22Z</time></trkpt><trkpt lat="40.926365741528684" lon="17.285110369937197"><ele>59.0</ele><time>2026-03-29T08:36:23Z</time></trkpt><trkpt lat="40.926043360682826" lon="17.284968470652522"><ele>59.0</ele><time>2026-03-29T08:36:24Z</time></trkpt><trkpt lat="40.92579261972577" lon="17.284822277011774"><ele>59.0</ele><time>2026-03-29T08:36:25Z</time></trkpt><trkpt lat="40.92558123244694" lon="17.284626988712493"><ele>59.5</ele><time>2026-03-29T08:36:26Z</time></trkpt><trkpt lat="40.925340623782255" lon="17.28437951044097"><ele>60.0</ele><time>2026-03-29T08:36:27Z</time></trkpt><trkpt lat="40.92505998718294" lon="17.284090857277498"><ele>61.5</ele><time>2026-03-29T08:36:28Z</time></trkpt><trkpt lat="40.924818334352025" lon="17.283846911122616"><ele>63.0</ele><time>2026-03-29T08:36:29Z</time></trkpt><trkpt lat="40.92452565662524" lon="17.283613203457854"><ele>63.0</ele><time>2026-03-29T08:36:30Z</time></trkpt><trkpt lat="40.92424302914417" lon="17.283305594960428"><ele>63.0</ele><time>2026-03-29T08:36:31Z</time></trkpt><trkpt lat="40.924015192442965" lon="17.283040120049005"><ele>64.5</ele><time>2026-03-29T08:36:32Z</time></trkpt><trkpt lat="40.92381008487034" lon="17.282820698885338"><ele>66.0</ele><time>2026-03-29T08:36:33Z</time></trkpt><trkpt lat="40.92362918704704" lon="17.282617850542863"><ele>66.0</ele><time>2026-03-29T08:36:34Z</time></trkpt><trkpt lat="40.92344975352289" lon="17.28242136767888"><ele>66.0</ele><time>2026-03-29T08:36:35Z</time></trkpt><trkpt lat="40.92328836746495" lon="17.282257748553242"><ele>66.0</ele><time>2026-03-29T08:36:36Z</time></trkpt><trkpt lat="40.923106142434456" lon="17.282121107388296"><ele>66.5</ele><time>2026-03-29T08:36:37Z</time></trkpt><trkpt lat="40.922892809083926" lon="17.281995683636165"><ele>67.0</ele><time>2026-03-29T08:36:38Z</time></trkpt><trkpt lat="40.92265536944452" lon="17.2818290121273"><ele>67.0</ele><time>2026-03-29T08:36:39Z</time></trkpt><trkpt lat="40.92238804072754" lon="17.28163218822324"><ele>67.0</ele><time>2026-03-29T08:36:40Z</time></trkpt><trkpt lat="40.922098290966375" lon="17.281457877762353"><ele>68.5</ele><time>2026-03-29T08:36:41Z</time></trkpt><trkpt lat="40.92180816808923" lon="17.28127611527691"><ele>70.0</ele><time>2026-03-29T08:36:42Z</time></trkpt><trkpt lat="40.92152437986075" lon="17.28109450233338"><ele>70.5</ele><time>2026-03-29T08:36:43Z</time></trkpt><trkpt lat="40.921239451385354" lon="17.28090908368981"><ele>71.0</ele><time>2026-03-29T08:36:44Z</time></trkpt><trkpt lat="40.92095691598443" lon="17.280737936614"><ele>71.0</ele><time>2026-03-29T08:36:45Z</time></trkpt><trkpt lat="40.92068486486071" lon="17.280545659475308"><ele>71.0</ele><time>2026-03-29T08:36:46Z</time></trkpt><trkpt lat="40.92040613341565" lon="17.280437786729266"><ele>71.0</ele><time>2026-03-29T08:36:47Z</time></trkpt><trkpt lat="40.920139243569686" lon="17.28023708356367"><ele>71.0</ele><time>2026-03-29T08:36:48Z</time></trkpt><trkpt lat="40.91981713242514" lon="17.280179201911537"><ele>71.5</ele><time>2026-03-29T08:36:49Z</time></trkpt><trkpt lat="40.91949264232804" lon="17.280068083273523"><ele>72.0</ele><time>2026-03-29T08:36:50Z</time></trkpt><trkpt lat="40.919140858369246" lon="17.27987044290202"><ele>74.0</ele><time>2026-03-29T08:36:51Z</time></trkpt><trkpt lat="40.9188284621365" lon="17.27956985980914"><ele>76.0</ele><time>2026-03-29T08:36:52Z</time></trkpt><trkpt lat="40.91849955622859" lon="17.27926869068426"><ele>76.5</ele><time>2026-03-29T08:36:53Z</time></trkpt><trkpt lat="40.9181451695693" lon="17.278959159388712"><ele>77.0</ele><time>2026-03-29T08:36:54Z</time></trkpt><trkpt lat="40.91780948950578" lon="17.27869342588694"><ele>79.0</ele><time>2026-03-29T08:36:55Z</time></trkpt><trkpt lat="40.91749408761029" lon="17.278441903483788"><ele>81.0</ele><time>2026-03-29T08:36:56Z</time></trkpt><trkpt lat="40.91723238693462" lon="17.278200839068546"><ele>82.0</ele><time>2026-03-29T08:36:57Z</time></trkpt><trkpt lat="40.91695083977386" lon="17.27796541534872"><ele>83.0</ele><time>2026-03-29T08:36:58Z</time></trkpt><trkpt lat="40.91663671145174" lon="17.277691254438647"><ele>84.0</ele><time>2026-03-29T08:36:59Z</time></trkpt><trkpt lat="40.916329564528304" lon="17.277389385564206"><ele>85.0</ele><time>2026-03-29T08:37:00Z</time></trkpt><trkpt lat="40.916004955797696" lon="17.277052563193013"><ele>86.5</ele><time>2026-03-29T08:37:01Z</time></trkpt><trkpt lat="40.91565577135573" lon="17.276714882159478"><ele>88.0</ele><time>2026-03-29T08:37:02Z</time></trkpt><trkpt lat="40.91530556119751" lon="17.276401695111833"><ele>88.0</ele><time>2026-03-29T08:37:03Z</time></trkpt><trkpt lat="40.9149725766992" lon="17.276109846134226"><ele>88.0</ele><time>2026-03-29T08:37:04Z</time></trkpt><trkpt lat="40.91466950253964" lon="17.275861102219356"><ele>88.0</ele><time>2026-03-29T08:37:05Z</time></trkpt><trkpt lat="40.91434450679107" lon="17.275630563188763"><ele>88.0</ele><time>2026-03-29T08:37:06Z</time></trkpt><trkpt lat="40.913983001043015" lon="17.275472991917574"><ele>89.5</ele><time>2026-03-29T08:37:07Z</time></trkpt><trkpt lat="40.91361544528015" lon="17.27537167412143"><ele>91.0</ele><time>2026-03-29T08:37:08Z</time></trkpt><trkpt lat="40.91321093813411" lon="17.275316028034066"><ele>91.5</ele><time>2026-03-29T08:37:09Z</time></trkpt><trkpt lat="40.9127875561617" lon="17.275240390928126"><ele>92.0</ele><time>2026-03-29T08:37:10Z</time></trkpt><trkpt lat="40.91235982506576" lon="17.27515866527888"><ele>93.5</ele><time>2026-03-29T08:37:11Z</time></trkpt><trkpt lat="40.91197830049117" lon="17.27507139382796"><ele>95.0</ele><time>2026-03-29T08:37:12Z</time></trkpt><trkpt lat="40.91162904153585" lon="17.27500166601433"><ele>95.5</ele><time>2026-03-29T08:37:13Z</time></trkpt><trkpt lat="40.91127810954133" lon="17.274918715793987"><ele>96.0</ele><time>2026-03-29T08:37:14Z</time></trkpt><trkpt lat="40.910938864245125" lon="17.274790390408366"><ele>99.0</ele><time>2026-03-29T08:37:15Z</time></trkpt><trkpt lat="40.910601105991475" lon="17.274628578333886"><ele>102.0</ele><time>2026-03-29T08:37:16Z</time></trkpt><trkpt lat="40.9103004316552" lon="17.274412844838707"><ele>103.5</ele><time>2026-03-29T08:37:17Z</time></trkpt><trkpt lat="40.910016261450885" lon="17.274146059202796"><ele>105.0</ele><time>2026-03-29T08:37:18Z</time></trkpt><trkpt lat="40.90972544180088" lon="17.27384157050416"><ele>106.0</ele><time>2026-03-29T08:37:19Z</time></trkpt><trkpt lat="40.90941989097493" lon="17.27352125576395"><ele>107.0</ele><time>2026-03-29T08:37:20Z</time></trkpt><trkpt lat="40.909108496079924" lon="17.27321735272953"><ele>109.5</ele><time>2026-03-29T08:37:21Z</time></trkpt><trkpt lat="40.90880356120261" lon="17.27294809176665"><ele>112.0</ele><time>2026-03-29T08:37:22Z</time></trkpt><trkpt lat="40.90854048077181" lon="17.272685345940502"><ele>114.0</ele><time>2026-03-29T08:37:23Z</time></trkpt><trkpt lat="40.908274825779074" lon="17.27242347759724"><ele>116.0</ele><time>2026-03-29T08:37:24Z</time></trkpt><trkpt lat="40.90800337296883" lon="17.272168989746692"><ele>116.5</ele><time>2026-03-29T08:37:25Z</time></trkpt><trkpt lat="40.90774456155165" lon="17.27192973275369"><ele>117.0</ele><time>2026-03-29T08:37:26Z</time></trkpt><trkpt lat="40.90749167994119" lon="17.27171954601443"><ele>118.5</ele><time>2026-03-29T08:37:27Z</time></trkpt><trkpt lat="40.90720931953583" lon="17.27157814471004"><ele>120.0</ele><time>2026-03-29T08:37:28Z</time></trkpt><trkpt lat="40.90693475981498" lon="17.271445301108265"><ele>123.0</ele><time>2026-03-29T08:37:29Z</time></trkpt><trkpt lat="40.9066789560407" lon="17.271342311096348"><ele>126.0</ele><time>2026-03-29T08:37:30Z</time></trkpt><trkpt lat="40.906447827221854" lon="17.271246938635628"><ele>126.0</ele><time>2026-03-29T08:37:31Z</time></trkpt><trkpt lat="40.90623530711949" lon="17.27115516921426"><ele>126.0</ele><time>2026-03-29T08:37:32Z</time></trkpt><trkpt lat="40.906043306612496" lon="17.271055648158836"><ele>126.0</ele><time>2026-03-29T08:37:33Z</time></trkpt><trkpt lat="40.90586557412181" lon="17.270999759706587"><ele>128.0</ele><time>2026-03-29T08:37:34Z</time></trkpt><trkpt lat="40.90566234464298" lon="17.270936888345553"><ele>130.0</ele><time>2026-03-29T08:37:35Z</time></trkpt><trkpt lat="40.90540755931966" lon="17.270884840500475"><ele>130.0</ele><time>2026-03-29T08:37:36Z</time></trkpt><trkpt lat="40.90511811853339" lon="17.27084917994655"><ele>130.0</ele><time>2026-03-29T08:37:37Z</time></trkpt><trkpt lat="40.90479184953996" lon="17.270865116090555"><ele>133.0</ele><time>2026-03-29T08:37:38Z</time></trkpt><trkpt lat="40.90445070516708" lon="17.270894216053257"><ele>136.0</ele><time>2026-03-29T08:37:39Z</time></trkpt><trkpt lat="40.9041059962418" lon="17.270929920001727"><ele>139.0</ele><time>2026-03-29T08:37:40Z</time></trkpt><trkpt lat="40.90378790063369" lon="17.270951430397755"><ele>142.0</ele><time>2026-03-29T08:37:41Z</time></trkpt><trkpt lat="40.9034904929696" lon="17.270971042672976"><ele>143.5</ele><time>2026-03-29T08:37:42Z</time></trkpt><trkpt lat="40.903226681218534" lon="17.270979869896006"><ele>145.0</ele><time>2026-03-29T08:37:43Z</time></trkpt><trkpt lat="40.902962818513494" lon="17.27102457460667"><ele>145.0</ele><time>2026-03-29T08:37:44Z</time></trkpt><trkpt lat="40.9028224507431" lon="17.27113440933141"><ele>145.0</ele><time>2026-03-29T08:37:45Z</time></trkpt><trkpt lat="40.90266847758349" lon="17.271331183081642"><ele>145.0</ele><time>2026-03-29T08:37:46Z</time></trkpt><trkpt lat="40.902590740548895" lon="17.27159739041796"><ele>148.5</ele><time>2026-03-29T08:37:47Z</time></trkpt><trkpt lat="40.90253183538399" lon="17.271915358609764"><ele>152.0</ele><time>2026-03-29T08:37:48Z</time></trkpt><trkpt lat="40.90247047763126" lon="17.272293373769177"><ele>152.5</ele><time>2026-03-29T08:37:49Z</time></trkpt><trkpt lat="40.90238028616265" lon="17.272681199643277"><ele>153.0</ele><time>2026-03-29T08:37:50Z</time></trkpt><trkpt lat="40.90221632690567" lon="17.27303161845905"><ele>153.0</ele><time>2026-03-29T08:37:51Z</time></trkpt><trkpt lat="40.90203088634848" lon="17.273346725151725"><ele>153.0</ele><time>2026-03-29T08:37:52Z</time></trkpt><trkpt lat="40.9018065916038" lon="17.273637649777598"><ele>155.0</ele><time>2026-03-29T08:37:53Z</time></trkpt><trkpt lat="40.90155887326537" lon="17.27384887337045"><ele>157.0</ele><time>2026-03-29T08:37:54Z</time></trkpt><trkpt lat="40.901278439652394" lon="17.274054621000044"><ele>157.0</ele><time>2026-03-29T08:37:55Z</time></trkpt><trkpt lat="40.90098551695993" lon="17.274270959538537"><ele>157.0</ele><time>2026-03-29T08:37:56Z</time></trkpt><trkpt lat="40.90067198815736" lon="17.27452351757254"><ele>158.5</ele><time>2026-03-29T08:37:57Z</time></trkpt><trkpt lat="40.900322827950355" lon="17.274779254889147"><ele>160.0</ele><time>2026-03-29T08:37:58Z</time></trkpt><trkpt lat="40.89999261357695" lon="17.27502921882944"><ele>160.5</ele><time>2026-03-29T08:37:59Z</time></trkpt><trkpt lat="40.899719513600324" lon="17.275282545482785"><ele>161.0</ele><time>2026-03-29T08:38:00Z</time></trkpt><trkpt lat="40.899495354897006" lon="17.2756083048593"><ele>161.0</ele><time>2026-03-29T08:38:01Z</time></trkpt><trkpt lat="40.89928942262625" lon="17.275985767090543"><ele>161.0</ele><time>2026-03-29T08:38:02Z</time></trkpt><trkpt lat="40.89911547944667" lon="17.27638985069666"><ele>164.5</ele><time>2026-03-29T08:38:03Z</time></trkpt><trkpt lat="40.89899121273127" lon="17.276800519363384"><ele>168.0</ele><time>2026-03-29T08:38:04Z</time></trkpt><trkpt lat="40.89890589397424" lon="17.2772306204608"><ele>168.5</ele><time>2026-03-29T08:38:05Z</time></trkpt><trkpt lat="40.89888443776225" lon="17.277703149883177"><ele>169.0</ele><time>2026-03-29T08:38:06Z</time></trkpt><trkpt lat="40.8988955187694" lon="17.278157916357294"><ele>169.5</ele><time>2026-03-29T08:38:07Z</time></trkpt><trkpt lat="40.89893488851998" lon="17.2785930292092"><ele>170.0</ele><time>2026-03-29T08:38:08Z</time></trkpt><trkpt lat="40.89894729840056" lon="17.278978906815496"><ele>170.0</ele><time>2026-03-29T08:38:09Z</time></trkpt><trkpt lat="40.89889812661439" lon="17.27938383107134"><ele>170.0</ele><time>2026-03-29T08:38:10Z</time></trkpt><trkpt lat="40.898858967526316" lon="17.279760592225806"><ele>170.5</ele><time>2026-03-29T08:38:11Z</time></trkpt><trkpt lat="40.8987034229543" lon="17.280108918743036"><ele>171.0</ele><time>2026-03-29T08:38:12Z</time></trkpt><trkpt lat="40.89850574894254" lon="17.280423405384003"><ele>176.5</ele><time>2026-03-29T08:38:13Z</time></trkpt><trkpt lat="40.89825716297507" lon="17.280687576234875"><ele>182.0</ele><time>2026-03-29T08:38:14Z</time></trkpt><trkpt lat="40.89794553972212" lon="17.28087965973421"><ele>182.0</ele><time>2026-03-29T08:38:15Z</time></trkpt><trkpt lat="40.89763230267137" lon="17.281082078032245"><ele>182.0</ele><time>2026-03-29T08:38:16Z</time></trkpt><trkpt lat="40.897360018203784" lon="17.281258051620206"><ele>182.33333333333331</ele><time>2026-03-29T08:38:17Z</time></trkpt><trkpt lat="40.89715891514206" lon="17.281409191221446"><ele>182.66666666666666</ele><time>2026-03-29T08:38:18Z</time></trkpt><trkpt lat="40.8970047316602" lon="17.28154169522963"><ele>183.0</ele><time>2026-03-29T08:38:19Z</time></trkpt><trkpt lat="40.89688517047852" lon="17.281723782912557"><ele>183.0</ele><time>2026-03-29T08:38:20Z</time></trkpt><trkpt lat="40.896753383211056" lon="17.281860558963746"><ele>183.0</ele><time>2026-03-29T08:38:21Z</time></trkpt><trkpt lat="40.89666428458897" lon="17.281973736708213"><ele>183.0</ele><time>2026-03-29T08:38:22Z</time></trkpt><trkpt lat="40.896902724252826" lon="17.28253573634996"><ele>179.5</ele><time>2026-03-29T08:38:23Z</time></trkpt><trkpt lat="40.89704680445827" lon="17.282905905258264"><ele>176.0</ele><time>2026-03-29T08:38:24Z</time></trkpt><trkpt lat="40.89715424433646" lon="17.283291864853265"><ele>176.0</ele><time>2026-03-29T08:38:25Z</time></trkpt><trkpt lat="40.89721870063416" lon="17.283703282226526"><ele>176.0</ele><time>2026-03-29T08:38:26Z</time></trkpt><trkpt lat="40.89722733882794" lon="17.284066652836803"><ele>176.0</ele><time>2026-03-29T08:38:27Z</time></trkpt><trkpt lat="40.89716169552007" lon="17.284420412672887"><ele>176.0</ele><time>2026-03-29T08:38:28Z</time></trkpt><trkpt lat="40.89702048084893" lon="17.284782206090366"><ele>171.5</ele><time>2026-03-29T08:38:29Z</time></trkpt><trkpt lat="40.8968878057936" lon="17.285114474406413"><ele>167.0</ele><time>2026-03-29T08:38:30Z</time></trkpt><trkpt lat="40.89677792299167" lon="17.285392656088572"><ele>175.33333333333331</ele><time>2026-03-29T08:38:31Z</time></trkpt><trkpt lat="40.89668912407351" lon="17.285609389456376"><ele>183.66666666666666</ele><time>2026-03-29T08:38:32Z</time></trkpt><trkpt lat="40.89658401898202" lon="17.2857905929993"><ele>192.0</ele><time>2026-03-29T08:38:33Z</time></trkpt><trkpt lat="40.896411887449204" lon="17.285862757633023"><ele>192.0</ele><time>2026-03-29T08:38:34Z</time></trkpt><trkpt lat="40.89619735591915" lon="17.28590265154779"><ele>192.0</ele><time>2026-03-29T08:38:35Z</time></trkpt><trkpt lat="40.895960860821866" lon="17.28585718241997"><ele>195.5</ele><time>2026-03-29T08:38:36Z</time></trkpt><trkpt lat="40.895706999234875" lon="17.285749603904545"><ele>199.0</ele><time>2026-03-29T08:38:37Z</time></trkpt><trkpt lat="40.89541594941495" lon="17.28565751449725"><ele>199.0</ele><time>2026-03-29T08:38:38Z</time></trkpt><trkpt lat="40.89513566539347" lon="17.285662208250315"><ele>199.0</ele><time>2026-03-29T08:38:39Z</time></trkpt><trkpt lat="40.89482145893688" lon="17.28570751528889"><ele>200.0</ele><time>2026-03-29T08:38:40Z</time></trkpt><trkpt lat="40.89446416464957" lon="17.28575040777671"><ele>201.0</ele><time>2026-03-29T08:38:41Z</time></trkpt><trkpt lat="40.89415088158821" lon="17.28579016435825"><ele>206.5</ele><time>2026-03-29T08:38:42Z</time></trkpt><trkpt lat="40.89391207161404" lon="17.285912334794187"><ele>212.0</ele><time>2026-03-29T08:38:43Z</time></trkpt><trkpt lat="40.893704579818994" lon="17.286033082291535"><ele>212.0</ele><time>2026-03-29T08:38:44Z</time></trkpt><trkpt lat="40.89354831823552" lon="17.286175450865542"><ele>212.0</ele><time>2026-03-29T08:38:45Z</time></trkpt><trkpt lat="40.893408527458284" lon="17.28623588409193"><ele>212.0</ele><time>2026-03-29T08:38:46Z</time></trkpt><trkpt lat="40.89325412645195" lon="17.28618519736409"><ele>214.0</ele><time>2026-03-29T08:38:47Z</time></trkpt><trkpt lat="40.893116834849366" lon="17.286044197311025"><ele>216.0</ele><time>2026-03-29T08:38:48Z</time></trkpt><trkpt lat="40.89301935385614" lon="17.28581561126407"><ele>218.0</ele><time>2026-03-29T08:38:49Z</time></trkpt><trkpt lat="40.89297185052756" lon="17.285546243267973"><ele>228.5</ele><time>2026-03-29T08:38:50Z</time></trkpt><trkpt lat="40.89296257854959" lon="17.28523288914457"><ele>239.0</ele><time>2026-03-29T08:38:51Z</time></trkpt><trkpt lat="40.89294733636372" lon="17.284880687969835"><ele>243.0</ele><time>2026-03-29T08:38:52Z</time></trkpt><trkpt lat="40.89291549654777" lon="17.28447913504463"><ele>247.0</ele><time>2026-03-29T08:38:53Z</time></trkpt><trkpt lat="40.892841421731426" lon="17.284059785212968"><ele>253.5</ele><time>2026-03-29T08:38:54Z</time></trkpt><trkpt lat="40.89271459088468" lon="17.283634575452496"><ele>260.0</ele><time>2026-03-29T08:38:55Z</time></trkpt><trkpt lat="40.89256365270496" lon="17.283206765958493"><ele>249.5</ele><time>2026-03-29T08:38:56Z</time></trkpt><trkpt lat="40.89244834060682" lon="17.282745981416"><ele>239.0</ele><time>2026-03-29T08:38:57Z</time></trkpt><trkpt lat="40.8923649223808" lon="17.282309669671605"><ele>247.0</ele><time>2026-03-29T08:38:58Z</time></trkpt><trkpt lat="40.892212788774" lon="17.281930887035156"><ele>255.0</ele><time>2026-03-29T08:38:59Z</time></trkpt><trkpt lat="40.891995263914055" lon="17.281540133046096"><ele>250.5</ele><time>2026-03-29T08:39:00Z</time></trkpt><trkpt lat="40.89175574716796" lon="17.281125471984666"><ele>246.0</ele><time>2026-03-29T08:39:01Z</time></trkpt><trkpt lat="40.89151202463575" lon="17.28069425967752"><ele>255.5</ele><time>2026-03-29T08:39:02Z</time></trkpt><trkpt lat="40.891238907256245" lon="17.28026862301106"><ele>265.0</ele><time>2026-03-29T08:39:03Z</time></trkpt><trkpt lat="40.89094983226688" lon="17.279851158818268"><ele>262.0</ele><time>2026-03-29T08:39:04Z</time></trkpt><trkpt lat="40.89065783284249" lon="17.279494937215972"><ele>259.0</ele><time>2026-03-29T08:39:05Z</time></trkpt><trkpt lat="40.89042159401906" lon="17.27921379887227"><ele>259.0</ele><time>2026-03-29T08:39:06Z</time></trkpt><trkpt lat="40.89023714250498" lon="17.278960391023965"><ele>259.0</ele><time>2026-03-29T08:39:07Z</time></trkpt><trkpt lat="40.89009877829259" lon="17.278682487886684"><ele>256.66666666666663</ele><time>2026-03-29T08:39:08Z</time></trkpt><trkpt lat="40.8900120410021" lon="17.278388076301265"><ele>254.33333333333331</ele><time>2026-03-29T08:39:09Z</time></trkpt><trkpt lat="40.889968654827065" lon="17.27811757422995"><ele>252.0</ele><time>2026-03-29T08:39:10Z</time></trkpt><trkpt lat="40.88988043149757" lon="17.277864012798947"><ele>262.0</ele><time>2026-03-29T08:39:11Z</time></trkpt><trkpt lat="40.88971959760168" lon="17.277684557160022"><ele>272.0</ele><time>2026-03-29T08:39:12Z</time></trkpt><trkpt lat="40.889492071266396" lon="17.277569849320912"><ele>269.0</ele><time>2026-03-29T08:39:13Z</time></trkpt><trkpt lat="40.88925069585542" lon="17.277519372201272"><ele>266.0</ele><time>2026-03-29T08:39:14Z</time></trkpt><trkpt lat="40.88897074037608" lon="17.277546146124546"><ele>266.0</ele><time>2026-03-29T08:39:15Z</time></trkpt><trkpt lat="40.88862849292877" lon="17.27755268370294"><ele>266.0</ele><time>2026-03-29T08:39:16Z</time></trkpt><trkpt lat="40.88832693179187" lon="17.277557807864593"><ele>267.0</ele><time>2026-03-29T08:39:17Z</time></trkpt><trkpt lat="40.88811674310408" lon="17.277588515449768"><ele>268.0</ele><time>2026-03-29T08:39:18Z</time></trkpt><trkpt lat="40.887937700187045" lon="17.277526228178434"><ele>269.0</ele><time>2026-03-29T08:39:19Z</time></trkpt><trkpt lat="40.887781900597545" lon="17.27736709626212"><ele>269.5</ele><time>2026-03-29T08:39:20Z</time></trkpt><trkpt lat="40.88764238928187" lon="17.27716803063749"><ele>270.0</ele><time>2026-03-29T08:39:21Z</time></trkpt><trkpt lat="40.887492974440896" lon="17.276853972522865"><ele>270.0</ele><time>2026-03-29T08:39:22Z</time></trkpt><trkpt lat="40.887354081233525" lon="17.276473041216562"><ele>270.0</ele><time>2026-03-29T08:39:23Z</time></trkpt><trkpt lat="40.88723378296874" lon="17.276055533298482"><ele>277.5</ele><time>2026-03-29T08:39:24Z</time></trkpt><trkpt lat="40.88713881774287" lon="17.275605597126447"><ele>285.0</ele><time>2026-03-29T08:39:25Z</time></trkpt><trkpt lat="40.88701798763559" lon="17.275198519801798"><ele>292.0</ele><time>2026-03-29T08:39:26Z</time></trkpt><trkpt lat="40.88690228722503" lon="17.27490324066369"><ele>299.0</ele><time>2026-03-29T08:39:27Z</time></trkpt><trkpt lat="40.88677456735215" lon="17.274670119134615"><ele>297.6666666666667</ele><time>2026-03-29T08:39:28Z</time></trkpt><trkpt lat="40.88664151625641" lon="17.274458394909487"><ele>296.3333333333333</ele><time>2026-03-29T08:39:29Z</time></trkpt><trkpt lat="40.88643152018451" lon="17.274349036982592"><ele>295.0</ele><time>2026-03-29T08:39:30Z</time></trkpt><trkpt lat="40.886195729719795" lon="17.274292807316165"><ele>295.0</ele><time>2026-03-29T08:39:31Z</time></trkpt><trkpt lat="40.88595409586306" lon="17.274326136883737"><ele>295.0</ele><time>2026-03-29T08:39:32Z</time></trkpt><trkpt lat="40.88568294534724" lon="17.274363468507097"><ele>294.5</ele><time>2026-03-29T08:39:33Z</time></trkpt><trkpt lat="40.885355931257614" lon="17.274443843986294"><ele>294.0</ele><time>2026-03-29T08:39:34Z</time></trkpt><trkpt lat="40.88504724497737" lon="17.274422113782546"><ele>294.0</ele><time>2026-03-29T08:39:35Z</time></trkpt><trkpt lat="40.88475542571183" lon="17.274289479186994"><ele>294.0</ele><time>2026-03-29T08:39:36Z</time></trkpt><trkpt lat="40.8844548622952" lon="17.27415643868719"><ele>291.0</ele><time>2026-03-29T08:39:37Z</time></trkpt><trkpt lat="40.8841337530203" lon="17.274050161607796"><ele>288.0</ele><time>2026-03-29T08:39:38Z</time></trkpt><trkpt lat="40.883838700544835" lon="17.27398398388326"><ele>289.0</ele><time>2026-03-29T08:39:39Z</time></trkpt><trkpt lat="40.88359052640807" lon="17.273924875869184"><ele>290.0</ele><time>2026-03-29T08:39:40Z</time></trkpt><trkpt lat="40.88347237677219" lon="17.2738696517924"><ele>291.0</ele><time>2026-03-29T08:39:41Z</time></trkpt><trkpt lat="40.883015823070174" lon="17.273991225894292"><ele>291.0</ele><time>2026-03-29T08:39:42Z</time></trkpt><trkpt lat="40.883071692977644" lon="17.274034297221192"><ele>291.0</ele><time>2026-03-29T08:39:43Z</time></trkpt><trkpt lat="40.88297980627326" lon="17.27403887096848"><ele>291.0</ele><time>2026-03-29T08:39:44Z</time></trkpt><trkpt lat="40.883001047720924" lon="17.274167421202982"><ele>291.0</ele><time>2026-03-29T08:39:45Z</time></trkpt><trkpt lat="40.88291046020919" lon="17.27433918403299"><ele>291.0</ele><time>2026-03-29T08:39:46Z</time></trkpt><trkpt lat="40.88280355334945" lon="17.27453026452511"><ele>298.5</ele><time>2026-03-29T08:39:47Z</time></trkpt><trkpt lat="40.882634762708165" lon="17.27484449872317"><ele>306.0</ele><time>2026-03-29T08:39:48Z</time></trkpt><trkpt lat="40.88244446009721" lon="17.275353794718452"><ele>300.0</ele><time>2026-03-29T08:39:49Z</time></trkpt><trkpt lat="40.88235363039779" lon="17.275632467584288"><ele>294.0</ele><time>2026-03-29T08:39:50Z</time></trkpt><trkpt lat="40.88218575827776" lon="17.276044241461232"><ele>294.0</ele><time>2026-03-29T08:39:51Z</time></trkpt><trkpt lat="40.88199749884611" lon="17.27622095748447"><ele>294.0</ele><time>2026-03-29T08:39:52Z</time></trkpt><trkpt lat="40.88186285107646" lon="17.276266661567895"><ele>294.0</ele><time>2026-03-29T08:39:53Z</time></trkpt><trkpt lat="40.88175868721448" lon="17.27626584247213"><ele>291.6666666666667</ele><time>2026-03-29T08:39:54Z</time></trkpt><trkpt lat="40.88174198125252" lon="17.276603410801968"><ele>289.33333333333337</ele><time>2026-03-29T08:39:55Z</time></trkpt><trkpt lat="40.881626575445146" lon="17.276425633736643"><ele>287.0</ele><time>2026-03-29T08:39:56Z</time></trkpt><trkpt lat="40.88143128242085" lon="17.276261132080368"><ele>297.0</ele><time>2026-03-29T08:39:57Z</time></trkpt><trkpt lat="40.88125072435282" lon="17.275958462913255"><ele>307.0</ele><time>2026-03-29T08:39:58Z</time></trkpt><trkpt lat="40.88102755579022" lon="17.275574100030035"><ele>320.0</ele><time>2026-03-29T08:39:59Z</time></trkpt><trkpt lat="40.88054220689195" lon="17.274801831220255"><ele>322.0</ele><time>2026-03-29T08:40:00Z</time></trkpt><trkpt lat="40.880284513933475" lon="17.27455041039837"><ele>324.0</ele><time>2026-03-29T08:40:01Z</time></trkpt><trkpt lat="40.88003886325491" lon="17.274307787403433"><ele>324.0</ele><time>2026-03-29T08:40:02Z</time></trkpt><trkpt lat="40.879774830778395" lon="17.274031661616597"><ele>324.0</ele><time>2026-03-29T08:40:03Z</time></trkpt><trkpt lat="40.87958032506736" lon="17.273724137134792"><ele>325.5</ele><time>2026-03-29T08:40:04Z</time></trkpt><trkpt lat="40.87945355057613" lon="17.273395172269332"><ele>327.0</ele><time>2026-03-29T08:40:05Z</time></trkpt><trkpt lat="40.87933501841596" lon="17.27315092179012"><ele>325.5</ele><time>2026-03-29T08:40:06Z</time></trkpt><trkpt lat="40.879195021254844" lon="17.272817619116285"><ele>324.0</ele><time>2026-03-29T08:40:07Z</time></trkpt><trkpt lat="40.87907110529038" lon="17.272497699190012"><ele>323.3333333333333</ele><time>2026-03-29T08:40:08Z</time></trkpt><trkpt lat="40.87891278137638" lon="17.272218866720554"><ele>322.66666666666663</ele><time>2026-03-29T08:40:09Z</time></trkpt><trkpt lat="40.87879115092966" lon="17.272054961748324"><ele>322.0</ele><time>2026-03-29T08:40:10Z</time></trkpt><trkpt lat="40.878670132540265" lon="17.27201089167685"><ele>322.0</ele><time>2026-03-29T08:40:11Z</time></trkpt><trkpt lat="40.878580720779745" lon="17.27194072752436"><ele>322.0</ele><time>2026-03-29T08:40:12Z</time></trkpt><trkpt lat="40.878347724767174" lon="17.271958133837135"><ele>322.0</ele><time>2026-03-29T08:40:13Z</time></trkpt><trkpt lat="40.878046997800716" lon="17.27200344191394"><ele>322.66666666666663</ele><time>2026-03-29T08:40:14Z</time></trkpt><trkpt lat="40.877840046855624" lon="17.271935684276336"><ele>323.3333333333333</ele><time>2026-03-29T08:40:15Z</time></trkpt><trkpt lat="40.87770186083694" lon="17.271832901754507"><ele>324.0</ele><time>2026-03-29T08:40:16Z</time></trkpt><trkpt lat="40.877541936559155" lon="17.27172550345282"><ele>324.0</ele><time>2026-03-29T08:40:17Z</time></trkpt><trkpt lat="40.87742132772836" lon="17.271587294431185"><ele>324.0</ele><time>2026-03-29T08:40:18Z</time></trkpt><trkpt lat="40.8772882204585" lon="17.27143386212408"><ele>324.0</ele><time>2026-03-29T08:40:19Z</time></trkpt><trkpt lat="40.87717361760214" lon="17.27129847998873"><ele>323.0</ele><time>2026-03-29T08:40:20Z</time></trkpt><trkpt lat="40.87706862577757" lon="17.271191535549285"><ele>322.0</ele><time>2026-03-29T08:40:21Z</time></trkpt><trkpt lat="40.877005768772946" lon="17.2710877237474"><ele>321.0</ele><time>2026-03-29T08:40:22Z</time></trkpt><trkpt lat="40.87699659139735" lon="17.270942700632183"><ele>320.0</ele><time>2026-03-29T08:40:23Z</time></trkpt><trkpt lat="40.87694097645823" lon="17.27084627221164"><ele>319.0</ele><time>2026-03-29T08:40:24Z</time></trkpt><trkpt lat="40.87691299225205" lon="17.270750751886286"><ele>319.0</ele><time>2026-03-29T08:40:25Z</time></trkpt><trkpt lat="40.876854046004496" lon="17.27069868633938"><ele>319.0</ele><time>2026-03-29T08:40:26Z</time></trkpt><trkpt lat="40.87676809029492" lon="17.27071222814864"><ele>319.0</ele><time>2026-03-29T08:40:27Z</time></trkpt><trkpt lat="40.876726238838266" lon="17.27078813808113"><ele>319.0</ele><time>2026-03-29T08:40:28Z</time></trkpt><trkpt lat="40.876690954737676" lon="17.270863631256173"><ele>319.0</ele><time>2026-03-29T08:40:29Z</time></trkpt><trkpt lat="40.876675828105355" lon="17.270986672122813"><ele>319.0</ele><time>2026-03-29T08:40:30Z</time></trkpt><trkpt lat="40.87664805807315" lon="17.27112045226185"><ele>319.3333333333333</ele><time>2026-03-29T08:40:31Z</time></trkpt><trkpt lat="40.876582306443694" lon="17.27127498135819"><ele>319.6666666666667</ele><time>2026-03-29T08:40:32Z</time></trkpt><trkpt lat="40.87648041173142" lon="17.27145689050594"><ele>320.0</ele><time>2026-03-29T08:40:33Z</time></trkpt><trkpt lat="40.87635674249333" lon="17.27166282852469"><ele>321.0</ele><time>2026-03-29T08:40:34Z</time></trkpt><trkpt lat="40.87623085534173" lon="17.27189118244744"><ele>322.0</ele><time>2026-03-29T08:40:35Z</time></trkpt><trkpt lat="40.87610803203431" lon="17.272109064046372"><ele>323.0</ele><time>2026-03-29T08:40:36Z</time></trkpt><trkpt lat="40.87598913338393" lon="17.2723587989448"><ele>326.0</ele><time>2026-03-29T08:40:37Z</time></trkpt><trkpt lat="40.87585923453899" lon="17.27263604482982"><ele>329.0</ele><time>2026-03-29T08:40:38Z</time></trkpt><trkpt lat="40.87574772174451" lon="17.27291363065143"><ele>330.0</ele><time>2026-03-29T08:40:39Z</time></trkpt><trkpt lat="40.87565855956303" lon="17.273225092316746"><ele>331.0</ele><time>2026-03-29T08:40:40Z</time></trkpt><trkpt lat="40.87558418655934" lon="17.273551368579245"><ele>331.0</ele><time>2026-03-29T08:40:41Z</time></trkpt><trkpt lat="40.875540340145804" lon="17.273887764880435"><ele>331.0</ele><time>2026-03-29T08:40:42Z</time></trkpt><trkpt lat="40.875528343650025" lon="17.274219513637572"><ele>332.5</ele><time>2026-03-29T08:40:43Z</time></trkpt><trkpt lat="40.875479574032255" lon="17.274528598841865"><ele>334.0</ele><time>2026-03-29T08:40:44Z</time></trkpt><trkpt lat="40.875401404995976" lon="17.274835932554282"><ele>335.5</ele><time>2026-03-29T08:40:45Z</time></trkpt><trkpt lat="40.87528949257613" lon="17.275113980090595"><ele>337.0</ele><time>2026-03-29T08:40:46Z</time></trkpt><trkpt lat="40.87516256936334" lon="17.275350079942594"><ele>336.5</ele><time>2026-03-29T08:40:47Z</time></trkpt><trkpt lat="40.87500737612841" lon="17.27556763801585"><ele>336.0</ele><time>2026-03-29T08:40:48Z</time></trkpt><trkpt lat="40.87479662933899" lon="17.275785928471123"><ele>336.0</ele><time>2026-03-29T08:40:49Z</time></trkpt><trkpt lat="40.87457117424105" lon="17.276020343287094"><ele>336.0</ele><time>2026-03-29T08:40:50Z</time></trkpt><trkpt lat="40.874329569222766" lon="17.2762544120169"><ele>335.0</ele><time>2026-03-29T08:40:51Z</time></trkpt><trkpt lat="40.87411635251314" lon="17.2764982719176"><ele>334.0</ele><time>2026-03-29T08:40:52Z</time></trkpt><trkpt lat="40.87393042129906" lon="17.276769268242557"><ele>334.0</ele><time>2026-03-29T08:40:53Z</time></trkpt><trkpt lat="40.873741260540946" lon="17.277000954712683"><ele>334.0</ele><time>2026-03-29T08:40:54Z</time></trkpt><trkpt lat="40.87350692483463" lon="17.27717550908894"><ele>335.0</ele><time>2026-03-29T08:40:55Z</time></trkpt><trkpt lat="40.87325570591486" lon="17.277303745667027"><ele>336.0</ele><time>2026-03-29T08:40:56Z</time></trkpt><trkpt lat="40.87300626989896" lon="17.277512284829974"><ele>336.0</ele><time>2026-03-29T08:40:57Z</time></trkpt><trkpt lat="40.87274781596184" lon="17.277715917717146"><ele>336.0</ele><time>2026-03-29T08:40:58Z</time></trkpt><trkpt lat="40.872499159628816" lon="17.277918831814002"><ele>335.5</ele><time>2026-03-29T08:40:59Z</time></trkpt><trkpt lat="40.87224820408593" lon="17.27808578857175"><ele>335.0</ele><time>2026-03-29T08:41:00Z</time></trkpt><trkpt lat="40.87196738481067" lon="17.278150935689585"><ele>336.5</ele><time>2026-03-29T08:41:01Z</time></trkpt><trkpt lat="40.87167055799687" lon="17.278219473238774"><ele>338.0</ele><time>2026-03-29T08:41:02Z</time></trkpt><trkpt lat="40.8713472907233" lon="17.27831925094807"><ele>338.0</ele><time>2026-03-29T08:41:03Z</time></trkpt><trkpt lat="40.87100416136465" lon="17.27838645553852"><ele>338.0</ele><time>2026-03-29T08:41:04Z</time></trkpt><trkpt lat="40.87064171170936" lon="17.27848203754127"><ele>338.0</ele><time>2026-03-29T08:41:05Z</time></trkpt><trkpt lat="40.87030054826049" lon="17.27854867067079"><ele>338.0</ele><time>2026-03-29T08:41:06Z</time></trkpt><trkpt lat="40.870000611620206" lon="17.278654370717465"><ele>339.0</ele><time>2026-03-29T08:41:07Z</time></trkpt><trkpt lat="40.86970705114528" lon="17.278811546732786"><ele>340.0</ele><time>2026-03-29T08:41:08Z</time></trkpt><trkpt lat="40.86940001973059" lon="17.27901206852781"><ele>341.0</ele><time>2026-03-29T08:41:09Z</time></trkpt><trkpt lat="40.869051251642965" lon="17.27923973091524"><ele>342.0</ele><time>2026-03-29T08:41:10Z</time></trkpt><trkpt lat="40.868696024270236" lon="17.279429019577037"><ele>342.5</ele><time>2026-03-29T08:41:11Z</time></trkpt><trkpt lat="40.86834954654003" lon="17.27962170935528"><ele>343.0</ele><time>2026-03-29T08:41:12Z</time></trkpt><trkpt lat="40.8680189773295" lon="17.27980222383312"><ele>343.5</ele><time>2026-03-29T08:41:13Z</time></trkpt><trkpt lat="40.86774348343359" lon="17.279953580930496"><ele>344.0</ele><time>2026-03-29T08:41:14Z</time></trkpt><trkpt lat="40.86753211382454" lon="17.28011606230825"><ele>344.0</ele><time>2026-03-29T08:41:15Z</time></trkpt><trkpt lat="40.867312195849195" lon="17.280298291843767"><ele>344.0</ele><time>2026-03-29T08:41:16Z</time></trkpt><trkpt lat="40.86714961835377" lon="17.280579793173704"><ele>344.0</ele><time>2026-03-29T08:41:17Z</time></trkpt><trkpt lat="40.86695174247212" lon="17.280904098543534"><ele>344.0</ele><time>2026-03-29T08:41:18Z</time></trkpt><trkpt lat="40.86674518417677" lon="17.281232852012263"><ele>344.5</ele><time>2026-03-29T08:41:19Z</time></trkpt><trkpt lat="40.866534747300484" lon="17.2815802339909"><ele>345.0</ele><time>2026-03-29T08:41:20Z</time></trkpt><trkpt lat="40.86638697123946" lon="17.28187546607168"><ele>345.0</ele><time>2026-03-29T08:41:21Z</time></trkpt><trkpt lat="40.866309652678304" lon="17.282089119030182"><ele>345.0</ele><time>2026-03-29T08:41:22Z</time></trkpt><trkpt lat="40.86623172673769" lon="17.282250264706043"><ele>345.0</ele><time>2026-03-29T08:41:23Z</time></trkpt><trkpt lat="40.86614031517746" lon="17.28245874182003"><ele>345.0</ele><time>2026-03-29T08:41:24Z</time></trkpt><trkpt lat="40.86602966250007" lon="17.282711101040782"><ele>345.0</ele><time>2026-03-29T08:41:25Z</time></trkpt><trkpt lat="40.8659208880708" lon="17.283036221723705"><ele>345.0</ele><time>2026-03-29T08:41:26Z</time></trkpt><trkpt lat="40.86577999487258" lon="17.2833852445692"><ele>345.0</ele><time>2026-03-29T08:41:27Z</time></trkpt><trkpt lat="40.86563985589323" lon="17.283769625419286"><ele>344.5</ele><time>2026-03-29T08:41:28Z</time></trkpt><trkpt lat="40.865479072116855" lon="17.28417439453374"><ele>344.0</ele><time>2026-03-29T08:41:29Z</time></trkpt><trkpt lat="40.86531663199683" lon="17.2846066614924"><ele>345.0</ele><time>2026-03-29T08:41:30Z</time></trkpt><trkpt lat="40.86516110472152" lon="17.285008415157744"><ele>346.0</ele><time>2026-03-29T08:41:31Z</time></trkpt><trkpt lat="40.8650173942998" lon="17.285391812593154"><ele>347.5</ele><time>2026-03-29T08:41:32Z</time></trkpt><trkpt lat="40.86486963465946" lon="17.28575513980179"><ele>349.0</ele><time>2026-03-29T08:41:33Z</time></trkpt><trkpt lat="40.86470906164087" lon="17.286098815397544"><ele>349.0</ele><time>2026-03-29T08:41:34Z</time></trkpt><trkpt lat="40.86453130054176" lon="17.28645603263454"><ele>349.0</ele><time>2026-03-29T08:41:35Z</time></trkpt><trkpt lat="40.86428267161312" lon="17.286774819097765"><ele>347.0</ele><time>2026-03-29T08:41:36Z</time></trkpt><trkpt lat="40.86403486119417" lon="17.287017272149924"><ele>345.0</ele><time>2026-03-29T08:41:37Z</time></trkpt><trkpt lat="40.86379458925586" lon="17.287196375065022"><ele>345.3333333333333</ele><time>2026-03-29T08:41:38Z</time></trkpt><trkpt lat="40.86359797791744" lon="17.287335784390066"><ele>345.66666666666663</ele><time>2026-03-29T08:41:39Z</time></trkpt><trkpt lat="40.86343929845101" lon="17.28744194973125"><ele>346.0</ele><time>2026-03-29T08:41:40Z</time></trkpt><trkpt lat="40.863346727312035" lon="17.28759979242293"><ele>346.0</ele><time>2026-03-29T08:41:41Z</time></trkpt><trkpt lat="40.86328564326072" lon="17.28780077431193"><ele>346.0</ele><time>2026-03-29T08:41:42Z</time></trkpt><trkpt lat="40.86324320862523" lon="17.288081748200675"><ele>346.0</ele><time>2026-03-29T08:41:43Z</time></trkpt><trkpt lat="40.86326736408358" lon="17.288355123514414"><ele>345.0</ele><time>2026-03-29T08:41:44Z</time></trkpt><trkpt lat="40.86333027785466" lon="17.288657665229447"><ele>344.0</ele><time>2026-03-29T08:41:45Z</time></trkpt><trkpt lat="40.86340621055938" lon="17.289031719463452"><ele>347.0</ele><time>2026-03-29T08:41:46Z</time></trkpt><trkpt lat="40.86348520261778" lon="17.289455165144556"><ele>350.0</ele><time>2026-03-29T08:41:47Z</time></trkpt><trkpt lat="40.863555144518045" lon="17.289843377468795"><ele>350.0</ele><time>2026-03-29T08:41:48Z</time></trkpt><trkpt lat="40.8635954412671" lon="17.29021420097125"><ele>350.0</ele><time>2026-03-29T08:41:49Z</time></trkpt><trkpt lat="40.86361382468232" lon="17.290527194251236"><ele>347.0</ele><time>2026-03-29T08:41:50Z</time></trkpt><trkpt lat="40.86359587547025" lon="17.290831027520873"><ele>344.0</ele><time>2026-03-29T08:41:51Z</time></trkpt><trkpt lat="40.86352503802657" lon="17.29116153008538"><ele>342.6666666666667</ele><time>2026-03-29T08:41:52Z</time></trkpt><trkpt lat="40.863435106483095" lon="17.291462552154616"><ele>341.3333333333333</ele><time>2026-03-29T08:41:53Z</time></trkpt><trkpt lat="40.86333182227834" lon="17.291695829684468"><ele>340.0</ele><time>2026-03-29T08:41:54Z</time></trkpt><trkpt lat="40.86319547916696" lon="17.29188263129144"><ele>340.0</ele><time>2026-03-29T08:41:55Z</time></trkpt><trkpt lat="40.86305964705462" lon="17.29209386922324"><ele>340.0</ele><time>2026-03-29T08:41:56Z</time></trkpt><trkpt lat="40.86285878344283" lon="17.292246620267168"><ele>340.0</ele><time>2026-03-29T08:41:57Z</time></trkpt><trkpt lat="40.86261850834959" lon="17.292338844007467"><ele>336.5</ele><time>2026-03-29T08:41:58Z</time></trkpt><trkpt lat="40.86239389047608" lon="17.292387126405398"><ele>333.0</ele><time>2026-03-29T08:41:59Z</time></trkpt><trkpt lat="40.86214795382151" lon="17.29232285104949"><ele>340.5</ele><time>2026-03-29T08:42:00Z</time></trkpt><trkpt lat="40.861881352096155" lon="17.2922129362002"><ele>348.0</ele><time>2026-03-29T08:42:01Z</time></trkpt><trkpt lat="40.86158143803669" lon="17.292158327886508"><ele>348.5</ele><time>2026-03-29T08:42:02Z</time></trkpt><trkpt lat="40.861311282517796" lon="17.29215607764681"><ele>349.0</ele><time>2026-03-29T08:42:03Z</time></trkpt><trkpt lat="40.86107975015542" lon="17.292240086957076"><ele>350.0</ele><time>2026-03-29T08:42:04Z</time></trkpt><trkpt lat="40.860878355133195" lon="17.29237785335559"><ele>351.0</ele><time>2026-03-29T08:42:05Z</time></trkpt><trkpt lat="40.86068475065837" lon="17.292565596992652"><ele>351.0</ele><time>2026-03-29T08:42:06Z</time></trkpt><trkpt lat="40.86045245790435" lon="17.292756492628012"><ele>351.0</ele><time>2026-03-29T08:42:07Z</time></trkpt><trkpt lat="40.860171290195574" lon="17.292960463558636"><ele>350.0</ele><time>2026-03-29T08:42:08Z</time></trkpt><trkpt lat="40.85991214711489" lon="17.29319917245154"><ele>349.0</ele><time>2026-03-29T08:42:09Z</time></trkpt><trkpt lat="40.859635544163076" lon="17.29340184979262"><ele>349.0</ele><time>2026-03-29T08:42:10Z</time></trkpt><trkpt lat="40.85932728584952" lon="17.293553721856764"><ele>349.0</ele><time>2026-03-29T08:42:11Z</time></trkpt><trkpt lat="40.85900738134878" lon="17.293619095728012"><ele>351.5</ele><time>2026-03-29T08:42:12Z</time></trkpt><trkpt lat="40.85865722690947" lon="17.293652176042823"><ele>354.0</ele><time>2026-03-29T08:42:13Z</time></trkpt><trkpt lat="40.85830870423981" lon="17.29371243258394"><ele>355.5</ele><time>2026-03-29T08:42:14Z</time></trkpt><trkpt lat="40.85798990190988" lon="17.293784395231835"><ele>357.0</ele><time>2026-03-29T08:42:15Z</time></trkpt><trkpt lat="40.857698692326515" lon="17.293889682773887"><ele>357.0</ele><time>2026-03-29T08:42:16Z</time></trkpt><trkpt lat="40.85739075459465" lon="17.29405840116908"><ele>357.0</ele><time>2026-03-29T08:42:17Z</time></trkpt><trkpt lat="40.85709318018926" lon="17.294271395128536"><ele>357.0</ele><time>2026-03-29T08:42:18Z</time></trkpt><trkpt lat="40.856803676357714" lon="17.29458941956373"><ele>357.0</ele><time>2026-03-29T08:42:19Z</time></trkpt><trkpt lat="40.85653607182585" lon="17.29487273990791"><ele>356.5</ele><time>2026-03-29T08:42:20Z</time></trkpt><trkpt lat="40.85624737600759" lon="17.29511074161359"><ele>356.0</ele><time>2026-03-29T08:42:21Z</time></trkpt><trkpt lat="40.85592453390595" lon="17.295315255246326"><ele>357.0</ele><time>2026-03-29T08:42:22Z</time></trkpt><trkpt lat="40.855573107795514" lon="17.295492792298763"><ele>358.0</ele><time>2026-03-29T08:42:23Z</time></trkpt><trkpt lat="40.85522549383359" lon="17.29567363248458"><ele>360.0</ele><time>2026-03-29T08:42:24Z</time></trkpt><trkpt lat="40.85491104355947" lon="17.295838196243338"><ele>362.0</ele><time>2026-03-29T08:42:25Z</time></trkpt><trkpt lat="40.85463853385325" lon="17.295998563889913"><ele>362.0</ele><time>2026-03-29T08:42:26Z</time></trkpt><trkpt lat="40.854420375821476" lon="17.296127697884046"><ele>362.0</ele><time>2026-03-29T08:42:27Z</time></trkpt><trkpt lat="40.85421875791258" lon="17.296251038285288"><ele>363.5</ele><time>2026-03-29T08:42:28Z</time></trkpt><trkpt lat="40.85401963247413" lon="17.296395919298913"><ele>365.0</ele><time>2026-03-29T08:42:29Z</time></trkpt><trkpt lat="40.853764698950535" lon="17.296526587508506"><ele>365.5</ele><time>2026-03-29T08:42:30Z</time></trkpt><trkpt lat="40.85344755045512" lon="17.296632296972376"><ele>366.0</ele><time>2026-03-29T08:42:31Z</time></trkpt><trkpt lat="40.85313716029551" lon="17.2968491587037"><ele>366.0</ele><time>2026-03-29T08:42:32Z</time></trkpt><trkpt lat="40.85283136051132" lon="17.297044037544115"><ele>366.0</ele><time>2026-03-29T08:42:33Z</time></trkpt><trkpt lat="40.852466694341466" lon="17.297208033159485"><ele>366.5</ele><time>2026-03-29T08:42:34Z</time></trkpt><trkpt lat="40.852135429897814" lon="17.2973347212864"><ele>367.0</ele><time>2026-03-29T08:42:35Z</time></trkpt><trkpt lat="40.8518556063701" lon="17.297494091059583"><ele>368.0</ele><time>2026-03-29T08:42:36Z</time></trkpt><trkpt lat="40.851541930984034" lon="17.29767242842487"><ele>369.0</ele><time>2026-03-29T08:42:37Z</time></trkpt><trkpt lat="40.85119032458574" lon="17.29788644502124"><ele>369.0</ele><time>2026-03-29T08:42:38Z</time></trkpt><trkpt lat="40.85082397499479" lon="17.298097595411956"><ele>369.0</ele><time>2026-03-29T08:42:39.001Z</time></trkpt><trkpt lat="40.850463321021955" lon="17.298310358976206"><ele>369.0</ele><time>2026-03-29T08:42:40.001Z</time></trkpt><trkpt lat="40.85014202982077" lon="17.298504943410137"><ele>369.0</ele><time>2026-03-29T08:42:41.001Z</time></trkpt><trkpt lat="40.84985959136575" lon="17.298673497322536"><ele>369.5</ele><time>2026-03-29T08:42:42.001Z</time></trkpt><trkpt lat="40.84959013365854" lon="17.298816342148623"><ele>370.0</ele><time>2026-03-29T08:42:43.001Z</time></trkpt><trkpt lat="40.849299270650526" lon="17.298927900913935"><ele>370.5</ele><time>2026-03-29T08:42:44.001Z</time></trkpt><trkpt lat="40.84897457730736" lon="17.29898705911834"><ele>371.0</ele><time>2026-03-29T08:42:45.001Z</time></trkpt><trkpt lat="40.84867511331661" lon="17.299036366632922"><ele>371.5</ele><time>2026-03-29T08:42:46.001Z</time></trkpt><trkpt lat="40.84841391616921" lon="17.29908786886132"><ele>372.0</ele><time>2026-03-29T08:42:47.001Z</time></trkpt><trkpt lat="40.84816630540948" lon="17.299174951302213"><ele>372.0</ele><time>2026-03-29T08:42:48.001Z</time></trkpt><trkpt lat="40.8479126147524" lon="17.299342217926835"><ele>372.0</ele><time>2026-03-29T08:42:49.001Z</time></trkpt><trkpt lat="40.84765320011286" lon="17.299622644356504"><ele>372.5</ele><time>2026-03-29T08:42:50.001Z</time></trkpt><trkpt lat="40.84738261673816" lon="17.29992692113598"><ele>373.0</ele><time>2026-03-29T08:42:51.001Z</time></trkpt><trkpt lat="40.847115590008464" lon="17.300258560930775"><ele>372.5</ele><time>2026-03-29T08:42:52.001Z</time></trkpt><trkpt lat="40.846867658643646" lon="17.30061997081999"><ele>372.0</ele><time>2026-03-29T08:42:53.001Z</time></trkpt><trkpt lat="40.84664247185021" lon="17.30100877038818"><ele>372.0</ele><time>2026-03-29T08:42:54.001Z</time></trkpt><trkpt lat="40.84641754627369" lon="17.301341559471535"><ele>372.0</ele><time>2026-03-29T08:42:55.001Z</time></trkpt><trkpt lat="40.84615062022879" lon="17.301596036207602"><ele>373.5</ele><time>2026-03-29T08:42:56.001Z</time></trkpt><trkpt lat="40.8458442821722" lon="17.3018037156536"><ele>375.0</ele><time>2026-03-29T08:42:57.001Z</time></trkpt><trkpt lat="40.84550457024366" lon="17.301998166125667"><ele>375.0</ele><time>2026-03-29T08:42:58.001Z</time></trkpt><trkpt lat="40.84515356373834" lon="17.30220100867192"><ele>375.0</ele><time>2026-03-29T08:42:59.001Z</time></trkpt><trkpt lat="40.84484158341519" lon="17.30238171754902"><ele>376.0</ele><time>2026-03-29T08:43:00.001Z</time></trkpt><trkpt lat="40.84455565801486" lon="17.302569444786798"><ele>377.0</ele><time>2026-03-29T08:43:01.001Z</time></trkpt><trkpt lat="40.84423121952207" lon="17.30273489765063"><ele>378.0</ele><time>2026-03-29T08:43:02.001Z</time></trkpt><trkpt lat="40.84394012393942" lon="17.30291682391011"><ele>379.0</ele><time>2026-03-29T08:43:03.001Z</time></trkpt><trkpt lat="40.843673110871926" lon="17.30305773836339"><ele>379.0</ele><time>2026-03-29T08:43:04.001Z</time></trkpt><trkpt lat="40.843423736517586" lon="17.303207270558634"><ele>379.0</ele><time>2026-03-29T08:43:05.001Z</time></trkpt><trkpt lat="40.84321208009483" lon="17.30335067056889"><ele>379.0</ele><time>2026-03-29T08:43:06.001Z</time></trkpt><trkpt lat="40.84305026249632" lon="17.30347333780612"><ele>379.0</ele><time>2026-03-29T08:43:07.001Z</time></trkpt><trkpt lat="40.84289998398248" lon="17.303584004987613"><ele>379.0</ele><time>2026-03-29T08:43:08.001Z</time></trkpt><trkpt lat="40.84282034416387" lon="17.303794028108076"><ele>378.0</ele><time>2026-03-29T08:43:09.001Z</time></trkpt><trkpt lat="40.84274466070471" lon="17.304052886613764"><ele>377.0</ele><time>2026-03-29T08:43:10.001Z</time></trkpt><trkpt lat="40.842714699588186" lon="17.30433959048659"><ele>376.0</ele><time>2026-03-29T08:43:11.001Z</time></trkpt><trkpt lat="40.84273450782783" lon="17.304676302171295"><ele>374.0</ele><time>2026-03-29T08:43:12Z</time></trkpt><trkpt lat="40.84282273234549" lon="17.30506623513556"><ele>372.0</ele><time>2026-03-29T08:43:13Z</time></trkpt><trkpt lat="40.84293225566839" lon="17.305465497895277"><ele>370.5</ele><time>2026-03-29T08:43:14Z</time></trkpt><trkpt lat="40.84308743040515" lon="17.30584257846328"><ele>369.0</ele><time>2026-03-29T08:43:15Z</time></trkpt><trkpt lat="40.84324953017768" lon="17.306189699551716"><ele>369.5</ele><time>2026-03-29T08:43:16Z</time></trkpt><trkpt lat="40.843378056410955" lon="17.30646403113137"><ele>370.0</ele><time>2026-03-29T08:43:17Z</time></trkpt><trkpt lat="40.843473658842704" lon="17.306723382564147"><ele>370.0</ele><time>2026-03-29T08:43:18Z</time></trkpt><trkpt lat="40.84349080762453" lon="17.306955240990234"><ele>370.0</ele><time>2026-03-29T08:43:19Z</time></trkpt><trkpt lat="40.843462238400406" lon="17.307164910425332"><ele>370.0</ele><time>2026-03-29T08:43:20Z</time></trkpt><trkpt lat="40.843393017670955" lon="17.307376597070753"><ele>369.0</ele><time>2026-03-29T08:43:21Z</time></trkpt><trkpt lat="40.84327302683389" lon="17.307636430610227"><ele>368.0</ele><time>2026-03-29T08:43:22Z</time></trkpt><trkpt lat="40.84313514607572" lon="17.307930178590937"><ele>366.0</ele><time>2026-03-29T08:43:23Z</time></trkpt><trkpt lat="40.84298530356795" lon="17.30828095433654"><ele>364.0</ele><time>2026-03-29T08:43:24Z</time></trkpt><trkpt lat="40.84281472334296" lon="17.30862732297693"><ele>363.5</ele><time>2026-03-29T08:43:25Z</time></trkpt><trkpt lat="40.84265086324613" lon="17.308979719602686"><ele>363.0</ele><time>2026-03-29T08:43:26Z</time></trkpt><trkpt lat="40.84246267211259" lon="17.309399675991255"><ele>365.5</ele><time>2026-03-29T08:43:27Z</time></trkpt><trkpt lat="40.84227512234298" lon="17.309790793154484"><ele>368.0</ele><time>2026-03-29T08:43:28Z</time></trkpt><trkpt lat="40.842096890191236" lon="17.31015728725428"><ele>368.0</ele><time>2026-03-29T08:43:29Z</time></trkpt><trkpt lat="40.84193424043134" lon="17.310511538898584"><ele>368.0</ele><time>2026-03-29T08:43:30Z</time></trkpt><trkpt lat="40.84176767950265" lon="17.310845483084414"><ele>367.5</ele><time>2026-03-29T08:43:31Z</time></trkpt><trkpt lat="40.84162933036002" lon="17.31117331379077"><ele>367.0</ele><time>2026-03-29T08:43:32Z</time></trkpt><trkpt lat="40.841494085428025" lon="17.311455820867526"><ele>366.66666666666663</ele><time>2026-03-29T08:43:33Z</time></trkpt><trkpt lat="40.84138529140058" lon="17.311694530293863"><ele>366.3333333333333</ele><time>2026-03-29T08:43:34Z</time></trkpt><trkpt lat="40.84126789215954" lon="17.3119260940031"><ele>366.0</ele><time>2026-03-29T08:43:35Z</time></trkpt><trkpt lat="40.84113230323939" lon="17.31219679920991"><ele>366.0</ele><time>2026-03-29T08:43:36Z</time></trkpt><trkpt lat="40.84100612957616" lon="17.312504661362077"><ele>366.0</ele><time>2026-03-29T08:43:37Z</time></trkpt><trkpt lat="40.84094169983697" lon="17.31274493473105"><ele>366.0</ele><time>2026-03-29T08:43:38Z</time></trkpt><trkpt lat="40.84083829006809" lon="17.312958200737224"><ele>366.0</ele><time>2026-03-29T08:43:39Z</time></trkpt><trkpt lat="40.84080295377781" lon="17.313196114084306"><ele>366.0</ele><time>2026-03-29T08:43:40Z</time></trkpt><trkpt lat="40.84081343452416" lon="17.313505463882834"><ele>366.6666666666667</ele><time>2026-03-29T08:43:41Z</time></trkpt><trkpt lat="40.84083279149531" lon="17.313796857587718"><ele>367.33333333333337</ele><time>2026-03-29T08:43:42Z</time></trkpt><trkpt lat="40.84079386425225" lon="17.31408328566438"><ele>368.0</ele><time>2026-03-29T08:43:43Z</time></trkpt><trkpt lat="40.84069466591312" lon="17.314358099453944"><ele>369.0</ele><time>2026-03-29T08:43:44Z</time></trkpt><trkpt lat="40.840670421538086" lon="17.314605833517835"><ele>370.0</ele><time>2026-03-29T08:43:45Z</time></trkpt><trkpt lat="40.8407114499835" lon="17.314837215954984"><ele>371.0</ele><time>2026-03-29T08:43:46Z</time></trkpt><trkpt lat="40.8407790504832" lon="17.315049493214847"><ele>372.0</ele><time>2026-03-29T08:43:47Z</time></trkpt><trkpt lat="40.84088179499505" lon="17.31524008098006"><ele>373.0</ele><time>2026-03-29T08:43:48Z</time></trkpt><trkpt lat="40.84090837274153" lon="17.315418417669157"><ele>374.0</ele><time>2026-03-29T08:43:49Z</time></trkpt><trkpt lat="40.84091817258384" lon="17.315615700339787"><ele>374.0</ele><time>2026-03-29T08:43:50Z</time></trkpt><trkpt lat="40.8409178461958" lon="17.31587546714373"><ele>374.0</ele><time>2026-03-29T08:43:51Z</time></trkpt><trkpt lat="40.84091262673716" lon="17.316161353301393"><ele>374.0</ele><time>2026-03-29T08:43:52Z</time></trkpt><trkpt lat="40.84089961693583" lon="17.316464103220472"><ele>374.5</ele><time>2026-03-29T08:43:53Z</time></trkpt><trkpt lat="40.840837313840545" lon="17.316761417649698"><ele>375.0</ele><time>2026-03-29T08:43:54Z</time></trkpt><trkpt lat="40.84075716097324" lon="17.317050806673155"><ele>374.75</ele><time>2026-03-29T08:43:55Z</time></trkpt><trkpt lat="40.84066100814971" lon="17.317289100461256"><ele>374.5</ele><time>2026-03-29T08:43:56Z</time></trkpt><trkpt lat="40.84060187608207" lon="17.31742236709451"><ele>374.25</ele><time>2026-03-29T08:43:57Z</time></trkpt><trkpt lat="40.84055889957509" lon="17.31751203452283"><ele>374.0</ele><time>2026-03-29T08:43:58Z</time></trkpt><trkpt lat="40.840428883602215" lon="17.317771746019215"><ele>374.0</ele><time>2026-03-29T08:43:59Z</time></trkpt><trkpt lat="40.84037577979817" lon="17.317878262585648"><ele>374.0</ele><time>2026-03-29T08:44:00Z</time></trkpt><trkpt lat="40.840305701146875" lon="17.318018827629512"><ele>374.0</ele><time>2026-03-29T08:44:01Z</time></trkpt><trkpt lat="40.84021027972509" lon="17.318199569074345"><ele>374.0</ele><time>2026-03-29T08:44:02Z</time></trkpt><trkpt lat="40.840096564835186" lon="17.318395342540132"><ele>375.5</ele><time>2026-03-29T08:44:03Z</time></trkpt><trkpt lat="40.839940074792835" lon="17.318623421265425"><ele>377.0</ele><time>2026-03-29T08:44:04Z</time></trkpt><trkpt lat="40.839776615747354" lon="17.31885329515511"><ele>376.33333333333337</ele><time>2026-03-29T08:44:05Z</time></trkpt><trkpt lat="40.83962697506594" lon="17.319071134886695"><ele>375.6666666666667</ele><time>2026-03-29T08:44:06Z</time></trkpt><trkpt lat="40.83950981483646" lon="17.31928117098488"><ele>375.0</ele><time>2026-03-29T08:44:07Z</time></trkpt><trkpt lat="40.839390239310454" lon="17.31945475431889"><ele>376.3333333333333</ele><time>2026-03-29T08:44:08Z</time></trkpt><trkpt lat="40.839273082277046" lon="17.31966925362026"><ele>377.66666666666663</ele><time>2026-03-29T08:44:09Z</time></trkpt><trkpt lat="40.839175961348936" lon="17.31991878369264"><ele>379.0</ele><time>2026-03-29T08:44:10Z</time></trkpt><trkpt lat="40.83905708341047" lon="17.320148425664815"><ele>379.0</ele><time>2026-03-29T08:44:11Z</time></trkpt><trkpt lat="40.83893777945957" lon="17.32037220210993"><ele>379.0</ele><time>2026-03-29T08:44:12Z</time></trkpt><trkpt lat="40.83880316013882" lon="17.320593516375677"><ele>379.0</ele><time>2026-03-29T08:44:13Z</time></trkpt><trkpt lat="40.838683334892515" lon="17.32079611971776"><ele>377.66666666666663</ele><time>2026-03-29T08:44:14Z</time></trkpt><trkpt lat="40.838588231598116" lon="17.320996217785098"><ele>376.3333333333333</ele><time>2026-03-29T08:44:15Z</time></trkpt><trkpt lat="40.83846976721093" lon="17.321164703881156"><ele>375.0</ele><time>2026-03-29T08:44:16Z</time></trkpt><trkpt lat="40.83820582613565" lon="17.321476043179086"><ele>377.6666666666667</ele><time>2026-03-29T08:44:18Z</time></trkpt><trkpt lat="40.838073983991336" lon="17.321615055479523"><ele>380.33333333333337</ele><time>2026-03-29T08:44:19Z</time></trkpt><trkpt lat="40.83788863296491" lon="17.32172877179852"><ele>383.0</ele><time>2026-03-29T08:44:20Z</time></trkpt><trkpt lat="40.83774151641626" lon="17.321866727871313"><ele>383.33333333333337</ele><time>2026-03-29T08:44:21Z</time></trkpt><trkpt lat="40.83760266851778" lon="17.32203233359384"><ele>383.6666666666667</ele><time>2026-03-29T08:44:22Z</time></trkpt><trkpt lat="40.837451899589915" lon="17.322244186168376"><ele>384.0</ele><time>2026-03-29T08:44:23Z</time></trkpt><trkpt lat="40.83732557506357" lon="17.322484575590295"><ele>384.33333333333337</ele><time>2026-03-29T08:44:24Z</time></trkpt><trkpt lat="40.83718672182889" lon="17.322722764969033"><ele>384.6666666666667</ele><time>2026-03-29T08:44:25Z</time></trkpt><trkpt lat="40.83705861351131" lon="17.322922148187278"><ele>385.0</ele><time>2026-03-29T08:44:26Z</time></trkpt><trkpt lat="40.83689661546103" lon="17.32306835555469"><ele>386.6666666666667</ele><time>2026-03-29T08:44:27Z</time></trkpt><trkpt lat="40.836726505909944" lon="17.323202753465534"><ele>388.33333333333337</ele><time>2026-03-29T08:44:28Z</time></trkpt><trkpt lat="40.836587978130744" lon="17.323371068671317"><ele>390.0</ele><time>2026-03-29T08:44:29Z</time></trkpt><trkpt lat="40.83649701334821" lon="17.32355178856849"><ele>389.66666666666663</ele><time>2026-03-29T08:44:30Z</time></trkpt><trkpt lat="40.83637112389212" lon="17.323901340710986"><ele>389.3333333333333</ele><time>2026-03-29T08:44:31Z</time></trkpt><trkpt lat="40.83639397545892" lon="17.3240018804234"><ele>389.0</ele><time>2026-03-29T08:44:32Z</time></trkpt><trkpt lat="40.83638065491941" lon="17.324197134549888"><ele>389.0</ele><time>2026-03-29T08:44:33Z</time></trkpt><trkpt lat="40.836336758814426" lon="17.324381045954663"><ele>389.0</ele><time>2026-03-29T08:44:34Z</time></trkpt><trkpt lat="40.836257678533634" lon="17.32452611797821"><ele>389.0</ele><time>2026-03-29T08:44:35Z</time></trkpt><trkpt lat="40.836161329877044" lon="17.324732476221467"><ele>387.66666666666663</ele><time>2026-03-29T08:44:36Z</time></trkpt><trkpt lat="40.83608724076324" lon="17.324907580860998"><ele>386.33333333333337</ele><time>2026-03-29T08:44:37Z</time></trkpt><trkpt lat="40.83604380783074" lon="17.32510970960534"><ele>385.0</ele><time>2026-03-29T08:44:38Z</time></trkpt><trkpt lat="40.836021676618635" lon="17.325296125533473"><ele>385.0</ele><time>2026-03-29T08:44:39Z</time></trkpt><trkpt lat="40.8359748215934" lon="17.325453359321155"><ele>385.0</ele><time>2026-03-29T08:44:40Z</time></trkpt><trkpt lat="40.83595549377532" lon="17.32569307416536"><ele>385.0</ele><time>2026-03-29T08:44:41Z</time></trkpt><trkpt lat="40.83591981713908" lon="17.325912798554853"><ele>385.6</ele><time>2026-03-29T08:44:42Z</time></trkpt><trkpt lat="40.8359297542086" lon="17.32604551809196"><ele>386.2</ele><time>2026-03-29T08:44:43Z</time></trkpt><trkpt lat="40.83592467086388" lon="17.326199338395156"><ele>386.79999999999995</ele><time>2026-03-29T08:44:44Z</time></trkpt><trkpt lat="40.83590375992001" lon="17.32635722689914"><ele>387.4</ele><time>2026-03-29T08:44:45Z</time></trkpt><trkpt lat="40.835900873587" lon="17.32650264508404"><ele>388.0</ele><time>2026-03-29T08:44:46Z</time></trkpt><trkpt lat="40.835863088163364" lon="17.326636121753307"><ele>386.0</ele><time>2026-03-29T08:44:47Z</time></trkpt><trkpt lat="40.83574057441135" lon="17.326740518220618"><ele>384.0</ele><time>2026-03-29T08:44:48Z</time></trkpt><trkpt lat="40.835623812827805" lon="17.32692316322967"><ele>382.0</ele><time>2026-03-29T08:44:49Z</time></trkpt><trkpt lat="40.835480577059165" lon="17.32712641316433"><ele>377.3333333333333</ele><time>2026-03-29T08:44:50Z</time></trkpt><trkpt lat="40.83539247537335" lon="17.327313185049853"><ele>372.6666666666667</ele><time>2026-03-29T08:44:51Z</time></trkpt><trkpt lat="40.83528409892963" lon="17.327486105351444"><ele>368.0</ele><time>2026-03-29T08:44:52Z</time></trkpt><trkpt lat="40.835175711746395" lon="17.327627024718137"><ele>371.33333333333337</ele><time>2026-03-29T08:44:53Z</time></trkpt><trkpt lat="40.835055654292866" lon="17.32770832055771"><ele>374.6666666666667</ele><time>2026-03-29T08:44:54Z</time></trkpt><trkpt lat="40.83492853635742" lon="17.327714226001746"><ele>378.0</ele><time>2026-03-29T08:44:55Z</time></trkpt><trkpt lat="40.83473817213907" lon="17.327709613188915"><ele>378.0</ele><time>2026-03-29T08:44:56Z</time></trkpt><trkpt lat="40.83457260787796" lon="17.327738469366682"><ele>378.0</ele><time>2026-03-29T08:44:57Z</time></trkpt><trkpt lat="40.83444029968545" lon="17.327782974855765"><ele>378.0</ele><time>2026-03-29T08:44:58Z</time></trkpt><trkpt lat="40.83432184804028" lon="17.327864199065406"><ele>378.0</ele><time>2026-03-29T08:44:59Z</time></trkpt><trkpt lat="40.8342488519984" lon="17.327952993801517"><ele>377.25</ele><time>2026-03-29T08:45:00Z</time></trkpt><trkpt lat="40.83420073532621" lon="17.328083313324292"><ele>376.5</ele><time>2026-03-29T08:45:01Z</time></trkpt><trkpt lat="40.83415119405673" lon="17.328236669913125"><ele>375.75</ele><time>2026-03-29T08:45:02Z</time></trkpt><trkpt lat="40.83409949250327" lon="17.32840158306183"><ele>375.0</ele><time>2026-03-29T08:45:03Z</time></trkpt><trkpt lat="40.83404540113433" lon="17.328576285325344"><ele>375.0</ele><time>2026-03-29T08:45:04Z</time></trkpt><trkpt lat="40.833952868174165" lon="17.328743078915956"><ele>375.0</ele><time>2026-03-29T08:45:05Z</time></trkpt><trkpt lat="40.83385559270698" lon="17.32892145385918"><ele>375.0</ele><time>2026-03-29T08:45:06Z</time></trkpt><trkpt lat="40.83373924919308" lon="17.329079299195918"><ele>377.6666666666667</ele><time>2026-03-29T08:45:07Z</time></trkpt><trkpt lat="40.83362210278058" lon="17.329244553597032"><ele>380.33333333333337</ele><time>2026-03-29T08:45:08Z</time></trkpt><trkpt lat="40.83348794768982" lon="17.32940404302652"><ele>383.0</ele><time>2026-03-29T08:45:09Z</time></trkpt><trkpt lat="40.83335639159847" lon="17.329571623907256"><ele>383.0</ele><time>2026-03-29T08:45:10Z</time></trkpt><trkpt lat="40.83319093408896" lon="17.329704897986364"><ele>383.0</ele><time>2026-03-29T08:45:11Z</time></trkpt><trkpt lat="40.83305605355392" lon="17.32983767072246"><ele>383.0</ele><time>2026-03-29T08:45:12Z</time></trkpt><trkpt lat="40.83291356678213" lon="17.329968721577032"><ele>381.0</ele><time>2026-03-29T08:45:13Z</time></trkpt><trkpt lat="40.832761789841676" lon="17.33010592003353"><ele>379.0</ele><time>2026-03-29T08:45:14Z</time></trkpt><trkpt lat="40.832621170413546" lon="17.330267468636087"><ele>377.0</ele><time>2026-03-29T08:45:15Z</time></trkpt><trkpt lat="40.832470551974936" lon="17.33046775379483"><ele>370.0</ele><time>2026-03-29T08:45:16Z</time></trkpt><trkpt lat="40.83233801054902" lon="17.330742898317457"><ele>363.0</ele><time>2026-03-29T08:45:17Z</time></trkpt><trkpt lat="40.83218117283714" lon="17.33099444650937"><ele>363.0</ele><time>2026-03-29T08:45:18Z</time></trkpt><trkpt lat="40.83199282153451" lon="17.33123861685849"><ele>363.0</ele><time>2026-03-29T08:45:19Z</time></trkpt><trkpt lat="40.83182765924865" lon="17.331528658115978"><ele>368.0</ele><time>2026-03-29T08:45:20Z</time></trkpt><trkpt lat="40.831702313991165" lon="17.331802645185515"><ele>373.0</ele><time>2026-03-29T08:45:21Z</time></trkpt><trkpt lat="40.83158815423777" lon="17.332045843931827"><ele>369.66666666666663</ele><time>2026-03-29T08:45:22Z</time></trkpt><trkpt lat="40.83149747554062" lon="17.33229431965691"><ele>366.3333333333333</ele><time>2026-03-29T08:45:23Z</time></trkpt><trkpt lat="40.83140088353859" lon="17.332496395605304"><ele>363.0</ele><time>2026-03-29T08:45:24Z</time></trkpt><trkpt lat="40.831353268390046" lon="17.332717940999682"><ele>363.0</ele><time>2026-03-29T08:45:25Z</time></trkpt><trkpt lat="40.83132024402719" lon="17.332914744704215"><ele>363.0</ele><time>2026-03-29T08:45:26Z</time></trkpt><trkpt lat="40.8312669639797" lon="17.333084825558473"><ele>363.0</ele><time>2026-03-29T08:45:27Z</time></trkpt><trkpt lat="40.83118959727711" lon="17.33326181772183"><ele>363.0</ele><time>2026-03-29T08:45:28Z</time></trkpt><trkpt lat="40.831084842752404" lon="17.333405036410852"><ele>363.75</ele><time>2026-03-29T08:45:29Z</time></trkpt><trkpt lat="40.8309672700775" lon="17.33349147041091"><ele>364.5</ele><time>2026-03-29T08:45:30Z</time></trkpt><trkpt lat="40.830884240305444" lon="17.333504106509597"><ele>365.25</ele><time>2026-03-29T08:45:31Z</time></trkpt><trkpt lat="40.83079028666012" lon="17.333382356216987"><ele>366.0</ele><time>2026-03-29T08:45:33Z</time></trkpt><trkpt lat="40.83074155954032" lon="17.333265171050794"><ele>366.0</ele><time>2026-03-29T08:45:34Z</time></trkpt><trkpt lat="40.83067494664247" lon="17.333135615276305"><ele>366.0</ele><time>2026-03-29T08:45:35Z</time></trkpt><trkpt lat="40.83057541706358" lon="17.333047683688157"><ele>366.0</ele><time>2026-03-29T08:45:36Z</time></trkpt><trkpt lat="40.830498891632054" lon="17.33297127201189"><ele>366.0</ele><time>2026-03-29T08:45:37Z</time></trkpt><trkpt lat="40.83033425868213" lon="17.332815863973746"><ele>368.3333333333333</ele><time>2026-03-29T08:45:39Z</time></trkpt><trkpt lat="40.8302100140695" lon="17.332748257942765"><ele>370.66666666666663</ele><time>2026-03-29T08:45:40Z</time></trkpt><trkpt lat="40.83007571038797" lon="17.332652673355394"><ele>373.0</ele><time>2026-03-29T08:45:41Z</time></trkpt><trkpt lat="40.8299096913641" lon="17.332518637485297"><ele>374.0</ele><time>2026-03-29T08:45:42Z</time></trkpt><trkpt lat="40.82975735203985" lon="17.332404115622435"><ele>375.0</ele><time>2026-03-29T08:45:43Z</time></trkpt><trkpt lat="40.82958849681946" lon="17.332337294016526"><ele>376.0</ele><time>2026-03-29T08:45:44Z</time></trkpt><trkpt lat="40.82940414316313" lon="17.33227851794596"><ele>379.3333333333333</ele><time>2026-03-29T08:45:45Z</time></trkpt><trkpt lat="40.829226227998475" lon="17.332193000416037"><ele>382.66666666666663</ele><time>2026-03-29T08:45:46Z</time></trkpt><trkpt lat="40.82903245019052" lon="17.332141468191946"><ele>386.0</ele><time>2026-03-29T08:45:47Z</time></trkpt><trkpt lat="40.82885388917252" lon="17.332133994920145"><ele>386.0</ele><time>2026-03-29T08:45:48Z</time></trkpt><trkpt lat="40.82867528944171" lon="17.33211472310099"><ele>386.0</ele><time>2026-03-29T08:45:49Z</time></trkpt><trkpt lat="40.828492148314446" lon="17.33208649733816"><ele>386.0</ele><time>2026-03-29T08:45:50Z</time></trkpt><trkpt lat="40.82834823041479" lon="17.33204874484486"><ele>389.66666666666663</ele><time>2026-03-29T08:45:51Z</time></trkpt><trkpt lat="40.82819958289019" lon="17.33194686911622"><ele>393.33333333333337</ele><time>2026-03-29T08:45:52Z</time></trkpt><trkpt lat="40.828030709571166" lon="17.331845145466318"><ele>397.0</ele><time>2026-03-29T08:45:53Z</time></trkpt><trkpt lat="40.827896610074454" lon="17.331815717952423"><ele>397.0</ele><time>2026-03-29T08:45:54Z</time></trkpt><trkpt lat="40.827757289287064" lon="17.331833036652544"><ele>397.0</ele><time>2026-03-29T08:45:55Z</time></trkpt><trkpt lat="40.82763554490697" lon="17.331821726928183"><ele>397.0</ele><time>2026-03-29T08:45:56Z</time></trkpt><trkpt lat="40.827534202446955" lon="17.331751915861325"><ele>397.0</ele><time>2026-03-29T08:45:57Z</time></trkpt><trkpt lat="40.82744234817013" lon="17.331633053876928"><ele>398.0</ele><time>2026-03-29T08:45:58Z</time></trkpt><trkpt lat="40.82731909909554" lon="17.331501032903198"><ele>399.0</ele><time>2026-03-29T08:45:59Z</time></trkpt><trkpt lat="40.82718764377939" lon="17.33135908404945"><ele>400.0</ele><time>2026-03-29T08:46:00Z</time></trkpt><trkpt lat="40.827064100663655" lon="17.33122657894908"><ele>400.8</ele><time>2026-03-29T08:46:01Z</time></trkpt><trkpt lat="40.82694120884882" lon="17.331096265776576"><ele>401.6</ele><time>2026-03-29T08:46:02Z</time></trkpt><trkpt lat="40.82684885170637" lon="17.330998057784672"><ele>402.4</ele><time>2026-03-29T08:46:03Z</time></trkpt><trkpt lat="40.82678308809224" lon="17.33092650275122"><ele>403.2</ele><time>2026-03-29T08:46:04Z</time></trkpt><trkpt lat="40.826722415700296" lon="17.33088669813901"><ele>404.0</ele><time>2026-03-29T08:46:05Z</time></trkpt><trkpt lat="40.82666881701284" lon="17.330813493478274"><ele>405.2</ele><time>2026-03-29T08:46:07Z</time></trkpt><trkpt lat="40.82657534117114" lon="17.330777652617947"><ele>406.4</ele><time>2026-03-29T08:46:09Z</time></trkpt><trkpt lat="40.82648219926677" lon="17.330727793441884"><ele>407.6</ele><time>2026-03-29T08:46:10Z</time></trkpt><trkpt lat="40.826369790375" lon="17.330669983572665"><ele>408.8</ele><time>2026-03-29T08:46:11Z</time></trkpt><trkpt lat="40.82625990058987" lon="17.330585894256252"><ele>410.0</ele><time>2026-03-29T08:46:12Z</time></trkpt><trkpt lat="40.82616025095613" lon="17.330459323357427"><ele>410.0</ele><time>2026-03-29T08:46:13Z</time></trkpt><trkpt lat="40.82606670845537" lon="17.33030016975458"><ele>410.0</ele><time>2026-03-29T08:46:14Z</time></trkpt><trkpt lat="40.8259861794174" lon="17.330080863400305"><ele>410.0</ele><time>2026-03-29T08:46:15Z</time></trkpt><trkpt lat="40.82584970372128" lon="17.329873549399956"><ele>402.5</ele><time>2026-03-29T08:46:16Z</time></trkpt><trkpt lat="40.82571335256445" lon="17.32962262505752"><ele>395.0</ele><time>2026-03-29T08:46:17Z</time></trkpt><trkpt lat="40.82554838354078" lon="17.329366903075687"><ele>395.0</ele><time>2026-03-29T08:46:18Z</time></trkpt><trkpt lat="40.82537143981918" lon="17.329078694922423"><ele>395.0</ele><time>2026-03-29T08:46:19Z</time></trkpt><trkpt lat="40.82520939554792" lon="17.328764860901778"><ele>396.0</ele><time>2026-03-29T08:46:20Z</time></trkpt><trkpt lat="40.82505966490024" lon="17.32844735918448"><ele>397.0</ele><time>2026-03-29T08:46:21Z</time></trkpt><trkpt lat="40.824877465200395" lon="17.328106877005272"><ele>398.5</ele><time>2026-03-29T08:46:22Z</time></trkpt><trkpt lat="40.8246896505296" lon="17.32785093530959"><ele>400.0</ele><time>2026-03-29T08:46:23Z</time></trkpt><trkpt lat="40.82453733446831" lon="17.327574540005802"><ele>400.0</ele><time>2026-03-29T08:46:24Z</time></trkpt><trkpt lat="40.82440167705997" lon="17.327387128818025"><ele>400.0</ele><time>2026-03-29T08:46:25Z</time></trkpt><trkpt lat="40.82428709829184" lon="17.327221417130733"><ele>400.0</ele><time>2026-03-29T08:46:26Z</time></trkpt><trkpt lat="40.82421244827923" lon="17.327094402175664"><ele>400.6</ele><time>2026-03-29T08:46:27Z</time></trkpt><trkpt lat="40.82419006169457" lon="17.32701222463959"><ele>401.2</ele><time>2026-03-29T08:46:28Z</time></trkpt><trkpt lat="40.82418664611576" lon="17.326860132838107"><ele>401.79999999999995</ele><time>2026-03-29T08:46:30Z</time></trkpt><trkpt lat="40.824275891943635" lon="17.32679344763413"><ele>402.4</ele><time>2026-03-29T08:46:31Z</time></trkpt><trkpt lat="40.82434367401069" lon="17.326696547905033"><ele>403.0</ele><time>2026-03-29T08:46:32Z</time></trkpt><trkpt lat="40.82444115929665" lon="17.326565276469438"><ele>403.0</ele><time>2026-03-29T08:46:33Z</time></trkpt><trkpt lat="40.82453256722109" lon="17.326444047137006"><ele>403.0</ele><time>2026-03-29T08:46:34Z</time></trkpt><trkpt lat="40.824641950517396" lon="17.326298547548383"><ele>403.0</ele><time>2026-03-29T08:46:35Z</time></trkpt><trkpt lat="40.8247293357438" lon="17.326182056871584"><ele>403.0</ele><time>2026-03-29T08:46:36Z</time></trkpt><trkpt lat="40.82479346798893" lon="17.326092176331294"><ele>403.0</ele><time>2026-03-29T08:46:37Z</time></trkpt><trkpt lat="40.82484290412" lon="17.326014244393324"><ele>403.0</ele><time>2026-03-29T08:46:38Z</time></trkpt><trkpt lat="40.82482387533873" lon="17.325815177840145"><ele>403.0</ele><time>2026-03-29T08:46:41Z</time></trkpt><trkpt lat="40.824696418612696" lon="17.32577687063474"><ele>403.0</ele><time>2026-03-29T08:46:42Z</time></trkpt><trkpt lat="40.82459059239525" lon="17.325687079806762"><ele>403.0</ele><time>2026-03-29T08:46:43Z</time></trkpt><trkpt lat="40.82450592906814" lon="17.325625407333163"><ele>403.0</ele><time>2026-03-29T08:46:44Z</time></trkpt><trkpt lat="40.82442812027344" lon="17.325575305071595"><ele>403.0</ele><time>2026-03-29T08:46:45Z</time></trkpt><trkpt lat="40.824325144102595" lon="17.32560194064229"><ele>403.0</ele><time>2026-03-29T08:46:46Z</time></trkpt><trkpt lat="40.82421934710763" lon="17.325656153873542"><ele>403.0</ele><time>2026-03-29T08:46:47Z</time></trkpt><trkpt lat="40.82405608177937" lon="17.325734339504667"><ele>402.6666666666667</ele><time>2026-03-29T08:46:48Z</time></trkpt><trkpt lat="40.82386578236312" lon="17.325818048316513"><ele>402.33333333333337</ele><time>2026-03-29T08:46:49Z</time></trkpt><trkpt lat="40.823664406946875" lon="17.325891310969823"><ele>402.0</ele><time>2026-03-29T08:46:49.999Z</time></trkpt><trkpt lat="40.823483203225365" lon="17.3259145865606"><ele>399.0</ele><time>2026-03-29T08:46:50.999Z</time></trkpt><trkpt lat="40.82331581418683" lon="17.325913954905314"><ele>396.0</ele><time>2026-03-29T08:46:51.999Z</time></trkpt><trkpt lat="40.82316743702039" lon="17.32592100915937"><ele>393.0</ele><time>2026-03-29T08:46:52.999Z</time></trkpt><trkpt lat="40.82304464884662" lon="17.325976966736523"><ele>390.0</ele><time>2026-03-29T08:46:53.999Z</time></trkpt><trkpt lat="40.822928185934465" lon="17.326135880846305"><ele>390.0</ele><time>2026-03-29T08:46:54.999Z</time></trkpt><trkpt lat="40.822805670980465" lon="17.32633133460826"><ele>390.0</ele><time>2026-03-29T08:46:55.999Z</time></trkpt><trkpt lat="40.822723919251054" lon="17.326571311601434"><ele>390.0</ele><time>2026-03-29T08:46:56.999Z</time></trkpt><trkpt lat="40.822670202850944" lon="17.326721046496612"><ele>389.0</ele><time>2026-03-29T08:46:57.999Z</time></trkpt><trkpt lat="40.822679029283776" lon="17.326907229628386"><ele>388.0</ele><time>2026-03-29T08:46:58.999Z</time></trkpt><trkpt lat="40.82263902031901" lon="17.326985247248462"><ele>387.0</ele><time>2026-03-29T08:46:59.999Z</time></trkpt><trkpt lat="40.82256182278294" lon="17.327041220833014"><ele>386.0</ele><time>2026-03-29T08:47:00.999Z</time></trkpt><trkpt lat="40.82243241339713" lon="17.327057816985096"><ele>385.0</ele><time>2026-03-29T08:47:01.999Z</time></trkpt><trkpt lat="40.82223942073048" lon="17.327141547167265"><ele>382.0</ele><time>2026-03-29T08:47:02.999Z</time></trkpt><trkpt lat="40.822017918949776" lon="17.327287534381142"><ele>379.0</ele><time>2026-03-29T08:47:03.999Z</time></trkpt><trkpt lat="40.82179015052168" lon="17.327462719395182"><ele>379.0</ele><time>2026-03-29T08:47:04.999Z</time></trkpt><trkpt lat="40.821554369712146" lon="17.327723313599343"><ele>379.0</ele><time>2026-03-29T08:47:05.999Z</time></trkpt><trkpt lat="40.821314722137444" lon="17.328008069534018"><ele>376.5</ele><time>2026-03-29T08:47:06.999Z</time></trkpt><trkpt lat="40.82109430123068" lon="17.328319630684916"><ele>374.0</ele><time>2026-03-29T08:47:07.999Z</time></trkpt><trkpt lat="40.82088853124996" lon="17.32858190317876"><ele>374.0</ele><time>2026-03-29T08:47:08.999Z</time></trkpt><trkpt lat="40.820724194917936" lon="17.328809268801464"><ele>374.0</ele><time>2026-03-29T08:47:09.999Z</time></trkpt><trkpt lat="40.820570412427095" lon="17.329027611445653"><ele>379.5</ele><time>2026-03-29T08:47:10.999Z</time></trkpt><trkpt lat="40.820399873515925" lon="17.329325606161266"><ele>385.0</ele><time>2026-03-29T08:47:11.999Z</time></trkpt><trkpt lat="40.82022577727655" lon="17.329619922157285"><ele>376.5</ele><time>2026-03-29T08:47:12.999Z</time></trkpt><trkpt lat="40.82002503536869" lon="17.329909642049888"><ele>368.0</ele><time>2026-03-29T08:47:13.999Z</time></trkpt><trkpt lat="40.819758891273715" lon="17.330161006117745"><ele>368.0</ele><time>2026-03-29T08:47:14.999Z</time></trkpt><trkpt lat="40.819492575744725" lon="17.33046537496177"><ele>368.0</ele><time>2026-03-29T08:47:15.999Z</time></trkpt><trkpt lat="40.81924899255608" lon="17.330763728017327"><ele>367.0</ele><time>2026-03-29T08:47:16.999Z</time></trkpt><trkpt lat="40.818997932949785" lon="17.331051664363955"><ele>366.0</ele><time>2026-03-29T08:47:17.999Z</time></trkpt><trkpt lat="40.81872157229065" lon="17.331285836902158"><ele>363.0</ele><time>2026-03-29T08:47:18.999Z</time></trkpt><trkpt lat="40.81846281067487" lon="17.3314864464782"><ele>360.0</ele><time>2026-03-29T08:47:19.999Z</time></trkpt><trkpt lat="40.818250083320166" lon="17.331696124601795"><ele>360.0</ele><time>2026-03-29T08:47:20.999Z</time></trkpt><trkpt lat="40.818056510254934" lon="17.33194206037909"><ele>360.0</ele><time>2026-03-29T08:47:21.999Z</time></trkpt><trkpt lat="40.81788352894401" lon="17.33218871784158"><ele>356.5</ele><time>2026-03-29T08:47:22.999Z</time></trkpt><trkpt lat="40.81768651712646" lon="17.3323449493742"><ele>353.0</ele><time>2026-03-29T08:47:23.999Z</time></trkpt><trkpt lat="40.81748155287555" lon="17.332528639675242"><ele>353.0</ele><time>2026-03-29T08:47:24.999Z</time></trkpt><trkpt lat="40.81730885069983" lon="17.33273193330708"><ele>353.0</ele><time>2026-03-29T08:47:25.999Z</time></trkpt><trkpt lat="40.81713486912101" lon="17.33293884881795"><ele>351.6666666666667</ele><time>2026-03-29T08:47:26.999Z</time></trkpt><trkpt lat="40.81702188256697" lon="17.33313501189985"><ele>350.3333333333333</ele><time>2026-03-29T08:47:27.999Z</time></trkpt><trkpt lat="40.81688244743909" lon="17.33330418067197"><ele>349.0</ele><time>2026-03-29T08:47:28.999Z</time></trkpt><trkpt lat="40.816736309856964" lon="17.333418099128032"><ele>349.0</ele><time>2026-03-29T08:47:29.999Z</time></trkpt><trkpt lat="40.81657506317809" lon="17.33347904455182"><ele>349.0</ele><time>2026-03-29T08:47:30.999Z</time></trkpt><trkpt lat="40.81642687525261" lon="17.33361666146684"><ele>349.0</ele><time>2026-03-29T08:47:31.999Z</time></trkpt><trkpt lat="40.816285393188544" lon="17.33379451947609"><ele>345.0</ele><time>2026-03-29T08:47:32.999Z</time></trkpt><trkpt lat="40.8161768699423" lon="17.333991454978626"><ele>341.0</ele><time>2026-03-29T08:47:34Z</time></trkpt><trkpt lat="40.816054016179194" lon="17.334167753750293"><ele>337.0</ele><time>2026-03-29T08:47:35Z</time></trkpt><trkpt lat="40.81595552399502" lon="17.334375976597023"><ele>337.0</ele><time>2026-03-29T08:47:36Z</time></trkpt><trkpt lat="40.81590023223681" lon="17.334609151091218"><ele>337.0</ele><time>2026-03-29T08:47:37Z</time></trkpt><trkpt lat="40.81585204232413" lon="17.334830455327598"><ele>337.0</ele><time>2026-03-29T08:47:38Z</time></trkpt><trkpt lat="40.815907524515396" lon="17.33513049499616"><ele>338.25</ele><time>2026-03-29T08:47:39Z</time></trkpt><trkpt lat="40.81585161167588" lon="17.33531424108871"><ele>339.5</ele><time>2026-03-29T08:47:40Z</time></trkpt><trkpt lat="40.81580150312414" lon="17.335520280273563"><ele>340.75</ele><time>2026-03-29T08:47:41Z</time></trkpt><trkpt lat="40.81580365087612" lon="17.335696774722045"><ele>342.0</ele><time>2026-03-29T08:47:42Z</time></trkpt><trkpt lat="40.815828081036635" lon="17.33585828020236"><ele>342.1666666666667</ele><time>2026-03-29T08:47:44Z</time></trkpt><trkpt lat="40.81587879049516" lon="17.33594932343968"><ele>342.3333333333333</ele><time>2026-03-29T08:47:45Z</time></trkpt><trkpt lat="40.815943421823405" lon="17.336067290950428"><ele>342.5</ele><time>2026-03-29T08:47:46Z</time></trkpt><trkpt lat="40.81596022400028" lon="17.336154571941933"><ele>342.66666666666663</ele><time>2026-03-29T08:47:47Z</time></trkpt><trkpt lat="40.815961932504074" lon="17.336262429056053"><ele>342.8333333333333</ele><time>2026-03-29T08:47:48Z</time></trkpt><trkpt lat="40.81590597902577" lon="17.3363625249895"><ele>343.0</ele><time>2026-03-29T08:47:49Z</time></trkpt><trkpt lat="40.81582628174759" lon="17.336430767755576"><ele>343.0</ele><time>2026-03-29T08:47:50Z</time></trkpt><trkpt lat="40.815705489644266" lon="17.336523497744572"><ele>343.0</ele><time>2026-03-29T08:47:51Z</time></trkpt><trkpt lat="40.81555005897565" lon="17.33663399958847"><ele>343.0</ele><time>2026-03-29T08:47:52Z</time></trkpt><trkpt lat="40.81539753776622" lon="17.336789173481097"><ele>343.0</ele><time>2026-03-29T08:47:53Z</time></trkpt><trkpt lat="40.81521233262655" lon="17.337057549705758"><ele>343.0</ele><time>2026-03-29T08:47:54Z</time></trkpt><trkpt lat="40.8150323387979" lon="17.3373357731817"><ele>338.5</ele><time>2026-03-29T08:47:55Z</time></trkpt><trkpt lat="40.814793400430354" lon="17.33757551403274"><ele>334.0</ele><time>2026-03-29T08:47:56Z</time></trkpt><trkpt lat="40.814542091074216" lon="17.33783838923179"><ele>332.5</ele><time>2026-03-29T08:47:57Z</time></trkpt><trkpt lat="40.814293788752735" lon="17.33808558642558"><ele>331.0</ele><time>2026-03-29T08:47:58Z</time></trkpt><trkpt lat="40.81406559639253" lon="17.338280435000307"><ele>331.0</ele><time>2026-03-29T08:47:59Z</time></trkpt><trkpt lat="40.81388207369521" lon="17.33841877563097"><ele>331.0</ele><time>2026-03-29T08:48:00Z</time></trkpt><trkpt lat="40.81369174547763" lon="17.338506503885057"><ele>331.0</ele><time>2026-03-29T08:48:01Z</time></trkpt><trkpt lat="40.81354622304985" lon="17.33868488495155"><ele>333.0</ele><time>2026-03-29T08:48:02Z</time></trkpt><trkpt lat="40.813442213424" lon="17.338947394890532"><ele>335.0</ele><time>2026-03-29T08:48:03Z</time></trkpt><trkpt lat="40.813288667038805" lon="17.339156780787906"><ele>337.0</ele><time>2026-03-29T08:48:04Z</time></trkpt><trkpt lat="40.81354903520745" lon="17.33953635850539"><ele>333.3333333333333</ele><time>2026-03-29T08:48:05Z</time></trkpt><trkpt lat="40.81347161225976" lon="17.33971123459924"><ele>329.6666666666667</ele><time>2026-03-29T08:48:06Z</time></trkpt><trkpt lat="40.81330867568211" lon="17.339894171062266"><ele>326.0</ele><time>2026-03-29T08:48:07Z</time></trkpt><trkpt lat="40.81309530928286" lon="17.340051923456123"><ele>326.0</ele><time>2026-03-29T08:48:08Z</time></trkpt><trkpt lat="40.812867606957596" lon="17.340215368855187"><ele>326.0</ele><time>2026-03-29T08:48:09Z</time></trkpt><trkpt lat="40.81264015618506" lon="17.340401743721166"><ele>322.0</ele><time>2026-03-29T08:48:10Z</time></trkpt><trkpt lat="40.812443643394495" lon="17.34060451275211"><ele>318.0</ele><time>2026-03-29T08:48:11Z</time></trkpt><trkpt lat="40.81226073716334" lon="17.3409064320096"><ele>318.0</ele><time>2026-03-29T08:48:12Z</time></trkpt><trkpt lat="40.812120524014226" lon="17.341241598994422"><ele>318.0</ele><time>2026-03-29T08:48:13Z</time></trkpt><trkpt lat="40.81200187738829" lon="17.34149200953866"><ele>320.0</ele><time>2026-03-29T08:48:14Z</time></trkpt><trkpt lat="40.811882008510295" lon="17.341680225239664"><ele>322.0</ele><time>2026-03-29T08:48:15Z</time></trkpt><trkpt lat="40.81177380681795" lon="17.341795015846134"><ele>324.0</ele><time>2026-03-29T08:48:16Z</time></trkpt><trkpt lat="40.8116416927468" lon="17.34187061497095"><ele>320.25</ele><time>2026-03-29T08:48:17Z</time></trkpt><trkpt lat="40.81148002826535" lon="17.341915008963557"><ele>316.5</ele><time>2026-03-29T08:48:18Z</time></trkpt><trkpt lat="40.811334362393346" lon="17.34192315340173"><ele>312.75</ele><time>2026-03-29T08:48:19Z</time></trkpt><trkpt lat="40.81122744772662" lon="17.34195002460528"><ele>309.0</ele><time>2026-03-29T08:48:20Z</time></trkpt><trkpt lat="40.811141411204254" lon="17.342006620933137"><ele>309.0</ele><time>2026-03-29T08:48:21Z</time></trkpt><trkpt lat="40.81105087417172" lon="17.34208552596815"><ele>309.0</ele><time>2026-03-29T08:48:22Z</time></trkpt><trkpt lat="40.81100232824552" lon="17.342245472051726"><ele>309.0</ele><time>2026-03-29T08:48:23Z</time></trkpt><trkpt lat="40.81095780515537" lon="17.342418393458733"><ele>309.0</ele><time>2026-03-29T08:48:24Z</time></trkpt><trkpt lat="40.8108893309871" lon="17.34258546862279"><ele>309.5</ele><time>2026-03-29T08:48:25Z</time></trkpt><trkpt lat="40.810822536482405" lon="17.342733124799715"><ele>310.0</ele><time>2026-03-29T08:48:26Z</time></trkpt><trkpt lat="40.81077760894818" lon="17.342822552254407"><ele>310.5</ele><time>2026-03-29T08:48:27Z</time></trkpt><trkpt lat="40.8107602013233" lon="17.342958956934275"><ele>311.0</ele><time>2026-03-29T08:48:28Z</time></trkpt><trkpt lat="40.810719273306894" lon="17.34314361399578"><ele>307.6666666666667</ele><time>2026-03-29T08:48:29Z</time></trkpt><trkpt lat="40.81066599401331" lon="17.343336293861686"><ele>304.3333333333333</ele><time>2026-03-29T08:48:30Z</time></trkpt><trkpt lat="40.81058828486587" lon="17.343479414190416"><ele>301.0</ele><time>2026-03-29T08:48:31Z</time></trkpt><trkpt lat="40.8104333125688" lon="17.343599639950043"><ele>301.0</ele><time>2026-03-29T08:48:32Z</time></trkpt><trkpt lat="40.81023593293285" lon="17.34371770362199"><ele>301.0</ele><time>2026-03-29T08:48:33Z</time></trkpt><trkpt lat="40.81001800108425" lon="17.343831437274744"><ele>296.0</ele><time>2026-03-29T08:48:34Z</time></trkpt><trkpt lat="40.80975791004493" lon="17.34389234735988"><ele>291.0</ele><time>2026-03-29T08:48:35Z</time></trkpt><trkpt lat="40.80947541071381" lon="17.343965283576782"><ele>295.5</ele><time>2026-03-29T08:48:36Z</time></trkpt><trkpt lat="40.80919612874695" lon="17.344046955243517"><ele>300.0</ele><time>2026-03-29T08:48:37Z</time></trkpt><trkpt lat="40.808970808202766" lon="17.34410841695946"><ele>300.0</ele><time>2026-03-29T08:48:38Z</time></trkpt><trkpt lat="40.80877227693184" lon="17.344153827300854"><ele>300.0</ele><time>2026-03-29T08:48:39Z</time></trkpt><trkpt lat="40.80862428472401" lon="17.344172365266523"><ele>300.0</ele><time>2026-03-29T08:48:40Z</time></trkpt><trkpt lat="40.80847789187449" lon="17.34427344646499"><ele>298.5</ele><time>2026-03-29T08:48:41Z</time></trkpt><trkpt lat="40.808374548764185" lon="17.3443174012269"><ele>297.0</ele><time>2026-03-29T08:48:42Z</time></trkpt><trkpt lat="40.808298317061634" lon="17.34447056594616"><ele>295.5</ele><time>2026-03-29T08:48:43Z</time></trkpt><trkpt lat="40.808266241699286" lon="17.344659102619623"><ele>294.0</ele><time>2026-03-29T08:48:44Z</time></trkpt><trkpt lat="40.808238261922654" lon="17.344902966353015"><ele>294.0</ele><time>2026-03-29T08:48:45Z</time></trkpt><trkpt lat="40.808177555279734" lon="17.345131337415047"><ele>294.0</ele><time>2026-03-29T08:48:46Z</time></trkpt><trkpt lat="40.808024555947476" lon="17.34534772689339"><ele>294.0</ele><time>2026-03-29T08:48:47Z</time></trkpt><trkpt lat="40.807897206817046" lon="17.345586949817186"><ele>296.3333333333333</ele><time>2026-03-29T08:48:48Z</time></trkpt><trkpt lat="40.807769206048754" lon="17.345764213263703"><ele>298.66666666666663</ele><time>2026-03-29T08:48:49Z</time></trkpt><trkpt lat="40.80767636877793" lon="17.345908080783076"><ele>301.0</ele><time>2026-03-29T08:48:50Z</time></trkpt><trkpt lat="40.8075745318359" lon="17.34605274089122"><ele>301.0</ele><time>2026-03-29T08:48:51Z</time></trkpt><trkpt lat="40.80745222876899" lon="17.346214852220136"><ele>301.0</ele><time>2026-03-29T08:48:52Z</time></trkpt><trkpt lat="40.80733060551365" lon="17.346376062470835"><ele>301.0</ele><time>2026-03-29T08:48:53Z</time></trkpt><trkpt lat="40.80721598515992" lon="17.346520331250016"><ele>300.8</ele><time>2026-03-29T08:48:54Z</time></trkpt><trkpt lat="40.8071058146176" lon="17.34664806127435"><ele>300.6</ele><time>2026-03-29T08:48:55Z</time></trkpt><trkpt lat="40.80703252008534" lon="17.34672394085273"><ele>300.4</ele><time>2026-03-29T08:48:56.001Z</time></trkpt><trkpt lat="40.806936959525835" lon="17.346807174875718"><ele>300.2</ele><time>2026-03-29T08:48:58.001Z</time></trkpt><trkpt lat="40.806852907787274" lon="17.34686573680325"><ele>300.0</ele><time>2026-03-29T08:48:59.001Z</time></trkpt><trkpt lat="40.80678034895604" lon="17.346936892648646"><ele>300.0</ele><time>2026-03-29T08:49:01.001Z</time></trkpt><trkpt lat="40.806676612783" lon="17.34698108150483"><ele>300.0</ele><time>2026-03-29T08:49:04.001Z</time></trkpt><trkpt lat="40.80659496421274" lon="17.347056219768934"><ele>300.0</ele><time>2026-03-29T08:49:05.001Z</time></trkpt><trkpt lat="40.80650656062869" lon="17.347183599205348"><ele>300.0</ele><time>2026-03-29T08:49:06.001Z</time></trkpt><trkpt lat="40.806393932516976" lon="17.34737967707692"><ele>288.5</ele><time>2026-03-29T08:49:07.001Z</time></trkpt><trkpt lat="40.80626329428466" lon="17.347683331689062"><ele>277.0</ele><time>2026-03-29T08:49:08.001Z</time></trkpt><trkpt lat="40.80609013555279" lon="17.348013845511502"><ele>285.0</ele><time>2026-03-29T08:49:09.001Z</time></trkpt><trkpt lat="40.8059031835302" lon="17.348379355527033"><ele>293.0</ele><time>2026-03-29T08:49:10.001Z</time></trkpt><trkpt lat="40.80569661166035" lon="17.348728353601004"><ele>286.5</ele><time>2026-03-29T08:49:11.001Z</time></trkpt><trkpt lat="40.8055271692103" lon="17.349030677471692"><ele>280.0</ele><time>2026-03-29T08:49:12.001Z</time></trkpt><trkpt lat="40.80538391200316" lon="17.349301771224113"><ele>280.0</ele><time>2026-03-29T08:49:13.001Z</time></trkpt><trkpt lat="40.80526184615087" lon="17.349625610010946"><ele>280.0</ele><time>2026-03-29T08:49:14.001Z</time></trkpt><trkpt lat="40.80519069741921" lon="17.349931212067343"><ele>284.0</ele><time>2026-03-29T08:49:15.001Z</time></trkpt><trkpt lat="40.805109237831005" lon="17.35019431580661"><ele>288.0</ele><time>2026-03-29T08:49:16.001Z</time></trkpt><trkpt lat="40.80503841902425" lon="17.350450663824898"><ele>292.0</ele><time>2026-03-29T08:49:17.001Z</time></trkpt><trkpt lat="40.804882318841194" lon="17.350685497866156"><ele>292.0</ele><time>2026-03-29T08:49:18.001Z</time></trkpt><trkpt lat="40.80482122879511" lon="17.35090051424363"><ele>292.0</ele><time>2026-03-29T08:49:19.001Z</time></trkpt><trkpt lat="40.804695092064236" lon="17.35106246685769"><ele>292.0</ele><time>2026-03-29T08:49:20.001Z</time></trkpt><trkpt lat="40.804529037369754" lon="17.351211042330913"><ele>292.0</ele><time>2026-03-29T08:49:21.001Z</time></trkpt><trkpt lat="40.80433410190011" lon="17.35131103617978"><ele>292.0</ele><time>2026-03-29T08:49:22Z</time></trkpt><trkpt lat="40.80415120497367" lon="17.351323602626106"><ele>292.0</ele><time>2026-03-29T08:49:23Z</time></trkpt><trkpt lat="40.803948963960835" lon="17.35131510534102"><ele>304.5</ele><time>2026-03-29T08:49:24Z</time></trkpt><trkpt lat="40.803743524757884" lon="17.351311053980957"><ele>317.0</ele><time>2026-03-29T08:49:25Z</time></trkpt><trkpt lat="40.803460242503235" lon="17.351327326370836"><ele>307.5</ele><time>2026-03-29T08:49:26Z</time></trkpt><trkpt lat="40.80315239684713" lon="17.351413580187014"><ele>298.0</ele><time>2026-03-29T08:49:27Z</time></trkpt><trkpt lat="40.802866617175695" lon="17.35155643919023"><ele>305.5</ele><time>2026-03-29T08:49:28Z</time></trkpt><trkpt lat="40.80259876939748" lon="17.3516936589318"><ele>313.0</ele><time>2026-03-29T08:49:29Z</time></trkpt><trkpt lat="40.80228385658244" lon="17.351820722919996"><ele>313.0</ele><time>2026-03-29T08:49:30Z</time></trkpt><trkpt lat="40.80201118894371" lon="17.35189984808331"><ele>313.0</ele><time>2026-03-29T08:49:31Z</time></trkpt><trkpt lat="40.801782183230834" lon="17.352041436043883"><ele>313.3333333333333</ele><time>2026-03-29T08:49:32Z</time></trkpt><trkpt lat="40.80159188470552" lon="17.352187849242647"><ele>313.6666666666667</ele><time>2026-03-29T08:49:33Z</time></trkpt><trkpt lat="40.80144066539596" lon="17.352270733831567"><ele>314.0</ele><time>2026-03-29T08:49:34Z</time></trkpt><trkpt lat="40.80129024723636" lon="17.35225585658296"><ele>316.6666666666667</ele><time>2026-03-29T08:49:35Z</time></trkpt><trkpt lat="40.801161454893446" lon="17.352206296906658"><ele>319.3333333333333</ele><time>2026-03-29T08:49:36Z</time></trkpt><trkpt lat="40.80094861119751" lon="17.352142279736373"><ele>322.0</ele><time>2026-03-29T08:49:37Z</time></trkpt><trkpt lat="40.80076792864475" lon="17.35213307599969"><ele>322.0</ele><time>2026-03-29T08:49:38Z</time></trkpt><trkpt lat="40.80062567019687" lon="17.352183244231846"><ele>322.0</ele><time>2026-03-29T08:49:39Z</time></trkpt><trkpt lat="40.80046955314249" lon="17.3522405154294"><ele>322.0</ele><time>2026-03-29T08:49:40Z</time></trkpt><trkpt lat="40.800340462325714" lon="17.35226211442384"><ele>322.0</ele><time>2026-03-29T08:49:41Z</time></trkpt><trkpt lat="40.80022597606759" lon="17.352240391599988"><ele>321.75</ele><time>2026-03-29T08:49:42Z</time></trkpt><trkpt lat="40.80012721065261" lon="17.35227058448271"><ele>321.5</ele><time>2026-03-29T08:49:43Z</time></trkpt><trkpt lat="40.79998345788227" lon="17.352282132043428"><ele>321.25</ele><time>2026-03-29T08:49:44Z</time></trkpt><trkpt lat="40.79986397112686" lon="17.35229079994576"><ele>321.0</ele><time>2026-03-29T08:49:45Z</time></trkpt><trkpt lat="40.799719449589965" lon="17.35231063146618"><ele>321.0</ele><time>2026-03-29T08:49:46Z</time></trkpt><trkpt lat="40.79959743794491" lon="17.352325896962842"><ele>321.0</ele><time>2026-03-29T08:49:47Z</time></trkpt><trkpt lat="40.79951157011472" lon="17.35233056963198"><ele>321.0</ele><time>2026-03-29T08:49:48Z</time></trkpt><trkpt lat="40.799340539047456" lon="17.35234203456733"><ele>321.0</ele><time>2026-03-29T08:49:50Z</time></trkpt><trkpt lat="40.79924489521368" lon="17.352337704569212"><ele>323.0</ele><time>2026-03-29T08:49:51Z</time></trkpt><trkpt lat="40.799121235088066" lon="17.352307163429675"><ele>325.0</ele><time>2026-03-29T08:49:52Z</time></trkpt><trkpt lat="40.79902795159246" lon="17.352175568872582"><ele>327.0</ele><time>2026-03-29T08:49:53Z</time></trkpt><trkpt lat="40.79873689049023" lon="17.351972661408862"><ele>327.0</ele><time>2026-03-29T08:49:55Z</time></trkpt><trkpt lat="40.79856497920767" lon="17.351904150256402"><ele>327.0</ele><time>2026-03-29T08:49:56Z</time></trkpt><trkpt lat="40.79843343438921" lon="17.351903056067385"><ele>327.0</ele><time>2026-03-29T08:49:57Z</time></trkpt><trkpt lat="40.798294146196056" lon="17.35190037723883"><ele>328.75</ele><time>2026-03-29T08:49:58Z</time></trkpt><trkpt lat="40.7981689706645" lon="17.35187705349806"><ele>330.5</ele><time>2026-03-29T08:49:59Z</time></trkpt><trkpt lat="40.79803642238854" lon="17.3518484190261"><ele>332.25</ele><time>2026-03-29T08:50:00Z</time></trkpt><trkpt lat="40.79790564900566" lon="17.35181521490675"><ele>334.0</ele><time>2026-03-29T08:50:01Z</time></trkpt><trkpt lat="40.79778615242344" lon="17.351781455822312"><ele>334.0</ele><time>2026-03-29T08:50:02Z</time></trkpt><trkpt lat="40.79769283019107" lon="17.35170902919187"><ele>334.0</ele><time>2026-03-29T08:50:03Z</time></trkpt><trkpt lat="40.7976032695582" lon="17.351599429059444"><ele>334.0</ele><time>2026-03-29T08:50:04Z</time></trkpt><trkpt lat="40.79754591441305" lon="17.3514325180652"><ele>334.0</ele><time>2026-03-29T08:50:05Z</time></trkpt><trkpt lat="40.79746844773596" lon="17.35128539121472"><ele>335.66666666666663</ele><time>2026-03-29T08:50:06Z</time></trkpt><trkpt lat="40.797392189054904" lon="17.35111980917353"><ele>337.3333333333333</ele><time>2026-03-29T08:50:07Z</time></trkpt><trkpt lat="40.797280249698005" lon="17.350909533984264"><ele>339.0</ele><time>2026-03-29T08:50:08Z</time></trkpt><trkpt lat="40.79715900653343" lon="17.35069362335113"><ele>338.3333333333333</ele><time>2026-03-29T08:50:09Z</time></trkpt><trkpt lat="40.797028252957936" lon="17.350476653761056"><ele>337.66666666666663</ele><time>2026-03-29T08:50:10Z</time></trkpt><trkpt lat="40.79694212663677" lon="17.350300054887775"><ele>337.0</ele><time>2026-03-29T08:50:11Z</time></trkpt><trkpt lat="40.7968321410141" lon="17.350093418582656"><ele>338.0</ele><time>2026-03-29T08:50:12Z</time></trkpt><trkpt lat="40.7967131245429" lon="17.349886455458904"><ele>339.0</ele><time>2026-03-29T08:50:13Z</time></trkpt><trkpt lat="40.79660970598202" lon="17.349690190049557"><ele>340.0</ele><time>2026-03-29T08:50:14Z</time></trkpt><trkpt lat="40.796502325284024" lon="17.3494845937927"><ele>340.0</ele><time>2026-03-29T08:50:15Z</time></trkpt><trkpt lat="40.796395853126484" lon="17.349303469011726"><ele>340.0</ele><time>2026-03-29T08:50:16Z</time></trkpt><trkpt lat="40.796242561237165" lon="17.349164346163693"><ele>340.0</ele><time>2026-03-29T08:50:17Z</time></trkpt><trkpt lat="40.796045188061015" lon="17.349048857811233"><ele>340.0</ele><time>2026-03-29T08:50:18Z</time></trkpt><trkpt lat="40.795825053434555" lon="17.348952740087032"><ele>340.0</ele><time>2026-03-29T08:50:19Z</time></trkpt><trkpt lat="40.79558608175812" lon="17.348829826337127"><ele>340.5</ele><time>2026-03-29T08:50:20Z</time></trkpt><trkpt lat="40.79527522936295" lon="17.348679695637717"><ele>341.0</ele><time>2026-03-29T08:50:21Z</time></trkpt><trkpt lat="40.79495597440145" lon="17.348526368313905"><ele>341.0</ele><time>2026-03-29T08:50:22Z</time></trkpt><trkpt lat="40.79460316954223" lon="17.348365164112984"><ele>341.0</ele><time>2026-03-29T08:50:23Z</time></trkpt><trkpt lat="40.79423275845788" lon="17.348190501321127"><ele>342.0</ele><time>2026-03-29T08:50:24Z</time></trkpt><trkpt lat="40.79385020196886" lon="17.3479855270773"><ele>343.0</ele><time>2026-03-29T08:50:25Z</time></trkpt><trkpt lat="40.79346336996574" lon="17.347761498845685"><ele>344.5</ele><time>2026-03-29T08:50:26Z</time></trkpt><trkpt lat="40.79309569591116" lon="17.347541361499577"><ele>346.0</ele><time>2026-03-29T08:50:27Z</time></trkpt><trkpt lat="40.792796224656016" lon="17.34732679224904"><ele>347.0</ele><time>2026-03-29T08:50:28Z</time></trkpt><trkpt lat="40.79250198924088" lon="17.347132224012668"><ele>348.0</ele><time>2026-03-29T08:50:29Z</time></trkpt><trkpt lat="40.792188416134024" lon="17.34692735546599"><ele>348.0</ele><time>2026-03-29T08:50:30Z</time></trkpt><trkpt lat="40.791886045836506" lon="17.346705127296357"><ele>348.0</ele><time>2026-03-29T08:50:31Z</time></trkpt><trkpt lat="40.791595744102004" lon="17.34656387730501"><ele>348.5</ele><time>2026-03-29T08:50:32Z</time></trkpt><trkpt lat="40.791348290186114" lon="17.346383546459467"><ele>349.0</ele><time>2026-03-29T08:50:33Z</time></trkpt><trkpt lat="40.79113881870766" lon="17.346264925629185"><ele>350.3333333333333</ele><time>2026-03-29T08:50:34Z</time></trkpt><trkpt lat="40.790949026309825" lon="17.346135641300137"><ele>351.6666666666667</ele><time>2026-03-29T08:50:35Z</time></trkpt><trkpt lat="40.790772817356824" lon="17.34599236339859"><ele>353.0</ele><time>2026-03-29T08:50:36Z</time></trkpt><trkpt lat="40.790617952869276" lon="17.345808570378605"><ele>353.0</ele><time>2026-03-29T08:50:37Z</time></trkpt><trkpt lat="40.7904576906425" lon="17.345711536080653"><ele>353.0</ele><time>2026-03-29T08:50:38Z</time></trkpt><trkpt lat="40.790274369095606" lon="17.345678510553373"><ele>353.0</ele><time>2026-03-29T08:50:39Z</time></trkpt><trkpt lat="40.790081223025176" lon="17.345559175494454"><ele>353.0</ele><time>2026-03-29T08:50:40Z</time></trkpt><trkpt lat="40.78986024873811" lon="17.345360534673976"><ele>353.0</ele><time>2026-03-29T08:50:41Z</time></trkpt><trkpt lat="40.7895929288347" lon="17.34512958769502"><ele>353.5</ele><time>2026-03-29T08:50:42Z</time></trkpt><trkpt lat="40.78929135752145" lon="17.34487132030583"><ele>354.0</ele><time>2026-03-29T08:50:43Z</time></trkpt><trkpt lat="40.78899784283949" lon="17.344576233103165"><ele>356.0</ele><time>2026-03-29T08:50:44Z</time></trkpt><trkpt lat="40.78871252857754" lon="17.34433235798064"><ele>358.0</ele><time>2026-03-29T08:50:45Z</time></trkpt><trkpt lat="40.78843071738882" lon="17.344009975202578"><ele>358.5</ele><time>2026-03-29T08:50:46Z</time></trkpt><trkpt lat="40.7881296695575" lon="17.343664908980013"><ele>359.0</ele><time>2026-03-29T08:50:47Z</time></trkpt><trkpt lat="40.78781129823648" lon="17.343334571874724"><ele>360.5</ele><time>2026-03-29T08:50:48Z</time></trkpt><trkpt lat="40.78748674070486" lon="17.343002611604366"><ele>362.0</ele><time>2026-03-29T08:50:49Z</time></trkpt><trkpt lat="40.78716645334551" lon="17.342674188886843"><ele>362.5</ele><time>2026-03-29T08:50:50Z</time></trkpt><trkpt lat="40.78684287195314" lon="17.342342920893312"><ele>363.0</ele><time>2026-03-29T08:50:51Z</time></trkpt><trkpt lat="40.78651492184383" lon="17.341994899635974"><ele>363.0</ele><time>2026-03-29T08:50:52Z</time></trkpt><trkpt lat="40.786200813689995" lon="17.341669532815974"><ele>363.0</ele><time>2026-03-29T08:50:53Z</time></trkpt><trkpt lat="40.785909733915446" lon="17.341366262165945"><ele>362.5</ele><time>2026-03-29T08:50:54Z</time></trkpt><trkpt lat="40.78564375961072" lon="17.341094411058535"><ele>362.0</ele><time>2026-03-29T08:50:55Z</time></trkpt><trkpt lat="40.78537207986407" lon="17.3408103597043"><ele>361.5</ele><time>2026-03-29T08:50:56Z</time></trkpt><trkpt lat="40.78510703943769" lon="17.340544920485"><ele>361.0</ele><time>2026-03-29T08:50:57Z</time></trkpt><trkpt lat="40.78483828697124" lon="17.340305992765483"><ele>361.0</ele><time>2026-03-29T08:50:58Z</time></trkpt><trkpt lat="40.7845367456645" lon="17.340078767102238"><ele>361.0</ele><time>2026-03-29T08:50:59Z</time></trkpt><trkpt lat="40.78422455802396" lon="17.33985007096787"><ele>361.0</ele><time>2026-03-29T08:51:00Z</time></trkpt><trkpt lat="40.78392040723583" lon="17.33964543514419"><ele>361.0</ele><time>2026-03-29T08:51:01Z</time></trkpt><trkpt lat="40.783612570762" lon="17.339458410983845"><ele>362.5</ele><time>2026-03-29T08:51:02.001Z</time></trkpt><trkpt lat="40.78329152211443" lon="17.339299715502253"><ele>364.0</ele><time>2026-03-29T08:51:03.001Z</time></trkpt><trkpt lat="40.782907709715076" lon="17.339171269266267"><ele>365.5</ele><time>2026-03-29T08:51:04.001Z</time></trkpt><trkpt lat="40.78250954907357" lon="17.339065225363665"><ele>367.0</ele><time>2026-03-29T08:51:05.001Z</time></trkpt><trkpt lat="40.782091321026215" lon="17.33898111491948"><ele>367.5</ele><time>2026-03-29T08:51:06.001Z</time></trkpt><trkpt lat="40.78169837176241" lon="17.338950876642492"><ele>368.0</ele><time>2026-03-29T08:51:07.001Z</time></trkpt><trkpt lat="40.78133195526541" lon="17.338890295708733"><ele>362.5</ele><time>2026-03-29T08:51:08.001Z</time></trkpt><trkpt lat="40.78096533197864" lon="17.33882033998609"><ele>357.0</ele><time>2026-03-29T08:51:09.001Z</time></trkpt><trkpt lat="40.78057294235376" lon="17.338713783349018"><ele>358.0</ele><time>2026-03-29T08:51:10.001Z</time></trkpt><trkpt lat="40.78016358549209" lon="17.33856106446172"><ele>359.0</ele><time>2026-03-29T08:51:11.001Z</time></trkpt><trkpt lat="40.779753759541784" lon="17.338325506399602"><ele>364.0</ele><time>2026-03-29T08:51:12.001Z</time></trkpt><trkpt lat="40.779340407227075" lon="17.33805315335958"><ele>361.0</ele><time>2026-03-29T08:51:13.001Z</time></trkpt><trkpt lat="40.77891234149576" lon="17.33778290748228"><ele>365.0</ele><time>2026-03-29T08:51:14.001Z</time></trkpt><trkpt lat="40.778468032747234" lon="17.33751937857588"><ele>365.0</ele><time>2026-03-29T08:51:15.001Z</time></trkpt><trkpt lat="40.77802977862915" lon="17.337271933028788"><ele>363.0</ele><time>2026-03-29T08:51:16Z</time></trkpt><trkpt lat="40.77762456870356" lon="17.337036505858713"><ele>361.0</ele><time>2026-03-29T08:51:17Z</time></trkpt><trkpt lat="40.77727204235261" lon="17.336825921471597"><ele>361.0</ele><time>2026-03-29T08:51:18Z</time></trkpt><trkpt lat="40.77694541655481" lon="17.336637116777766"><ele>361.0</ele><time>2026-03-29T08:51:19Z</time></trkpt><trkpt lat="40.77662706414718" lon="17.33645333996599"><ele>361.0</ele><time>2026-03-29T08:51:20Z</time></trkpt><trkpt lat="40.776330741613144" lon="17.336286143276514"><ele>361.0</ele><time>2026-03-29T08:51:21Z</time></trkpt><trkpt lat="40.77603728945716" lon="17.336146677362983"><ele>363.0</ele><time>2026-03-29T08:51:22Z</time></trkpt><trkpt lat="40.77575637325593" lon="17.33605933811977"><ele>365.0</ele><time>2026-03-29T08:51:23Z</time></trkpt><trkpt lat="40.77551964720104" lon="17.335956387870194"><ele>365.0</ele><time>2026-03-29T08:51:24Z</time></trkpt><trkpt lat="40.775299286883126" lon="17.33579815631842"><ele>365.0</ele><time>2026-03-29T08:51:25Z</time></trkpt><trkpt lat="40.775080785092264" lon="17.335654792312525"><ele>363.5</ele><time>2026-03-29T08:51:26Z</time></trkpt><trkpt lat="40.77483487155083" lon="17.33553662899204"><ele>362.0</ele><time>2026-03-29T08:51:27Z</time></trkpt><trkpt lat="40.7745047974272" lon="17.335479969162705"><ele>363.5</ele><time>2026-03-29T08:51:28Z</time></trkpt><trkpt lat="40.77418901936505" lon="17.33538564423101"><ele>365.0</ele><time>2026-03-29T08:51:29Z</time></trkpt><trkpt lat="40.77385149158357" lon="17.335264472614046"><ele>365.0</ele><time>2026-03-29T08:51:30Z</time></trkpt><trkpt lat="40.77349030714296" lon="17.335114120125258"><ele>365.0</ele><time>2026-03-29T08:51:31Z</time></trkpt><trkpt lat="40.77311268251858" lon="17.334937448104068"><ele>365.0</ele><time>2026-03-29T08:51:32Z</time></trkpt><trkpt lat="40.772721797377756" lon="17.334787730241846"><ele>365.0</ele><time>2026-03-29T08:51:33Z</time></trkpt><trkpt lat="40.77231026778701" lon="17.334644776868792"><ele>365.5</ele><time>2026-03-29T08:51:34Z</time></trkpt><trkpt lat="40.77188248460604" lon="17.33448220239641"><ele>366.0</ele><time>2026-03-29T08:51:35Z</time></trkpt><trkpt lat="40.771444682774984" lon="17.334323912587024"><ele>363.0</ele><time>2026-03-29T08:51:36Z</time></trkpt><trkpt lat="40.7710038546065" lon="17.334165270601886"><ele>363.0</ele><time>2026-03-29T08:51:37Z</time></trkpt><trkpt lat="40.770559253841775" lon="17.3340069921069"><ele>360.5</ele><time>2026-03-29T08:51:38Z</time></trkpt><trkpt lat="40.77014992572643" lon="17.333863216102365"><ele>358.0</ele><time>2026-03-29T08:51:39Z</time></trkpt><trkpt lat="40.76977067057688" lon="17.33372997935346"><ele>358.0</ele><time>2026-03-29T08:51:40Z</time></trkpt><trkpt lat="40.769412623117965" lon="17.333587228576363"><ele>358.0</ele><time>2026-03-29T08:51:41Z</time></trkpt><trkpt lat="40.76905025769097" lon="17.333453470395416"><ele>361.0</ele><time>2026-03-29T08:51:42Z</time></trkpt><trkpt lat="40.76870857437095" lon="17.3333419495479"><ele>364.0</ele><time>2026-03-29T08:51:43Z</time></trkpt><trkpt lat="40.76840947458084" lon="17.33323606906278"><ele>365.5</ele><time>2026-03-29T08:51:44Z</time></trkpt><trkpt lat="40.76810360693743" lon="17.333145336946085"><ele>367.0</ele><time>2026-03-29T08:51:45Z</time></trkpt><trkpt lat="40.7677825411375" lon="17.333063786760192"><ele>364.0</ele><time>2026-03-29T08:51:46Z</time></trkpt><trkpt lat="40.76743275253911" lon="17.332996876564803"><ele>361.0</ele><time>2026-03-29T08:51:47Z</time></trkpt><trkpt lat="40.76705420972256" lon="17.33293671237691"><ele>359.0</ele><time>2026-03-29T08:51:48Z</time></trkpt><trkpt lat="40.766666586013564" lon="17.332858838003126"><ele>357.0</ele><time>2026-03-29T08:51:49Z</time></trkpt><trkpt lat="40.76627992105591" lon="17.332777486714267"><ele>356.0</ele><time>2026-03-29T08:51:50Z</time></trkpt><trkpt lat="40.765916008824824" lon="17.332692995715114"><ele>355.0</ele><time>2026-03-29T08:51:51Z</time></trkpt><trkpt lat="40.7655837098456" lon="17.332607287893754"><ele>355.0</ele><time>2026-03-29T08:51:52Z</time></trkpt><trkpt lat="40.76528186022003" lon="17.332519344142636"><ele>355.0</ele><time>2026-03-29T08:51:53Z</time></trkpt><trkpt lat="40.76502098246279" lon="17.33239701613868"><ele>355.25</ele><time>2026-03-29T08:51:54Z</time></trkpt><trkpt lat="40.7648579512648" lon="17.33232222966004"><ele>355.5</ele><time>2026-03-29T08:51:55Z</time></trkpt><trkpt lat="40.76475434569008" lon="17.332254057295813"><ele>355.75</ele><time>2026-03-29T08:51:56Z</time></trkpt><trkpt lat="40.76467231681977" lon="17.332196877419143"><ele>356.0</ele><time>2026-03-29T08:51:57Z</time></trkpt><trkpt lat="40.76458418886687" lon="17.332144309576584"><ele>356.0</ele><time>2026-03-29T08:51:58Z</time></trkpt><trkpt lat="40.76450522777622" lon="17.332094985854788"><ele>356.0</ele><time>2026-03-29T08:51:59Z</time></trkpt><trkpt lat="40.76443906066756" lon="17.3320444280861"><ele>356.0</ele><time>2026-03-29T08:52:00Z</time></trkpt><trkpt lat="40.764372682270654" lon="17.331981634278012"><ele>356.0</ele><time>2026-03-29T08:52:01Z</time></trkpt><trkpt lat="40.764312389867534" lon="17.331894721279227"><ele>356.0</ele><time>2026-03-29T08:52:02Z</time></trkpt><trkpt lat="40.764237756567994" lon="17.331799910251554"><ele>356.0</ele><time>2026-03-29T08:52:03Z</time></trkpt><trkpt lat="40.764116619395445" lon="17.331698319895178"><ele>356.5</ele><time>2026-03-29T08:52:04Z</time></trkpt><trkpt lat="40.76397336191376" lon="17.331584760713376"><ele>357.0</ele><time>2026-03-29T08:52:05Z</time></trkpt><trkpt lat="40.76387024315405" lon="17.331500660132495"><ele>357.5</ele><time>2026-03-29T08:52:06Z</time></trkpt><trkpt lat="40.76375798085313" lon="17.331414710325625"><ele>358.0</ele><time>2026-03-29T08:52:07Z</time></trkpt><trkpt lat="40.76364501058113" lon="17.331330833371624"><ele>358.0</ele><time>2026-03-29T08:52:08Z</time></trkpt><trkpt lat="40.763551584948" lon="17.331267319992527"><ele>358.0</ele><time>2026-03-29T08:52:09Z</time></trkpt><trkpt lat="40.76346073920184" lon="17.331222154532824"><ele>358.0</ele><time>2026-03-29T08:52:10Z</time></trkpt><trkpt lat="40.76335397592389" lon="17.331224443184734"><ele>358.0</ele><time>2026-03-29T08:52:11Z</time></trkpt><trkpt lat="40.76326085479996" lon="17.3311813125054"><ele>358.0</ele><time>2026-03-29T08:52:12Z</time></trkpt><trkpt lat="40.76316327778232" lon="17.331116629015508"><ele>359.3333333333333</ele><time>2026-03-29T08:52:13Z</time></trkpt><trkpt lat="40.76303953143639" lon="17.331028607923187"><ele>360.6666666666667</ele><time>2026-03-29T08:52:14Z</time></trkpt><trkpt lat="40.762893002245924" lon="17.33093918433846"><ele>362.0</ele><time>2026-03-29T08:52:15Z</time></trkpt><trkpt lat="40.76272535117052" lon="17.330826172899577"><ele>362.33333333333337</ele><time>2026-03-29T08:52:16Z</time></trkpt><trkpt lat="40.76255491173131" lon="17.33068219371531"><ele>362.6666666666667</ele><time>2026-03-29T08:52:17Z</time></trkpt><trkpt lat="40.762376514198856" lon="17.330579945978325"><ele>363.0</ele><time>2026-03-29T08:52:18Z</time></trkpt><trkpt lat="40.76222651175935" lon="17.330448832161665"><ele>363.0</ele><time>2026-03-29T08:52:19Z</time></trkpt><trkpt lat="40.76208897019369" lon="17.330350798891363"><ele>363.0</ele><time>2026-03-29T08:52:20Z</time></trkpt><trkpt lat="40.761963142870506" lon="17.33026111499104"><ele>363.0</ele><time>2026-03-29T08:52:21Z</time></trkpt><trkpt lat="40.76183506072682" lon="17.330187392739987"><ele>363.0</ele><time>2026-03-29T08:52:22Z</time></trkpt><trkpt lat="40.76171691457573" lon="17.330092509427907"><ele>363.25</ele><time>2026-03-29T08:52:23Z</time></trkpt><trkpt lat="40.761591618379796" lon="17.329996769430558"><ele>363.5</ele><time>2026-03-29T08:52:24Z</time></trkpt><trkpt lat="40.76146239259325" lon="17.329898878818764"><ele>363.75</ele><time>2026-03-29T08:52:25Z</time></trkpt><trkpt lat="40.76133418419673" lon="17.32980665392466"><ele>364.0</ele><time>2026-03-29T08:52:26Z</time></trkpt><trkpt lat="40.761197160415506" lon="17.329710916500133"><ele>364.0</ele><time>2026-03-29T08:52:27Z</time></trkpt><trkpt lat="40.76105309438667" lon="17.32961181313475"><ele>364.0</ele><time>2026-03-29T08:52:28Z</time></trkpt><trkpt lat="40.760900115409804" lon="17.329510552415407"><ele>364.0</ele><time>2026-03-29T08:52:29Z</time></trkpt><trkpt lat="40.760751309742695" lon="17.3294058112734"><ele>365.25</ele><time>2026-03-29T08:52:30Z</time></trkpt><trkpt lat="40.76062730647695" lon="17.329323036325974"><ele>366.5</ele><time>2026-03-29T08:52:31Z</time></trkpt><trkpt lat="40.76050689750081" lon="17.329235947802378"><ele>367.75</ele><time>2026-03-29T08:52:32Z</time></trkpt><trkpt lat="40.76040059921475" lon="17.329159576630214"><ele>369.0</ele><time>2026-03-29T08:52:33Z</time></trkpt><trkpt lat="40.760295612001094" lon="17.329075868485887"><ele>369.0</ele><time>2026-03-29T08:52:34Z</time></trkpt><trkpt lat="40.76020438482417" lon="17.329020311227463"><ele>369.0</ele><time>2026-03-29T08:52:35Z</time></trkpt><trkpt lat="40.7600948603281" lon="17.328976659681324"><ele>369.0</ele><time>2026-03-29T08:52:36Z</time></trkpt><trkpt lat="40.75997014032904" lon="17.328904119303207"><ele>369.0</ele><time>2026-03-29T08:52:37Z</time></trkpt><trkpt lat="40.759867287112414" lon="17.32885057709758"><ele>370.5</ele><time>2026-03-29T08:52:38Z</time></trkpt><trkpt lat="40.75976903521908" lon="17.32883307528433"><ele>372.0</ele><time>2026-03-29T08:52:39Z</time></trkpt><trkpt lat="40.75973728678738" lon="17.32867633854621"><ele>373.5</ele><time>2026-03-29T08:52:40Z</time></trkpt><trkpt lat="40.759569810107664" lon="17.328805031686308"><ele>375.0</ele><time>2026-03-29T08:52:42Z</time></trkpt><trkpt lat="40.759446093395965" lon="17.328785173229505"><ele>375.0</ele><time>2026-03-29T08:52:44Z</time></trkpt><trkpt lat="40.75937596557197" lon="17.328756781153047"><ele>375.0</ele><time>2026-03-29T08:52:45Z</time></trkpt><trkpt lat="40.75927857594588" lon="17.328760479588134"><ele>375.0</ele><time>2026-03-29T08:52:46Z</time></trkpt><trkpt lat="40.75936785582368" lon="17.32842815262734"><ele>375.0</ele><time>2026-03-29T08:52:47Z</time></trkpt><trkpt lat="40.759294400912104" lon="17.328370364166553"><ele>376.25</ele><time>2026-03-29T08:52:48Z</time></trkpt><trkpt lat="40.759210697097544" lon="17.32829512117883"><ele>377.5</ele><time>2026-03-29T08:52:49Z</time></trkpt><trkpt lat="40.75910060866688" lon="17.328225537310445"><ele>378.75</ele><time>2026-03-29T08:52:50Z</time></trkpt><trkpt lat="40.758975113396964" lon="17.32814974898623"><ele>380.0</ele><time>2026-03-29T08:52:51Z</time></trkpt><trkpt lat="40.75884999763317" lon="17.328049553010924"><ele>380.33333333333337</ele><time>2026-03-29T08:52:52Z</time></trkpt><trkpt lat="40.75872275845263" lon="17.32794214272265"><ele>380.6666666666667</ele><time>2026-03-29T08:52:53Z</time></trkpt><trkpt lat="40.75858048270189" lon="17.32784083876653"><ele>381.0</ele><time>2026-03-29T08:52:54Z</time></trkpt><trkpt lat="40.75844034233595" lon="17.327737699684345"><ele>383.0</ele><time>2026-03-29T08:52:55Z</time></trkpt><trkpt lat="40.75829221105977" lon="17.327654603123996"><ele>385.0</ele><time>2026-03-29T08:52:56Z</time></trkpt><trkpt lat="40.75815218908775" lon="17.327550575610186"><ele>387.0</ele><time>2026-03-29T08:52:57Z</time></trkpt><trkpt lat="40.75802424112034" lon="17.3274361752312"><ele>387.0</ele><time>2026-03-29T08:52:58Z</time></trkpt><trkpt lat="40.757888421808445" lon="17.327348496017756"><ele>387.0</ele><time>2026-03-29T08:52:59Z</time></trkpt><trkpt lat="40.75776691869035" lon="17.327229311105462"><ele>387.0</ele><time>2026-03-29T08:53:00Z</time></trkpt><trkpt lat="40.757636715693636" lon="17.327150678420825"><ele>387.0</ele><time>2026-03-29T08:53:01Z</time></trkpt><trkpt lat="40.75753576515414" lon="17.327073908208106"><ele>387.8333333333333</ele><time>2026-03-29T08:53:02Z</time></trkpt><trkpt lat="40.75746732954288" lon="17.326985244231473"><ele>388.66666666666663</ele><time>2026-03-29T08:53:03Z</time></trkpt><trkpt lat="40.757386452847584" lon="17.32693992961499"><ele>389.5</ele><time>2026-03-29T08:53:04Z</time></trkpt><trkpt lat="40.75728678039286" lon="17.326899427385086"><ele>390.3333333333333</ele><time>2026-03-29T08:53:05Z</time></trkpt><trkpt lat="40.75722344464124" lon="17.326859297968433"><ele>391.16666666666663</ele><time>2026-03-29T08:53:06Z</time></trkpt><trkpt lat="40.757144443713706" lon="17.32680613789374"><ele>392.0</ele><time>2026-03-29T08:53:07Z</time></trkpt><trkpt lat="40.757040672053456" lon="17.32673719792271"><ele>392.0</ele><time>2026-03-29T08:53:08.001Z</time></trkpt><trkpt lat="40.75695788970902" lon="17.326660264431133"><ele>392.0</ele><time>2026-03-29T08:53:09.001Z</time></trkpt><trkpt lat="40.756892873039206" lon="17.326615872302078"><ele>392.0</ele><time>2026-03-29T08:53:10.001Z</time></trkpt><trkpt lat="40.756835064455416" lon="17.326570912537523"><ele>392.0</ele><time>2026-03-29T08:53:14.001Z</time></trkpt><trkpt lat="40.75670680493866" lon="17.326449233266555"><ele>392.0</ele><time>2026-03-29T08:53:16.001Z</time></trkpt><trkpt lat="40.756628187360846" lon="17.326375524379213"><ele>392.25</ele><time>2026-03-29T08:53:17.001Z</time></trkpt><trkpt lat="40.75650249970479" lon="17.326317174048512"><ele>392.5</ele><time>2026-03-29T08:53:18.001Z</time></trkpt><trkpt lat="40.7563809893689" lon="17.326284307422082"><ele>392.75</ele><time>2026-03-29T08:53:19.001Z</time></trkpt><trkpt lat="40.75624750575057" lon="17.326259636454807"><ele>393.0</ele><time>2026-03-29T08:53:20.001Z</time></trkpt><trkpt lat="40.75610695345258" lon="17.326263562111215"><ele>392.66666666666663</ele><time>2026-03-29T08:53:21.001Z</time></trkpt><trkpt lat="40.755941624666804" lon="17.326254796561855"><ele>392.3333333333333</ele><time>2026-03-29T08:53:22.001Z</time></trkpt><trkpt lat="40.755785590716656" lon="17.326224853624804"><ele>392.0</ele><time>2026-03-29T08:53:23.001Z</time></trkpt><trkpt lat="40.75563994878613" lon="17.326206884645643"><ele>392.0</ele><time>2026-03-29T08:53:24.001Z</time></trkpt><trkpt lat="40.755498707055985" lon="17.32620133368034"><ele>392.0</ele><time>2026-03-29T08:53:25.001Z</time></trkpt><trkpt lat="40.755340863793904" lon="17.32618893408199"><ele>392.0</ele><time>2026-03-29T08:53:26.001Z</time></trkpt><trkpt lat="40.75519365069903" lon="17.32619152951369"><ele>392.0</ele><time>2026-03-29T08:53:27.001Z</time></trkpt><trkpt lat="40.75507594623394" lon="17.326181394358883"><ele>391.66666666666663</ele><time>2026-03-29T08:53:28.001Z</time></trkpt><trkpt lat="40.754965221072204" lon="17.326174985835337"><ele>391.3333333333333</ele><time>2026-03-29T08:53:29.001Z</time></trkpt><trkpt lat="40.754890443475055" lon="17.32617255289986"><ele>391.0</ele><time>2026-03-29T08:53:30.001Z</time></trkpt><trkpt lat="40.75481757966632" lon="17.326170182229937"><ele>390.66666666666663</ele><time>2026-03-29T08:53:31.001Z</time></trkpt><trkpt lat="40.75473524636553" lon="17.326167504998786"><ele>390.3333333333333</ele><time>2026-03-29T08:53:33.001Z</time></trkpt><trkpt lat="40.754668643753234" lon="17.326163564811385"><ele>390.0</ele><time>2026-03-29T08:54:08Z</time></trkpt><trkpt lat="40.75451902757306" lon="17.326152105895293"><ele>390.0</ele><time>2026-03-29T08:54:10Z</time></trkpt><trkpt lat="40.75442787833015" lon="17.326169883829824"><ele>390.0</ele><time>2026-03-29T08:54:11Z</time></trkpt><trkpt lat="40.75430731299847" lon="17.32617667061627"><ele>390.0</ele><time>2026-03-29T08:54:12Z</time></trkpt><trkpt lat="40.754152117607916" lon="17.326187429547392"><ele>390.0</ele><time>2026-03-29T08:54:13Z</time></trkpt><trkpt lat="40.75398657444398" lon="17.326233897598087"><ele>389.66666666666663</ele><time>2026-03-29T08:54:14Z</time></trkpt><trkpt lat="40.753800974763855" lon="17.326286397192636"><ele>389.3333333333333</ele><time>2026-03-29T08:54:15Z</time></trkpt><trkpt lat="40.75360199336119" lon="17.326389835308028"><ele>389.0</ele><time>2026-03-29T08:54:16Z</time></trkpt><trkpt lat="40.753404615411576" lon="17.326558727237554"><ele>389.0</ele><time>2026-03-29T08:54:17Z</time></trkpt><trkpt lat="40.753212882021415" lon="17.326686970105687"><ele>389.0</ele><time>2026-03-29T08:54:18Z</time></trkpt><trkpt lat="40.752948233074406" lon="17.32689138730886"><ele>390.0</ele><time>2026-03-29T08:54:19Z</time></trkpt><trkpt lat="40.752704867902" lon="17.32708310864021"><ele>391.0</ele><time>2026-03-29T08:54:20Z</time></trkpt><trkpt lat="40.75246766661048" lon="17.327281200898923"><ele>391.0</ele><time>2026-03-29T08:54:21Z</time></trkpt><trkpt lat="40.75223516467045" lon="17.327459904251644"><ele>391.0</ele><time>2026-03-29T08:54:22Z</time></trkpt><trkpt lat="40.75200382209843" lon="17.32764107807876"><ele>382.0</ele><time>2026-03-29T08:54:23Z</time></trkpt><trkpt lat="40.75178200691358" lon="17.32781225864089"><ele>373.0</ele><time>2026-03-29T08:54:24Z</time></trkpt><trkpt lat="40.751572343620964" lon="17.32798018035236"><ele>378.5</ele><time>2026-03-29T08:54:25Z</time></trkpt><trkpt lat="40.75136498033616" lon="17.32814412723266"><ele>384.0</ele><time>2026-03-29T08:54:26Z</time></trkpt><trkpt lat="40.75114930943083" lon="17.328314778905447"><ele>376.5</ele><time>2026-03-29T08:54:27Z</time></trkpt><trkpt lat="40.75092175763296" lon="17.328489105329368"><ele>369.0</ele><time>2026-03-29T08:54:28Z</time></trkpt><trkpt lat="40.750692861849366" lon="17.328663371661253"><ele>369.0</ele><time>2026-03-29T08:54:29Z</time></trkpt><trkpt lat="40.750468781079334" lon="17.328815459013356"><ele>369.0</ele><time>2026-03-29T08:54:30Z</time></trkpt><trkpt lat="40.750258568553015" lon="17.32895297626509"><ele>367.3333333333333</ele><time>2026-03-29T08:54:31Z</time></trkpt><trkpt lat="40.7500549978943" lon="17.329073746095744"><ele>365.66666666666663</ele><time>2026-03-29T08:54:32Z</time></trkpt><trkpt lat="40.74985599615174" lon="17.329176919806095"><ele>364.0</ele><time>2026-03-29T08:54:33Z</time></trkpt><trkpt lat="40.74967384323066" lon="17.32925243565552"><ele>364.0</ele><time>2026-03-29T08:54:34Z</time></trkpt><trkpt lat="40.7495109574241" lon="17.329313012996696"><ele>364.0</ele><time>2026-03-29T08:54:35Z</time></trkpt><trkpt lat="40.749372223533236" lon="17.32933964513399"><ele>364.0</ele><time>2026-03-29T08:54:36Z</time></trkpt><trkpt lat="40.74924097946342" lon="17.329330146967298"><ele>364.0</ele><time>2026-03-29T08:54:37Z</time></trkpt><trkpt lat="40.74912427251458" lon="17.329327009999854"><ele>363.0</ele><time>2026-03-29T08:54:38Z</time></trkpt><trkpt lat="40.74902493942308" lon="17.329406147640803"><ele>362.0</ele><time>2026-03-29T08:54:39Z</time></trkpt><trkpt lat="40.748905236882905" lon="17.32953132182692"><ele>361.0</ele><time>2026-03-29T08:54:40Z</time></trkpt><trkpt lat="40.74873671420747" lon="17.329633804378155"><ele>359.5</ele><time>2026-03-29T08:54:41Z</time></trkpt><trkpt lat="40.7485249017007" lon="17.32973105510043"><ele>358.0</ele><time>2026-03-29T08:54:42Z</time></trkpt><trkpt lat="40.74829105868123" lon="17.32983300825642"><ele>358.0</ele><time>2026-03-29T08:54:43Z</time></trkpt><trkpt lat="40.74803929706473" lon="17.329937916603768"><ele>358.0</ele><time>2026-03-29T08:54:44Z</time></trkpt><trkpt lat="40.747795781676054" lon="17.330060136560025"><ele>358.5</ele><time>2026-03-29T08:54:45Z</time></trkpt><trkpt lat="40.747500309915246" lon="17.330173341812568"><ele>359.0</ele><time>2026-03-29T08:54:46Z</time></trkpt><trkpt lat="40.74722488917958" lon="17.330286337914252"><ele>359.0</ele><time>2026-03-29T08:54:47Z</time></trkpt><trkpt lat="40.7469534052063" lon="17.330394392598322"><ele>359.0</ele><time>2026-03-29T08:54:48Z</time></trkpt><trkpt lat="40.7466841906066" lon="17.330495033470605"><ele>359.5</ele><time>2026-03-29T08:54:49Z</time></trkpt><trkpt lat="40.74641040978081" lon="17.33061355758001"><ele>360.0</ele><time>2026-03-29T08:54:50Z</time></trkpt><trkpt lat="40.74614440648053" lon="17.330722578055166"><ele>363.0</ele><time>2026-03-29T08:54:51Z</time></trkpt><trkpt lat="40.7458793109322" lon="17.33083801555228"><ele>366.0</ele><time>2026-03-29T08:54:52Z</time></trkpt><trkpt lat="40.74562919152971" lon="17.330940004218927"><ele>366.0</ele><time>2026-03-29T08:54:53Z</time></trkpt><trkpt lat="40.7453778322207" lon="17.331071236275477"><ele>366.0</ele><time>2026-03-29T08:54:54Z</time></trkpt><trkpt lat="40.74511722819137" lon="17.331161219792016"><ele>368.0</ele><time>2026-03-29T08:54:55Z</time></trkpt><trkpt lat="40.74485609834975" lon="17.331263842245665"><ele>370.0</ele><time>2026-03-29T08:54:56Z</time></trkpt><trkpt lat="40.744591775622474" lon="17.331377563678842"><ele>368.5</ele><time>2026-03-29T08:54:57Z</time></trkpt><trkpt lat="40.74432059336807" lon="17.331467700727426"><ele>367.0</ele><time>2026-03-29T08:54:58Z</time></trkpt><trkpt lat="40.74404758026439" lon="17.331580237553798"><ele>367.0</ele><time>2026-03-29T08:54:59Z</time></trkpt><trkpt lat="40.7437964504212" lon="17.331683301159984"><ele>367.0</ele><time>2026-03-29T08:55:00Z</time></trkpt><trkpt lat="40.74355451409603" lon="17.331793751661348"><ele>368.5</ele><time>2026-03-29T08:55:01Z</time></trkpt><trkpt lat="40.74331117860215" lon="17.331889900974666"><ele>370.0</ele><time>2026-03-29T08:55:02Z</time></trkpt><trkpt lat="40.74307645940552" lon="17.331984584326356"><ele>370.0</ele><time>2026-03-29T08:55:03Z</time></trkpt><trkpt lat="40.742835921855914" lon="17.33206587347425"><ele>370.0</ele><time>2026-03-29T08:55:04Z</time></trkpt><trkpt lat="40.7425865873189" lon="17.33216401394929"><ele>370.5</ele><time>2026-03-29T08:55:05Z</time></trkpt><trkpt lat="40.74232578672084" lon="17.3322883521662"><ele>371.0</ele><time>2026-03-29T08:55:06Z</time></trkpt><trkpt lat="40.7420511861805" lon="17.332378989354538"><ele>369.5</ele><time>2026-03-29T08:55:07Z</time></trkpt><trkpt lat="40.741770730838574" lon="17.33248312483731"><ele>368.0</ele><time>2026-03-29T08:55:08Z</time></trkpt><trkpt lat="40.74149906070757" lon="17.33248019959446"><ele>368.0</ele><time>2026-03-29T08:55:09Z</time></trkpt><trkpt lat="40.741215037747686" lon="17.332447412317816"><ele>368.0</ele><time>2026-03-29T08:55:10Z</time></trkpt><trkpt lat="40.74093545117903" lon="17.332443191253063"><ele>366.0</ele><time>2026-03-29T08:55:11Z</time></trkpt><trkpt lat="40.74064110438084" lon="17.332449928974604"><ele>364.0</ele><time>2026-03-29T08:55:12Z</time></trkpt><trkpt lat="40.74036096776912" lon="17.332467924660538"><ele>362.5</ele><time>2026-03-29T08:55:13Z</time></trkpt><trkpt lat="40.74006422990358" lon="17.33246482792995"><ele>361.0</ele><time>2026-03-29T08:55:14.001Z</time></trkpt><trkpt lat="40.739790447871904" lon="17.332465525503522"><ele>361.0</ele><time>2026-03-29T08:55:15.001Z</time></trkpt><trkpt lat="40.73953976934418" lon="17.332474248861445"><ele>361.0</ele><time>2026-03-29T08:55:16.001Z</time></trkpt><trkpt lat="40.739284227545554" lon="17.332467841595665"><ele>358.5</ele><time>2026-03-29T08:55:17.001Z</time></trkpt><trkpt lat="40.739007915007804" lon="17.332477094287324"><ele>356.0</ele><time>2026-03-29T08:55:18.001Z</time></trkpt><trkpt lat="40.73873629396376" lon="17.332487406573495"><ele>354.5</ele><time>2026-03-29T08:55:19.001Z</time></trkpt><trkpt lat="40.73847393991017" lon="17.33248130207643"><ele>353.0</ele><time>2026-03-29T08:55:20.001Z</time></trkpt><trkpt lat="40.738205998832974" lon="17.332496027886272"><ele>353.0</ele><time>2026-03-29T08:55:21.001Z</time></trkpt><trkpt lat="40.73795887152852" lon="17.332489341701596"><ele>353.0</ele><time>2026-03-29T08:55:22.001Z</time></trkpt><trkpt lat="40.73771439141878" lon="17.33248929624525"><ele>351.0</ele><time>2026-03-29T08:55:23.001Z</time></trkpt><trkpt lat="40.73748415653124" lon="17.332499916158042"><ele>349.0</ele><time>2026-03-29T08:55:24.001Z</time></trkpt><trkpt lat="40.73725681537566" lon="17.332504538418657"><ele>349.0</ele><time>2026-03-29T08:55:25.001Z</time></trkpt><trkpt lat="40.73704012538568" lon="17.332521074636027"><ele>349.0</ele><time>2026-03-29T08:55:26.001Z</time></trkpt><trkpt lat="40.73688583354584" lon="17.332572714628856"><ele>349.0</ele><time>2026-03-29T08:55:27.001Z</time></trkpt><trkpt lat="40.73670193806941" lon="17.33259367383123"><ele>348.3333333333333</ele><time>2026-03-29T08:55:28.001Z</time></trkpt><trkpt lat="40.736499562542086" lon="17.33252838389693"><ele>347.6666666666667</ele><time>2026-03-29T08:55:29.001Z</time></trkpt><trkpt lat="40.73633937302376" lon="17.33251166639558"><ele>347.0</ele><time>2026-03-29T08:55:30.001Z</time></trkpt><trkpt lat="40.73620413823875" lon="17.332518671664353"><ele>347.0</ele><time>2026-03-29T08:55:31.001Z</time></trkpt><trkpt lat="40.73608984334372" lon="17.33250051479067"><ele>347.0</ele><time>2026-03-29T08:55:32.001Z</time></trkpt><trkpt lat="40.73599639728728" lon="17.332447485354617"><ele>347.0</ele><time>2026-03-29T08:55:33.001Z</time></trkpt><trkpt lat="40.735918691044844" lon="17.332360320887723"><ele>347.0</ele><time>2026-03-29T08:55:34.001Z</time></trkpt><trkpt lat="40.735841079931674" lon="17.332324891151508"><ele>347.0</ele><time>2026-03-29T08:55:35.001Z</time></trkpt><trkpt lat="40.735767616544145" lon="17.332343770439547"><ele>347.0</ele><time>2026-03-29T08:55:36.001Z</time></trkpt><trkpt lat="40.735694070288176" lon="17.33240008924443"><ele>347.0</ele><time>2026-03-29T08:55:37.001Z</time></trkpt><trkpt lat="40.73561093588166" lon="17.332491127587605"><ele>347.0</ele><time>2026-03-29T08:55:38.001Z</time></trkpt><trkpt lat="40.73551755867014" lon="17.332547749990344"><ele>347.0</ele><time>2026-03-29T08:55:39.001Z</time></trkpt><trkpt lat="40.735387915916455" lon="17.332562238555386"><ele>347.0</ele><time>2026-03-29T08:55:40.001Z</time></trkpt><trkpt lat="40.73521921065811" lon="17.332551304835903"><ele>347.0</ele><time>2026-03-29T08:55:41.001Z</time></trkpt><trkpt lat="40.735011121381426" lon="17.332539945954363"><ele>347.0</ele><time>2026-03-29T08:55:42.001Z</time></trkpt><trkpt lat="40.73477393118603" lon="17.332542560734424"><ele>347.0</ele><time>2026-03-29T08:55:43.001Z</time></trkpt><trkpt lat="40.734521190172245" lon="17.332545899650526"><ele>348.5</ele><time>2026-03-29T08:55:44Z</time></trkpt><trkpt lat="40.73424631744615" lon="17.332552315618685"><ele>350.0</ele><time>2026-03-29T08:55:45Z</time></trkpt><trkpt lat="40.7339615351057" lon="17.33255747061984"><ele>350.0</ele><time>2026-03-29T08:55:46Z</time></trkpt><trkpt lat="40.733655615657305" lon="17.332561670627808"><ele>350.0</ele><time>2026-03-29T08:55:47Z</time></trkpt><trkpt lat="40.733343100933915" lon="17.332570670632386"><ele>351.0</ele><time>2026-03-29T08:55:48Z</time></trkpt><trkpt lat="40.73302525636608" lon="17.332564451181483"><ele>352.0</ele><time>2026-03-29T08:55:49Z</time></trkpt><trkpt lat="40.73269869565811" lon="17.33257387444627"><ele>352.5</ele><time>2026-03-29T08:55:50Z</time></trkpt><trkpt lat="40.732374105945446" lon="17.332561159463605"><ele>353.0</ele><time>2026-03-29T08:55:51Z</time></trkpt><trkpt lat="40.73200600137938" lon="17.332482052301625"><ele>352.5</ele><time>2026-03-29T08:55:52Z</time></trkpt><trkpt lat="40.73163051627547" lon="17.33243447933397"><ele>352.0</ele><time>2026-03-29T08:55:53Z</time></trkpt><trkpt lat="40.73134764644574" lon="17.332500557316294"><ele>352.0</ele><time>2026-03-29T08:55:54Z</time></trkpt><trkpt lat="40.73105280134532" lon="17.332555455862554"><ele>352.0</ele><time>2026-03-29T08:55:55Z</time></trkpt><trkpt lat="40.73075588666647" lon="17.332627199246918"><ele>352.0</ele><time>2026-03-29T08:55:56Z</time></trkpt><trkpt lat="40.730460668440884" lon="17.332596994151707"><ele>352.0</ele><time>2026-03-29T08:55:57Z</time></trkpt><trkpt lat="40.730191231767364" lon="17.332590885002766"><ele>354.3333333333333</ele><time>2026-03-29T08:55:58Z</time></trkpt><trkpt lat="40.72998467640759" lon="17.332561388648777"><ele>356.6666666666667</ele><time>2026-03-29T08:55:59Z</time></trkpt><trkpt lat="40.72976455067152" lon="17.332578382838822"><ele>359.0</ele><time>2026-03-29T08:56:00Z</time></trkpt><trkpt lat="40.72957978969243" lon="17.332590900737934"><ele>359.0</ele><time>2026-03-29T08:56:01Z</time></trkpt><trkpt lat="40.729419185271325" lon="17.332599686110775"><ele>359.0</ele><time>2026-03-29T08:56:02Z</time></trkpt><trkpt lat="40.72927272509745" lon="17.332622925505753"><ele>359.0</ele><time>2026-03-29T08:56:03Z</time></trkpt><trkpt lat="40.72916434809106" lon="17.332608196466985"><ele>359.0</ele><time>2026-03-29T08:56:04Z</time></trkpt><trkpt lat="40.729004596453066" lon="17.332607764676094"><ele>358.0</ele><time>2026-03-29T08:56:05Z</time></trkpt><trkpt lat="40.72879507054266" lon="17.332608020280855"><ele>357.0</ele><time>2026-03-29T08:56:06Z</time></trkpt><trkpt lat="40.728538465294804" lon="17.332621572032487"><ele>355.5</ele><time>2026-03-29T08:56:07Z</time></trkpt><trkpt lat="40.72828746565343" lon="17.332596759377527"><ele>354.0</ele><time>2026-03-29T08:56:08Z</time></trkpt><trkpt lat="40.728057904905576" lon="17.332611862480814"><ele>354.0</ele><time>2026-03-29T08:56:09Z</time></trkpt><trkpt lat="40.72779197307566" lon="17.3326056603964"><ele>354.0</ele><time>2026-03-29T08:56:10Z</time></trkpt><trkpt lat="40.727492465043106" lon="17.332623844191676"><ele>353.5</ele><time>2026-03-29T08:56:11Z</time></trkpt><trkpt lat="40.72718674362445" lon="17.3326258157917"><ele>353.0</ele><time>2026-03-29T08:56:12Z</time></trkpt><trkpt lat="40.72687866583725" lon="17.33261960561387"><ele>354.0</ele><time>2026-03-29T08:56:13Z</time></trkpt><trkpt lat="40.726570591218064" lon="17.33261605877776"><ele>355.0</ele><time>2026-03-29T08:56:14Z</time></trkpt><trkpt lat="40.72626443377663" lon="17.332603488330538"><ele>355.0</ele><time>2026-03-29T08:56:15Z</time></trkpt><trkpt lat="40.72595427449605" lon="17.33259014641208"><ele>355.0</ele><time>2026-03-29T08:56:16Z</time></trkpt><trkpt lat="40.725656850243126" lon="17.332542043791058"><ele>355.0</ele><time>2026-03-29T08:56:17Z</time></trkpt><trkpt lat="40.72533729973863" lon="17.332511942780723"><ele>355.0</ele><time>2026-03-29T08:56:18Z</time></trkpt><trkpt lat="40.72504499788323" lon="17.332528241510815"><ele>355.0</ele><time>2026-03-29T08:56:19Z</time></trkpt><trkpt lat="40.72478067127429" lon="17.33253085533702"><ele>355.0</ele><time>2026-03-29T08:56:20Z</time></trkpt><trkpt lat="40.72451699393887" lon="17.33251445781915"><ele>355.5</ele><time>2026-03-29T08:56:21Z</time></trkpt><trkpt lat="40.724188535954674" lon="17.332633189880728"><ele>356.0</ele><time>2026-03-29T08:56:22Z</time></trkpt><trkpt lat="40.72388708106573" lon="17.332647053739898"><ele>356.0</ele><time>2026-03-29T08:56:23Z</time></trkpt><trkpt lat="40.723589066884074" lon="17.332664186691208"><ele>356.0</ele><time>2026-03-29T08:56:24Z</time></trkpt><trkpt lat="40.72328687049646" lon="17.332658333728062"><ele>357.0</ele><time>2026-03-29T08:56:25Z</time></trkpt><trkpt lat="40.72298933522076" lon="17.332657287211813"><ele>358.0</ele><time>2026-03-29T08:56:26Z</time></trkpt><trkpt lat="40.722682247132965" lon="17.33266390711552"><ele>358.0</ele><time>2026-03-29T08:56:27Z</time></trkpt><trkpt lat="40.722386522493984" lon="17.33266149843861"><ele>358.0</ele><time>2026-03-29T08:56:28Z</time></trkpt><trkpt lat="40.722101213300554" lon="17.332675770527302"><ele>356.5</ele><time>2026-03-29T08:56:29Z</time></trkpt><trkpt lat="40.721818583600445" lon="17.332685223130362"><ele>355.0</ele><time>2026-03-29T08:56:30Z</time></trkpt><trkpt lat="40.72153937913045" lon="17.3326862042087"><ele>355.0</ele><time>2026-03-29T08:56:31Z</time></trkpt><trkpt lat="40.72126004974219" lon="17.33269969657748"><ele>355.0</ele><time>2026-03-29T08:56:32Z</time></trkpt><trkpt lat="40.72097693174951" lon="17.332691700094674"><ele>354.5</ele><time>2026-03-29T08:56:33Z</time></trkpt><trkpt lat="40.720705656371614" lon="17.332697619632906"><ele>354.0</ele><time>2026-03-29T08:56:34Z</time></trkpt><trkpt lat="40.72042666514542" lon="17.332688843432475"><ele>352.5</ele><time>2026-03-29T08:56:35Z</time></trkpt><trkpt lat="40.72017403677412" lon="17.33271028128325"><ele>351.0</ele><time>2026-03-29T08:56:36Z</time></trkpt><trkpt lat="40.7199237670511" lon="17.332714229574048"><ele>351.0</ele><time>2026-03-29T08:56:37Z</time></trkpt><trkpt lat="40.71968371721204" lon="17.332717762667915"><ele>351.0</ele><time>2026-03-29T08:56:38Z</time></trkpt><trkpt lat="40.719449380944454" lon="17.33270795985866"><ele>351.3333333333333</ele><time>2026-03-29T08:56:39Z</time></trkpt><trkpt lat="40.71923264085959" lon="17.33271755454307"><ele>351.66666666666663</ele><time>2026-03-29T08:56:40Z</time></trkpt><trkpt lat="40.71901372082796" lon="17.33272168007113"><ele>352.0</ele><time>2026-03-29T08:56:41Z</time></trkpt><trkpt lat="40.71881081550406" lon="17.33272254456133"><ele>352.0</ele><time>2026-03-29T08:56:42Z</time></trkpt><trkpt lat="40.718625792604456" lon="17.332717493075332"><ele>352.0</ele><time>2026-03-29T08:56:43Z</time></trkpt><trkpt lat="40.71844892633642" lon="17.332719959915554"><ele>352.0</ele><time>2026-03-29T08:56:44Z</time></trkpt><trkpt lat="40.71828533056656" lon="17.33272697883263"><ele>352.3333333333333</ele><time>2026-03-29T08:56:45Z</time></trkpt><trkpt lat="40.71813001904214" lon="17.332726732776308"><ele>352.6666666666667</ele><time>2026-03-29T08:56:46Z</time></trkpt><trkpt lat="40.71797082817921" lon="17.332723566229824"><ele>353.0</ele><time>2026-03-29T08:56:47Z</time></trkpt><trkpt lat="40.71783330678393" lon="17.332720092467707"><ele>353.2</ele><time>2026-03-29T08:56:48Z</time></trkpt><trkpt lat="40.71771959330663" lon="17.332716838531613"><ele>353.4</ele><time>2026-03-29T08:56:49Z</time></trkpt><trkpt lat="40.71761877044547" lon="17.332689521093915"><ele>353.59999999999997</ele><time>2026-03-29T08:56:50Z</time></trkpt><trkpt lat="40.71753344580535" lon="17.33264287986471"><ele>353.79999999999995</ele><time>2026-03-29T08:56:51Z</time></trkpt><trkpt lat="40.717445152992575" lon="17.332619968502897"><ele>354.0</ele><time>2026-03-29T08:56:52Z</time></trkpt><trkpt lat="40.71736977420107" lon="17.33264594027996"><ele>354.0</ele><time>2026-03-29T08:56:53Z</time></trkpt><trkpt lat="40.71727981557581" lon="17.332678689461"><ele>354.0</ele><time>2026-03-29T08:56:54Z</time></trkpt><trkpt lat="40.71711763554216" lon="17.33273441203591"><ele>354.0</ele><time>2026-03-29T08:56:55Z</time></trkpt><trkpt lat="40.71693131575233" lon="17.332736471927053"><ele>354.0</ele><time>2026-03-29T08:56:56Z</time></trkpt><trkpt lat="40.716722294212985" lon="17.332729128983118"><ele>355.0</ele><time>2026-03-29T08:56:57Z</time></trkpt><trkpt lat="40.716523567104964" lon="17.332715678401343"><ele>356.0</ele><time>2026-03-29T08:56:58Z</time></trkpt><trkpt lat="40.71626322680274" lon="17.33273633246429"><ele>356.5</ele><time>2026-03-29T08:56:59Z</time></trkpt><trkpt lat="40.71597578422471" lon="17.332742564878036"><ele>357.0</ele><time>2026-03-29T08:57:00Z</time></trkpt><trkpt lat="40.715698610333504" lon="17.332738755717447"><ele>357.0</ele><time>2026-03-29T08:57:01Z</time></trkpt><trkpt lat="40.71545452527816" lon="17.33274160692351"><ele>357.0</ele><time>2026-03-29T08:57:02Z</time></trkpt><trkpt lat="40.7152175931957" lon="17.332744374593716"><ele>358.0</ele><time>2026-03-29T08:57:03Z</time></trkpt><trkpt lat="40.71498682043243" lon="17.33272873900953"><ele>359.0</ele><time>2026-03-29T08:57:04Z</time></trkpt><trkpt lat="40.71477059293737" lon="17.33271803257863"><ele>360.0</ele><time>2026-03-29T08:57:05Z</time></trkpt><trkpt lat="40.7145744282142" lon="17.332722399095978"><ele>361.0</ele><time>2026-03-29T08:57:06Z</time></trkpt><trkpt lat="40.71439429179249" lon="17.332730586898702"><ele>362.0</ele><time>2026-03-29T08:57:07Z</time></trkpt><trkpt lat="40.71420056431252" lon="17.332739718345504"><ele>363.0</ele><time>2026-03-29T08:57:08Z</time></trkpt><trkpt lat="40.71397678637479" lon="17.332741888952143"><ele>363.0</ele><time>2026-03-29T08:57:09Z</time></trkpt><trkpt lat="40.71375524951656" lon="17.332751535690743"><ele>363.0</ele><time>2026-03-29T08:57:10Z</time></trkpt><trkpt lat="40.71357667030485" lon="17.332754024003922"><ele>363.0</ele><time>2026-03-29T08:57:11Z</time></trkpt><trkpt lat="40.713404700792395" lon="17.332747472753404"><ele>364.5</ele><time>2026-03-29T08:57:12Z</time></trkpt><trkpt lat="40.71325009456028" lon="17.332729822073567"><ele>366.0</ele><time>2026-03-29T08:57:13Z</time></trkpt><trkpt lat="40.71310582478609" lon="17.33274152713521"><ele>367.5</ele><time>2026-03-29T08:57:14Z</time></trkpt><trkpt lat="40.71298798359752" lon="17.33278278761559"><ele>369.0</ele><time>2026-03-29T08:57:15Z</time></trkpt><trkpt lat="40.712858155479545" lon="17.33285051375607"><ele>371.0</ele><time>2026-03-29T08:57:16Z</time></trkpt><trkpt lat="40.71272211843664" lon="17.33298650168116"><ele>373.0</ele><time>2026-03-29T08:57:17Z</time></trkpt><trkpt lat="40.712567069806994" lon="17.3331868230962"><ele>375.0</ele><time>2026-03-29T08:57:18Z</time></trkpt><trkpt lat="40.712391953061264" lon="17.33339637171224"><ele>375.0</ele><time>2026-03-29T08:57:19Z</time></trkpt><trkpt lat="40.712249429678096" lon="17.333580587217963"><ele>375.0</ele><time>2026-03-29T08:57:20.001Z</time></trkpt><trkpt lat="40.712121449926435" lon="17.333727386920632"><ele>375.0</ele><time>2026-03-29T08:57:21.001Z</time></trkpt><trkpt lat="40.71200166541782" lon="17.333875875564523"><ele>377.0</ele><time>2026-03-29T08:57:22.001Z</time></trkpt><trkpt lat="40.71181734661144" lon="17.33399304768835"><ele>379.0</ele><time>2026-03-29T08:57:23.001Z</time></trkpt><trkpt lat="40.71162039691119" lon="17.334213663676643"><ele>379.0</ele><time>2026-03-29T08:57:24.001Z</time></trkpt><trkpt lat="40.71139544187477" lon="17.334435667726506"><ele>379.0</ele><time>2026-03-29T08:57:25.001Z</time></trkpt><trkpt lat="40.711197121502416" lon="17.334683448563634"><ele>381.3333333333333</ele><time>2026-03-29T08:57:26.001Z</time></trkpt><trkpt lat="40.71102826828499" lon="17.33487130122728"><ele>383.66666666666663</ele><time>2026-03-29T08:57:27.001Z</time></trkpt><trkpt lat="40.71085385547836" lon="17.33500483874441"><ele>386.0</ele><time>2026-03-29T08:57:28.001Z</time></trkpt><trkpt lat="40.71063388637192" lon="17.335082758175233"><ele>386.0</ele><time>2026-03-29T08:57:29.001Z</time></trkpt><trkpt lat="40.71041500753053" lon="17.33511526136619"><ele>386.0</ele><time>2026-03-29T08:57:30.001Z</time></trkpt><trkpt lat="40.71027275482253" lon="17.33511700342651"><ele>386.0</ele><time>2026-03-29T08:57:31.001Z</time></trkpt><trkpt lat="40.71009017781113" lon="17.33523121007386"><ele>386.3333333333333</ele><time>2026-03-29T08:57:32.001Z</time></trkpt><trkpt lat="40.7099229967575" lon="17.33536017503848"><ele>386.66666666666663</ele><time>2026-03-29T08:57:33.001Z</time></trkpt><trkpt lat="40.70977000569753" lon="17.335462338208945"><ele>387.0</ele><time>2026-03-29T08:57:34.001Z</time></trkpt><trkpt lat="40.709650784378745" lon="17.335631792428273"><ele>387.0</ele><time>2026-03-29T08:57:35.001Z</time></trkpt><trkpt lat="40.709569254381066" lon="17.335857992455594"><ele>387.0</ele><time>2026-03-29T08:57:36.001Z</time></trkpt><trkpt lat="40.709466452428195" lon="17.336102611395308"><ele>387.0</ele><time>2026-03-29T08:57:37Z</time></trkpt><trkpt lat="40.70934397593371" lon="17.336318153308834"><ele>390.66666666666663</ele><time>2026-03-29T08:57:38Z</time></trkpt><trkpt lat="40.70922610032362" lon="17.33651824076713"><ele>394.3333333333333</ele><time>2026-03-29T08:57:39Z</time></trkpt><trkpt lat="40.70911108188357" lon="17.33677049336315"><ele>398.0</ele><time>2026-03-29T08:57:40Z</time></trkpt><trkpt lat="40.70902148994624" lon="17.337009302718872"><ele>398.0</ele><time>2026-03-29T08:57:41Z</time></trkpt><trkpt lat="40.708930471553515" lon="17.337202551591055"><ele>398.0</ele><time>2026-03-29T08:57:42Z</time></trkpt><trkpt lat="40.70883304525087" lon="17.337353286828115"><ele>398.0</ele><time>2026-03-29T08:57:43Z</time></trkpt><trkpt lat="40.708717545353196" lon="17.33749250267529"><ele>401.3333333333333</ele><time>2026-03-29T08:57:44Z</time></trkpt><trkpt lat="40.70854741826736" lon="17.337633855746436"><ele>404.66666666666663</ele><time>2026-03-29T08:57:45Z</time></trkpt><trkpt lat="40.708366328539405" lon="17.33779744956355"><ele>408.0</ele><time>2026-03-29T08:57:46Z</time></trkpt><trkpt lat="40.70818143471193" lon="17.337960602763573"><ele>409.33333333333337</ele><time>2026-03-29T08:57:47Z</time></trkpt><trkpt lat="40.708018717863474" lon="17.338116272084232"><ele>410.6666666666667</ele><time>2026-03-29T08:57:48Z</time></trkpt><trkpt lat="40.70784992027681" lon="17.338250344285317"><ele>412.0</ele><time>2026-03-29T08:57:49Z</time></trkpt><trkpt lat="40.707711912346035" lon="17.338398029471442"><ele>412.0</ele><time>2026-03-29T08:57:50Z</time></trkpt><trkpt lat="40.707551482445396" lon="17.33851657889727"><ele>412.0</ele><time>2026-03-29T08:57:51Z</time></trkpt><trkpt lat="40.70742206007459" lon="17.338609496123702"><ele>412.0</ele><time>2026-03-29T08:57:52Z</time></trkpt><trkpt lat="40.70731248308411" lon="17.33868692793243"><ele>412.00000000000006</ele><time>2026-03-29T08:57:53Z</time></trkpt><trkpt lat="40.70721290139722" lon="17.338746784865727"><ele>412.0</ele><time>2026-03-29T08:57:54Z</time></trkpt><trkpt lat="40.707127728057436" lon="17.33879879664684"><ele>412.0</ele><time>2026-03-29T08:57:55Z</time></trkpt><trkpt lat="40.70704837495481" lon="17.338807050270347"><ele>412.0</ele><time>2026-03-29T08:57:56Z</time></trkpt><trkpt lat="40.706973906879675" lon="17.338824142865477"><ele>412.00000000000006</ele><time>2026-03-29T08:57:57Z</time></trkpt><trkpt lat="40.70690849743513" lon="17.33886623396307"><ele>412.0</ele><time>2026-03-29T08:57:58Z</time></trkpt><trkpt lat="40.70685372465616" lon="17.3389748949745"><ele>414.0</ele><time>2026-03-29T08:58:00Z</time></trkpt><trkpt lat="40.70678872344883" lon="17.339030770062436"><ele>416.0</ele><time>2026-03-29T08:58:02Z</time></trkpt><trkpt lat="40.7067286671564" lon="17.339112662755532"><ele>418.0</ele><time>2026-03-29T08:58:07Z</time></trkpt><trkpt lat="40.706620662209076" lon="17.339236009326086"><ele>420.0</ele><time>2026-03-29T08:58:09Z</time></trkpt><trkpt lat="40.70654605503435" lon="17.339316708495737"><ele>422.0</ele><time>2026-03-29T08:58:10Z</time></trkpt><trkpt lat="40.706445482044494" lon="17.339397247082886"><ele>422.0</ele><time>2026-03-29T08:58:11Z</time></trkpt><trkpt lat="40.70636726403538" lon="17.33954764496224"><ele>422.0</ele><time>2026-03-29T08:58:12Z</time></trkpt><trkpt lat="40.70628290667075" lon="17.33968554535134"><ele>422.0</ele><time>2026-03-29T08:58:13Z</time></trkpt><trkpt lat="40.70621496772347" lon="17.339840845562883"><ele>422.0</ele><time>2026-03-29T08:58:14Z</time></trkpt><trkpt lat="40.70618973827466" lon="17.339998797444817"><ele>420.5</ele><time>2026-03-29T08:58:15Z</time></trkpt><trkpt lat="40.70613981150063" lon="17.340124020892674"><ele>419.0</ele><time>2026-03-29T08:58:16Z</time></trkpt><trkpt lat="40.706068741361655" lon="17.340222449787515"><ele>417.5</ele><time>2026-03-29T08:58:17Z</time></trkpt><trkpt lat="40.70596910891659" lon="17.340299065629928"><ele>416.0</ele><time>2026-03-29T08:58:18Z</time></trkpt><trkpt lat="40.705810945409894" lon="17.340326118323915"><ele>419.0</ele><time>2026-03-29T08:58:19Z</time></trkpt><trkpt lat="40.70567704222251" lon="17.340363247565243"><ele>422.0</ele><time>2026-03-29T08:58:20Z</time></trkpt><trkpt lat="40.70553159020247" lon="17.34036256522417"><ele>425.0</ele><time>2026-03-29T08:58:21Z</time></trkpt><trkpt lat="40.705368467003794" lon="17.340374512577014"><ele>428.0</ele><time>2026-03-29T08:58:22Z</time></trkpt><trkpt lat="40.705252260230914" lon="17.340381679255994"><ele>428.49999999999994</ele><time>2026-03-29T08:58:23Z</time></trkpt><trkpt lat="40.70514049716199" lon="17.34038857189111"><ele>429.0</ele><time>2026-03-29T08:58:24Z</time></trkpt><trkpt lat="40.70506943707835" lon="17.340387834040005"><ele>429.5</ele><time>2026-03-29T08:58:25Z</time></trkpt><trkpt lat="40.70498697470112" lon="17.340388940090197"><ele>430.0</ele><time>2026-03-29T08:58:26Z</time></trkpt><trkpt lat="40.70491695703965" lon="17.34038987922618"><ele>430.49999999999994</ele><time>2026-03-29T08:58:28Z</time></trkpt><trkpt lat="40.704848829514944" lon="17.340391929840187"><ele>431.0</ele><time>2026-03-29T08:58:29Z</time></trkpt><trkpt lat="40.70477203616153" lon="17.340399270919793"><ele>430.99999999999994</ele><time>2026-03-29T08:58:30Z</time></trkpt><trkpt lat="40.704676982222445" lon="17.340380834654727"><ele>431.0</ele><time>2026-03-29T08:58:31Z</time></trkpt><trkpt lat="40.704605721678256" lon="17.34036963833802"><ele>431.0</ele><time>2026-03-29T08:58:32Z</time></trkpt><trkpt lat="40.70450471573072" lon="17.340363081636976"><ele>431.0</ele><time>2026-03-29T08:58:34Z</time></trkpt><trkpt lat="40.70444243102983" lon="17.340333979424503"><ele>430.99999999999994</ele><time>2026-03-29T08:58:36Z</time></trkpt><trkpt lat="40.704346125958594" lon="17.340274648979307"><ele>431.0</ele><time>2026-03-29T08:58:38Z</time></trkpt><trkpt lat="40.70426915508794" lon="17.340179698770733"><ele>431.3333333333333</ele><time>2026-03-29T08:58:40Z</time></trkpt><trkpt lat="40.70418700345131" lon="17.34011653292538"><ele>431.66666666666663</ele><time>2026-03-29T08:58:42Z</time></trkpt><trkpt lat="40.70413333108018" lon="17.340057607611136"><ele>432.0</ele><time>2026-03-29T08:58:43Z</time></trkpt><trkpt lat="40.70406867898077" lon="17.339995557277636"><ele>432.33333333333337</ele><time>2026-03-29T08:58:44Z</time></trkpt><trkpt lat="40.703978764045125" lon="17.33992603267299"><ele>432.6666666666667</ele><time>2026-03-29T08:58:46Z</time></trkpt><trkpt lat="40.70390552554131" lon="17.339917231907233"><ele>433.0</ele><time>2026-03-29T08:58:47Z</time></trkpt><trkpt lat="40.703802500017616" lon="17.33985344964471"><ele>433.00000000000006</ele><time>2026-03-29T08:58:48Z</time></trkpt><trkpt lat="40.70373017965339" lon="17.33982215338185"><ele>433.0</ele><time>2026-03-29T08:58:49Z</time></trkpt><trkpt lat="40.70365114090252" lon="17.339798074316942"><ele>433.0</ele><time>2026-03-29T08:58:50Z</time></trkpt><trkpt lat="40.703572269020576" lon="17.339751134086132"><ele>433.0</ele><time>2026-03-29T08:58:51Z</time></trkpt><trkpt lat="40.70347946568991" lon="17.33970237715339"><ele>433.00000000000006</ele><time>2026-03-29T08:58:52Z</time></trkpt><trkpt lat="40.70339123587881" lon="17.33967693114381"><ele>433.0</ele><time>2026-03-29T08:58:53Z</time></trkpt><trkpt lat="40.70327118766689" lon="17.339611681523596"><ele>432.1666666666667</ele><time>2026-03-29T08:58:55Z</time></trkpt><trkpt lat="40.70318834670917" lon="17.339593181722094"><ele>431.33333333333337</ele><time>2026-03-29T08:58:56Z</time></trkpt><trkpt lat="40.70307354329503" lon="17.339560179935457"><ele>430.5</ele><time>2026-03-29T08:58:58Z</time></trkpt><trkpt lat="40.703019032821906" lon="17.339507429403007"><ele>429.66666666666663</ele><time>2026-03-29T08:58:59.999Z</time></trkpt><trkpt lat="40.70294978672952" lon="17.339486548199815"><ele>428.8333333333333</ele><time>2026-03-29T08:59:14.999Z</time></trkpt><trkpt lat="40.70287306280952" lon="17.33945608772331"><ele>428.0</ele><time>2026-03-29T08:59:16.999Z</time></trkpt><trkpt lat="40.702801007141076" lon="17.339433642471338"><ele>426.75</ele><time>2026-03-29T08:59:17.999Z</time></trkpt><trkpt lat="40.70272785150015" lon="17.33938574929102"><ele>425.5</ele><time>2026-03-29T08:59:18.999Z</time></trkpt><trkpt lat="40.70262830267207" lon="17.339336093469797"><ele>424.25</ele><time>2026-03-29T08:59:19.999Z</time></trkpt><trkpt lat="40.7025010391219" lon="17.339284801462505"><ele>423.0</ele><time>2026-03-29T08:59:20.999Z</time></trkpt><trkpt lat="40.70237013793798" lon="17.339216981888903"><ele>423.0</ele><time>2026-03-29T08:59:21.999Z</time></trkpt><trkpt lat="40.70224586774658" lon="17.33915682986444"><ele>423.0</ele><time>2026-03-29T08:59:22.999Z</time></trkpt><trkpt lat="40.70214663810097" lon="17.339128552256796"><ele>423.0</ele><time>2026-03-29T08:59:23.999Z</time></trkpt><trkpt lat="40.70202649268409" lon="17.339086468687885"><ele>423.0</ele><time>2026-03-29T08:59:24.999Z</time></trkpt><trkpt lat="40.701906078464255" lon="17.33904369179886"><ele>423.0</ele><time>2026-03-29T08:59:26Z</time></trkpt><trkpt lat="40.7017971301394" lon="17.338996910615894"><ele>423.0</ele><time>2026-03-29T08:59:27Z</time></trkpt><trkpt lat="40.701705380030646" lon="17.338963240833085"><ele>423.0</ele><time>2026-03-29T08:59:28Z</time></trkpt><trkpt lat="40.70161256596808" lon="17.33891561193027"><ele>423.0</ele><time>2026-03-29T08:59:29Z</time></trkpt><trkpt lat="40.70153227634164" lon="17.338889286482882"><ele>423.0</ele><time>2026-03-29T08:59:30Z</time></trkpt><trkpt lat="40.7014497545139" lon="17.33886118596679"><ele>423.0</ele><time>2026-03-29T08:59:31Z</time></trkpt><trkpt lat="40.70138819745031" lon="17.338826142737176"><ele>423.0</ele><time>2026-03-29T08:59:32Z</time></trkpt><trkpt lat="40.701283090906934" lon="17.338781277018587"><ele>423.0</ele><time>2026-03-29T08:59:34Z</time></trkpt><trkpt lat="40.7011716511922" lon="17.338733847437304"><ele>423.0</ele><time>2026-03-29T08:59:36Z</time></trkpt><trkpt lat="40.70109458056606" lon="17.338701081619405"><ele>423.0</ele><time>2026-03-29T08:59:38Z</time></trkpt><trkpt lat="40.70105479532944" lon="17.338777395568943"><ele>423.0</ele><time>2026-03-29T08:59:39Z</time></trkpt><trkpt lat="40.70095833434308" lon="17.33875070336224"><ele>423.0</ele><time>2026-03-29T08:59:44Z</time></trkpt><trkpt lat="40.700870610457265" lon="17.338722579988943"><ele>423.0</ele><time>2026-03-29T08:59:46Z</time></trkpt><trkpt lat="40.700824965488856" lon="17.338586075164187"><ele>423.0</ele><time>2026-03-29T08:59:47Z</time></trkpt><trkpt lat="40.70075181273289" lon="17.338558147553247"><ele>423.0</ele><time>2026-03-29T08:59:48Z</time></trkpt><trkpt lat="40.70068871886331" lon="17.338532870550793"><ele>423.0</ele><time>2026-03-29T08:59:49Z</time></trkpt><trkpt lat="40.700618655542826" lon="17.338504801399537"><ele>423.0</ele><time>2026-03-29T08:59:50Z</time></trkpt><trkpt lat="40.70053856931416" lon="17.338470927313786"><ele>423.0</ele><time>2026-03-29T08:59:51Z</time></trkpt><trkpt lat="40.7004263042297" lon="17.33842772173273"><ele>423.0</ele><time>2026-03-29T08:59:52Z</time></trkpt><trkpt lat="40.70023874734059" lon="17.338351084514002"><ele>423.0</ele><time>2026-03-29T08:59:53Z</time></trkpt><trkpt lat="40.70006708133064" lon="17.33828566610553"><ele>424.5</ele><time>2026-03-29T08:59:54Z</time></trkpt><trkpt lat="40.699943932394284" lon="17.33823824229187"><ele>426.0</ele><time>2026-03-29T08:59:55Z</time></trkpt><trkpt lat="40.69982365312901" lon="17.338191923361794"><ele>427.5</ele><time>2026-03-29T08:59:56Z</time></trkpt><trkpt lat="40.69969095301774" lon="17.338140912706955"><ele>429.0</ele><time>2026-03-29T08:59:57Z</time></trkpt><trkpt lat="40.699552398511614" lon="17.33808762228681"><ele>428.5</ele><time>2026-03-29T08:59:58Z</time></trkpt><trkpt lat="40.69941398809863" lon="17.338030482817366"><ele>428.0</ele><time>2026-03-29T08:59:59Z</time></trkpt><trkpt lat="40.69926470685703" lon="17.33797003095511"><ele>427.5</ele><time>2026-03-29T09:00:00Z</time></trkpt><trkpt lat="40.69914491741173" lon="17.337921524601878"><ele>427.0</ele><time>2026-03-29T09:00:01Z</time></trkpt><trkpt lat="40.69901911157193" lon="17.337871046442142"><ele>427.0</ele><time>2026-03-29T09:00:02Z</time></trkpt><trkpt lat="40.69889993792311" lon="17.337823203843804"><ele>427.0</ele><time>2026-03-29T09:00:03Z</time></trkpt><trkpt lat="40.698782670672415" lon="17.337776326704702"><ele>427.0</ele><time>2026-03-29T09:00:04Z</time></trkpt><trkpt lat="40.69865758654499" lon="17.337724364831203"><ele>427.0</ele><time>2026-03-29T09:00:05Z</time></trkpt><trkpt lat="40.69854542913339" lon="17.33767799699809"><ele>426.1666666666667</ele><time>2026-03-29T09:00:06Z</time></trkpt><trkpt lat="40.698446736992054" lon="17.337637195807257"><ele>425.33333333333337</ele><time>2026-03-29T09:00:07Z</time></trkpt><trkpt lat="40.698372360770755" lon="17.337606238667835"><ele>424.5</ele><time>2026-03-29T09:00:08Z</time></trkpt><trkpt lat="40.69828534549096" lon="17.33757005094779"><ele>423.66666666666663</ele><time>2026-03-29T09:00:09Z</time></trkpt><trkpt lat="40.69821733988972" lon="17.337542854083303"><ele>422.8333333333333</ele><time>2026-03-29T09:00:10Z</time></trkpt><trkpt lat="40.69813332395196" lon="17.337509753168852"><ele>422.0</ele><time>2026-03-29T09:00:12Z</time></trkpt><trkpt lat="40.69809015270255" lon="17.337424855166983"><ele>422.0</ele><time>2026-03-29T09:01:04.999Z</time></trkpt><trkpt lat="40.69799024893083" lon="17.337423248738155"><ele>422.0</ele><time>2026-03-29T09:01:06.999Z</time></trkpt><trkpt lat="40.697925403407865" lon="17.337445615412427"><ele>422.0</ele><time>2026-03-29T09:01:07.999Z</time></trkpt><trkpt lat="40.69787608975335" lon="17.337620059914883"><ele>422.0</ele><time>2026-03-29T09:01:09.999Z</time></trkpt><trkpt lat="40.69786689279972" lon="17.3377232049211"><ele>422.0</ele><time>2026-03-29T09:01:10.999Z</time></trkpt><trkpt lat="40.697838108042895" lon="17.337851749995416"><ele>422.0</ele><time>2026-03-29T09:01:11.999Z</time></trkpt><trkpt lat="40.697789384514074" lon="17.33800321910388"><ele>422.0</ele><time>2026-03-29T09:01:12.999Z</time></trkpt><trkpt lat="40.6977241927468" lon="17.338137769173606"><ele>422.0</ele><time>2026-03-29T09:01:13.999Z</time></trkpt><trkpt lat="40.69764712789298" lon="17.338267713769127"><ele>422.0</ele><time>2026-03-29T09:01:14.999Z</time></trkpt><trkpt lat="40.6975597585368" lon="17.33841969673339"><ele>421.25</ele><time>2026-03-29T09:01:15.999Z</time></trkpt><trkpt lat="40.6974815521785" lon="17.338564068035325"><ele>420.5</ele><time>2026-03-29T09:01:16.999Z</time></trkpt><trkpt lat="40.697414443522334" lon="17.338686572117872"><ele>419.75</ele><time>2026-03-29T09:01:17.999Z</time></trkpt><trkpt lat="40.697345406156664" lon="17.338814461551728"><ele>419.0</ele><time>2026-03-29T09:01:18.999Z</time></trkpt><trkpt lat="40.69727453856502" lon="17.33895154417547"><ele>419.0</ele><time>2026-03-29T09:01:19.999Z</time></trkpt><trkpt lat="40.69720242259466" lon="17.339106192024634"><ele>419.0</ele><time>2026-03-29T09:01:20.999Z</time></trkpt><trkpt lat="40.69714676592444" lon="17.33926105050104"><ele>419.0</ele><time>2026-03-29T09:01:21.999Z</time></trkpt><trkpt lat="40.69710942879791" lon="17.33938492202068"><ele>419.0</ele><time>2026-03-29T09:01:22.999Z</time></trkpt><trkpt lat="40.69707749025983" lon="17.339500334573454"><ele>419.0</ele><time>2026-03-29T09:01:23.999Z</time></trkpt><trkpt lat="40.697068222913394" lon="17.339656190455983"><ele>419.0</ele><time>2026-03-29T09:01:24.999Z</time></trkpt><trkpt lat="40.69703668095255" lon="17.339795297987827"><ele>419.0</ele><time>2026-03-29T09:01:25.999Z</time></trkpt><trkpt lat="40.697010598334344" lon="17.33990045317688"><ele>419.0</ele><time>2026-03-29T09:01:26.999Z</time></trkpt><trkpt lat="40.69694372179929" lon="17.34002403592094"><ele>419.0</ele><time>2026-03-29T09:01:28.999Z</time></trkpt><trkpt lat="40.69692474958372" lon="17.340123965517673"><ele>419.16666666666663</ele><time>2026-03-29T09:01:30.999Z</time></trkpt><trkpt lat="40.696886552572266" lon="17.340210318378183"><ele>419.3333333333333</ele><time>2026-03-29T09:01:33Z</time></trkpt><trkpt lat="40.69687101679645" lon="17.340348449689866"><ele>419.5</ele><time>2026-03-29T09:01:35Z</time></trkpt><trkpt lat="40.69694272938834" lon="17.34044587755488"><ele>419.66666666666663</ele><time>2026-03-29T09:01:37Z</time></trkpt><trkpt lat="40.69702185643713" lon="17.34046617815716"><ele>419.8333333333333</ele><time>2026-03-29T09:01:38Z</time></trkpt><trkpt lat="40.697096722903424" lon="17.340450491257933"><ele>420.0</ele><time>2026-03-29T09:01:39Z</time></trkpt><trkpt lat="40.69722043776375" lon="17.34050604781611"><ele>420.1666666666667</ele><time>2026-03-29T09:01:41Z</time></trkpt><trkpt lat="40.697290346068776" lon="17.340537415073907"><ele>420.33333333333337</ele><time>2026-03-29T09:01:42Z</time></trkpt><trkpt lat="40.69734538541094" lon="17.340579203581974"><ele>420.5</ele><time>2026-03-29T09:01:43Z</time></trkpt><trkpt lat="40.69740879990079" lon="17.340655223977862"><ele>420.6666666666667</ele><time>2026-03-29T09:01:44Z</time></trkpt><trkpt lat="40.6974685170352" lon="17.340708218126927"><ele>420.83333333333337</ele><time>2026-03-29T09:01:45Z</time></trkpt><trkpt lat="40.69753808816134" lon="17.34077071719007"><ele>421.0</ele><time>2026-03-29T09:01:46Z</time></trkpt><trkpt lat="40.69762388262775" lon="17.340852376807813"><ele>421.0</ele><time>2026-03-29T09:01:47Z</time></trkpt><trkpt lat="40.69771685221453" lon="17.340940776798664"><ele>421.0</ele><time>2026-03-29T09:01:48Z</time></trkpt><trkpt lat="40.69781444197302" lon="17.34104563257313"><ele>421.0</ele><time>2026-03-29T09:01:49Z</time></trkpt><trkpt lat="40.69793980977618" lon="17.3411774052633"><ele>421.0</ele><time>2026-03-29T09:01:50Z</time></trkpt><trkpt lat="40.698052277173296" lon="17.341312398992002"><ele>420.0</ele><time>2026-03-29T09:01:51Z</time></trkpt><trkpt lat="40.69816260337845" lon="17.341435423290704"><ele>419.0</ele><time>2026-03-29T09:01:52Z</time></trkpt><trkpt lat="40.69825910759346" lon="17.341552633041232"><ele>418.0</ele><time>2026-03-29T09:01:53Z</time></trkpt><trkpt lat="40.69833299451486" lon="17.341673276453623"><ele>417.0</ele><time>2026-03-29T09:01:54Z</time></trkpt><trkpt lat="40.69839446588601" lon="17.341778835029473"><ele>417.0</ele><time>2026-03-29T09:01:55Z</time></trkpt><trkpt lat="40.69843487913624" lon="17.341863146161984"><ele>417.0</ele><time>2026-03-29T09:01:56Z</time></trkpt><trkpt lat="40.69846781846389" lon="17.341953412089826"><ele>417.0</ele><time>2026-03-29T09:01:57Z</time></trkpt><trkpt lat="40.698454298446585" lon="17.34210846533195"><ele>417.0</ele><time>2026-03-29T09:01:59Z</time></trkpt><trkpt lat="40.69841843979273" lon="17.342191762091854"><ele>417.0</ele><time>2026-03-29T09:02:00Z</time></trkpt><trkpt lat="40.69837286368337" lon="17.342256502080808"><ele>417.0</ele><time>2026-03-29T09:02:01Z</time></trkpt><trkpt lat="40.69828583294906" lon="17.342322824042448"><ele>418.0</ele><time>2026-03-29T09:02:02Z</time></trkpt><trkpt lat="40.69816307987826" lon="17.342394402748294"><ele>419.0</ele><time>2026-03-29T09:02:03Z</time></trkpt><trkpt lat="40.698025702245694" lon="17.34250295920786"><ele>420.0</ele><time>2026-03-29T09:02:04Z</time></trkpt><trkpt lat="40.697895106738144" lon="17.3426309720126"><ele>420.0</ele><time>2026-03-29T09:02:05Z</time></trkpt><trkpt lat="40.697784816517405" lon="17.342742625101952"><ele>420.0</ele><time>2026-03-29T09:02:06Z</time></trkpt><trkpt lat="40.697699825059736" lon="17.342836732882304"><ele>420.0</ele><time>2026-03-29T09:02:07Z</time></trkpt><trkpt lat="40.69761976719084" lon="17.34291666114672"><ele>420.0</ele><time>2026-03-29T09:02:08Z</time></trkpt><trkpt lat="40.69753856556576" lon="17.343004437337182"><ele>420.6</ele><time>2026-03-29T09:02:10Z</time></trkpt><trkpt lat="40.69746707282224" lon="17.34303881355889"><ele>421.2</ele><time>2026-03-29T09:02:11Z</time></trkpt><trkpt lat="40.69735358011549" lon="17.343123403566917"><ele>421.79999999999995</ele><time>2026-03-29T09:02:13Z</time></trkpt><trkpt lat="40.697271456603964" lon="17.34319839407951"><ele>422.4</ele><time>2026-03-29T09:02:14Z</time></trkpt><trkpt lat="40.69719346560558" lon="17.34328133263625"><ele>423.0</ele><time>2026-03-29T09:02:15Z</time></trkpt><trkpt lat="40.697113407437975" lon="17.34324710692385"><ele>423.4</ele><time>2026-03-29T09:02:16Z</time></trkpt><trkpt lat="40.69701233296837" lon="17.343270678943103"><ele>423.79999999999995</ele><time>2026-03-29T09:02:17Z</time></trkpt><trkpt lat="40.69690564874306" lon="17.343296324449042"><ele>424.2</ele><time>2026-03-29T09:02:18Z</time></trkpt><trkpt lat="40.696815047957244" lon="17.34332058672418"><ele>424.6</ele><time>2026-03-29T09:02:19Z</time></trkpt><trkpt lat="40.696710088108645" lon="17.343350417725116"><ele>425.0</ele><time>2026-03-29T09:02:20Z</time></trkpt><trkpt lat="40.69659645817641" lon="17.343389864666943"><ele>425.6</ele><time>2026-03-29T09:02:21Z</time></trkpt><trkpt lat="40.696498315259205" lon="17.3434872859108"><ele>426.2</ele><time>2026-03-29T09:02:22Z</time></trkpt><trkpt lat="40.69640728528279" lon="17.343591058101126"><ele>426.79999999999995</ele><time>2026-03-29T09:02:23Z</time></trkpt><trkpt lat="40.69633760930803" lon="17.34369371337124"><ele>427.4</ele><time>2026-03-29T09:02:24Z</time></trkpt><trkpt lat="40.69628799049431" lon="17.343801300163115"><ele>428.0</ele><time>2026-03-29T09:02:25Z</time></trkpt><trkpt lat="40.69627496269486" lon="17.34392486177289"><ele>428.0</ele><time>2026-03-29T09:02:26Z</time></trkpt><trkpt lat="40.6962865721243" lon="17.344056019249475"><ele>427.99999999999994</ele><time>2026-03-29T09:02:27Z</time></trkpt><trkpt lat="40.69627452704618" lon="17.344174528018712"><ele>427.99999999999994</ele><time>2026-03-29T09:02:28Z</time></trkpt><trkpt lat="40.69626940615383" lon="17.344278780720703"><ele>428.0</ele><time>2026-03-29T09:02:29Z</time></trkpt><trkpt lat="40.696268559949814" lon="17.344416619918515"><ele>428.0</ele><time>2026-03-29T09:02:30Z</time></trkpt><trkpt lat="40.69626590175845" lon="17.344576455805683"><ele>429.25</ele><time>2026-03-29T09:02:31Z</time></trkpt><trkpt lat="40.69626118986988" lon="17.344778451152685"><ele>430.5</ele><time>2026-03-29T09:02:32Z</time></trkpt><trkpt lat="40.6962348112698" lon="17.344957906844048"><ele>431.75</ele><time>2026-03-29T09:02:33Z</time></trkpt><trkpt lat="40.69619387983779" lon="17.345129223661836"><ele>433.0</ele><time>2026-03-29T09:02:34Z</time></trkpt><trkpt lat="40.69614109177713" lon="17.345319536250756"><ele>433.0</ele><time>2026-03-29T09:02:35Z</time></trkpt><trkpt lat="40.69608512728403" lon="17.345506118114677"><ele>433.0</ele><time>2026-03-29T09:02:36Z</time></trkpt><trkpt lat="40.69602241377062" lon="17.345669374339028"><ele>433.0</ele><time>2026-03-29T09:02:37Z</time></trkpt><trkpt lat="40.6959470274964" lon="17.345841311919894"><ele>433.0</ele><time>2026-03-29T09:02:38Z</time></trkpt><trkpt lat="40.695859507536674" lon="17.3460153010992"><ele>433.5</ele><time>2026-03-29T09:02:39Z</time></trkpt><trkpt lat="40.69579059529028" lon="17.346179890894327"><ele>434.0</ele><time>2026-03-29T09:02:40Z</time></trkpt><trkpt lat="40.69569491110895" lon="17.346320292463712"><ele>434.5</ele><time>2026-03-29T09:02:41Z</time></trkpt><trkpt lat="40.69558498606616" lon="17.34642519565843"><ele>435.0</ele><time>2026-03-29T09:02:42Z</time></trkpt><trkpt lat="40.69548638238468" lon="17.346530564874364"><ele>435.25</ele><time>2026-03-29T09:02:43Z</time></trkpt><trkpt lat="40.69538695462487" lon="17.346701967559337"><ele>435.5</ele><time>2026-03-29T09:02:44Z</time></trkpt><trkpt lat="40.695285886208694" lon="17.346839890893285"><ele>435.75</ele><time>2026-03-29T09:02:44.999Z</time></trkpt><trkpt lat="40.695185742752265" lon="17.346935140039292"><ele>436.0</ele><time>2026-03-29T09:02:45.999Z</time></trkpt><trkpt lat="40.6950672142186" lon="17.347024243188542"><ele>436.0</ele><time>2026-03-29T09:02:46.999Z</time></trkpt><trkpt lat="40.69490047774888" lon="17.34699491783531"><ele>436.0</ele><time>2026-03-29T09:02:47.999Z</time></trkpt><trkpt lat="40.694717481836044" lon="17.347041512025154"><ele>436.0</ele><time>2026-03-29T09:02:48.999Z</time></trkpt><trkpt lat="40.69452263273546" lon="17.347130189377374"><ele>436.0</ele><time>2026-03-29T09:02:49.999Z</time></trkpt><trkpt lat="40.69435275409065" lon="17.34725765968323"><ele>436.0</ele><time>2026-03-29T09:02:50.999Z</time></trkpt><trkpt lat="40.694163156686365" lon="17.347463320146712"><ele>436.0</ele><time>2026-03-29T09:02:51.999Z</time></trkpt><trkpt lat="40.693983222005194" lon="17.347628580590246"><ele>436.0</ele><time>2026-03-29T09:02:52.999Z</time></trkpt><trkpt lat="40.69378817098789" lon="17.34781318954375"><ele>436.0</ele><time>2026-03-29T09:02:53.999Z</time></trkpt><trkpt lat="40.693591334994395" lon="17.347985826939745"><ele>436.0</ele><time>2026-03-29T09:02:54.999Z</time></trkpt><trkpt lat="40.693378875462955" lon="17.348138687985358"><ele>436.0</ele><time>2026-03-29T09:02:55.999Z</time></trkpt><trkpt lat="40.69323009264642" lon="17.348308465090707"><ele>436.0</ele><time>2026-03-29T09:02:56.999Z</time></trkpt><trkpt lat="40.6930688488862" lon="17.348459604401995"><ele>436.0</ele><time>2026-03-29T09:02:57.999Z</time></trkpt><trkpt lat="40.692907327728754" lon="17.34860153826826"><ele>436.0</ele><time>2026-03-29T09:02:58.999Z</time></trkpt><trkpt lat="40.69274096083572" lon="17.348748473650925"><ele>436.0</ele><time>2026-03-29T09:02:59.999Z</time></trkpt><trkpt lat="40.692573372991895" lon="17.348885276988014"><ele>437.0</ele><time>2026-03-29T09:03:00.999Z</time></trkpt><trkpt lat="40.69241117811071" lon="17.348932647841355"><ele>438.0</ele><time>2026-03-29T09:03:01.999Z</time></trkpt><trkpt lat="40.692251498471734" lon="17.34896986411884"><ele>439.0</ele><time>2026-03-29T09:03:02.999Z</time></trkpt><trkpt lat="40.692070781752754" lon="17.34902952608107"><ele>437.33333333333337</ele><time>2026-03-29T09:03:03.999Z</time></trkpt><trkpt lat="40.691860884355165" lon="17.349076083167116"><ele>435.66666666666663</ele><time>2026-03-29T09:03:04.999Z</time></trkpt><trkpt lat="40.691642131936064" lon="17.349139421977032"><ele>434.0</ele><time>2026-03-29T09:03:05.999Z</time></trkpt><trkpt lat="40.69142075474844" lon="17.349209890090226"><ele>434.0</ele><time>2026-03-29T09:03:06.999Z</time></trkpt><trkpt lat="40.69118748977057" lon="17.349273028478713"><ele>434.0</ele><time>2026-03-29T09:03:07.999Z</time></trkpt><trkpt lat="40.69095484103475" lon="17.3493462305283"><ele>433.5</ele><time>2026-03-29T09:03:08.999Z</time></trkpt><trkpt lat="40.690698017805154" lon="17.349447874253205"><ele>433.0</ele><time>2026-03-29T09:03:09.999Z</time></trkpt><trkpt lat="40.69042926537195" lon="17.349575126853455"><ele>432.0</ele><time>2026-03-29T09:03:10.999Z</time></trkpt><trkpt lat="40.69015734607751" lon="17.34968189981653"><ele>431.0</ele><time>2026-03-29T09:03:11.999Z</time></trkpt><trkpt lat="40.68990400293258" lon="17.349786702890956"><ele>430.66666666666663</ele><time>2026-03-29T09:03:12.999Z</time></trkpt><trkpt lat="40.6896727122102" lon="17.34985061828017"><ele>430.33333333333337</ele><time>2026-03-29T09:03:13.999Z</time></trkpt><trkpt lat="40.689475189898545" lon="17.349945452249994"><ele>430.0</ele><time>2026-03-29T09:03:14.999Z</time></trkpt><trkpt lat="40.68931635800967" lon="17.35002957777978"><ele>429.0</ele><time>2026-03-29T09:03:15.999Z</time></trkpt><trkpt lat="40.6891742785969" lon="17.35014942957589"><ele>428.0</ele><time>2026-03-29T09:03:16.999Z</time></trkpt><trkpt lat="40.689038746917426" lon="17.350345561311208"><ele>427.0</ele><time>2026-03-29T09:03:17.999Z</time></trkpt><trkpt lat="40.68894000772686" lon="17.350584241730743"><ele>426.33333333333337</ele><time>2026-03-29T09:03:18.999Z</time></trkpt><trkpt lat="40.688831458137194" lon="17.35077471958587"><ele>425.66666666666663</ele><time>2026-03-29T09:03:19.999Z</time></trkpt><trkpt lat="40.68873389521515" lon="17.35094069574524"><ele>425.0</ele><time>2026-03-29T09:03:20.999Z</time></trkpt><trkpt lat="40.688614440514755" lon="17.35103752540848"><ele>424.0</ele><time>2026-03-29T09:03:21.999Z</time></trkpt><trkpt lat="40.68848444615533" lon="17.351119160103163"><ele>423.0</ele><time>2026-03-29T09:03:22.999Z</time></trkpt><trkpt lat="40.688314859911365" lon="17.351112895625775"><ele>422.0</ele><time>2026-03-29T09:03:23.999Z</time></trkpt><trkpt lat="40.68812888854122" lon="17.35109169940556"><ele>422.0</ele><time>2026-03-29T09:03:24.999Z</time></trkpt><trkpt lat="40.687940330743956" lon="17.351030006733083"><ele>422.0</ele><time>2026-03-29T09:03:25.999Z</time></trkpt><trkpt lat="40.68772443449086" lon="17.350937799680764"><ele>422.0</ele><time>2026-03-29T09:03:26.999Z</time></trkpt><trkpt lat="40.68745841392218" lon="17.350816382234235"><ele>418.5</ele><time>2026-03-29T09:03:27.999Z</time></trkpt><trkpt lat="40.68718183255694" lon="17.35072335832792"><ele>415.0</ele><time>2026-03-29T09:03:28.999Z</time></trkpt><trkpt lat="40.68689447086483" lon="17.3506110151328"><ele>412.5</ele><time>2026-03-29T09:03:29.999Z</time></trkpt><trkpt lat="40.686602282700775" lon="17.350498291659882"><ele>410.0</ele><time>2026-03-29T09:03:30.999Z</time></trkpt><trkpt lat="40.686345714991205" lon="17.35035739721573"><ele>410.0</ele><time>2026-03-29T09:03:31.999Z</time></trkpt><trkpt lat="40.68615867112566" lon="17.350319302033522"><ele>410.0</ele><time>2026-03-29T09:03:32.999Z</time></trkpt><trkpt lat="40.685993568825836" lon="17.350355932044454"><ele>410.0</ele><time>2026-03-29T09:03:33.999Z</time></trkpt><trkpt lat="40.685828587516056" lon="17.350442112389477"><ele>408.66666666666663</ele><time>2026-03-29T09:03:34.999Z</time></trkpt><trkpt lat="40.685657562433825" lon="17.350567995699382"><ele>407.33333333333337</ele><time>2026-03-29T09:03:35.999Z</time></trkpt><trkpt lat="40.685489156798816" lon="17.350727235346497"><ele>406.0</ele><time>2026-03-29T09:03:36.999Z</time></trkpt><trkpt lat="40.68533969845904" lon="17.350937948185546"><ele>404.6666666666667</ele><time>2026-03-29T09:03:38Z</time></trkpt><trkpt lat="40.685160187092556" lon="17.351057117430564"><ele>403.33333333333337</ele><time>2026-03-29T09:03:39Z</time></trkpt><trkpt lat="40.68499583776304" lon="17.351214263039843"><ele>402.0</ele><time>2026-03-29T09:03:40Z</time></trkpt><trkpt lat="40.6848138733047" lon="17.351313434546988"><ele>402.0</ele><time>2026-03-29T09:03:41Z</time></trkpt><trkpt lat="40.6845876986636" lon="17.351364215429324"><ele>402.0</ele><time>2026-03-29T09:03:42Z</time></trkpt><trkpt lat="40.6843721421968" lon="17.35140786995606"><ele>402.0</ele><time>2026-03-29T09:03:43Z</time></trkpt><trkpt lat="40.684144037875804" lon="17.351458437626707"><ele>405.5</ele><time>2026-03-29T09:03:44Z</time></trkpt><trkpt lat="40.68390963128578" lon="17.351514861985123"><ele>409.0</ele><time>2026-03-29T09:03:45Z</time></trkpt><trkpt lat="40.6836800358369" lon="17.351597731982896"><ele>410.0</ele><time>2026-03-29T09:03:46Z</time></trkpt><trkpt lat="40.68343175107238" lon="17.351740926663282"><ele>411.0</ele><time>2026-03-29T09:03:47Z</time></trkpt><trkpt lat="40.68320539635563" lon="17.35194367632691"><ele>411.0</ele><time>2026-03-29T09:03:48Z</time></trkpt><trkpt lat="40.68300001049665" lon="17.352166516982162"><ele>411.0</ele><time>2026-03-29T09:03:49Z</time></trkpt><trkpt lat="40.68277887182933" lon="17.352355667846147"><ele>412.0</ele><time>2026-03-29T09:03:50Z</time></trkpt><trkpt lat="40.68264866781166" lon="17.35262098602925"><ele>413.0</ele><time>2026-03-29T09:03:51Z</time></trkpt><trkpt lat="40.682539099665554" lon="17.35293763978379"><ele>411.0</ele><time>2026-03-29T09:03:52Z</time></trkpt><trkpt lat="40.68236130341978" lon="17.353233765987323"><ele>409.0</ele><time>2026-03-29T09:03:53Z</time></trkpt><trkpt lat="40.68218433508271" lon="17.353516537028906"><ele>409.0</ele><time>2026-03-29T09:03:54Z</time></trkpt><trkpt lat="40.682087590574014" lon="17.353733897085434"><ele>409.0</ele><time>2026-03-29T09:03:55Z</time></trkpt><trkpt lat="40.681967122782375" lon="17.353924620972418"><ele>409.0</ele><time>2026-03-29T09:03:56Z</time></trkpt><trkpt lat="40.681800838112835" lon="17.354129090041265"><ele>404.5</ele><time>2026-03-29T09:03:57Z</time></trkpt><trkpt lat="40.68157632855426" lon="17.354341896378042"><ele>400.0</ele><time>2026-03-29T09:03:58Z</time></trkpt><trkpt lat="40.681327707619964" lon="17.354552972180727"><ele>397.5</ele><time>2026-03-29T09:03:59Z</time></trkpt><trkpt lat="40.68111357962793" lon="17.354783464988838"><ele>395.0</ele><time>2026-03-29T09:04:00Z</time></trkpt><trkpt lat="40.68088847857433" lon="17.355042238837346"><ele>395.0</ele><time>2026-03-29T09:04:01Z</time></trkpt><trkpt lat="40.6806938122372" lon="17.35527685409297"><ele>395.0</ele><time>2026-03-29T09:04:02Z</time></trkpt><trkpt lat="40.680490124210046" lon="17.35548363648562"><ele>394.0</ele><time>2026-03-29T09:04:03Z</time></trkpt><trkpt lat="40.68028166744187" lon="17.355713266674982"><ele>393.0</ele><time>2026-03-29T09:04:04Z</time></trkpt><trkpt lat="40.680084741755316" lon="17.35592559482681"><ele>393.0</ele><time>2026-03-29T09:04:05Z</time></trkpt><trkpt lat="40.67986958638926" lon="17.356098498978962"><ele>393.0</ele><time>2026-03-29T09:04:06Z</time></trkpt><trkpt lat="40.67965748894995" lon="17.356206197714318"><ele>395.0</ele><time>2026-03-29T09:04:07Z</time></trkpt><trkpt lat="40.67942024710549" lon="17.356263351488387"><ele>397.0</ele><time>2026-03-29T09:04:08Z</time></trkpt><trkpt lat="40.679161827900316" lon="17.356297938320182"><ele>397.0</ele><time>2026-03-29T09:04:09Z</time></trkpt><trkpt lat="40.67894161825675" lon="17.35633817607577"><ele>397.0</ele><time>2026-03-29T09:04:10Z</time></trkpt><trkpt lat="40.67875962197312" lon="17.356371686454334"><ele>397.0</ele><time>2026-03-29T09:04:11Z</time></trkpt><trkpt lat="40.67861104651153" lon="17.356413772264645"><ele>397.0</ele><time>2026-03-29T09:04:12Z</time></trkpt><trkpt lat="40.67847334373066" lon="17.35650135330849"><ele>397.0</ele><time>2026-03-29T09:04:13Z</time></trkpt><trkpt lat="40.67836403219562" lon="17.356650236104674"><ele>397.0</ele><time>2026-03-29T09:04:14Z</time></trkpt><trkpt lat="40.67827568024605" lon="17.356863358846784"><ele>397.0</ele><time>2026-03-29T09:04:15Z</time></trkpt><trkpt lat="40.67821025438693" lon="17.35704365273471"><ele>397.0</ele><time>2026-03-29T09:04:16Z</time></trkpt><trkpt lat="40.67813524439711" lon="17.35742353681573"><ele>397.0</ele><time>2026-03-29T09:04:17Z</time></trkpt><trkpt lat="40.67806276170076" lon="17.357757338357867"><ele>395.0</ele><time>2026-03-29T09:04:18Z</time></trkpt><trkpt lat="40.67800653235353" lon="17.358087424336166"><ele>393.0</ele><time>2026-03-29T09:04:19Z</time></trkpt><trkpt lat="40.6779273239625" lon="17.358337924281386"><ele>393.0</ele><time>2026-03-29T09:04:20Z</time></trkpt><trkpt lat="40.67780548064972" lon="17.35853926817893"><ele>393.0</ele><time>2026-03-29T09:04:21Z</time></trkpt><trkpt lat="40.677663756613455" lon="17.358671243362956"><ele>393.0</ele><time>2026-03-29T09:04:22Z</time></trkpt><trkpt lat="40.67751002820776" lon="17.358746059399977"><ele>396.0</ele><time>2026-03-29T09:04:23Z</time></trkpt><trkpt lat="40.67731539008473" lon="17.35880492019422"><ele>399.0</ele><time>2026-03-29T09:04:24Z</time></trkpt><trkpt lat="40.67706791595834" lon="17.35885426179299"><ele>401.0</ele><time>2026-03-29T09:04:25Z</time></trkpt><trkpt lat="40.676916857081714" lon="17.358909446361448"><ele>403.0</ele><time>2026-03-29T09:04:26Z</time></trkpt><trkpt lat="40.67676780230727" lon="17.359040074461625"><ele>405.0</ele><time>2026-03-29T09:04:27Z</time></trkpt><trkpt lat="40.67664762089036" lon="17.359214067807134"><ele>405.0</ele><time>2026-03-29T09:04:28Z</time></trkpt><trkpt lat="40.67657127282462" lon="17.359448458976306"><ele>405.0</ele><time>2026-03-29T09:04:29Z</time></trkpt><trkpt lat="40.676510124363276" lon="17.359694637107705"><ele>405.0</ele><time>2026-03-29T09:04:30Z</time></trkpt><trkpt lat="40.676487042833074" lon="17.359976900430222"><ele>405.33333333333337</ele><time>2026-03-29T09:04:31Z</time></trkpt><trkpt lat="40.67644109717715" lon="17.360207442578464"><ele>405.6666666666667</ele><time>2026-03-29T09:04:32Z</time></trkpt><trkpt lat="40.67639467115761" lon="17.360404770159636"><ele>406.0</ele><time>2026-03-29T09:04:33Z</time></trkpt><trkpt lat="40.67633504394487" lon="17.360592905236395"><ele>407.0</ele><time>2026-03-29T09:04:34Z</time></trkpt><trkpt lat="40.67622595865689" lon="17.360809290288326"><ele>408.0</ele><time>2026-03-29T09:04:35Z</time></trkpt><trkpt lat="40.67606858062531" lon="17.36103938285588"><ele>409.0</ele><time>2026-03-29T09:04:36Z</time></trkpt><trkpt lat="40.67589998459153" lon="17.361305457812403"><ele>410.5</ele><time>2026-03-29T09:04:37Z</time></trkpt><trkpt lat="40.67573198815976" lon="17.36161173409322"><ele>412.0</ele><time>2026-03-29T09:04:38Z</time></trkpt><trkpt lat="40.675537490786006" lon="17.361894956996093"><ele>412.0</ele><time>2026-03-29T09:04:39Z</time></trkpt><trkpt lat="40.67531410297264" lon="17.362142206101797"><ele>412.0</ele><time>2026-03-29T09:04:40Z</time></trkpt><trkpt lat="40.67511611660846" lon="17.36230339568868"><ele>411.0</ele><time>2026-03-29T09:04:40.999Z</time></trkpt><trkpt lat="40.674897670654595" lon="17.362413954999663"><ele>410.0</ele><time>2026-03-29T09:04:41.999Z</time></trkpt><trkpt lat="40.674635279696524" lon="17.362490392861144"><ele>410.5</ele><time>2026-03-29T09:04:42.999Z</time></trkpt><trkpt lat="40.67433646779506" lon="17.362539181942914"><ele>411.0</ele><time>2026-03-29T09:04:43.999Z</time></trkpt><trkpt lat="40.67402891318712" lon="17.362576067165534"><ele>411.0</ele><time>2026-03-29T09:04:44.999Z</time></trkpt><trkpt lat="40.673695983377144" lon="17.36261777632787"><ele>411.0</ele><time>2026-03-29T09:04:45.999Z</time></trkpt><trkpt lat="40.673368613846016" lon="17.362678578142287"><ele>413.5</ele><time>2026-03-29T09:04:46.999Z</time></trkpt><trkpt lat="40.673068583300804" lon="17.362754129651623"><ele>416.0</ele><time>2026-03-29T09:04:47.999Z</time></trkpt><trkpt lat="40.672795208869275" lon="17.362784064235544"><ele>416.5</ele><time>2026-03-29T09:04:48.999Z</time></trkpt><trkpt lat="40.672563908737146" lon="17.362884692043824"><ele>417.0</ele><time>2026-03-29T09:04:49.999Z</time></trkpt><trkpt lat="40.67233547017597" lon="17.36305871719711"><ele>417.0</ele><time>2026-03-29T09:04:50.999Z</time></trkpt><trkpt lat="40.67212659921502" lon="17.363232237163356"><ele>417.0</ele><time>2026-03-29T09:04:51.999Z</time></trkpt><trkpt lat="40.67191190541445" lon="17.363473915393964"><ele>419.0</ele><time>2026-03-29T09:04:52.999Z</time></trkpt><trkpt lat="40.67170374979068" lon="17.36376254151186"><ele>421.0</ele><time>2026-03-29T09:04:53.999Z</time></trkpt><trkpt lat="40.67152305407695" lon="17.364003883370373"><ele>421.5</ele><time>2026-03-29T09:04:54.999Z</time></trkpt><trkpt lat="40.67136047160591" lon="17.36422923359108"><ele>422.0</ele><time>2026-03-29T09:04:55.999Z</time></trkpt><trkpt lat="40.671198952104554" lon="17.364499744441517"><ele>425.0</ele><time>2026-03-29T09:04:56.999Z</time></trkpt><trkpt lat="40.67105551665563" lon="17.3648170726488"><ele>428.0</ele><time>2026-03-29T09:04:57.999Z</time></trkpt><trkpt lat="40.670888494423245" lon="17.365158246364878"><ele>428.0</ele><time>2026-03-29T09:04:58.999Z</time></trkpt><trkpt lat="40.67070715646733" lon="17.365456182085538"><ele>428.0</ele><time>2026-03-29T09:04:59.999Z</time></trkpt><trkpt lat="40.67054229044524" lon="17.365750678511084"><ele>428.0</ele><time>2026-03-29T09:05:00.999Z</time></trkpt><trkpt lat="40.67036040936058" lon="17.366060713193317"><ele>428.0</ele><time>2026-03-29T09:05:01.999Z</time></trkpt><trkpt lat="40.67018852687445" lon="17.366368102593096"><ele>429.0</ele><time>2026-03-29T09:05:02.999Z</time></trkpt><trkpt lat="40.6700407433185" lon="17.36664047708672"><ele>430.0</ele><time>2026-03-29T09:05:03.999Z</time></trkpt><trkpt lat="40.66992195573871" lon="17.36691545139702"><ele>430.0</ele><time>2026-03-29T09:05:04.999Z</time></trkpt><trkpt lat="40.669790783661334" lon="17.367167477213517"><ele>430.0</ele><time>2026-03-29T09:05:05.999Z</time></trkpt><trkpt lat="40.66952389275039" lon="17.367272105142277"><ele>429.5</ele><time>2026-03-29T09:05:06.999Z</time></trkpt><trkpt lat="40.66928091359063" lon="17.36741037362263"><ele>429.0</ele><time>2026-03-29T09:05:07.999Z</time></trkpt><trkpt lat="40.66902470029615" lon="17.367544028553212"><ele>429.0</ele><time>2026-03-29T09:05:08.999Z</time></trkpt><trkpt lat="40.6687684898756" lon="17.367592778659485"><ele>429.0</ele><time>2026-03-29T09:05:09.999Z</time></trkpt><trkpt lat="40.668496547654584" lon="17.36764604509764"><ele>428.0</ele><time>2026-03-29T09:05:10.999Z</time></trkpt><trkpt lat="40.668205512160704" lon="17.36765892012617"><ele>427.0</ele><time>2026-03-29T09:05:11.999Z</time></trkpt><trkpt lat="40.66790487564174" lon="17.367621567965216"><ele>426.33333333333337</ele><time>2026-03-29T09:05:12.999Z</time></trkpt><trkpt lat="40.667716357046785" lon="17.367689288349382"><ele>425.66666666666663</ele><time>2026-03-29T09:05:13.999Z</time></trkpt><trkpt lat="40.66752575261434" lon="17.367745832117823"><ele>425.0</ele><time>2026-03-29T09:05:14.999Z</time></trkpt><trkpt lat="40.66731478708745" lon="17.367875931696997"><ele>425.0</ele><time>2026-03-29T09:05:15.999Z</time></trkpt><trkpt lat="40.667101320989914" lon="17.36806856209851"><ele>425.0</ele><time>2026-03-29T09:05:16.999Z</time></trkpt><trkpt lat="40.666866185217344" lon="17.368280023951215"><ele>423.0</ele><time>2026-03-29T09:05:17.999Z</time></trkpt><trkpt lat="40.66660295151376" lon="17.36849649930543"><ele>421.0</ele><time>2026-03-29T09:05:18.999Z</time></trkpt><trkpt lat="40.666324089980506" lon="17.36874204403136"><ele>419.0</ele><time>2026-03-29T09:05:19.999Z</time></trkpt><trkpt lat="40.666023012545054" lon="17.369004873191173"><ele>417.0</ele><time>2026-03-29T09:05:20.999Z</time></trkpt><trkpt lat="40.66572347976448" lon="17.369298445245025"><ele>417.0</ele><time>2026-03-29T09:05:21.999Z</time></trkpt><trkpt lat="40.66542622848764" lon="17.369638420891267"><ele>417.0</ele><time>2026-03-29T09:05:22.999Z</time></trkpt><trkpt lat="40.66517041309436" lon="17.370011877384734"><ele>414.5</ele><time>2026-03-29T09:05:23.999Z</time></trkpt><trkpt lat="40.66488192123617" lon="17.37040874255239"><ele>412.0</ele><time>2026-03-29T09:05:24.999Z</time></trkpt><trkpt lat="40.66459696783049" lon="17.37084782297654"><ele>407.0</ele><time>2026-03-29T09:05:25.999Z</time></trkpt><trkpt lat="40.664271886236975" lon="17.371281498822846"><ele>406.0</ele><time>2026-03-29T09:05:26.999Z</time></trkpt><trkpt lat="40.66396613188429" lon="17.37170397297297"><ele>405.0</ele><time>2026-03-29T09:05:27.999Z</time></trkpt><trkpt lat="40.663680331606194" lon="17.372075085369612"><ele>402.5</ele><time>2026-03-29T09:05:28.999Z</time></trkpt><trkpt lat="40.663454747646824" lon="17.37239669789561"><ele>400.0</ele><time>2026-03-29T09:05:29.999Z</time></trkpt><trkpt lat="40.66323814509462" lon="17.372692446921427"><ele>400.0</ele><time>2026-03-29T09:05:30.999Z</time></trkpt><trkpt lat="40.66299184133722" lon="17.372906159925723"><ele>400.0</ele><time>2026-03-29T09:05:31.999Z</time></trkpt><trkpt lat="40.662748829659805" lon="17.373113260400284"><ele>397.5</ele><time>2026-03-29T09:05:32.999Z</time></trkpt><trkpt lat="40.66252137896661" lon="17.373294993238147"><ele>395.0</ele><time>2026-03-29T09:05:33.999Z</time></trkpt><trkpt lat="40.662340187184405" lon="17.373471009167037"><ele>395.0</ele><time>2026-03-29T09:05:34.999Z</time></trkpt><trkpt lat="40.66217210520898" lon="17.373676405755045"><ele>395.0</ele><time>2026-03-29T09:05:35.999Z</time></trkpt><trkpt lat="40.662020889521884" lon="17.373970170693198"><ele>393.5</ele><time>2026-03-29T09:05:36.999Z</time></trkpt><trkpt lat="40.661863119268084" lon="17.374305132143967"><ele>392.0</ele><time>2026-03-29T09:05:37.999Z</time></trkpt><trkpt lat="40.66169473977048" lon="17.374642468978763"><ele>390.0</ele><time>2026-03-29T09:05:38.999Z</time></trkpt><trkpt lat="40.661531265928986" lon="17.37496912669583"><ele>388.0</ele><time>2026-03-29T09:05:39.999Z</time></trkpt><trkpt lat="40.66137026921071" lon="17.375289352792347"><ele>386.5</ele><time>2026-03-29T09:05:40.999Z</time></trkpt><trkpt lat="40.66121009672125" lon="17.375620147868677"><ele>385.0</ele><time>2026-03-29T09:05:41.999Z</time></trkpt><trkpt lat="40.66103856402183" lon="17.375911069755478"><ele>385.0</ele><time>2026-03-29T09:05:42.999Z</time></trkpt><trkpt lat="40.660883299964084" lon="17.376100990265137"><ele>385.0</ele><time>2026-03-29T09:05:44Z</time></trkpt><trkpt lat="40.660716512594526" lon="17.376273790069973"><ele>385.0</ele><time>2026-03-29T09:05:45Z</time></trkpt><trkpt lat="40.66051208737708" lon="17.37646772456509"><ele>383.5</ele><time>2026-03-29T09:05:46Z</time></trkpt><trkpt lat="40.660287518619846" lon="17.37669822731301"><ele>382.0</ele><time>2026-03-29T09:05:47Z</time></trkpt><trkpt lat="40.66003001636352" lon="17.376916681449664"><ele>382.0</ele><time>2026-03-29T09:05:48Z</time></trkpt><trkpt lat="40.65976639964953" lon="17.377181434645617"><ele>382.0</ele><time>2026-03-29T09:05:49Z</time></trkpt><trkpt lat="40.65948878452257" lon="17.3774218217107"><ele>381.0</ele><time>2026-03-29T09:05:50Z</time></trkpt><trkpt lat="40.65921974419725" lon="17.37767332112121"><ele>380.0</ele><time>2026-03-29T09:05:51Z</time></trkpt><trkpt lat="40.65898445652148" lon="17.377911635656584"><ele>380.0</ele><time>2026-03-29T09:05:52Z</time></trkpt><trkpt lat="40.65875342542476" lon="17.37811857861442"><ele>380.0</ele><time>2026-03-29T09:05:53Z</time></trkpt><trkpt lat="40.658580173623996" lon="17.378320507605693"><ele>380.0</ele><time>2026-03-29T09:05:54Z</time></trkpt><trkpt lat="40.65842672247457" lon="17.378507594858487"><ele>380.0</ele><time>2026-03-29T09:05:55Z</time></trkpt><trkpt lat="40.658277293167274" lon="17.378729751047377"><ele>380.0</ele><time>2026-03-29T09:05:56Z</time></trkpt><trkpt lat="40.65813082349779" lon="17.379000008735517"><ele>380.5</ele><time>2026-03-29T09:05:57Z</time></trkpt><trkpt lat="40.65796372353793" lon="17.37928874065867"><ele>381.0</ele><time>2026-03-29T09:05:58Z</time></trkpt><trkpt lat="40.657787323486865" lon="17.379586258892978"><ele>379.0</ele><time>2026-03-29T09:05:59Z</time></trkpt><trkpt lat="40.657608053304905" lon="17.3798892154956"><ele>377.0</ele><time>2026-03-29T09:06:00Z</time></trkpt><trkpt lat="40.65741607130734" lon="17.380187818712006"><ele>377.0</ele><time>2026-03-29T09:06:01Z</time></trkpt><trkpt lat="40.657230740236365" lon="17.38050835952695"><ele>377.0</ele><time>2026-03-29T09:06:02Z</time></trkpt><trkpt lat="40.65702703827636" lon="17.380790264128404"><ele>377.0</ele><time>2026-03-29T09:06:03Z</time></trkpt><trkpt lat="40.65684011670724" lon="17.381100846310638"><ele>377.0</ele><time>2026-03-29T09:06:04Z</time></trkpt><trkpt lat="40.65658854028457" lon="17.38142353273262"><ele>377.0</ele><time>2026-03-29T09:06:05Z</time></trkpt><trkpt lat="40.656360382822825" lon="17.381727695212003"><ele>377.0</ele><time>2026-03-29T09:06:06Z</time></trkpt><trkpt lat="40.656357785778646" lon="17.382045658216025"><ele>377.5</ele><time>2026-03-29T09:06:07Z</time></trkpt><trkpt lat="40.65620654193273" lon="17.38227407049772"><ele>378.0</ele><time>2026-03-29T09:06:08Z</time></trkpt><trkpt lat="40.65603829820701" lon="17.382470098354208"><ele>376.5</ele><time>2026-03-29T09:06:09Z</time></trkpt><trkpt lat="40.65584306073124" lon="17.38264969477453"><ele>375.0</ele><time>2026-03-29T09:06:10Z</time></trkpt><trkpt lat="40.65560928781951" lon="17.382824249334263"><ele>375.0</ele><time>2026-03-29T09:06:11Z</time></trkpt><trkpt lat="40.65539260853618" lon="17.382987977538882"><ele>375.0</ele><time>2026-03-29T09:06:12Z</time></trkpt><trkpt lat="40.65520628884727" lon="17.383138935958936"><ele>374.5</ele><time>2026-03-29T09:06:13Z</time></trkpt><trkpt lat="40.655022888073134" lon="17.383318548120396"><ele>374.0</ele><time>2026-03-29T09:06:14Z</time></trkpt><trkpt lat="40.65482052822433" lon="17.38354538616985"><ele>374.0</ele><time>2026-03-29T09:06:15Z</time></trkpt><trkpt lat="40.65461591848167" lon="17.383814870004795"><ele>374.0</ele><time>2026-03-29T09:06:16Z</time></trkpt><trkpt lat="40.65441224920297" lon="17.38410886788646"><ele>373.5</ele><time>2026-03-29T09:06:17Z</time></trkpt><trkpt lat="40.65419650085152" lon="17.384408175107424"><ele>373.0</ele><time>2026-03-29T09:06:18Z</time></trkpt><trkpt lat="40.65398580083735" lon="17.384714614920068"><ele>373.0</ele><time>2026-03-29T09:06:19Z</time></trkpt><trkpt lat="40.65376611658268" lon="17.385029346227572"><ele>373.0</ele><time>2026-03-29T09:06:20Z</time></trkpt><trkpt lat="40.65353911481957" lon="17.385344841124525"><ele>371.5</ele><time>2026-03-29T09:06:21Z</time></trkpt><trkpt lat="40.65331480863022" lon="17.385665012366147"><ele>370.0</ele><time>2026-03-29T09:06:22Z</time></trkpt><trkpt lat="40.653082613217045" lon="17.385991340615593"><ele>370.0</ele><time>2026-03-29T09:06:23Z</time></trkpt><trkpt lat="40.652839927496224" lon="17.386317356576487"><ele>370.0</ele><time>2026-03-29T09:06:24Z</time></trkpt><trkpt lat="40.652601589926185" lon="17.386652736524855"><ele>369.5</ele><time>2026-03-29T09:06:25Z</time></trkpt><trkpt lat="40.65236546604213" lon="17.387002748522338"><ele>369.0</ele><time>2026-03-29T09:06:26Z</time></trkpt><trkpt lat="40.652128108423696" lon="17.38735302808222"><ele>368.5</ele><time>2026-03-29T09:06:27Z</time></trkpt><trkpt lat="40.65192026291878" lon="17.387683007343956"><ele>368.0</ele><time>2026-03-29T09:06:28Z</time></trkpt><trkpt lat="40.65172810081136" lon="17.387977284966098"><ele>369.0</ele><time>2026-03-29T09:06:29Z</time></trkpt><trkpt lat="40.65155296149051" lon="17.388213543826165"><ele>370.0</ele><time>2026-03-29T09:06:30Z</time></trkpt><trkpt lat="40.65138946103733" lon="17.388448882505536"><ele>370.0</ele><time>2026-03-29T09:06:31Z</time></trkpt><trkpt lat="40.651219993171914" lon="17.38870915669103"><ele>370.0</ele><time>2026-03-29T09:06:32Z</time></trkpt><trkpt lat="40.651044858224864" lon="17.38901449793758"><ele>369.0</ele><time>2026-03-29T09:06:33Z</time></trkpt><trkpt lat="40.650869481527614" lon="17.389329866558793"><ele>368.0</ele><time>2026-03-29T09:06:34Z</time></trkpt><trkpt lat="40.65069530543373" lon="17.38964492647118"><ele>368.0</ele><time>2026-03-29T09:06:35Z</time></trkpt><trkpt lat="40.65051883794506" lon="17.38996651482025"><ele>368.0</ele><time>2026-03-29T09:06:36Z</time></trkpt><trkpt lat="40.6503099878146" lon="17.390291483662786"><ele>368.0</ele><time>2026-03-29T09:06:37Z</time></trkpt><trkpt lat="40.650156880792714" lon="17.390640720536634"><ele>368.0</ele><time>2026-03-29T09:06:38Z</time></trkpt><trkpt lat="40.64999096305081" lon="17.39097838039744"><ele>368.0</ele><time>2026-03-29T09:06:39Z</time></trkpt><trkpt lat="40.649805149261475" lon="17.391303309702327"><ele>368.0</ele><time>2026-03-29T09:06:40Z</time></trkpt><trkpt lat="40.64959231688374" lon="17.391645236792275"><ele>367.5</ele><time>2026-03-29T09:06:41Z</time></trkpt><trkpt lat="40.64939113674848" lon="17.391971753290324"><ele>367.0</ele><time>2026-03-29T09:06:42Z</time></trkpt><trkpt lat="40.649204425753375" lon="17.39231374565333"><ele>367.0</ele><time>2026-03-29T09:06:43Z</time></trkpt><trkpt lat="40.64901935966053" lon="17.3926475612422"><ele>367.0</ele><time>2026-03-29T09:06:44Z</time></trkpt><trkpt lat="40.64885369067994" lon="17.39299369090298"><ele>367.5</ele><time>2026-03-29T09:06:45Z</time></trkpt><trkpt lat="40.64868193969087" lon="17.39330770577052"><ele>368.0</ele><time>2026-03-29T09:06:45.999Z</time></trkpt><trkpt lat="40.64852522442577" lon="17.39362755528449"><ele>368.0</ele><time>2026-03-29T09:06:46.999Z</time></trkpt><trkpt lat="40.648395054141176" lon="17.39395912381939"><ele>368.0</ele><time>2026-03-29T09:06:47.999Z</time></trkpt><trkpt lat="40.648225894799644" lon="17.394253564305632"><ele>368.0</ele><time>2026-03-29T09:06:48.999Z</time></trkpt><trkpt lat="40.648072429816" lon="17.394569299289582"><ele>368.0</ele><time>2026-03-29T09:06:49.999Z</time></trkpt><trkpt lat="40.6479330957668" lon="17.394892991987494"><ele>368.5</ele><time>2026-03-29T09:06:50.999Z</time></trkpt><trkpt lat="40.647797422588106" lon="17.395212665525086"><ele>369.0</ele><time>2026-03-29T09:06:51.999Z</time></trkpt><trkpt lat="40.647674023121134" lon="17.39552131241052"><ele>368.0</ele><time>2026-03-29T09:06:52.999Z</time></trkpt><trkpt lat="40.64753914304547" lon="17.395820459822254"><ele>367.0</ele><time>2026-03-29T09:06:53.999Z</time></trkpt><trkpt lat="40.647408426211015" lon="17.396113328867028"><ele>367.5</ele><time>2026-03-29T09:06:54.999Z</time></trkpt><trkpt lat="40.64727938090324" lon="17.39640106324432"><ele>368.0</ele><time>2026-03-29T09:06:55.999Z</time></trkpt><trkpt lat="40.647154350639134" lon="17.396659176633513"><ele>368.0</ele><time>2026-03-29T09:06:56.999Z</time></trkpt><trkpt lat="40.64702848020943" lon="17.396871435321277"><ele>368.0</ele><time>2026-03-29T09:06:57.999Z</time></trkpt><trkpt lat="40.64689605297894" lon="17.397030259980617"><ele>368.0</ele><time>2026-03-29T09:06:58.999Z</time></trkpt><trkpt lat="40.646740174569175" lon="17.39715639505389"><ele>367.6666666666667</ele><time>2026-03-29T09:06:59.999Z</time></trkpt><trkpt lat="40.64655074254652" lon="17.39725760519468"><ele>367.3333333333333</ele><time>2026-03-29T09:07:00.999Z</time></trkpt><trkpt lat="40.64632605859985" lon="17.397332287877333"><ele>367.0</ele><time>2026-03-29T09:07:01.999Z</time></trkpt><trkpt lat="40.646081734685325" lon="17.39742643477519"><ele>368.5</ele><time>2026-03-29T09:07:02.999Z</time></trkpt><trkpt lat="40.64582342439415" lon="17.39753864481375"><ele>370.0</ele><time>2026-03-29T09:07:03.999Z</time></trkpt><trkpt lat="40.64557163249772" lon="17.3976285600453"><ele>370.0</ele><time>2026-03-29T09:07:04.999Z</time></trkpt><trkpt lat="40.64531326396895" lon="17.397726709409334"><ele>370.0</ele><time>2026-03-29T09:07:05.999Z</time></trkpt><trkpt lat="40.64507463231948" lon="17.39775585223884"><ele>371.3333333333333</ele><time>2026-03-29T09:07:06.999Z</time></trkpt><trkpt lat="40.64488296182267" lon="17.397837529087106"><ele>372.6666666666667</ele><time>2026-03-29T09:07:07.999Z</time></trkpt><trkpt lat="40.644724551818456" lon="17.397999718719"><ele>374.0</ele><time>2026-03-29T09:07:08.999Z</time></trkpt><trkpt lat="40.64454167092301" lon="17.39815243896736"><ele>377.0</ele><time>2026-03-29T09:07:09.999Z</time></trkpt><trkpt lat="40.64436702247696" lon="17.398347411705796"><ele>380.0</ele><time>2026-03-29T09:07:10.999Z</time></trkpt><trkpt lat="40.64418954836733" lon="17.398589213495107"><ele>380.0</ele><time>2026-03-29T09:07:11.999Z</time></trkpt><trkpt lat="40.64401037999306" lon="17.39879715937694"><ele>380.0</ele><time>2026-03-29T09:07:12.999Z</time></trkpt><trkpt lat="40.64382477126162" lon="17.398935294074704"><ele>380.0</ele><time>2026-03-29T09:07:13.999Z</time></trkpt><trkpt lat="40.64361173333199" lon="17.39904145243774"><ele>380.0</ele><time>2026-03-29T09:07:14.999Z</time></trkpt><trkpt lat="40.64335992910392" lon="17.399111725599717"><ele>380.0</ele><time>2026-03-29T09:07:15.999Z</time></trkpt><trkpt lat="40.64308549153804" lon="17.39918025576075"><ele>380.0</ele><time>2026-03-29T09:07:16.999Z</time></trkpt><trkpt lat="40.64281431627145" lon="17.399257869413525"><ele>382.5</ele><time>2026-03-29T09:07:17.999Z</time></trkpt><trkpt lat="40.642553020961074" lon="17.39932395106692"><ele>385.0</ele><time>2026-03-29T09:07:18.999Z</time></trkpt><trkpt lat="40.642314734713665" lon="17.399382751417846"><ele>385.0</ele><time>2026-03-29T09:07:19.999Z</time></trkpt><trkpt lat="40.6420868264981" lon="17.39943126906021"><ele>385.0</ele><time>2026-03-29T09:07:20.999Z</time></trkpt><trkpt lat="40.64185913404723" lon="17.399513825190915"><ele>386.0</ele><time>2026-03-29T09:07:21.999Z</time></trkpt><trkpt lat="40.64163805918866" lon="17.399631822119986"><ele>387.0</ele><time>2026-03-29T09:07:22.999Z</time></trkpt><trkpt lat="40.641422577989665" lon="17.399822729630458"><ele>387.0</ele><time>2026-03-29T09:07:23.999Z</time></trkpt><trkpt lat="40.64120987756847" lon="17.400048595707656"><ele>387.0</ele><time>2026-03-29T09:07:24.999Z</time></trkpt><trkpt lat="40.640995701804535" lon="17.40026401512285"><ele>389.5</ele><time>2026-03-29T09:07:25.999Z</time></trkpt><trkpt lat="40.64076455716259" lon="17.40047688317454"><ele>392.0</ele><time>2026-03-29T09:07:26.999Z</time></trkpt><trkpt lat="40.64055472889347" lon="17.400653032981623"><ele>392.0</ele><time>2026-03-29T09:07:27.999Z</time></trkpt><trkpt lat="40.64034657293954" lon="17.400846975676842"><ele>392.0</ele><time>2026-03-29T09:07:28.999Z</time></trkpt><trkpt lat="40.64013444551106" lon="17.4010300697699"><ele>393.5</ele><time>2026-03-29T09:07:29.999Z</time></trkpt><trkpt lat="40.63988740191428" lon="17.401224479381206"><ele>395.0</ele><time>2026-03-29T09:07:30.999Z</time></trkpt><trkpt lat="40.63963114169149" lon="17.401421937593533"><ele>396.0</ele><time>2026-03-29T09:07:31.999Z</time></trkpt><trkpt lat="40.63938365017579" lon="17.401615011361013"><ele>397.0</ele><time>2026-03-29T09:07:32.999Z</time></trkpt><trkpt lat="40.63915773181558" lon="17.40179107357844"><ele>397.0</ele><time>2026-03-29T09:07:33.999Z</time></trkpt><trkpt lat="40.638966510939404" lon="17.401935709402263"><ele>397.0</ele><time>2026-03-29T09:07:34.999Z</time></trkpt><trkpt lat="40.638784524117504" lon="17.40204143996198"><ele>397.0</ele><time>2026-03-29T09:07:35.999Z</time></trkpt><trkpt lat="40.638562175924434" lon="17.402152668713352"><ele>398.0</ele><time>2026-03-29T09:07:36.999Z</time></trkpt><trkpt lat="40.6383261508085" lon="17.402181958011713"><ele>399.0</ele><time>2026-03-29T09:07:37.999Z</time></trkpt><trkpt lat="40.63809925261788" lon="17.402181221299415"><ele>399.0</ele><time>2026-03-29T09:07:38.999Z</time></trkpt><trkpt lat="40.63794157472688" lon="17.402204881145053"><ele>399.0</ele><time>2026-03-29T09:07:39.999Z</time></trkpt><trkpt lat="40.63782661526588" lon="17.402246917988464"><ele>399.0</ele><time>2026-03-29T09:07:40.999Z</time></trkpt><trkpt lat="40.63772563117673" lon="17.40234905376285"><ele>399.0</ele><time>2026-03-29T09:07:41.999Z</time></trkpt><trkpt lat="40.63763049462922" lon="17.40252223989468"><ele>397.0</ele><time>2026-03-29T09:07:42.999Z</time></trkpt><trkpt lat="40.63752624136681" lon="17.402729276610458"><ele>395.0</ele><time>2026-03-29T09:07:43.999Z</time></trkpt><trkpt lat="40.63738842180641" lon="17.402928775731816"><ele>393.0</ele><time>2026-03-29T09:07:44.999Z</time></trkpt><trkpt lat="40.63724714986983" lon="17.403108076516546"><ele>392.0</ele><time>2026-03-29T09:07:45.999Z</time></trkpt><trkpt lat="40.63706124075252" lon="17.40327593626625"><ele>391.0</ele><time>2026-03-29T09:07:46.999Z</time></trkpt><trkpt lat="40.63684867629483" lon="17.403431342806662"><ele>390.5</ele><time>2026-03-29T09:07:47.999Z</time></trkpt><trkpt lat="40.636633601594816" lon="17.40361080370972"><ele>390.0</ele><time>2026-03-29T09:07:48.999Z</time></trkpt><trkpt lat="40.63640301925091" lon="17.403781571849645"><ele>393.0</ele><time>2026-03-29T09:07:50Z</time></trkpt><trkpt lat="40.63615919669968" lon="17.40398022853391"><ele>396.0</ele><time>2026-03-29T09:07:51Z</time></trkpt><trkpt lat="40.63594122812261" lon="17.404241949458576"><ele>396.5</ele><time>2026-03-29T09:07:52Z</time></trkpt><trkpt lat="40.635705732555834" lon="17.40448544711133"><ele>397.0</ele><time>2026-03-29T09:07:53Z</time></trkpt><trkpt lat="40.63547477696099" lon="17.404737123765145"><ele>396.0</ele><time>2026-03-29T09:07:54Z</time></trkpt><trkpt lat="40.635256006030446" lon="17.404982993194228"><ele>395.0</ele><time>2026-03-29T09:07:55Z</time></trkpt><trkpt lat="40.63506835228994" lon="17.405222482410487"><ele>395.0</ele><time>2026-03-29T09:07:56Z</time></trkpt><trkpt lat="40.6349077849563" lon="17.40549034254904"><ele>395.0</ele><time>2026-03-29T09:07:57Z</time></trkpt><trkpt lat="40.63476824474018" lon="17.4057914751591"><ele>394.0</ele><time>2026-03-29T09:07:58Z</time></trkpt><trkpt lat="40.63464924688753" lon="17.406129261830944"><ele>393.0</ele><time>2026-03-29T09:07:59Z</time></trkpt><trkpt lat="40.63458020349457" lon="17.406453312244818"><ele>392.66666666666663</ele><time>2026-03-29T09:08:00Z</time></trkpt><trkpt lat="40.63450643974263" lon="17.40674198966828"><ele>392.3333333333333</ele><time>2026-03-29T09:08:01Z</time></trkpt><trkpt lat="40.634444295618486" lon="17.406995049994375"><ele>392.0</ele><time>2026-03-29T09:08:02Z</time></trkpt><trkpt lat="40.63437417368009" lon="17.407199340521085"><ele>391.0</ele><time>2026-03-29T09:08:03Z</time></trkpt><trkpt lat="40.63426347382295" lon="17.407381759964252"><ele>390.0</ele><time>2026-03-29T09:08:04Z</time></trkpt><trkpt lat="40.634111502283574" lon="17.40754493766402"><ele>389.0</ele><time>2026-03-29T09:08:05Z</time></trkpt><trkpt lat="40.63391992181834" lon="17.407701588785137"><ele>389.0</ele><time>2026-03-29T09:08:06Z</time></trkpt><trkpt lat="40.63369764538003" lon="17.407893798340847"><ele>389.0</ele><time>2026-03-29T09:08:07Z</time></trkpt><trkpt lat="40.633440959822394" lon="17.40806586424914"><ele>389.5</ele><time>2026-03-29T09:08:08Z</time></trkpt><trkpt lat="40.63319755261221" lon="17.408253377516676"><ele>390.0</ele><time>2026-03-29T09:08:09Z</time></trkpt><trkpt lat="40.632946497750346" lon="17.408448407666825"><ele>391.0</ele><time>2026-03-29T09:08:10Z</time></trkpt><trkpt lat="40.63269919501716" lon="17.408663813376126"><ele>392.0</ele><time>2026-03-29T09:08:11Z</time></trkpt><trkpt lat="40.63245802754429" lon="17.408853745805494"><ele>392.0</ele><time>2026-03-29T09:08:12Z</time></trkpt><trkpt lat="40.632216625053275" lon="17.409034771826786"><ele>392.0</ele><time>2026-03-29T09:08:13Z</time></trkpt><trkpt lat="40.631966771330866" lon="17.409237044982678"><ele>391.5</ele><time>2026-03-29T09:08:14Z</time></trkpt><trkpt lat="40.63175761780273" lon="17.4095393376446"><ele>391.0</ele><time>2026-03-29T09:08:15Z</time></trkpt><trkpt lat="40.6315108936905" lon="17.409805343365772"><ele>391.0</ele><time>2026-03-29T09:08:16Z</time></trkpt><trkpt lat="40.63125050616378" lon="17.410076860858375"><ele>391.0</ele><time>2026-03-29T09:08:17Z</time></trkpt><trkpt lat="40.63099536203374" lon="17.410350026325336"><ele>389.5</ele><time>2026-03-29T09:08:18Z</time></trkpt><trkpt lat="40.630751009741815" lon="17.410610101286554"><ele>388.0</ele><time>2026-03-29T09:08:19Z</time></trkpt><trkpt lat="40.630518877016605" lon="17.410840084543185"><ele>389.0</ele><time>2026-03-29T09:08:20Z</time></trkpt><trkpt lat="40.630293004115224" lon="17.41106347122858"><ele>390.0</ele><time>2026-03-29T09:08:21Z</time></trkpt><trkpt lat="40.63011081168659" lon="17.41126473346173"><ele>389.0</ele><time>2026-03-29T09:08:22Z</time></trkpt><trkpt lat="40.62995349360901" lon="17.41144200755128"><ele>388.0</ele><time>2026-03-29T09:08:23Z</time></trkpt><trkpt lat="40.62980027795761" lon="17.411596131482934"><ele>387.0</ele><time>2026-03-29T09:08:24Z</time></trkpt><trkpt lat="40.629658954961904" lon="17.411750730861733"><ele>387.0</ele><time>2026-03-29T09:08:25Z</time></trkpt><trkpt lat="40.629518322742975" lon="17.41196577823478"><ele>387.0</ele><time>2026-03-29T09:08:26Z</time></trkpt><trkpt lat="40.62940525113073" lon="17.412232195205355"><ele>387.0</ele><time>2026-03-29T09:08:27Z</time></trkpt><trkpt lat="40.629338649453175" lon="17.41254181096836"><ele>388.0</ele><time>2026-03-29T09:08:28Z</time></trkpt><trkpt lat="40.62930975143853" lon="17.412884152806146"><ele>389.0</ele><time>2026-03-29T09:08:29Z</time></trkpt><trkpt lat="40.62929225391487" lon="17.41326358529708"><ele>390.0</ele><time>2026-03-29T09:08:30Z</time></trkpt><trkpt lat="40.629265447126166" lon="17.41364953682311"><ele>391.0</ele><time>2026-03-29T09:08:31Z</time></trkpt><trkpt lat="40.62922762117789" lon="17.413995921570635"><ele>391.0</ele><time>2026-03-29T09:08:32Z</time></trkpt><trkpt lat="40.629211171638175" lon="17.41433127684274"><ele>391.0</ele><time>2026-03-29T09:08:33Z</time></trkpt><trkpt lat="40.62919231413384" lon="17.414644159695662"><ele>391.5</ele><time>2026-03-29T09:08:34Z</time></trkpt><trkpt lat="40.62915685695104" lon="17.414941925964765"><ele>392.0</ele><time>2026-03-29T09:08:35Z</time></trkpt><trkpt lat="40.62912038561897" lon="17.415231277713538"><ele>392.0</ele><time>2026-03-29T09:08:36Z</time></trkpt><trkpt lat="40.629070730842884" lon="17.415461452449083"><ele>392.0</ele><time>2026-03-29T09:08:37Z</time></trkpt><trkpt lat="40.62899873241684" lon="17.41566319201675"><ele>392.0</ele><time>2026-03-29T09:08:38Z</time></trkpt><trkpt lat="40.62888208536706" lon="17.41584949898866"><ele>391.66666666666663</ele><time>2026-03-29T09:08:39Z</time></trkpt><trkpt lat="40.628725641988396" lon="17.41602459645962"><ele>391.33333333333337</ele><time>2026-03-29T09:08:40Z</time></trkpt><trkpt lat="40.62854507279526" lon="17.416226930069794"><ele>391.0</ele><time>2026-03-29T09:08:41Z</time></trkpt><trkpt lat="40.62835776124677" lon="17.416449312128098"><ele>388.5</ele><time>2026-03-29T09:08:42Z</time></trkpt><trkpt lat="40.62816470211457" lon="17.41668292441687"><ele>386.0</ele><time>2026-03-29T09:08:43Z</time></trkpt><trkpt lat="40.62797060669076" lon="17.41693020722402"><ele>385.0</ele><time>2026-03-29T09:08:44Z</time></trkpt><trkpt lat="40.62778394603329" lon="17.417194258540224"><ele>384.0</ele><time>2026-03-29T09:08:45Z</time></trkpt><trkpt lat="40.6275930335015" lon="17.417480139394264"><ele>384.0</ele><time>2026-03-29T09:08:46Z</time></trkpt><trkpt lat="40.627373336422785" lon="17.417759603469978"><ele>384.0</ele><time>2026-03-29T09:08:47Z</time></trkpt><trkpt lat="40.62715499912622" lon="17.41805322677265"><ele>383.0</ele><time>2026-03-29T09:08:48Z</time></trkpt><trkpt lat="40.626942805786925" lon="17.418358582817902"><ele>382.0</ele><time>2026-03-29T09:08:49Z</time></trkpt><trkpt lat="40.62672533186019" lon="17.41866288178208"><ele>382.0</ele><time>2026-03-29T09:08:50Z</time></trkpt><trkpt lat="40.62651895096093" lon="17.41895225879724"><ele>382.0</ele><time>2026-03-29T09:08:51Z</time></trkpt><trkpt lat="40.626324122921105" lon="17.41922728628136"><ele>381.5</ele><time>2026-03-29T09:08:52Z</time></trkpt><trkpt lat="40.62612176645201" lon="17.41950272286024"><ele>381.0</ele><time>2026-03-29T09:08:53Z</time></trkpt><trkpt lat="40.6259249988241" lon="17.419777508810675"><ele>381.0</ele><time>2026-03-29T09:08:53.999Z</time></trkpt><trkpt lat="40.62574431459655" lon="17.420027121758945"><ele>381.0</ele><time>2026-03-29T09:08:54.999Z</time></trkpt><trkpt lat="40.62556822384406" lon="17.42027323743909"><ele>380.5</ele><time>2026-03-29T09:08:55.999Z</time></trkpt><trkpt lat="40.625386761048226" lon="17.420606380850924"><ele>380.0</ele><time>2026-03-29T09:08:56.999Z</time></trkpt><trkpt lat="40.62517342054479" lon="17.420913537998818"><ele>380.0</ele><time>2026-03-29T09:08:57.999Z</time></trkpt><trkpt lat="40.62500981922354" lon="17.421152594547355"><ele>380.0</ele><time>2026-03-29T09:08:58.999Z</time></trkpt><trkpt lat="40.62487102654024" lon="17.42142874623894"><ele>380.0</ele><time>2026-03-29T09:08:59.999Z</time></trkpt><trkpt lat="40.6247556989739" lon="17.42176917211022"><ele>380.0</ele><time>2026-03-29T09:09:00.999Z</time></trkpt><trkpt lat="40.62464014302575" lon="17.422034435669328"><ele>380.6666666666667</ele><time>2026-03-29T09:09:01.999Z</time></trkpt><trkpt lat="40.62452460027953" lon="17.42224119218173"><ele>381.3333333333333</ele><time>2026-03-29T09:09:02.999Z</time></trkpt><trkpt lat="40.624370075662505" lon="17.4223953257145"><ele>382.0</ele><time>2026-03-29T09:09:03.999Z</time></trkpt><trkpt lat="40.62420087702861" lon="17.422530543768303"><ele>382.0</ele><time>2026-03-29T09:09:04.999Z</time></trkpt><trkpt lat="40.624171941724825" lon="17.422931095196457"><ele>382.0</ele><time>2026-03-29T09:09:05.999Z</time></trkpt><trkpt lat="40.62403054554548" lon="17.423182164894904"><ele>381.5</ele><time>2026-03-29T09:09:06.999Z</time></trkpt><trkpt lat="40.62388360325065" lon="17.423456932346035"><ele>381.0</ele><time>2026-03-29T09:09:07.999Z</time></trkpt><trkpt lat="40.623740388068185" lon="17.423767163224326"><ele>378.5</ele><time>2026-03-29T09:09:08.999Z</time></trkpt><trkpt lat="40.62361648761953" lon="17.424063719441666"><ele>376.0</ele><time>2026-03-29T09:09:09.999Z</time></trkpt><trkpt lat="40.62350124700935" lon="17.424328913640085"><ele>376.0</ele><time>2026-03-29T09:09:10.999Z</time></trkpt><trkpt lat="40.623376008610705" lon="17.424587627598573"><ele>376.0</ele><time>2026-03-29T09:09:11.999Z</time></trkpt><trkpt lat="40.62323403810249" lon="17.424832726421776"><ele>376.0</ele><time>2026-03-29T09:09:12.999Z</time></trkpt><trkpt lat="40.62307683742606" lon="17.425076324307074"><ele>376.0</ele><time>2026-03-29T09:09:13.999Z</time></trkpt><trkpt lat="40.62291661914044" lon="17.425350780973996"><ele>372.5</ele><time>2026-03-29T09:09:14.999Z</time></trkpt><trkpt lat="40.62273752200827" lon="17.425609674420933"><ele>369.0</ele><time>2026-03-29T09:09:15.999Z</time></trkpt><trkpt lat="40.62257348573481" lon="17.42590780074122"><ele>369.0</ele><time>2026-03-29T09:09:16.999Z</time></trkpt><trkpt lat="40.622424781881385" lon="17.426235889562466"><ele>369.0</ele><time>2026-03-29T09:09:17.999Z</time></trkpt><trkpt lat="40.622297075557384" lon="17.426572494092397"><ele>368.0</ele><time>2026-03-29T09:09:18.999Z</time></trkpt><trkpt lat="40.622163104353476" lon="17.426851146959766"><ele>367.0</ele><time>2026-03-29T09:09:19.999Z</time></trkpt><trkpt lat="40.62198989589012" lon="17.42712311765086"><ele>366.0</ele><time>2026-03-29T09:09:20.999Z</time></trkpt><trkpt lat="40.6217606281048" lon="17.427378574349305"><ele>365.0</ele><time>2026-03-29T09:09:21.999Z</time></trkpt><trkpt lat="40.62149463362546" lon="17.427625967250513"><ele>365.0</ele><time>2026-03-29T09:09:22.999Z</time></trkpt><trkpt lat="40.621262897846805" lon="17.42782891169455"><ele>365.0</ele><time>2026-03-29T09:09:23.999Z</time></trkpt><trkpt lat="40.62103165984977" lon="17.42804560877611"><ele>363.0</ele><time>2026-03-29T09:09:24.999Z</time></trkpt><trkpt lat="40.62077687524632" lon="17.42827449081274"><ele>361.0</ele><time>2026-03-29T09:09:25.999Z</time></trkpt><trkpt lat="40.6204943760829" lon="17.42846623783451"><ele>360.5</ele><time>2026-03-29T09:09:26.999Z</time></trkpt><trkpt lat="40.620218577611475" lon="17.42867051802113"><ele>360.0</ele><time>2026-03-29T09:09:27.999Z</time></trkpt><trkpt lat="40.61997736296269" lon="17.428862809402872"><ele>360.0</ele><time>2026-03-29T09:09:28.999Z</time></trkpt><trkpt lat="40.619733262963194" lon="17.429057979462925"><ele>360.0</ele><time>2026-03-29T09:09:29.999Z</time></trkpt><trkpt lat="40.61947509806286" lon="17.42926746485428"><ele>360.0</ele><time>2026-03-29T09:09:30.999Z</time></trkpt><trkpt lat="40.61923937862021" lon="17.429498836702276"><ele>360.0</ele><time>2026-03-29T09:09:31.999Z</time></trkpt><trkpt lat="40.61903691114902" lon="17.429734865361375"><ele>359.0</ele><time>2026-03-29T09:09:32.999Z</time></trkpt><trkpt lat="40.61883084894144" lon="17.429954642130138"><ele>358.0</ele><time>2026-03-29T09:09:33.999Z</time></trkpt><trkpt lat="40.618591907081864" lon="17.43014857434781"><ele>358.0</ele><time>2026-03-29T09:09:34.999Z</time></trkpt><trkpt lat="40.61831440172296" lon="17.430323768104607"><ele>358.0</ele><time>2026-03-29T09:09:35.999Z</time></trkpt><trkpt lat="40.61802915243818" lon="17.430469500277592"><ele>357.66666666666663</ele><time>2026-03-29T09:09:36.999Z</time></trkpt><trkpt lat="40.617809707830574" lon="17.430580105254425"><ele>357.3333333333333</ele><time>2026-03-29T09:09:37.999Z</time></trkpt><trkpt lat="40.61762502115276" lon="17.430674616152714"><ele>357.0</ele><time>2026-03-29T09:09:38.999Z</time></trkpt><trkpt lat="40.61745137135777" lon="17.430754527507716"><ele>357.0</ele><time>2026-03-29T09:09:39.999Z</time></trkpt><trkpt lat="40.61727141967855" lon="17.430805518879378"><ele>357.0</ele><time>2026-03-29T09:09:40.999Z</time></trkpt><trkpt lat="40.61707317403054" lon="17.43082363221312"><ele>357.0</ele><time>2026-03-29T09:09:41.999Z</time></trkpt><trkpt lat="40.61685450789675" lon="17.430833991132747"><ele>356.0</ele><time>2026-03-29T09:09:42.999Z</time></trkpt><trkpt lat="40.616614804634864" lon="17.430894411546568"><ele>355.0</ele><time>2026-03-29T09:09:43.999Z</time></trkpt><trkpt lat="40.61637021946734" lon="17.43101742430324"><ele>355.0</ele><time>2026-03-29T09:09:44.999Z</time></trkpt><trkpt lat="40.61612500964101" lon="17.43115842584506"><ele>355.0</ele><time>2026-03-29T09:09:45.999Z</time></trkpt><trkpt lat="40.61584641709615" lon="17.431293567560992"><ele>355.0</ele><time>2026-03-29T09:09:46.999Z</time></trkpt><trkpt lat="40.61566985344101" lon="17.431467424031602"><ele>355.0</ele><time>2026-03-29T09:09:47.999Z</time></trkpt><trkpt lat="40.61547195045348" lon="17.431714524123212"><ele>355.0</ele><time>2026-03-29T09:09:48.999Z</time></trkpt><trkpt lat="40.61529430793411" lon="17.43200240557999"><ele>355.0</ele><time>2026-03-29T09:09:49.999Z</time></trkpt><trkpt lat="40.61515253132814" lon="17.43224889304943"><ele>355.0</ele><time>2026-03-29T09:09:50.999Z</time></trkpt><trkpt lat="40.6150102976139" lon="17.43236555384921"><ele>355.0</ele><time>2026-03-29T09:09:51.999Z</time></trkpt><trkpt lat="40.61476108162748" lon="17.432455733393432"><ele>355.0</ele><time>2026-03-29T09:09:52.999Z</time></trkpt><trkpt lat="40.614467353632584" lon="17.43245245614526"><ele>354.5</ele><time>2026-03-29T09:09:53.999Z</time></trkpt><trkpt lat="40.61419876109563" lon="17.432442427603522"><ele>354.0</ele><time>2026-03-29T09:09:54.999Z</time></trkpt><trkpt lat="40.61394575711967" lon="17.43247010243278"><ele>354.0</ele><time>2026-03-29T09:09:56Z</time></trkpt><trkpt lat="40.61366957917356" lon="17.43254472659637"><ele>354.0</ele><time>2026-03-29T09:09:57Z</time></trkpt><trkpt lat="40.61336610455019" lon="17.4326780782115"><ele>354.5</ele><time>2026-03-29T09:09:58Z</time></trkpt><trkpt lat="40.61307542485691" lon="17.432791052882337"><ele>355.0</ele><time>2026-03-29T09:09:59Z</time></trkpt><trkpt lat="40.61282494758148" lon="17.432922692640815"><ele>353.5</ele><time>2026-03-29T09:10:00Z</time></trkpt><trkpt lat="40.61255003733981" lon="17.433020405756903"><ele>352.0</ele><time>2026-03-29T09:10:01Z</time></trkpt><trkpt lat="40.61225358573461" lon="17.433098894059402"><ele>351.5</ele><time>2026-03-29T09:10:02Z</time></trkpt><trkpt lat="40.611977278735786" lon="17.433162047642035"><ele>351.0</ele><time>2026-03-29T09:10:03Z</time></trkpt><trkpt lat="40.61170370871063" lon="17.433222438080925"><ele>351.0</ele><time>2026-03-29T09:10:04Z</time></trkpt><trkpt lat="40.61140487704938" lon="17.433263153851843"><ele>351.0</ele><time>2026-03-29T09:10:05Z</time></trkpt><trkpt lat="40.61109824091872" lon="17.43329008860013"><ele>350.5</ele><time>2026-03-29T09:10:06Z</time></trkpt><trkpt lat="40.610796630573496" lon="17.433315494975506"><ele>350.0</ele><time>2026-03-29T09:10:07Z</time></trkpt><trkpt lat="40.61051000817017" lon="17.433361370082764"><ele>351.5</ele><time>2026-03-29T09:10:08Z</time></trkpt><trkpt lat="40.61022963428855" lon="17.43344529299622"><ele>353.0</ele><time>2026-03-29T09:10:09Z</time></trkpt><trkpt lat="40.609943560294084" lon="17.433580543775502"><ele>353.0</ele><time>2026-03-29T09:10:10Z</time></trkpt><trkpt lat="40.609655221709005" lon="17.433765227658874"><ele>353.0</ele><time>2026-03-29T09:10:11Z</time></trkpt><trkpt lat="40.60934410742765" lon="17.433919242171637"><ele>354.0</ele><time>2026-03-29T09:10:12Z</time></trkpt><trkpt lat="40.609059402955324" lon="17.434061287658196"><ele>355.0</ele><time>2026-03-29T09:10:13Z</time></trkpt><trkpt lat="40.60876960617573" lon="17.434207197552386"><ele>355.5</ele><time>2026-03-29T09:10:14Z</time></trkpt><trkpt lat="40.6084684040926" lon="17.43436076188651"><ele>356.0</ele><time>2026-03-29T09:10:15Z</time></trkpt><trkpt lat="40.608158101636256" lon="17.434516292470867"><ele>355.0</ele><time>2026-03-29T09:10:16Z</time></trkpt><trkpt lat="40.60787614710519" lon="17.434668507256653"><ele>354.0</ele><time>2026-03-29T09:10:17Z</time></trkpt><trkpt lat="40.60762102472481" lon="17.434830415090556"><ele>352.5</ele><time>2026-03-29T09:10:18Z</time></trkpt><trkpt lat="40.607387632683675" lon="17.435053721538168"><ele>351.0</ele><time>2026-03-29T09:10:19Z</time></trkpt><trkpt lat="40.607140524928724" lon="17.435227520906743"><ele>352.0</ele><time>2026-03-29T09:10:20Z</time></trkpt><trkpt lat="40.60692525538811" lon="17.435271576519323"><ele>353.0</ele><time>2026-03-29T09:10:21Z</time></trkpt><trkpt lat="40.606647676704156" lon="17.4352253051042"><ele>353.0</ele><time>2026-03-29T09:10:22Z</time></trkpt><trkpt lat="40.60636771579803" lon="17.43527961905049"><ele>353.0</ele><time>2026-03-29T09:10:23Z</time></trkpt><trkpt lat="40.606068133056105" lon="17.435426391497334"><ele>351.5</ele><time>2026-03-29T09:10:24Z</time></trkpt><trkpt lat="40.60574988940153" lon="17.435597538197694"><ele>350.0</ele><time>2026-03-29T09:10:25Z</time></trkpt><trkpt lat="40.60544385072713" lon="17.435760572852153"><ele>350.0</ele><time>2026-03-29T09:10:26Z</time></trkpt><trkpt lat="40.60515799120898" lon="17.435890873508836"><ele>350.0</ele><time>2026-03-29T09:10:27Z</time></trkpt><trkpt lat="40.60485823055241" lon="17.43600000576576"><ele>350.0</ele><time>2026-03-29T09:10:28Z</time></trkpt><trkpt lat="40.604559516533364" lon="17.43608253055727"><ele>350.0</ele><time>2026-03-29T09:10:29Z</time></trkpt><trkpt lat="40.60429937001949" lon="17.436159604779814"><ele>350.0</ele><time>2026-03-29T09:10:30Z</time></trkpt><trkpt lat="40.60405329978478" lon="17.436230551306636"><ele>350.0</ele><time>2026-03-29T09:10:31Z</time></trkpt><trkpt lat="40.60382117892459" lon="17.436298542222268"><ele>349.0</ele><time>2026-03-29T09:10:32Z</time></trkpt><trkpt lat="40.60358308072365" lon="17.436380518872543"><ele>348.0</ele><time>2026-03-29T09:10:33Z</time></trkpt><trkpt lat="40.60333458314406" lon="17.436457713085066"><ele>348.0</ele><time>2026-03-29T09:10:34Z</time></trkpt><trkpt lat="40.60307665447565" lon="17.436531092840905"><ele>348.0</ele><time>2026-03-29T09:10:35Z</time></trkpt><trkpt lat="40.60283914539493" lon="17.43659661199547"><ele>346.6666666666667</ele><time>2026-03-29T09:10:36Z</time></trkpt><trkpt lat="40.602623104899685" lon="17.436661036707278"><ele>345.33333333333337</ele><time>2026-03-29T09:10:37Z</time></trkpt><trkpt lat="40.602419785427195" lon="17.436734576248917"><ele>344.0</ele><time>2026-03-29T09:10:38Z</time></trkpt><trkpt lat="40.60223955981159" lon="17.436763662055803"><ele>344.0</ele><time>2026-03-29T09:10:39Z</time></trkpt><trkpt lat="40.60204377111389" lon="17.436757640225206"><ele>344.0</ele><time>2026-03-29T09:10:40Z</time></trkpt><trkpt lat="40.60184736429911" lon="17.436741150199335"><ele>344.0</ele><time>2026-03-29T09:10:41Z</time></trkpt><trkpt lat="40.60165514379408" lon="17.43671773559121"><ele>344.0</ele><time>2026-03-29T09:10:42Z</time></trkpt><trkpt lat="40.60146839558556" lon="17.4367055608128"><ele>344.0</ele><time>2026-03-29T09:10:43Z</time></trkpt><trkpt lat="40.60125476293115" lon="17.436695369448838"><ele>344.0</ele><time>2026-03-29T09:10:44Z</time></trkpt><trkpt lat="40.60100988822086" lon="17.436685609156147"><ele>344.0</ele><time>2026-03-29T09:10:45Z</time></trkpt><trkpt lat="40.60076047422176" lon="17.4366784153947"><ele>344.0</ele><time>2026-03-29T09:10:46Z</time></trkpt><trkpt lat="40.60049279844267" lon="17.436625497096074"><ele>343.5</ele><time>2026-03-29T09:10:47Z</time></trkpt><trkpt lat="40.60021073904406" lon="17.43663807763037"><ele>343.0</ele><time>2026-03-29T09:10:48Z</time></trkpt><trkpt lat="40.599931968236234" lon="17.436651477424412"><ele>343.0</ele><time>2026-03-29T09:10:49Z</time></trkpt><trkpt lat="40.59967411892608" lon="17.436652557425447"><ele>343.0</ele><time>2026-03-29T09:10:50Z</time></trkpt><trkpt lat="40.5994386791771" lon="17.43665205946243"><ele>342.5</ele><time>2026-03-29T09:10:51Z</time></trkpt><trkpt lat="40.59920043625434" lon="17.436661580112176"><ele>342.0</ele><time>2026-03-29T09:10:52Z</time></trkpt><trkpt lat="40.59895450713189" lon="17.436670075126894"><ele>342.0</ele><time>2026-03-29T09:10:53Z</time></trkpt><trkpt lat="40.5987047097201" lon="17.436686733277366"><ele>342.0</ele><time>2026-03-29T09:10:54Z</time></trkpt><trkpt lat="40.59846947968018" lon="17.43671500066648"><ele>341.3333333333333</ele><time>2026-03-29T09:10:55Z</time></trkpt><trkpt lat="40.598271864468884" lon="17.436750510536374"><ele>340.66666666666663</ele><time>2026-03-29T09:10:55.999Z</time></trkpt><trkpt lat="40.59810008478764" lon="17.436786397768692"><ele>340.0</ele><time>2026-03-29T09:10:56.999Z</time></trkpt><trkpt lat="40.597922674181646" lon="17.436826281877277"><ele>338.0</ele><time>2026-03-29T09:10:57.999Z</time></trkpt><trkpt lat="40.59771185923742" lon="17.436878320747404"><ele>336.0</ele><time>2026-03-29T09:10:58.999Z</time></trkpt><trkpt lat="40.59745862656254" lon="17.436908981365654"><ele>336.0</ele><time>2026-03-29T09:10:59.999Z</time></trkpt><trkpt lat="40.59717761861346" lon="17.43693577590381"><ele>336.0</ele><time>2026-03-29T09:11:00.999Z</time></trkpt><trkpt lat="40.596882669917875" lon="17.43698230594838"><ele>333.5</ele><time>2026-03-29T09:11:01.999Z</time></trkpt><trkpt lat="40.59661365496565" lon="17.437044084289077"><ele>331.0</ele><time>2026-03-29T09:11:02.999Z</time></trkpt><trkpt lat="40.5963599424593" lon="17.437105453058415"><ele>328.5</ele><time>2026-03-29T09:11:03.999Z</time></trkpt><trkpt lat="40.59611176287639" lon="17.437231626919523"><ele>326.0</ele><time>2026-03-29T09:11:04.999Z</time></trkpt><trkpt lat="40.59592094211211" lon="17.437298844289316"><ele>326.0</ele><time>2026-03-29T09:11:05.999Z</time></trkpt><trkpt lat="40.59572112318503" lon="17.4374129961017"><ele>326.0</ele><time>2026-03-29T09:11:06.999Z</time></trkpt><trkpt lat="40.59551812448782" lon="17.437152919339123"><ele>323.5</ele><time>2026-03-29T09:11:07.999Z</time></trkpt><trkpt lat="40.595284867740155" lon="17.43702657785233"><ele>321.0</ele><time>2026-03-29T09:11:08.999Z</time></trkpt><trkpt lat="40.59504616889344" lon="17.43693573992652"><ele>321.0</ele><time>2026-03-29T09:11:09.999Z</time></trkpt><trkpt lat="40.59477140084109" lon="17.43683608817574"><ele>321.0</ele><time>2026-03-29T09:11:10.999Z</time></trkpt><trkpt lat="40.59449554556209" lon="17.43675127603898"><ele>316.0</ele><time>2026-03-29T09:11:11.999Z</time></trkpt><trkpt lat="40.59425559357214" lon="17.43667727715658"><ele>311.0</ele><time>2026-03-29T09:11:12.999Z</time></trkpt><trkpt lat="40.59405044035029" lon="17.436604222106364"><ele>311.0</ele><time>2026-03-29T09:11:13.999Z</time></trkpt><trkpt lat="40.593854249783554" lon="17.436502706715352"><ele>311.0</ele><time>2026-03-29T09:11:14.999Z</time></trkpt><trkpt lat="40.59365736061182" lon="17.43635076584359"><ele>311.0</ele><time>2026-03-29T09:11:15.999Z</time></trkpt><trkpt lat="40.59346503671798" lon="17.436163194526234"><ele>309.6666666666667</ele><time>2026-03-29T09:11:16.999Z</time></trkpt><trkpt lat="40.59329352810812" lon="17.435972216267356"><ele>308.3333333333333</ele><time>2026-03-29T09:11:17.999Z</time></trkpt><trkpt lat="40.59316036492718" lon="17.435806962842666"><ele>307.0</ele><time>2026-03-29T09:11:18.999Z</time></trkpt><trkpt lat="40.59301747688861" lon="17.43565028290868"><ele>308.3333333333333</ele><time>2026-03-29T09:11:19.999Z</time></trkpt><trkpt lat="40.59289684688156" lon="17.43545457005047"><ele>309.6666666666667</ele><time>2026-03-29T09:11:20.999Z</time></trkpt><trkpt lat="40.59277996440913" lon="17.435214872300342"><ele>311.0</ele><time>2026-03-29T09:11:21.999Z</time></trkpt><trkpt lat="40.59267302035277" lon="17.434981070807652"><ele>308.0</ele><time>2026-03-29T09:11:22.999Z</time></trkpt><trkpt lat="40.59259945564096" lon="17.434718995305754"><ele>305.0</ele><time>2026-03-29T09:11:23.999Z</time></trkpt><trkpt lat="40.59253563422483" lon="17.43442502252152"><ele>302.0</ele><time>2026-03-29T09:11:24.999Z</time></trkpt><trkpt lat="40.59249440150019" lon="17.434085943039047"><ele>300.5</ele><time>2026-03-29T09:11:25.999Z</time></trkpt><trkpt lat="40.592446487259274" lon="17.43375110639551"><ele>299.0</ele><time>2026-03-29T09:11:26.999Z</time></trkpt><trkpt lat="40.59241897080509" lon="17.433439444697242"><ele>299.0</ele><time>2026-03-29T09:11:27.999Z</time></trkpt><trkpt lat="40.5923900972734" lon="17.43316467196779"><ele>299.0</ele><time>2026-03-29T09:11:28.999Z</time></trkpt><trkpt lat="40.592359571548684" lon="17.432924346832433"><ele>299.0</ele><time>2026-03-29T09:11:29.999Z</time></trkpt><trkpt lat="40.59234391752565" lon="17.43264057463026"><ele>298.5</ele><time>2026-03-29T09:11:30.999Z</time></trkpt><trkpt lat="40.59227496681655" lon="17.432353727416626"><ele>298.0</ele><time>2026-03-29T09:11:31.999Z</time></trkpt><trkpt lat="40.59214331870326" lon="17.432087097294335"><ele>297.0</ele><time>2026-03-29T09:11:32.999Z</time></trkpt><trkpt lat="40.592084199531705" lon="17.431901255622236"><ele>296.0</ele><time>2026-03-29T09:11:33.999Z</time></trkpt><trkpt lat="40.59190854649788" lon="17.431720365238426"><ele>295.0</ele><time>2026-03-29T09:11:34.999Z</time></trkpt><trkpt lat="40.59166599440738" lon="17.431573859365724"><ele>293.0</ele><time>2026-03-29T09:11:35.999Z</time></trkpt><trkpt lat="40.591368327191624" lon="17.43145779323726"><ele>291.0</ele><time>2026-03-29T09:11:36.999Z</time></trkpt><trkpt lat="40.59103458517159" lon="17.431342587219067"><ele>289.0</ele><time>2026-03-29T09:11:37.999Z</time></trkpt><trkpt lat="40.590675456624375" lon="17.431202534596746"><ele>287.0</ele><time>2026-03-29T09:11:38.999Z</time></trkpt><trkpt lat="40.59035890191691" lon="17.431072224515678"><ele>285.0</ele><time>2026-03-29T09:11:39.999Z</time></trkpt><trkpt lat="40.59006322592576" lon="17.430970026574705"><ele>283.0</ele><time>2026-03-29T09:11:40.999Z</time></trkpt><trkpt lat="40.589813056123916" lon="17.430878150935097"><ele>283.0</ele><time>2026-03-29T09:11:41.999Z</time></trkpt><trkpt lat="40.58961949930064" lon="17.430807422431158"><ele>283.0</ele><time>2026-03-29T09:11:42.999Z</time></trkpt><trkpt lat="40.58945129551716" lon="17.430709523622195"><ele>283.0</ele><time>2026-03-29T09:11:43.999Z</time></trkpt><trkpt lat="40.58928724343254" lon="17.430541610732426"><ele>280.0</ele><time>2026-03-29T09:11:44.999Z</time></trkpt><trkpt lat="40.589086340953" lon="17.43036308378071"><ele>277.0</ele><time>2026-03-29T09:11:45.999Z</time></trkpt><trkpt lat="40.58885742598963" lon="17.430195580823614"><ele>275.5</ele><time>2026-03-29T09:11:46.999Z</time></trkpt><trkpt lat="40.588637047096476" lon="17.430008599800612"><ele>274.0</ele><time>2026-03-29T09:11:47.999Z</time></trkpt><trkpt lat="40.5883769908689" lon="17.42992162517588"><ele>274.0</ele><time>2026-03-29T09:11:48.999Z</time></trkpt><trkpt lat="40.58816238768969" lon="17.429816723396875"><ele>274.0</ele><time>2026-03-29T09:11:49.999Z</time></trkpt><trkpt lat="40.587965571197735" lon="17.429699987559612"><ele>274.0</ele><time>2026-03-29T09:11:50.999Z</time></trkpt><trkpt lat="40.58778812761671" lon="17.429607679100446"><ele>272.3333333333333</ele><time>2026-03-29T09:11:51.999Z</time></trkpt><trkpt lat="40.58760485422078" lon="17.429528543653717"><ele>270.6666666666667</ele><time>2026-03-29T09:11:52.999Z</time></trkpt><trkpt lat="40.58739046826242" lon="17.42946916418312"><ele>269.0</ele><time>2026-03-29T09:11:53.999Z</time></trkpt><trkpt lat="40.587163033775" lon="17.429462787342942"><ele>267.5</ele><time>2026-03-29T09:11:54.999Z</time></trkpt><trkpt lat="40.58692728208188" lon="17.42960984247064"><ele>266.0</ele><time>2026-03-29T09:11:55.999Z</time></trkpt><trkpt lat="40.58674724902833" lon="17.42974574771378"><ele>266.0</ele><time>2026-03-29T09:11:56.999Z</time></trkpt><trkpt lat="40.586626157154775" lon="17.430029567892642"><ele>266.0</ele><time>2026-03-29T09:11:57.999Z</time></trkpt><trkpt lat="40.58652275110675" lon="17.430235486761458"><ele>266.0</ele><time>2026-03-29T09:11:58.999Z</time></trkpt><trkpt lat="40.58645273835477" lon="17.43038269573151"><ele>266.5</ele><time>2026-03-29T09:11:59.999Z</time></trkpt><trkpt lat="40.58629526750121" lon="17.430863326167646"><ele>267.0</ele><time>2026-03-29T09:12:00.999Z</time></trkpt><trkpt lat="40.58614146444463" lon="17.43103238810736"><ele>266.6666666666667</ele><time>2026-03-29T09:12:02Z</time></trkpt><trkpt lat="40.58604252252513" lon="17.431259348277102"><ele>266.33333333333337</ele><time>2026-03-29T09:12:03Z</time></trkpt><trkpt lat="40.58590192424154" lon="17.431392909906954"><ele>266.0</ele><time>2026-03-29T09:12:04Z</time></trkpt><trkpt lat="40.585688564752076" lon="17.431509150445528"><ele>266.0</ele><time>2026-03-29T09:12:05Z</time></trkpt><trkpt lat="40.5854788882085" lon="17.431591457222865"><ele>266.0</ele><time>2026-03-29T09:12:06Z</time></trkpt><trkpt lat="40.58522038789974" lon="17.431720024621136"><ele>264.5</ele><time>2026-03-29T09:12:07Z</time></trkpt><trkpt lat="40.58492137885876" lon="17.431878770848456"><ele>263.0</ele><time>2026-03-29T09:12:08Z</time></trkpt><trkpt lat="40.58466597579792" lon="17.432019554572946"><ele>261.5</ele><time>2026-03-29T09:12:09Z</time></trkpt><trkpt lat="40.584404755042" lon="17.432144339248495"><ele>260.0</ele><time>2026-03-29T09:12:10Z</time></trkpt><trkpt lat="40.58415280333978" lon="17.432263281930314"><ele>260.0</ele><time>2026-03-29T09:12:11Z</time></trkpt><trkpt lat="40.583918792239146" lon="17.432381672618842"><ele>260.0</ele><time>2026-03-29T09:12:12Z</time></trkpt><trkpt lat="40.58368632400238" lon="17.432485320165366"><ele>259.0</ele><time>2026-03-29T09:12:13Z</time></trkpt><trkpt lat="40.58347526236006" lon="17.432542769755372"><ele>258.0</ele><time>2026-03-29T09:12:14Z</time></trkpt><trkpt lat="40.5832201639745" lon="17.43255826693456"><ele>258.0</ele><time>2026-03-29T09:12:15Z</time></trkpt><trkpt lat="40.58295846406675" lon="17.432565294739852"><ele>258.0</ele><time>2026-03-29T09:12:16Z</time></trkpt><trkpt lat="40.58267443786859" lon="17.43252504679704"><ele>257.0</ele><time>2026-03-29T09:12:17Z</time></trkpt><trkpt lat="40.58242637511255" lon="17.432491514232204"><ele>256.0</ele><time>2026-03-29T09:12:18Z</time></trkpt><trkpt lat="40.58222186367769" lon="17.432473553269034"><ele>256.0</ele><time>2026-03-29T09:12:19Z</time></trkpt><trkpt lat="40.58203460611289" lon="17.432462890136495"><ele>256.0</ele><time>2026-03-29T09:12:20Z</time></trkpt><trkpt lat="40.58188004962568" lon="17.43241630632706"><ele>256.0</ele><time>2026-03-29T09:12:21Z</time></trkpt><trkpt lat="40.581743381999274" lon="17.43231977833836"><ele>255.5</ele><time>2026-03-29T09:12:22Z</time></trkpt><trkpt lat="40.581657309939715" lon="17.432209453070367"><ele>255.0</ele><time>2026-03-29T09:12:23Z</time></trkpt><trkpt lat="40.5815836971492" lon="17.432066036629408"><ele>254.5</ele><time>2026-03-29T09:12:24Z</time></trkpt><trkpt lat="40.581557382411084" lon="17.43191009042459"><ele>254.0</ele><time>2026-03-29T09:12:25Z</time></trkpt><trkpt lat="40.581548434557995" lon="17.431736274622004"><ele>252.33333333333334</ele><time>2026-03-29T09:12:26Z</time></trkpt><trkpt lat="40.581545444449375" lon="17.431521653391894"><ele>250.66666666666669</ele><time>2026-03-29T09:12:27Z</time></trkpt><trkpt lat="40.581564280312726" lon="17.431267616366018"><ele>249.0</ele><time>2026-03-29T09:12:28Z</time></trkpt><trkpt lat="40.58161228115838" lon="17.431062091430967"><ele>246.33333333333331</ele><time>2026-03-29T09:12:29Z</time></trkpt><trkpt lat="40.58168121863255" lon="17.4308298585897"><ele>243.66666666666666</ele><time>2026-03-29T09:12:30Z</time></trkpt><trkpt lat="40.581765813990955" lon="17.43063578841228"><ele>241.0</ele><time>2026-03-29T09:12:31Z</time></trkpt><trkpt lat="40.581878625664736" lon="17.430485539064374"><ele>239.5</ele><time>2026-03-29T09:12:32Z</time></trkpt><trkpt lat="40.58201012404774" lon="17.430337034559663"><ele>238.0</ele><time>2026-03-29T09:12:33Z</time></trkpt><trkpt lat="40.58208025022454" lon="17.43021400262438"><ele>236.5</ele><time>2026-03-29T09:12:34Z</time></trkpt><trkpt lat="40.58212228295131" lon="17.430075350567765"><ele>235.0</ele><time>2026-03-29T09:12:35Z</time></trkpt><trkpt lat="40.58214667917293" lon="17.42995738054508"><ele>234.5</ele><time>2026-03-29T09:12:36Z</time></trkpt><trkpt lat="40.58215186061318" lon="17.429818000332805"><ele>234.0</ele><time>2026-03-29T09:12:37Z</time></trkpt><trkpt lat="40.58213335200094" lon="17.429644478259632"><ele>233.5</ele><time>2026-03-29T09:12:38Z</time></trkpt><trkpt lat="40.58203509179241" lon="17.429425089929776"><ele>233.0</ele><time>2026-03-29T09:12:39Z</time></trkpt><trkpt lat="40.58193611093381" lon="17.4292117852919"><ele>231.33333333333334</ele><time>2026-03-29T09:12:40Z</time></trkpt><trkpt lat="40.58182678067755" lon="17.428983990697073"><ele>229.66666666666669</ele><time>2026-03-29T09:12:41Z</time></trkpt><trkpt lat="40.58171823530859" lon="17.42880132021622"><ele>228.0</ele><time>2026-03-29T09:12:42Z</time></trkpt><trkpt lat="40.58159126780593" lon="17.428667269232946"><ele>227.0</ele><time>2026-03-29T09:12:43Z</time></trkpt><trkpt lat="40.58140425387088" lon="17.4285236110427"><ele>226.0</ele><time>2026-03-29T09:12:44Z</time></trkpt><trkpt lat="40.58119370580031" lon="17.428395329705758"><ele>225.0</ele><time>2026-03-29T09:12:45Z</time></trkpt><trkpt lat="40.58100492865151" lon="17.42827076931828"><ele>225.0</ele><time>2026-03-29T09:12:46Z</time></trkpt><trkpt lat="40.58085887471487" lon="17.428142498062876"><ele>225.0</ele><time>2026-03-29T09:12:47Z</time></trkpt><trkpt lat="40.580727812769894" lon="17.428063606816032"><ele>225.0</ele><time>2026-03-29T09:12:48Z</time></trkpt><trkpt lat="40.580618146579894" lon="17.427984029003817"><ele>225.0</ele><time>2026-03-29T09:12:49Z</time></trkpt><trkpt lat="40.58051867650946" lon="17.427930217895998"><ele>224.25</ele><time>2026-03-29T09:12:50Z</time></trkpt><trkpt lat="40.580432488763215" lon="17.427862017933517"><ele>223.5</ele><time>2026-03-29T09:12:51Z</time></trkpt><trkpt lat="40.58030647609536" lon="17.427875858531902"><ele>222.75</ele><time>2026-03-29T09:12:52Z</time></trkpt><trkpt lat="40.580147614592946" lon="17.427895024386036"><ele>222.0</ele><time>2026-03-29T09:12:53Z</time></trkpt><trkpt lat="40.57997719298929" lon="17.427942698152627"><ele>221.33333333333331</ele><time>2026-03-29T09:12:54Z</time></trkpt><trkpt lat="40.579819024511266" lon="17.428016315235435"><ele>220.66666666666666</ele><time>2026-03-29T09:12:55Z</time></trkpt><trkpt lat="40.57968602015902" lon="17.428091320942244"><ele>220.0</ele><time>2026-03-29T09:12:56Z</time></trkpt><trkpt lat="40.579557532296725" lon="17.428166021004156"><ele>219.0</ele><time>2026-03-29T09:12:57Z</time></trkpt><trkpt lat="40.57943424105269" lon="17.428191876870862"><ele>218.0</ele><time>2026-03-29T09:12:58Z</time></trkpt><trkpt lat="40.57929665806359" lon="17.428161556545714"><ele>217.0</ele><time>2026-03-29T09:12:59Z</time></trkpt><trkpt lat="40.57913845951981" lon="17.42805292202214"><ele>216.0</ele><time>2026-03-29T09:13:00Z</time></trkpt><trkpt lat="40.57895820629564" lon="17.42790047002223"><ele>215.0</ele><time>2026-03-29T09:13:01Z</time></trkpt><trkpt lat="40.5787516661225" lon="17.427757163849076"><ele>214.0</ele><time>2026-03-29T09:13:02Z</time></trkpt><trkpt lat="40.578501250410376" lon="17.427595368844404"><ele>210.0</ele><time>2026-03-29T09:13:03Z</time></trkpt><trkpt lat="40.57824596420148" lon="17.427430658647413"><ele>206.0</ele><time>2026-03-29T09:13:04Z</time></trkpt><trkpt lat="40.57796632995298" lon="17.42724722235415"><ele>202.5</ele><time>2026-03-29T09:13:05Z</time></trkpt><trkpt lat="40.57766917274343" lon="17.42706189832413"><ele>199.0</ele><time>2026-03-29T09:13:06Z</time></trkpt><trkpt lat="40.57739053442542" lon="17.426868303280628"><ele>199.0</ele><time>2026-03-29T09:13:07Z</time></trkpt><trkpt lat="40.5771182989053" lon="17.42668130008485"><ele>199.0</ele><time>2026-03-29T09:13:08Z</time></trkpt><trkpt lat="40.57685520710134" lon="17.42651502950919"><ele>197.0</ele><time>2026-03-29T09:13:09Z</time></trkpt><trkpt lat="40.5766223547777" lon="17.42634930256436"><ele>195.0</ele><time>2026-03-29T09:13:10Z</time></trkpt><trkpt lat="40.57640196321402" lon="17.42619994451788"><ele>192.5</ele><time>2026-03-29T09:13:11Z</time></trkpt><trkpt lat="40.57617642277115" lon="17.426032345751263"><ele>190.0</ele><time>2026-03-29T09:13:11.999Z</time></trkpt><trkpt lat="40.575939439195494" lon="17.425863426406426"><ele>190.0</ele><time>2026-03-29T09:13:12.999Z</time></trkpt><trkpt lat="40.575701064409984" lon="17.42570469917409"><ele>190.0</ele><time>2026-03-29T09:13:13.999Z</time></trkpt><trkpt lat="40.57547388154888" lon="17.425545016355073"><ele>187.5</ele><time>2026-03-29T09:13:14.999Z</time></trkpt><trkpt lat="40.57525823723482" lon="17.425392584271485"><ele>185.0</ele><time>2026-03-29T09:13:15.999Z</time></trkpt><trkpt lat="40.57504112805409" lon="17.425225168591453"><ele>185.0</ele><time>2026-03-29T09:13:16.999Z</time></trkpt><trkpt lat="40.57482146281596" lon="17.425017188364873"><ele>185.0</ele><time>2026-03-29T09:13:17.999Z</time></trkpt><trkpt lat="40.574619244227016" lon="17.424796841773492"><ele>184.5</ele><time>2026-03-29T09:13:18.999Z</time></trkpt><trkpt lat="40.57443875938965" lon="17.424546508970796"><ele>184.0</ele><time>2026-03-29T09:13:19.999Z</time></trkpt><trkpt lat="40.57427446416517" lon="17.424345312402643"><ele>184.0</ele><time>2026-03-29T09:13:20.999Z</time></trkpt><trkpt lat="40.574110122909644" lon="17.424169187835883"><ele>184.0</ele><time>2026-03-29T09:13:21.999Z</time></trkpt><trkpt lat="40.573921758838765" lon="17.42402654376668"><ele>184.0</ele><time>2026-03-29T09:13:22.999Z</time></trkpt><trkpt lat="40.57368413030043" lon="17.42394871958234"><ele>183.0</ele><time>2026-03-29T09:13:23.999Z</time></trkpt><trkpt lat="40.57340745402948" lon="17.42390149873327"><ele>182.0</ele><time>2026-03-29T09:13:24.999Z</time></trkpt><trkpt lat="40.573104404005186" lon="17.42386761563243"><ele>179.5</ele><time>2026-03-29T09:13:25.999Z</time></trkpt><trkpt lat="40.572798623401205" lon="17.423777882422037"><ele>177.0</ele><time>2026-03-29T09:13:26.999Z</time></trkpt><trkpt lat="40.57251074283384" lon="17.423713564183092"><ele>177.0</ele><time>2026-03-29T09:13:27.999Z</time></trkpt><trkpt lat="40.5722608186585" lon="17.423663138059265"><ele>177.0</ele><time>2026-03-29T09:13:28.999Z</time></trkpt><trkpt lat="40.572003225473864" lon="17.423575906239183"><ele>176.0</ele><time>2026-03-29T09:13:29.999Z</time></trkpt><trkpt lat="40.571773456591345" lon="17.4234795617524"><ele>175.0</ele><time>2026-03-29T09:13:30.999Z</time></trkpt><trkpt lat="40.57152107253074" lon="17.42331196927218"><ele>175.0</ele><time>2026-03-29T09:13:31.999Z</time></trkpt><trkpt lat="40.57126221962188" lon="17.423201911318955"><ele>175.0</ele><time>2026-03-29T09:13:32.999Z</time></trkpt><trkpt lat="40.57099778357578" lon="17.423069159066696"><ele>174.0</ele><time>2026-03-29T09:13:33.999Z</time></trkpt><trkpt lat="40.57074745103712" lon="17.422936478056"><ele>173.0</ele><time>2026-03-29T09:13:34.999Z</time></trkpt><trkpt lat="40.57050202334245" lon="17.422810164143517"><ele>172.5</ele><time>2026-03-29T09:13:35.999Z</time></trkpt><trkpt lat="40.570253507376655" lon="17.42268746714151"><ele>172.0</ele><time>2026-03-29T09:13:36.999Z</time></trkpt><trkpt lat="40.569994698161736" lon="17.42255586211903"><ele>172.0</ele><time>2026-03-29T09:13:37.999Z</time></trkpt><trkpt lat="40.56973962796998" lon="17.42241270125255"><ele>172.0</ele><time>2026-03-29T09:13:38.999Z</time></trkpt><trkpt lat="40.56952150580087" lon="17.422264258526074"><ele>169.5</ele><time>2026-03-29T09:13:39.999Z</time></trkpt><trkpt lat="40.569308905028585" lon="17.42212988400654"><ele>167.0</ele><time>2026-03-29T09:13:40.999Z</time></trkpt><trkpt lat="40.56911798651968" lon="17.42199282908067"><ele>167.0</ele><time>2026-03-29T09:13:41.999Z</time></trkpt><trkpt lat="40.568886061101374" lon="17.421841443265844"><ele>167.0</ele><time>2026-03-29T09:13:42.999Z</time></trkpt><trkpt lat="40.56866987112215" lon="17.42167678691552"><ele>166.0</ele><time>2026-03-29T09:13:43.999Z</time></trkpt><trkpt lat="40.568467366653366" lon="17.42149611937312"><ele>165.0</ele><time>2026-03-29T09:13:44.999Z</time></trkpt><trkpt lat="40.56825724747928" lon="17.421350597662954"><ele>163.66666666666666</ele><time>2026-03-29T09:13:45.999Z</time></trkpt><trkpt lat="40.56806476782599" lon="17.421201492109102"><ele>162.33333333333331</ele><time>2026-03-29T09:13:46.999Z</time></trkpt><trkpt lat="40.567873428250834" lon="17.421097341223017"><ele>161.0</ele><time>2026-03-29T09:13:47.999Z</time></trkpt><trkpt lat="40.567670619725405" lon="17.421038571811916"><ele>160.66666666666666</ele><time>2026-03-29T09:13:48.999Z</time></trkpt><trkpt lat="40.56745477917936" lon="17.421052226209163"><ele>160.33333333333334</ele><time>2026-03-29T09:13:49.999Z</time></trkpt><trkpt lat="40.5672424574136" lon="17.421126929965734"><ele>160.0</ele><time>2026-03-29T09:13:50.999Z</time></trkpt><trkpt lat="40.567019008016345" lon="17.42126147318931"><ele>158.5</ele><time>2026-03-29T09:13:51.999Z</time></trkpt><trkpt lat="40.56676005886298" lon="17.421427622355203"><ele>157.0</ele><time>2026-03-29T09:13:52.999Z</time></trkpt><trkpt lat="40.56648830472448" lon="17.421619156225557"><ele>157.0</ele><time>2026-03-29T09:13:53.999Z</time></trkpt><trkpt lat="40.56626619182665" lon="17.421880900548853"><ele>157.0</ele><time>2026-03-29T09:13:54.999Z</time></trkpt><trkpt lat="40.56609322943446" lon="17.422154029700494"><ele>156.0</ele><time>2026-03-29T09:13:55.999Z</time></trkpt><trkpt lat="40.56592651656869" lon="17.422369967674285"><ele>155.0</ele><time>2026-03-29T09:13:56.999Z</time></trkpt><trkpt lat="40.56574436679701" lon="17.422532136520708"><ele>155.0</ele><time>2026-03-29T09:13:57.999Z</time></trkpt><trkpt lat="40.56555974547372" lon="17.42261851705814"><ele>155.0</ele><time>2026-03-29T09:13:58.999Z</time></trkpt><trkpt lat="40.56530397677608" lon="17.422719371775585"><ele>154.0</ele><time>2026-03-29T09:13:59.999Z</time></trkpt><trkpt lat="40.56499650917846" lon="17.422821107509908"><ele>153.0</ele><time>2026-03-29T09:14:00.999Z</time></trkpt><trkpt lat="40.564693251119" lon="17.42292832878775"><ele>154.5</ele><time>2026-03-29T09:14:01.999Z</time></trkpt><trkpt lat="40.564417920062" lon="17.423012918940767"><ele>156.0</ele><time>2026-03-29T09:14:02.999Z</time></trkpt><trkpt lat="40.56416571522796" lon="17.42309975002897"><ele>156.0</ele><time>2026-03-29T09:14:03.999Z</time></trkpt><trkpt lat="40.563908892430106" lon="17.423177044841992"><ele>156.0</ele><time>2026-03-29T09:14:04.999Z</time></trkpt><trkpt lat="40.56366247326012" lon="17.423253769765157"><ele>155.0</ele><time>2026-03-29T09:14:05.999Z</time></trkpt><trkpt lat="40.563343402879305" lon="17.423320686243542"><ele>154.0</ele><time>2026-03-29T09:14:06.999Z</time></trkpt><trkpt lat="40.56297983107887" lon="17.423389960584096"><ele>155.0</ele><time>2026-03-29T09:14:08Z</time></trkpt><trkpt lat="40.56267893527469" lon="17.423447070416188"><ele>156.0</ele><time>2026-03-29T09:14:09Z</time></trkpt><trkpt lat="40.56236136611164" lon="17.42350563482173"><ele>156.0</ele><time>2026-03-29T09:14:10Z</time></trkpt><trkpt lat="40.56217103731659" lon="17.423540734256996"><ele>156.0</ele><time>2026-03-29T09:14:11Z</time></trkpt><trkpt lat="40.561888028698924" lon="17.423592925200207"><ele>156.0</ele><time>2026-03-29T09:14:12Z</time></trkpt><trkpt lat="40.561612615973154" lon="17.42362857374876"><ele>156.0</ele><time>2026-03-29T09:14:13Z</time></trkpt><trkpt lat="40.56134248441077" lon="17.42363799295082"><ele>154.5</ele><time>2026-03-29T09:14:14Z</time></trkpt><trkpt lat="40.56104925141379" lon="17.42365492501971"><ele>153.0</ele><time>2026-03-29T09:14:15Z</time></trkpt><trkpt lat="40.56077396481066" lon="17.423690479791166"><ele>153.0</ele><time>2026-03-29T09:14:16Z</time></trkpt><trkpt lat="40.56049660358964" lon="17.42371997205223"><ele>153.0</ele><time>2026-03-29T09:14:17Z</time></trkpt><trkpt lat="40.5602436016259" lon="17.423793365579208"><ele>153.5</ele><time>2026-03-29T09:14:18Z</time></trkpt><trkpt lat="40.55999510905176" lon="17.42384591734538"><ele>154.0</ele><time>2026-03-29T09:14:19Z</time></trkpt><trkpt lat="40.559761331685465" lon="17.42390392020349"><ele>152.0</ele><time>2026-03-29T09:14:20Z</time></trkpt><trkpt lat="40.55951804519143" lon="17.423954734031806"><ele>150.0</ele><time>2026-03-29T09:14:21Z</time></trkpt><trkpt lat="40.559301130995856" lon="17.42397599703382"><ele>150.0</ele><time>2026-03-29T09:14:22Z</time></trkpt><trkpt lat="40.559101190601346" lon="17.423945411000954"><ele>150.0</ele><time>2026-03-29T09:14:23Z</time></trkpt><trkpt lat="40.55889361903042" lon="17.42387797931505"><ele>150.0</ele><time>2026-03-29T09:14:24Z</time></trkpt><trkpt lat="40.5586491901546" lon="17.423784802785136"><ele>148.0</ele><time>2026-03-29T09:14:25Z</time></trkpt><trkpt lat="40.558377290352965" lon="17.423677406561993"><ele>146.0</ele><time>2026-03-29T09:14:26Z</time></trkpt><trkpt lat="40.558124202161665" lon="17.423583040723667"><ele>145.0</ele><time>2026-03-29T09:14:27Z</time></trkpt><trkpt lat="40.55786150816443" lon="17.423487216953525"><ele>144.0</ele><time>2026-03-29T09:14:28Z</time></trkpt><trkpt lat="40.5576064534776" lon="17.42339456306316"><ele>144.0</ele><time>2026-03-29T09:14:29Z</time></trkpt><trkpt lat="40.55735166583874" lon="17.42330200616529"><ele>144.0</ele><time>2026-03-29T09:14:30Z</time></trkpt><trkpt lat="40.55711273570006" lon="17.4232385428845"><ele>143.0</ele><time>2026-03-29T09:14:31Z</time></trkpt><trkpt lat="40.55688076913952" lon="17.423136910104205"><ele>142.0</ele><time>2026-03-29T09:14:32Z</time></trkpt><trkpt lat="40.55664497813641" lon="17.423053795204314"><ele>141.66666666666669</ele><time>2026-03-29T09:14:33Z</time></trkpt><trkpt lat="40.55643266241596" lon="17.42297895542997"><ele>141.33333333333334</ele><time>2026-03-29T09:14:34Z</time></trkpt><trkpt lat="40.55623021942537" lon="17.42291027846838"><ele>141.0</ele><time>2026-03-29T09:14:35Z</time></trkpt><trkpt lat="40.556010861802854" lon="17.422845814117228"><ele>140.5</ele><time>2026-03-29T09:14:36Z</time></trkpt><trkpt lat="40.55571193428261" lon="17.423037691715855"><ele>140.0</ele><time>2026-03-29T09:14:37Z</time></trkpt><trkpt lat="40.555417329822546" lon="17.423088965252507"><ele>140.0</ele><time>2026-03-29T09:14:38Z</time></trkpt><trkpt lat="40.555128127223746" lon="17.42313075348797"><ele>140.0</ele><time>2026-03-29T09:14:39Z</time></trkpt><trkpt lat="40.55478601577388" lon="17.423208340547976"><ele>139.0</ele><time>2026-03-29T09:14:40Z</time></trkpt><trkpt lat="40.554433922652" lon="17.42326199274928"><ele>138.0</ele><time>2026-03-29T09:14:41Z</time></trkpt><trkpt lat="40.554060234759504" lon="17.423315708429257"><ele>138.0</ele><time>2026-03-29T09:14:42Z</time></trkpt><trkpt lat="40.55373284109969" lon="17.423325390004226"><ele>138.0</ele><time>2026-03-29T09:14:43Z</time></trkpt><trkpt lat="40.55342759957792" lon="17.42335379693438"><ele>138.0</ele><time>2026-03-29T09:14:44Z</time></trkpt><trkpt lat="40.55313834355641" lon="17.423395472772714"><ele>138.0</ele><time>2026-03-29T09:14:45Z</time></trkpt><trkpt lat="40.55284289781645" lon="17.423388491902497"><ele>137.0</ele><time>2026-03-29T09:14:46Z</time></trkpt><trkpt lat="40.552561862364776" lon="17.42343493948485"><ele>136.0</ele><time>2026-03-29T09:14:47Z</time></trkpt><trkpt lat="40.55230227965044" lon="17.423490087785858"><ele>136.5</ele><time>2026-03-29T09:14:48Z</time></trkpt><trkpt lat="40.55203851402925" lon="17.423528253966364"><ele>137.0</ele><time>2026-03-29T09:14:49Z</time></trkpt><trkpt lat="40.55177005624415" lon="17.42357376971302"><ele>137.0</ele><time>2026-03-29T09:14:50Z</time></trkpt><trkpt lat="40.55150957783553" lon="17.423641613113627"><ele>137.0</ele><time>2026-03-29T09:14:51Z</time></trkpt><trkpt lat="40.5512456973106" lon="17.423743616106755"><ele>137.0</ele><time>2026-03-29T09:14:52Z</time></trkpt><trkpt lat="40.550976046820736" lon="17.42387481895143"><ele>137.0</ele><time>2026-03-29T09:14:53Z</time></trkpt><trkpt lat="40.55072153601311" lon="17.424008572492138"><ele>137.0</ele><time>2026-03-29T09:14:54Z</time></trkpt><trkpt lat="40.55045912895917" lon="17.424150910734326"><ele>137.0</ele><time>2026-03-29T09:14:55Z</time></trkpt><trkpt lat="40.550212431331616" lon="17.424372000430637"><ele>137.0</ele><time>2026-03-29T09:14:56Z</time></trkpt><trkpt lat="40.549969743599775" lon="17.424563436143753"><ele>137.0</ele><time>2026-03-29T09:14:57Z</time></trkpt><trkpt lat="40.54972533983926" lon="17.42474506709875"><ele>138.0</ele><time>2026-03-29T09:14:58Z</time></trkpt><trkpt lat="40.54948863294598" lon="17.42492319640812"><ele>139.0</ele><time>2026-03-29T09:14:59Z</time></trkpt><trkpt lat="40.549271985483855" lon="17.425109006321904"><ele>139.0</ele><time>2026-03-29T09:15:00Z</time></trkpt><trkpt lat="40.549045901745394" lon="17.42528359876169"><ele>139.0</ele><time>2026-03-29T09:15:01Z</time></trkpt><trkpt lat="40.54884300948689" lon="17.4255763728282"><ele>138.5</ele><time>2026-03-29T09:15:01.999Z</time></trkpt><trkpt lat="40.548616731346335" lon="17.425864500985657"><ele>138.0</ele><time>2026-03-29T09:15:02.999Z</time></trkpt><trkpt lat="40.54839584753908" lon="17.426137861213153"><ele>138.0</ele><time>2026-03-29T09:15:03.999Z</time></trkpt><trkpt lat="40.54825379081508" lon="17.426431095647438"><ele>138.0</ele><time>2026-03-29T09:15:04.999Z</time></trkpt><trkpt lat="40.54811255837477" lon="17.426706073810386"><ele>138.0</ele><time>2026-03-29T09:15:05.999Z</time></trkpt><trkpt lat="40.54796700105386" lon="17.42697305553708"><ele>138.0</ele><time>2026-03-29T09:15:06.999Z</time></trkpt><trkpt lat="40.547807005530785" lon="17.427155396041133"><ele>137.0</ele><time>2026-03-29T09:15:07.999Z</time></trkpt><trkpt lat="40.547668893591776" lon="17.427402712990983"><ele>136.0</ele><time>2026-03-29T09:15:08.999Z</time></trkpt><trkpt lat="40.54754634802594" lon="17.42765851844411"><ele>136.0</ele><time>2026-03-29T09:15:09.999Z</time></trkpt><trkpt lat="40.547432023516" lon="17.4278927210584"><ele>136.0</ele><time>2026-03-29T09:15:10.999Z</time></trkpt><trkpt lat="40.54732459868234" lon="17.428109144928374"><ele>136.0</ele><time>2026-03-29T09:15:11.999Z</time></trkpt><trkpt lat="40.54722738437981" lon="17.428303501528895"><ele>136.33333333333334</ele><time>2026-03-29T09:15:12.999Z</time></trkpt><trkpt lat="40.5471282710668" lon="17.428509190939845"><ele>136.66666666666666</ele><time>2026-03-29T09:15:13.999Z</time></trkpt><trkpt lat="40.54703941951765" lon="17.42872437750212"><ele>137.0</ele><time>2026-03-29T09:15:14.999Z</time></trkpt><trkpt lat="40.54696605138427" lon="17.42892753661074"><ele>137.5</ele><time>2026-03-29T09:15:15.999Z</time></trkpt><trkpt lat="40.54690652136646" lon="17.429096101068932"><ele>138.0</ele><time>2026-03-29T09:15:16.999Z</time></trkpt><trkpt lat="40.54684361832438" lon="17.42928330513795"><ele>138.5</ele><time>2026-03-29T09:15:17.999Z</time></trkpt><trkpt lat="40.54678796490067" lon="17.429444347417288"><ele>139.0</ele><time>2026-03-29T09:15:18.999Z</time></trkpt><trkpt lat="40.54673613717736" lon="17.42959345208412"><ele>139.0</ele><time>2026-03-29T09:15:19.999Z</time></trkpt><trkpt lat="40.54668770849276" lon="17.429745503056086"><ele>139.0</ele><time>2026-03-29T09:15:20.999Z</time></trkpt><trkpt lat="40.54664289374353" lon="17.42989054866743"><ele>139.0</ele><time>2026-03-29T09:15:21.999Z</time></trkpt><trkpt lat="40.5466084523227" lon="17.430002632996707"><ele>139.0</ele><time>2026-03-29T09:15:22.999Z</time></trkpt><trkpt lat="40.546557922965725" lon="17.430145961924254"><ele>139.0</ele><time>2026-03-29T09:15:24.999Z</time></trkpt><trkpt lat="40.54650669211046" lon="17.43023513676738"><ele>139.0</ele><time>2026-03-29T09:15:25.999Z</time></trkpt><trkpt lat="40.54644895478168" lon="17.43034071871992"><ele>139.0</ele><time>2026-03-29T09:15:26.999Z</time></trkpt><trkpt lat="40.54641961595924" lon="17.43047766171472"><ele>139.0</ele><time>2026-03-29T09:15:27.999Z</time></trkpt><trkpt lat="40.54630090945465" lon="17.43063104314959"><ele>138.75</ele><time>2026-03-29T09:15:28.999Z</time></trkpt><trkpt lat="40.54618579151721" lon="17.430714910256928"><ele>138.5</ele><time>2026-03-29T09:15:29.999Z</time></trkpt><trkpt lat="40.546065973768734" lon="17.43080546245041"><ele>138.25</ele><time>2026-03-29T09:15:30.999Z</time></trkpt><trkpt lat="40.54595996640422" lon="17.43087439634709"><ele>138.0</ele><time>2026-03-29T09:15:31.999Z</time></trkpt><trkpt lat="40.54586299916695" lon="17.430942692066967"><ele>138.0</ele><time>2026-03-29T09:15:32.999Z</time></trkpt><trkpt lat="40.5457790243873" lon="17.43100856557218"><ele>138.0</ele><time>2026-03-29T09:15:33.999Z</time></trkpt><trkpt lat="40.5456891548072" lon="17.431064458211793"><ele>138.0</ele><time>2026-03-29T09:15:34.999Z</time></trkpt><trkpt lat="40.545604152216" lon="17.431132475964283"><ele>138.0</ele><time>2026-03-29T09:15:35.999Z</time></trkpt><trkpt lat="40.54550055082275" lon="17.431217179150366"><ele>138.0</ele><time>2026-03-29T09:15:36.999Z</time></trkpt><trkpt lat="40.545394870925925" lon="17.431301467711787"><ele>138.4</ele><time>2026-03-29T09:15:37.999Z</time></trkpt><trkpt lat="40.545283409266524" lon="17.431363548957517"><ele>138.8</ele><time>2026-03-29T09:15:38.999Z</time></trkpt><trkpt lat="40.545225028455064" lon="17.431441502892564"><ele>139.2</ele><time>2026-03-29T09:15:39.999Z</time></trkpt><trkpt lat="40.54510286178468" lon="17.43151359633254"><ele>139.6</ele><time>2026-03-29T09:15:41.999Z</time></trkpt><trkpt lat="40.54502549964946" lon="17.431523491089337"><ele>140.0</ele><time>2026-03-29T09:15:42.999Z</time></trkpt><trkpt lat="40.5449145927716" lon="17.431588462230657"><ele>140.0</ele><time>2026-03-29T09:15:43.999Z</time></trkpt><trkpt lat="40.544830084676775" lon="17.43163558995175"><ele>140.0</ele><time>2026-03-29T09:15:44.999Z</time></trkpt><trkpt lat="40.54474047383954" lon="17.431682897831358"><ele>140.0</ele><time>2026-03-29T09:15:46.999Z</time></trkpt><trkpt lat="40.54463589781572" lon="17.431728265137064"><ele>140.0</ele><time>2026-03-29T09:15:48.999Z</time></trkpt><trkpt lat="40.54451157076939" lon="17.43177039425815"><ele>140.0</ele><time>2026-03-29T09:15:50.999Z</time></trkpt><trkpt lat="40.54442929888551" lon="17.431806181497166"><ele>139.4</ele><time>2026-03-29T09:15:51.999Z</time></trkpt><trkpt lat="40.544333372655444" lon="17.431818888411645"><ele>138.8</ele><time>2026-03-29T09:15:52.999Z</time></trkpt><trkpt lat="40.544235231902576" lon="17.431816350402304"><ele>138.2</ele><time>2026-03-29T09:15:53.999Z</time></trkpt><trkpt lat="40.54414532182508" lon="17.431824582630824"><ele>137.6</ele><time>2026-03-29T09:15:54.999Z</time></trkpt><trkpt lat="40.544078957119204" lon="17.43183665238966"><ele>137.0</ele><time>2026-03-29T09:15:55.999Z</time></trkpt><trkpt lat="40.54396893794699" lon="17.431846676938537"><ele>137.0</ele><time>2026-03-29T09:15:57.999Z</time></trkpt><trkpt lat="40.54390196833809" lon="17.43181283341526"><ele>137.0</ele><time>2026-03-29T09:15:59.999Z</time></trkpt><trkpt lat="40.54382629841654" lon="17.431835208207843"><ele>137.0</ele><time>2026-03-29T09:16:01.999Z</time></trkpt><trkpt lat="40.54375857012345" lon="17.43184465535686"><ele>137.0</ele><time>2026-03-29T09:16:03.999Z</time></trkpt><trkpt lat="40.543674496952285" lon="17.431844687906786"><ele>137.0</ele><time>2026-03-29T09:16:06.999Z</time></trkpt><trkpt lat="40.54359803026688" lon="17.431852742141906"><ele>137.0</ele><time>2026-03-29T09:16:08.999Z</time></trkpt><trkpt lat="40.54349556625457" lon="17.431837684205934"><ele>137.66666666666666</ele><time>2026-03-29T09:16:10.999Z</time></trkpt><trkpt lat="40.543389471404815" lon="17.431840356438087"><ele>138.33333333333331</ele><time>2026-03-29T09:16:12.999Z</time></trkpt><trkpt lat="40.543265756639414" lon="17.43184756661485"><ele>139.0</ele><time>2026-03-29T09:16:14.999Z</time></trkpt><trkpt lat="40.54320158715696" lon="17.43185130357263"><ele>139.66666666666666</ele><time>2026-03-29T09:16:15.999Z</time></trkpt><trkpt lat="40.54312357881143" lon="17.43185978206523"><ele>140.33333333333334</ele><time>2026-03-29T09:16:17.999Z</time></trkpt><trkpt lat="40.543055132734125" lon="17.431862736197704"><ele>141.0</ele><time>2026-03-29T09:16:19.999Z</time></trkpt><trkpt lat="40.54297309762724" lon="17.43186043889723"><ele>141.0</ele><time>2026-03-29T09:16:22.999Z</time></trkpt><trkpt lat="40.542889885612446" lon="17.43185055665709"><ele>141.0</ele><time>2026-03-29T09:16:39.999Z</time></trkpt><trkpt lat="40.54280920202612" lon="17.431853165059007"><ele>141.0</ele><time>2026-03-29T09:16:43.999Z</time></trkpt><trkpt lat="40.542727516826965" lon="17.43185689319244"><ele>141.0</ele><time>2026-03-29T09:16:45.999Z</time></trkpt><trkpt lat="40.54264017392497" lon="17.431863864232866"><ele>141.0</ele><time>2026-03-29T09:16:48.999Z</time></trkpt><trkpt lat="40.54257113468707" lon="17.431870268027694"><ele>141.0</ele><time>2026-03-29T09:16:49.999Z</time></trkpt><trkpt lat="40.542491971978485" lon="17.431877610832167"><ele>140.83333333333334</ele><time>2026-03-29T09:16:50.999Z</time></trkpt><trkpt lat="40.54239382456177" lon="17.431886567643343"><ele>140.66666666666666</ele><time>2026-03-29T09:16:52.999Z</time></trkpt><trkpt lat="40.542306219309715" lon="17.431894428236408"><ele>140.5</ele><time>2026-03-29T09:16:54.999Z</time></trkpt><trkpt lat="40.54223958097858" lon="17.431914144175288"><ele>140.33333333333331</ele><time>2026-03-29T09:16:56.999Z</time></trkpt><trkpt lat="40.542160127038365" lon="17.431914834333977"><ele>140.16666666666666</ele><time>2026-03-29T09:16:59.999Z</time></trkpt><trkpt lat="40.54207121457772" lon="17.4319096770041"><ele>140.0</ele><time>2026-03-29T09:17:05.999Z</time></trkpt><trkpt lat="40.541980410495306" lon="17.43191880424553"><ele>140.0</ele><time>2026-03-29T09:17:08.999Z</time></trkpt><trkpt lat="40.54190817732873" lon="17.431933981404566"><ele>140.0</ele><time>2026-03-29T09:17:10.999Z</time></trkpt><trkpt lat="40.541822325236694" lon="17.431940804324427"><ele>140.0</ele><time>2026-03-29T09:17:12.999Z</time></trkpt><trkpt lat="40.54175386845938" lon="17.43193124039223"><ele>140.0</ele><time>2026-03-29T09:17:14.999Z</time></trkpt><trkpt lat="40.541664752755594" lon="17.43194278946911"><ele>140.0</ele><time>2026-03-29T09:17:18.999Z</time></trkpt><trkpt lat="40.54158933662202" lon="17.431968384333757"><ele>140.0</ele><time>2026-03-29T09:17:21.999Z</time></trkpt><trkpt lat="40.54151784233446" lon="17.43197489489919"><ele>140.0</ele><time>2026-03-29T09:17:24.999Z</time></trkpt><trkpt lat="40.54143432910563" lon="17.431977193661787"><ele>140.0</ele><time>2026-03-29T09:17:27.999Z</time></trkpt><trkpt lat="40.54134803772351" lon="17.431971921711348"><ele>140.0</ele><time>2026-03-29T09:17:29.999Z</time></trkpt><trkpt lat="40.54123561540921" lon="17.431985288783682"><ele>140.0</ele><time>2026-03-29T09:17:31.999Z</time></trkpt><trkpt lat="40.54116740395684" lon="17.431986838457366"><ele>140.0</ele><time>2026-03-29T09:17:32.999Z</time></trkpt><trkpt lat="40.54106217414386" lon="17.432005195003416"><ele>140.16666666666666</ele><time>2026-03-29T09:17:34.999Z</time></trkpt><trkpt lat="40.54093543595604" lon="17.432033354749038"><ele>140.33333333333331</ele><time>2026-03-29T09:17:36.999Z</time></trkpt><trkpt lat="40.54086922003367" lon="17.432037926798085"><ele>140.5</ele><time>2026-03-29T09:17:37.999Z</time></trkpt><trkpt lat="40.54076270585904" lon="17.432036961122897"><ele>140.66666666666666</ele><time>2026-03-29T09:17:39.999Z</time></trkpt><trkpt lat="40.54069853690625" lon="17.43204453254365"><ele>140.83333333333334</ele><time>2026-03-29T09:17:40.999Z</time></trkpt><trkpt lat="40.5406244252357" lon="17.43205820244113"><ele>141.0</ele><time>2026-03-29T09:17:41.999Z</time></trkpt><trkpt lat="40.54054635754939" lon="17.432064804600248"><ele>141.0</ele><time>2026-03-29T09:17:42.999Z</time></trkpt><trkpt lat="40.540476277757215" lon="17.43207723648917"><ele>141.0</ele><time>2026-03-29T09:17:43.999Z</time></trkpt><trkpt lat="40.540344674857884" lon="17.432090188554437"><ele>141.0</ele><time>2026-03-29T09:17:45.999Z</time></trkpt><trkpt lat="40.54027846084355" lon="17.432092651283327"><ele>141.0</ele><time>2026-03-29T09:17:46.999Z</time></trkpt><trkpt lat="40.54016991856382" lon="17.43210789452974"><ele>141.0</ele><time>2026-03-29T09:17:48.999Z</time></trkpt><trkpt lat="40.54005439742836" lon="17.432125632480652"><ele>141.0</ele><time>2026-03-29T09:17:50.999Z</time></trkpt><trkpt lat="40.53995804009385" lon="17.432119458796723"><ele>141.0</ele><time>2026-03-29T09:17:52.999Z</time></trkpt><trkpt lat="40.53983902187956" lon="17.432123334388287"><ele>141.0</ele><time>2026-03-29T09:17:54.999Z</time></trkpt><trkpt lat="40.53972151812485" lon="17.432140838453897"><ele>141.0</ele><time>2026-03-29T09:17:56.999Z</time></trkpt><trkpt lat="40.539659453875394" lon="17.432155277802938"><ele>141.0</ele><time>2026-03-29T09:17:57.999Z</time></trkpt><trkpt lat="40.53957325172664" lon="17.432156092063703"><ele>140.83333333333334</ele><time>2026-03-29T09:17:59.999Z</time></trkpt><trkpt lat="40.539502355801794" lon="17.43216403011362"><ele>140.66666666666666</ele><time>2026-03-29T09:18:01.999Z</time></trkpt><trkpt lat="40.5394317098262" lon="17.432173215328113"><ele>140.5</ele><time>2026-03-29T09:18:04.999Z</time></trkpt><trkpt lat="40.53932824572521" lon="17.432092003024007"><ele>140.33333333333331</ele><time>2026-03-29T09:18:06.999Z</time></trkpt><trkpt lat="40.53925255706095" lon="17.432133388788984"><ele>140.16666666666666</ele><time>2026-03-29T09:18:07.999Z</time></trkpt><trkpt lat="40.53916482286635" lon="17.432191801683583"><ele>140.0</ele><time>2026-03-29T09:18:08.999Z</time></trkpt><trkpt lat="40.53908900077109" lon="17.432199780659374"><ele>140.0</ele><time>2026-03-29T09:18:09.999Z</time></trkpt><trkpt lat="40.53902139191877" lon="17.432207110975117"><ele>140.0</ele><time>2026-03-29T09:18:11.999Z</time></trkpt><trkpt lat="40.538840888182804" lon="17.432216675696484"><ele>140.0</ele><time>2026-03-29T09:18:13.999Z</time></trkpt><trkpt lat="40.538749708916136" lon="17.432241321274773"><ele>140.0</ele><time>2026-03-29T09:18:15.999Z</time></trkpt><trkpt lat="40.53868639765159" lon="17.432236327468914"><ele>140.0</ele><time>2026-03-29T09:18:42Z</time></trkpt><trkpt lat="40.5386211859481" lon="17.43224273626317"><ele>139.5</ele><time>2026-03-29T09:18:46Z</time></trkpt><trkpt lat="40.53853827539828" lon="17.432250884441416"><ele>139.0</ele><time>2026-03-29T09:18:49Z</time></trkpt><trkpt lat="40.53845502970903" lon="17.432259065559194"><ele>138.5</ele><time>2026-03-29T09:18:51Z</time></trkpt><trkpt lat="40.538330784578314" lon="17.43227127595771"><ele>138.0</ele><time>2026-03-29T09:18:54Z</time></trkpt><trkpt lat="40.53826364591084" lon="17.4322737178643"><ele>137.5</ele><time>2026-03-29T09:18:56Z</time></trkpt><trkpt lat="40.53825289904322" lon="17.432185554045468"><ele>137.0</ele><time>2026-03-29T09:18:57Z</time></trkpt><trkpt lat="40.53831566265688" lon="17.432069884094787"><ele>137.0</ele><time>2026-03-29T09:18:59Z</time></trkpt><trkpt lat="40.53823468128881" lon="17.431986970711286"><ele>137.0</ele><time>2026-03-29T09:19:00Z</time></trkpt><trkpt lat="40.53829431972624" lon="17.431865267053"><ele>137.0</ele><time>2026-03-29T09:19:01Z</time></trkpt><trkpt lat="40.53831060840583" lon="17.431769671343126"><ele>137.0</ele><time>2026-03-29T09:19:02Z</time></trkpt><trkpt lat="40.53832013404715" lon="17.4316824966726"><ele>137.0</ele><time>2026-03-29T09:19:03Z</time></trkpt><trkpt lat="40.53835175903638" lon="17.431575581775864"><ele>137.0</ele><time>2026-03-29T09:19:04Z</time></trkpt><trkpt lat="40.53835048952008" lon="17.43148125109143"><ele>137.0</ele><time>2026-03-29T09:19:05Z</time></trkpt><trkpt lat="40.538343900956704" lon="17.43137768489599"><ele>137.0</ele><time>2026-03-29T09:19:06Z</time></trkpt><trkpt lat="40.53832713945696" lon="17.431269588643765"><ele>137.0</ele><time>2026-03-29T09:19:07Z</time></trkpt><trkpt lat="40.538288356284255" lon="17.431175188785886"><ele>137.0</ele><time>2026-03-29T09:19:08Z</time></trkpt><trkpt lat="40.53825547701975" lon="17.431102333816234"><ele>137.0</ele><time>2026-03-29T09:19:09Z</time></trkpt><trkpt lat="40.53820803920021" lon="17.43102501349613"><ele>137.0</ele><time>2026-03-29T09:19:10Z</time></trkpt><trkpt lat="40.5381204728488" lon="17.430910993068032"><ele>136.6</ele><time>2026-03-29T09:19:12Z</time></trkpt><trkpt lat="40.53804162580242" lon="17.430858675949096"><ele>136.2</ele><time>2026-03-29T09:19:13Z</time></trkpt><trkpt lat="40.537959548776776" lon="17.430820308400815"><ele>135.8</ele><time>2026-03-29T09:19:14Z</time></trkpt><trkpt lat="40.537874937482734" lon="17.43077849412779"><ele>135.4</ele><time>2026-03-29T09:19:15Z</time></trkpt><trkpt lat="40.53777342382283" lon="17.430725172555224"><ele>135.0</ele><time>2026-03-29T09:19:16Z</time></trkpt><trkpt lat="40.53765458533383" lon="17.43065526197249"><ele>135.0</ele><time>2026-03-29T09:19:17Z</time></trkpt><trkpt lat="40.53752793171375" lon="17.430567132972634"><ele>135.0</ele><time>2026-03-29T09:19:18Z</time></trkpt><trkpt lat="40.537438449868695" lon="17.430486958239783"><ele>135.0</ele><time>2026-03-29T09:19:19Z</time></trkpt><trkpt lat="40.537367986319005" lon="17.430408138584536"><ele>135.0</ele><time>2026-03-29T09:19:20Z</time></trkpt><trkpt lat="40.53728110074037" lon="17.430288977306347"><ele>134.25</ele><time>2026-03-29T09:19:21Z</time></trkpt><trkpt lat="40.53722106011774" lon="17.43018006904982"><ele>133.5</ele><time>2026-03-29T09:19:22Z</time></trkpt><trkpt lat="40.53717485504142" lon="17.430055400488342"><ele>132.75</ele><time>2026-03-29T09:19:23Z</time></trkpt><trkpt lat="40.53714562794512" lon="17.42987630712019"><ele>132.0</ele><time>2026-03-29T09:19:24Z</time></trkpt><trkpt lat="40.53711067600231" lon="17.4296937225439"><ele>131.5</ele><time>2026-03-29T09:19:25Z</time></trkpt><trkpt lat="40.537064858840225" lon="17.429543130828854"><ele>131.0</ele><time>2026-03-29T09:19:26Z</time></trkpt><trkpt lat="40.53699004243874" lon="17.429406756804724"><ele>130.5</ele><time>2026-03-29T09:19:27Z</time></trkpt><trkpt lat="40.536896769127864" lon="17.42929149618364"><ele>130.0</ele><time>2026-03-29T09:19:28Z</time></trkpt><trkpt lat="40.53681423843162" lon="17.429190007280987"><ele>129.5</ele><time>2026-03-29T09:19:29Z</time></trkpt><trkpt lat="40.536740259885725" lon="17.429098952927358"><ele>129.0</ele><time>2026-03-29T09:19:30Z</time></trkpt><trkpt lat="40.536669716326934" lon="17.42900083724433"><ele>128.5</ele><time>2026-03-29T09:19:31Z</time></trkpt><trkpt lat="40.536595936052365" lon="17.428875159906585"><ele>128.0</ele><time>2026-03-29T09:19:31.999Z</time></trkpt><trkpt lat="40.53653178717774" lon="17.428723580713648"><ele>125.5</ele><time>2026-03-29T09:19:32.999Z</time></trkpt><trkpt lat="40.536497707679125" lon="17.428586610054374"><ele>123.0</ele><time>2026-03-29T09:19:33.999Z</time></trkpt><trkpt lat="40.53647121888407" lon="17.428423147501725"><ele>120.5</ele><time>2026-03-29T09:19:34.999Z</time></trkpt><trkpt lat="40.53645916076553" lon="17.428266753932864"><ele>118.0</ele><time>2026-03-29T09:19:35.999Z</time></trkpt><trkpt lat="40.536462057565984" lon="17.428089062935413"><ele>117.25</ele><time>2026-03-29T09:19:36.999Z</time></trkpt><trkpt lat="40.536475156022355" lon="17.427889261572787"><ele>116.5</ele><time>2026-03-29T09:19:37.999Z</time></trkpt><trkpt lat="40.53647815174393" lon="17.427719794904487"><ele>115.75</ele><time>2026-03-29T09:19:38.999Z</time></trkpt><trkpt lat="40.53648794977965" lon="17.42757376586463"><ele>115.0</ele><time>2026-03-29T09:19:39.999Z</time></trkpt><trkpt lat="40.53649709552378" lon="17.427433192652874"><ele>115.0</ele><time>2026-03-29T09:19:40.999Z</time></trkpt><trkpt lat="40.536510682380666" lon="17.427273040745384"><ele>115.0</ele><time>2026-03-29T09:19:41.999Z</time></trkpt><trkpt lat="40.53650383199303" lon="17.42713196572479"><ele>115.0</ele><time>2026-03-29T09:19:42.999Z</time></trkpt><trkpt lat="40.53649773635373" lon="17.427015249688818"><ele>115.0</ele><time>2026-03-29T09:19:43.999Z</time></trkpt><trkpt lat="40.536468860638166" lon="17.426879503554492"><ele>115.0</ele><time>2026-03-29T09:19:44.999Z</time></trkpt><trkpt lat="40.53642126903319" lon="17.42674042765628"><ele>114.25</ele><time>2026-03-29T09:19:45.999Z</time></trkpt><trkpt lat="40.53633281970168" lon="17.42660210558813"><ele>113.5</ele><time>2026-03-29T09:19:46.999Z</time></trkpt><trkpt lat="40.53622635485969" lon="17.426533179681304"><ele>112.75</ele><time>2026-03-29T09:19:47.999Z</time></trkpt><trkpt lat="40.536116518178076" lon="17.426488711315187"><ele>112.0</ele><time>2026-03-29T09:19:48.999Z</time></trkpt><trkpt lat="40.53601978200391" lon="17.4264499481686"><ele>112.00000000000001</ele><time>2026-03-29T09:19:49.999Z</time></trkpt><trkpt lat="40.53593841796328" lon="17.426416707981414"><ele>112.0</ele><time>2026-03-29T09:19:50.999Z</time></trkpt><trkpt lat="40.53584014762426" lon="17.426373062306972"><ele>112.0</ele><time>2026-03-29T09:19:52.999Z</time></trkpt><trkpt lat="40.53576856446446" lon="17.426336769518368"><ele>112.0</ele><time>2026-03-29T09:19:54.999Z</time></trkpt><trkpt lat="40.535699400030666" lon="17.426300274057166"><ele>112.00000000000001</ele><time>2026-03-29T09:19:56.999Z</time></trkpt><trkpt lat="40.535634129347194" lon="17.4262434236686"><ele>112.0</ele><time>2026-03-29T09:19:59.999Z</time></trkpt><trkpt lat="40.535566820086885" lon="17.426219544239988"><ele>110.6</ele><time>2026-03-29T09:20:01.999Z</time></trkpt><trkpt lat="40.53546894550884" lon="17.426221743331872"><ele>109.19999999999999</ele><time>2026-03-29T09:20:03.999Z</time></trkpt><trkpt lat="40.535408950287795" lon="17.426189447325434"><ele>107.8</ele><time>2026-03-29T09:20:05.999Z</time></trkpt><trkpt lat="40.53533451982988" lon="17.42616718977877"><ele>106.4</ele><time>2026-03-29T09:20:07.999Z</time></trkpt><trkpt lat="40.53521760616325" lon="17.426096476122506"><ele>105.0</ele><time>2026-03-29T09:20:09.999Z</time></trkpt><trkpt lat="40.53506560194955" lon="17.4259910937889"><ele>104.5</ele><time>2026-03-29T09:20:11.999Z</time></trkpt><trkpt lat="40.53498092629829" lon="17.42585849070925"><ele>104.0</ele><time>2026-03-29T09:20:12.999Z</time></trkpt><trkpt lat="40.534830384174064" lon="17.425772391332114"><ele>103.5</ele><time>2026-03-29T09:20:13.999Z</time></trkpt><trkpt lat="40.53469937877084" lon="17.425697319170585"><ele>103.0</ele><time>2026-03-29T09:20:14.999Z</time></trkpt><trkpt lat="40.53457107594294" lon="17.425620752138354"><ele>100.66666666666667</ele><time>2026-03-29T09:20:15.999Z</time></trkpt><trkpt lat="40.53441429359592" lon="17.425527189436067"><ele>98.33333333333334</ele><time>2026-03-29T09:20:16.999Z</time></trkpt><trkpt lat="40.534262745438475" lon="17.425436750330448"><ele>96.0</ele><time>2026-03-29T09:20:17.999Z</time></trkpt><trkpt lat="40.53413843505653" lon="17.425361758935328"><ele>95.25</ele><time>2026-03-29T09:20:18.999Z</time></trkpt><trkpt lat="40.53402691328294" lon="17.425293125957865"><ele>94.5</ele><time>2026-03-29T09:20:19.999Z</time></trkpt><trkpt lat="40.53392340731982" lon="17.425227287264367"><ele>93.75</ele><time>2026-03-29T09:20:20.999Z</time></trkpt><trkpt lat="40.53382102145958" lon="17.42518428544694"><ele>93.0</ele><time>2026-03-29T09:20:21.999Z</time></trkpt><trkpt lat="40.533718527919184" lon="17.42509330692431"><ele>92.0</ele><time>2026-03-29T09:20:22.999Z</time></trkpt><trkpt lat="40.533576951874196" lon="17.425007076138456"><ele>91.0</ele><time>2026-03-29T09:20:23.999Z</time></trkpt><trkpt lat="40.53343193447907" lon="17.424920883548385"><ele>90.0</ele><time>2026-03-29T09:20:24.999Z</time></trkpt><trkpt lat="40.53326875153963" lon="17.424866558355873"><ele>90.0</ele><time>2026-03-29T09:20:25.999Z</time></trkpt><trkpt lat="40.533101715388796" lon="17.42477197020346"><ele>90.0</ele><time>2026-03-29T09:20:26.999Z</time></trkpt><trkpt lat="40.53289247579283" lon="17.424690687975556"><ele>90.0</ele><time>2026-03-29T09:20:27.999Z</time></trkpt><trkpt lat="40.532651597562726" lon="17.424583722754072"><ele>89.0</ele><time>2026-03-29T09:20:28.999Z</time></trkpt><trkpt lat="40.53246264237038" lon="17.424408973108676"><ele>88.0</ele><time>2026-03-29T09:20:29.999Z</time></trkpt><trkpt lat="40.53230092977669" lon="17.424288376816833"><ele>87.0</ele><time>2026-03-29T09:20:30.999Z</time></trkpt><trkpt lat="40.53216143732379" lon="17.424196762361742"><ele>86.33333333333333</ele><time>2026-03-29T09:20:31.999Z</time></trkpt><trkpt lat="40.53201876106394" lon="17.42408632306221"><ele>85.66666666666666</ele><time>2026-03-29T09:20:32.999Z</time></trkpt><trkpt lat="40.531889808632826" lon="17.423974682626064"><ele>85.0</ele><time>2026-03-29T09:20:33.999Z</time></trkpt><trkpt lat="40.531721322929585" lon="17.42387079038391"><ele>85.0</ele><time>2026-03-29T09:20:34.999Z</time></trkpt><trkpt lat="40.53156419624598" lon="17.423775755412436"><ele>85.0</ele><time>2026-03-29T09:20:35.999Z</time></trkpt><trkpt lat="40.531416424101664" lon="17.423686441263243"><ele>85.0</ele><time>2026-03-29T09:20:36.999Z</time></trkpt><trkpt lat="40.53126972113747" lon="17.423597773350785"><ele>84.75</ele><time>2026-03-29T09:20:37.999Z</time></trkpt><trkpt lat="40.531129589656125" lon="17.42351210505674"><ele>84.5</ele><time>2026-03-29T09:20:38.999Z</time></trkpt><trkpt lat="40.531004484327646" lon="17.423435220050905"><ele>84.25</ele><time>2026-03-29T09:20:39.999Z</time></trkpt><trkpt lat="40.53089342956675" lon="17.423366969982943"><ele>84.0</ele><time>2026-03-29T09:20:40.999Z</time></trkpt><trkpt lat="40.530788889160014" lon="17.423311431631447"><ele>84.0</ele><time>2026-03-29T09:20:41.999Z</time></trkpt><trkpt lat="40.530685459570385" lon="17.42325157522699"><ele>84.0</ele><time>2026-03-29T09:20:42.999Z</time></trkpt><trkpt lat="40.53057865111787" lon="17.42317817394362"><ele>84.0</ele><time>2026-03-29T09:20:43.999Z</time></trkpt><trkpt lat="40.530448397318274" lon="17.423098998041414"><ele>84.0</ele><time>2026-03-29T09:20:44.999Z</time></trkpt><trkpt lat="40.53029875768021" lon="17.42301015220085"><ele>84.0</ele><time>2026-03-29T09:20:45.999Z</time></trkpt><trkpt lat="40.530117294687926" lon="17.42289343143676"><ele>84.0</ele><time>2026-03-29T09:20:46.999Z</time></trkpt><trkpt lat="40.52994243186718" lon="17.422772928758462"><ele>84.0</ele><time>2026-03-29T09:20:47.999Z</time></trkpt><trkpt lat="40.52978626434752" lon="17.422655939166948"><ele>84.0</ele><time>2026-03-29T09:20:48.999Z</time></trkpt><trkpt lat="40.52969936755217" lon="17.422544689590165"><ele>84.0</ele><time>2026-03-29T09:20:49.999Z</time></trkpt><trkpt lat="40.52960342847577" lon="17.42239890193031"><ele>84.0</ele><time>2026-03-29T09:20:50.999Z</time></trkpt><trkpt lat="40.5295351416833" lon="17.422209082210475"><ele>84.0</ele><time>2026-03-29T09:20:51.999Z</time></trkpt><trkpt lat="40.52944968115095" lon="17.422042154992795"><ele>84.33333333333333</ele><time>2026-03-29T09:20:52.999Z</time></trkpt><trkpt lat="40.529331261633175" lon="17.421807585539486"><ele>84.66666666666666</ele><time>2026-03-29T09:20:53.999Z</time></trkpt><trkpt lat="40.529213114943715" lon="17.421569202428298"><ele>85.0</ele><time>2026-03-29T09:20:54.999Z</time></trkpt><trkpt lat="40.52908780345854" lon="17.421335933243405"><ele>83.66666666666666</ele><time>2026-03-29T09:20:55.999Z</time></trkpt><trkpt lat="40.52897500241678" lon="17.421078242410296"><ele>82.33333333333333</ele><time>2026-03-29T09:20:57Z</time></trkpt><trkpt lat="40.52885682013253" lon="17.42083785613227"><ele>81.0</ele><time>2026-03-29T09:20:58Z</time></trkpt><trkpt lat="40.52875099328644" lon="17.420624598379774"><ele>81.66666666666667</ele><time>2026-03-29T09:20:59Z</time></trkpt><trkpt lat="40.52864447111251" lon="17.420415763506124"><ele>82.33333333333334</ele><time>2026-03-29T09:21:00Z</time></trkpt><trkpt lat="40.52852834844061" lon="17.42021661982025"><ele>83.0</ele><time>2026-03-29T09:21:01Z</time></trkpt><trkpt lat="40.52839321633343" lon="17.420074222343867"><ele>83.0</ele><time>2026-03-29T09:21:02Z</time></trkpt><trkpt lat="40.52824589127435" lon="17.419957883620388"><ele>83.0</ele><time>2026-03-29T09:21:03Z</time></trkpt><trkpt lat="40.52810149047397" lon="17.419868905221353"><ele>83.0</ele><time>2026-03-29T09:21:04Z</time></trkpt><trkpt lat="40.527899517497445" lon="17.41984332466683"><ele>83.0</ele><time>2026-03-29T09:21:05Z</time></trkpt><trkpt lat="40.52767951115272" lon="17.41982079867075"><ele>83.0</ele><time>2026-03-29T09:21:06Z</time></trkpt><trkpt lat="40.527482922759404" lon="17.41982391458028"><ele>83.0</ele><time>2026-03-29T09:21:07Z</time></trkpt><trkpt lat="40.52730670761518" lon="17.419825747440765"><ele>83.0</ele><time>2026-03-29T09:21:08Z</time></trkpt><trkpt lat="40.52711986091296" lon="17.419798803918813"><ele>83.0</ele><time>2026-03-29T09:21:09Z</time></trkpt><trkpt lat="40.52695364649303" lon="17.419794062470814"><ele>83.0</ele><time>2026-03-29T09:21:10Z</time></trkpt><trkpt lat="40.526810010246805" lon="17.41981223482359"><ele>83.0</ele><time>2026-03-29T09:21:11Z</time></trkpt><trkpt lat="40.52668122203457" lon="17.419806315524703"><ele>83.0</ele><time>2026-03-29T09:21:12Z</time></trkpt><trkpt lat="40.5265517329915" lon="17.419790565990446"><ele>83.0</ele><time>2026-03-29T09:21:13Z</time></trkpt><trkpt lat="40.526420600643355" lon="17.419809462692303"><ele>83.0</ele><time>2026-03-29T09:21:13.999Z</time></trkpt><trkpt lat="40.52629792097269" lon="17.41979553799263"><ele>83.75</ele><time>2026-03-29T09:21:14.999Z</time></trkpt><trkpt lat="40.52616255795471" lon="17.41974902301421"><ele>84.5</ele><time>2026-03-29T09:21:15.999Z</time></trkpt><trkpt lat="40.52601129219535" lon="17.419784926209076"><ele>85.25</ele><time>2026-03-29T09:21:16.999Z</time></trkpt><trkpt lat="40.525873638851785" lon="17.419782382099136"><ele>86.0</ele><time>2026-03-29T09:21:17.999Z</time></trkpt><trkpt lat="40.52573633540456" lon="17.4197781269049"><ele>86.0</ele><time>2026-03-29T09:21:18.999Z</time></trkpt><trkpt lat="40.52559333846404" lon="17.419774426124235"><ele>86.0</ele><time>2026-03-29T09:21:19.999Z</time></trkpt><trkpt lat="40.525439132412764" lon="17.419769150472362"><ele>86.0</ele><time>2026-03-29T09:21:20.999Z</time></trkpt><trkpt lat="40.52526879808591" lon="17.419766169870048"><ele>85.33333333333334</ele><time>2026-03-29T09:21:21.999Z</time></trkpt><trkpt lat="40.525112212629615" lon="17.419721857435363"><ele>84.66666666666667</ele><time>2026-03-29T09:21:22.999Z</time></trkpt><trkpt lat="40.524930321272365" lon="17.419687112763274"><ele>84.0</ele><time>2026-03-29T09:21:23.999Z</time></trkpt><trkpt lat="40.52481160670089" lon="17.419607282594807"><ele>83.66666666666667</ele><time>2026-03-29T09:21:24.999Z</time></trkpt><trkpt lat="40.52463556055162" lon="17.419521701716157"><ele>83.33333333333334</ele><time>2026-03-29T09:21:25.999Z</time></trkpt><trkpt lat="40.52444572941377" lon="17.419411659823535"><ele>83.0</ele><time>2026-03-29T09:21:26.999Z</time></trkpt><trkpt lat="40.52424388658105" lon="17.419284028273967"><ele>83.0</ele><time>2026-03-29T09:21:27.999Z</time></trkpt><trkpt lat="40.52401321706896" lon="17.419139841796788"><ele>83.0</ele><time>2026-03-29T09:21:28.999Z</time></trkpt><trkpt lat="40.52377147578094" lon="17.418988734470968"><ele>82.0</ele><time>2026-03-29T09:21:29.999Z</time></trkpt><trkpt lat="40.523508714610486" lon="17.418847340685133"><ele>81.0</ele><time>2026-03-29T09:21:30.999Z</time></trkpt><trkpt lat="40.52327136904313" lon="17.418700734451956"><ele>79.5</ele><time>2026-03-29T09:21:31.999Z</time></trkpt><trkpt lat="40.52303825542787" lon="17.41854459362255"><ele>78.0</ele><time>2026-03-29T09:21:32.999Z</time></trkpt><trkpt lat="40.52279645993401" lon="17.418381283543624"><ele>76.5</ele><time>2026-03-29T09:21:33.999Z</time></trkpt><trkpt lat="40.522550303906215" lon="17.418237251569234"><ele>75.0</ele><time>2026-03-29T09:21:34.999Z</time></trkpt><trkpt lat="40.522292946795446" lon="17.418079272466684"><ele>72.5</ele><time>2026-03-29T09:21:35.999Z</time></trkpt><trkpt lat="40.52201979607809" lon="17.417913632654603"><ele>70.0</ele><time>2026-03-29T09:21:36.999Z</time></trkpt><trkpt lat="40.52175110983066" lon="17.41770741964858"><ele>70.0</ele><time>2026-03-29T09:21:37.999Z</time></trkpt><trkpt lat="40.52147007466436" lon="17.417529061507448"><ele>70.0</ele><time>2026-03-29T09:21:38.999Z</time></trkpt><trkpt lat="40.52119156994232" lon="17.417352950477174"><ele>69.0</ele><time>2026-03-29T09:21:39.999Z</time></trkpt><trkpt lat="40.52089352849907" lon="17.417165500880863"><ele>68.0</ele><time>2026-03-29T09:21:40.999Z</time></trkpt><trkpt lat="40.5205920887925" lon="17.416976498105804"><ele>68.0</ele><time>2026-03-29T09:21:41.999Z</time></trkpt><trkpt lat="40.520295442357195" lon="17.41679132756182"><ele>68.0</ele><time>2026-03-29T09:21:42.999Z</time></trkpt><trkpt lat="40.52003344758958" lon="17.416628437298648"><ele>68.0</ele><time>2026-03-29T09:21:43.999Z</time></trkpt><trkpt lat="40.519750837220286" lon="17.416472349541916"><ele>68.0</ele><time>2026-03-29T09:21:44.999Z</time></trkpt><trkpt lat="40.51951299615644" lon="17.41630671434566"><ele>66.5</ele><time>2026-03-29T09:21:45.999Z</time></trkpt><trkpt lat="40.51926323524805" lon="17.41615253664718"><ele>65.0</ele><time>2026-03-29T09:21:46.999Z</time></trkpt><trkpt lat="40.519028687719334" lon="17.41603137281139"><ele>65.0</ele><time>2026-03-29T09:21:47.999Z</time></trkpt><trkpt lat="40.51878415044758" lon="17.415876693360364"><ele>65.0</ele><time>2026-03-29T09:21:48.999Z</time></trkpt><trkpt lat="40.518539496139766" lon="17.415722156858244"><ele>65.0</ele><time>2026-03-29T09:21:49.999Z</time></trkpt><trkpt lat="40.5183013143853" lon="17.41555838113572"><ele>65.0</ele><time>2026-03-29T09:21:50.999Z</time></trkpt><trkpt lat="40.518062726256396" lon="17.41541095772973"><ele>65.0</ele><time>2026-03-29T09:21:51.999Z</time></trkpt><trkpt lat="40.51783717219662" lon="17.415271602550913"><ele>65.0</ele><time>2026-03-29T09:21:52.999Z</time></trkpt><trkpt lat="40.51760902576799" lon="17.415131188977462"><ele>65.0</ele><time>2026-03-29T09:21:53.999Z</time></trkpt><trkpt lat="40.51738337483057" lon="17.414992311193455"><ele>65.0</ele><time>2026-03-29T09:21:54.999Z</time></trkpt><trkpt lat="40.51716851850744" lon="17.41486007692176"><ele>64.5</ele><time>2026-03-29T09:21:55.999Z</time></trkpt><trkpt lat="40.51695034465772" lon="17.414725789030935"><ele>64.0</ele><time>2026-03-29T09:21:56.999Z</time></trkpt><trkpt lat="40.51671427501058" lon="17.414579722387177"><ele>63.5</ele><time>2026-03-29T09:21:57.999Z</time></trkpt><trkpt lat="40.51647442250545" lon="17.4144313136653"><ele>63.0</ele><time>2026-03-29T09:21:58.999Z</time></trkpt><trkpt lat="40.516213050140344" lon="17.414269759694278"><ele>63.0</ele><time>2026-03-29T09:21:59.999Z</time></trkpt><trkpt lat="40.51593405495752" lon="17.414117155226965"><ele>63.0</ele><time>2026-03-29T09:22:00.999Z</time></trkpt><trkpt lat="40.515657327110695" lon="17.413927522155138"><ele>63.0</ele><time>2026-03-29T09:22:01.999Z</time></trkpt><trkpt lat="40.51538683655386" lon="17.41376062902797"><ele>63.0</ele><time>2026-03-29T09:22:02.999Z</time></trkpt><trkpt lat="40.515107440649885" lon="17.413596730741386"><ele>63.0</ele><time>2026-03-29T09:22:03.999Z</time></trkpt><trkpt lat="40.514829804594406" lon="17.413424252463923"><ele>63.0</ele><time>2026-03-29T09:22:04.999Z</time></trkpt><trkpt lat="40.51457622881132" lon="17.41326839106665"><ele>62.0</ele><time>2026-03-29T09:22:05.999Z</time></trkpt><trkpt lat="40.51435941418733" lon="17.413107456916865"><ele>61.0</ele><time>2026-03-29T09:22:06.999Z</time></trkpt><trkpt lat="40.51413317640616" lon="17.412992517756713"><ele>61.0</ele><time>2026-03-29T09:22:07.999Z</time></trkpt><trkpt lat="40.51391506519449" lon="17.412904523346093"><ele>61.0</ele><time>2026-03-29T09:22:08.999Z</time></trkpt><trkpt lat="40.51374298097215" lon="17.412803047889362"><ele>61.0</ele><time>2026-03-29T09:22:09.999Z</time></trkpt><trkpt lat="40.51353940795769" lon="17.41272123051949"><ele>61.0</ele><time>2026-03-29T09:22:10.999Z</time></trkpt><trkpt lat="40.51338114191392" lon="17.41263316474702"><ele>61.0</ele><time>2026-03-29T09:22:11.999Z</time></trkpt><trkpt lat="40.5133254502287" lon="17.4125342545243"><ele>61.0</ele><time>2026-03-29T09:22:12.999Z</time></trkpt><trkpt lat="40.5132561101587" lon="17.412439034349187"><ele>61.0</ele><time>2026-03-29T09:22:13.999Z</time></trkpt><trkpt lat="40.51319038404824" lon="17.412336599133535"><ele>61.0</ele><time>2026-03-29T09:22:14.999Z</time></trkpt><trkpt lat="40.513115384702" lon="17.41227987497267"><ele>61.0</ele><time>2026-03-29T09:22:15.999Z</time></trkpt><trkpt lat="40.513003416651166" lon="17.41227594873567"><ele>61.0</ele><time>2026-03-29T09:22:16.999Z</time></trkpt><trkpt lat="40.51286760411158" lon="17.41225433984161"><ele>61.0</ele><time>2026-03-29T09:22:17.999Z</time></trkpt><trkpt lat="40.51273909002382" lon="17.412195345799628"><ele>61.0</ele><time>2026-03-29T09:22:18.999Z</time></trkpt><trkpt lat="40.5126157147796" lon="17.412103699075665"><ele>61.0</ele><time>2026-03-29T09:22:19.999Z</time></trkpt><trkpt lat="40.512466784475286" lon="17.412001321343585"><ele>61.0</ele><time>2026-03-29T09:22:20.999Z</time></trkpt><trkpt lat="40.512309570791004" lon="17.411854603927157"><ele>61.0</ele><time>2026-03-29T09:22:21.999Z</time></trkpt><trkpt lat="40.51210700944182" lon="17.411728883732035"><ele>61.0</ele><time>2026-03-29T09:22:22.999Z</time></trkpt><trkpt lat="40.51189022616363" lon="17.411594336907715"><ele>61.5</ele><time>2026-03-29T09:22:23.999Z</time></trkpt><trkpt lat="40.51166038095998" lon="17.41145168453541"><ele>62.0</ele><time>2026-03-29T09:22:24.999Z</time></trkpt><trkpt lat="40.51141884345498" lon="17.41130210494159"><ele>62.0</ele><time>2026-03-29T09:22:25.999Z</time></trkpt><trkpt lat="40.51117010247892" lon="17.411148579573133"><ele>62.0</ele><time>2026-03-29T09:22:26.999Z</time></trkpt><trkpt lat="40.51091065079626" lon="17.41098803495942"><ele>62.0</ele><time>2026-03-29T09:22:27.999Z</time></trkpt><trkpt lat="40.51064968395074" lon="17.410826696504248"><ele>62.0</ele><time>2026-03-29T09:22:28.999Z</time></trkpt><trkpt lat="40.51037943596081" lon="17.410659680937563"><ele>61.0</ele><time>2026-03-29T09:22:29.999Z</time></trkpt><trkpt lat="40.51010417042177" lon="17.4105016386039"><ele>60.0</ele><time>2026-03-29T09:22:30.999Z</time></trkpt><trkpt lat="40.50983408853393" lon="17.41035694614038"><ele>60.0</ele><time>2026-03-29T09:22:32Z</time></trkpt><trkpt lat="40.50957629619972" lon="17.41019770832667"><ele>60.0</ele><time>2026-03-29T09:22:33Z</time></trkpt><trkpt lat="40.50933305711533" lon="17.410042835948335"><ele>60.0</ele><time>2026-03-29T09:22:34Z</time></trkpt><trkpt lat="40.50910399886388" lon="17.409905957946446"><ele>60.0</ele><time>2026-03-29T09:22:35Z</time></trkpt><trkpt lat="40.508871371663005" lon="17.409765429092595"><ele>61.0</ele><time>2026-03-29T09:22:36Z</time></trkpt><trkpt lat="40.508635351041455" lon="17.409625809770958"><ele>62.0</ele><time>2026-03-29T09:22:37Z</time></trkpt><trkpt lat="40.508401806026406" lon="17.40949325075632"><ele>62.0</ele><time>2026-03-29T09:22:38Z</time></trkpt><trkpt lat="40.50816545387795" lon="17.409366076881962"><ele>62.0</ele><time>2026-03-29T09:22:39Z</time></trkpt><trkpt lat="40.50792449968464" lon="17.40926085525894"><ele>62.0</ele><time>2026-03-29T09:22:40Z</time></trkpt><trkpt lat="40.507670747712936" lon="17.409134982049682"><ele>62.0</ele><time>2026-03-29T09:22:41Z</time></trkpt><trkpt lat="40.50742923234143" lon="17.409036057814816"><ele>62.0</ele><time>2026-03-29T09:22:42Z</time></trkpt><trkpt lat="40.507171629040094" lon="17.408951982949272"><ele>62.0</ele><time>2026-03-29T09:22:43Z</time></trkpt><trkpt lat="40.50690464640193" lon="17.408902197485503"><ele>62.0</ele><time>2026-03-29T09:22:44Z</time></trkpt><trkpt lat="40.506634602728695" lon="17.40887506218833"><ele>62.0</ele><time>2026-03-29T09:22:45Z</time></trkpt><trkpt lat="40.50636225251379" lon="17.408878673855632"><ele>62.5</ele><time>2026-03-29T09:22:46Z</time></trkpt><trkpt lat="40.506086497987965" lon="17.408898133211114"><ele>63.0</ele><time>2026-03-29T09:22:47Z</time></trkpt><trkpt lat="40.505808809401785" lon="17.408944307075238"><ele>63.0</ele><time>2026-03-29T09:22:48Z</time></trkpt><trkpt lat="40.505533666116136" lon="17.408993624927255"><ele>63.0</ele><time>2026-03-29T09:22:49Z</time></trkpt><trkpt lat="40.505260642543696" lon="17.409045447261914"><ele>62.5</ele><time>2026-03-29T09:22:50Z</time></trkpt><trkpt lat="40.50498636610066" lon="17.409126172313957"><ele>62.0</ele><time>2026-03-29T09:22:51Z</time></trkpt><trkpt lat="40.50471271071391" lon="17.409205614554452"><ele>61.5</ele><time>2026-03-29T09:22:52Z</time></trkpt><trkpt lat="40.50444178112815" lon="17.409280868616786"><ele>61.0</ele><time>2026-03-29T09:22:53Z</time></trkpt><trkpt lat="40.50417079223" lon="17.40935337230594"><ele>61.0</ele><time>2026-03-29T09:22:54Z</time></trkpt><trkpt lat="40.50388957571318" lon="17.409428313628446"><ele>61.0</ele><time>2026-03-29T09:22:55Z</time></trkpt><trkpt lat="40.5036117946478" lon="17.40948652388502"><ele>62.5</ele><time>2026-03-29T09:22:56Z</time></trkpt><trkpt lat="40.50333281465249" lon="17.409559836614374"><ele>64.0</ele><time>2026-03-29T09:22:57Z</time></trkpt><trkpt lat="40.503058710168695" lon="17.409631517051885"><ele>63.0</ele><time>2026-03-29T09:22:58Z</time></trkpt><trkpt lat="40.502786173447724" lon="17.409702787505797"><ele>62.0</ele><time>2026-03-29T09:22:59Z</time></trkpt><trkpt lat="40.502517215202104" lon="17.40977361162205"><ele>62.0</ele><time>2026-03-29T09:23:00Z</time></trkpt><trkpt lat="40.502249995833424" lon="17.409844341853333"><ele>62.0</ele><time>2026-03-29T09:23:01Z</time></trkpt><trkpt lat="40.501983984949604" lon="17.409914752126507"><ele>62.5</ele><time>2026-03-29T09:23:02Z</time></trkpt><trkpt lat="40.5016595831366" lon="17.40998981958592"><ele>63.0</ele><time>2026-03-29T09:23:03Z</time></trkpt><trkpt lat="40.50140236045561" lon="17.410066057966468"><ele>63.0</ele><time>2026-03-29T09:23:04Z</time></trkpt><trkpt lat="40.501136815269454" lon="17.410146634961638"><ele>63.0</ele><time>2026-03-29T09:23:05Z</time></trkpt><trkpt lat="40.50086626213836" lon="17.410221017412923"><ele>63.0</ele><time>2026-03-29T09:23:06Z</time></trkpt><trkpt lat="40.50059715893295" lon="17.410296464818558"><ele>63.0</ele><time>2026-03-29T09:23:07Z</time></trkpt><trkpt lat="40.500329009429734" lon="17.41036617064765"><ele>62.5</ele><time>2026-03-29T09:23:08Z</time></trkpt><trkpt lat="40.50005398083654" lon="17.410442807357228"><ele>62.0</ele><time>2026-03-29T09:23:09Z</time></trkpt><trkpt lat="40.49978543881907" lon="17.41053013648025"><ele>62.5</ele><time>2026-03-29T09:23:10Z</time></trkpt><trkpt lat="40.4995297348211" lon="17.41063467467966"><ele>63.0</ele><time>2026-03-29T09:23:11Z</time></trkpt><trkpt lat="40.49930346005648" lon="17.410744066403932"><ele>63.0</ele><time>2026-03-29T09:23:12Z</time></trkpt><trkpt lat="40.49908821587415" lon="17.410869705721705"><ele>63.0</ele><time>2026-03-29T09:23:13Z</time></trkpt><trkpt lat="40.49888839223044" lon="17.41100106475515"><ele>62.66666666666667</ele><time>2026-03-29T09:23:14Z</time></trkpt><trkpt lat="40.49869585900304" lon="17.41112329618743"><ele>62.333333333333336</ele><time>2026-03-29T09:23:15Z</time></trkpt><trkpt lat="40.49848358663487" lon="17.411241090011394"><ele>62.0</ele><time>2026-03-29T09:23:16Z</time></trkpt><trkpt lat="40.49832554106486" lon="17.411311749715296"><ele>62.0</ele><time>2026-03-29T09:23:17Z</time></trkpt><trkpt lat="40.498147906654374" lon="17.411338469627058"><ele>62.0</ele><time>2026-03-29T09:23:18Z</time></trkpt><trkpt lat="40.497983382776205" lon="17.411322795365983"><ele>62.0</ele><time>2026-03-29T09:23:19Z</time></trkpt><trkpt lat="40.49782262543198" lon="17.41129982663029"><ele>61.66666666666667</ele><time>2026-03-29T09:23:20Z</time></trkpt><trkpt lat="40.49769250176299" lon="17.411359201958074"><ele>61.33333333333333</ele><time>2026-03-29T09:23:21Z</time></trkpt><trkpt lat="40.497524195377906" lon="17.41141766419553"><ele>61.0</ele><time>2026-03-29T09:23:22Z</time></trkpt><trkpt lat="40.49736433444975" lon="17.41154288666959"><ele>61.0</ele><time>2026-03-29T09:23:23Z</time></trkpt><trkpt lat="40.49719693513588" lon="17.411684425111556"><ele>61.0</ele><time>2026-03-29T09:23:24Z</time></trkpt><trkpt lat="40.496981393506054" lon="17.41181532969724"><ele>61.0</ele><time>2026-03-29T09:23:25Z</time></trkpt><trkpt lat="40.49671436265564" lon="17.411900027038346"><ele>62.5</ele><time>2026-03-29T09:23:26Z</time></trkpt><trkpt lat="40.496393269310204" lon="17.411932676215407"><ele>64.0</ele><time>2026-03-29T09:23:27Z</time></trkpt><trkpt lat="40.4960418711307" lon="17.411949215558376"><ele>64.0</ele><time>2026-03-29T09:23:28Z</time></trkpt><trkpt lat="40.4956749958542" lon="17.41194750913177"><ele>64.0</ele><time>2026-03-29T09:23:29Z</time></trkpt><trkpt lat="40.495324533688176" lon="17.41190215790008"><ele>64.5</ele><time>2026-03-29T09:23:30Z</time></trkpt><trkpt lat="40.49499886002376" lon="17.411792978433965"><ele>65.0</ele><time>2026-03-29T09:23:31Z</time></trkpt><trkpt lat="40.494645000925516" lon="17.411629096144424"><ele>65.0</ele><time>2026-03-29T09:23:32Z</time></trkpt><trkpt lat="40.49430654559131" lon="17.41141747381625"><ele>65.0</ele><time>2026-03-29T09:23:33Z</time></trkpt><trkpt lat="40.494008526678684" lon="17.41118653484153"><ele>64.5</ele><time>2026-03-29T09:23:34Z</time></trkpt><trkpt lat="40.49373163411049" lon="17.41087723826726"><ele>64.0</ele><time>2026-03-29T09:23:35Z</time></trkpt><trkpt lat="40.49346838651304" lon="17.41051813780551"><ele>63.5</ele><time>2026-03-29T09:23:36Z</time></trkpt><trkpt lat="40.49323201360133" lon="17.41013556965393"><ele>63.0</ele><time>2026-03-29T09:23:37Z</time></trkpt><trkpt lat="40.49304139532948" lon="17.409720213169273"><ele>62.5</ele><time>2026-03-29T09:23:38Z</time></trkpt><trkpt lat="40.49288843355098" lon="17.409291338839267"><ele>62.0</ele><time>2026-03-29T09:23:39Z</time></trkpt><trkpt lat="40.49277923127134" lon="17.408855358788955"><ele>62.5</ele><time>2026-03-29T09:23:40Z</time></trkpt><trkpt lat="40.49270118769264" lon="17.408384440287126"><ele>63.0</ele><time>2026-03-29T09:23:41Z</time></trkpt><trkpt lat="40.49265859270453" lon="17.40790271035286"><ele>63.0</ele><time>2026-03-29T09:23:42Z</time></trkpt><trkpt lat="40.492647563428356" lon="17.407379910695465"><ele>63.0</ele><time>2026-03-29T09:23:43Z</time></trkpt><trkpt lat="40.4926447197953" lon="17.406824626055574"><ele>63.0</ele><time>2026-03-29T09:23:44Z</time></trkpt><trkpt lat="40.49263409115921" lon="17.4062336401809"><ele>63.0</ele><time>2026-03-29T09:23:45Z</time></trkpt><trkpt lat="40.49261967598737" lon="17.405658272050292"><ele>63.0</ele><time>2026-03-29T09:23:46Z</time></trkpt><trkpt lat="40.492597281048624" lon="17.405166780594026"><ele>61.5</ele><time>2026-03-29T09:23:47Z</time></trkpt><trkpt lat="40.49259077161072" lon="17.404715729332576"><ele>60.0</ele><time>2026-03-29T09:23:48Z</time></trkpt><trkpt lat="40.49258172311809" lon="17.40426192599919"><ele>61.0</ele><time>2026-03-29T09:23:49Z</time></trkpt><trkpt lat="40.49255651345403" lon="17.40380211123211"><ele>62.0</ele><time>2026-03-29T09:23:50Z</time></trkpt><trkpt lat="40.49251658027562" lon="17.403319770961936"><ele>61.5</ele><time>2026-03-29T09:23:51Z</time></trkpt><trkpt lat="40.492459324949" lon="17.402873237524847"><ele>61.0</ele><time>2026-03-29T09:23:52Z</time></trkpt><trkpt lat="40.492408243167446" lon="17.402468262317964"><ele>61.0</ele><time>2026-03-29T09:23:53Z</time></trkpt><trkpt lat="40.49235473125952" lon="17.4020974999264"><ele>61.0</ele><time>2026-03-29T09:23:54Z</time></trkpt><trkpt lat="40.49231093604944" lon="17.401779573166383"><ele>61.0</ele><time>2026-03-29T09:23:55Z</time></trkpt><trkpt lat="40.49230579819842" lon="17.401462323592398"><ele>61.0</ele><time>2026-03-29T09:23:56Z</time></trkpt><trkpt lat="40.492288315320316" lon="17.40117040932298"><ele>61.33333333333333</ele><time>2026-03-29T09:23:57Z</time></trkpt><trkpt lat="40.49225047430248" lon="17.40089725935048"><ele>61.66666666666667</ele><time>2026-03-29T09:23:58Z</time></trkpt><trkpt lat="40.492193230398335" lon="17.40071645054887"><ele>62.0</ele><time>2026-03-29T09:23:59Z</time></trkpt><trkpt lat="40.49216986905695" lon="17.400489896346368"><ele>62.0</ele><time>2026-03-29T09:24:00Z</time></trkpt><trkpt lat="40.492187827843054" lon="17.40026215046758"><ele>62.0</ele><time>2026-03-29T09:24:01Z</time></trkpt><trkpt lat="40.49222177529559" lon="17.40005702715243"><ele>62.0</ele><time>2026-03-29T09:24:02Z</time></trkpt><trkpt lat="40.49221617965139" lon="17.399889506239365"><ele>62.0</ele><time>2026-03-29T09:24:03Z</time></trkpt><trkpt lat="40.49216716564244" lon="17.399697432349825"><ele>62.0</ele><time>2026-03-29T09:24:04Z</time></trkpt><trkpt lat="40.49209558443798" lon="17.399503509243544"><ele>62.0</ele><time>2026-03-29T09:24:05Z</time></trkpt><trkpt lat="40.49198694988781" lon="17.399349358558464"><ele>62.333333333333336</ele><time>2026-03-29T09:24:06Z</time></trkpt><trkpt lat="40.49184310745191" lon="17.399219718288816"><ele>62.66666666666667</ele><time>2026-03-29T09:24:07Z</time></trkpt><trkpt lat="40.49166885480071" lon="17.39910020789414"><ele>63.0</ele><time>2026-03-29T09:24:08Z</time></trkpt><trkpt lat="40.491482587171795" lon="17.398982098430867"><ele>63.0</ele><time>2026-03-29T09:24:09Z</time></trkpt><trkpt lat="40.49126054884328" lon="17.39884827491286"><ele>63.0</ele><time>2026-03-29T09:24:10Z</time></trkpt><trkpt lat="40.49103391039091" lon="17.39871513336854"><ele>62.0</ele><time>2026-03-29T09:24:11Z</time></trkpt><trkpt lat="40.490780374345235" lon="17.398572346435813"><ele>61.0</ele><time>2026-03-29T09:24:12Z</time></trkpt><trkpt lat="40.49053686737471" lon="17.398413071952067"><ele>61.0</ele><time>2026-03-29T09:24:13Z</time></trkpt><trkpt lat="40.49026197281939" lon="17.39825702447016"><ele>61.0</ele><time>2026-03-29T09:24:14Z</time></trkpt><trkpt lat="40.48999832277872" lon="17.398093969831603"><ele>61.0</ele><time>2026-03-29T09:24:15Z</time></trkpt><trkpt lat="40.48972352279473" lon="17.39792768327406"><ele>61.0</ele><time>2026-03-29T09:24:16Z</time></trkpt><trkpt lat="40.48945410685777" lon="17.397764898423524"><ele>61.0</ele><time>2026-03-29T09:24:17Z</time></trkpt><trkpt lat="40.48918195870725" lon="17.397587976558803"><ele>61.0</ele><time>2026-03-29T09:24:18Z</time></trkpt><trkpt lat="40.48891768936544" lon="17.39741694507866"><ele>60.5</ele><time>2026-03-29T09:24:19Z</time></trkpt><trkpt lat="40.488646568320355" lon="17.397264357717344"><ele>60.0</ele><time>2026-03-29T09:24:20Z</time></trkpt><trkpt lat="40.488375470548775" lon="17.397085886832304"><ele>60.0</ele><time>2026-03-29T09:24:21Z</time></trkpt><trkpt lat="40.488111185788604" lon="17.39694494157723"><ele>60.0</ele><time>2026-03-29T09:24:22Z</time></trkpt><trkpt lat="40.4878514470802" lon="17.396761993693207"><ele>60.0</ele><time>2026-03-29T09:24:23Z</time></trkpt><trkpt lat="40.487607385956544" lon="17.396507858660776"><ele>60.0</ele><time>2026-03-29T09:24:24Z</time></trkpt><trkpt lat="40.48732799451334" lon="17.396380400626054"><ele>60.0</ele><time>2026-03-29T09:24:25Z</time></trkpt><trkpt lat="40.48705396839523" lon="17.396228494364774"><ele>60.0</ele><time>2026-03-29T09:24:26Z</time></trkpt><trkpt lat="40.48681277180727" lon="17.396054778977216"><ele>60.0</ele><time>2026-03-29T09:24:27Z</time></trkpt><trkpt lat="40.48655204560327" lon="17.39591215563314"><ele>60.0</ele><time>2026-03-29T09:24:28Z</time></trkpt><trkpt lat="40.486292783159726" lon="17.395761183817115"><ele>60.0</ele><time>2026-03-29T09:24:29Z</time></trkpt><trkpt lat="40.48603160110816" lon="17.395602401024398"><ele>60.0</ele><time>2026-03-29T09:24:30Z</time></trkpt><trkpt lat="40.485775737988966" lon="17.395456254723552"><ele>60.0</ele><time>2026-03-29T09:24:31Z</time></trkpt><trkpt lat="40.48551786185089" lon="17.395301253980225"><ele>60.0</ele><time>2026-03-29T09:24:32Z</time></trkpt><trkpt lat="40.48527435394674" lon="17.395123303855485"><ele>59.5</ele><time>2026-03-29T09:24:33Z</time></trkpt><trkpt lat="40.484998230349696" lon="17.394979654540165"><ele>59.0</ele><time>2026-03-29T09:24:34Z</time></trkpt><trkpt lat="40.484741602999414" lon="17.394836303034182"><ele>58.0</ele><time>2026-03-29T09:24:35Z</time></trkpt><trkpt lat="40.48449099834048" lon="17.39469034741172"><ele>57.0</ele><time>2026-03-29T09:24:36Z</time></trkpt><trkpt lat="40.48427229427924" lon="17.394554142798107"><ele>55.5</ele><time>2026-03-29T09:24:37Z</time></trkpt><trkpt lat="40.484061585777866" lon="17.39442049010768"><ele>54.0</ele><time>2026-03-29T09:24:38Z</time></trkpt><trkpt lat="40.483857261740795" lon="17.394291838115247"><ele>55.66666666666667</ele><time>2026-03-29T09:24:39Z</time></trkpt><trkpt lat="40.483659371574134" lon="17.394172669407823"><ele>57.333333333333336</ele><time>2026-03-29T09:24:40Z</time></trkpt><trkpt lat="40.48347100597249" lon="17.3940626652053"><ele>59.0</ele><time>2026-03-29T09:24:41Z</time></trkpt><trkpt lat="40.483307241315735" lon="17.393964480988526"><ele>59.0</ele><time>2026-03-29T09:24:42Z</time></trkpt><trkpt lat="40.483158112816476" lon="17.393879550111873"><ele>59.0</ele><time>2026-03-29T09:24:43Z</time></trkpt><trkpt lat="40.483022737814096" lon="17.393813671628607"><ele>59.0</ele><time>2026-03-29T09:24:44Z</time></trkpt><trkpt lat="40.48293485743445" lon="17.3937383748978"><ele>59.0</ele><time>2026-03-29T09:24:45Z</time></trkpt><trkpt lat="40.482857816087055" lon="17.39366751898699"><ele>59.0</ele><time>2026-03-29T09:24:46Z</time></trkpt><trkpt lat="40.482796728828625" lon="17.393563561118253"><ele>59.00000000000001</ele><time>2026-03-29T09:24:47Z</time></trkpt><trkpt lat="40.48274884844491" lon="17.39344396363829"><ele>59.00000000000001</ele><time>2026-03-29T09:24:48Z</time></trkpt><trkpt lat="40.48268305937445" lon="17.39336795415013"><ele>59.0</ele><time>2026-03-29T09:24:49Z</time></trkpt><trkpt lat="40.48260860262194" lon="17.39334278371431"><ele>59.0</ele><time>2026-03-29T09:24:50Z</time></trkpt><trkpt lat="40.48251578931843" lon="17.39334790894452"><ele>59.0</ele><time>2026-03-29T09:24:51Z</time></trkpt><trkpt lat="40.48241910982592" lon="17.393395137373265"><ele>59.0</ele><time>2026-03-29T09:24:52Z</time></trkpt><trkpt lat="40.4823003863077" lon="17.39335496748699"><ele>59.0</ele><time>2026-03-29T09:24:53Z</time></trkpt><trkpt lat="40.48217486403084" lon="17.39329714945253"><ele>59.0</ele><time>2026-03-29T09:24:54Z</time></trkpt><trkpt lat="40.48205620490065" lon="17.393201375373653"><ele>59.0</ele><time>2026-03-29T09:24:55Z</time></trkpt><trkpt lat="40.481912215684005" lon="17.393110771791854"><ele>59.0</ele><time>2026-03-29T09:24:56Z</time></trkpt><trkpt lat="40.48174713432221" lon="17.393014656312182"><ele>59.0</ele><time>2026-03-29T09:24:57Z</time></trkpt><trkpt lat="40.48158347182922" lon="17.39291717975965"><ele>59.0</ele><time>2026-03-29T09:24:58Z</time></trkpt><trkpt lat="40.48141117586984" lon="17.392819381585486"><ele>59.0</ele><time>2026-03-29T09:24:59Z</time></trkpt><trkpt lat="40.48122204982788" lon="17.392708205659247"><ele>59.0</ele><time>2026-03-29T09:25:00Z</time></trkpt><trkpt lat="40.48102031871378" lon="17.39258598419515"><ele>59.5</ele><time>2026-03-29T09:25:01Z</time></trkpt><trkpt lat="40.480814234358114" lon="17.392454701910665"><ele>60.0</ele><time>2026-03-29T09:25:02Z</time></trkpt><trkpt lat="40.48060136169257" lon="17.39231961226217"><ele>60.0</ele><time>2026-03-29T09:25:03Z</time></trkpt><trkpt lat="40.480375444911154" lon="17.392178286821473"><ele>60.0</ele><time>2026-03-29T09:25:04Z</time></trkpt><trkpt lat="40.480141979693904" lon="17.39203338514356"><ele>61.0</ele><time>2026-03-29T09:25:05Z</time></trkpt><trkpt lat="40.47990425323453" lon="17.39188458183083"><ele>62.0</ele><time>2026-03-29T09:25:06Z</time></trkpt><trkpt lat="40.47966735210518" lon="17.391737511002084"><ele>61.5</ele><time>2026-03-29T09:25:07Z</time></trkpt><trkpt lat="40.479434514876736" lon="17.391592022513606"><ele>61.0</ele><time>2026-03-29T09:25:08Z</time></trkpt><trkpt lat="40.479180117551955" lon="17.391420602143786"><ele>60.0</ele><time>2026-03-29T09:25:09Z</time></trkpt><trkpt lat="40.47894187278992" lon="17.391256578677158"><ele>59.0</ele><time>2026-03-29T09:25:10Z</time></trkpt><trkpt lat="40.47871141803676" lon="17.39112956477765"><ele>59.0</ele><time>2026-03-29T09:25:11Z</time></trkpt><trkpt lat="40.478462374488146" lon="17.39097704515966"><ele>59.0</ele><time>2026-03-29T09:25:12Z</time></trkpt><trkpt lat="40.47819997067009" lon="17.390841246689202"><ele>59.0</ele><time>2026-03-29T09:25:13Z</time></trkpt><trkpt lat="40.477965943948554" lon="17.39068408181184"><ele>59.0</ele><time>2026-03-29T09:25:14Z</time></trkpt><trkpt lat="40.47772395998051" lon="17.39053180344272"><ele>57.5</ele><time>2026-03-29T09:25:15Z</time></trkpt><trkpt lat="40.47748586559668" lon="17.390383585172856"><ele>56.0</ele><time>2026-03-29T09:25:16Z</time></trkpt><trkpt lat="40.47725278194326" lon="17.390236715268895"><ele>56.0</ele><time>2026-03-29T09:25:17Z</time></trkpt><trkpt lat="40.477009063200825" lon="17.390089731941632"><ele>56.0</ele><time>2026-03-29T09:25:18Z</time></trkpt><trkpt lat="40.47677851588397" lon="17.38994138029648"><ele>56.0</ele><time>2026-03-29T09:25:19Z</time></trkpt><trkpt lat="40.476535738275984" lon="17.389794600552943"><ele>56.0</ele><time>2026-03-29T09:25:20Z</time></trkpt><trkpt lat="40.47629527996944" lon="17.389648581155264"><ele>56.5</ele><time>2026-03-29T09:25:21Z</time></trkpt><trkpt lat="40.47605495147676" lon="17.389501340168255"><ele>57.0</ele><time>2026-03-29T09:25:22Z</time></trkpt><trkpt lat="40.475815173458365" lon="17.38935743786822"><ele>57.0</ele><time>2026-03-29T09:25:23Z</time></trkpt><trkpt lat="40.47557709380121" lon="17.389209669276372"><ele>57.0</ele><time>2026-03-29T09:25:24Z</time></trkpt><trkpt lat="40.47533701187376" lon="17.389062474330096"><ele>55.5</ele><time>2026-03-29T09:25:25Z</time></trkpt><trkpt lat="40.47510244319088" lon="17.38891625127876"><ele>54.0</ele><time>2026-03-29T09:25:26Z</time></trkpt><trkpt lat="40.47487026788066" lon="17.38877528414665"><ele>54.0</ele><time>2026-03-29T09:25:27Z</time></trkpt><trkpt lat="40.474642465987074" lon="17.388635600645827"><ele>54.0</ele><time>2026-03-29T09:25:28Z</time></trkpt><trkpt lat="40.47442554518969" lon="17.388499310777533"><ele>53.5</ele><time>2026-03-29T09:25:29Z</time></trkpt><trkpt lat="40.474211309741904" lon="17.3883654428606"><ele>53.0</ele><time>2026-03-29T09:25:30Z</time></trkpt><trkpt lat="40.473986495080176" lon="17.388225262751696"><ele>53.0</ele><time>2026-03-29T09:25:31Z</time></trkpt><trkpt lat="40.47375777601994" lon="17.388086443223017"><ele>53.0</ele><time>2026-03-29T09:25:32Z</time></trkpt><trkpt lat="40.47353859927843" lon="17.387944050714264"><ele>53.333333333333336</ele><time>2026-03-29T09:25:33Z</time></trkpt><trkpt lat="40.473340551965435" lon="17.387826725009113"><ele>53.66666666666667</ele><time>2026-03-29T09:25:34Z</time></trkpt><trkpt lat="40.47315726216263" lon="17.387716334269896"><ele>54.0</ele><time>2026-03-29T09:25:35Z</time></trkpt><trkpt lat="40.47299631429065" lon="17.3876162694922"><ele>53.75</ele><time>2026-03-29T09:25:36Z</time></trkpt><trkpt lat="40.4728593110516" lon="17.38753183324512"><ele>53.5</ele><time>2026-03-29T09:25:37Z</time></trkpt><trkpt lat="40.4727345929069" lon="17.387449925427692"><ele>53.25</ele><time>2026-03-29T09:25:38Z</time></trkpt><trkpt lat="40.47261411383332" lon="17.3873746682327"><ele>53.0</ele><time>2026-03-29T09:25:39Z</time></trkpt><trkpt lat="40.47250830028635" lon="17.387282007174512"><ele>53.0</ele><time>2026-03-29T09:25:40Z</time></trkpt><trkpt lat="40.47241977328838" lon="17.3872275915934"><ele>53.0</ele><time>2026-03-29T09:25:41Z</time></trkpt><trkpt lat="40.47232165863891" lon="17.3871933230813"><ele>53.0</ele><time>2026-03-29T09:25:42Z</time></trkpt><trkpt lat="40.47224068082746" lon="17.38712558099312"><ele>53.0</ele><time>2026-03-29T09:25:43Z</time></trkpt><trkpt lat="40.47217409298695" lon="17.38704249497127"><ele>53.0</ele><time>2026-03-29T09:25:44Z</time></trkpt><trkpt lat="40.47212004252862" lon="17.386970721976635"><ele>53.16666666666667</ele><time>2026-03-29T09:25:45Z</time></trkpt><trkpt lat="40.472067216091276" lon="17.386895118428296"><ele>53.333333333333336</ele><time>2026-03-29T09:25:46Z</time></trkpt><trkpt lat="40.47201367356421" lon="17.386840658360427"><ele>53.5</ele><time>2026-03-29T09:25:47Z</time></trkpt><trkpt lat="40.471951268492845" lon="17.386803113891055"><ele>53.66666666666667</ele><time>2026-03-29T09:25:48Z</time></trkpt><trkpt lat="40.47186470899604" lon="17.386783693281636"><ele>53.833333333333336</ele><time>2026-03-29T09:25:49Z</time></trkpt><trkpt lat="40.47174413590335" lon="17.3867345427894"><ele>54.0</ele><time>2026-03-29T09:25:50Z</time></trkpt><trkpt lat="40.47160923265342" lon="17.38668135022105"><ele>54.0</ele><time>2026-03-29T09:25:51Z</time></trkpt><trkpt lat="40.47148891336612" lon="17.38666377065234"><ele>54.0</ele><time>2026-03-29T09:25:52Z</time></trkpt><trkpt lat="40.471342639968086" lon="17.386578874576912"><ele>54.0</ele><time>2026-03-29T09:25:53Z</time></trkpt><trkpt lat="40.47119160607503" lon="17.38648628750955"><ele>54.0</ele><time>2026-03-29T09:25:54Z</time></trkpt><trkpt lat="40.47103572745275" lon="17.386392036932776"><ele>54.5</ele><time>2026-03-29T09:25:55Z</time></trkpt><trkpt lat="40.470907544646884" lon="17.386312279528866"><ele>55.0</ele><time>2026-03-29T09:25:56Z</time></trkpt><trkpt lat="40.470788777288185" lon="17.386239884825123"><ele>55.5</ele><time>2026-03-29T09:25:57Z</time></trkpt><trkpt lat="40.47066924602458" lon="17.386171600073713"><ele>56.0</ele><time>2026-03-29T09:25:58Z</time></trkpt><trkpt lat="40.47053389858677" lon="17.386086484303178"><ele>56.0</ele><time>2026-03-29T09:25:59Z</time></trkpt><trkpt lat="40.47039482732258" lon="17.386003139414562"><ele>56.0</ele><time>2026-03-29T09:26:00Z</time></trkpt><trkpt lat="40.470267925641046" lon="17.38592584100238"><ele>56.0</ele><time>2026-03-29T09:26:01Z</time></trkpt><trkpt lat="40.47014463870946" lon="17.385848074942864"><ele>56.0</ele><time>2026-03-29T09:26:02Z</time></trkpt><trkpt lat="40.4700166248601" lon="17.385769068906434"><ele>56.0</ele><time>2026-03-29T09:26:03Z</time></trkpt><trkpt lat="40.469884189683654" lon="17.385683852202458"><ele>56.0</ele><time>2026-03-29T09:26:04Z</time></trkpt><trkpt lat="40.46973556985344" lon="17.385592900692245"><ele>56.0</ele><time>2026-03-29T09:26:05Z</time></trkpt><trkpt lat="40.469575778757346" lon="17.38549400663351"><ele>56.0</ele><time>2026-03-29T09:26:06Z</time></trkpt><trkpt lat="40.469416887878914" lon="17.385394752262737"><ele>56.0</ele><time>2026-03-29T09:26:07Z</time></trkpt><trkpt lat="40.46926567898177" lon="17.385302909596476"><ele>56.0</ele><time>2026-03-29T09:26:08Z</time></trkpt><trkpt lat="40.46911698381883" lon="17.385207601128748"><ele>56.0</ele><time>2026-03-29T09:26:09Z</time></trkpt><trkpt lat="40.46895412960124" lon="17.38510810983699"><ele>56.0</ele><time>2026-03-29T09:26:10Z</time></trkpt><trkpt lat="40.468798007837634" lon="17.3850086413256"><ele>56.0</ele><time>2026-03-29T09:26:11Z</time></trkpt><trkpt lat="40.46865738337527" lon="17.384925784705025"><ele>56.0</ele><time>2026-03-29T09:26:12Z</time></trkpt><trkpt lat="40.468527982055114" lon="17.384840924308524"><ele>56.0</ele><time>2026-03-29T09:26:13Z</time></trkpt><trkpt lat="40.46839412695413" lon="17.384764971258303"><ele>56.0</ele><time>2026-03-29T09:26:14Z</time></trkpt><trkpt lat="40.46826062246231" lon="17.384687577000584"><ele>56.0</ele><time>2026-03-29T09:26:15Z</time></trkpt><trkpt lat="40.46812715615374" lon="17.38460005500486"><ele>56.0</ele><time>2026-03-29T09:26:16Z</time></trkpt><trkpt lat="40.4679837904401" lon="17.38450357667967"><ele>56.0</ele><time>2026-03-29T09:26:17Z</time></trkpt><trkpt lat="40.46783407088859" lon="17.384403539650126"><ele>56.0</ele><time>2026-03-29T09:26:18Z</time></trkpt><trkpt lat="40.46766895836723" lon="17.384301955629663"><ele>57.0</ele><time>2026-03-29T09:26:19Z</time></trkpt><trkpt lat="40.467508897750925" lon="17.384209597191816"><ele>58.0</ele><time>2026-03-29T09:26:20Z</time></trkpt><trkpt lat="40.46734856857308" lon="17.384107533769697"><ele>59.0</ele><time>2026-03-29T09:26:21Z</time></trkpt><trkpt lat="40.4671878752471" lon="17.384015942019428"><ele>59.0</ele><time>2026-03-29T09:26:22Z</time></trkpt><trkpt lat="40.4670442979767" lon="17.383919073266195"><ele>59.0</ele><time>2026-03-29T09:26:23Z</time></trkpt><trkpt lat="40.46691341459134" lon="17.38383454022754"><ele>59.0</ele><time>2026-03-29T09:26:24Z</time></trkpt><trkpt lat="40.466776273652464" lon="17.383741866217818"><ele>59.0</ele><time>2026-03-29T09:26:25Z</time></trkpt><trkpt lat="40.46663054102341" lon="17.383646927807504"><ele>59.0</ele><time>2026-03-29T09:26:26Z</time></trkpt><trkpt lat="40.46648488500415" lon="17.38356113899607"><ele>59.0</ele><time>2026-03-29T09:26:27Z</time></trkpt><trkpt lat="40.46635555250265" lon="17.383478399003618"><ele>59.25</ele><time>2026-03-29T09:26:28Z</time></trkpt><trkpt lat="40.466235831544" lon="17.383400771591102"><ele>59.5</ele><time>2026-03-29T09:26:29Z</time></trkpt><trkpt lat="40.46611312085696" lon="17.383324711400824"><ele>59.75</ele><time>2026-03-29T09:26:30Z</time></trkpt><trkpt lat="40.46599513785372" lon="17.383245716272523"><ele>60.0</ele><time>2026-03-29T09:26:31Z</time></trkpt><trkpt lat="40.46587240443795" lon="17.383169841789083"><ele>60.0</ele><time>2026-03-29T09:26:32Z</time></trkpt><trkpt lat="40.465746586507116" lon="17.38309795584425"><ele>60.0</ele><time>2026-03-29T09:26:33Z</time></trkpt><trkpt lat="40.465617661665135" lon="17.383004399356157"><ele>60.0</ele><time>2026-03-29T09:26:34Z</time></trkpt><trkpt lat="40.465507761993905" lon="17.38293988623611"><ele>60.0</ele><time>2026-03-29T09:26:35Z</time></trkpt><trkpt lat="40.46540308588408" lon="17.38287539562724"><ele>59.8</ele><time>2026-03-29T09:26:36Z</time></trkpt><trkpt lat="40.46529617612516" lon="17.382808297755407"><ele>59.6</ele><time>2026-03-29T09:26:37Z</time></trkpt><trkpt lat="40.46519757230628" lon="17.382745982061785"><ele>59.400000000000006</ele><time>2026-03-29T09:26:38Z</time></trkpt><trkpt lat="40.4651069040614" lon="17.382695611274194"><ele>59.2</ele><time>2026-03-29T09:26:39Z</time></trkpt><trkpt lat="40.46499941803659" lon="17.382623353358444"><ele>59.0</ele><time>2026-03-29T09:26:40Z</time></trkpt><trkpt lat="40.46490280569595" lon="17.382541490936692"><ele>59.00000000000001</ele><time>2026-03-29T09:26:41Z</time></trkpt><trkpt lat="40.46483097516284" lon="17.382468085465444"><ele>59.0</ele><time>2026-03-29T09:26:42Z</time></trkpt><trkpt lat="40.464748420119854" lon="17.38239776059105"><ele>59.0</ele><time>2026-03-29T09:26:43Z</time></trkpt><trkpt lat="40.46468592607044" lon="17.382342929329077"><ele>59.0</ele><time>2026-03-29T09:26:44Z</time></trkpt><trkpt lat="40.464630319620056" lon="17.382291284973597"><ele>59.00000000000001</ele><time>2026-03-29T09:26:45Z</time></trkpt><trkpt lat="40.46458724818257" lon="17.382225176981795"><ele>59.0</ele><time>2026-03-29T09:26:46Z</time></trkpt><trkpt lat="40.46452513112021" lon="17.38215638254392"><ele>59.333333333333336</ele><time>2026-03-29T09:26:47Z</time></trkpt><trkpt lat="40.464452292395706" lon="17.382083057254082"><ele>59.66666666666667</ele><time>2026-03-29T09:26:48Z</time></trkpt><trkpt lat="40.46439279980794" lon="17.38203402757582"><ele>60.0</ele><time>2026-03-29T09:26:49Z</time></trkpt><trkpt lat="40.46432501753443" lon="17.381994801783517"><ele>60.33333333333333</ele><time>2026-03-29T09:26:50Z</time></trkpt><trkpt lat="40.46426219872362" lon="17.381881905744592"><ele>60.666666666666664</ele><time>2026-03-29T09:26:51Z</time></trkpt><trkpt lat="40.464177026164506" lon="17.381819325231817"><ele>61.0</ele><time>2026-03-29T09:26:52Z</time></trkpt><trkpt lat="40.46409801892528" lon="17.381799062437707"><ele>60.99999999999999</ele><time>2026-03-29T09:26:53Z</time></trkpt><trkpt lat="40.46404988630047" lon="17.381707095282675"><ele>61.0</ele><time>2026-03-29T09:26:54Z</time></trkpt><trkpt lat="40.46395073129925" lon="17.381643460453642"><ele>61.0</ele><time>2026-03-29T09:26:55Z</time></trkpt><trkpt lat="40.46385179921705" lon="17.381593709306813"><ele>61.0</ele><time>2026-03-29T09:26:56Z</time></trkpt><trkpt lat="40.46378272320172" lon="17.381546978984225"><ele>60.99999999999999</ele><time>2026-03-29T09:26:57Z</time></trkpt><trkpt lat="40.46372906980393" lon="17.381500182286064"><ele>61.0</ele><time>2026-03-29T09:26:58Z</time></trkpt><trkpt lat="40.46365098965422" lon="17.381522454129303"><ele>61.199999999999996</ele><time>2026-03-29T09:26:59Z</time></trkpt><trkpt lat="40.463559187335804" lon="17.3814761737458"><ele>61.39999999999999</ele><time>2026-03-29T09:27:01Z</time></trkpt><trkpt lat="40.46346247615825" lon="17.381485473963764"><ele>61.6</ele><time>2026-03-29T09:27:03Z</time></trkpt><trkpt lat="40.46338398670093" lon="17.38149750450911"><ele>61.8</ele><time>2026-03-29T09:27:04Z</time></trkpt><trkpt lat="40.463287782417105" lon="17.38148750116946"><ele>62.0</ele><time>2026-03-29T09:27:05Z</time></trkpt><trkpt lat="40.46318831558076" lon="17.381471349504633"><ele>62.00000000000001</ele><time>2026-03-29T09:27:06Z</time></trkpt><trkpt lat="40.46309276205359" lon="17.381440432378792"><ele>62.0</ele><time>2026-03-29T09:27:07Z</time></trkpt><trkpt lat="40.46300444206151" lon="17.381394672454388"><ele>62.0</ele><time>2026-03-29T09:27:08Z</time></trkpt><trkpt lat="40.46294022157279" lon="17.381335070645466"><ele>62.0</ele><time>2026-03-29T09:27:09Z</time></trkpt><trkpt lat="40.46286673073376" lon="17.381297113212888"><ele>62.00000000000001</ele><time>2026-03-29T09:27:10Z</time></trkpt><trkpt lat="40.46278701425659" lon="17.381250733439114"><ele>62.0</ele><time>2026-03-29T09:27:11Z</time></trkpt><trkpt lat="40.46271267845364" lon="17.381180674260285"><ele>62.2</ele><time>2026-03-29T09:27:12Z</time></trkpt><trkpt lat="40.46261922930594" lon="17.381129078708046"><ele>62.400000000000006</ele><time>2026-03-29T09:27:13Z</time></trkpt><trkpt lat="40.46251841968605" lon="17.381071957088167"><ele>62.599999999999994</ele><time>2026-03-29T09:27:14Z</time></trkpt><trkpt lat="40.46243127771786" lon="17.381016766614223"><ele>62.8</ele><time>2026-03-29T09:27:15Z</time></trkpt><trkpt lat="40.462355950925605" lon="17.38096763941776"><ele>63.0</ele><time>2026-03-29T09:27:16Z</time></trkpt><trkpt lat="40.46229018317563" lon="17.380924061121032"><ele>63.0</ele><time>2026-03-29T09:27:17Z</time></trkpt><trkpt lat="40.462219985404936" lon="17.38088699677515"><ele>63.0</ele><time>2026-03-29T09:27:18Z</time></trkpt><trkpt lat="40.46214897038862" lon="17.380838382636657"><ele>63.0</ele><time>2026-03-29T09:27:19Z</time></trkpt><trkpt lat="40.462049019303464" lon="17.380773842204082"><ele>63.0</ele><time>2026-03-29T09:27:20Z</time></trkpt><trkpt lat="40.46195619410903" lon="17.38071034748058"><ele>63.0</ele><time>2026-03-29T09:27:21Z</time></trkpt><trkpt lat="40.46185695811968" lon="17.38065176305039"><ele>63.333333333333336</ele><time>2026-03-29T09:27:22Z</time></trkpt><trkpt lat="40.461767294361344" lon="17.380604264251893"><ele>63.66666666666667</ele><time>2026-03-29T09:27:23Z</time></trkpt><trkpt lat="40.46170125710168" lon="17.38055446362607"><ele>64.0</ele><time>2026-03-29T09:27:24Z</time></trkpt><trkpt lat="40.46163824645987" lon="17.380529743860773"><ele>64.33333333333334</ele><time>2026-03-29T09:27:25Z</time></trkpt><trkpt lat="40.46154792032549" lon="17.380466929499885"><ele>64.66666666666667</ele><time>2026-03-29T09:27:27Z</time></trkpt><trkpt lat="40.46147699733596" lon="17.380410212068323"><ele>65.0</ele><time>2026-03-29T09:27:29Z</time></trkpt><trkpt lat="40.46140710421663" lon="17.380369566936956"><ele>65.16666666666667</ele><time>2026-03-29T09:27:31Z</time></trkpt><trkpt lat="40.46134244429055" lon="17.380330737187705"><ele>65.33333333333334</ele><time>2026-03-29T09:27:33Z</time></trkpt><trkpt lat="40.46126794047692" lon="17.380285063345237"><ele>65.5</ele><time>2026-03-29T09:27:36Z</time></trkpt><trkpt lat="40.461208049759804" lon="17.380246752147617"><ele>65.66666666666667</ele><time>2026-03-29T09:27:38Z</time></trkpt><trkpt lat="40.46112995191254" lon="17.380192990799788"><ele>65.83333333333333</ele><time>2026-03-29T09:27:41Z</time></trkpt><trkpt lat="40.4610625363941" lon="17.380144378631044"><ele>66.0</ele><time>2026-03-29T09:27:44Z</time></trkpt><trkpt lat="40.460991723005804" lon="17.380129204260406"><ele>66.39999999999999</ele><time>2026-03-29T09:27:46Z</time></trkpt><trkpt lat="40.460934099824854" lon="17.380078579336892"><ele>66.8</ele><time>2026-03-29T09:27:47Z</time></trkpt><trkpt lat="40.460865511723" lon="17.380051323324775"><ele>67.19999999999999</ele><time>2026-03-29T09:27:48Z</time></trkpt><trkpt lat="40.460758308732046" lon="17.379980051626053"><ele>67.6</ele><time>2026-03-29T09:27:49Z</time></trkpt><trkpt lat="40.46065196095476" lon="17.37992534519735"><ele>68.0</ele><time>2026-03-29T09:27:50Z</time></trkpt><trkpt lat="40.46053585509527" lon="17.379860852027512"><ele>68.6</ele><time>2026-03-29T09:27:51Z</time></trkpt><trkpt lat="40.46041385753225" lon="17.379785476477338"><ele>69.19999999999999</ele><time>2026-03-29T09:27:52Z</time></trkpt><trkpt lat="40.46031204524326" lon="17.379725154643495"><ele>69.8</ele><time>2026-03-29T09:27:53Z</time></trkpt><trkpt lat="40.46023039580231" lon="17.37965358794273"><ele>70.39999999999999</ele><time>2026-03-29T09:27:54Z</time></trkpt><trkpt lat="40.46015125962078" lon="17.37959350982358"><ele>71.0</ele><time>2026-03-29T09:27:55Z</time></trkpt><trkpt lat="40.460073018328096" lon="17.379543587623946"><ele>71.0</ele><time>2026-03-29T09:27:56Z</time></trkpt><trkpt lat="40.45998951916087" lon="17.37949329846662"><ele>71.0</ele><time>2026-03-29T09:27:57Z</time></trkpt><trkpt lat="40.4599245189877" lon="17.37944656989528"><ele>71.0</ele><time>2026-03-29T09:27:58Z</time></trkpt><trkpt lat="40.45982718090855" lon="17.37929920503081"><ele>71.0</ele><time>2026-03-29T09:28:00Z</time></trkpt><trkpt lat="40.459803902334926" lon="17.379177492865775"><ele>71.0</ele><time>2026-03-29T09:28:01Z</time></trkpt><trkpt lat="40.45981577360296" lon="17.379068313426956"><ele>71.0</ele><time>2026-03-29T09:28:02Z</time></trkpt><trkpt lat="40.459824421771025" lon="17.378983085693623"><ele>71.0</ele><time>2026-03-29T09:28:03Z</time></trkpt><trkpt lat="40.45982901187279" lon="17.378819594947764"><ele>71.0</ele><time>2026-03-29T09:28:05Z</time></trkpt><trkpt lat="40.45982596558251" lon="17.37870130749874"><ele>71.0</ele><time>2026-03-29T09:28:06Z</time></trkpt><trkpt lat="40.45982141211555" lon="17.378597389179294"><ele>71.0</ele><time>2026-03-29T09:28:07Z</time></trkpt><trkpt lat="40.45982428383779" lon="17.378435716108754"><ele>70.83333333333334</ele><time>2026-03-29T09:28:09Z</time></trkpt><trkpt lat="40.45984085994631" lon="17.378316336491828"><ele>70.66666666666667</ele><time>2026-03-29T09:28:10Z</time></trkpt><trkpt lat="40.459826510733045" lon="17.37818725268998"><ele>70.5</ele><time>2026-03-29T09:28:11Z</time></trkpt><trkpt lat="40.45984243607826" lon="17.37807835852671"><ele>70.33333333333333</ele><time>2026-03-29T09:28:12Z</time></trkpt><trkpt lat="40.45983618011757" lon="17.377990418543686"><ele>70.16666666666666</ele><time>2026-03-29T09:28:13Z</time></trkpt><trkpt lat="40.45983807105451" lon="17.37787058241325"><ele>70.0</ele><time>2026-03-29T09:28:14Z</time></trkpt><trkpt lat="40.45983983611769" lon="17.377755706249637"><ele>70.6</ele><time>2026-03-29T09:28:15Z</time></trkpt><trkpt lat="40.45984059541483" lon="17.3776459357405"><ele>71.2</ele><time>2026-03-29T09:28:16Z</time></trkpt><trkpt lat="40.459840835072285" lon="17.377512100106067"><ele>71.8</ele><time>2026-03-29T09:28:17Z</time></trkpt><trkpt lat="40.45985106219516" lon="17.37736520198315"><ele>72.4</ele><time>2026-03-29T09:28:18Z</time></trkpt><trkpt lat="40.45984639331904" lon="17.377244847539043"><ele>73.0</ele><time>2026-03-29T09:28:19Z</time></trkpt><trkpt lat="40.45984686219515" lon="17.37711958696793"><ele>73.0</ele><time>2026-03-29T09:28:20Z</time></trkpt><trkpt lat="40.45984613260813" lon="17.376978122267232"><ele>73.0</ele><time>2026-03-29T09:28:21Z</time></trkpt><trkpt lat="40.45984369204545" lon="17.376856633524433"><ele>73.0</ele><time>2026-03-29T09:28:22Z</time></trkpt><trkpt lat="40.459857159944384" lon="17.376750459032095"><ele>73.0</ele><time>2026-03-29T09:28:23Z</time></trkpt><trkpt lat="40.45984142264617" lon="17.37662337635848"><ele>73.0</ele><time>2026-03-29T09:28:24Z</time></trkpt><trkpt lat="40.45984385964163" lon="17.37650022924474"><ele>73.0</ele><time>2026-03-29T09:28:25Z</time></trkpt><trkpt lat="40.45984956933459" lon="17.37639491851972"><ele>73.0</ele><time>2026-03-29T09:28:26Z</time></trkpt><trkpt lat="40.459848542359914" lon="17.376272657226345"><ele>73.0</ele><time>2026-03-29T09:28:27Z</time></trkpt><trkpt lat="40.45985315206572" lon="17.376167300413563"><ele>73.0</ele><time>2026-03-29T09:28:28Z</time></trkpt><trkpt lat="40.459857294098015" lon="17.376078289191796"><ele>73.0</ele><time>2026-03-29T09:28:29Z</time></trkpt><trkpt lat="40.45986012449313" lon="17.375977529672554"><ele>73.0</ele><time>2026-03-29T09:28:30Z</time></trkpt><trkpt lat="40.45986046485543" lon="17.375855122197898"><ele>72.5</ele><time>2026-03-29T09:28:31Z</time></trkpt><trkpt lat="40.45985949667486" lon="17.375715552793896"><ele>72.0</ele><time>2026-03-29T09:28:32Z</time></trkpt><trkpt lat="40.45985951137524" lon="17.375564147128195"><ele>71.5</ele><time>2026-03-29T09:28:33Z</time></trkpt><trkpt lat="40.45986309782595" lon="17.375410231655096"><ele>71.0</ele><time>2026-03-29T09:28:34Z</time></trkpt><trkpt lat="40.45986635752396" lon="17.3752605552759"><ele>70.5</ele><time>2026-03-29T09:28:35Z</time></trkpt><trkpt lat="40.459867856299894" lon="17.375133421052382"><ele>70.0</ele><time>2026-03-29T09:28:36Z</time></trkpt><trkpt lat="40.45986735759545" lon="17.375020005334004"><ele>69.5</ele><time>2026-03-29T09:28:37Z</time></trkpt><trkpt lat="40.459862529632744" lon="17.37491076154238"><ele>69.0</ele><time>2026-03-29T09:28:38Z</time></trkpt><trkpt lat="40.459873830410665" lon="17.374820815866514"><ele>68.5</ele><time>2026-03-29T09:28:39Z</time></trkpt><trkpt lat="40.45987474967891" lon="17.37472281039535"><ele>68.0</ele><time>2026-03-29T09:28:40Z</time></trkpt><trkpt lat="40.459873868540086" lon="17.37461147054846"><ele>67.2</ele><time>2026-03-29T09:28:41Z</time></trkpt><trkpt lat="40.459872365096" lon="17.374488343563897"><ele>66.4</ele><time>2026-03-29T09:28:42Z</time></trkpt><trkpt lat="40.45987284838986" lon="17.37436475911584"><ele>65.60000000000001</ele><time>2026-03-29T09:28:43Z</time></trkpt><trkpt lat="40.45987276832197" lon="17.374234818186988"><ele>64.8</ele><time>2026-03-29T09:28:44Z</time></trkpt><trkpt lat="40.4598707681571" lon="17.37411262477329"><ele>64.0</ele><time>2026-03-29T09:28:45Z</time></trkpt><trkpt lat="40.45986934144547" lon="17.374007539371476"><ele>64.0</ele><time>2026-03-29T09:28:46Z</time></trkpt><trkpt lat="40.459885370610415" lon="17.37390511000237"><ele>64.0</ele><time>2026-03-29T09:28:47Z</time></trkpt><trkpt lat="40.459886678437655" lon="17.37379885456702"><ele>64.0</ele><time>2026-03-29T09:28:48Z</time></trkpt><trkpt lat="40.459886512992895" lon="17.37362086377945"><ele>64.0</ele><time>2026-03-29T09:28:50Z</time></trkpt><trkpt lat="40.459882923808756" lon="17.37350670442513"><ele>64.0</ele><time>2026-03-29T09:28:51Z</time></trkpt><trkpt lat="40.45989122481269" lon="17.37340340003526"><ele>63.0</ele><time>2026-03-29T09:28:52Z</time></trkpt><trkpt lat="40.45988991818467" lon="17.373284475202365"><ele>62.00000000000001</ele><time>2026-03-29T09:28:53Z</time></trkpt><trkpt lat="40.459882568220365" lon="17.373151752883345"><ele>61.00000000000001</ele><time>2026-03-29T09:28:54Z</time></trkpt><trkpt lat="40.45989581051272" lon="17.373020528219357"><ele>60.0</ele><time>2026-03-29T09:28:55Z</time></trkpt><trkpt lat="40.45989722477777" lon="17.372892606426213"><ele>59.0</ele><time>2026-03-29T09:28:56Z</time></trkpt><trkpt lat="40.45988699678336" lon="17.372781552345273"><ele>57.800000000000004</ele><time>2026-03-29T09:28:57Z</time></trkpt><trkpt lat="40.459900110716426" lon="17.372653290528362"><ele>56.60000000000001</ele><time>2026-03-29T09:28:58Z</time></trkpt><trkpt lat="40.459903398504686" lon="17.372521486252072"><ele>55.4</ele><time>2026-03-29T09:28:59Z</time></trkpt><trkpt lat="40.459908160797816" lon="17.372388298775366"><ele>54.2</ele><time>2026-03-29T09:29:00Z</time></trkpt><trkpt lat="40.45990520707441" lon="17.372261910129954"><ele>53.0</ele><time>2026-03-29T09:29:01Z</time></trkpt><trkpt lat="40.45990470188748" lon="17.37214078431362"><ele>52.16666666666667</ele><time>2026-03-29T09:29:02Z</time></trkpt><trkpt lat="40.45990070641048" lon="17.372049824871052"><ele>51.333333333333336</ele><time>2026-03-29T09:29:03Z</time></trkpt><trkpt lat="40.45990410695689" lon="17.371907430271797"><ele>50.5</ele><time>2026-03-29T09:29:05Z</time></trkpt><trkpt lat="40.45990827202973" lon="17.371794543306184"><ele>49.66666666666667</ele><time>2026-03-29T09:29:07Z</time></trkpt><trkpt lat="40.459908593151965" lon="17.37170443569473"><ele>48.833333333333336</ele><time>2026-03-29T09:29:09Z</time></trkpt><trkpt lat="40.45990954938343" lon="17.371587243660652"><ele>48.0</ele><time>2026-03-29T09:29:12Z</time></trkpt><trkpt lat="40.45991510577991" lon="17.371500611815378"><ele>48.0</ele><time>2026-03-29T09:29:14Z</time></trkpt><trkpt lat="40.45991645799494" lon="17.3714090484391"><ele>48.0</ele><time>2026-03-29T09:29:16Z</time></trkpt><trkpt lat="40.45977415174871" lon="17.371346438817795"><ele>48.0</ele><time>2026-03-29T09:29:18Z</time></trkpt><trkpt lat="40.459707347904235" lon="17.371272938779462"><ele>48.0</ele><time>2026-03-29T09:29:20Z</time></trkpt><trkpt lat="40.45964037505549" lon="17.371193833919136"><ele>48.0</ele><time>2026-03-29T09:29:22Z</time></trkpt><trkpt lat="40.45959958339885" lon="17.371128133236788"><ele>48.25</ele><time>2026-03-29T09:29:23Z</time></trkpt><trkpt lat="40.45951380397761" lon="17.371053430724505"><ele>48.5</ele><time>2026-03-29T09:29:24Z</time></trkpt><trkpt lat="40.459428293512566" lon="17.37094809690022"><ele>48.75</ele><time>2026-03-29T09:29:25Z</time></trkpt><trkpt lat="40.45932051881237" lon="17.370838276485372"><ele>49.0</ele><time>2026-03-29T09:29:26Z</time></trkpt><trkpt lat="40.45917278523235" lon="17.37074325787769"><ele>49.0</ele><time>2026-03-29T09:29:27Z</time></trkpt><trkpt lat="40.458987994422124" lon="17.370638845981667"><ele>49.0</ele><time>2026-03-29T09:29:28Z</time></trkpt><trkpt lat="40.458778242413345" lon="17.370581284943743"><ele>49.0</ele><time>2026-03-29T09:29:29Z</time></trkpt><trkpt lat="40.45857299921862" lon="17.37052672607443"><ele>46.0</ele><time>2026-03-29T09:29:30Z</time></trkpt><trkpt lat="40.45836824305336" lon="17.37047598930615"><ele>43.0</ele><time>2026-03-29T09:29:31Z</time></trkpt><trkpt lat="40.45817306239467" lon="17.37043138217237"><ele>40.0</ele><time>2026-03-29T09:29:32Z</time></trkpt><trkpt lat="40.45799968839222" lon="17.370400389408644"><ele>40.0</ele><time>2026-03-29T09:29:33Z</time></trkpt><trkpt lat="40.457809035643656" lon="17.370360773854674"><ele>40.0</ele><time>2026-03-29T09:29:34Z</time></trkpt><trkpt lat="40.45760334938381" lon="17.370323038769165"><ele>40.0</ele><time>2026-03-29T09:29:35Z</time></trkpt><trkpt lat="40.45738265673037" lon="17.3702787871368"><ele>40.0</ele><time>2026-03-29T09:29:36Z</time></trkpt><trkpt lat="40.4571579491516" lon="17.37022797992445"><ele>40.0</ele><time>2026-03-29T09:29:37Z</time></trkpt><trkpt lat="40.456911158471385" lon="17.370157790556576"><ele>39.5</ele><time>2026-03-29T09:29:38Z</time></trkpt><trkpt lat="40.456641505669175" lon="17.370059287907733"><ele>39.0</ele><time>2026-03-29T09:29:39Z</time></trkpt><trkpt lat="40.45635444920801" lon="17.369993498242597"><ele>38.0</ele><time>2026-03-29T09:29:40Z</time></trkpt><trkpt lat="40.456069715064956" lon="17.369929316733074"><ele>37.0</ele><time>2026-03-29T09:29:41Z</time></trkpt><trkpt lat="40.45578679064983" lon="17.369864580562243"><ele>37.0</ele><time>2026-03-29T09:29:42Z</time></trkpt><trkpt lat="40.45550509571865" lon="17.369796667735212"><ele>37.0</ele><time>2026-03-29T09:29:43Z</time></trkpt><trkpt lat="40.45523027190362" lon="17.36974300431231"><ele>35.5</ele><time>2026-03-29T09:29:44Z</time></trkpt><trkpt lat="40.454955665255504" lon="17.369673557915693"><ele>34.0</ele><time>2026-03-29T09:29:45Z</time></trkpt><trkpt lat="40.4546829035825" lon="17.369609468135337"><ele>33.0</ele><time>2026-03-29T09:29:46Z</time></trkpt><trkpt lat="40.45440450819624" lon="17.369533382120224"><ele>32.0</ele><time>2026-03-29T09:29:47Z</time></trkpt><trkpt lat="40.454139024181195" lon="17.369472681869418"><ele>32.0</ele><time>2026-03-29T09:29:48Z</time></trkpt><trkpt lat="40.45386164252969" lon="17.3694027256263"><ele>32.0</ele><time>2026-03-29T09:29:49Z</time></trkpt><trkpt lat="40.453584760413946" lon="17.36933090568238"><ele>32.0</ele><time>2026-03-29T09:29:50Z</time></trkpt><trkpt lat="40.45332435146681" lon="17.36926619654681"><ele>32.0</ele><time>2026-03-29T09:29:51Z</time></trkpt><trkpt lat="40.453062308271285" lon="17.369205250503853"><ele>33.5</ele><time>2026-03-29T09:29:52Z</time></trkpt><trkpt lat="40.45279623990612" lon="17.36914083498815"><ele>35.0</ele><time>2026-03-29T09:29:53Z</time></trkpt><trkpt lat="40.45253071658092" lon="17.369073846060818"><ele>35.0</ele><time>2026-03-29T09:29:54Z</time></trkpt><trkpt lat="40.45226009635093" lon="17.369004527572997"><ele>35.0</ele><time>2026-03-29T09:29:55Z</time></trkpt><trkpt lat="40.451985713769496" lon="17.368941251818065"><ele>35.0</ele><time>2026-03-29T09:29:56Z</time></trkpt><trkpt lat="40.451713401200976" lon="17.368872958037567"><ele>35.0</ele><time>2026-03-29T09:29:57Z</time></trkpt><trkpt lat="40.45144217839729" lon="17.368805913354457"><ele>34.0</ele><time>2026-03-29T09:29:58Z</time></trkpt><trkpt lat="40.45117251805213" lon="17.36874099780496"><ele>33.0</ele><time>2026-03-29T09:29:59Z</time></trkpt><trkpt lat="40.45089584347248" lon="17.368677036876644"><ele>33.0</ele><time>2026-03-29T09:30:00Z</time></trkpt><trkpt lat="40.45062519930785" lon="17.368603880061638"><ele>33.0</ele><time>2026-03-29T09:30:01Z</time></trkpt><trkpt lat="40.45035304673555" lon="17.36853894483277"><ele>32.0</ele><time>2026-03-29T09:30:02Z</time></trkpt><trkpt lat="40.450082880260176" lon="17.368476232592776"><ele>31.0</ele><time>2026-03-29T09:30:03Z</time></trkpt><trkpt lat="40.44981558980742" lon="17.36841442904616"><ele>30.5</ele><time>2026-03-29T09:30:04Z</time></trkpt><trkpt lat="40.44954525240523" lon="17.36835066860925"><ele>30.0</ele><time>2026-03-29T09:30:05Z</time></trkpt><trkpt lat="40.44928588293243" lon="17.368293168791453"><ele>30.0</ele><time>2026-03-29T09:30:06Z</time></trkpt><trkpt lat="40.44901739830778" lon="17.36823152748351"><ele>30.0</ele><time>2026-03-29T09:30:07Z</time></trkpt><trkpt lat="40.448755048305536" lon="17.368170616488996"><ele>31.5</ele><time>2026-03-29T09:30:08Z</time></trkpt><trkpt lat="40.448496700572946" lon="17.36810144400117"><ele>33.0</ele><time>2026-03-29T09:30:09Z</time></trkpt><trkpt lat="40.44824222693172" lon="17.368043544603264"><ele>31.5</ele><time>2026-03-29T09:30:10Z</time></trkpt><trkpt lat="40.44797833249491" lon="17.36797423341586"><ele>30.0</ele><time>2026-03-29T09:30:11Z</time></trkpt><trkpt lat="40.44770881048528" lon="17.367910129365892"><ele>30.0</ele><time>2026-03-29T09:30:12Z</time></trkpt><trkpt lat="40.44742634506233" lon="17.367844989608468"><ele>30.0</ele><time>2026-03-29T09:30:13Z</time></trkpt><trkpt lat="40.44714037630112" lon="17.36777377731938"><ele>29.5</ele><time>2026-03-29T09:30:14Z</time></trkpt><trkpt lat="40.44685278660306" lon="17.36770390230616"><ele>29.0</ele><time>2026-03-29T09:30:15Z</time></trkpt><trkpt lat="40.44657505456927" lon="17.367631393907413"><ele>29.0</ele><time>2026-03-29T09:30:16Z</time></trkpt><trkpt lat="40.44631161372274" lon="17.367566817599744"><ele>29.0</ele><time>2026-03-29T09:30:17Z</time></trkpt><trkpt lat="40.44603361051322" lon="17.367498000138653"><ele>27.5</ele><time>2026-03-29T09:30:18Z</time></trkpt><trkpt lat="40.445752261027316" lon="17.36743104125898"><ele>26.0</ele><time>2026-03-29T09:30:19Z</time></trkpt><trkpt lat="40.44547920690426" lon="17.367350156503036"><ele>28.0</ele><time>2026-03-29T09:30:20Z</time></trkpt><trkpt lat="40.445196861048316" lon="17.36729638565482"><ele>30.0</ele><time>2026-03-29T09:30:21Z</time></trkpt><trkpt lat="40.44491776889716" lon="17.367234517202405"><ele>29.0</ele><time>2026-03-29T09:30:22Z</time></trkpt><trkpt lat="40.44464721250542" lon="17.367168455352747"><ele>28.0</ele><time>2026-03-29T09:30:23Z</time></trkpt><trkpt lat="40.444404723609026" lon="17.3671099888917"><ele>28.0</ele><time>2026-03-29T09:30:24Z</time></trkpt><trkpt lat="40.44416430552878" lon="17.367047519112162"><ele>28.0</ele><time>2026-03-29T09:30:25Z</time></trkpt><trkpt lat="40.44391765951799" lon="17.36698941439367"><ele>27.0</ele><time>2026-03-29T09:30:26Z</time></trkpt><trkpt lat="40.443666940705164" lon="17.366934883311732"><ele>26.0</ele><time>2026-03-29T09:30:27Z</time></trkpt><trkpt lat="40.44343563772935" lon="17.366883065580584"><ele>26.0</ele><time>2026-03-29T09:30:28Z</time></trkpt><trkpt lat="40.44321055694615" lon="17.366827836141777"><ele>26.0</ele><time>2026-03-29T09:30:29Z</time></trkpt><trkpt lat="40.44297241130591" lon="17.36676812990321"><ele>26.0</ele><time>2026-03-29T09:30:30Z</time></trkpt><trkpt lat="40.442724669711346" lon="17.36670987221888"><ele>26.0</ele><time>2026-03-29T09:30:31Z</time></trkpt><trkpt lat="40.44248460900536" lon="17.36664878346519"><ele>26.0</ele><time>2026-03-29T09:30:32Z</time></trkpt><trkpt lat="40.442264677352064" lon="17.366595839117846"><ele>26.0</ele><time>2026-03-29T09:30:33Z</time></trkpt><trkpt lat="40.44205867487679" lon="17.36654455582659"><ele>26.0</ele><time>2026-03-29T09:30:34Z</time></trkpt><trkpt lat="40.441852370511555" lon="17.366495216230046"><ele>26.0</ele><time>2026-03-29T09:30:35Z</time></trkpt><trkpt lat="40.441660920832255" lon="17.366445138484107"><ele>26.0</ele><time>2026-03-29T09:30:36Z</time></trkpt><trkpt lat="40.44147424069446" lon="17.366395952224142"><ele>26.0</ele><time>2026-03-29T09:30:37Z</time></trkpt><trkpt lat="40.44129377784311" lon="17.366347043351688"><ele>26.0</ele><time>2026-03-29T09:30:38Z</time></trkpt><trkpt lat="40.44112820119594" lon="17.36630241799375"><ele>26.0</ele><time>2026-03-29T09:30:39Z</time></trkpt><trkpt lat="40.440979103512674" lon="17.366266176500734"><ele>26.0</ele><time>2026-03-29T09:30:40Z</time></trkpt><trkpt lat="40.44084025388833" lon="17.366233319351732"><ele>26.0</ele><time>2026-03-29T09:30:41Z</time></trkpt><trkpt lat="40.44070404054406" lon="17.36620225498654"><ele>26.0</ele><time>2026-03-29T09:30:42Z</time></trkpt><trkpt lat="40.440587751607474" lon="17.36617287494395"><ele>26.0</ele><time>2026-03-29T09:30:43Z</time></trkpt><trkpt lat="40.44048060092389" lon="17.366145015354537"><ele>26.0</ele><time>2026-03-29T09:30:44Z</time></trkpt><trkpt lat="40.440366487704146" lon="17.36611638797295"><ele>26.200000000000003</ele><time>2026-03-29T09:30:45Z</time></trkpt><trkpt lat="40.44026724356461" lon="17.36609026655684"><ele>26.400000000000002</ele><time>2026-03-29T09:30:46Z</time></trkpt><trkpt lat="40.44017105225726" lon="17.36606784353374"><ele>26.6</ele><time>2026-03-29T09:30:47Z</time></trkpt><trkpt lat="40.44007495956877" lon="17.366041331786022"><ele>26.8</ele><time>2026-03-29T09:30:48Z</time></trkpt><trkpt lat="40.439982717468595" lon="17.366010032706086"><ele>27.0</ele><time>2026-03-29T09:30:49Z</time></trkpt><trkpt lat="40.43990555181768" lon="17.3659803442512"><ele>27.0</ele><time>2026-03-29T09:30:50Z</time></trkpt><trkpt lat="40.4398378325523" lon="17.36595566403032"><ele>27.0</ele><time>2026-03-29T09:30:51Z</time></trkpt><trkpt lat="40.4397407142707" lon="17.365938135928403"><ele>27.0</ele><time>2026-03-29T09:30:53Z</time></trkpt><trkpt lat="40.43967579240419" lon="17.365926342706395"><ele>27.0</ele><time>2026-03-29T09:30:55Z</time></trkpt><trkpt lat="40.439573067505954" lon="17.365923046655972"><ele>27.0</ele><time>2026-03-29T09:31:24Z</time></trkpt><trkpt lat="40.43950600760057" lon="17.365901079870874"><ele>27.0</ele><time>2026-03-29T09:31:25Z</time></trkpt><trkpt lat="40.43942225546966" lon="17.365881369054996"><ele>26.75</ele><time>2026-03-29T09:31:26Z</time></trkpt><trkpt lat="40.43930902165343" lon="17.365857890940617"><ele>26.5</ele><time>2026-03-29T09:31:27Z</time></trkpt><trkpt lat="40.439187929859976" lon="17.365825196728487"><ele>26.25</ele><time>2026-03-29T09:31:28Z</time></trkpt><trkpt lat="40.43905179967808" lon="17.36579703160556"><ele>26.0</ele><time>2026-03-29T09:31:29Z</time></trkpt><trkpt lat="40.43889413566984" lon="17.365767198049966"><ele>25.666666666666664</ele><time>2026-03-29T09:31:30Z</time></trkpt><trkpt lat="40.438714373160174" lon="17.365730220769557"><ele>25.333333333333336</ele><time>2026-03-29T09:31:31Z</time></trkpt><trkpt lat="40.43851423973586" lon="17.365683223761927"><ele>25.0</ele><time>2026-03-29T09:31:32Z</time></trkpt><trkpt lat="40.43831921331602" lon="17.365635872771154"><ele>25.0</ele><time>2026-03-29T09:31:33Z</time></trkpt><trkpt lat="40.438111066627386" lon="17.365586039524302"><ele>25.0</ele><time>2026-03-29T09:31:34Z</time></trkpt><trkpt lat="40.43789449627597" lon="17.36553577144474"><ele>25.0</ele><time>2026-03-29T09:31:35Z</time></trkpt><trkpt lat="40.4376679230169" lon="17.365485285493133"><ele>26.0</ele><time>2026-03-29T09:31:36Z</time></trkpt><trkpt lat="40.43743976138986" lon="17.365439878231694"><ele>27.0</ele><time>2026-03-29T09:31:37Z</time></trkpt><trkpt lat="40.43721602750804" lon="17.365376151002938"><ele>27.333333333333336</ele><time>2026-03-29T09:31:38Z</time></trkpt><trkpt lat="40.43701892866315" lon="17.365305437998387"><ele>27.666666666666668</ele><time>2026-03-29T09:31:39Z</time></trkpt><trkpt lat="40.43683451000196" lon="17.36525879800866"><ele>28.0</ele><time>2026-03-29T09:31:40Z</time></trkpt><trkpt lat="40.436656071912275" lon="17.36523631971422"><ele>28.0</ele><time>2026-03-29T09:31:41Z</time></trkpt><trkpt lat="40.43649253110701" lon="17.36519676277597"><ele>28.0</ele><time>2026-03-29T09:31:42Z</time></trkpt><trkpt lat="40.4363237643808" lon="17.365153208308563"><ele>28.0</ele><time>2026-03-29T09:31:43Z</time></trkpt><trkpt lat="40.43614350306613" lon="17.365109675285545"><ele>28.0</ele><time>2026-03-29T09:31:44Z</time></trkpt><trkpt lat="40.43595467660988" lon="17.365062770885853"><ele>28.0</ele><time>2026-03-29T09:31:45Z</time></trkpt><trkpt lat="40.4357579328882" lon="17.36501513793638"><ele>28.0</ele><time>2026-03-29T09:31:46Z</time></trkpt><trkpt lat="40.43555700918601" lon="17.36496639192889"><ele>27.666666666666668</ele><time>2026-03-29T09:31:47Z</time></trkpt><trkpt lat="40.43534968268392" lon="17.364916756292924"><ele>27.333333333333336</ele><time>2026-03-29T09:31:48Z</time></trkpt><trkpt lat="40.43514358771097" lon="17.36486078306336"><ele>27.0</ele><time>2026-03-29T09:31:49Z</time></trkpt><trkpt lat="40.434935667460564" lon="17.364800621799073"><ele>27.0</ele><time>2026-03-29T09:31:50Z</time></trkpt><trkpt lat="40.43472317677611" lon="17.364744214341005"><ele>27.0</ele><time>2026-03-29T09:31:51Z</time></trkpt><trkpt lat="40.43449945023316" lon="17.364697032035185"><ele>27.0</ele><time>2026-03-29T09:31:52Z</time></trkpt><trkpt lat="40.43424479336366" lon="17.364642782450986"><ele>26.5</ele><time>2026-03-29T09:31:53Z</time></trkpt><trkpt lat="40.43403924708928" lon="17.364588192790336"><ele>26.0</ele><time>2026-03-29T09:31:54Z</time></trkpt><trkpt lat="40.43379470284003" lon="17.36452430745964"><ele>26.0</ele><time>2026-03-29T09:31:55Z</time></trkpt><trkpt lat="40.43355080284479" lon="17.364459689016158"><ele>26.0</ele><time>2026-03-29T09:31:56Z</time></trkpt><trkpt lat="40.4333040536931" lon="17.36440693902345"><ele>26.0</ele><time>2026-03-29T09:31:57Z</time></trkpt><trkpt lat="40.433058209541834" lon="17.36436022218983"><ele>26.0</ele><time>2026-03-29T09:31:58Z</time></trkpt><trkpt lat="40.432804597711204" lon="17.364334625140575"><ele>27.5</ele><time>2026-03-29T09:31:59Z</time></trkpt><trkpt lat="40.43255482057142" lon="17.364320824124928"><ele>29.0</ele><time>2026-03-29T09:32:00Z</time></trkpt><trkpt lat="40.43229893104505" lon="17.364301488869238"><ele>28.5</ele><time>2026-03-29T09:32:01Z</time></trkpt><trkpt lat="40.43204597699925" lon="17.364277171593727"><ele>28.0</ele><time>2026-03-29T09:32:02Z</time></trkpt><trkpt lat="40.43179609770455" lon="17.364251555202966"><ele>28.0</ele><time>2026-03-29T09:32:03Z</time></trkpt><trkpt lat="40.43154790446222" lon="17.364225920462385"><ele>28.0</ele><time>2026-03-29T09:32:04Z</time></trkpt><trkpt lat="40.431291666972584" lon="17.36420281856071"><ele>27.5</ele><time>2026-03-29T09:32:05Z</time></trkpt><trkpt lat="40.431040102975466" lon="17.36418250379204"><ele>27.0</ele><time>2026-03-29T09:32:06Z</time></trkpt><trkpt lat="40.43078732796012" lon="17.364156050246066"><ele>27.0</ele><time>2026-03-29T09:32:07Z</time></trkpt><trkpt lat="40.43053564188094" lon="17.364138411385756"><ele>27.0</ele><time>2026-03-29T09:32:08Z</time></trkpt><trkpt lat="40.430276175851006" lon="17.364115932941605"><ele>27.0</ele><time>2026-03-29T09:32:09Z</time></trkpt><trkpt lat="40.43002698385532" lon="17.364091965181967"><ele>27.0</ele><time>2026-03-29T09:32:10Z</time></trkpt><trkpt lat="40.4298000878503" lon="17.364069861093903"><ele>27.666666666666664</ele><time>2026-03-29T09:32:11Z</time></trkpt><trkpt lat="40.42958601609463" lon="17.36405111993309"><ele>28.333333333333332</ele><time>2026-03-29T09:32:12Z</time></trkpt><trkpt lat="40.42938517878407" lon="17.364030743582074"><ele>29.0</ele><time>2026-03-29T09:32:13Z</time></trkpt><trkpt lat="40.42919959628954" lon="17.364011157893565"><ele>29.0</ele><time>2026-03-29T09:32:14Z</time></trkpt><trkpt lat="40.429028177679626" lon="17.36399155798247"><ele>29.0</ele><time>2026-03-29T09:32:15Z</time></trkpt><trkpt lat="40.42887768070184" lon="17.36397338954939"><ele>29.0</ele><time>2026-03-29T09:32:16Z</time></trkpt><trkpt lat="40.428725650255934" lon="17.363957679306054"><ele>29.0</ele><time>2026-03-29T09:32:17Z</time></trkpt><trkpt lat="40.42858964387223" lon="17.36394397387417"><ele>29.0</ele><time>2026-03-29T09:32:18Z</time></trkpt><trkpt lat="40.4284675673073" lon="17.363938341432807"><ele>29.0</ele><time>2026-03-29T09:32:19Z</time></trkpt><trkpt lat="40.42837122325494" lon="17.36392897627014"><ele>29.0</ele><time>2026-03-29T09:32:20Z</time></trkpt><trkpt lat="40.4282806520219" lon="17.36390393804341"><ele>29.0</ele><time>2026-03-29T09:32:21Z</time></trkpt><trkpt lat="40.42817941477163" lon="17.363850661637024"><ele>28.75</ele><time>2026-03-29T09:32:22Z</time></trkpt><trkpt lat="40.42805675641575" lon="17.363821795243407"><ele>28.5</ele><time>2026-03-29T09:32:23Z</time></trkpt><trkpt lat="40.42791157209004" lon="17.363826537975218"><ele>28.25</ele><time>2026-03-29T09:32:24Z</time></trkpt><trkpt lat="40.42773881815906" lon="17.36382203848365"><ele>28.0</ele><time>2026-03-29T09:32:25Z</time></trkpt><trkpt lat="40.427540607606204" lon="17.36377523874957"><ele>28.0</ele><time>2026-03-29T09:32:26Z</time></trkpt><trkpt lat="40.427337258369896" lon="17.36373643451801"><ele>28.0</ele><time>2026-03-29T09:32:27Z</time></trkpt><trkpt lat="40.427100664434285" lon="17.363704946058462"><ele>28.0</ele><time>2026-03-29T09:32:28Z</time></trkpt><trkpt lat="40.42686355618852" lon="17.363669080997813"><ele>28.0</ele><time>2026-03-29T09:32:29Z</time></trkpt><trkpt lat="40.42662113760781" lon="17.363629007209653"><ele>28.0</ele><time>2026-03-29T09:32:30Z</time></trkpt><trkpt lat="40.42637803424367" lon="17.36358970175195"><ele>28.5</ele><time>2026-03-29T09:32:31Z</time></trkpt><trkpt lat="40.426132103467026" lon="17.363549559597576"><ele>29.0</ele><time>2026-03-29T09:32:32Z</time></trkpt><trkpt lat="40.42588882518447" lon="17.36350801633252"><ele>29.0</ele><time>2026-03-29T09:32:33Z</time></trkpt><trkpt lat="40.425654415180254" lon="17.363470088361396"><ele>29.0</ele><time>2026-03-29T09:32:34Z</time></trkpt><trkpt lat="40.42542255630208" lon="17.363436632189448"><ele>28.0</ele><time>2026-03-29T09:32:35Z</time></trkpt><trkpt lat="40.425165902877325" lon="17.363399291527443"><ele>27.0</ele><time>2026-03-29T09:32:36Z</time></trkpt><trkpt lat="40.42487919894222" lon="17.363363794895903"><ele>28.0</ele><time>2026-03-29T09:32:37Z</time></trkpt><trkpt lat="40.42456538504389" lon="17.363320988807985"><ele>29.0</ele><time>2026-03-29T09:32:38Z</time></trkpt><trkpt lat="40.4242503732076" lon="17.36324423233658"><ele>29.0</ele><time>2026-03-29T09:32:39Z</time></trkpt><trkpt lat="40.42398339009037" lon="17.36316782769303"><ele>29.0</ele><time>2026-03-29T09:32:40Z</time></trkpt><trkpt lat="40.42367381972526" lon="17.3631120545003"><ele>28.5</ele><time>2026-03-29T09:32:41Z</time></trkpt><trkpt lat="40.42341398799124" lon="17.36298516557089"><ele>28.0</ele><time>2026-03-29T09:32:42Z</time></trkpt><trkpt lat="40.42313938401404" lon="17.36290758794253"><ele>28.5</ele><time>2026-03-29T09:32:43Z</time></trkpt><trkpt lat="40.42290217291325" lon="17.36298558249311"><ele>29.0</ele><time>2026-03-29T09:32:44Z</time></trkpt><trkpt lat="40.42265191342383" lon="17.36295377451403"><ele>29.0</ele><time>2026-03-29T09:32:45Z</time></trkpt><trkpt lat="40.422401962734476" lon="17.362919564702267"><ele>29.0</ele><time>2026-03-29T09:32:46Z</time></trkpt><trkpt lat="40.42215225533114" lon="17.36288202009443"><ele>29.0</ele><time>2026-03-29T09:32:47Z</time></trkpt><trkpt lat="40.42190575033124" lon="17.36284609458089"><ele>29.0</ele><time>2026-03-29T09:32:48Z</time></trkpt><trkpt lat="40.421659593149094" lon="17.362805078794846"><ele>29.0</ele><time>2026-03-29T09:32:49Z</time></trkpt><trkpt lat="40.4214080536404" lon="17.362759341729294"><ele>29.0</ele><time>2026-03-29T09:32:50Z</time></trkpt><trkpt lat="40.42114904822425" lon="17.362714348007263"><ele>29.0</ele><time>2026-03-29T09:32:51Z</time></trkpt><trkpt lat="40.42088682099159" lon="17.362674946884113"><ele>29.0</ele><time>2026-03-29T09:32:52Z</time></trkpt><trkpt lat="40.420618033986145" lon="17.362635360944118"><ele>29.0</ele><time>2026-03-29T09:32:53Z</time></trkpt><trkpt lat="40.42035072588691" lon="17.362588646238198"><ele>29.0</ele><time>2026-03-29T09:32:54Z</time></trkpt><trkpt lat="40.4200801187235" lon="17.362543131348986"><ele>29.0</ele><time>2026-03-29T09:32:55Z</time></trkpt><trkpt lat="40.41980925224637" lon="17.362502325687004"><ele>29.0</ele><time>2026-03-29T09:32:56Z</time></trkpt><trkpt lat="40.41956285842118" lon="17.362465767279524"><ele>29.333333333333332</ele><time>2026-03-29T09:32:57Z</time></trkpt><trkpt lat="40.41935508846873" lon="17.362429292551578"><ele>29.666666666666664</ele><time>2026-03-29T09:32:58Z</time></trkpt><trkpt lat="40.419158296172455" lon="17.362395388039605"><ele>30.0</ele><time>2026-03-29T09:32:59Z</time></trkpt><trkpt lat="40.41900200187412" lon="17.36237011975613"><ele>30.0</ele><time>2026-03-29T09:32:59.999Z</time></trkpt><trkpt lat="40.418885852228875" lon="17.362357280994672"><ele>30.0</ele><time>2026-03-29T09:33:00.999Z</time></trkpt><trkpt lat="40.41878559775204" lon="17.362338941797802"><ele>30.0</ele><time>2026-03-29T09:33:02Z</time></trkpt><trkpt lat="40.41868193876833" lon="17.362319793243298"><ele>30.0</ele><time>2026-03-29T09:33:03Z</time></trkpt><trkpt lat="40.41855939923976" lon="17.362297572930892"><ele>30.0</ele><time>2026-03-29T09:33:04Z</time></trkpt><trkpt lat="40.41843257207376" lon="17.362281753687576"><ele>30.0</ele><time>2026-03-29T09:33:05Z</time></trkpt><trkpt lat="40.41830254118649" lon="17.36226658605753"><ele>30.0</ele><time>2026-03-29T09:33:06Z</time></trkpt><trkpt lat="40.41818865520188" lon="17.362249348801157"><ele>30.0</ele><time>2026-03-29T09:33:07Z</time></trkpt><trkpt lat="40.418086396448125" lon="17.362239803328144"><ele>30.0</ele><time>2026-03-29T09:33:08Z</time></trkpt><trkpt lat="40.41799692924707" lon="17.362222633204578"><ele>30.0</ele><time>2026-03-29T09:33:09Z</time></trkpt><trkpt lat="40.417904824636196" lon="17.362208668633134"><ele>29.8</ele><time>2026-03-29T09:33:10Z</time></trkpt><trkpt lat="40.41780475511316" lon="17.3621955602799"><ele>29.6</ele><time>2026-03-29T09:33:11Z</time></trkpt><trkpt lat="40.41770449929188" lon="17.362190630009767"><ele>29.4</ele><time>2026-03-29T09:33:12Z</time></trkpt><trkpt lat="40.41759698182017" lon="17.362160233358242"><ele>29.2</ele><time>2026-03-29T09:33:13Z</time></trkpt><trkpt lat="40.41748898480128" lon="17.362142822402355"><ele>29.0</ele><time>2026-03-29T09:33:14Z</time></trkpt><trkpt lat="40.417380845996114" lon="17.362126177465818"><ele>29.0</ele><time>2026-03-29T09:33:15Z</time></trkpt><trkpt lat="40.41726187677565" lon="17.36210526917781"><ele>29.0</ele><time>2026-03-29T09:33:16Z</time></trkpt><trkpt lat="40.417146192879734" lon="17.362080950805126"><ele>29.0</ele><time>2026-03-29T09:33:17Z</time></trkpt><trkpt lat="40.41703777988256" lon="17.362062984492145"><ele>29.0</ele><time>2026-03-29T09:33:18Z</time></trkpt><trkpt lat="40.416940910447394" lon="17.362057668910513"><ele>29.0</ele><time>2026-03-29T09:33:19Z</time></trkpt><trkpt lat="40.416852302496395" lon="17.362055667514866"><ele>29.0</ele><time>2026-03-29T09:33:20Z</time></trkpt><trkpt lat="40.416759899445125" lon="17.3620353085168"><ele>29.0</ele><time>2026-03-29T09:33:21Z</time></trkpt><trkpt lat="40.41667165678733" lon="17.36197168983955"><ele>29.0</ele><time>2026-03-29T09:33:22Z</time></trkpt><trkpt lat="40.41657461269818" lon="17.361870373583823"><ele>29.0</ele><time>2026-03-29T09:33:23Z</time></trkpt><trkpt lat="40.41650244138537" lon="17.361773893197515"><ele>29.0</ele><time>2026-03-29T09:33:24Z</time></trkpt><trkpt lat="40.41641140194933" lon="17.361699729817115"><ele>29.0</ele><time>2026-03-29T09:33:25Z</time></trkpt><trkpt lat="40.41629011124808" lon="17.361661130752132"><ele>29.0</ele><time>2026-03-29T09:33:26Z</time></trkpt><trkpt lat="40.41623474473071" lon="17.361712611841643"><ele>29.0</ele><time>2026-03-29T09:33:27Z</time></trkpt><trkpt lat="40.41616516817422" lon="17.361791454584473"><ele>29.0</ele><time>2026-03-29T09:33:28Z</time></trkpt><trkpt lat="40.41610229087502" lon="17.361920962608846"><ele>29.0</ele><time>2026-03-29T09:33:29Z</time></trkpt><trkpt lat="40.415930258296655" lon="17.361856297826087"><ele>29.0</ele><time>2026-03-29T09:33:30Z</time></trkpt><trkpt lat="40.415777634141655" lon="17.36184922253884"><ele>29.0</ele><time>2026-03-29T09:33:31Z</time></trkpt><trkpt lat="40.415598586709336" lon="17.361806959327705"><ele>29.0</ele><time>2026-03-29T09:33:32Z</time></trkpt><trkpt lat="40.415410911911394" lon="17.361765533997986"><ele>29.0</ele><time>2026-03-29T09:33:33Z</time></trkpt><trkpt lat="40.415209077711005" lon="17.361727049142853"><ele>29.0</ele><time>2026-03-29T09:33:34Z</time></trkpt><trkpt lat="40.414985031972826" lon="17.36168234381578"><ele>29.0</ele><time>2026-03-29T09:33:35Z</time></trkpt><trkpt lat="40.41477381571299" lon="17.361638763152204"><ele>28.666666666666664</ele><time>2026-03-29T09:33:36Z</time></trkpt><trkpt lat="40.4145595176726" lon="17.361600180093284"><ele>28.333333333333336</ele><time>2026-03-29T09:33:37Z</time></trkpt><trkpt lat="40.41434891488578" lon="17.36155666966216"><ele>28.0</ele><time>2026-03-29T09:33:38Z</time></trkpt><trkpt lat="40.41414635367014" lon="17.36152071950045"><ele>28.0</ele><time>2026-03-29T09:33:39Z</time></trkpt><trkpt lat="40.41394336663748" lon="17.361486825190557"><ele>28.0</ele><time>2026-03-29T09:33:40Z</time></trkpt><trkpt lat="40.41373364827723" lon="17.361449261037443"><ele>28.0</ele><time>2026-03-29T09:33:41Z</time></trkpt><trkpt lat="40.41352467244949" lon="17.361408641637606"><ele>28.0</ele><time>2026-03-29T09:33:42Z</time></trkpt><trkpt lat="40.413316932604715" lon="17.361366534582487"><ele>28.0</ele><time>2026-03-29T09:33:43Z</time></trkpt><trkpt lat="40.41310701679546" lon="17.361327216773958"><ele>28.0</ele><time>2026-03-29T09:33:44Z</time></trkpt><trkpt lat="40.412890953711795" lon="17.361284869722947"><ele>28.333333333333336</ele><time>2026-03-29T09:33:45Z</time></trkpt><trkpt lat="40.41267636554655" lon="17.36125289363585"><ele>28.666666666666664</ele><time>2026-03-29T09:33:46Z</time></trkpt><trkpt lat="40.41245799741183" lon="17.361212042138426"><ele>29.0</ele><time>2026-03-29T09:33:47Z</time></trkpt><trkpt lat="40.41224501093472" lon="17.36117602441381"><ele>29.0</ele><time>2026-03-29T09:33:48Z</time></trkpt><trkpt lat="40.412040964742225" lon="17.361139808860646"><ele>29.0</ele><time>2026-03-29T09:33:49Z</time></trkpt><trkpt lat="40.411834455482634" lon="17.361106125545703"><ele>29.0</ele><time>2026-03-29T09:33:50Z</time></trkpt><trkpt lat="40.411623952885044" lon="17.36107086169857"><ele>29.0</ele><time>2026-03-29T09:33:51Z</time></trkpt><trkpt lat="40.411419960629736" lon="17.361030441691497"><ele>29.0</ele><time>2026-03-29T09:33:52Z</time></trkpt><trkpt lat="40.41122279294716" lon="17.360996401435838"><ele>29.0</ele><time>2026-03-29T09:33:53Z</time></trkpt><trkpt lat="40.411033111877074" lon="17.360956931136243"><ele>29.0</ele><time>2026-03-29T09:33:54Z</time></trkpt><trkpt lat="40.41084608108555" lon="17.36091939906123"><ele>29.0</ele><time>2026-03-29T09:33:55Z</time></trkpt><trkpt lat="40.4106474547009" lon="17.360886976608533"><ele>29.0</ele><time>2026-03-29T09:33:56Z</time></trkpt><trkpt lat="40.41044693626629" lon="17.360846452465132"><ele>29.333333333333332</ele><time>2026-03-29T09:33:57Z</time></trkpt><trkpt lat="40.410252567460795" lon="17.360812979870325"><ele>29.666666666666664</ele><time>2026-03-29T09:33:58Z</time></trkpt><trkpt lat="40.410052545621234" lon="17.360781677780988"><ele>30.0</ele><time>2026-03-29T09:33:59Z</time></trkpt><trkpt lat="40.40984766203367" lon="17.360740712961814"><ele>29.666666666666664</ele><time>2026-03-29T09:34:00Z</time></trkpt><trkpt lat="40.40964099616863" lon="17.360701434470084"><ele>29.333333333333332</ele><time>2026-03-29T09:34:01Z</time></trkpt><trkpt lat="40.409436395462336" lon="17.36066589405721"><ele>29.0</ele><time>2026-03-29T09:34:02Z</time></trkpt><trkpt lat="40.40922582079942" lon="17.36063734400862"><ele>29.0</ele><time>2026-03-29T09:34:03Z</time></trkpt><trkpt lat="40.40901109887452" lon="17.360622317738375"><ele>29.0</ele><time>2026-03-29T09:34:04Z</time></trkpt><trkpt lat="40.40879258076445" lon="17.360611196599013"><ele>29.0</ele><time>2026-03-29T09:34:05Z</time></trkpt><trkpt lat="40.40857025913142" lon="17.3606052041741"><ele>29.333333333333332</ele><time>2026-03-29T09:34:06Z</time></trkpt><trkpt lat="40.40834604710084" lon="17.36059680329624"><ele>29.666666666666664</ele><time>2026-03-29T09:34:07Z</time></trkpt><trkpt lat="40.4081236590206" lon="17.360593753528697"><ele>30.0</ele><time>2026-03-29T09:34:08Z</time></trkpt><trkpt lat="40.40790121777411" lon="17.360588678545362"><ele>30.0</ele><time>2026-03-29T09:34:09Z</time></trkpt><trkpt lat="40.40767916865434" lon="17.36058041707844"><ele>30.0</ele><time>2026-03-29T09:34:10Z</time></trkpt><trkpt lat="40.40745400151261" lon="17.360572661200393"><ele>30.0</ele><time>2026-03-29T09:34:11Z</time></trkpt><trkpt lat="40.407237265303685" lon="17.36056465545182"><ele>30.0</ele><time>2026-03-29T09:34:12Z</time></trkpt><trkpt lat="40.40701229390976" lon="17.36054377679479"><ele>30.0</ele><time>2026-03-29T09:34:13Z</time></trkpt><trkpt lat="40.406774970289405" lon="17.3604731980395"><ele>30.0</ele><time>2026-03-29T09:34:14Z</time></trkpt><trkpt lat="40.40653051188719" lon="17.360392960657606"><ele>30.0</ele><time>2026-03-29T09:34:15Z</time></trkpt><trkpt lat="40.40627661555988" lon="17.360269183884267"><ele>30.0</ele><time>2026-03-29T09:34:16Z</time></trkpt><trkpt lat="40.40603041078442" lon="17.360170207450185"><ele>30.0</ele><time>2026-03-29T09:34:17Z</time></trkpt><trkpt lat="40.405803708727895" lon="17.36008003960566"><ele>30.0</ele><time>2026-03-29T09:34:18Z</time></trkpt><trkpt lat="40.4055981559432" lon="17.359991005702796"><ele>30.0</ele><time>2026-03-29T09:34:19Z</time></trkpt><trkpt lat="40.405408847567465" lon="17.35991545050138"><ele>30.0</ele><time>2026-03-29T09:34:20Z</time></trkpt><trkpt lat="40.405231018690486" lon="17.359838179396874"><ele>30.0</ele><time>2026-03-29T09:34:21Z</time></trkpt><trkpt lat="40.4048925105663" lon="17.35969746078958"><ele>30.0</ele><time>2026-03-29T09:34:23Z</time></trkpt><trkpt lat="40.40472489410348" lon="17.359624679677108"><ele>30.0</ele><time>2026-03-29T09:34:24Z</time></trkpt><trkpt lat="40.404570441242335" lon="17.35956364559907"><ele>30.0</ele><time>2026-03-29T09:34:25Z</time></trkpt><trkpt lat="40.404439941131905" lon="17.359506034237278"><ele>30.0</ele><time>2026-03-29T09:34:26Z</time></trkpt><trkpt lat="40.40432211127353" lon="17.359458591657592"><ele>30.0</ele><time>2026-03-29T09:34:27Z</time></trkpt><trkpt lat="40.40421071439719" lon="17.359409152397856"><ele>30.0</ele><time>2026-03-29T09:34:28Z</time></trkpt><trkpt lat="40.40407374771624" lon="17.359352853367295"><ele>30.0</ele><time>2026-03-29T09:34:29Z</time></trkpt><trkpt lat="40.403915880834944" lon="17.35928491486968"><ele>30.0</ele><time>2026-03-29T09:34:30Z</time></trkpt><trkpt lat="40.4037531115594" lon="17.35921611289995"><ele>30.666666666666664</ele><time>2026-03-29T09:34:31Z</time></trkpt><trkpt lat="40.40358498945822" lon="17.359146441292264"><ele>31.333333333333332</ele><time>2026-03-29T09:34:32Z</time></trkpt><trkpt lat="40.40341623124036" lon="17.35907649319787"><ele>32.0</ele><time>2026-03-29T09:34:33Z</time></trkpt><trkpt lat="40.40326753636457" lon="17.35901466286686"><ele>32.0</ele><time>2026-03-29T09:34:34Z</time></trkpt><trkpt lat="40.40313740840897" lon="17.358962565072435"><ele>32.0</ele><time>2026-03-29T09:34:35Z</time></trkpt><trkpt lat="40.403017754607475" lon="17.35891568701272"><ele>32.0</ele><time>2026-03-29T09:34:36Z</time></trkpt><trkpt lat="40.402896988142686" lon="17.35886696720528"><ele>32.0</ele><time>2026-03-29T09:34:37Z</time></trkpt><trkpt lat="40.40277696147779" lon="17.35881463772222"><ele>32.0</ele><time>2026-03-29T09:34:38Z</time></trkpt><trkpt lat="40.40265762262832" lon="17.358760537471657"><ele>32.0</ele><time>2026-03-29T09:34:39Z</time></trkpt><trkpt lat="40.402549088944525" lon="17.358709682892535"><ele>32.0</ele><time>2026-03-29T09:34:40Z</time></trkpt><trkpt lat="40.40245151779636" lon="17.358679785656218"><ele>32.0</ele><time>2026-03-29T09:34:41Z</time></trkpt><trkpt lat="40.40235095778806" lon="17.358640739124468"><ele>32.0</ele><time>2026-03-29T09:34:42Z</time></trkpt><trkpt lat="40.40224034623117" lon="17.35859034712287"><ele>31.5</ele><time>2026-03-29T09:34:43Z</time></trkpt><trkpt lat="40.40212136262739" lon="17.358542704499992"><ele>31.0</ele><time>2026-03-29T09:34:44Z</time></trkpt><trkpt lat="40.40199027326239" lon="17.358491322755793"><ele>30.5</ele><time>2026-03-29T09:34:45Z</time></trkpt><trkpt lat="40.40184754281339" lon="17.358425374654953"><ele>30.0</ele><time>2026-03-29T09:34:46Z</time></trkpt><trkpt lat="40.40168558949664" lon="17.3583531502004"><ele>30.0</ele><time>2026-03-29T09:34:47Z</time></trkpt><trkpt lat="40.40151842969262" lon="17.358292608751047"><ele>30.0</ele><time>2026-03-29T09:34:48Z</time></trkpt><trkpt lat="40.40133062630271" lon="17.358213731143874"><ele>30.0</ele><time>2026-03-29T09:34:49Z</time></trkpt><trkpt lat="40.40115384074655" lon="17.35813286287792"><ele>30.333333333333336</ele><time>2026-03-29T09:34:50Z</time></trkpt><trkpt lat="40.40096560720569" lon="17.358054132526224"><ele>30.666666666666668</ele><time>2026-03-29T09:34:51Z</time></trkpt><trkpt lat="40.40078279379985" lon="17.357973612390055"><ele>31.0</ele><time>2026-03-29T09:34:52Z</time></trkpt><trkpt lat="40.40059706882707" lon="17.35789554055371"><ele>31.666666666666668</ele><time>2026-03-29T09:34:53Z</time></trkpt><trkpt lat="40.400401427993856" lon="17.357813390853693"><ele>32.333333333333336</ele><time>2026-03-29T09:34:54Z</time></trkpt><trkpt lat="40.40020072513458" lon="17.35772886262878"><ele>33.0</ele><time>2026-03-29T09:34:55Z</time></trkpt><trkpt lat="40.39999861083234" lon="17.357643948729738"><ele>33.0</ele><time>2026-03-29T09:34:56Z</time></trkpt><trkpt lat="40.39978910974818" lon="17.35755828738952"><ele>33.0</ele><time>2026-03-29T09:34:56.999Z</time></trkpt><trkpt lat="40.399569911423384" lon="17.357468692842698"><ele>33.0</ele><time>2026-03-29T09:34:57.999Z</time></trkpt><trkpt lat="40.39934568556393" lon="17.35737517044285"><ele>33.0</ele><time>2026-03-29T09:34:58.999Z</time></trkpt><trkpt lat="40.39912330594779" lon="17.357280743527213"><ele>33.0</ele><time>2026-03-29T09:34:59.999Z</time></trkpt><trkpt lat="40.39890586187585" lon="17.357183205122222"><ele>32.5</ele><time>2026-03-29T09:35:00.999Z</time></trkpt><trkpt lat="40.39867823646989" lon="17.357087273514253"><ele>32.0</ele><time>2026-03-29T09:35:01.999Z</time></trkpt><trkpt lat="40.39845556697092" lon="17.356991051266554"><ele>32.0</ele><time>2026-03-29T09:35:02.999Z</time></trkpt><trkpt lat="40.398229858859736" lon="17.35689543681696"><ele>32.0</ele><time>2026-03-29T09:35:03.999Z</time></trkpt><trkpt lat="40.398002696916556" lon="17.356849195761995"><ele>32.5</ele><time>2026-03-29T09:35:04.999Z</time></trkpt><trkpt lat="40.3977860473532" lon="17.3567269590911"><ele>33.0</ele><time>2026-03-29T09:35:05.999Z</time></trkpt><trkpt lat="40.39756908045586" lon="17.35663151883224"><ele>33.0</ele><time>2026-03-29T09:35:06.999Z</time></trkpt><trkpt lat="40.39734906763541" lon="17.35653354251549"><ele>33.0</ele><time>2026-03-29T09:35:08Z</time></trkpt><trkpt lat="40.39713271982939" lon="17.356449937133938"><ele>32.5</ele><time>2026-03-29T09:35:09Z</time></trkpt><trkpt lat="40.39691912705904" lon="17.356347893434517"><ele>32.0</ele><time>2026-03-29T09:35:10Z</time></trkpt><trkpt lat="40.39669829341395" lon="17.356252853935192"><ele>32.0</ele><time>2026-03-29T09:35:11Z</time></trkpt><trkpt lat="40.39648764031175" lon="17.35617786999415"><ele>32.0</ele><time>2026-03-29T09:35:12Z</time></trkpt><trkpt lat="40.396270138869866" lon="17.35608751239694"><ele>32.0</ele><time>2026-03-29T09:35:12.999Z</time></trkpt><trkpt lat="40.39605341608156" lon="17.35599777571502"><ele>33.0</ele><time>2026-03-29T09:35:13.999Z</time></trkpt><trkpt lat="40.39583528698455" lon="17.355907265299713"><ele>34.0</ele><time>2026-03-29T09:35:14.999Z</time></trkpt><trkpt lat="40.395621951253666" lon="17.355820985542977"><ele>34.333333333333336</ele><time>2026-03-29T09:35:15.999Z</time></trkpt><trkpt lat="40.39541633930453" lon="17.355734106548972"><ele>34.666666666666664</ele><time>2026-03-29T09:35:16.999Z</time></trkpt><trkpt lat="40.395215988521606" lon="17.35565240269272"><ele>35.0</ele><time>2026-03-29T09:35:18Z</time></trkpt><trkpt lat="40.39501742405102" lon="17.355573345179604"><ele>34.666666666666664</ele><time>2026-03-29T09:35:19Z</time></trkpt><trkpt lat="40.39482254634311" lon="17.355487190161924"><ele>34.333333333333336</ele><time>2026-03-29T09:35:20Z</time></trkpt><trkpt lat="40.394632880066176" lon="17.355405260178866"><ele>34.0</ele><time>2026-03-29T09:35:21Z</time></trkpt><trkpt lat="40.39445155081357" lon="17.355326573008394"><ele>34.0</ele><time>2026-03-29T09:35:22Z</time></trkpt><trkpt lat="40.39426080114948" lon="17.355247203400392"><ele>34.0</ele><time>2026-03-29T09:35:23Z</time></trkpt><trkpt lat="40.39408640831645" lon="17.35517470935692"><ele>34.0</ele><time>2026-03-29T09:35:24Z</time></trkpt><trkpt lat="40.39392336818727" lon="17.355103022457342"><ele>34.66666666666667</ele><time>2026-03-29T09:35:25Z</time></trkpt><trkpt lat="40.39377121658154" lon="17.355038770284335"><ele>35.333333333333336</ele><time>2026-03-29T09:35:26Z</time></trkpt><trkpt lat="40.3936206774358" lon="17.354975363539825"><ele>36.0</ele><time>2026-03-29T09:35:27Z</time></trkpt><trkpt lat="40.3934722170131" lon="17.35492011375833"><ele>36.0</ele><time>2026-03-29T09:35:28Z</time></trkpt><trkpt lat="40.39332653923838" lon="17.354930702156082"><ele>36.0</ele><time>2026-03-29T09:35:29Z</time></trkpt><trkpt lat="40.39321354316613" lon="17.354786569030576"><ele>36.0</ele><time>2026-03-29T09:35:30Z</time></trkpt><trkpt lat="40.393022244610236" lon="17.354698311629157"><ele>36.666666666666664</ele><time>2026-03-29T09:35:31Z</time></trkpt><trkpt lat="40.392823927964955" lon="17.354606816361734"><ele>37.33333333333333</ele><time>2026-03-29T09:35:32Z</time></trkpt><trkpt lat="40.392657694975675" lon="17.354530485231354"><ele>38.0</ele><time>2026-03-29T09:35:33Z</time></trkpt><trkpt lat="40.392503159616055" lon="17.354462942376628"><ele>38.0</ele><time>2026-03-29T09:35:34Z</time></trkpt><trkpt lat="40.392360185758726" lon="17.354403427439873"><ele>38.0</ele><time>2026-03-29T09:35:35Z</time></trkpt><trkpt lat="40.39220685407013" lon="17.35434126397646"><ele>38.0</ele><time>2026-03-29T09:35:36Z</time></trkpt><trkpt lat="40.39204407195066" lon="17.354273622560573"><ele>37.666666666666664</ele><time>2026-03-29T09:35:37Z</time></trkpt><trkpt lat="40.39188246872936" lon="17.354204540269976"><ele>37.333333333333336</ele><time>2026-03-29T09:35:38Z</time></trkpt><trkpt lat="40.39171813451765" lon="17.35414390919273"><ele>37.0</ele><time>2026-03-29T09:35:39Z</time></trkpt><trkpt lat="40.391544221294915" lon="17.354109970846366"><ele>37.0</ele><time>2026-03-29T09:35:40Z</time></trkpt><trkpt lat="40.39135076769561" lon="17.354119969308428"><ele>37.0</ele><time>2026-03-29T09:35:41Z</time></trkpt><trkpt lat="40.391122268827466" lon="17.35413847334943"><ele>37.0</ele><time>2026-03-29T09:35:42Z</time></trkpt><trkpt lat="40.39089056252769" lon="17.3541440211695"><ele>36.66666666666667</ele><time>2026-03-29T09:35:43Z</time></trkpt><trkpt lat="40.39070230862913" lon="17.354173335885765"><ele>36.333333333333336</ele><time>2026-03-29T09:35:44Z</time></trkpt><trkpt lat="40.39051022350476" lon="17.35416037917941"><ele>36.0</ele><time>2026-03-29T09:35:45Z</time></trkpt><trkpt lat="40.39034710021267" lon="17.354216480556676"><ele>36.5</ele><time>2026-03-29T09:35:46Z</time></trkpt><trkpt lat="40.39019043506302" lon="17.35420930503917"><ele>37.0</ele><time>2026-03-29T09:35:47Z</time></trkpt><trkpt lat="40.39005038286595" lon="17.354239005216936"><ele>37.5</ele><time>2026-03-29T09:35:48Z</time></trkpt><trkpt lat="40.38991548802346" lon="17.3542372354667"><ele>38.0</ele><time>2026-03-29T09:35:49Z</time></trkpt><trkpt lat="40.38979126789721" lon="17.354235142146344"><ele>38.0</ele><time>2026-03-29T09:35:50Z</time></trkpt><trkpt lat="40.38966546172398" lon="17.35425057153094"><ele>38.0</ele><time>2026-03-29T09:35:51Z</time></trkpt><trkpt lat="40.38951355393526" lon="17.354268028662847"><ele>38.0</ele><time>2026-03-29T09:35:52Z</time></trkpt><trkpt lat="40.389368290520906" lon="17.354271719493003"><ele>38.0</ele><time>2026-03-29T09:35:53Z</time></trkpt><trkpt lat="40.389231989017745" lon="17.35428833930717"><ele>38.0</ele><time>2026-03-29T09:35:54Z</time></trkpt><trkpt lat="40.38909065790292" lon="17.354306067636887"><ele>38.0</ele><time>2026-03-29T09:35:55Z</time></trkpt><trkpt lat="40.388943606804304" lon="17.354318112298056"><ele>38.0</ele><time>2026-03-29T09:35:56Z</time></trkpt><trkpt lat="40.388815959327474" lon="17.354323005852937"><ele>38.0</ele><time>2026-03-29T09:35:57Z</time></trkpt><trkpt lat="40.38870293181181" lon="17.354336300469075"><ele>38.5</ele><time>2026-03-29T09:35:58Z</time></trkpt><trkpt lat="40.38859488214905" lon="17.35434775480535"><ele>39.0</ele><time>2026-03-29T09:35:59Z</time></trkpt><trkpt lat="40.38848496271439" lon="17.354360014835"><ele>39.5</ele><time>2026-03-29T09:36:00Z</time></trkpt><trkpt lat="40.38836473013508" lon="17.354386594252112"><ele>40.0</ele><time>2026-03-29T09:36:01Z</time></trkpt><trkpt lat="40.38823028825103" lon="17.354397888646652"><ele>40.0</ele><time>2026-03-29T09:36:02Z</time></trkpt><trkpt lat="40.388080749755204" lon="17.354392997407324"><ele>40.0</ele><time>2026-03-29T09:36:03Z</time></trkpt><trkpt lat="40.38791579631894" lon="17.354409737736496"><ele>40.0</ele><time>2026-03-29T09:36:04Z</time></trkpt><trkpt lat="40.38776060915078" lon="17.354427831207257"><ele>40.0</ele><time>2026-03-29T09:36:05Z</time></trkpt><trkpt lat="40.38759344869286" lon="17.35444333124974"><ele>40.0</ele><time>2026-03-29T09:36:06Z</time></trkpt><trkpt lat="40.38742272277833" lon="17.354457260947846"><ele>40.0</ele><time>2026-03-29T09:36:07Z</time></trkpt><trkpt lat="40.38726656281218" lon="17.354466566045737"><ele>40.25</ele><time>2026-03-29T09:36:08Z</time></trkpt><trkpt lat="40.38712828538355" lon="17.354493945680552"><ele>40.5</ele><time>2026-03-29T09:36:09Z</time></trkpt><trkpt lat="40.38701644768236" lon="17.354500470266643"><ele>40.75</ele><time>2026-03-29T09:36:10Z</time></trkpt><trkpt lat="40.38689034696407" lon="17.35449532506567"><ele>41.0</ele><time>2026-03-29T09:36:11Z</time></trkpt><trkpt lat="40.386764764043726" lon="17.354506487331207"><ele>41.0</ele><time>2026-03-29T09:36:12Z</time></trkpt><trkpt lat="40.38666453608363" lon="17.35452537542577"><ele>41.0</ele><time>2026-03-29T09:36:13Z</time></trkpt><trkpt lat="40.38657858033287" lon="17.35453642251133"><ele>41.0</ele><time>2026-03-29T09:36:14Z</time></trkpt><trkpt lat="40.38649482882919" lon="17.35453057661804"><ele>41.0</ele><time>2026-03-29T09:36:15Z</time></trkpt><trkpt lat="40.386417218512975" lon="17.35452233469725"><ele>41.0</ele><time>2026-03-29T09:36:16Z</time></trkpt><trkpt lat="40.386286354187526" lon="17.354558443991802"><ele>40.8</ele><time>2026-03-29T09:36:18Z</time></trkpt><trkpt lat="40.38618251910224" lon="17.35456338911009"><ele>40.599999999999994</ele><time>2026-03-29T09:36:19Z</time></trkpt><trkpt lat="40.38607223463463" lon="17.35456352578924"><ele>40.4</ele><time>2026-03-29T09:36:20Z</time></trkpt><trkpt lat="40.38597038161226" lon="17.3545774633905"><ele>40.2</ele><time>2026-03-29T09:36:21Z</time></trkpt><trkpt lat="40.385886335972344" lon="17.35457466062603"><ele>40.0</ele><time>2026-03-29T09:36:22Z</time></trkpt><trkpt lat="40.38575922076481" lon="17.35459997604032"><ele>40.0</ele><time>2026-03-29T09:37:15.999Z</time></trkpt><trkpt lat="40.38572369352881" lon="17.35481620710554"><ele>40.0</ele><time>2026-03-29T09:37:16.999Z</time></trkpt><trkpt lat="40.38572489855417" lon="17.354961046701508"><ele>40.0</ele><time>2026-03-29T09:37:18.999Z</time></trkpt><trkpt lat="40.38572582316354" lon="17.355072182050005"><ele>40.0</ele><time>2026-03-29T09:37:20.999Z</time></trkpt><trkpt lat="40.38572700502144" lon="17.355214237355828"><ele>40.0</ele><time>2026-03-29T09:37:21.999Z</time></trkpt><trkpt lat="40.38572825056692" lon="17.355338249923516"><ele>40.0</ele><time>2026-03-29T09:37:22.999Z</time></trkpt><trkpt lat="40.38572926274509" lon="17.35543840615427"><ele>40.0</ele><time>2026-03-29T09:37:23.999Z</time></trkpt><trkpt lat="40.38573029854297" lon="17.355540898861342"><ele>40.0</ele><time>2026-03-29T09:37:24.999Z</time></trkpt><trkpt lat="40.38573187352768" lon="17.35569674488798"><ele>40.0</ele><time>2026-03-29T09:37:26.999Z</time></trkpt><trkpt lat="40.38573521699298" lon="17.355838757624475"><ele>40.0</ele><time>2026-03-29T09:37:28.999Z</time></trkpt><trkpt lat="40.38573976494432" lon="17.355931623255522"><ele>40.0</ele><time>2026-03-29T09:37:29.999Z</time></trkpt><trkpt lat="40.38575196464649" lon="17.356046095306947"><ele>40.0</ele><time>2026-03-29T09:37:31.999Z</time></trkpt><trkpt lat="40.38579779737919" lon="17.356175000391538"><ele>40.0</ele><time>2026-03-29T09:37:33.999Z</time></trkpt><trkpt lat="40.38578441927915" lon="17.35626441232608"><ele>40.0</ele><time>2026-03-29T09:37:34.999Z</time></trkpt><trkpt lat="40.385787707805406" lon="17.356367966286335"><ele>40.0</ele><time>2026-03-29T09:37:35.999Z</time></trkpt><trkpt lat="40.38578256937006" lon="17.35645179305502"><ele>40.0</ele><time>2026-03-29T09:37:36.999Z</time></trkpt><trkpt lat="40.385777892755584" lon="17.356535058954755"><ele>40.0</ele><time>2026-03-29T09:37:37.999Z</time></trkpt><trkpt lat="40.38577229533478" lon="17.356631463529236"><ele>40.0</ele><time>2026-03-29T09:37:38.999Z</time></trkpt><trkpt lat="40.3857821616594" lon="17.356725508256023"><ele>40.0</ele><time>2026-03-29T09:37:39.999Z</time></trkpt><trkpt lat="40.385783052883475" lon="17.35681573505674"><ele>40.0</ele><time>2026-03-29T09:37:40.999Z</time></trkpt><trkpt lat="40.38579636194389" lon="17.35692968071788"><ele>40.0</ele><time>2026-03-29T09:37:41.999Z</time></trkpt><trkpt lat="40.385801130111155" lon="17.35706323446953"><ele>40.0</ele><time>2026-03-29T09:37:42.999Z</time></trkpt><trkpt lat="40.38580464163836" lon="17.3572116475737"><ele>40.0</ele><time>2026-03-29T09:37:43.999Z</time></trkpt><trkpt lat="40.38579869252107" lon="17.35735046162445"><ele>40.0</ele><time>2026-03-29T09:37:44.999Z</time></trkpt><trkpt lat="40.385791339954054" lon="17.357464285183106"><ele>40.0</ele><time>2026-03-29T09:37:46Z</time></trkpt><trkpt lat="40.385784119602114" lon="17.357611991033245"><ele>40.0</ele><time>2026-03-29T09:37:48Z</time></trkpt><trkpt lat="40.38568673469741" lon="17.35774412872791"><ele>40.0</ele><time>2026-03-29T09:37:50Z</time></trkpt><trkpt lat="40.3856126555412" lon="17.357840078314638"><ele>40.0</ele><time>2026-03-29T09:37:51Z</time></trkpt><trkpt lat="40.385529297419744" lon="17.357943034185812"><ele>40.0</ele><time>2026-03-29T09:37:52Z</time></trkpt><trkpt lat="40.385457471753945" lon="17.358050071406943"><ele>40.0</ele><time>2026-03-29T09:37:53Z</time></trkpt><trkpt lat="40.385362694503904" lon="17.358148805955963"><ele>40.0</ele><time>2026-03-29T09:37:54Z</time></trkpt><trkpt lat="40.38526401227313" lon="17.3582720110066"><ele>40.0</ele><time>2026-03-29T09:37:55Z</time></trkpt><trkpt lat="40.385186163130626" lon="17.35839492419775"><ele>40.0</ele><time>2026-03-29T09:37:56Z</time></trkpt><trkpt lat="40.3851040536076" lon="17.35847155104788"><ele>40.0</ele><time>2026-03-29T09:37:57Z</time></trkpt><trkpt lat="40.385049224430375" lon="17.358566125647247"><ele>40.0</ele><time>2026-03-29T09:37:58Z</time></trkpt><trkpt lat="40.38498147568089" lon="17.35864911645413"><ele>40.0</ele><time>2026-03-29T09:37:59Z</time></trkpt><trkpt lat="40.384897632386696" lon="17.35875404879075"><ele>40.0</ele><time>2026-03-29T09:38:00Z</time></trkpt><trkpt lat="40.384803154180815" lon="17.358865947888575"><ele>40.0</ele><time>2026-03-29T09:38:01Z</time></trkpt><trkpt lat="40.3847211370679" lon="17.3589749816868"><ele>40.0</ele><time>2026-03-29T09:38:02Z</time></trkpt><trkpt lat="40.38462719580921" lon="17.359081638675917"><ele>40.0</ele><time>2026-03-29T09:38:02.999Z</time></trkpt><trkpt lat="40.384526578697944" lon="17.35921200413826"><ele>40.25</ele><time>2026-03-29T09:38:03.999Z</time></trkpt><trkpt lat="40.38442481797137" lon="17.359342236580787"><ele>40.5</ele><time>2026-03-29T09:38:04.999Z</time></trkpt><trkpt lat="40.38432518651188" lon="17.359470670949833"><ele>40.75</ele><time>2026-03-29T09:38:05.999Z</time></trkpt><trkpt lat="40.38422830323602" lon="17.35958170168215"><ele>41.0</ele><time>2026-03-29T09:38:06.999Z</time></trkpt><trkpt lat="40.38414868669176" lon="17.35968432834818"><ele>41.199999999999996</ele><time>2026-03-29T09:38:07.999Z</time></trkpt><trkpt lat="40.38406727126511" lon="17.359773563178635"><ele>41.4</ele><time>2026-03-29T09:38:08.999Z</time></trkpt><trkpt lat="40.38400298876518" lon="17.35986030580376"><ele>41.6</ele><time>2026-03-29T09:38:09.999Z</time></trkpt><trkpt lat="40.38391986478818" lon="17.359950920056008"><ele>41.8</ele><time>2026-03-29T09:38:10.999Z</time></trkpt><trkpt lat="40.383835159032714" lon="17.360028898747128"><ele>42.0</ele><time>2026-03-29T09:38:11.999Z</time></trkpt><trkpt lat="40.38378938427997" lon="17.360121099119798"><ele>42.0</ele><time>2026-03-29T09:38:12.999Z</time></trkpt><trkpt lat="40.383728830059056" lon="17.360203722906412"><ele>42.0</ele><time>2026-03-29T09:38:13.999Z</time></trkpt><trkpt lat="40.38367507685719" lon="17.360267059938895"><ele>42.0</ele><time>2026-03-29T09:38:14.999Z</time></trkpt><trkpt lat="40.38358783836939" lon="17.360361725143786"><ele>42.0</ele><time>2026-03-29T09:38:16.999Z</time></trkpt><trkpt lat="40.38352225783543" lon="17.360405135734656"><ele>42.0</ele><time>2026-03-29T09:38:17.999Z</time></trkpt><trkpt lat="40.38339296570597" lon="17.360433943598032"><ele>42.0</ele><time>2026-03-29T09:38:19.999Z</time></trkpt><trkpt lat="40.383304562687364" lon="17.360416881824076"><ele>42.0</ele><time>2026-03-29T09:38:21.999Z</time></trkpt><trkpt lat="40.38322279261185" lon="17.360402625191064"><ele>42.0</ele><time>2026-03-29T09:38:23.999Z</time></trkpt><trkpt lat="40.383152947517836" lon="17.360400392101752"><ele>42.0</ele><time>2026-03-29T09:38:25.999Z</time></trkpt><trkpt lat="40.38308915952622" lon="17.360624504279166"><ele>42.0</ele><time>2026-03-29T09:38:26.999Z</time></trkpt><trkpt lat="40.3830774042295" lon="17.36077392345888"><ele>41.8</ele><time>2026-03-29T09:38:27.999Z</time></trkpt><trkpt lat="40.38302221730913" lon="17.360906955365923"><ele>41.6</ele><time>2026-03-29T09:38:28.999Z</time></trkpt><trkpt lat="40.383038891514055" lon="17.361024850930477"><ele>41.4</ele><time>2026-03-29T09:38:29.999Z</time></trkpt><trkpt lat="40.38301674080246" lon="17.361161587640897"><ele>41.199999999999996</ele><time>2026-03-29T09:38:30.999Z</time></trkpt><trkpt lat="40.3829879210325" lon="17.361281388434584"><ele>41.0</ele><time>2026-03-29T09:38:31.999Z</time></trkpt><trkpt lat="40.38295216411339" lon="17.361390192153767"><ele>41.0</ele><time>2026-03-29T09:38:32.999Z</time></trkpt><trkpt lat="40.38292179327433" lon="17.361514741192167"><ele>41.0</ele><time>2026-03-29T09:38:33.999Z</time></trkpt><trkpt lat="40.38287991088909" lon="17.361673038237598"><ele>41.0</ele><time>2026-03-29T09:38:34.999Z</time></trkpt><trkpt lat="40.3828429242576" lon="17.36182819224846"><ele>41.0</ele><time>2026-03-29T09:38:35.999Z</time></trkpt><trkpt lat="40.38280087622877" lon="17.362004578104866"><ele>41.0</ele><time>2026-03-29T09:38:36.999Z</time></trkpt><trkpt lat="40.382758507469305" lon="17.362182310336006"><ele>41.0</ele><time>2026-03-29T09:38:37.999Z</time></trkpt><trkpt lat="40.382712417762754" lon="17.36237194291984"><ele>41.0</ele><time>2026-03-29T09:38:38.999Z</time></trkpt><trkpt lat="40.382662094687134" lon="17.362580450309974"><ele>40.666666666666664</ele><time>2026-03-29T09:38:39.999Z</time></trkpt><trkpt lat="40.382615251387655" lon="17.36277453964776"><ele>40.333333333333336</ele><time>2026-03-29T09:38:40.999Z</time></trkpt><trkpt lat="40.38256826006263" lon="17.362969242335872"><ele>40.0</ele><time>2026-03-29T09:38:41.999Z</time></trkpt><trkpt lat="40.382522857589734" lon="17.36315695317535"><ele>40.0</ele><time>2026-03-29T09:38:42.999Z</time></trkpt><trkpt lat="40.38247598931232" lon="17.36334970184389"><ele>40.0</ele><time>2026-03-29T09:38:43.999Z</time></trkpt><trkpt lat="40.38242308445746" lon="17.363585401131463"><ele>40.0</ele><time>2026-03-29T09:38:44.999Z</time></trkpt><trkpt lat="40.382393826657" lon="17.363826968745435"><ele>40.0</ele><time>2026-03-29T09:38:45.999Z</time></trkpt><trkpt lat="40.382361056233194" lon="17.364064106217768"><ele>40.0</ele><time>2026-03-29T09:38:46.999Z</time></trkpt><trkpt lat="40.38233585847175" lon="17.364317947938403"><ele>40.0</ele><time>2026-03-29T09:38:47.999Z</time></trkpt><trkpt lat="40.382318568799306" lon="17.364590671282915"><ele>39.0</ele><time>2026-03-29T09:38:48.999Z</time></trkpt><trkpt lat="40.38228181878088" lon="17.364882227737354"><ele>38.0</ele><time>2026-03-29T09:38:49.999Z</time></trkpt><trkpt lat="40.38230159074956" lon="17.365189098133595"><ele>38.0</ele><time>2026-03-29T09:38:50.999Z</time></trkpt><trkpt lat="40.38229335321819" lon="17.3654916650969"><ele>38.0</ele><time>2026-03-29T09:38:51.999Z</time></trkpt><trkpt lat="40.38228039947426" lon="17.365781743179316"><ele>38.0</ele><time>2026-03-29T09:38:52.999Z</time></trkpt><trkpt lat="40.38227271475643" lon="17.366041417753124"><ele>38.0</ele><time>2026-03-29T09:38:53.999Z</time></trkpt><trkpt lat="40.382265243150236" lon="17.366294978783674"><ele>38.0</ele><time>2026-03-29T09:38:54.999Z</time></trkpt><trkpt lat="40.38224232821141" lon="17.366553240646297"><ele>38.0</ele><time>2026-03-29T09:38:55.999Z</time></trkpt><trkpt lat="40.382232745464826" lon="17.36678884046699"><ele>38.0</ele><time>2026-03-29T09:38:56.999Z</time></trkpt><trkpt lat="40.382216060076274" lon="17.367015652579312"><ele>38.0</ele><time>2026-03-29T09:38:57.999Z</time></trkpt><trkpt lat="40.382179345985264" lon="17.36726451121669"><ele>37.5</ele><time>2026-03-29T09:38:58.999Z</time></trkpt><trkpt lat="40.382128971903576" lon="17.367499162932386"><ele>37.0</ele><time>2026-03-29T09:38:59.999Z</time></trkpt><trkpt lat="40.38208246916789" lon="17.367703592638186"><ele>36.5</ele><time>2026-03-29T09:39:00.999Z</time></trkpt><trkpt lat="40.38205457678908" lon="17.367819146717604"><ele>36.0</ele><time>2026-03-29T09:39:01.999Z</time></trkpt><trkpt lat="40.382016560049735" lon="17.367976644651772"><ele>36.0</ele><time>2026-03-29T09:39:02.999Z</time></trkpt><trkpt lat="40.38198162157573" lon="17.36811501731204"><ele>36.0</ele><time>2026-03-29T09:39:03.999Z</time></trkpt><trkpt lat="40.3819418893666" lon="17.368248682301633"><ele>36.0</ele><time>2026-03-29T09:39:04.999Z</time></trkpt><trkpt lat="40.381860497063954" lon="17.368290740247318"><ele>36.0</ele><time>2026-03-29T09:39:06.999Z</time></trkpt><trkpt lat="40.381739477417206" lon="17.36826434179813"><ele>36.0</ele><time>2026-03-29T09:39:08.999Z</time></trkpt><trkpt lat="40.381651074642754" lon="17.36824007842991"><ele>36.0</ele><time>2026-03-29T09:39:09.999Z</time></trkpt><trkpt lat="40.38152971767611" lon="17.36820819588251"><ele>36.0</ele><time>2026-03-29T09:39:10.999Z</time></trkpt><trkpt lat="40.381399041928475" lon="17.36817983924162"><ele>36.0</ele><time>2026-03-29T09:39:11.999Z</time></trkpt><trkpt lat="40.381248667595955" lon="17.36814487885527"><ele>36.0</ele><time>2026-03-29T09:39:12.999Z</time></trkpt><trkpt lat="40.381080757586936" lon="17.368097806781584"><ele>36.666666666666664</ele><time>2026-03-29T09:39:13.999Z</time></trkpt><trkpt lat="40.3808879428058" lon="17.368051941341932"><ele>37.33333333333333</ele><time>2026-03-29T09:39:14.999Z</time></trkpt><trkpt lat="40.380723525846776" lon="17.36801047453783"><ele>38.0</ele><time>2026-03-29T09:39:15.999Z</time></trkpt><trkpt lat="40.380570702784894" lon="17.367977955264067"><ele>38.666666666666664</ele><time>2026-03-29T09:39:16.999Z</time></trkpt><trkpt lat="40.380405063440826" lon="17.367942580420433"><ele>39.333333333333336</ele><time>2026-03-29T09:39:17.999Z</time></trkpt><trkpt lat="40.38025173280346" lon="17.367910774746647"><ele>40.0</ele><time>2026-03-29T09:39:18.999Z</time></trkpt><trkpt lat="40.38009086130429" lon="17.36790710007928"><ele>40.0</ele><time>2026-03-29T09:39:20Z</time></trkpt><trkpt lat="40.379936757713246" lon="17.367913116458134"><ele>40.0</ele><time>2026-03-29T09:39:21Z</time></trkpt><trkpt lat="40.37977389233294" lon="17.367951372557936"><ele>40.0</ele><time>2026-03-29T09:39:22Z</time></trkpt><trkpt lat="40.3796363685064" lon="17.36798113890793"><ele>40.75</ele><time>2026-03-29T09:39:23Z</time></trkpt><trkpt lat="40.37951875305347" lon="17.368006627839616"><ele>41.5</ele><time>2026-03-29T09:39:24Z</time></trkpt><trkpt lat="40.37939991116502" lon="17.368000892203863"><ele>42.25</ele><time>2026-03-29T09:39:25Z</time></trkpt><trkpt lat="40.37927862857416" lon="17.36800488576119"><ele>43.0</ele><time>2026-03-29T09:39:26Z</time></trkpt><trkpt lat="40.37916868571493" lon="17.368000568283698"><ele>43.0</ele><time>2026-03-29T09:39:27Z</time></trkpt><trkpt lat="40.379072648120065" lon="17.367996606144008"><ele>43.0</ele><time>2026-03-29T09:39:28Z</time></trkpt><trkpt lat="40.37899469958381" lon="17.36800178708358"><ele>43.0</ele><time>2026-03-29T09:39:29Z</time></trkpt><trkpt lat="40.378919773150194" lon="17.36800225961534"><ele>43.0</ele><time>2026-03-29T09:39:30Z</time></trkpt><trkpt lat="40.37880809892579" lon="17.368000934192644"><ele>43.0</ele><time>2026-03-29T09:39:31Z</time></trkpt><trkpt lat="40.37867759858851" lon="17.367999993839142"><ele>42.66666666666667</ele><time>2026-03-29T09:39:32Z</time></trkpt><trkpt lat="40.37853242068972" lon="17.367982046097225"><ele>42.333333333333336</ele><time>2026-03-29T09:39:33Z</time></trkpt><trkpt lat="40.37837369555043" lon="17.3679789235689"><ele>42.0</ele><time>2026-03-29T09:39:34Z</time></trkpt><trkpt lat="40.378209943996914" lon="17.367975702162262"><ele>42.0</ele><time>2026-03-29T09:39:35Z</time></trkpt><trkpt lat="40.37804280366105" lon="17.367972414086918"><ele>42.0</ele><time>2026-03-29T09:39:36Z</time></trkpt><trkpt lat="40.377879072075764" lon="17.367990353112877"><ele>42.0</ele><time>2026-03-29T09:39:37Z</time></trkpt><trkpt lat="40.37770860142637" lon="17.367980428790883"><ele>40.666666666666664</ele><time>2026-03-29T09:39:38Z</time></trkpt><trkpt lat="40.3775392366215" lon="17.3679772751536"><ele>39.33333333333333</ele><time>2026-03-29T09:39:39Z</time></trkpt><trkpt lat="40.37735694736918" lon="17.36796421226039"><ele>38.0</ele><time>2026-03-29T09:39:40Z</time></trkpt><trkpt lat="40.37715668168242" lon="17.36794869859773"><ele>37.33333333333333</ele><time>2026-03-29T09:39:41Z</time></trkpt><trkpt lat="40.3769731033623" lon="17.367933009626164"><ele>36.666666666666664</ele><time>2026-03-29T09:39:42Z</time></trkpt><trkpt lat="40.376790123484234" lon="17.367915169731756"><ele>36.0</ele><time>2026-03-29T09:39:43Z</time></trkpt><trkpt lat="40.37659649957336" lon="17.36790337406426"><ele>36.0</ele><time>2026-03-29T09:39:44Z</time></trkpt><trkpt lat="40.37641116731436" lon="17.36789250796933"><ele>36.0</ele><time>2026-03-29T09:39:45Z</time></trkpt><trkpt lat="40.37623576728492" lon="17.367874303825207"><ele>36.0</ele><time>2026-03-29T09:39:46Z</time></trkpt><trkpt lat="40.376068976363285" lon="17.36785990977501"><ele>35.6</ele><time>2026-03-29T09:39:47Z</time></trkpt><trkpt lat="40.37592481884692" lon="17.367861425185502"><ele>35.2</ele><time>2026-03-29T09:39:48Z</time></trkpt><trkpt lat="40.3758167396907" lon="17.367853596706208"><ele>34.8</ele><time>2026-03-29T09:39:49Z</time></trkpt><trkpt lat="40.37574750633451" lon="17.367888401599476"><ele>34.4</ele><time>2026-03-29T09:39:50Z</time></trkpt><trkpt lat="40.37566060249617" lon="17.367912382142926"><ele>34.0</ele><time>2026-03-29T09:39:52Z</time></trkpt><trkpt lat="40.37558362954149" lon="17.36791514207293"><ele>33.0</ele><time>2026-03-29T09:40:11Z</time></trkpt><trkpt lat="40.375504007863775" lon="17.36788791277526"><ele>32.0</ele><time>2026-03-29T09:40:31Z</time></trkpt><trkpt lat="40.37540668683385" lon="17.36799083595875"><ele>31.0</ele><time>2026-03-29T09:40:34Z</time></trkpt><trkpt lat="40.375394222281074" lon="17.368077847314204"><ele>30.0</ele><time>2026-03-29T09:41:17Z</time></trkpt><trkpt lat="40.375350653497605" lon="17.36818508292412"><ele>29.0</ele><time>2026-03-29T09:41:18Z</time></trkpt><trkpt lat="40.375309058811794" lon="17.36830827040959"><ele>28.75</ele><time>2026-03-29T09:41:19Z</time></trkpt><trkpt lat="40.37527035721582" lon="17.368450758314108"><ele>28.5</ele><time>2026-03-29T09:41:20Z</time></trkpt><trkpt lat="40.37522033405657" lon="17.36861590618565"><ele>28.25</ele><time>2026-03-29T09:41:21Z</time></trkpt><trkpt lat="40.37516321037437" lon="17.36879791485515"><ele>28.0</ele><time>2026-03-29T09:41:22Z</time></trkpt><trkpt lat="40.37508563247944" lon="17.368989464391117"><ele>29.0</ele><time>2026-03-29T09:41:23Z</time></trkpt><trkpt lat="40.37500739798976" lon="17.36918671549192"><ele>30.0</ele><time>2026-03-29T09:41:24Z</time></trkpt><trkpt lat="40.374903711306274" lon="17.369378612937894"><ele>31.0</ele><time>2026-03-29T09:41:25Z</time></trkpt><trkpt lat="40.37478222077048" lon="17.369572904311763"><ele>30.0</ele><time>2026-03-29T09:41:25.999Z</time></trkpt><trkpt lat="40.3746491857189" lon="17.369764551374104"><ele>29.0</ele><time>2026-03-29T09:41:26.999Z</time></trkpt><trkpt lat="40.37452420937526" lon="17.36995337152303"><ele>28.0</ele><time>2026-03-29T09:41:27.999Z</time></trkpt><trkpt lat="40.374408139588475" lon="17.370131262714477"><ele>28.0</ele><time>2026-03-29T09:41:28.999Z</time></trkpt><trkpt lat="40.374292033485006" lon="17.370291576850725"><ele>28.0</ele><time>2026-03-29T09:41:29.999Z</time></trkpt><trkpt lat="40.37418104047036" lon="17.370496772446845"><ele>28.0</ele><time>2026-03-29T09:41:30.999Z</time></trkpt><trkpt lat="40.37405630308431" lon="17.370690158929378"><ele>27.666666666666668</ele><time>2026-03-29T09:41:31.999Z</time></trkpt><trkpt lat="40.373928483123876" lon="17.37089447405693"><ele>27.333333333333336</ele><time>2026-03-29T09:41:32.999Z</time></trkpt><trkpt lat="40.37378806169562" lon="17.371105005290726"><ele>27.0</ele><time>2026-03-29T09:41:33.999Z</time></trkpt><trkpt lat="40.373650949473785" lon="17.371315217450903"><ele>25.333333333333332</ele><time>2026-03-29T09:41:34.999Z</time></trkpt><trkpt lat="40.37351414516247" lon="17.3715323044263"><ele>23.666666666666664</ele><time>2026-03-29T09:41:35.999Z</time></trkpt><trkpt lat="40.37336881289211" lon="17.371763476763817"><ele>22.0</ele><time>2026-03-29T09:41:36.999Z</time></trkpt><trkpt lat="40.373215195211" lon="17.371996288416277"><ele>22.0</ele><time>2026-03-29T09:41:37.999Z</time></trkpt><trkpt lat="40.373060088106534" lon="17.372237620015085"><ele>22.0</ele><time>2026-03-29T09:41:38.999Z</time></trkpt><trkpt lat="40.37290257653285" lon="17.372477135157993"><ele>22.0</ele><time>2026-03-29T09:41:39.999Z</time></trkpt><trkpt lat="40.372745914554905" lon="17.37272086007289"><ele>22.0</ele><time>2026-03-29T09:41:40.999Z</time></trkpt><trkpt lat="40.37259083066739" lon="17.372965148542956"><ele>21.5</ele><time>2026-03-29T09:41:41.999Z</time></trkpt><trkpt lat="40.3724311021943" lon="17.373218099566778"><ele>21.0</ele><time>2026-03-29T09:41:42.999Z</time></trkpt><trkpt lat="40.37225658047757" lon="17.373451560140087"><ele>20.5</ele><time>2026-03-29T09:41:43.999Z</time></trkpt><trkpt lat="40.37210599381574" lon="17.373710183768917"><ele>20.0</ele><time>2026-03-29T09:41:44.999Z</time></trkpt><trkpt lat="40.37191532620343" lon="17.37394007143588"><ele>20.0</ele><time>2026-03-29T09:41:45.999Z</time></trkpt><trkpt lat="40.371769920139634" lon="17.374181479177373"><ele>20.0</ele><time>2026-03-29T09:41:46.999Z</time></trkpt><trkpt lat="40.37162347529121" lon="17.3744220857433"><ele>20.0</ele><time>2026-03-29T09:41:47.999Z</time></trkpt><trkpt lat="40.37147186519649" lon="17.374649911974323"><ele>20.0</ele><time>2026-03-29T09:41:48.999Z</time></trkpt><trkpt lat="40.37131837147209" lon="17.374889242834993"><ele>20.5</ele><time>2026-03-29T09:41:49.999Z</time></trkpt><trkpt lat="40.37116537170821" lon="17.375122369610576"><ele>21.0</ele><time>2026-03-29T09:41:50.999Z</time></trkpt><trkpt lat="40.37101372819403" lon="17.375355079580935"><ele>20.0</ele><time>2026-03-29T09:41:51.999Z</time></trkpt><trkpt lat="40.37086256081536" lon="17.375591807987423"><ele>19.0</ele><time>2026-03-29T09:41:52.999Z</time></trkpt><trkpt lat="40.3707152746342" lon="17.3758219535356"><ele>19.0</ele><time>2026-03-29T09:41:53.999Z</time></trkpt><trkpt lat="40.37056649999606" lon="17.376043730663234"><ele>19.0</ele><time>2026-03-29T09:41:54.999Z</time></trkpt><trkpt lat="40.37042206524125" lon="17.37626673738689"><ele>19.0</ele><time>2026-03-29T09:41:55.999Z</time></trkpt><trkpt lat="40.370276170804786" lon="17.376494090373544"><ele>19.0</ele><time>2026-03-29T09:41:56.999Z</time></trkpt><trkpt lat="40.370122987172" lon="17.3767240111777"><ele>19.0</ele><time>2026-03-29T09:41:57.999Z</time></trkpt><trkpt lat="40.36997731350809" lon="17.3769433747246"><ele>19.0</ele><time>2026-03-29T09:41:58.999Z</time></trkpt><trkpt lat="40.36983794506538" lon="17.377130150039193"><ele>19.0</ele><time>2026-03-29T09:41:59.999Z</time></trkpt><trkpt lat="40.369724949460206" lon="17.377311589433447"><ele>19.0</ele><time>2026-03-29T09:42:00.999Z</time></trkpt><trkpt lat="40.369622926177755" lon="17.377492008666387"><ele>19.0</ele><time>2026-03-29T09:42:01.999Z</time></trkpt><trkpt lat="40.369535906717005" lon="17.37764761617676"><ele>19.0</ele><time>2026-03-29T09:42:02.999Z</time></trkpt><trkpt lat="40.36946610366034" lon="17.37777255673421"><ele>19.0</ele><time>2026-03-29T09:42:03.999Z</time></trkpt><trkpt lat="40.36940203985303" lon="17.377875208434524"><ele>19.0</ele><time>2026-03-29T09:42:04.999Z</time></trkpt><trkpt lat="40.36934980591542" lon="17.377950657915974"><ele>19.0</ele><time>2026-03-29T09:42:05.999Z</time></trkpt><trkpt lat="40.36929423955474" lon="17.377990309513308"><ele>19.0</ele><time>2026-03-29T09:42:06.999Z</time></trkpt><trkpt lat="40.36923120329219" lon="17.37793009306506"><ele>19.0</ele><time>2026-03-29T09:42:07.999Z</time></trkpt><trkpt lat="40.36913270006328" lon="17.377906040820797"><ele>19.0</ele><time>2026-03-29T09:42:08.999Z</time></trkpt><trkpt lat="40.36901896962652" lon="17.377881322075236"><ele>19.0</ele><time>2026-03-29T09:42:09.999Z</time></trkpt><trkpt lat="40.3688817863449" lon="17.37787339475459"><ele>19.0</ele><time>2026-03-29T09:42:10.999Z</time></trkpt><trkpt lat="40.36873029470102" lon="17.377830034142246"><ele>18.333333333333332</ele><time>2026-03-29T09:42:11.999Z</time></trkpt><trkpt lat="40.368563246207636" lon="17.377803753815094"><ele>17.666666666666668</ele><time>2026-03-29T09:42:12.999Z</time></trkpt><trkpt lat="40.368389500405954" lon="17.377760891807792"><ele>17.0</ele><time>2026-03-29T09:42:13.999Z</time></trkpt><trkpt lat="40.368215192831464" lon="17.37770630269126"><ele>17.0</ele><time>2026-03-29T09:42:14.999Z</time></trkpt><trkpt lat="40.36802195266054" lon="17.377685008003766"><ele>17.0</ele><time>2026-03-29T09:42:15.999Z</time></trkpt><trkpt lat="40.36781797057009" lon="17.377637563773543"><ele>17.0</ele><time>2026-03-29T09:42:16.999Z</time></trkpt><trkpt lat="40.36761164270535" lon="17.37758897112142"><ele>17.0</ele><time>2026-03-29T09:42:17.999Z</time></trkpt><trkpt lat="40.36739497518932" lon="17.377545788627064"><ele>17.0</ele><time>2026-03-29T09:42:18.999Z</time></trkpt><trkpt lat="40.367179987486246" lon="17.377480300735645"><ele>17.0</ele><time>2026-03-29T09:42:19.999Z</time></trkpt><trkpt lat="40.36697465726942" lon="17.377453189668653"><ele>16.666666666666668</ele><time>2026-03-29T09:42:20.999Z</time></trkpt><trkpt lat="40.36677656307991" lon="17.37740636823689"><ele>16.333333333333332</ele><time>2026-03-29T09:42:21.999Z</time></trkpt><trkpt lat="40.366573619782876" lon="17.37736070849433"><ele>16.0</ele><time>2026-03-29T09:42:22.999Z</time></trkpt><trkpt lat="40.36636869218656" lon="17.377317544968392"><ele>16.333333333333332</ele><time>2026-03-29T09:42:23.999Z</time></trkpt><trkpt lat="40.36616378159595" lon="17.377276204768357"><ele>16.666666666666668</ele><time>2026-03-29T09:42:24.999Z</time></trkpt><trkpt lat="40.365974251772606" lon="17.377214960845368"><ele>17.0</ele><time>2026-03-29T09:42:25.999Z</time></trkpt><trkpt lat="40.365786940058314" lon="17.377174723097433"><ele>16.666666666666668</ele><time>2026-03-29T09:42:26.999Z</time></trkpt><trkpt lat="40.3655966789648" lon="17.37713385175002"><ele>16.333333333333332</ele><time>2026-03-29T09:42:27.999Z</time></trkpt><trkpt lat="40.36540139289739" lon="17.377091426671537"><ele>16.0</ele><time>2026-03-29T09:42:28.999Z</time></trkpt><trkpt lat="40.3652076714949" lon="17.377049263868564"><ele>16.0</ele><time>2026-03-29T09:42:29.999Z</time></trkpt><trkpt lat="40.364997464393774" lon="17.377003513013545"><ele>16.0</ele><time>2026-03-29T09:42:30.999Z</time></trkpt><trkpt lat="40.364800623779495" lon="17.376960672904275"><ele>16.0</ele><time>2026-03-29T09:42:31.999Z</time></trkpt><trkpt lat="40.3646038726513" lon="17.376917850665258"><ele>16.0</ele><time>2026-03-29T09:42:32.999Z</time></trkpt><trkpt lat="40.36439928528655" lon="17.376889435710055"><ele>16.0</ele><time>2026-03-29T09:42:33.999Z</time></trkpt><trkpt lat="40.364182024982576" lon="17.376840602239984"><ele>16.0</ele><time>2026-03-29T09:42:34.999Z</time></trkpt><trkpt lat="40.36396436286397" lon="17.37679814739"><ele>16.0</ele><time>2026-03-29T09:42:35.999Z</time></trkpt><trkpt lat="40.36374403849571" lon="17.37674925479945"><ele>16.0</ele><time>2026-03-29T09:42:36.999Z</time></trkpt><trkpt lat="40.36352872435673" lon="17.37670281138295"><ele>16.0</ele><time>2026-03-29T09:42:37.999Z</time></trkpt><trkpt lat="40.36330104010122" lon="17.376649466320934"><ele>16.0</ele><time>2026-03-29T09:42:38.999Z</time></trkpt><trkpt lat="40.363088146003086" lon="17.376601659159984"><ele>16.0</ele><time>2026-03-29T09:42:39.999Z</time></trkpt><trkpt lat="40.362891516106785" lon="17.37655199243509"><ele>16.0</ele><time>2026-03-29T09:42:40.999Z</time></trkpt><trkpt lat="40.36269933087751" lon="17.37651212518876"><ele>16.333333333333332</ele><time>2026-03-29T09:42:41.999Z</time></trkpt><trkpt lat="40.3624996832104" lon="17.376470486012114"><ele>16.666666666666668</ele><time>2026-03-29T09:42:42.999Z</time></trkpt><trkpt lat="40.362318878496886" lon="17.376430701310795"><ele>17.0</ele><time>2026-03-29T09:42:43.999Z</time></trkpt><trkpt lat="40.362157470787885" lon="17.376393363586484"><ele>17.0</ele><time>2026-03-29T09:42:44.999Z</time></trkpt><trkpt lat="40.36202021821459" lon="17.376360233552354"><ele>17.0</ele><time>2026-03-29T09:42:45.999Z</time></trkpt><trkpt lat="40.361903303167665" lon="17.37633419581111"><ele>17.0</ele><time>2026-03-29T09:42:46.999Z</time></trkpt><trkpt lat="40.361803388063805" lon="17.37631639551355"><ele>17.0</ele><time>2026-03-29T09:42:47.999Z</time></trkpt><trkpt lat="40.36172089538028" lon="17.376296735886825"><ele>17.0</ele><time>2026-03-29T09:42:49Z</time></trkpt><trkpt lat="40.3616405758529" lon="17.376281993658075"><ele>16.75</ele><time>2026-03-29T09:42:50Z</time></trkpt><trkpt lat="40.36153000325663" lon="17.376256977273492"><ele>16.5</ele><time>2026-03-29T09:42:51Z</time></trkpt><trkpt lat="40.36139771567824" lon="17.376229693134416"><ele>16.25</ele><time>2026-03-29T09:42:52Z</time></trkpt><trkpt lat="40.36124040275819" lon="17.37619479714168"><ele>16.0</ele><time>2026-03-29T09:42:53Z</time></trkpt><trkpt lat="40.36108810834699" lon="17.37616094033586"><ele>16.0</ele><time>2026-03-29T09:42:54Z</time></trkpt><trkpt lat="40.36093220496294" lon="17.37612994888114"><ele>16.0</ele><time>2026-03-29T09:42:55Z</time></trkpt><trkpt lat="40.36077368353523" lon="17.3761006686987"><ele>16.0</ele><time>2026-03-29T09:42:56Z</time></trkpt><trkpt lat="40.36062811933278" lon="17.37606792599489"><ele>16.0</ele><time>2026-03-29T09:42:57Z</time></trkpt><trkpt lat="40.36048567101418" lon="17.376038596962246"><ele>16.0</ele><time>2026-03-29T09:42:58Z</time></trkpt><trkpt lat="40.360329879227876" lon="17.37600700206886"><ele>16.0</ele><time>2026-03-29T09:42:59Z</time></trkpt><trkpt lat="40.360167336492395" lon="17.37597025274176"><ele>16.0</ele><time>2026-03-29T09:43:00Z</time></trkpt><trkpt lat="40.36002842219101" lon="17.37594519820134"><ele>16.0</ele><time>2026-03-29T09:43:01Z</time></trkpt><trkpt lat="40.359898127609846" lon="17.375916602030955"><ele>16.0</ele><time>2026-03-29T09:43:02Z</time></trkpt><trkpt lat="40.35976473607955" lon="17.375894469219208"><ele>16.0</ele><time>2026-03-29T09:43:03Z</time></trkpt><trkpt lat="40.35962106651902" lon="17.375900588696677"><ele>15.666666666666666</ele><time>2026-03-29T09:43:04Z</time></trkpt><trkpt lat="40.359465186029176" lon="17.37592504069897"><ele>15.333333333333332</ele><time>2026-03-29T09:43:05Z</time></trkpt><trkpt lat="40.35931658772435" lon="17.37592351847876"><ele>15.0</ele><time>2026-03-29T09:43:06Z</time></trkpt><trkpt lat="40.35916122518174" lon="17.375893660037235"><ele>15.0</ele><time>2026-03-29T09:43:07Z</time></trkpt><trkpt lat="40.35901906133986" lon="17.37586974546424"><ele>15.0</ele><time>2026-03-29T09:43:08Z</time></trkpt><trkpt lat="40.358887081782385" lon="17.375850014738838"><ele>15.0</ele><time>2026-03-29T09:43:09Z</time></trkpt><trkpt lat="40.3587498572049" lon="17.37583636109211"><ele>15.0</ele><time>2026-03-29T09:43:10Z</time></trkpt><trkpt lat="40.35861314894436" lon="17.375824443885776"><ele>15.2</ele><time>2026-03-29T09:43:11Z</time></trkpt><trkpt lat="40.35850004391119" lon="17.375814997580914"><ele>15.4</ele><time>2026-03-29T09:43:12Z</time></trkpt><trkpt lat="40.35839660428049" lon="17.375798001470606"><ele>15.600000000000001</ele><time>2026-03-29T09:43:13Z</time></trkpt><trkpt lat="40.35829289994437" lon="17.37578232951785"><ele>15.8</ele><time>2026-03-29T09:43:14Z</time></trkpt><trkpt lat="40.35818947624081" lon="17.37575607984779"><ele>16.0</ele><time>2026-03-29T09:43:15Z</time></trkpt><trkpt lat="40.35809503414181" lon="17.375721122706224"><ele>15.666666666666666</ele><time>2026-03-29T09:43:16Z</time></trkpt><trkpt lat="40.35801155898213" lon="17.375715768320866"><ele>15.333333333333332</ele><time>2026-03-29T09:43:17Z</time></trkpt><trkpt lat="40.35794382415655" lon="17.375704443939902"><ele>15.0</ele><time>2026-03-29T09:43:18Z</time></trkpt><trkpt lat="40.35785724695645" lon="17.37568996935623"><ele>14.666666666666668</ele><time>2026-03-29T09:43:20Z</time></trkpt><trkpt lat="40.357790767612464" lon="17.37567885488585"><ele>14.333333333333334</ele><time>2026-03-29T09:43:28Z</time></trkpt><trkpt lat="40.357709188840204" lon="17.375773379339794"><ele>14.0</ele><time>2026-03-29T09:43:30Z</time></trkpt><trkpt lat="40.357667772770064" lon="17.37589695415389"><ele>14.0</ele><time>2026-03-29T09:43:31Z</time></trkpt><trkpt lat="40.35761138740562" lon="17.376037903130484"><ele>14.0</ele><time>2026-03-29T09:43:31.999Z</time></trkpt><trkpt lat="40.35754872153033" lon="17.37620609613595"><ele>14.0</ele><time>2026-03-29T09:43:32.999Z</time></trkpt><trkpt lat="40.357480422913454" lon="17.376384396697627"><ele>14.0</ele><time>2026-03-29T09:43:33.999Z</time></trkpt><trkpt lat="40.35743431559292" lon="17.37653294121604"><ele>14.0</ele><time>2026-03-29T09:43:34.999Z</time></trkpt><trkpt lat="40.35740265963723" lon="17.37666906872278"><ele>13.999999999999998</ele><time>2026-03-29T09:43:35.999Z</time></trkpt><trkpt lat="40.357361097022896" lon="17.376787532309084"><ele>13.999999999999998</ele><time>2026-03-29T09:43:36.999Z</time></trkpt><trkpt lat="40.3573507523791" lon="17.376911389317208"><ele>14.0</ele><time>2026-03-29T09:43:37.999Z</time></trkpt><trkpt lat="40.35732245750646" lon="17.37701147497284"><ele>14.0</ele><time>2026-03-29T09:43:38.999Z</time></trkpt><trkpt lat="40.35726509431084" lon="17.377085424117528"><ele>14.0</ele><time>2026-03-29T09:43:39.999Z</time></trkpt><trkpt lat="40.35708941462163" lon="17.37711491482641"><ele>14.0</ele><time>2026-03-29T09:43:41.999Z</time></trkpt><trkpt lat="40.35697161925342" lon="17.377061279672983"><ele>14.0</ele><time>2026-03-29T09:43:42.999Z</time></trkpt><trkpt lat="40.35683718501936" lon="17.3769718596714"><ele>14.0</ele><time>2026-03-29T09:43:43.999Z</time></trkpt><trkpt lat="40.35669476937169" lon="17.376916923962913"><ele>14.0</ele><time>2026-03-29T09:43:44.999Z</time></trkpt><trkpt lat="40.356616958625125" lon="17.376922990756313"><ele>14.0</ele><time>2026-03-29T09:43:45.999Z</time></trkpt><trkpt lat="40.35645476995964" lon="17.376863914890865"><ele>14.0</ele><time>2026-03-29T09:43:46.999Z</time></trkpt><trkpt lat="40.35628829425677" lon="17.376793943623557"><ele>14.666666666666668</ele><time>2026-03-29T09:43:47.999Z</time></trkpt><trkpt lat="40.356120302032565" lon="17.3767297822481"><ele>15.333333333333332</ele><time>2026-03-29T09:43:48.999Z</time></trkpt><trkpt lat="40.355946739072266" lon="17.376659344333543"><ele>16.0</ele><time>2026-03-29T09:43:49.999Z</time></trkpt><trkpt lat="40.355771213740674" lon="17.37659253650142"><ele>16.0</ele><time>2026-03-29T09:43:50.999Z</time></trkpt><trkpt lat="40.35559419627968" lon="17.37652419599124"><ele>16.0</ele><time>2026-03-29T09:43:51.999Z</time></trkpt><trkpt lat="40.35540464272435" lon="17.376449171420674"><ele>16.0</ele><time>2026-03-29T09:43:52.999Z</time></trkpt><trkpt lat="40.355211654531466" lon="17.376378293363086"><ele>17.0</ele><time>2026-03-29T09:43:53.999Z</time></trkpt><trkpt lat="40.35503840385928" lon="17.376307599981825"><ele>18.0</ele><time>2026-03-29T09:43:54.999Z</time></trkpt><trkpt lat="40.354870750408665" lon="17.37624191984302"><ele>19.0</ele><time>2026-03-29T09:43:55.999Z</time></trkpt><trkpt lat="40.35470764807339" lon="17.376181295640343"><ele>19.666666666666664</ele><time>2026-03-29T09:43:56.999Z</time></trkpt><trkpt lat="40.35454945909069" lon="17.376122475051282"><ele>20.333333333333332</ele><time>2026-03-29T09:43:57.999Z</time></trkpt><trkpt lat="40.35437876850354" lon="17.37606019319063"><ele>21.0</ele><time>2026-03-29T09:43:58.999Z</time></trkpt><trkpt lat="40.35422613033431" lon="17.376001467582828"><ele>21.0</ele><time>2026-03-29T09:43:59.999Z</time></trkpt><trkpt lat="40.35408502285584" lon="17.37594876823685"><ele>21.0</ele><time>2026-03-29T09:44:01Z</time></trkpt><trkpt lat="40.353931933058725" lon="17.37589131543584"><ele>21.0</ele><time>2026-03-29T09:44:02Z</time></trkpt><trkpt lat="40.353800194905226" lon="17.37583757754839"><ele>21.0</ele><time>2026-03-29T09:44:03Z</time></trkpt><trkpt lat="40.353664066516686" lon="17.37578748738068"><ele>20.75</ele><time>2026-03-29T09:44:04Z</time></trkpt><trkpt lat="40.35352750041734" lon="17.37571835628282"><ele>20.5</ele><time>2026-03-29T09:44:05Z</time></trkpt><trkpt lat="40.35339697225948" lon="17.375668480618234"><ele>20.25</ele><time>2026-03-29T09:44:06Z</time></trkpt><trkpt lat="40.35324687068772" lon="17.375612385718195"><ele>20.0</ele><time>2026-03-29T09:44:07Z</time></trkpt><trkpt lat="40.35309749211842" lon="17.37555656105912"><ele>21.0</ele><time>2026-03-29T09:44:08Z</time></trkpt><trkpt lat="40.35295618845145" lon="17.375499686900064"><ele>22.0</ele><time>2026-03-29T09:44:09Z</time></trkpt><trkpt lat="40.3528059971027" lon="17.375433299043557"><ele>23.0</ele><time>2026-03-29T09:44:10Z</time></trkpt><trkpt lat="40.352667493560105" lon="17.375377510728764"><ele>23.0</ele><time>2026-03-29T09:44:11Z</time></trkpt><trkpt lat="40.35252975455398" lon="17.37532361747311"><ele>23.0</ele><time>2026-03-29T09:44:12Z</time></trkpt><trkpt lat="40.3523962647949" lon="17.37523629691065"><ele>23.0</ele><time>2026-03-29T09:44:13Z</time></trkpt><trkpt lat="40.35228179234915" lon="17.375152822064265"><ele>23.0</ele><time>2026-03-29T09:44:14Z</time></trkpt><trkpt lat="40.35215668046778" lon="17.3751002577034"><ele>21.333333333333336</ele><time>2026-03-29T09:44:15Z</time></trkpt><trkpt lat="40.35200173534596" lon="17.37509097697962"><ele>19.666666666666668</ele><time>2026-03-29T09:44:16Z</time></trkpt><trkpt lat="40.35183064052842" lon="17.37508634214836"><ele>18.0</ele><time>2026-03-29T09:44:17Z</time></trkpt><trkpt lat="40.35165075365115" lon="17.37507233590932"><ele>18.0</ele><time>2026-03-29T09:44:18Z</time></trkpt><trkpt lat="40.35148735736099" lon="17.37505730841965"><ele>18.0</ele><time>2026-03-29T09:44:19Z</time></trkpt><trkpt lat="40.35133792366255" lon="17.375049578459002"><ele>18.0</ele><time>2026-03-29T09:44:20Z</time></trkpt><trkpt lat="40.35116765783165" lon="17.375045098859612"><ele>17.5</ele><time>2026-03-29T09:44:21Z</time></trkpt><trkpt lat="40.351010906010885" lon="17.375014113942473"><ele>17.0</ele><time>2026-03-29T09:44:22Z</time></trkpt><trkpt lat="40.350865468343684" lon="17.375001641216212"><ele>16.5</ele><time>2026-03-29T09:44:23Z</time></trkpt><trkpt lat="40.350721732166946" lon="17.374989314407443"><ele>16.0</ele><time>2026-03-29T09:44:24Z</time></trkpt><trkpt lat="40.350555788979285" lon="17.37499467215558"><ele>15.0</ele><time>2026-03-29T09:44:25Z</time></trkpt><trkpt lat="40.35041465373111" lon="17.3749661727422"><ele>14.0</ele><time>2026-03-29T09:44:26Z</time></trkpt><trkpt lat="40.35028086718389" lon="17.37495792646804"><ele>13.0</ele><time>2026-03-29T09:44:27Z</time></trkpt><trkpt lat="40.35014770312" lon="17.374949718562583"><ele>12.0</ele><time>2026-03-29T09:44:28Z</time></trkpt><trkpt lat="40.35000952299787" lon="17.374941201479473"><ele>12.0</ele><time>2026-03-29T09:44:29Z</time></trkpt><trkpt lat="40.349883174980306" lon="17.37493341369724"><ele>12.0</ele><time>2026-03-29T09:44:30Z</time></trkpt><trkpt lat="40.3497770435535" lon="17.37492728480813"><ele>12.0</ele><time>2026-03-29T09:44:31Z</time></trkpt><trkpt lat="40.34968522931689" lon="17.374924422869455"><ele>12.0</ele><time>2026-03-29T09:44:32Z</time></trkpt><trkpt lat="40.34960086612335" lon="17.37494490463372"><ele>12.0</ele><time>2026-03-29T09:44:33Z</time></trkpt><trkpt lat="40.34953113502867" lon="17.37494182609944"><ele>10.5</ele><time>2026-03-29T09:44:34Z</time></trkpt><trkpt lat="40.34941981083977" lon="17.374919070352526"><ele>9.0</ele><time>2026-03-29T09:44:36Z</time></trkpt><trkpt lat="40.349355307897646" lon="17.374884865121825"><ele>7.5</ele><time>2026-03-29T09:44:38Z</time></trkpt><trkpt lat="40.34927116696966" lon="17.374885821603883"><ele>6.0</ele><time>2026-03-29T09:45:28Z</time></trkpt><trkpt lat="40.3491344917059" lon="17.375081314466502"><ele>6.0</ele><time>2026-03-29T09:45:31Z</time></trkpt><trkpt lat="40.349077148912826" lon="17.375204702793894"><ele>6.0</ele><time>2026-03-29T09:45:32Z</time></trkpt><trkpt lat="40.34901938636323" lon="17.375352101804186"><ele>6.0</ele><time>2026-03-29T09:45:33Z</time></trkpt><trkpt lat="40.34895766040667" lon="17.37550988712255"><ele>6.0</ele><time>2026-03-29T09:45:34Z</time></trkpt><trkpt lat="40.34890383571851" lon="17.375674478114043"><ele>5.0</ele><time>2026-03-29T09:45:35Z</time></trkpt><trkpt lat="40.348833487319034" lon="17.37583808022478"><ele>4.0</ele><time>2026-03-29T09:45:36Z</time></trkpt><trkpt lat="40.348758469762345" lon="17.37604557657183"><ele>3.0</ele><time>2026-03-29T09:45:37Z</time></trkpt><trkpt lat="40.34867816111031" lon="17.376267285509936"><ele>5.333333333333334</ele><time>2026-03-29T09:45:38.001Z</time></trkpt><trkpt lat="40.34859493579019" lon="17.37647383742923"><ele>7.666666666666667</ele><time>2026-03-29T09:45:39.001Z</time></trkpt><trkpt lat="40.34852223518697" lon="17.37667023121455"><ele>10.0</ele><time>2026-03-29T09:45:40.001Z</time></trkpt><trkpt lat="40.3484404077662" lon="17.37687772868455"><ele>10.0</ele><time>2026-03-29T09:45:41.001Z</time></trkpt><trkpt lat="40.34834900130443" lon="17.377074333975507"><ele>10.0</ele><time>2026-03-29T09:45:42.001Z</time></trkpt><trkpt lat="40.348276097727684" lon="17.377261356081135"><ele>10.0</ele><time>2026-03-29T09:45:43.001Z</time></trkpt><trkpt lat="40.34820149868229" lon="17.377452727630036"><ele>10.333333333333334</ele><time>2026-03-29T09:45:44.001Z</time></trkpt><trkpt lat="40.348117107324065" lon="17.377670287949194"><ele>10.666666666666666</ele><time>2026-03-29T09:45:45.001Z</time></trkpt><trkpt lat="40.34802828737182" lon="17.377900979056122"><ele>11.0</ele><time>2026-03-29T09:45:46.001Z</time></trkpt><trkpt lat="40.347942332884955" lon="17.37811923209269"><ele>11.333333333333332</ele><time>2026-03-29T09:45:47.001Z</time></trkpt><trkpt lat="40.347859621985656" lon="17.37833011777325"><ele>11.666666666666666</ele><time>2026-03-29T09:45:48Z</time></trkpt><trkpt lat="40.34777425085934" lon="17.378549997805443"><ele>12.0</ele><time>2026-03-29T09:45:49Z</time></trkpt><trkpt lat="40.347686549707745" lon="17.378776203379967"><ele>11.333333333333334</ele><time>2026-03-29T09:45:50Z</time></trkpt><trkpt lat="40.347602235332175" lon="17.37899301185318"><ele>10.666666666666668</ele><time>2026-03-29T09:45:51Z</time></trkpt><trkpt lat="40.34752372584812" lon="17.379194184840095"><ele>10.0</ele><time>2026-03-29T09:45:52Z</time></trkpt><trkpt lat="40.3474454662897" lon="17.37939310680109"><ele>10.0</ele><time>2026-03-29T09:45:53Z</time></trkpt><trkpt lat="40.347371250750584" lon="17.37958295179934"><ele>10.0</ele><time>2026-03-29T09:45:54Z</time></trkpt><trkpt lat="40.34730054671462" lon="17.379762635174135"><ele>10.0</ele><time>2026-03-29T09:45:55Z</time></trkpt><trkpt lat="40.3472264721569" lon="17.379950359715366"><ele>9.5</ele><time>2026-03-29T09:45:56Z</time></trkpt><trkpt lat="40.34716160676341" lon="17.38011941607857"><ele>9.0</ele><time>2026-03-29T09:45:57Z</time></trkpt><trkpt lat="40.347118898112974" lon="17.380275615324273"><ele>8.5</ele><time>2026-03-29T09:45:58Z</time></trkpt><trkpt lat="40.347065009052244" lon="17.380415479411806"><ele>8.0</ele><time>2026-03-29T09:45:59Z</time></trkpt><trkpt lat="40.34700488778099" lon="17.38055896369098"><ele>8.0</ele><time>2026-03-29T09:46:00Z</time></trkpt><trkpt lat="40.346917711828105" lon="17.380680145753676"><ele>8.0</ele><time>2026-03-29T09:46:01Z</time></trkpt><trkpt lat="40.34683073470464" lon="17.380809034254387"><ele>8.0</ele><time>2026-03-29T09:46:02Z</time></trkpt><trkpt lat="40.34675056550253" lon="17.380940002219216"><ele>8.0</ele><time>2026-03-29T09:46:03Z</time></trkpt><trkpt lat="40.346627607011385" lon="17.381032655210568"><ele>8.0</ele><time>2026-03-29T09:46:04Z</time></trkpt><trkpt lat="40.34650554873628" lon="17.381126566985664"><ele>8.0</ele><time>2026-03-29T09:46:05Z</time></trkpt><trkpt lat="40.346371186498274" lon="17.381217926804354"><ele>8.0</ele><time>2026-03-29T09:46:06Z</time></trkpt><trkpt lat="40.34622880813001" lon="17.381289494956707"><ele>8.0</ele><time>2026-03-29T09:46:07Z</time></trkpt><trkpt lat="40.346080748635224" lon="17.381394592242824"><ele>9.333333333333332</ele><time>2026-03-29T09:46:08Z</time></trkpt><trkpt lat="40.34594561492088" lon="17.381467307694706"><ele>10.666666666666666</ele><time>2026-03-29T09:46:09Z</time></trkpt><trkpt lat="40.34580143413895" lon="17.381534293993553"><ele>12.0</ele><time>2026-03-29T09:46:10Z</time></trkpt><trkpt lat="40.34564605423275" lon="17.38161474326388"><ele>10.0</ele><time>2026-03-29T09:46:11Z</time></trkpt><trkpt lat="40.34549427807097" lon="17.381714888121046"><ele>8.0</ele><time>2026-03-29T09:46:12Z</time></trkpt><trkpt lat="40.345310335018716" lon="17.381823819761316"><ele>6.0</ele><time>2026-03-29T09:46:13Z</time></trkpt><trkpt lat="40.34514058127175" lon="17.381921540412137"><ele>6.0</ele><time>2026-03-29T09:46:14Z</time></trkpt><trkpt lat="40.344977194902036" lon="17.382019199618593"><ele>6.0</ele><time>2026-03-29T09:46:15Z</time></trkpt><trkpt lat="40.34480566054466" lon="17.382125078055726"><ele>6.0</ele><time>2026-03-29T09:46:16Z</time></trkpt><trkpt lat="40.34462950981309" lon="17.382226112766674"><ele>9.0</ele><time>2026-03-29T09:46:17Z</time></trkpt><trkpt lat="40.34446133631391" lon="17.382298380741396"><ele>12.0</ele><time>2026-03-29T09:46:18Z</time></trkpt><trkpt lat="40.34431814448876" lon="17.38237750148091"><ele>15.0</ele><time>2026-03-29T09:46:19Z</time></trkpt><trkpt lat="40.344162610926254" lon="17.382475087588766"><ele>15.0</ele><time>2026-03-29T09:46:20Z</time></trkpt><trkpt lat="40.34399168404405" lon="17.382559629189192"><ele>15.0</ele><time>2026-03-29T09:46:21Z</time></trkpt><trkpt lat="40.34383007514091" lon="17.38265252495935"><ele>15.0</ele><time>2026-03-29T09:46:22Z</time></trkpt><trkpt lat="40.3436773773117" lon="17.38274029847746"><ele>15.333333333333332</ele><time>2026-03-29T09:46:23Z</time></trkpt><trkpt lat="40.34353670083794" lon="17.382837946509472"><ele>15.666666666666666</ele><time>2026-03-29T09:46:24Z</time></trkpt><trkpt lat="40.34336826915766" lon="17.38293565130467"><ele>16.0</ele><time>2026-03-29T09:46:25Z</time></trkpt><trkpt lat="40.343207918051036" lon="17.38300560722267"><ele>16.0</ele><time>2026-03-29T09:46:26Z</time></trkpt><trkpt lat="40.34307427508046" lon="17.383081929914024"><ele>16.0</ele><time>2026-03-29T09:46:27Z</time></trkpt><trkpt lat="40.34295040956122" lon="17.38315266876449"><ele>16.0</ele><time>2026-03-29T09:46:28Z</time></trkpt><trkpt lat="40.34282653051676" lon="17.3832234153369"><ele>16.0</ele><time>2026-03-29T09:46:29Z</time></trkpt><trkpt lat="40.3427029144543" lon="17.383294011723248"><ele>14.75</ele><time>2026-03-29T09:46:30Z</time></trkpt><trkpt lat="40.34259593814788" lon="17.38335510524608"><ele>13.5</ele><time>2026-03-29T09:46:31Z</time></trkpt><trkpt lat="40.34248637437031" lon="17.383440933774324"><ele>12.25</ele><time>2026-03-29T09:46:32Z</time></trkpt><trkpt lat="40.34236293871995" lon="17.383509344354433"><ele>11.0</ele><time>2026-03-29T09:46:33Z</time></trkpt><trkpt lat="40.34225472242886" lon="17.38357148676306"><ele>9.75</ele><time>2026-03-29T09:46:34Z</time></trkpt><trkpt lat="40.3421527010331" lon="17.38360709129017"><ele>8.5</ele><time>2026-03-29T09:46:35Z</time></trkpt><trkpt lat="40.34203205298479" lon="17.383674434485265"><ele>7.25</ele><time>2026-03-29T09:46:36Z</time></trkpt><trkpt lat="40.34191060233302" lon="17.383742931874863"><ele>6.0</ele><time>2026-03-29T09:46:37Z</time></trkpt><trkpt lat="40.34179053746151" lon="17.383810823287167"><ele>6.0</ele><time>2026-03-29T09:46:38Z</time></trkpt><trkpt lat="40.34167297748492" lon="17.383878210185795"><ele>6.0</ele><time>2026-03-29T09:46:39Z</time></trkpt><trkpt lat="40.34155698481989" lon="17.38394469868113"><ele>6.0</ele><time>2026-03-29T09:46:40Z</time></trkpt><trkpt lat="40.341434686077484" lon="17.384014801902385"><ele>6.0</ele><time>2026-03-29T09:46:41Z</time></trkpt><trkpt lat="40.3413103112287" lon="17.38408609517474"><ele>5.0</ele><time>2026-03-29T09:46:42Z</time></trkpt><trkpt lat="40.34119576039965" lon="17.384151757189493"><ele>4.0</ele><time>2026-03-29T09:46:43Z</time></trkpt><trkpt lat="40.34109417273275" lon="17.384209861002162"><ele>3.0</ele><time>2026-03-29T09:46:44Z</time></trkpt><trkpt lat="40.34098284556049" lon="17.384273442177943"><ele>2.0</ele><time>2026-03-29T09:46:45Z</time></trkpt><trkpt lat="40.34087084673178" lon="17.3843374069503"><ele>2.0</ele><time>2026-03-29T09:46:46Z</time></trkpt><trkpt lat="40.34077574636395" lon="17.38439309387857"><ele>2.0</ele><time>2026-03-29T09:46:47Z</time></trkpt><trkpt lat="40.340685462730654" lon="17.38444814248543"><ele>2.0</ele><time>2026-03-29T09:46:48Z</time></trkpt><trkpt lat="40.34059854548951" lon="17.384504469660516"><ele>2.0</ele><time>2026-03-29T09:46:49Z</time></trkpt><trkpt lat="40.34049930761053" lon="17.384581437762463"><ele>2.0</ele><time>2026-03-29T09:46:50Z</time></trkpt><trkpt lat="40.34040927261517" lon="17.384686273518653"><ele>2.75</ele><time>2026-03-29T09:46:51Z</time></trkpt><trkpt lat="40.34032388008517" lon="17.384771202430986"><ele>3.5</ele><time>2026-03-29T09:46:52Z</time></trkpt><trkpt lat="40.34023939393865" lon="17.384876463903396"><ele>4.25</ele><time>2026-03-29T09:46:53Z</time></trkpt><trkpt lat="40.340155791536326" lon="17.384990798411316"><ele>5.0</ele><time>2026-03-29T09:46:54Z</time></trkpt><trkpt lat="40.340081310735286" lon="17.385126275101182"><ele>5.0</ele><time>2026-03-29T09:46:55Z</time></trkpt><trkpt lat="40.340011825735345" lon="17.385259494586386"><ele>5.0</ele><time>2026-03-29T09:46:56Z</time></trkpt><trkpt lat="40.339950108065594" lon="17.385372018704835"><ele>5.0</ele><time>2026-03-29T09:46:57Z</time></trkpt><trkpt lat="40.33989604491699" lon="17.385495572436675"><ele>5.0</ele><time>2026-03-29T09:46:58Z</time></trkpt><trkpt lat="40.33983570441902" lon="17.385636845866614"><ele>5.0</ele><time>2026-03-29T09:46:59Z</time></trkpt><trkpt lat="40.33977151842362" lon="17.38579565010098"><ele>5.0</ele><time>2026-03-29T09:47:00Z</time></trkpt><trkpt lat="40.3397014755376" lon="17.385966734967564"><ele>5.0</ele><time>2026-03-29T09:47:01Z</time></trkpt><trkpt lat="40.339637177277346" lon="17.38612356796531"><ele>5.0</ele><time>2026-03-29T09:47:02Z</time></trkpt><trkpt lat="40.33957853614148" lon="17.38626765996568"><ele>5.0</ele><time>2026-03-29T09:47:03Z</time></trkpt><trkpt lat="40.339523951165866" lon="17.38640108600415"><ele>5.0</ele><time>2026-03-29T09:47:04Z</time></trkpt><trkpt lat="40.33947094620364" lon="17.3865676346362"><ele>5.0</ele><time>2026-03-29T09:47:05Z</time></trkpt><trkpt lat="40.33940586143683" lon="17.386722451373547"><ele>5.0</ele><time>2026-03-29T09:47:06Z</time></trkpt><trkpt lat="40.339347969019386" lon="17.386857984372135"><ele>5.0</ele><time>2026-03-29T09:47:07Z</time></trkpt><trkpt lat="40.339290723142405" lon="17.386994672144375"><ele>5.0</ele><time>2026-03-29T09:47:08Z</time></trkpt><trkpt lat="40.33923261809366" lon="17.387135269918847"><ele>5.0</ele><time>2026-03-29T09:47:09Z</time></trkpt><trkpt lat="40.33917260791859" lon="17.387285164505773"><ele>5.0</ele><time>2026-03-29T09:47:10Z</time></trkpt><trkpt lat="40.33910537349255" lon="17.387440699842422"><ele>5.0</ele><time>2026-03-29T09:47:11Z</time></trkpt><trkpt lat="40.33904133529088" lon="17.387591065128035"><ele>5.0</ele><time>2026-03-29T09:47:12Z</time></trkpt><trkpt lat="40.338978571435476" lon="17.38774035917044"><ele>5.0</ele><time>2026-03-29T09:47:13Z</time></trkpt><trkpt lat="40.338915679443275" lon="17.387896533454356"><ele>5.0</ele><time>2026-03-29T09:47:14Z</time></trkpt><trkpt lat="40.338848839934336" lon="17.388054297708486"><ele>4.25</ele><time>2026-03-29T09:47:15Z</time></trkpt><trkpt lat="40.33878473970965" lon="17.38821429011443"><ele>3.5</ele><time>2026-03-29T09:47:16Z</time></trkpt><trkpt lat="40.3387056989285" lon="17.388366338809178"><ele>2.75</ele><time>2026-03-29T09:47:17Z</time></trkpt><trkpt lat="40.338636377929774" lon="17.38853139636141"><ele>2.0</ele><time>2026-03-29T09:47:18Z</time></trkpt><trkpt lat="40.338566768852814" lon="17.388697139846236"><ele>2.0</ele><time>2026-03-29T09:47:19Z</time></trkpt><trkpt lat="40.338500480597574" lon="17.388854976249792"><ele>2.0</ele><time>2026-03-29T09:47:20Z</time></trkpt><trkpt lat="40.338432234409936" lon="17.38901749725822"><ele>2.0</ele><time>2026-03-29T09:47:21Z</time></trkpt><trkpt lat="40.33836628440643" lon="17.389175502600967"><ele>2.0</ele><time>2026-03-29T09:47:22Z</time></trkpt><trkpt lat="40.338300598948784" lon="17.389334173519998"><ele>2.0</ele><time>2026-03-29T09:47:23Z</time></trkpt><trkpt lat="40.33824716071086" lon="17.389463259829462"><ele>2.0</ele><time>2026-03-29T09:47:24Z</time></trkpt><trkpt lat="40.33817753788523" lon="17.38964700532925"><ele>2.0</ele><time>2026-03-29T09:47:25Z</time></trkpt><trkpt lat="40.33811986662637" lon="17.38978913155911"><ele>2.0</ele><time>2026-03-29T09:47:26Z</time></trkpt><trkpt lat="40.33805756146318" lon="17.38994161010783"><ele>1.5</ele><time>2026-03-29T09:47:27Z</time></trkpt><trkpt lat="40.33798866571444" lon="17.39010766153522"><ele>1.0</ele><time>2026-03-29T09:47:28Z</time></trkpt><trkpt lat="40.33792768015176" lon="17.390256464501537"><ele>0.5</ele><time>2026-03-29T09:47:29Z</time></trkpt><trkpt lat="40.337872497008156" lon="17.39038197241308"><ele>0.0</ele><time>2026-03-29T09:47:30Z</time></trkpt><trkpt lat="40.3378237911331" lon="17.39049120408478"><ele>0.4</ele><time>2026-03-29T09:47:31Z</time></trkpt><trkpt lat="40.33777592688798" lon="17.39060467251106"><ele>0.8</ele><time>2026-03-29T09:47:32Z</time></trkpt><trkpt lat="40.337730543464176" lon="17.390730951952634"><ele>1.2000000000000002</ele><time>2026-03-29T09:47:33Z</time></trkpt><trkpt lat="40.337681147782334" lon="17.39085103124856"><ele>1.6</ele><time>2026-03-29T09:47:34Z</time></trkpt><trkpt lat="40.33763347253486" lon="17.390944895826113"><ele>2.0</ele><time>2026-03-29T09:47:35Z</time></trkpt><trkpt lat="40.33759110663256" lon="17.391052764299097"><ele>2.0</ele><time>2026-03-29T09:47:36Z</time></trkpt><trkpt lat="40.33754268042202" lon="17.391177116350697"><ele>2.0</ele><time>2026-03-29T09:47:37Z</time></trkpt><trkpt lat="40.33750153956516" lon="17.39128649849937"><ele>2.0</ele><time>2026-03-29T09:47:38Z</time></trkpt><trkpt lat="40.337458529739294" lon="17.39137948348024"><ele>2.0</ele><time>2026-03-29T09:47:39Z</time></trkpt><trkpt lat="40.337410712506234" lon="17.39148749106457"><ele>2.0</ele><time>2026-03-29T09:47:40Z</time></trkpt><trkpt lat="40.33735295585841" lon="17.39162275130075"><ele>2.25</ele><time>2026-03-29T09:47:41Z</time></trkpt><trkpt lat="40.33728114857192" lon="17.39175980714652"><ele>2.5</ele><time>2026-03-29T09:47:42Z</time></trkpt><trkpt lat="40.33721550887071" lon="17.39191317985533"><ele>2.75</ele><time>2026-03-29T09:47:43.001Z</time></trkpt><trkpt lat="40.3371479852336" lon="17.392080687442558"><ele>3.0</ele><time>2026-03-29T09:47:44.001Z</time></trkpt><trkpt lat="40.33707389518464" lon="17.39226124246523"><ele>3.333333333333333</ele><time>2026-03-29T09:47:45.001Z</time></trkpt><trkpt lat="40.336994502973745" lon="17.392453988286995"><ele>3.6666666666666665</ele><time>2026-03-29T09:47:46.001Z</time></trkpt><trkpt lat="40.33691319531373" lon="17.392649967578187"><ele>4.0</ele><time>2026-03-29T09:47:47.001Z</time></trkpt><trkpt lat="40.336837875989445" lon="17.392831512931068"><ele>4.0</ele><time>2026-03-29T09:47:48.001Z</time></trkpt><trkpt lat="40.33676413411307" lon="17.393009256092647"><ele>4.0</ele><time>2026-03-29T09:47:49.001Z</time></trkpt><trkpt lat="40.33668646844935" lon="17.393193605555034"><ele>4.0</ele><time>2026-03-29T09:47:50.001Z</time></trkpt><trkpt lat="40.336606908702905" lon="17.393381971435492"><ele>4.0</ele><time>2026-03-29T09:47:51.001Z</time></trkpt><trkpt lat="40.33652786584525" lon="17.39356826195383"><ele>4.0</ele><time>2026-03-29T09:47:52.001Z</time></trkpt><trkpt lat="40.33644729379283" lon="17.393756382773255"><ele>4.0</ele><time>2026-03-29T09:47:53.001Z</time></trkpt><trkpt lat="40.33636421503115" lon="17.39395274671525"><ele>4.0</ele><time>2026-03-29T09:47:54.001Z</time></trkpt><trkpt lat="40.33627918416994" lon="17.394154999712814"><ele>4.0</ele><time>2026-03-29T09:47:55.001Z</time></trkpt><trkpt lat="40.33618839942666" lon="17.394370938799177"><ele>4.0</ele><time>2026-03-29T09:47:56.001Z</time></trkpt><trkpt lat="40.33610082150753" lon="17.39457925018212"><ele>4.0</ele><time>2026-03-29T09:47:57.001Z</time></trkpt><trkpt lat="40.33601522183183" lon="17.394784838828294"><ele>4.0</ele><time>2026-03-29T09:47:58.001Z</time></trkpt><trkpt lat="40.33593075760504" lon="17.394989251357842"><ele>4.0</ele><time>2026-03-29T09:47:59.001Z</time></trkpt><trkpt lat="40.33584306825788" lon="17.395201469027853"><ele>4.0</ele><time>2026-03-29T09:48:00.001Z</time></trkpt><trkpt lat="40.33575242014384" lon="17.39541628602471"><ele>4.0</ele><time>2026-03-29T09:48:01.001Z</time></trkpt><trkpt lat="40.3356607422071" lon="17.39563339146877"><ele>4.0</ele><time>2026-03-29T09:48:02.001Z</time></trkpt><trkpt lat="40.335569358440026" lon="17.39584980027806"><ele>4.0</ele><time>2026-03-29T09:48:03.001Z</time></trkpt><trkpt lat="40.335480847673296" lon="17.396063107074962"><ele>4.0</ele><time>2026-03-29T09:48:04.001Z</time></trkpt><trkpt lat="40.3354070672412" lon="17.396281653869984"><ele>4.0</ele><time>2026-03-29T09:48:05.001Z</time></trkpt><trkpt lat="40.33531651066721" lon="17.396496655134552"><ele>4.0</ele><time>2026-03-29T09:48:06.001Z</time></trkpt><trkpt lat="40.33522655315776" lon="17.396709497370185"><ele>4.0</ele><time>2026-03-29T09:48:07.001Z</time></trkpt><trkpt lat="40.33512737843822" lon="17.396903897456944"><ele>4.0</ele><time>2026-03-29T09:48:08.001Z</time></trkpt><trkpt lat="40.33505320886613" lon="17.397126181231616"><ele>3.333333333333333</ele><time>2026-03-29T09:48:09.001Z</time></trkpt><trkpt lat="40.334950871575906" lon="17.397324859670423"><ele>2.6666666666666665</ele><time>2026-03-29T09:48:10.001Z</time></trkpt><trkpt lat="40.334863007296065" lon="17.397532805131497"><ele>2.0</ele><time>2026-03-29T09:48:11.001Z</time></trkpt><trkpt lat="40.33477411839703" lon="17.39774317553822"><ele>2.0</ele><time>2026-03-29T09:48:12.001Z</time></trkpt><trkpt lat="40.33468599571037" lon="17.397952023623084"><ele>2.0</ele><time>2026-03-29T09:48:13.001Z</time></trkpt><trkpt lat="40.33459871819579" lon="17.3981599683258"><ele>2.0</ele><time>2026-03-29T09:48:14.001Z</time></trkpt><trkpt lat="40.334516071861536" lon="17.398357371817387"><ele>2.0</ele><time>2026-03-29T09:48:15.001Z</time></trkpt><trkpt lat="40.33443520637625" lon="17.39855109092087"><ele>2.0</ele><time>2026-03-29T09:48:16.001Z</time></trkpt><trkpt lat="40.334354873936334" lon="17.398743533100806"><ele>2.0</ele><time>2026-03-29T09:48:17.001Z</time></trkpt><trkpt lat="40.33427903318108" lon="17.398925060089745"><ele>2.0</ele><time>2026-03-29T09:48:18.001Z</time></trkpt><trkpt lat="40.33420773245599" lon="17.399093082099306"><ele>2.0</ele><time>2026-03-29T09:48:19.001Z</time></trkpt><trkpt lat="40.33412907914851" lon="17.399278430662964"><ele>2.0</ele><time>2026-03-29T09:48:20.001Z</time></trkpt><trkpt lat="40.33404677580407" lon="17.399472380588556"><ele>2.0</ele><time>2026-03-29T09:48:21.001Z</time></trkpt><trkpt lat="40.33397406988946" lon="17.39964371398684"><ele>2.0</ele><time>2026-03-29T09:48:22.001Z</time></trkpt><trkpt lat="40.33390499909215" lon="17.399811014346763"><ele>2.0</ele><time>2026-03-29T09:48:23.001Z</time></trkpt><trkpt lat="40.333853399425635" lon="17.3999280772355"><ele>2.0</ele><time>2026-03-29T09:48:24.001Z</time></trkpt><trkpt lat="40.3338162375495" lon="17.40005992561607"><ele>1.8333333333333333</ele><time>2026-03-29T09:48:25.001Z</time></trkpt><trkpt lat="40.33376045527154" lon="17.40017193617814"><ele>1.6666666666666665</ele><time>2026-03-29T09:48:26.001Z</time></trkpt><trkpt lat="40.33371591941847" lon="17.400271103657026"><ele>1.5</ele><time>2026-03-29T09:48:27.001Z</time></trkpt><trkpt lat="40.333679989963294" lon="17.400340718751654"><ele>1.3333333333333333</ele><time>2026-03-29T09:48:28.001Z</time></trkpt><trkpt lat="40.333616659708134" lon="17.400444844923413"><ele>1.1666666666666665</ele><time>2026-03-29T09:48:30.001Z</time></trkpt><trkpt lat="40.33357358210593" lon="17.40052578953064"><ele>1.0</ele><time>2026-03-29T09:48:32.001Z</time></trkpt><trkpt lat="40.33354303585865" lon="17.400602789633826"><ele>1.0</ele><time>2026-03-29T09:48:35.001Z</time></trkpt><trkpt lat="40.333516882874584" lon="17.400728241446327"><ele>1.0</ele><time>2026-03-29T09:56:17.999Z</time></trkpt><trkpt lat="40.33346415937254" lon="17.400873543515743"><ele>1.0</ele><time>2026-03-29T09:56:19.999Z</time></trkpt><trkpt lat="40.33342676736426" lon="17.4009638850184"><ele>1.0</ele><time>2026-03-29T09:56:20.999Z</time></trkpt><trkpt lat="40.33338031765269" lon="17.401069185362605"><ele>1.0</ele><time>2026-03-29T09:56:21.999Z</time></trkpt><trkpt lat="40.33334353492592" lon="17.40116925056977"><ele>1.0</ele><time>2026-03-29T09:56:22.999Z</time></trkpt><trkpt lat="40.333286776638566" lon="17.401275995194528"><ele>1.0</ele><time>2026-03-29T09:56:23.999Z</time></trkpt><trkpt lat="40.333237027936605" lon="17.40139236966507"><ele>1.0</ele><time>2026-03-29T09:56:24.999Z</time></trkpt><trkpt lat="40.33318402295227" lon="17.401516361426786"><ele>1.0</ele><time>2026-03-29T09:56:25.999Z</time></trkpt><trkpt lat="40.333128639065805" lon="17.40164591801804"><ele>1.0</ele><time>2026-03-29T09:56:26.999Z</time></trkpt><trkpt lat="40.3330720403585" lon="17.401778709054103"><ele>0.5</ele><time>2026-03-29T09:56:27.999Z</time></trkpt><trkpt lat="40.333014491480085" lon="17.40191467542965"><ele>0.0</ele><time>2026-03-29T09:56:28.999Z</time></trkpt><trkpt lat="40.33295681290565" lon="17.402050948220438"><ele>-0.5</ele><time>2026-03-29T09:56:29.999Z</time></trkpt><trkpt lat="40.33289755823974" lon="17.402190944770002"><ele>-1.0</ele><time>2026-03-29T09:56:30.999Z</time></trkpt><trkpt lat="40.33284381777956" lon="17.40231791326893"><ele>-1.2000000000000002</ele><time>2026-03-29T09:56:31.999Z</time></trkpt><trkpt lat="40.332795376171234" lon="17.402432054882958"><ele>-1.4000000000000001</ele><time>2026-03-29T09:56:32.999Z</time></trkpt><trkpt lat="40.33275183258988" lon="17.40253461361313"><ele>-1.6</ele><time>2026-03-29T09:56:33.999Z</time></trkpt><trkpt lat="40.332716670408466" lon="17.402635906370794"><ele>-1.8</ele><time>2026-03-29T09:56:34.999Z</time></trkpt><trkpt lat="40.33267700876471" lon="17.402743510335508"><ele>-2.0</ele><time>2026-03-29T09:56:35.999Z</time></trkpt><trkpt lat="40.332629962387614" lon="17.402882038949066"><ele>-1.0</ele><time>2026-03-29T09:56:36.999Z</time></trkpt><trkpt lat="40.33258417574472" lon="17.40303993725774"><ele>0.0</ele><time>2026-03-29T09:56:37.999Z</time></trkpt><trkpt lat="40.332546526205476" lon="17.40321358715947"><ele>1.0</ele><time>2026-03-29T09:56:38.999Z</time></trkpt><trkpt lat="40.33251288618953" lon="17.40338510997138"><ele>2.0</ele><time>2026-03-29T09:56:39.999Z</time></trkpt><trkpt lat="40.33248930695284" lon="17.403559182348886"><ele>2.0</ele><time>2026-03-29T09:56:40.999Z</time></trkpt><trkpt lat="40.332476395455544" lon="17.40370096437119"><ele>2.0</ele><time>2026-03-29T09:56:42Z</time></trkpt><trkpt lat="40.332467963526" lon="17.40383892203531"><ele>2.0</ele><time>2026-03-29T09:56:43Z</time></trkpt><trkpt lat="40.33246334574977" lon="17.403979956926875"><ele>2.0</ele><time>2026-03-29T09:56:44Z</time></trkpt><trkpt lat="40.332462860569436" lon="17.40412945188625"><ele>2.0</ele><time>2026-03-29T09:56:45Z</time></trkpt><trkpt lat="40.332469895473764" lon="17.404294135623445"><ele>2.25</ele><time>2026-03-29T09:56:46Z</time></trkpt><trkpt lat="40.33247873861351" lon="17.404481436555432"><ele>2.5</ele><time>2026-03-29T09:56:47Z</time></trkpt><trkpt lat="40.33248800316292" lon="17.40465767692536"><ele>2.75</ele><time>2026-03-29T09:56:48Z</time></trkpt><trkpt lat="40.33249633631554" lon="17.40481619917174"><ele>3.0</ele><time>2026-03-29T09:56:49Z</time></trkpt><trkpt lat="40.33250565487465" lon="17.404993466788344"><ele>3.0</ele><time>2026-03-29T09:56:50Z</time></trkpt><trkpt lat="40.33251626199006" lon="17.40519524678164"><ele>3.0</ele><time>2026-03-29T09:56:51Z</time></trkpt><trkpt lat="40.33252715163399" lon="17.405402401440973"><ele>3.0</ele><time>2026-03-29T09:56:52Z</time></trkpt><trkpt lat="40.33253786321851" lon="17.405606168824622"><ele>3.0</ele><time>2026-03-29T09:56:53Z</time></trkpt><trkpt lat="40.332548082053094" lon="17.405800562464375"><ele>3.0</ele><time>2026-03-29T09:56:54Z</time></trkpt><trkpt lat="40.332558470717544" lon="17.40599818697773"><ele>3.0</ele><time>2026-03-29T09:56:55Z</time></trkpt><trkpt lat="40.33256954676105" lon="17.406208887482496"><ele>3.333333333333333</ele><time>2026-03-29T09:56:56Z</time></trkpt><trkpt lat="40.332581011551554" lon="17.406426983097987"><ele>3.6666666666666665</ele><time>2026-03-29T09:56:57Z</time></trkpt><trkpt lat="40.33259364512347" lon="17.4066577599206"><ele>4.0</ele><time>2026-03-29T09:56:58Z</time></trkpt><trkpt lat="40.33260592855268" lon="17.406874331985343"><ele>4.0</ele><time>2026-03-29T09:56:59Z</time></trkpt><trkpt lat="40.332616719283074" lon="17.407064585878796"><ele>4.0</ele><time>2026-03-29T09:57:00Z</time></trkpt><trkpt lat="40.33262765877265" lon="17.40725746258144"><ele>4.0</ele><time>2026-03-29T09:57:01Z</time></trkpt><trkpt lat="40.332638793482474" lon="17.40745486032414"><ele>4.0</ele><time>2026-03-29T09:57:02Z</time></trkpt><trkpt lat="40.332649095745126" lon="17.40763838329089"><ele>4.0</ele><time>2026-03-29T09:57:03Z</time></trkpt><trkpt lat="40.33265882586307" lon="17.4078117142187"><ele>4.0</ele><time>2026-03-29T09:57:04Z</time></trkpt><trkpt lat="40.33266897278075" lon="17.40799246993998"><ele>4.0</ele><time>2026-03-29T09:57:05Z</time></trkpt><trkpt lat="40.33267889115921" lon="17.40816915447848"><ele>4.0</ele><time>2026-03-29T09:57:06Z</time></trkpt><trkpt lat="40.33268831328597" lon="17.40833699885726"><ele>4.0</ele><time>2026-03-29T09:57:07Z</time></trkpt><trkpt lat="40.33269708526812" lon="17.40849326164369"><ele>4.0</ele><time>2026-03-29T09:57:08Z</time></trkpt><trkpt lat="40.33270681421193" lon="17.4086665715943"><ele>4.0</ele><time>2026-03-29T09:57:09Z</time></trkpt><trkpt lat="40.332717221789444" lon="17.40885197072533"><ele>4.0</ele><time>2026-03-29T09:57:10Z</time></trkpt><trkpt lat="40.33272662282495" lon="17.409019439328866"><ele>4.25</ele><time>2026-03-29T09:57:11Z</time></trkpt><trkpt lat="40.332735908346926" lon="17.409184850247474"><ele>4.5</ele><time>2026-03-29T09:57:12Z</time></trkpt><trkpt lat="40.33274539166867" lon="17.409353784829566"><ele>4.75</ele><time>2026-03-29T09:57:13Z</time></trkpt><trkpt lat="40.332755269365194" lon="17.40952859318192"><ele>5.0</ele><time>2026-03-29T09:57:14Z</time></trkpt><trkpt lat="40.33276516554378" lon="17.409703228033987"><ele>4.0</ele><time>2026-03-29T09:57:15Z</time></trkpt><trkpt lat="40.33277527963907" lon="17.409878193203355"><ele>3.0</ele><time>2026-03-29T09:57:16Z</time></trkpt><trkpt lat="40.33278562100984" lon="17.410058010528086"><ele>2.0</ele><time>2026-03-29T09:57:17Z</time></trkpt><trkpt lat="40.332796084431905" lon="17.410239950067766"><ele>1.0</ele><time>2026-03-29T09:57:18Z</time></trkpt><trkpt lat="40.33280665435923" lon="17.41042374153102"><ele>1.0</ele><time>2026-03-29T09:57:19Z</time></trkpt><trkpt lat="40.33281714114673" lon="17.410606087332386"><ele>1.0</ele><time>2026-03-29T09:57:20Z</time></trkpt><trkpt lat="40.3328277885283" lon="17.410791225612442"><ele>1.0</ele><time>2026-03-29T09:57:21Z</time></trkpt><trkpt lat="40.332837979994515" lon="17.410971538008912"><ele>1.0</ele><time>2026-03-29T09:57:22Z</time></trkpt><trkpt lat="40.332847717635104" lon="17.411144291878188"><ele>1.0</ele><time>2026-03-29T09:57:23Z</time></trkpt><trkpt lat="40.33285651790602" lon="17.411300415992766"><ele>1.0</ele><time>2026-03-29T09:57:24Z</time></trkpt><trkpt lat="40.33286588292795" lon="17.41146655928534"><ele>1.0</ele><time>2026-03-29T09:57:25Z</time></trkpt><trkpt lat="40.33288634000004" lon="17.411827729757686"><ele>0.6666666666666666</ele><time>2026-03-29T09:57:27Z</time></trkpt><trkpt lat="40.332897071980184" lon="17.412016965351174"><ele>0.3333333333333333</ele><time>2026-03-29T09:57:28Z</time></trkpt><trkpt lat="40.33290875753704" lon="17.412223050418913"><ele>0.0</ele><time>2026-03-29T09:57:29Z</time></trkpt><trkpt lat="40.33292039797793" lon="17.412433350379775"><ele>1.0</ele><time>2026-03-29T09:57:30.001Z</time></trkpt><trkpt lat="40.33293185631631" lon="17.41264316838103"><ele>2.0</ele><time>2026-03-29T09:57:31.001Z</time></trkpt><trkpt lat="40.33294254901043" lon="17.412838966312922"><ele>3.0</ele><time>2026-03-29T09:57:32.001Z</time></trkpt><trkpt lat="40.33295267005209" lon="17.413024296507988"><ele>3.0</ele><time>2026-03-29T09:57:33.001Z</time></trkpt><trkpt lat="40.3329632385378" lon="17.413218575113433"><ele>3.0</ele><time>2026-03-29T09:57:34.001Z</time></trkpt><trkpt lat="40.332972522705255" lon="17.413413787578612"><ele>3.0</ele><time>2026-03-29T09:57:35.001Z</time></trkpt><trkpt lat="40.33298197863637" lon="17.41360817933683"><ele>3.0</ele><time>2026-03-29T09:57:36.001Z</time></trkpt><trkpt lat="40.33299177924454" lon="17.41381104433199"><ele>2.5</ele><time>2026-03-29T09:57:37.001Z</time></trkpt><trkpt lat="40.33300114160411" lon="17.414019675167133"><ele>2.0</ele><time>2026-03-29T09:57:38.001Z</time></trkpt><trkpt lat="40.333008392445876" lon="17.4142170118248"><ele>1.5</ele><time>2026-03-29T09:57:39.001Z</time></trkpt><trkpt lat="40.33301312500396" lon="17.41439712905144"><ele>1.0</ele><time>2026-03-29T09:57:40.001Z</time></trkpt><trkpt lat="40.333016942686555" lon="17.414613339742886"><ele>0.6666666666666666</ele><time>2026-03-29T09:57:41.001Z</time></trkpt><trkpt lat="40.333021058556284" lon="17.41484643788222"><ele>0.3333333333333333</ele><time>2026-03-29T09:57:42.001Z</time></trkpt><trkpt lat="40.3330254021624" lon="17.41509243373397"><ele>0.0</ele><time>2026-03-29T09:57:43.001Z</time></trkpt><trkpt lat="40.33302937393837" lon="17.41534390969273"><ele>0.0</ele><time>2026-03-29T09:57:44.001Z</time></trkpt><trkpt lat="40.33303242064751" lon="17.415603260762403"><ele>0.0</ele><time>2026-03-29T09:57:45.001Z</time></trkpt><trkpt lat="40.333035086154354" lon="17.41583016207027"><ele>0.0</ele><time>2026-03-29T09:57:46.001Z</time></trkpt><trkpt lat="40.33307889205181" lon="17.416053199852715"><ele>0.3333333333333333</ele><time>2026-03-29T09:57:47.001Z</time></trkpt><trkpt lat="40.33307604546119" lon="17.416288007165424"><ele>0.6666666666666666</ele><time>2026-03-29T09:57:48.001Z</time></trkpt><trkpt lat="40.33306913286348" lon="17.416516508546128"><ele>1.0</ele><time>2026-03-29T09:57:49.001Z</time></trkpt><trkpt lat="40.33306595644379" lon="17.41676087161093"><ele>1.0</ele><time>2026-03-29T09:57:50.001Z</time></trkpt><trkpt lat="40.33306725159824" lon="17.417005338344847"><ele>1.0</ele><time>2026-03-29T09:57:51.001Z</time></trkpt><trkpt lat="40.33306850634626" lon="17.41724556529891"><ele>1.0</ele><time>2026-03-29T09:57:52.001Z</time></trkpt><trkpt lat="40.333072830521196" lon="17.417466623418054"><ele>1.3333333333333333</ele><time>2026-03-29T09:57:53.001Z</time></trkpt><trkpt lat="40.333076467763284" lon="17.417688458323557"><ele>1.6666666666666665</ele><time>2026-03-29T09:57:54.001Z</time></trkpt><trkpt lat="40.33305216527738" lon="17.417907196941503"><ele>2.0</ele><time>2026-03-29T09:57:55.001Z</time></trkpt><trkpt lat="40.33305359072379" lon="17.418127144146077"><ele>1.0</ele><time>2026-03-29T09:57:56.001Z</time></trkpt><trkpt lat="40.333056366417196" lon="17.41836026420346"><ele>0.0</ele><time>2026-03-29T09:57:57.001Z</time></trkpt><trkpt lat="40.3330590408555" lon="17.418614858343886"><ele>-1.0</ele><time>2026-03-29T09:57:58.001Z</time></trkpt><trkpt lat="40.33306132068492" lon="17.41883188746329"><ele>-1.0</ele><time>2026-03-29T09:57:59.001Z</time></trkpt><trkpt lat="40.33306368793914" lon="17.419057238979597"><ele>-1.0</ele><time>2026-03-29T09:58:00.001Z</time></trkpt><trkpt lat="40.333066022566676" lon="17.41927948456998"><ele>-1.0</ele><time>2026-03-29T09:58:01.001Z</time></trkpt><trkpt lat="40.333068538864026" lon="17.419519024691386"><ele>0.0</ele><time>2026-03-29T09:58:02.001Z</time></trkpt><trkpt lat="40.333071066212995" lon="17.41975961663972"><ele>1.0</ele><time>2026-03-29T09:58:03.001Z</time></trkpt><trkpt lat="40.333073293258906" lon="17.4199947231187"><ele>2.0</ele><time>2026-03-29T09:58:04.001Z</time></trkpt><trkpt lat="40.33307513947509" lon="17.420220504534154"><ele>2.0</ele><time>2026-03-29T09:58:05.001Z</time></trkpt><trkpt lat="40.33307690102803" lon="17.420435931977902"><ele>2.0</ele><time>2026-03-29T09:58:06.001Z</time></trkpt><trkpt lat="40.33309978102981" lon="17.420660031631417"><ele>2.0</ele><time>2026-03-29T09:58:07.001Z</time></trkpt><trkpt lat="40.33309835203692" lon="17.420881322804934"><ele>2.0</ele><time>2026-03-29T09:58:08.001Z</time></trkpt><trkpt lat="40.33309841829135" lon="17.421106974021015"><ele>2.0</ele><time>2026-03-29T09:58:09.001Z</time></trkpt><trkpt lat="40.33310062661639" lon="17.421329932093695"><ele>2.0</ele><time>2026-03-29T09:58:10.001Z</time></trkpt><trkpt lat="40.33310701546539" lon="17.421554132185694"><ele>2.0</ele><time>2026-03-29T09:58:11.001Z</time></trkpt><trkpt lat="40.33310985592942" lon="17.421779279623237"><ele>2.0</ele><time>2026-03-29T09:58:12.001Z</time></trkpt><trkpt lat="40.33308959056936" lon="17.422013117983848"><ele>2.0</ele><time>2026-03-29T09:58:13Z</time></trkpt><trkpt lat="40.333091317412304" lon="17.422240709427918"><ele>2.0</ele><time>2026-03-29T09:58:14Z</time></trkpt><trkpt lat="40.33309311481429" lon="17.422477868719483"><ele>2.0</ele><time>2026-03-29T09:58:15Z</time></trkpt><trkpt lat="40.33309484911836" lon="17.422706702660044"><ele>2.0</ele><time>2026-03-29T09:58:16Z</time></trkpt><trkpt lat="40.33309646433495" lon="17.422919823411576"><ele>3.0</ele><time>2026-03-29T09:58:17Z</time></trkpt><trkpt lat="40.3330980999697" lon="17.423135638305688"><ele>4.0</ele><time>2026-03-29T09:58:18Z</time></trkpt><trkpt lat="40.33309979067688" lon="17.42334911026124"><ele>5.0</ele><time>2026-03-29T09:58:19Z</time></trkpt><trkpt lat="40.33310160583097" lon="17.423565362577605"><ele>5.0</ele><time>2026-03-29T09:58:20Z</time></trkpt><trkpt lat="40.33310345603104" lon="17.42378579040436"><ele>5.0</ele><time>2026-03-29T09:58:21Z</time></trkpt><trkpt lat="40.33310546622172" lon="17.4240126169593"><ele>5.0</ele><time>2026-03-29T09:58:22Z</time></trkpt><trkpt lat="40.3331076300518" lon="17.424249741059278"><ele>5.0</ele><time>2026-03-29T09:58:23Z</time></trkpt><trkpt lat="40.33310987883544" lon="17.424478211260592"><ele>5.0</ele><time>2026-03-29T09:58:24Z</time></trkpt><trkpt lat="40.333112676026275" lon="17.42471290100806"><ele>5.0</ele><time>2026-03-29T09:58:25Z</time></trkpt><trkpt lat="40.33311512129725" lon="17.424959380732968"><ele>4.333333333333334</ele><time>2026-03-29T09:58:26Z</time></trkpt><trkpt lat="40.333117408796156" lon="17.42520439720905"><ele>3.666666666666667</ele><time>2026-03-29T09:58:27Z</time></trkpt><trkpt lat="40.333144279219965" lon="17.425441916276053"><ele>3.0</ele><time>2026-03-29T09:58:28Z</time></trkpt><trkpt lat="40.33314354047498" lon="17.425673568413576"><ele>3.0</ele><time>2026-03-29T09:58:29Z</time></trkpt><trkpt lat="40.33314156995706" lon="17.425899198579284"><ele>3.0</ele><time>2026-03-29T09:58:30Z</time></trkpt><trkpt lat="40.33314190255817" lon="17.42613168916741"><ele>3.0</ele><time>2026-03-29T09:58:31Z</time></trkpt><trkpt lat="40.33314363202232" lon="17.4263591640214"><ele>4.0</ele><time>2026-03-29T09:58:32.001Z</time></trkpt><trkpt lat="40.33312741815757" lon="17.42658024121344"><ele>5.0</ele><time>2026-03-29T09:58:33.001Z</time></trkpt><trkpt lat="40.33312562288558" lon="17.42679603039824"><ele>6.0</ele><time>2026-03-29T09:58:34.001Z</time></trkpt><trkpt lat="40.33311676985363" lon="17.427011846523353"><ele>6.333333333333334</ele><time>2026-03-29T09:58:35.001Z</time></trkpt><trkpt lat="40.3330999915751" lon="17.427235252558546"><ele>6.666666666666667</ele><time>2026-03-29T09:58:36.001Z</time></trkpt><trkpt lat="40.333073276347086" lon="17.427456077638052"><ele>7.0</ele><time>2026-03-29T09:58:37.001Z</time></trkpt><trkpt lat="40.333034827783884" lon="17.4276728887452"><ele>5.333333333333334</ele><time>2026-03-29T09:58:38.001Z</time></trkpt><trkpt lat="40.33298427340051" lon="17.427898216575276"><ele>3.666666666666667</ele><time>2026-03-29T09:58:39.001Z</time></trkpt><trkpt lat="40.33292528899307" lon="17.42812429634489"><ele>2.0</ele><time>2026-03-29T09:58:40.001Z</time></trkpt><trkpt lat="40.33285888516214" lon="17.428347659747768"><ele>2.0</ele><time>2026-03-29T09:58:41.001Z</time></trkpt><trkpt lat="40.33279062119441" lon="17.428569635416277"><ele>2.0</ele><time>2026-03-29T09:58:42.001Z</time></trkpt><trkpt lat="40.332722374106446" lon="17.428791556138492"><ele>2.0</ele><time>2026-03-29T09:58:43.001Z</time></trkpt><trkpt lat="40.33265496117399" lon="17.429010764544326"><ele>2.5</ele><time>2026-03-29T09:58:44.001Z</time></trkpt><trkpt lat="40.33259838799688" lon="17.429194724982448"><ele>3.0</ele><time>2026-03-29T09:58:45.001Z</time></trkpt><trkpt lat="40.3325473825663" lon="17.42936067252363"><ele>3.5</ele><time>2026-03-29T09:58:46.001Z</time></trkpt><trkpt lat="40.33249901324837" lon="17.429518872513526"><ele>4.0</ele><time>2026-03-29T09:58:47.001Z</time></trkpt><trkpt lat="40.332445099307634" lon="17.4296952070994"><ele>4.0</ele><time>2026-03-29T09:58:48.001Z</time></trkpt><trkpt lat="40.332387562430526" lon="17.429883391130584"><ele>4.0</ele><time>2026-03-29T09:58:49.001Z</time></trkpt><trkpt lat="40.332325402289555" lon="17.43008669633753"><ele>4.0</ele><time>2026-03-29T09:58:50.001Z</time></trkpt><trkpt lat="40.3322618314865" lon="17.430295255070412"><ele>2.6666666666666665</ele><time>2026-03-29T09:58:51.001Z</time></trkpt><trkpt lat="40.33219796426518" lon="17.43050574603027"><ele>1.3333333333333333</ele><time>2026-03-29T09:58:52.001Z</time></trkpt><trkpt lat="40.332132928309015" lon="17.430720089115837"><ele>0.0</ele><time>2026-03-29T09:58:53.001Z</time></trkpt><trkpt lat="40.33206673768085" lon="17.430938237669306"><ele>0.0</ele><time>2026-03-29T09:58:54.001Z</time></trkpt><trkpt lat="40.33200242877338" lon="17.4311523048477"><ele>0.0</ele><time>2026-03-29T09:58:55.001Z</time></trkpt><trkpt lat="40.33193962891564" lon="17.431361389314052"><ele>0.0</ele><time>2026-03-29T09:58:56.001Z</time></trkpt><trkpt lat="40.33188023557261" lon="17.431559132165102"><ele>0.3333333333333333</ele><time>2026-03-29T09:58:57.001Z</time></trkpt><trkpt lat="40.331823595573304" lon="17.431749759791487"><ele>0.6666666666666666</ele><time>2026-03-29T09:58:58.001Z</time></trkpt><trkpt lat="40.331768706101194" lon="17.43193611976297"><ele>1.0</ele><time>2026-03-29T09:58:59.001Z</time></trkpt><trkpt lat="40.331715368970144" lon="17.432118276262884"><ele>1.0</ele><time>2026-03-29T09:59:00.001Z</time></trkpt><trkpt lat="40.33166561553632" lon="17.432292229055726"><ele>1.0</ele><time>2026-03-29T09:59:01.001Z</time></trkpt><trkpt lat="40.331628013352415" lon="17.43247962311089"><ele>1.0</ele><time>2026-03-29T09:59:02.001Z</time></trkpt><trkpt lat="40.33157790812696" lon="17.432658608703797"><ele>1.0</ele><time>2026-03-29T09:59:03.001Z</time></trkpt><trkpt lat="40.331523623767104" lon="17.432841210289485"><ele>1.0</ele><time>2026-03-29T09:59:04.001Z</time></trkpt><trkpt lat="40.33147130437966" lon="17.433034826276042"><ele>1.0</ele><time>2026-03-29T09:59:05.001Z</time></trkpt><trkpt lat="40.331421626811945" lon="17.43322984016483"><ele>1.0</ele><time>2026-03-29T09:59:06.001Z</time></trkpt><trkpt lat="40.33136987055211" lon="17.433437945310192"><ele>1.0</ele><time>2026-03-29T09:59:07.001Z</time></trkpt><trkpt lat="40.33131891764897" lon="17.433637846488516"><ele>1.0</ele><time>2026-03-29T09:59:08.001Z</time></trkpt><trkpt lat="40.331271464672895" lon="17.43383367680043"><ele>1.0</ele><time>2026-03-29T09:59:09.001Z</time></trkpt><trkpt lat="40.33122392391496" lon="17.434026953167372"><ele>1.0</ele><time>2026-03-29T09:59:10.001Z</time></trkpt><trkpt lat="40.33118111636151" lon="17.43421407021946"><ele>1.0</ele><time>2026-03-29T09:59:11.001Z</time></trkpt><trkpt lat="40.33114598036282" lon="17.43440174159374"><ele>1.0</ele><time>2026-03-29T09:59:12.001Z</time></trkpt><trkpt lat="40.331114679023734" lon="17.43459110274327"><ele>1.0</ele><time>2026-03-29T09:59:13.001Z</time></trkpt><trkpt lat="40.331092360475104" lon="17.434786310942282"><ele>1.25</ele><time>2026-03-29T09:59:14.001Z</time></trkpt><trkpt lat="40.3310751714203" lon="17.43498686684484"><ele>1.5</ele><time>2026-03-29T09:59:15.001Z</time></trkpt><trkpt lat="40.33105649805697" lon="17.435180885262266"><ele>1.75</ele><time>2026-03-29T09:59:16.001Z</time></trkpt><trkpt lat="40.331045641261156" lon="17.43534140992453"><ele>2.0</ele><time>2026-03-29T09:59:17.001Z</time></trkpt><trkpt lat="40.33103885092573" lon="17.435487724277525"><ele>2.5</ele><time>2026-03-29T09:59:18.001Z</time></trkpt><trkpt lat="40.33103743385947" lon="17.435641245888398"><ele>3.0</ele><time>2026-03-29T09:59:19.001Z</time></trkpt><trkpt lat="40.33103969421454" lon="17.43580275914743"><ele>3.5</ele><time>2026-03-29T09:59:20.001Z</time></trkpt><trkpt lat="40.33104975691756" lon="17.435974370619434"><ele>4.0</ele><time>2026-03-29T09:59:21.001Z</time></trkpt><trkpt lat="40.33106576988986" lon="17.436154241136915"><ele>4.0</ele><time>2026-03-29T09:59:22.001Z</time></trkpt><trkpt lat="40.3310871198899" lon="17.436342499915114"><ele>4.0</ele><time>2026-03-29T09:59:23.001Z</time></trkpt><trkpt lat="40.33111002511036" lon="17.436540013727704"><ele>4.0</ele><time>2026-03-29T09:59:24.001Z</time></trkpt><trkpt lat="40.331129379994834" lon="17.436744609101865"><ele>4.0</ele><time>2026-03-29T09:59:25.001Z</time></trkpt><trkpt lat="40.3311489738668" lon="17.436952811150817"><ele>4.0</ele><time>2026-03-29T09:59:26.001Z</time></trkpt><trkpt lat="40.33116680737607" lon="17.43715032719017"><ele>4.0</ele><time>2026-03-29T09:59:27.001Z</time></trkpt><trkpt lat="40.331189201360424" lon="17.43736136696137"><ele>3.333333333333333</ele><time>2026-03-29T09:59:28.001Z</time></trkpt><trkpt lat="40.331223039436296" lon="17.437569805583028"><ele>2.6666666666666665</ele><time>2026-03-29T09:59:29.001Z</time></trkpt><trkpt lat="40.33122457815254" lon="17.43771684766895"><ele>2.0</ele><time>2026-03-29T09:59:30.001Z</time></trkpt><trkpt lat="40.331248644441516" lon="17.437968603801167"><ele>2.0</ele><time>2026-03-29T09:59:31.001Z</time></trkpt><trkpt lat="40.33126527526896" lon="17.438189539282494"><ele>2.0</ele><time>2026-03-29T09:59:32.001Z</time></trkpt><trkpt lat="40.331268105523634" lon="17.438403676556717"><ele>2.0</ele><time>2026-03-29T09:59:33.001Z</time></trkpt><trkpt lat="40.33125878687873" lon="17.438605793389772"><ele>1.6666666666666665</ele><time>2026-03-29T09:59:34.001Z</time></trkpt><trkpt lat="40.33123359041706" lon="17.438804480494657"><ele>1.3333333333333333</ele><time>2026-03-29T09:59:35.001Z</time></trkpt><trkpt lat="40.33119853892856" lon="17.438995314281804"><ele>1.0</ele><time>2026-03-29T09:59:36.001Z</time></trkpt><trkpt lat="40.331150440835664" lon="17.439188400842152"><ele>1.0</ele><time>2026-03-29T09:59:37.001Z</time></trkpt><trkpt lat="40.3310932204516" lon="17.43939274686785"><ele>1.0</ele><time>2026-03-29T09:59:38.001Z</time></trkpt><trkpt lat="40.331033039656795" lon="17.43960167612714"><ele>1.0</ele><time>2026-03-29T09:59:39.001Z</time></trkpt><trkpt lat="40.33097222975408" lon="17.4398021734082"><ele>0.6666666666666666</ele><time>2026-03-29T09:59:40.001Z</time></trkpt><trkpt lat="40.33090545575506" lon="17.440003758945874"><ele>0.3333333333333333</ele><time>2026-03-29T09:59:41.002Z</time></trkpt><trkpt lat="40.33083575679474" lon="17.440216423229433"><ele>0.0</ele><time>2026-03-29T09:59:42.002Z</time></trkpt><trkpt lat="40.33077077347512" lon="17.44042958361644"><ele>0.6666666666666666</ele><time>2026-03-29T09:59:43.002Z</time></trkpt><trkpt lat="40.330720518142414" lon="17.440656566664696"><ele>1.3333333333333333</ele><time>2026-03-29T09:59:44.002Z</time></trkpt><trkpt lat="40.330657066837375" lon="17.440872251394058"><ele>2.0</ele><time>2026-03-29T09:59:45.002Z</time></trkpt><trkpt lat="40.330603204088916" lon="17.441078123223384"><ele>1.3333333333333333</ele><time>2026-03-29T09:59:46.002Z</time></trkpt><trkpt lat="40.33054079200739" lon="17.441271957514573"><ele>0.6666666666666666</ele><time>2026-03-29T09:59:47.002Z</time></trkpt><trkpt lat="40.33050740119178" lon="17.441479281154233"><ele>0.0</ele><time>2026-03-29T09:59:48.002Z</time></trkpt><trkpt lat="40.330458994717276" lon="17.441673646108732"><ele>0.0</ele><time>2026-03-29T09:59:49.002Z</time></trkpt><trkpt lat="40.330413694076775" lon="17.441870420912203"><ele>0.0</ele><time>2026-03-29T09:59:50.002Z</time></trkpt><trkpt lat="40.33036299294467" lon="17.442080689706696"><ele>0.0</ele><time>2026-03-29T09:59:51.002Z</time></trkpt><trkpt lat="40.330317765448505" lon="17.442293130063494"><ele>0.3333333333333333</ele><time>2026-03-29T09:59:52.002Z</time></trkpt><trkpt lat="40.33027204302832" lon="17.44250529803601"><ele>0.6666666666666666</ele><time>2026-03-29T09:59:53.002Z</time></trkpt><trkpt lat="40.33020920413514" lon="17.442724524957573"><ele>1.0</ele><time>2026-03-29T09:59:54.002Z</time></trkpt><trkpt lat="40.330158541979124" lon="17.442950346838526"><ele>1.6666666666666665</ele><time>2026-03-29T09:59:55.002Z</time></trkpt><trkpt lat="40.330109070694036" lon="17.443171857507735"><ele>2.3333333333333335</ele><time>2026-03-29T09:59:56.002Z</time></trkpt><trkpt lat="40.33007620245896" lon="17.443394049404898"><ele>3.0</ele><time>2026-03-29T09:59:57.002Z</time></trkpt><trkpt lat="40.330014926357855" lon="17.443593641487404"><ele>3.0</ele><time>2026-03-29T09:59:58.002Z</time></trkpt><trkpt lat="40.32997027407463" lon="17.44379492320424"><ele>3.0</ele><time>2026-03-29T09:59:59.002Z</time></trkpt><trkpt lat="40.32992659508051" lon="17.443992060352155"><ele>3.0</ele><time>2026-03-29T10:00:00.002Z</time></trkpt><trkpt lat="40.32988393060656" lon="17.44418461778759"><ele>3.333333333333333</ele><time>2026-03-29T10:00:01.002Z</time></trkpt><trkpt lat="40.32985646768562" lon="17.44437773448319"><ele>3.6666666666666665</ele><time>2026-03-29T10:00:02.002Z</time></trkpt><trkpt lat="40.329806576219625" lon="17.444571335860413"><ele>4.0</ele><time>2026-03-29T10:00:03.002Z</time></trkpt><trkpt lat="40.32975162879228" lon="17.44477852295375"><ele>5.333333333333333</ele><time>2026-03-29T10:00:04.002Z</time></trkpt><trkpt lat="40.32969609519426" lon="17.444984391363132"><ele>6.666666666666666</ele><time>2026-03-29T10:00:05.002Z</time></trkpt><trkpt lat="40.329634679293484" lon="17.445184584303586"><ele>8.0</ele><time>2026-03-29T10:00:06.002Z</time></trkpt><trkpt lat="40.32956441561786" lon="17.445382277956945"><ele>8.0</ele><time>2026-03-29T10:00:07.002Z</time></trkpt><trkpt lat="40.329501912088496" lon="17.445575231130906"><ele>8.0</ele><time>2026-03-29T10:00:08.002Z</time></trkpt><trkpt lat="40.32943766309541" lon="17.4457600684418"><ele>8.0</ele><time>2026-03-29T10:00:09.002Z</time></trkpt><trkpt lat="40.3293495302266" lon="17.445941035409767"><ele>8.0</ele><time>2026-03-29T10:00:10.002Z</time></trkpt><trkpt lat="40.3292846460591" lon="17.446157087465146"><ele>8.0</ele><time>2026-03-29T10:00:11.002Z</time></trkpt><trkpt lat="40.329199418744764" lon="17.44636712819929"><ele>8.0</ele><time>2026-03-29T10:00:12.002Z</time></trkpt><trkpt lat="40.3291151700263" lon="17.446568261850334"><ele>8.333333333333332</ele><time>2026-03-29T10:00:13.002Z</time></trkpt><trkpt lat="40.32903565900112" lon="17.446765198988984"><ele>8.666666666666666</ele><time>2026-03-29T10:00:14.002Z</time></trkpt><trkpt lat="40.32895828990482" lon="17.446957587112223"><ele>9.0</ele><time>2026-03-29T10:00:15.002Z</time></trkpt><trkpt lat="40.32888624791883" lon="17.447143250299842"><ele>7.666666666666667</ele><time>2026-03-29T10:00:16.002Z</time></trkpt><trkpt lat="40.32881775026701" lon="17.447324371708316"><ele>6.333333333333334</ele><time>2026-03-29T10:00:17.002Z</time></trkpt><trkpt lat="40.328722452500294" lon="17.44751647556825"><ele>5.0</ele><time>2026-03-29T10:00:18.002Z</time></trkpt><trkpt lat="40.32864987335463" lon="17.447697789199125"><ele>5.0</ele><time>2026-03-29T10:00:19.003Z</time></trkpt><trkpt lat="40.328575758203726" lon="17.44788356504299"><ele>5.0</ele><time>2026-03-29T10:00:20.003Z</time></trkpt><trkpt lat="40.3285199678327" lon="17.448054931780366"><ele>5.0</ele><time>2026-03-29T10:00:21.003Z</time></trkpt><trkpt lat="40.32844216394344" lon="17.448248951489575"><ele>5.5</ele><time>2026-03-29T10:00:22.003Z</time></trkpt><trkpt lat="40.32837629522075" lon="17.448411122858918"><ele>6.0</ele><time>2026-03-29T10:00:23.003Z</time></trkpt><trkpt lat="40.32831506733507" lon="17.44856016225098"><ele>6.5</ele><time>2026-03-29T10:00:24.003Z</time></trkpt><trkpt lat="40.328254296283774" lon="17.44872244165823"><ele>7.0</ele><time>2026-03-29T10:00:25.003Z</time></trkpt><trkpt lat="40.32818859166325" lon="17.4488979255227"><ele>7.0</ele><time>2026-03-29T10:00:26.003Z</time></trkpt><trkpt lat="40.328111755956186" lon="17.44908425950295"><ele>7.0</ele><time>2026-03-29T10:00:27.003Z</time></trkpt><trkpt lat="40.328034713429524" lon="17.449282650706245"><ele>7.0</ele><time>2026-03-29T10:00:28.003Z</time></trkpt><trkpt lat="40.32782039746068" lon="17.449783069624306"><ele>5.75</ele><time>2026-03-29T10:00:31.002Z</time></trkpt><trkpt lat="40.32776320154638" lon="17.44992815336317"><ele>4.5</ele><time>2026-03-29T10:00:32.002Z</time></trkpt><trkpt lat="40.32770430061309" lon="17.450077030579436"><ele>3.25</ele><time>2026-03-29T10:00:33.002Z</time></trkpt><trkpt lat="40.32764112065931" lon="17.45023754773442"><ele>2.0</ele><time>2026-03-29T10:00:34.002Z</time></trkpt><trkpt lat="40.32757164706567" lon="17.450414054879456"><ele>2.333333333333333</ele><time>2026-03-29T10:00:35.002Z</time></trkpt><trkpt lat="40.32750154128692" lon="17.45059722392591"><ele>2.6666666666666665</ele><time>2026-03-29T10:00:36.002Z</time></trkpt><trkpt lat="40.32742660474082" lon="17.45077042602373"><ele>3.0</ele><time>2026-03-29T10:00:37.002Z</time></trkpt><trkpt lat="40.32734219873014" lon="17.450931531669855"><ele>3.0</ele><time>2026-03-29T10:00:38.002Z</time></trkpt><trkpt lat="40.32724118961595" lon="17.45108686504349"><ele>3.0</ele><time>2026-03-29T10:00:39.002Z</time></trkpt><trkpt lat="40.327126619527796" lon="17.451232777978007"><ele>3.0</ele><time>2026-03-29T10:00:40.002Z</time></trkpt><trkpt lat="40.32700398113675" lon="17.451360838285478"><ele>3.333333333333333</ele><time>2026-03-29T10:00:41.002Z</time></trkpt><trkpt lat="40.326861926831505" lon="17.451487303851657"><ele>3.6666666666666665</ele><time>2026-03-29T10:00:42.002Z</time></trkpt><trkpt lat="40.32672014420727" lon="17.45162677564508"><ele>4.0</ele><time>2026-03-29T10:00:43.002Z</time></trkpt><trkpt lat="40.326576881652954" lon="17.451733998519508"><ele>4.0</ele><time>2026-03-29T10:00:44.002Z</time></trkpt><trkpt lat="40.32645014292229" lon="17.45183643985858"><ele>4.0</ele><time>2026-03-29T10:00:45.002Z</time></trkpt><trkpt lat="40.32632536227365" lon="17.45193709031127"><ele>4.0</ele><time>2026-03-29T10:00:46.002Z</time></trkpt><trkpt lat="40.326184272553455" lon="17.45204644200598"><ele>3.333333333333333</ele><time>2026-03-29T10:00:47.002Z</time></trkpt><trkpt lat="40.32602997486454" lon="17.452144005160193"><ele>2.6666666666666665</ele><time>2026-03-29T10:00:48.002Z</time></trkpt><trkpt lat="40.325890114442224" lon="17.45224902810333"><ele>2.0</ele><time>2026-03-29T10:00:49.002Z</time></trkpt><trkpt lat="40.32576383055407" lon="17.452343856574903"><ele>2.0</ele><time>2026-03-29T10:00:50.002Z</time></trkpt><trkpt lat="40.32563643946048" lon="17.452445045218404"><ele>2.0</ele><time>2026-03-29T10:00:51.002Z</time></trkpt><trkpt lat="40.325490878305274" lon="17.452558509482596"><ele>2.0</ele><time>2026-03-29T10:00:52.002Z</time></trkpt><trkpt lat="40.32535476313124" lon="17.452660924380503"><ele>2.0</ele><time>2026-03-29T10:00:53.002Z</time></trkpt><trkpt lat="40.32523295402965" lon="17.452751160260846"><ele>2.0</ele><time>2026-03-29T10:00:54.002Z</time></trkpt><trkpt lat="40.32511712661046" lon="17.45286668177598"><ele>2.0</ele><time>2026-03-29T10:00:55.002Z</time></trkpt><trkpt lat="40.324988829028094" lon="17.452963234749525"><ele>2.0</ele><time>2026-03-29T10:00:56.002Z</time></trkpt><trkpt lat="40.324844176127456" lon="17.453042177792153"><ele>1.5</ele><time>2026-03-29T10:00:57.002Z</time></trkpt><trkpt lat="40.32470734047671" lon="17.453123227490376"><ele>1.0</ele><time>2026-03-29T10:00:58.002Z</time></trkpt><trkpt lat="40.32458421303345" lon="17.453190175541092"><ele>0.5</ele><time>2026-03-29T10:00:59.002Z</time></trkpt><trkpt lat="40.32445352620083" lon="17.453242369329224"><ele>0.0</ele><time>2026-03-29T10:01:00.002Z</time></trkpt><trkpt lat="40.324317673686565" lon="17.45327987467116"><ele>0.0</ele><time>2026-03-29T10:01:01.002Z</time></trkpt><trkpt lat="40.32416119411971" lon="17.453303126750463"><ele>0.0</ele><time>2026-03-29T10:01:02.002Z</time></trkpt><trkpt lat="40.32400108796987" lon="17.453307884709435"><ele>0.0</ele><time>2026-03-29T10:01:03.002Z</time></trkpt><trkpt lat="40.32383259919443" lon="17.453307632122435"><ele>0.0</ele><time>2026-03-29T10:01:04.002Z</time></trkpt><trkpt lat="40.3236637931768" lon="17.453308768264165"><ele>0.0</ele><time>2026-03-29T10:01:05.002Z</time></trkpt><trkpt lat="40.323496713910814" lon="17.453329509559392"><ele>0.0</ele><time>2026-03-29T10:01:06.002Z</time></trkpt><trkpt lat="40.32332715442346" lon="17.453312175797695"><ele>0.0</ele><time>2026-03-29T10:01:07.002Z</time></trkpt><trkpt lat="40.32316613135567" lon="17.453316302003586"><ele>0.0</ele><time>2026-03-29T10:01:08.002Z</time></trkpt><trkpt lat="40.322991068026155" lon="17.45332772500494"><ele>0.0</ele><time>2026-03-29T10:01:09.002Z</time></trkpt><trkpt lat="40.322806646429775" lon="17.453349258424304"><ele>0.0</ele><time>2026-03-29T10:01:10.002Z</time></trkpt><trkpt lat="40.32263829665464" lon="17.45339191318623"><ele>0.0</ele><time>2026-03-29T10:01:11.002Z</time></trkpt><trkpt lat="40.32248979469907" lon="17.4534811932218"><ele>0.0</ele><time>2026-03-29T10:01:12.002Z</time></trkpt><trkpt lat="40.32232301984584" lon="17.453578970880596"><ele>0.0</ele><time>2026-03-29T10:01:13.002Z</time></trkpt><trkpt lat="40.3221683919749" lon="17.45371067338274"><ele>0.0</ele><time>2026-03-29T10:01:14.002Z</time></trkpt><trkpt lat="40.32200004645123" lon="17.453832930323244"><ele>0.0</ele><time>2026-03-29T10:01:15.002Z</time></trkpt><trkpt lat="40.321831498523494" lon="17.45398293564314"><ele>0.0</ele><time>2026-03-29T10:01:16.002Z</time></trkpt><trkpt lat="40.32165160664621" lon="17.45414066917554"><ele>0.0</ele><time>2026-03-29T10:01:17.002Z</time></trkpt><trkpt lat="40.32147895774485" lon="17.454292383203125"><ele>0.0</ele><time>2026-03-29T10:01:18.002Z</time></trkpt><trkpt lat="40.32131584393269" lon="17.454434002881374"><ele>0.0</ele><time>2026-03-29T10:01:19.002Z</time></trkpt><trkpt lat="40.32113917521441" lon="17.454589463617346"><ele>0.0</ele><time>2026-03-29T10:01:20.002Z</time></trkpt><trkpt lat="40.320957921297676" lon="17.454749420092288"><ele>0.0</ele><time>2026-03-29T10:01:21.002Z</time></trkpt><trkpt lat="40.32078596238534" lon="17.454901173627107"><ele>0.0</ele><time>2026-03-29T10:01:22.002Z</time></trkpt><trkpt lat="40.320628178721385" lon="17.45504041770779"><ele>0.0</ele><time>2026-03-29T10:01:23.002Z</time></trkpt><trkpt lat="40.32047739179788" lon="17.455173895007846"><ele>0.0</ele><time>2026-03-29T10:01:24.002Z</time></trkpt><trkpt lat="40.320321345777025" lon="17.455312502769985"><ele>0.3333333333333333</ele><time>2026-03-29T10:01:25.002Z</time></trkpt><trkpt lat="40.320159221492965" lon="17.45545752280082"><ele>0.6666666666666666</ele><time>2026-03-29T10:01:26.002Z</time></trkpt><trkpt lat="40.31999161502281" lon="17.45561006679906"><ele>1.0</ele><time>2026-03-29T10:01:27.002Z</time></trkpt><trkpt lat="40.31982031642938" lon="17.455771773670065"><ele>0.6666666666666666</ele><time>2026-03-29T10:01:28.002Z</time></trkpt><trkpt lat="40.31965346414683" lon="17.45593612288046"><ele>0.3333333333333333</ele><time>2026-03-29T10:01:29.002Z</time></trkpt><trkpt lat="40.31948259634389" lon="17.456111454053318"><ele>0.0</ele><time>2026-03-29T10:01:30.002Z</time></trkpt><trkpt lat="40.319321664630756" lon="17.45627936414536"><ele>0.0</ele><time>2026-03-29T10:01:31.002Z</time></trkpt><trkpt lat="40.31916726762829" lon="17.456442018806218"><ele>0.0</ele><time>2026-03-29T10:01:32.002Z</time></trkpt><trkpt lat="40.319009614946275" lon="17.456609345401155"><ele>0.0</ele><time>2026-03-29T10:01:33.002Z</time></trkpt><trkpt lat="40.31885575906011" lon="17.45677410745776"><ele>0.0</ele><time>2026-03-29T10:01:34.002Z</time></trkpt><trkpt lat="40.3187027102412" lon="17.456938430061676"><ele>0.0</ele><time>2026-03-29T10:01:35.002Z</time></trkpt><trkpt lat="40.318539447754766" lon="17.45712555059314"><ele>0.0</ele><time>2026-03-29T10:01:36.002Z</time></trkpt><trkpt lat="40.31838066405047" lon="17.45732709449593"><ele>0.0</ele><time>2026-03-29T10:01:37.002Z</time></trkpt><trkpt lat="40.31822873365982" lon="17.45752066875295"><ele>0.0</ele><time>2026-03-29T10:01:38.002Z</time></trkpt><trkpt lat="40.31808084369018" lon="17.457709095262675"><ele>0.0</ele><time>2026-03-29T10:01:39.002Z</time></trkpt><trkpt lat="40.317933868126495" lon="17.457879026480953"><ele>0.0</ele><time>2026-03-29T10:01:40.002Z</time></trkpt><trkpt lat="40.317784312391545" lon="17.458033915574347"><ele>0.0</ele><time>2026-03-29T10:01:41.002Z</time></trkpt><trkpt lat="40.317623717481275" lon="17.45816823575519"><ele>0.0</ele><time>2026-03-29T10:01:42.002Z</time></trkpt><trkpt lat="40.31744555325809" lon="17.45829005263655"><ele>0.0</ele><time>2026-03-29T10:01:43.002Z</time></trkpt><trkpt lat="40.317272245671845" lon="17.458419381885143"><ele>0.0</ele><time>2026-03-29T10:01:44.002Z</time></trkpt><trkpt lat="40.31710003644697" lon="17.45853020414695"><ele>0.0</ele><time>2026-03-29T10:01:45.002Z</time></trkpt><trkpt lat="40.31693988575652" lon="17.458662565807504"><ele>0.0</ele><time>2026-03-29T10:01:46.002Z</time></trkpt><trkpt lat="40.31679820310702" lon="17.458825625667462"><ele>0.0</ele><time>2026-03-29T10:01:47.002Z</time></trkpt><trkpt lat="40.31667049558688" lon="17.459031615177192"><ele>0.0</ele><time>2026-03-29T10:01:48.002Z</time></trkpt><trkpt lat="40.316575299407525" lon="17.459282670857394"><ele>0.0</ele><time>2026-03-29T10:01:49.002Z</time></trkpt><trkpt lat="40.31651553116848" lon="17.459570611735295"><ele>0.0</ele><time>2026-03-29T10:01:50.002Z</time></trkpt><trkpt lat="40.31648959150067" lon="17.459891306352635"><ele>0.5</ele><time>2026-03-29T10:01:51.002Z</time></trkpt><trkpt lat="40.3164685528064" lon="17.460217590885037"><ele>1.0</ele><time>2026-03-29T10:01:52.002Z</time></trkpt><trkpt lat="40.316430111749185" lon="17.460498925992525"><ele>1.0</ele><time>2026-03-29T10:01:53.002Z</time></trkpt><trkpt lat="40.316410143519576" lon="17.460756829830757"><ele>1.0</ele><time>2026-03-29T10:01:54.002Z</time></trkpt><trkpt lat="40.31640888256221" lon="17.461005773155303"><ele>1.0</ele><time>2026-03-29T10:01:55.002Z</time></trkpt><trkpt lat="40.316389677159584" lon="17.46126245523188"><ele>0.6666666666666666</ele><time>2026-03-29T10:01:56.002Z</time></trkpt><trkpt lat="40.316355230531556" lon="17.461511129999284"><ele>0.3333333333333333</ele><time>2026-03-29T10:01:57.002Z</time></trkpt><trkpt lat="40.31635082833969" lon="17.46176568585375"><ele>0.0</ele><time>2026-03-29T10:01:58.002Z</time></trkpt><trkpt lat="40.3163189794394" lon="17.46200504514762"><ele>0.0</ele><time>2026-03-29T10:01:59.002Z</time></trkpt><trkpt lat="40.31630249272561" lon="17.462242050736794"><ele>0.0</ele><time>2026-03-29T10:02:00.002Z</time></trkpt><trkpt lat="40.316304602133506" lon="17.462478377485116"><ele>0.0</ele><time>2026-03-29T10:02:01.002Z</time></trkpt><trkpt lat="40.31628816582309" lon="17.462709148058817"><ele>0.0</ele><time>2026-03-29T10:02:02.002Z</time></trkpt><trkpt lat="40.31627536257357" lon="17.46293131052127"><ele>0.0</ele><time>2026-03-29T10:02:03.002Z</time></trkpt><trkpt lat="40.31626589737779" lon="17.4631518226546"><ele>0.0</ele><time>2026-03-29T10:02:04.002Z</time></trkpt><trkpt lat="40.31626400991999" lon="17.463370561233056"><ele>0.0</ele><time>2026-03-29T10:02:05.002Z</time></trkpt><trkpt lat="40.31625873544133" lon="17.46358886313891"><ele>0.0</ele><time>2026-03-29T10:02:06.002Z</time></trkpt><trkpt lat="40.31626424221883" lon="17.463818760860875"><ele>0.0</ele><time>2026-03-29T10:02:07.002Z</time></trkpt><trkpt lat="40.31625495969804" lon="17.464035518083442"><ele>0.3333333333333333</ele><time>2026-03-29T10:02:08.002Z</time></trkpt><trkpt lat="40.316263015545275" lon="17.464262586073545"><ele>0.6666666666666666</ele><time>2026-03-29T10:02:09.002Z</time></trkpt><trkpt lat="40.31627389155226" lon="17.464496124693387"><ele>1.0</ele><time>2026-03-29T10:02:10.002Z</time></trkpt><trkpt lat="40.316274167911736" lon="17.464732651876524"><ele>1.0</ele><time>2026-03-29T10:02:11.002Z</time></trkpt><trkpt lat="40.3162650158902" lon="17.464959538414888"><ele>1.0</ele><time>2026-03-29T10:02:12.002Z</time></trkpt><trkpt lat="40.31626119200028" lon="17.465181660440113"><ele>1.0</ele><time>2026-03-29T10:02:13.002Z</time></trkpt><trkpt lat="40.31626975800313" lon="17.465398475233382"><ele>0.6666666666666666</ele><time>2026-03-29T10:02:14.002Z</time></trkpt><trkpt lat="40.31627743271682" lon="17.465610319806135"><ele>0.3333333333333333</ele><time>2026-03-29T10:02:15.002Z</time></trkpt><trkpt lat="40.316278107667394" lon="17.465827385195716"><ele>0.0</ele><time>2026-03-29T10:02:16.002Z</time></trkpt><trkpt lat="40.31626267575306" lon="17.466038251459757"><ele>0.0</ele><time>2026-03-29T10:02:17.002Z</time></trkpt><trkpt lat="40.31622717313917" lon="17.46623862765706"><ele>0.0</ele><time>2026-03-29T10:02:18.002Z</time></trkpt><trkpt lat="40.31618407192448" lon="17.46645476737652"><ele>0.0</ele><time>2026-03-29T10:02:19.002Z</time></trkpt><trkpt lat="40.31612630276946" lon="17.466656313202858"><ele>0.0</ele><time>2026-03-29T10:02:20.002Z</time></trkpt><trkpt lat="40.31605556426451" lon="17.466850688460518"><ele>0.0</ele><time>2026-03-29T10:02:21.002Z</time></trkpt><trkpt lat="40.31597112427437" lon="17.467051846981178"><ele>0.0</ele><time>2026-03-29T10:02:22.002Z</time></trkpt><trkpt lat="40.31588254605545" lon="17.4672585278216"><ele>0.0</ele><time>2026-03-29T10:02:23.002Z</time></trkpt><trkpt lat="40.31580033535971" lon="17.46746823480045"><ele>0.0</ele><time>2026-03-29T10:02:24.002Z</time></trkpt><trkpt lat="40.315713606911984" lon="17.46767641084359"><ele>0.0</ele><time>2026-03-29T10:02:25.003Z</time></trkpt><trkpt lat="40.315620898241846" lon="17.46787743598134"><ele>0.0</ele><time>2026-03-29T10:02:26.003Z</time></trkpt><trkpt lat="40.31552565155619" lon="17.468074621503202"><ele>0.0</ele><time>2026-03-29T10:02:27.003Z</time></trkpt><trkpt lat="40.31544039870161" lon="17.468259504400336"><ele>0.0</ele><time>2026-03-29T10:02:28.003Z</time></trkpt><trkpt lat="40.315355393614766" lon="17.46844127793662"><ele>0.0</ele><time>2026-03-29T10:02:29.003Z</time></trkpt><trkpt lat="40.31527424281947" lon="17.468624949129104"><ele>0.0</ele><time>2026-03-29T10:02:30.003Z</time></trkpt><trkpt lat="40.31519507575802" lon="17.46880249314828"><ele>0.0</ele><time>2026-03-29T10:02:31.003Z</time></trkpt><trkpt lat="40.31511709996087" lon="17.468971930606564"><ele>0.25</ele><time>2026-03-29T10:02:32.003Z</time></trkpt><trkpt lat="40.31504794574225" lon="17.469118868410646"><ele>0.5</ele><time>2026-03-29T10:02:33.003Z</time></trkpt><trkpt lat="40.31498365192028" lon="17.469255006004953"><ele>0.75</ele><time>2026-03-29T10:02:34.003Z</time></trkpt><trkpt lat="40.31491194265657" lon="17.46939223195661"><ele>1.0</ele><time>2026-03-29T10:02:35.002Z</time></trkpt><trkpt lat="40.314833384464144" lon="17.469528316759895"><ele>1.0</ele><time>2026-03-29T10:02:36.002Z</time></trkpt><trkpt lat="40.31475546577497" lon="17.469661900169605"><ele>1.0</ele><time>2026-03-29T10:02:37.002Z</time></trkpt><trkpt lat="40.3146771588062" lon="17.469801381533397"><ele>1.0</ele><time>2026-03-29T10:02:38.002Z</time></trkpt><trkpt lat="40.314600972992245" lon="17.469938448832345"><ele>1.0</ele><time>2026-03-29T10:02:39.002Z</time></trkpt><trkpt lat="40.31453434737663" lon="17.470058729432765"><ele>1.0</ele><time>2026-03-29T10:02:40.002Z</time></trkpt><trkpt lat="40.31447197259312" lon="17.470170221520657"><ele>1.0</ele><time>2026-03-29T10:02:41.002Z</time></trkpt><trkpt lat="40.31440142692803" lon="17.470289261396452"><ele>1.0</ele><time>2026-03-29T10:02:42.002Z</time></trkpt><trkpt lat="40.31433011833843" lon="17.47041954886384"><ele>1.0</ele><time>2026-03-29T10:02:43.002Z</time></trkpt><trkpt lat="40.31425382000675" lon="17.470552820965967"><ele>1.0</ele><time>2026-03-29T10:02:44.002Z</time></trkpt><trkpt lat="40.31417681788954" lon="17.47069118661028"><ele>1.0</ele><time>2026-03-29T10:02:45.002Z</time></trkpt><trkpt lat="40.314097501266225" lon="17.470833238405937"><ele>1.0</ele><time>2026-03-29T10:02:46.002Z</time></trkpt><trkpt lat="40.31401802583456" lon="17.470978961909907"><ele>1.0</ele><time>2026-03-29T10:02:47.002Z</time></trkpt><trkpt lat="40.313941265213664" lon="17.471133977531238"><ele>0.75</ele><time>2026-03-29T10:02:48.002Z</time></trkpt><trkpt lat="40.313870234977344" lon="17.471296799139"><ele>0.5</ele><time>2026-03-29T10:02:49.002Z</time></trkpt><trkpt lat="40.31382148215222" lon="17.47147330413877"><ele>0.25</ele><time>2026-03-29T10:02:50.002Z</time></trkpt><trkpt lat="40.31378282759256" lon="17.471660588005214"><ele>0.0</ele><time>2026-03-29T10:02:51.002Z</time></trkpt><trkpt lat="40.31374367163082" lon="17.471863281767813"><ele>0.0</ele><time>2026-03-29T10:02:52.002Z</time></trkpt><trkpt lat="40.31371318075359" lon="17.472068038415014"><ele>0.0</ele><time>2026-03-29T10:02:53.002Z</time></trkpt><trkpt lat="40.313691253169694" lon="17.47226016713658"><ele>0.0</ele><time>2026-03-29T10:02:54.002Z</time></trkpt><trkpt lat="40.3136755537888" lon="17.47245355977043"><ele>0.0</ele><time>2026-03-29T10:02:55.002Z</time></trkpt><trkpt lat="40.31366111106971" lon="17.472639163083905"><ele>0.0</ele><time>2026-03-29T10:02:56.002Z</time></trkpt><trkpt lat="40.313657306182776" lon="17.47282664432349"><ele>0.0</ele><time>2026-03-29T10:02:57.002Z</time></trkpt><trkpt lat="40.313659676983264" lon="17.472998701895147"><ele>0.0</ele><time>2026-03-29T10:02:58.002Z</time></trkpt><trkpt lat="40.31367816055741" lon="17.473180082822843"><ele>0.0</ele><time>2026-03-29T10:02:59.001Z</time></trkpt><trkpt lat="40.31369638911604" lon="17.47336262547043"><ele>0.0</ele><time>2026-03-29T10:03:00.001Z</time></trkpt><trkpt lat="40.313725873798376" lon="17.47354751191269"><ele>0.0</ele><time>2026-03-29T10:03:01.001Z</time></trkpt><trkpt lat="40.31376027704414" lon="17.473734313856898"><ele>0.0</ele><time>2026-03-29T10:03:02.001Z</time></trkpt><trkpt lat="40.313786942585786" lon="17.473921694068856"><ele>0.0</ele><time>2026-03-29T10:03:03.001Z</time></trkpt><trkpt lat="40.31381431475766" lon="17.474112277241538"><ele>0.0</ele><time>2026-03-29T10:03:04.001Z</time></trkpt><trkpt lat="40.313843247531786" lon="17.47429853183426"><ele>0.0</ele><time>2026-03-29T10:03:05.001Z</time></trkpt><trkpt lat="40.31383597661728" lon="17.47449094951439"><ele>0.0</ele><time>2026-03-29T10:03:06.001Z</time></trkpt><trkpt lat="40.31383338384079" lon="17.474685197899195"><ele>0.0</ele><time>2026-03-29T10:03:07.001Z</time></trkpt><trkpt lat="40.313823155908224" lon="17.474879950078634"><ele>0.0</ele><time>2026-03-29T10:03:08.001Z</time></trkpt><trkpt lat="40.31380683147191" lon="17.475073151639744"><ele>0.0</ele><time>2026-03-29T10:03:09.001Z</time></trkpt><trkpt lat="40.313787340084" lon="17.475272965125715"><ele>0.6666666666666666</ele><time>2026-03-29T10:03:10.001Z</time></trkpt><trkpt lat="40.313767566020616" lon="17.47547030624189"><ele>1.3333333333333333</ele><time>2026-03-29T10:03:11.001Z</time></trkpt><trkpt lat="40.313746609936466" lon="17.4756645193489"><ele>2.0</ele><time>2026-03-29T10:03:12.001Z</time></trkpt><trkpt lat="40.313725433825525" lon="17.475864945036506"><ele>2.0</ele><time>2026-03-29T10:03:13.001Z</time></trkpt><trkpt lat="40.31370470759446" lon="17.476063918667094"><ele>2.0</ele><time>2026-03-29T10:03:14.001Z</time></trkpt><trkpt lat="40.31368398593173" lon="17.4762621815968"><ele>2.0</ele><time>2026-03-29T10:03:15.001Z</time></trkpt><trkpt lat="40.31366285300902" lon="17.47646251210912"><ele>1.6666666666666665</ele><time>2026-03-29T10:03:16.001Z</time></trkpt><trkpt lat="40.31364057955813" lon="17.47667394173786"><ele>1.3333333333333333</ele><time>2026-03-29T10:03:17.001Z</time></trkpt><trkpt lat="40.3136172530377" lon="17.476895675208905"><ele>1.0</ele><time>2026-03-29T10:03:18.001Z</time></trkpt><trkpt lat="40.31359434585958" lon="17.47711342225414"><ele>1.0</ele><time>2026-03-29T10:03:19.001Z</time></trkpt><trkpt lat="40.31357116421394" lon="17.47733323660684"><ele>1.0</ele><time>2026-03-29T10:03:20.001Z</time></trkpt><trkpt lat="40.3135467931144" lon="17.477568243614325"><ele>1.0</ele><time>2026-03-29T10:03:21.001Z</time></trkpt><trkpt lat="40.31352247136226" lon="17.477799832284113"><ele>1.0</ele><time>2026-03-29T10:03:22.001Z</time></trkpt><trkpt lat="40.313498811169204" lon="17.478024033261114"><ele>1.0</ele><time>2026-03-29T10:03:23.001Z</time></trkpt><trkpt lat="40.313475723910216" lon="17.478242805122083"><ele>1.0</ele><time>2026-03-29T10:03:24.001Z</time></trkpt><trkpt lat="40.31345248014165" lon="17.47846095008168"><ele>1.0</ele><time>2026-03-29T10:03:25.001Z</time></trkpt><trkpt lat="40.31342740954363" lon="17.478694452290686"><ele>1.0</ele><time>2026-03-29T10:03:26.001Z</time></trkpt><trkpt lat="40.31341770788738" lon="17.47893281610224"><ele>1.0</ele><time>2026-03-29T10:03:27.001Z</time></trkpt><trkpt lat="40.31339459388424" lon="17.479150197938992"><ele>1.6666666666666665</ele><time>2026-03-29T10:03:28.001Z</time></trkpt><trkpt lat="40.31337112425184" lon="17.479365035218255"><ele>2.3333333333333335</ele><time>2026-03-29T10:03:29.001Z</time></trkpt><trkpt lat="40.31332756183336" lon="17.479600037242133"><ele>3.0</ele><time>2026-03-29T10:03:30.001Z</time></trkpt><trkpt lat="40.3133000411055" lon="17.479839897492706"><ele>3.333333333333333</ele><time>2026-03-29T10:03:31.001Z</time></trkpt><trkpt lat="40.313272417843145" lon="17.480080651353994"><ele>3.6666666666666665</ele><time>2026-03-29T10:03:32.001Z</time></trkpt><trkpt lat="40.313246791704046" lon="17.480303999073207"><ele>4.0</ele><time>2026-03-29T10:03:33.001Z</time></trkpt><trkpt lat="40.313221274758504" lon="17.480526395146423"><ele>4.0</ele><time>2026-03-29T10:03:34.001Z</time></trkpt><trkpt lat="40.313196005405324" lon="17.48074663325248"><ele>4.0</ele><time>2026-03-29T10:03:35.001Z</time></trkpt><trkpt lat="40.31317092920734" lon="17.480965187888238"><ele>4.0</ele><time>2026-03-29T10:03:36.001Z</time></trkpt><trkpt lat="40.313148561065724" lon="17.481160140116675"><ele>4.0</ele><time>2026-03-29T10:03:37.001Z</time></trkpt><trkpt lat="40.31312657341135" lon="17.481351776171937"><ele>4.0</ele><time>2026-03-29T10:03:38.001Z</time></trkpt><trkpt lat="40.313104069314825" lon="17.48154791279923"><ele>4.0</ele><time>2026-03-29T10:03:39.001Z</time></trkpt><trkpt lat="40.31308205253152" lon="17.481749610271475"><ele>2.6666666666666665</ele><time>2026-03-29T10:03:40.001Z</time></trkpt><trkpt lat="40.313059637517476" lon="17.481953999953657"><ele>1.3333333333333333</ele><time>2026-03-29T10:03:41.001Z</time></trkpt><trkpt lat="40.31303652709674" lon="17.48216511430893"><ele>0.0</ele><time>2026-03-29T10:03:42.001Z</time></trkpt><trkpt lat="40.31301338680047" lon="17.482368277091936"><ele>0.0</ele><time>2026-03-29T10:03:43.001Z</time></trkpt><trkpt lat="40.31300416673589" lon="17.482582744760723"><ele>0.0</ele><time>2026-03-29T10:03:44.001Z</time></trkpt><trkpt lat="40.31296275550353" lon="17.482799561789154"><ele>0.0</ele><time>2026-03-29T10:03:45.001Z</time></trkpt><trkpt lat="40.31293661388574" lon="17.48302223992519"><ele>0.0</ele><time>2026-03-29T10:03:46.001Z</time></trkpt><trkpt lat="40.31291064645519" lon="17.483250297530113"><ele>0.0</ele><time>2026-03-29T10:03:47.001Z</time></trkpt><trkpt lat="40.31288445778261" lon="17.483484026536107"><ele>0.0</ele><time>2026-03-29T10:03:48.001Z</time></trkpt><trkpt lat="40.31285912140252" lon="17.483711218725045"><ele>0.6666666666666666</ele><time>2026-03-29T10:03:49.001Z</time></trkpt><trkpt lat="40.31283530013751" lon="17.48392549645002"><ele>1.3333333333333333</ele><time>2026-03-29T10:03:50.001Z</time></trkpt><trkpt lat="40.312811021219396" lon="17.48414389077587"><ele>2.0</ele><time>2026-03-29T10:03:51.001Z</time></trkpt><trkpt lat="40.31278725235494" lon="17.484357696834174"><ele>2.0</ele><time>2026-03-29T10:03:52.001Z</time></trkpt><trkpt lat="40.31277350324357" lon="17.484582487607263"><ele>2.0</ele><time>2026-03-29T10:03:53.001Z</time></trkpt><trkpt lat="40.312752643339" lon="17.484798498555058"><ele>2.0</ele><time>2026-03-29T10:03:54.001Z</time></trkpt><trkpt lat="40.312715308310835" lon="17.48499596308353"><ele>2.6666666666666665</ele><time>2026-03-29T10:03:55.001Z</time></trkpt><trkpt lat="40.312693087382776" lon="17.485193219051105"><ele>3.333333333333333</ele><time>2026-03-29T10:03:56.001Z</time></trkpt><trkpt lat="40.31268478239941" lon="17.485400654213034"><ele>4.0</ele><time>2026-03-29T10:03:57.001Z</time></trkpt><trkpt lat="40.31265801066473" lon="17.48562118498144"><ele>4.666666666666666</ele><time>2026-03-29T10:03:58.001Z</time></trkpt><trkpt lat="40.312634137861174" lon="17.485830104995777"><ele>5.333333333333333</ele><time>2026-03-29T10:03:59.001Z</time></trkpt><trkpt lat="40.31259539201246" lon="17.48602202990752"><ele>6.0</ele><time>2026-03-29T10:04:00.001Z</time></trkpt><trkpt lat="40.312572876472224" lon="17.486209843942014"><ele>6.666666666666666</ele><time>2026-03-29T10:04:01.001Z</time></trkpt><trkpt lat="40.3125476000445" lon="17.486424599557147"><ele>7.333333333333333</ele><time>2026-03-29T10:04:02.001Z</time></trkpt><trkpt lat="40.31252404769722" lon="17.486624262535937"><ele>8.0</ele><time>2026-03-29T10:04:03.001Z</time></trkpt><trkpt lat="40.31250394383339" lon="17.486796347256"><ele>8.0</ele><time>2026-03-29T10:04:04.001Z</time></trkpt><trkpt lat="40.31249263489742" lon="17.486988129024347"><ele>8.0</ele><time>2026-03-29T10:04:05.001Z</time></trkpt><trkpt lat="40.31245889851202" lon="17.487193107783707"><ele>8.0</ele><time>2026-03-29T10:04:06.001Z</time></trkpt><trkpt lat="40.31242465720834" lon="17.487385236271916"><ele>7.75</ele><time>2026-03-29T10:04:07.001Z</time></trkpt><trkpt lat="40.312390956854784" lon="17.48756028736154"><ele>7.5</ele><time>2026-03-29T10:04:08.001Z</time></trkpt><trkpt lat="40.31234399154189" lon="17.487732527212692"><ele>7.25</ele><time>2026-03-29T10:04:09.001Z</time></trkpt><trkpt lat="40.312302951452914" lon="17.4878828073958"><ele>7.0</ele><time>2026-03-29T10:04:10.001Z</time></trkpt><trkpt lat="40.31226146613805" lon="17.488019634189456"><ele>5.8</ele><time>2026-03-29T10:04:11.001Z</time></trkpt><trkpt lat="40.31222055313494" lon="17.48815463557266"><ele>4.6</ele><time>2026-03-29T10:04:12.001Z</time></trkpt><trkpt lat="40.31217668857" lon="17.488299994837266"><ele>3.4</ele><time>2026-03-29T10:04:13.001Z</time></trkpt><trkpt lat="40.31213684724801" lon="17.488437726133593"><ele>2.2</ele><time>2026-03-29T10:04:14.001Z</time></trkpt><trkpt lat="40.312098336057964" lon="17.488564011219367"><ele>1.0</ele><time>2026-03-29T10:04:15.001Z</time></trkpt><trkpt lat="40.31205623918252" lon="17.488690871966842"><ele>1.75</ele><time>2026-03-29T10:04:16.001Z</time></trkpt><trkpt lat="40.31201706526497" lon="17.48881911542316"><ele>2.5</ele><time>2026-03-29T10:04:17.001Z</time></trkpt><trkpt lat="40.31197155043845" lon="17.488940258819138"><ele>3.25</ele><time>2026-03-29T10:04:18.001Z</time></trkpt><trkpt lat="40.311907326097426" lon="17.489110341373497"><ele>4.0</ele><time>2026-03-29T10:04:19.001Z</time></trkpt><trkpt lat="40.31185468345471" lon="17.489289809841832"><ele>4.0</ele><time>2026-03-29T10:04:21.001Z</time></trkpt><trkpt lat="40.3118153469401" lon="17.489426250863186"><ele>4.0</ele><time>2026-03-29T10:04:22.001Z</time></trkpt><trkpt lat="40.311763089681726" lon="17.489542758181358"><ele>4.0</ele><time>2026-03-29T10:04:23.001Z</time></trkpt><trkpt lat="40.31172697960421" lon="17.48965077530666"><ele>4.0</ele><time>2026-03-29T10:04:24.001Z</time></trkpt><trkpt lat="40.31168742936493" lon="17.489769083118773"><ele>4.0</ele><time>2026-03-29T10:04:25.001Z</time></trkpt><trkpt lat="40.31164971522331" lon="17.48988189855914"><ele>4.142857142857142</ele><time>2026-03-29T10:04:26.001Z</time></trkpt><trkpt lat="40.31161993845869" lon="17.489970970682105"><ele>4.285714285714286</ele><time>2026-03-29T10:04:27.001Z</time></trkpt><trkpt lat="40.31159426255178" lon="17.490049313649816"><ele>4.428571428571429</ele><time>2026-03-29T10:04:28.001Z</time></trkpt><trkpt lat="40.311567959969686" lon="17.490130877082446"><ele>4.571428571428571</ele><time>2026-03-29T10:04:29.001Z</time></trkpt><trkpt lat="40.311539853176875" lon="17.49022240685246"><ele>4.714285714285714</ele><time>2026-03-29T10:04:30.001Z</time></trkpt><trkpt lat="40.31151200908517" lon="17.490311459896766"><ele>4.857142857142857</ele><time>2026-03-29T10:04:31.002Z</time></trkpt><trkpt lat="40.31148297083568" lon="17.490406928798436"><ele>5.0</ele><time>2026-03-29T10:04:32.002Z</time></trkpt><trkpt lat="40.31145567840744" lon="17.49049856039554"><ele>5.0</ele><time>2026-03-29T10:04:33.002Z</time></trkpt><trkpt lat="40.311431657082366" lon="17.490583992743705"><ele>5.0</ele><time>2026-03-29T10:04:34.002Z</time></trkpt><trkpt lat="40.31140634254857" lon="17.490677019659454"><ele>5.0</ele><time>2026-03-29T10:04:35.002Z</time></trkpt><trkpt lat="40.31138266169814" lon="17.49077106485302"><ele>5.0</ele><time>2026-03-29T10:04:36.002Z</time></trkpt><trkpt lat="40.31135958678235" lon="17.490865340390503"><ele>5.0</ele><time>2026-03-29T10:04:37.002Z</time></trkpt><trkpt lat="40.31133468875411" lon="17.490969714926365"><ele>5.0</ele><time>2026-03-29T10:04:38.002Z</time></trkpt><trkpt lat="40.31132401405588" lon="17.49108635119701"><ele>4.4</ele><time>2026-03-29T10:04:39.002Z</time></trkpt><trkpt lat="40.31128784745605" lon="17.49116607745132"><ele>3.8</ele><time>2026-03-29T10:04:40.002Z</time></trkpt><trkpt lat="40.311249822674036" lon="17.491325511667252"><ele>3.2</ele><time>2026-03-29T10:04:42.002Z</time></trkpt><trkpt lat="40.311227964816176" lon="17.49141902036223"><ele>2.6</ele><time>2026-03-29T10:04:43.002Z</time></trkpt><trkpt lat="40.31120317511835" lon="17.491527504819096"><ele>2.0</ele><time>2026-03-29T10:04:44.002Z</time></trkpt><trkpt lat="40.31117619467568" lon="17.491655285236455"><ele>1.8333333333333333</ele><time>2026-03-29T10:04:45.002Z</time></trkpt><trkpt lat="40.311150786028556" lon="17.491779345054915"><ele>1.6666666666666665</ele><time>2026-03-29T10:04:46.002Z</time></trkpt><trkpt lat="40.311128002382894" lon="17.49189927368246"><ele>1.5</ele><time>2026-03-29T10:04:47.002Z</time></trkpt><trkpt lat="40.31110926573404" lon="17.492000833469074"><ele>1.3333333333333333</ele><time>2026-03-29T10:04:48.002Z</time></trkpt><trkpt lat="40.31108913476226" lon="17.49211377324007"><ele>1.1666666666666665</ele><time>2026-03-29T10:04:49.002Z</time></trkpt><trkpt lat="40.311072246835025" lon="17.492207431415213"><ele>1.0</ele><time>2026-03-29T10:04:50.002Z</time></trkpt><trkpt lat="40.311069255912244" lon="17.49230242170034"><ele>1.0</ele><time>2026-03-29T10:04:51.001Z</time></trkpt><trkpt lat="40.31105335560166" lon="17.492399929230686"><ele>1.0</ele><time>2026-03-29T10:04:52.001Z</time></trkpt><trkpt lat="40.31103179133162" lon="17.49252609450001"><ele>1.0</ele><time>2026-03-29T10:04:53.001Z</time></trkpt><trkpt lat="40.31100723649452" lon="17.492655010605766"><ele>1.0</ele><time>2026-03-29T10:04:54.001Z</time></trkpt><trkpt lat="40.31096844119704" lon="17.492769992986254"><ele>1.0</ele><time>2026-03-29T10:04:55.001Z</time></trkpt><trkpt lat="40.31094806189099" lon="17.492874247101792"><ele>0.9999999999999999</ele><time>2026-03-29T10:04:56.001Z</time></trkpt><trkpt lat="40.31093610103819" lon="17.493002722745313"><ele>1.0</ele><time>2026-03-29T10:04:57.001Z</time></trkpt><trkpt lat="40.31090841419954" lon="17.493124715622663"><ele>1.0</ele><time>2026-03-29T10:04:58.001Z</time></trkpt><trkpt lat="40.31088462113907" lon="17.49323709222269"><ele>1.0</ele><time>2026-03-29T10:04:59.001Z</time></trkpt><trkpt lat="40.31086032437005" lon="17.49332590670142"><ele>0.9999999999999999</ele><time>2026-03-29T10:05:00.001Z</time></trkpt><trkpt lat="40.31083797083315" lon="17.493423793934486"><ele>1.0</ele><time>2026-03-29T10:05:01.001Z</time></trkpt><trkpt lat="40.31080689508966" lon="17.49354536693598"><ele>1.0</ele><time>2026-03-29T10:05:02.001Z</time></trkpt><trkpt lat="40.31077369476465" lon="17.493674369765127"><ele>1.0</ele><time>2026-03-29T10:05:03.001Z</time></trkpt><trkpt lat="40.31073718887048" lon="17.4937987782621"><ele>1.0</ele><time>2026-03-29T10:05:04.001Z</time></trkpt><trkpt lat="40.31070163276322" lon="17.49390205305456"><ele>1.0</ele><time>2026-03-29T10:05:05.001Z</time></trkpt><trkpt lat="40.310667047025404" lon="17.494017560311825"><ele>1.0</ele><time>2026-03-29T10:05:06.001Z</time></trkpt><trkpt lat="40.31063202954983" lon="17.49411947936467"><ele>0.9999999999999999</ele><time>2026-03-29T10:05:07.001Z</time></trkpt><trkpt lat="40.31059541992607" lon="17.494212506706837"><ele>1.0</ele><time>2026-03-29T10:05:08.001Z</time></trkpt><trkpt lat="40.310558540901546" lon="17.494306263479416"><ele>1.0</ele><time>2026-03-29T10:05:09.001Z</time></trkpt><trkpt lat="40.31052780912375" lon="17.49438041378243"><ele>1.0</ele><time>2026-03-29T10:05:10.001Z</time></trkpt><trkpt lat="40.31045191360048" lon="17.494505453737514"><ele>0.9999999999999999</ele><time>2026-03-29T10:05:12.001Z</time></trkpt><trkpt lat="40.3104093528712" lon="17.49459614475086"><ele>1.0</ele><time>2026-03-29T10:05:14.001Z</time></trkpt><trkpt lat="40.310367109965846" lon="17.494701465011612"><ele>1.1666666666666665</ele><time>2026-03-29T10:05:17.001Z</time></trkpt><trkpt lat="40.31030991296006" lon="17.494762215652543"><ele>1.3333333333333333</ele><time>2026-03-29T10:05:19.001Z</time></trkpt><trkpt lat="40.31027291676514" lon="17.49489203766081"><ele>1.5</ele><time>2026-03-29T10:05:21.001Z</time></trkpt><trkpt lat="40.31022499655349" lon="17.494980305574334"><ele>1.6666666666666665</ele><time>2026-03-29T10:05:23.001Z</time></trkpt><trkpt lat="40.31018811371434" lon="17.495060683931584"><ele>1.8333333333333333</ele><time>2026-03-29T10:05:26.001Z</time></trkpt><trkpt lat="40.31013128967457" lon="17.495138508015533"><ele>2.0</ele><time>2026-03-29T10:05:29.001Z</time></trkpt><trkpt lat="40.31008051724446" lon="17.495234737446054"><ele>1.9999999999999998</ele><time>2026-03-29T10:05:31.001Z</time></trkpt><trkpt lat="40.31001920962014" lon="17.495350309685996"><ele>2.0</ele><time>2026-03-29T10:05:33.001Z</time></trkpt><trkpt lat="40.30997944942202" lon="17.49542388920836"><ele>2.0</ele><time>2026-03-29T10:05:35.001Z</time></trkpt><trkpt lat="40.309936873980064" lon="17.495500925478467"><ele>2.0</ele><time>2026-03-29T10:05:41.001Z</time></trkpt><trkpt lat="40.30988255485883" lon="17.495596019403862"><ele>1.9999999999999998</ele><time>2026-03-29T10:05:43.001Z</time></trkpt><trkpt lat="40.30982979090503" lon="17.495682967542553"><ele>2.0</ele><time>2026-03-29T10:05:44.001Z</time></trkpt><trkpt lat="40.309783210984946" lon="17.495763304583917"><ele>1.9999999999999998</ele><time>2026-03-29T10:05:45.001Z</time></trkpt><trkpt lat="40.30974355721247" lon="17.495834374948334"><ele>2.0</ele><time>2026-03-29T10:05:46.001Z</time></trkpt><trkpt lat="40.30971271006689" lon="17.495922276987425"><ele>2.0</ele><time>2026-03-29T10:05:47.001Z</time></trkpt><trkpt lat="40.30966574261426" lon="17.495992881836433"><ele>2.0</ele><time>2026-03-29T10:05:48.001Z</time></trkpt><trkpt lat="40.309614074027024" lon="17.496068758211113"><ele>1.9999999999999998</ele><time>2026-03-29T10:05:49.001Z</time></trkpt><trkpt lat="40.30954650235192" lon="17.49616084485941"><ele>2.0</ele><time>2026-03-29T10:05:50.001Z</time></trkpt><trkpt lat="40.30948903446462" lon="17.496229439662194"><ele>1.8333333333333333</ele><time>2026-03-29T10:05:51.001Z</time></trkpt><trkpt lat="40.30939053334364" lon="17.496322515413045"><ele>1.6666666666666665</ele><time>2026-03-29T10:05:53.001Z</time></trkpt><trkpt lat="40.309338423046775" lon="17.49638101079366"><ele>1.5</ele><time>2026-03-29T10:05:54.001Z</time></trkpt><trkpt lat="40.30927589818692" lon="17.49645449252167"><ele>1.3333333333333333</ele><time>2026-03-29T10:05:55.001Z</time></trkpt><trkpt lat="40.30920914478332" lon="17.49653294170681"><ele>1.1666666666666665</ele><time>2026-03-29T10:05:56.001Z</time></trkpt><trkpt lat="40.309151999911556" lon="17.496599678191604"><ele>1.0</ele><time>2026-03-29T10:05:57.001Z</time></trkpt><trkpt lat="40.30906659100553" lon="17.496697661162948"><ele>1.0</ele><time>2026-03-29T10:05:59.001Z</time></trkpt><trkpt lat="40.30896254014085" lon="17.496817030445076"><ele>1.0</ele><time>2026-03-29T10:06:01.001Z</time></trkpt><trkpt lat="40.30890009022923" lon="17.496887306666327"><ele>1.0</ele><time>2026-03-29T10:06:02.001Z</time></trkpt><trkpt lat="40.30883071260783" lon="17.49696906229763"><ele>1.0</ele><time>2026-03-29T10:06:03.001Z</time></trkpt><trkpt lat="40.30876044492754" lon="17.497052411748044"><ele>1.0</ele><time>2026-03-29T10:06:04.001Z</time></trkpt><trkpt lat="40.308693050485665" lon="17.49713194247279"><ele>0.9999999999999999</ele><time>2026-03-29T10:06:05.001Z</time></trkpt><trkpt lat="40.30863259640957" lon="17.49720312735968"><ele>1.0</ele><time>2026-03-29T10:06:06.001Z</time></trkpt><trkpt lat="40.30856644929975" lon="17.49728101581111"><ele>1.0</ele><time>2026-03-29T10:06:07.001Z</time></trkpt><trkpt lat="40.30849939500934" lon="17.497358994548403"><ele>1.0</ele><time>2026-03-29T10:06:08.001Z</time></trkpt><trkpt lat="40.30844995410043" lon="17.497415622780274"><ele>0.9999999999999999</ele><time>2026-03-29T10:06:09.001Z</time></trkpt><trkpt lat="40.308395199104716" lon="17.49747833758303"><ele>1.0</ele><time>2026-03-29T10:06:10.001Z</time></trkpt><trkpt lat="40.30834036705982" lon="17.4975428904271"><ele>0.9999999999999999</ele><time>2026-03-29T10:06:11.001Z</time></trkpt><trkpt lat="40.308283598260374" lon="17.497613755126736"><ele>1.0</ele><time>2026-03-29T10:06:12.001Z</time></trkpt><trkpt lat="40.30821572198894" lon="17.497705614461264"><ele>1.0</ele><time>2026-03-29T10:06:13.001Z</time></trkpt><trkpt lat="40.30815241302252" lon="17.497801044003573"><ele>1.0</ele><time>2026-03-29T10:06:14.001Z</time></trkpt><trkpt lat="40.308092358241346" lon="17.49788753641882"><ele>0.9999999999999999</ele><time>2026-03-29T10:06:15.001Z</time></trkpt><trkpt lat="40.308034632355195" lon="17.497967123788676"><ele>1.0</ele><time>2026-03-29T10:06:16.001Z</time></trkpt><trkpt lat="40.30798726451166" lon="17.498032244906987"><ele>0.8333333333333333</ele><time>2026-03-29T10:06:17Z</time></trkpt><trkpt lat="40.307940229304066" lon="17.498096923874556"><ele>0.6666666666666666</ele><time>2026-03-29T10:06:18Z</time></trkpt><trkpt lat="40.307886955480676" lon="17.498169712242433"><ele>0.5</ele><time>2026-03-29T10:06:19Z</time></trkpt><trkpt lat="40.307827589188385" lon="17.49825075098362"><ele>0.3333333333333333</ele><time>2026-03-29T10:06:20Z</time></trkpt><trkpt lat="40.307764419549876" lon="17.498336981539886"><ele>0.16666666666666666</ele><time>2026-03-29T10:06:21Z</time></trkpt><trkpt lat="40.307700893351225" lon="17.49842411616472"><ele>0.0</ele><time>2026-03-29T10:06:22Z</time></trkpt><trkpt lat="40.30764658300853" lon="17.498498896327753"><ele>0.0</ele><time>2026-03-29T10:06:23Z</time></trkpt><trkpt lat="40.30759341553385" lon="17.498572102677567"><ele>0.0</ele><time>2026-03-29T10:06:24Z</time></trkpt><trkpt lat="40.30753417871027" lon="17.49864941979015"><ele>0.0</ele><time>2026-03-29T10:06:25Z</time></trkpt><trkpt lat="40.307474753353155" lon="17.498726449772647"><ele>0.0</ele><time>2026-03-29T10:06:26Z</time></trkpt><trkpt lat="40.30742091599879" lon="17.49879166496818"><ele>0.0</ele><time>2026-03-29T10:06:27Z</time></trkpt><trkpt lat="40.30733976677353" lon="17.49888275586186"><ele>0.0</ele><time>2026-03-29T10:06:29Z</time></trkpt><trkpt lat="40.30725823314543" lon="17.498972512957373"><ele>0.16666666666666666</ele><time>2026-03-29T10:06:31Z</time></trkpt><trkpt lat="40.30718574150894" lon="17.49905066470929"><ele>0.3333333333333333</ele><time>2026-03-29T10:06:33Z</time></trkpt><trkpt lat="40.307123887359374" lon="17.49911113832022"><ele>0.5</ele><time>2026-03-29T10:06:35Z</time></trkpt><trkpt lat="40.307025985069664" lon="17.499200361625526"><ele>0.6666666666666666</ele><time>2026-03-29T10:06:37.002Z</time></trkpt><trkpt lat="40.3069713880532" lon="17.49925135108531"><ele>0.8333333333333333</ele><time>2026-03-29T10:06:38.002Z</time></trkpt><trkpt lat="40.30691254320408" lon="17.499307121674374"><ele>1.0</ele><time>2026-03-29T10:06:39.001Z</time></trkpt><trkpt lat="40.30685786627125" lon="17.499358942097"><ele>1.0</ele><time>2026-03-29T10:06:40.001Z</time></trkpt><trkpt lat="40.306785668244025" lon="17.499427367910922"><ele>1.0</ele><time>2026-03-29T10:06:41.001Z</time></trkpt><trkpt lat="40.3067212800971" lon="17.499486073508134"><ele>1.0</ele><time>2026-03-29T10:06:42.001Z</time></trkpt><trkpt lat="40.30663949361225" lon="17.49956086317911"><ele>1.0</ele><time>2026-03-29T10:06:43.001Z</time></trkpt><trkpt lat="40.3065440207701" lon="17.49964776538855"><ele>1.0</ele><time>2026-03-29T10:06:44.001Z</time></trkpt><trkpt lat="40.30644175345469" lon="17.499740852134224"><ele>0.75</ele><time>2026-03-29T10:06:45.001Z</time></trkpt><trkpt lat="40.30632636531425" lon="17.499847214852796"><ele>0.5</ele><time>2026-03-29T10:06:46.001Z</time></trkpt><trkpt lat="40.306203980355335" lon="17.499959964217414"><ele>0.25</ele><time>2026-03-29T10:06:47.001Z</time></trkpt><trkpt lat="40.30609240711544" lon="17.500060462799965"><ele>0.0</ele><time>2026-03-29T10:06:48.001Z</time></trkpt><trkpt lat="40.305976180695936" lon="17.500162960211124"><ele>0.0</ele><time>2026-03-29T10:06:49.001Z</time></trkpt><trkpt lat="40.305868858106926" lon="17.500247377789552"><ele>0.0</ele><time>2026-03-29T10:06:50.001Z</time></trkpt><trkpt lat="40.30576079228896" lon="17.500326178519153"><ele>0.0</ele><time>2026-03-29T10:06:51.001Z</time></trkpt><trkpt lat="40.305638737380576" lon="17.50041351547792"><ele>0.0</ele><time>2026-03-29T10:06:52.001Z</time></trkpt><trkpt lat="40.305509526004485" lon="17.50049934504473"><ele>0.0</ele><time>2026-03-29T10:06:53.001Z</time></trkpt><trkpt lat="40.30538067313419" lon="17.500581073673835"><ele>0.0</ele><time>2026-03-29T10:06:54.001Z</time></trkpt><trkpt lat="40.305248371031624" lon="17.500656243687605"><ele>0.0</ele><time>2026-03-29T10:06:55.001Z</time></trkpt><trkpt lat="40.30511318199235" lon="17.500739498284336"><ele>0.0</ele><time>2026-03-29T10:06:56.001Z</time></trkpt><trkpt lat="40.304988415528214" lon="17.500824688912097"><ele>0.0</ele><time>2026-03-29T10:06:57.001Z</time></trkpt><trkpt lat="40.30486286599049" lon="17.500928888752174"><ele>0.0</ele><time>2026-03-29T10:06:58.001Z</time></trkpt><trkpt lat="40.304749365605204" lon="17.50104971967221"><ele>0.0</ele><time>2026-03-29T10:06:59.001Z</time></trkpt><trkpt lat="40.3046462813876" lon="17.50117854260514"><ele>0.0</ele><time>2026-03-29T10:07:00.001Z</time></trkpt><trkpt lat="40.30455338185002" lon="17.501304477122783"><ele>0.0</ele><time>2026-03-29T10:07:01.001Z</time></trkpt><trkpt lat="40.3044676436593" lon="17.501430060896826"><ele>0.0</ele><time>2026-03-29T10:07:02.001Z</time></trkpt><trkpt lat="40.30438380404628" lon="17.501558901410753"><ele>0.0</ele><time>2026-03-29T10:07:03.001Z</time></trkpt><trkpt lat="40.30429261169134" lon="17.50169904009405"><ele>0.0</ele><time>2026-03-29T10:07:04.001Z</time></trkpt><trkpt lat="40.30419972362718" lon="17.50184178463653"><ele>0.0</ele><time>2026-03-29T10:07:05.001Z</time></trkpt><trkpt lat="40.30410867074401" lon="17.501982596007572"><ele>0.0</ele><time>2026-03-29T10:07:06.001Z</time></trkpt><trkpt lat="40.30401663646359" lon="17.502125278445003"><ele>0.0</ele><time>2026-03-29T10:07:07.001Z</time></trkpt><trkpt lat="40.3039256610293" lon="17.50226631934147"><ele>0.0</ele><time>2026-03-29T10:07:08.001Z</time></trkpt><trkpt lat="40.30383475447397" lon="17.502407583874145"><ele>0.0</ele><time>2026-03-29T10:07:09.001Z</time></trkpt><trkpt lat="40.303743388805586" lon="17.502550428596653"><ele>0.0</ele><time>2026-03-29T10:07:10.001Z</time></trkpt><trkpt lat="40.303653207820986" lon="17.50269142114994"><ele>0.0</ele><time>2026-03-29T10:07:11.001Z</time></trkpt><trkpt lat="40.30355113501627" lon="17.502847900156137"><ele>0.0</ele><time>2026-03-29T10:07:12.001Z</time></trkpt><trkpt lat="40.3034418189124" lon="17.503010293294846"><ele>0.0</ele><time>2026-03-29T10:07:13.001Z</time></trkpt><trkpt lat="40.303326398489205" lon="17.503173424243613"><ele>0.0</ele><time>2026-03-29T10:07:14.001Z</time></trkpt><trkpt lat="40.30321083608775" lon="17.503327871956504"><ele>0.0</ele><time>2026-03-29T10:07:15.001Z</time></trkpt><trkpt lat="40.30310407072364" lon="17.50348394744975"><ele>0.0</ele><time>2026-03-29T10:07:16Z</time></trkpt><trkpt lat="40.3029722649481" lon="17.503597546849356"><ele>0.0</ele><time>2026-03-29T10:07:17Z</time></trkpt><trkpt lat="40.30284263619058" lon="17.503723697991983"><ele>0.0</ele><time>2026-03-29T10:07:18Z</time></trkpt><trkpt lat="40.302717354836055" lon="17.503866271306652"><ele>1.3333333333333333</ele><time>2026-03-29T10:07:19Z</time></trkpt><trkpt lat="40.30258187355807" lon="17.503982402888383"><ele>2.6666666666666665</ele><time>2026-03-29T10:07:20Z</time></trkpt><trkpt lat="40.30243334903744" lon="17.504070671033983"><ele>4.0</ele><time>2026-03-29T10:07:21Z</time></trkpt><trkpt lat="40.30228027285135" lon="17.50415716261314"><ele>3.6666666666666665</ele><time>2026-03-29T10:07:22Z</time></trkpt><trkpt lat="40.30212500117161" lon="17.504222638903098"><ele>3.333333333333333</ele><time>2026-03-29T10:07:23Z</time></trkpt><trkpt lat="40.30195397907236" lon="17.504275160711238"><ele>3.0</ele><time>2026-03-29T10:07:24Z</time></trkpt><trkpt lat="40.30177459947741" lon="17.504330510475732"><ele>3.0</ele><time>2026-03-29T10:07:25Z</time></trkpt><trkpt lat="40.30159970417112" lon="17.50440892685394"><ele>3.0</ele><time>2026-03-29T10:07:26Z</time></trkpt><trkpt lat="40.30143543308771" lon="17.504462534623798"><ele>3.0</ele><time>2026-03-29T10:07:27Z</time></trkpt><trkpt lat="40.30128087526191" lon="17.50449478720278"><ele>3.0</ele><time>2026-03-29T10:07:28Z</time></trkpt><trkpt lat="40.3011450027031" lon="17.504541329577403"><ele>3.0</ele><time>2026-03-29T10:07:29Z</time></trkpt><trkpt lat="40.301013151524884" lon="17.50458446832838"><ele>3.0</ele><time>2026-03-29T10:07:30Z</time></trkpt><trkpt lat="40.300875645207874" lon="17.504628296061817"><ele>3.0</ele><time>2026-03-29T10:07:31Z</time></trkpt><trkpt lat="40.30073665370592" lon="17.504671281657398"><ele>4.5</ele><time>2026-03-29T10:07:32Z</time></trkpt><trkpt lat="40.30059652791891" lon="17.50471191498441"><ele>6.0</ele><time>2026-03-29T10:07:33Z</time></trkpt><trkpt lat="40.300457242901416" lon="17.50475491032038"><ele>7.5</ele><time>2026-03-29T10:07:34Z</time></trkpt><trkpt lat="40.30031816959118" lon="17.504803149829495"><ele>9.0</ele><time>2026-03-29T10:07:35Z</time></trkpt><trkpt lat="40.30017671765414" lon="17.504859780407678"><ele>9.0</ele><time>2026-03-29T10:07:36Z</time></trkpt><trkpt lat="40.30003916266479" lon="17.504912122678288"><ele>9.0</ele><time>2026-03-29T10:07:37Z</time></trkpt><trkpt lat="40.29990168847353" lon="17.504963325700945"><ele>9.0</ele><time>2026-03-29T10:07:38Z</time></trkpt><trkpt lat="40.29976016857608" lon="17.50501562215624"><ele>9.0</ele><time>2026-03-29T10:07:39Z</time></trkpt><trkpt lat="40.2996086241592" lon="17.505068434368177"><ele>7.666666666666667</ele><time>2026-03-29T10:07:40Z</time></trkpt><trkpt lat="40.299459536258745" lon="17.505120390677433"><ele>6.333333333333334</ele><time>2026-03-29T10:07:41Z</time></trkpt><trkpt lat="40.29930339381494" lon="17.50518261309021"><ele>5.0</ele><time>2026-03-29T10:07:42Z</time></trkpt><trkpt lat="40.29915299801781" lon="17.505254820794008"><ele>5.0</ele><time>2026-03-29T10:07:43Z</time></trkpt><trkpt lat="40.299006718396654" lon="17.505340259821043"><ele>5.0</ele><time>2026-03-29T10:07:44Z</time></trkpt><trkpt lat="40.29886670052863" lon="17.505436818980233"><ele>5.0</ele><time>2026-03-29T10:07:45Z</time></trkpt><trkpt lat="40.298734449490375" lon="17.505543075165"><ele>5.333333333333334</ele><time>2026-03-29T10:07:46Z</time></trkpt><trkpt lat="40.29860433276299" lon="17.505657428819486"><ele>5.666666666666667</ele><time>2026-03-29T10:07:47Z</time></trkpt><trkpt lat="40.29848649076426" lon="17.505800246062766"><ele>6.0</ele><time>2026-03-29T10:07:48Z</time></trkpt><trkpt lat="40.29835431378378" lon="17.50594598019038"><ele>6.0</ele><time>2026-03-29T10:07:49Z</time></trkpt><trkpt lat="40.29821416608298" lon="17.506081365890676"><ele>6.0</ele><time>2026-03-29T10:07:50Z</time></trkpt><trkpt lat="40.29808109502482" lon="17.50623423821654"><ele>6.0</ele><time>2026-03-29T10:07:51Z</time></trkpt><trkpt lat="40.2979566608955" lon="17.506377582649044"><ele>5.666666666666667</ele><time>2026-03-29T10:07:52Z</time></trkpt><trkpt lat="40.29784912886621" lon="17.50650287537165"><ele>5.333333333333334</ele><time>2026-03-29T10:07:53Z</time></trkpt><trkpt lat="40.29773069028575" lon="17.5066408760107"><ele>5.0</ele><time>2026-03-29T10:07:54Z</time></trkpt><trkpt lat="40.29759964113955" lon="17.506793570085616"><ele>5.0</ele><time>2026-03-29T10:07:55Z</time></trkpt><trkpt lat="40.29747700805543" lon="17.506936008748575"><ele>5.0</ele><time>2026-03-29T10:07:56Z</time></trkpt><trkpt lat="40.29736613782844" lon="17.507063278584358"><ele>5.0</ele><time>2026-03-29T10:07:57Z</time></trkpt><trkpt lat="40.29725890144318" lon="17.507186377077904"><ele>4.0</ele><time>2026-03-29T10:07:58Z</time></trkpt><trkpt lat="40.297138121556564" lon="17.507325047468576"><ele>3.0</ele><time>2026-03-29T10:07:59Z</time></trkpt><trkpt lat="40.297018699670154" lon="17.507462381936417"><ele>2.0</ele><time>2026-03-29T10:08:00Z</time></trkpt><trkpt lat="40.29689419296402" lon="17.50760556392921"><ele>2.0</ele><time>2026-03-29T10:08:01Z</time></trkpt><trkpt lat="40.2967796069685" lon="17.507737337195987"><ele>2.0</ele><time>2026-03-29T10:08:02Z</time></trkpt><trkpt lat="40.296674162592765" lon="17.507858597625752"><ele>2.0</ele><time>2026-03-29T10:08:03Z</time></trkpt><trkpt lat="40.29656480278339" lon="17.507984360752545"><ele>2.0</ele><time>2026-03-29T10:08:04Z</time></trkpt><trkpt lat="40.2964504359922" lon="17.508115881921036"><ele>1.3333333333333333</ele><time>2026-03-29T10:08:05Z</time></trkpt><trkpt lat="40.29633098335592" lon="17.508253251767307"><ele>0.6666666666666666</ele><time>2026-03-29T10:08:06Z</time></trkpt><trkpt lat="40.29621297843279" lon="17.50838985422901"><ele>0.0</ele><time>2026-03-29T10:08:07Z</time></trkpt><trkpt lat="40.29610500869559" lon="17.508515569839922"><ele>0.0</ele><time>2026-03-29T10:08:08Z</time></trkpt><trkpt lat="40.29600361976241" lon="17.508633623047512"><ele>0.0</ele><time>2026-03-29T10:08:09Z</time></trkpt><trkpt lat="40.295895558521785" lon="17.508761037452125"><ele>0.0</ele><time>2026-03-29T10:08:10Z</time></trkpt><trkpt lat="40.295784161116096" lon="17.508898333340923"><ele>0.0</ele><time>2026-03-29T10:08:11Z</time></trkpt><trkpt lat="40.29567961369668" lon="17.509045060057908"><ele>-0.25</ele><time>2026-03-29T10:08:12Z</time></trkpt><trkpt lat="40.295586218657995" lon="17.50918865001644"><ele>-0.5</ele><time>2026-03-29T10:08:13Z</time></trkpt><trkpt lat="40.29550000426856" lon="17.50933207798946"><ele>-0.75</ele><time>2026-03-29T10:08:14Z</time></trkpt><trkpt lat="40.295420562909406" lon="17.50949484448238"><ele>-1.0</ele><time>2026-03-29T10:08:15Z</time></trkpt><trkpt lat="40.29537091804191" lon="17.509656650163972"><ele>-0.5</ele><time>2026-03-29T10:08:16Z</time></trkpt><trkpt lat="40.29532160358833" lon="17.50979665220615"><ele>0.0</ele><time>2026-03-29T10:08:17Z</time></trkpt><trkpt lat="40.295284671018685" lon="17.50995484182576"><ele>0.5</ele><time>2026-03-29T10:08:18Z</time></trkpt><trkpt lat="40.29524076486792" lon="17.510121103467814"><ele>1.0</ele><time>2026-03-29T10:08:19Z</time></trkpt><trkpt lat="40.29522196049271" lon="17.510317237273124"><ele>0.6666666666666666</ele><time>2026-03-29T10:08:20Z</time></trkpt><trkpt lat="40.29520569066713" lon="17.51055594241276"><ele>0.3333333333333333</ele><time>2026-03-29T10:08:21Z</time></trkpt><trkpt lat="40.29519638905492" lon="17.51075539487062"><ele>0.0</ele><time>2026-03-29T10:08:22Z</time></trkpt><trkpt lat="40.295184567753175" lon="17.510990794800197"><ele>0.0</ele><time>2026-03-29T10:08:23Z</time></trkpt><trkpt lat="40.29518645874281" lon="17.51123865543343"><ele>0.0</ele><time>2026-03-29T10:08:24Z</time></trkpt><trkpt lat="40.29517057677688" lon="17.51147728486036"><ele>0.0</ele><time>2026-03-29T10:08:25Z</time></trkpt><trkpt lat="40.29515787411253" lon="17.51173641845105"><ele>0.3333333333333333</ele><time>2026-03-29T10:08:26Z</time></trkpt><trkpt lat="40.29514471284646" lon="17.511980359836137"><ele>0.6666666666666666</ele><time>2026-03-29T10:08:27Z</time></trkpt><trkpt lat="40.295136896457485" lon="17.512215300166055"><ele>1.0</ele><time>2026-03-29T10:08:28Z</time></trkpt><trkpt lat="40.295129170864406" lon="17.512450912742032"><ele>1.3333333333333333</ele><time>2026-03-29T10:08:29Z</time></trkpt><trkpt lat="40.295120493305205" lon="17.51268994370057"><ele>1.6666666666666665</ele><time>2026-03-29T10:08:30Z</time></trkpt><trkpt lat="40.295096594036316" lon="17.512936077191466"><ele>2.0</ele><time>2026-03-29T10:08:31Z</time></trkpt><trkpt lat="40.295086523207935" lon="17.51317665031645"><ele>2.0</ele><time>2026-03-29T10:08:32Z</time></trkpt><trkpt lat="40.295078326724735" lon="17.51339981367798"><ele>2.0</ele><time>2026-03-29T10:08:33Z</time></trkpt><trkpt lat="40.29507537184608" lon="17.513612703690256"><ele>2.0</ele><time>2026-03-29T10:08:34Z</time></trkpt><trkpt lat="40.295080548622686" lon="17.513839935736012"><ele>2.6666666666666665</ele><time>2026-03-29T10:08:35Z</time></trkpt><trkpt lat="40.29509465051895" lon="17.514069359927333"><ele>3.333333333333333</ele><time>2026-03-29T10:08:36Z</time></trkpt><trkpt lat="40.295114613774984" lon="17.514295772460343"><ele>4.0</ele><time>2026-03-29T10:08:37Z</time></trkpt><trkpt lat="40.2951359349303" lon="17.51452647288586"><ele>3.6666666666666665</ele><time>2026-03-29T10:08:38Z</time></trkpt><trkpt lat="40.29515658092867" lon="17.51474847669056"><ele>3.333333333333333</ele><time>2026-03-29T10:08:39Z</time></trkpt><trkpt lat="40.29517542805242" lon="17.514951137399414"><ele>3.0</ele><time>2026-03-29T10:08:40Z</time></trkpt><trkpt lat="40.29519353867543" lon="17.515148004781146"><ele>3.0</ele><time>2026-03-29T10:08:41Z</time></trkpt><trkpt lat="40.29521053833629" lon="17.515335793173158"><ele>3.0</ele><time>2026-03-29T10:08:42Z</time></trkpt><trkpt lat="40.29522805708691" lon="17.515528569394235"><ele>3.0</ele><time>2026-03-29T10:08:43.001Z</time></trkpt><trkpt lat="40.295245958313615" lon="17.515725554353224"><ele>3.0</ele><time>2026-03-29T10:08:44.001Z</time></trkpt><trkpt lat="40.29526380670144" lon="17.515919008446197"><ele>3.333333333333333</ele><time>2026-03-29T10:08:45.001Z</time></trkpt><trkpt lat="40.29528297454962" lon="17.5161225383545"><ele>3.6666666666666665</ele><time>2026-03-29T10:08:46.001Z</time></trkpt><trkpt lat="40.29530379304945" lon="17.516334900237847"><ele>4.0</ele><time>2026-03-29T10:08:47.001Z</time></trkpt><trkpt lat="40.295325641568475" lon="17.516558487887746"><ele>3.333333333333333</ele><time>2026-03-29T10:08:48.001Z</time></trkpt><trkpt lat="40.29535447844861" lon="17.516782207917785"><ele>2.6666666666666665</ele><time>2026-03-29T10:08:49.001Z</time></trkpt><trkpt lat="40.295376047730045" lon="17.51701607480197"><ele>2.0</ele><time>2026-03-29T10:08:50.001Z</time></trkpt><trkpt lat="40.2953994269006" lon="17.517256370199473"><ele>2.0</ele><time>2026-03-29T10:08:51.001Z</time></trkpt><trkpt lat="40.29542169120751" lon="17.517500688687694"><ele>2.0</ele><time>2026-03-29T10:08:52.001Z</time></trkpt><trkpt lat="40.29544428568282" lon="17.51776173876302"><ele>2.0</ele><time>2026-03-29T10:08:53.001Z</time></trkpt><trkpt lat="40.29547122864416" lon="17.518028983828355"><ele>2.333333333333333</ele><time>2026-03-29T10:08:54.001Z</time></trkpt><trkpt lat="40.29549616763026" lon="17.51829097906455"><ele>2.6666666666666665</ele><time>2026-03-29T10:08:55.001Z</time></trkpt><trkpt lat="40.29552320210064" lon="17.518553282677342"><ele>3.0</ele><time>2026-03-29T10:08:56.001Z</time></trkpt><trkpt lat="40.29555536784841" lon="17.518818139162196"><ele>3.0</ele><time>2026-03-29T10:08:57.001Z</time></trkpt><trkpt lat="40.295567817880986" lon="17.51907706672074"><ele>3.0</ele><time>2026-03-29T10:08:58.001Z</time></trkpt><trkpt lat="40.29560661299477" lon="17.51932059431697"><ele>3.0</ele><time>2026-03-29T10:08:59.001Z</time></trkpt><trkpt lat="40.29562821318045" lon="17.519580917364998"><ele>4.0</ele><time>2026-03-29T10:09:00.001Z</time></trkpt><trkpt lat="40.29564252533847" lon="17.5198475591251"><ele>5.0</ele><time>2026-03-29T10:09:01Z</time></trkpt><trkpt lat="40.29565520581048" lon="17.52011007221071"><ele>6.0</ele><time>2026-03-29T10:09:02Z</time></trkpt><trkpt lat="40.2956623631886" lon="17.52038299454073"><ele>5.666666666666667</ele><time>2026-03-29T10:09:03Z</time></trkpt><trkpt lat="40.29566692657942" lon="17.52066847696229"><ele>5.333333333333334</ele><time>2026-03-29T10:09:04Z</time></trkpt><trkpt lat="40.29566776355494" lon="17.520960129622548"><ele>5.0</ele><time>2026-03-29T10:09:05Z</time></trkpt><trkpt lat="40.29566984076791" lon="17.521250391189994"><ele>4.666666666666667</ele><time>2026-03-29T10:09:06Z</time></trkpt><trkpt lat="40.295675614835105" lon="17.52153531497749"><ele>4.333333333333333</ele><time>2026-03-29T10:09:07Z</time></trkpt><trkpt lat="40.295679273891835" lon="17.521799421416237"><ele>4.0</ele><time>2026-03-29T10:09:08Z</time></trkpt><trkpt lat="40.295684071099146" lon="17.522069628797283"><ele>4.0</ele><time>2026-03-29T10:09:09Z</time></trkpt><trkpt lat="40.29569061006632" lon="17.522353282966744"><ele>4.0</ele><time>2026-03-29T10:09:10Z</time></trkpt><trkpt lat="40.295697354076516" lon="17.522625516315784"><ele>4.0</ele><time>2026-03-29T10:09:11Z</time></trkpt><trkpt lat="40.2957000999666" lon="17.522895149342997"><ele>4.333333333333333</ele><time>2026-03-29T10:09:12Z</time></trkpt><trkpt lat="40.295703288847065" lon="17.52317607823422"><ele>4.666666666666667</ele><time>2026-03-29T10:09:13Z</time></trkpt><trkpt lat="40.29570779777594" lon="17.523457519681116"><ele>5.0</ele><time>2026-03-29T10:09:14Z</time></trkpt><trkpt lat="40.295712840034206" lon="17.523745205167124"><ele>5.333333333333334</ele><time>2026-03-29T10:09:15Z</time></trkpt><trkpt lat="40.29571515609526" lon="17.524037957049394"><ele>5.666666666666667</ele><time>2026-03-29T10:09:16Z</time></trkpt><trkpt lat="40.295719001787184" lon="17.524332316096675"><ele>6.0</ele><time>2026-03-29T10:09:17Z</time></trkpt><trkpt lat="40.295724715513735" lon="17.524632641695188"><ele>5.333333333333333</ele><time>2026-03-29T10:09:18Z</time></trkpt><trkpt lat="40.29572985788232" lon="17.524923011781592"><ele>4.666666666666666</ele><time>2026-03-29T10:09:19Z</time></trkpt><trkpt lat="40.29573160286919" lon="17.525202086249568"><ele>4.0</ele><time>2026-03-29T10:09:20Z</time></trkpt><trkpt lat="40.29573365226372" lon="17.525490983559898"><ele>3.6666666666666665</ele><time>2026-03-29T10:09:21Z</time></trkpt><trkpt lat="40.29573755924303" lon="17.525786514346425"><ele>3.333333333333333</ele><time>2026-03-29T10:09:22Z</time></trkpt><trkpt lat="40.29574232944642" lon="17.526069967580767"><ele>3.0</ele><time>2026-03-29T10:09:23Z</time></trkpt><trkpt lat="40.29574550004411" lon="17.52633756456601"><ele>3.0</ele><time>2026-03-29T10:09:24Z</time></trkpt><trkpt lat="40.295745819651046" lon="17.526593546756583"><ele>3.0</ele><time>2026-03-29T10:09:25Z</time></trkpt><trkpt lat="40.29574514317788" lon="17.52685543374762"><ele>3.0</ele><time>2026-03-29T10:09:26Z</time></trkpt><trkpt lat="40.295747789326754" lon="17.52712846968951"><ele>3.0</ele><time>2026-03-29T10:09:27Z</time></trkpt><trkpt lat="40.29575551085066" lon="17.52740590911385"><ele>3.0</ele><time>2026-03-29T10:09:28Z</time></trkpt><trkpt lat="40.29576158715223" lon="17.52768122605262"><ele>3.0</ele><time>2026-03-29T10:09:29Z</time></trkpt><trkpt lat="40.29576426394971" lon="17.527951691979286"><ele>3.333333333333333</ele><time>2026-03-29T10:09:30Z</time></trkpt><trkpt lat="40.29576479337298" lon="17.528222616628984"><ele>3.6666666666666665</ele><time>2026-03-29T10:09:31Z</time></trkpt><trkpt lat="40.29577038785516" lon="17.528495090719424"><ele>4.0</ele><time>2026-03-29T10:09:32Z</time></trkpt><trkpt lat="40.29577483639019" lon="17.528771336648337"><ele>4.0</ele><time>2026-03-29T10:09:33Z</time></trkpt><trkpt lat="40.29577563690549" lon="17.529051844865887"><ele>4.0</ele><time>2026-03-29T10:09:34Z</time></trkpt><trkpt lat="40.295776321759966" lon="17.52932572180347"><ele>4.0</ele><time>2026-03-29T10:09:35Z</time></trkpt><trkpt lat="40.29578038522092" lon="17.529600040587596"><ele>4.0</ele><time>2026-03-29T10:09:36Z</time></trkpt><trkpt lat="40.29578356562503" lon="17.52987635000053"><ele>4.0</ele><time>2026-03-29T10:09:37Z</time></trkpt><trkpt lat="40.29578511648168" lon="17.53014068089578"><ele>4.0</ele><time>2026-03-29T10:09:38Z</time></trkpt><trkpt lat="40.29578928452486" lon="17.53040298979713"><ele>3.6666666666666665</ele><time>2026-03-29T10:09:39Z</time></trkpt><trkpt lat="40.295791923710595" lon="17.530659530294386"><ele>3.333333333333333</ele><time>2026-03-29T10:09:40Z</time></trkpt><trkpt lat="40.295794900864124" lon="17.530919434712363"><ele>3.0</ele><time>2026-03-29T10:09:41Z</time></trkpt><trkpt lat="40.295804115558106" lon="17.531169860635725"><ele>3.333333333333333</ele><time>2026-03-29T10:09:42Z</time></trkpt><trkpt lat="40.29582459281427" lon="17.531439695046412"><ele>3.6666666666666665</ele><time>2026-03-29T10:09:43Z</time></trkpt><trkpt lat="40.2958615116106" lon="17.53171647996642"><ele>4.0</ele><time>2026-03-29T10:09:44Z</time></trkpt><trkpt lat="40.295907680407474" lon="17.531989030145642"><ele>3.333333333333333</ele><time>2026-03-29T10:09:45Z</time></trkpt><trkpt lat="40.29597179682708" lon="17.532251706029843"><ele>2.6666666666666665</ele><time>2026-03-29T10:09:46Z</time></trkpt><trkpt lat="40.296039767355325" lon="17.532511911976297"><ele>2.0</ele><time>2026-03-29T10:09:47Z</time></trkpt><trkpt lat="40.29610750133811" lon="17.532777011914895"><ele>1.6666666666666665</ele><time>2026-03-29T10:09:48Z</time></trkpt><trkpt lat="40.29617451319509" lon="17.533045399580335"><ele>1.3333333333333333</ele><time>2026-03-29T10:09:49Z</time></trkpt><trkpt lat="40.29624008537723" lon="17.53331542825604"><ele>1.0</ele><time>2026-03-29T10:09:50Z</time></trkpt><trkpt lat="40.296307134355025" lon="17.53358285408623"><ele>1.0</ele><time>2026-03-29T10:09:51Z</time></trkpt><trkpt lat="40.29636595014939" lon="17.53383670682764"><ele>1.0</ele><time>2026-03-29T10:09:52Z</time></trkpt><trkpt lat="40.29642753288046" lon="17.5340854935835"><ele>1.0</ele><time>2026-03-29T10:09:53Z</time></trkpt><trkpt lat="40.296491304963325" lon="17.534337628639364"><ele>2.0</ele><time>2026-03-29T10:09:54Z</time></trkpt><trkpt lat="40.2965544170734" lon="17.534577299617368"><ele>3.0</ele><time>2026-03-29T10:09:55Z</time></trkpt><trkpt lat="40.29661800542035" lon="17.53481117559932"><ele>4.0</ele><time>2026-03-29T10:09:56Z</time></trkpt><trkpt lat="40.29668328811722" lon="17.535048162832926"><ele>4.0</ele><time>2026-03-29T10:09:57Z</time></trkpt><trkpt lat="40.29675370708091" lon="17.535301452543866"><ele>4.0</ele><time>2026-03-29T10:09:58Z</time></trkpt><trkpt lat="40.29682384939265" lon="17.535543107204393"><ele>4.0</ele><time>2026-03-29T10:09:59Z</time></trkpt><trkpt lat="40.296876058007136" lon="17.53577099365783"><ele>3.333333333333333</ele><time>2026-03-29T10:10:00Z</time></trkpt><trkpt lat="40.296919476799204" lon="17.535988559571663"><ele>2.6666666666666665</ele><time>2026-03-29T10:10:01Z</time></trkpt><trkpt lat="40.29697037759817" lon="17.536210072806327"><ele>2.0</ele><time>2026-03-29T10:10:02Z</time></trkpt><trkpt lat="40.29702829598896" lon="17.53642712510127"><ele>1.6666666666666665</ele><time>2026-03-29T10:10:03Z</time></trkpt><trkpt lat="40.29708382055989" lon="17.53665188690057"><ele>1.3333333333333333</ele><time>2026-03-29T10:10:04Z</time></trkpt><trkpt lat="40.29713819451946" lon="17.536882085114737"><ele>1.0</ele><time>2026-03-29T10:10:05Z</time></trkpt><trkpt lat="40.29718780709523" lon="17.53709929187584"><ele>1.0</ele><time>2026-03-29T10:10:06Z</time></trkpt><trkpt lat="40.29723938229251" lon="17.537317713070927"><ele>1.0</ele><time>2026-03-29T10:10:07Z</time></trkpt><trkpt lat="40.297295467516534" lon="17.537538291124864"><ele>1.0</ele><time>2026-03-29T10:10:08Z</time></trkpt><trkpt lat="40.297362240877526" lon="17.537766489027064"><ele>1.6666666666666665</ele><time>2026-03-29T10:10:09Z</time></trkpt><trkpt lat="40.297423952344595" lon="17.537989626527132"><ele>2.3333333333333335</ele><time>2026-03-29T10:10:10Z</time></trkpt><trkpt lat="40.29747034816229" lon="17.538222553989545"><ele>3.0</ele><time>2026-03-29T10:10:11Z</time></trkpt><trkpt lat="40.29751932752619" lon="17.538420149374748"><ele>3.0</ele><time>2026-03-29T10:10:12Z</time></trkpt><trkpt lat="40.297554898240904" lon="17.53863843942831"><ele>3.0</ele><time>2026-03-29T10:10:13Z</time></trkpt><trkpt lat="40.297587903518995" lon="17.538869587177327"><ele>3.0</ele><time>2026-03-29T10:10:14Z</time></trkpt><trkpt lat="40.2976263340149" lon="17.53908895382997"><ele>3.0</ele><time>2026-03-29T10:10:15Z</time></trkpt><trkpt lat="40.29766683116646" lon="17.539310017138547"><ele>3.0</ele><time>2026-03-29T10:10:16Z</time></trkpt><trkpt lat="40.29771664221292" lon="17.53955711261838"><ele>3.0</ele><time>2026-03-29T10:10:17Z</time></trkpt><trkpt lat="40.29776650818862" lon="17.539805961031348"><ele>3.333333333333333</ele><time>2026-03-29T10:10:18Z</time></trkpt><trkpt lat="40.297818270842455" lon="17.54005591216828"><ele>3.6666666666666665</ele><time>2026-03-29T10:10:19Z</time></trkpt><trkpt lat="40.29786484207847" lon="17.5403164292879"><ele>4.0</ele><time>2026-03-29T10:10:20Z</time></trkpt><trkpt lat="40.297911525740936" lon="17.54056589182992"><ele>4.0</ele><time>2026-03-29T10:10:21Z</time></trkpt><trkpt lat="40.297957961371665" lon="17.54082070914048"><ele>4.0</ele><time>2026-03-29T10:10:22Z</time></trkpt><trkpt lat="40.29800488102857" lon="17.541053111013863"><ele>4.0</ele><time>2026-03-29T10:10:22.999Z</time></trkpt><trkpt lat="40.298048750494466" lon="17.541286022920445"><ele>4.0</ele><time>2026-03-29T10:10:23.999Z</time></trkpt><trkpt lat="40.29809647490089" lon="17.541525062874015"><ele>4.0</ele><time>2026-03-29T10:10:24.999Z</time></trkpt><trkpt lat="40.29815406266833" lon="17.54178018595917"><ele>4.0</ele><time>2026-03-29T10:10:25.999Z</time></trkpt><trkpt lat="40.298223110581" lon="17.542016649308046"><ele>4.333333333333333</ele><time>2026-03-29T10:10:26.999Z</time></trkpt><trkpt lat="40.29832121730039" lon="17.54224178677353"><ele>4.666666666666667</ele><time>2026-03-29T10:10:27.999Z</time></trkpt><trkpt lat="40.29841542145378" lon="17.54245356865586"><ele>5.0</ele><time>2026-03-29T10:10:28.999Z</time></trkpt><trkpt lat="40.2985334340604" lon="17.54265938269793"><ele>5.0</ele><time>2026-03-29T10:10:29.999Z</time></trkpt><trkpt lat="40.29865553069741" lon="17.542855327872854"><ele>5.0</ele><time>2026-03-29T10:10:30.999Z</time></trkpt><trkpt lat="40.29878347487187" lon="17.543043385792362"><ele>5.0</ele><time>2026-03-29T10:10:31.999Z</time></trkpt><trkpt lat="40.29892811698981" lon="17.543226308258987"><ele>5.333333333333334</ele><time>2026-03-29T10:10:32.999Z</time></trkpt><trkpt lat="40.29907239066133" lon="17.543423400080858"><ele>5.666666666666667</ele><time>2026-03-29T10:10:33.999Z</time></trkpt><trkpt lat="40.299205482440534" lon="17.543605988815706"><ele>6.0</ele><time>2026-03-29T10:10:34.999Z</time></trkpt><trkpt lat="40.299336885025305" lon="17.543782626668037"><ele>6.0</ele><time>2026-03-29T10:10:35.999Z</time></trkpt><trkpt lat="40.299459671559156" lon="17.543946288876306"><ele>6.0</ele><time>2026-03-29T10:10:36.999Z</time></trkpt><trkpt lat="40.299575258710504" lon="17.544101572075782"><ele>6.0</ele><time>2026-03-29T10:10:37.999Z</time></trkpt><trkpt lat="40.29968193690284" lon="17.544248290802756"><ele>5.5</ele><time>2026-03-29T10:10:38.999Z</time></trkpt><trkpt lat="40.299780708294605" lon="17.54439298766556"><ele>5.0</ele><time>2026-03-29T10:10:39.999Z</time></trkpt><trkpt lat="40.29986048970419" lon="17.54454791173946"><ele>4.5</ele><time>2026-03-29T10:10:40.999Z</time></trkpt><trkpt lat="40.29992652549544" lon="17.544713196948695"><ele>4.0</ele><time>2026-03-29T10:10:41.999Z</time></trkpt><trkpt lat="40.299971877249035" lon="17.5449009378353"><ele>4.0</ele><time>2026-03-29T10:10:42.999Z</time></trkpt><trkpt lat="40.30000009412926" lon="17.545100412939256"><ele>4.0</ele><time>2026-03-29T10:10:43.999Z</time></trkpt><trkpt lat="40.3000334113833" lon="17.54533685924639"><ele>4.0</ele><time>2026-03-29T10:10:44.999Z</time></trkpt><trkpt lat="40.300020087607926" lon="17.545578616590007"><ele>5.333333333333333</ele><time>2026-03-29T10:10:45.999Z</time></trkpt><trkpt lat="40.30001552725611" lon="17.54582123474395"><ele>6.666666666666666</ele><time>2026-03-29T10:10:46.999Z</time></trkpt><trkpt lat="40.30000484194752" lon="17.546087774350354"><ele>8.0</ele><time>2026-03-29T10:10:47.999Z</time></trkpt><trkpt lat="40.29999789290478" lon="17.546361760524807"><ele>8.666666666666666</ele><time>2026-03-29T10:10:49Z</time></trkpt><trkpt lat="40.2999947596686" lon="17.54665127858929"><ele>9.333333333333334</ele><time>2026-03-29T10:10:50Z</time></trkpt><trkpt lat="40.3000007371406" lon="17.546930131738733"><ele>10.0</ele><time>2026-03-29T10:10:51Z</time></trkpt><trkpt lat="40.29999953603486" lon="17.54719152053055"><ele>10.333333333333334</ele><time>2026-03-29T10:10:52Z</time></trkpt><trkpt lat="40.30000314743932" lon="17.547443640711343"><ele>10.666666666666666</ele><time>2026-03-29T10:10:53Z</time></trkpt><trkpt lat="40.300005588972894" lon="17.5476916886462"><ele>11.0</ele><time>2026-03-29T10:10:54Z</time></trkpt><trkpt lat="40.30000752684644" lon="17.547961273823834"><ele>11.0</ele><time>2026-03-29T10:10:55Z</time></trkpt><trkpt lat="40.3000098628246" lon="17.54820673946408"><ele>11.0</ele><time>2026-03-29T10:10:56Z</time></trkpt><trkpt lat="40.30001181189366" lon="17.54842049281808"><ele>11.0</ele><time>2026-03-29T10:10:57Z</time></trkpt><trkpt lat="40.30001271243015" lon="17.548631126193467"><ele>10.75</ele><time>2026-03-29T10:10:58Z</time></trkpt><trkpt lat="40.30000913967277" lon="17.548825092832647"><ele>10.5</ele><time>2026-03-29T10:10:59Z</time></trkpt><trkpt lat="40.2999972010518" lon="17.54901628128324"><ele>10.25</ele><time>2026-03-29T10:11:00Z</time></trkpt><trkpt lat="40.29996518960744" lon="17.54918764160733"><ele>10.0</ele><time>2026-03-29T10:11:01Z</time></trkpt><trkpt lat="40.29994491242975" lon="17.54937615291356"><ele>9.666666666666668</ele><time>2026-03-29T10:11:02Z</time></trkpt><trkpt lat="40.29991710571128" lon="17.54956978828071"><ele>9.333333333333334</ele><time>2026-03-29T10:11:03Z</time></trkpt><trkpt lat="40.29996476907525" lon="17.549795141778674"><ele>9.0</ele><time>2026-03-29T10:11:04Z</time></trkpt><trkpt lat="40.29996035222157" lon="17.550048071574665"><ele>9.0</ele><time>2026-03-29T10:11:05Z</time></trkpt><trkpt lat="40.29992322907157" lon="17.550256895354178"><ele>9.0</ele><time>2026-03-29T10:11:06Z</time></trkpt><trkpt lat="40.29988803301818" lon="17.550491001197585"><ele>9.0</ele><time>2026-03-29T10:11:07Z</time></trkpt><trkpt lat="40.29985231123716" lon="17.550734425581208"><ele>9.333333333333334</ele><time>2026-03-29T10:11:08Z</time></trkpt><trkpt lat="40.29980817826861" lon="17.55097679770422"><ele>9.666666666666668</ele><time>2026-03-29T10:11:09Z</time></trkpt><trkpt lat="40.29975952039471" lon="17.551215797314157"><ele>10.0</ele><time>2026-03-29T10:11:10Z</time></trkpt><trkpt lat="40.29972392743256" lon="17.551456636597607"><ele>10.0</ele><time>2026-03-29T10:11:11Z</time></trkpt><trkpt lat="40.29968654787983" lon="17.551701591823747"><ele>10.0</ele><time>2026-03-29T10:11:12Z</time></trkpt><trkpt lat="40.2996468718712" lon="17.551913024090148"><ele>10.0</ele><time>2026-03-29T10:11:13Z</time></trkpt><trkpt lat="40.299596879046604" lon="17.55213757052607"><ele>9.333333333333334</ele><time>2026-03-29T10:11:14Z</time></trkpt><trkpt lat="40.2995629156352" lon="17.55234056167717"><ele>8.666666666666666</ele><time>2026-03-29T10:11:15Z</time></trkpt><trkpt lat="40.29952473751555" lon="17.55255407020467"><ele>8.0</ele><time>2026-03-29T10:11:16Z</time></trkpt><trkpt lat="40.29948503518377" lon="17.552770986013723"><ele>7.0</ele><time>2026-03-29T10:11:17Z</time></trkpt><trkpt lat="40.299421514804045" lon="17.552981164281814"><ele>6.0</ele><time>2026-03-29T10:11:18Z</time></trkpt><trkpt lat="40.299405155597086" lon="17.553161259618676"><ele>5.0</ele><time>2026-03-29T10:11:19Z</time></trkpt><trkpt lat="40.29938023546732" lon="17.553305026186813"><ele>4.0</ele><time>2026-03-29T10:11:20Z</time></trkpt><trkpt lat="40.29935874148822" lon="17.553408927789174"><ele>4.0</ele><time>2026-03-29T10:11:21Z</time></trkpt><trkpt lat="40.299341107735295" lon="17.553533715192597"><ele>4.0</ele><time>2026-03-29T10:11:22Z</time></trkpt><trkpt lat="40.29933683895368" lon="17.55370201511676"><ele>4.0</ele><time>2026-03-29T10:11:24Z</time></trkpt><trkpt lat="40.299314082883235" lon="17.553804857906513"><ele>4.0</ele><time>2026-03-29T10:11:25Z</time></trkpt><trkpt lat="40.29931339648947" lon="17.55392277763535"><ele>4.0</ele><time>2026-03-29T10:11:26Z</time></trkpt><trkpt lat="40.299302094062796" lon="17.554058718989182"><ele>4.0</ele><time>2026-03-29T10:11:27Z</time></trkpt><trkpt lat="40.299276576821825" lon="17.55417797266675"><ele>4.0</ele><time>2026-03-29T10:11:28Z</time></trkpt><trkpt lat="40.29928858011261" lon="17.55433364361638"><ele>4.0</ele><time>2026-03-29T10:11:29Z</time></trkpt><trkpt lat="40.29929353636601" lon="17.554473028180055"><ele>4.0</ele><time>2026-03-29T10:11:30Z</time></trkpt><trkpt lat="40.299306917835196" lon="17.554590429128872"><ele>4.0</ele><time>2026-03-29T10:11:31Z</time></trkpt><trkpt lat="40.29931271528229" lon="17.554710735907893"><ele>4.0</ele><time>2026-03-29T10:11:32Z</time></trkpt><trkpt lat="40.29932731178858" lon="17.554824462188307"><ele>4.0</ele><time>2026-03-29T10:11:33Z</time></trkpt><trkpt lat="40.2993345334195" lon="17.55497467178584"><ele>4.0</ele><time>2026-03-29T10:11:34Z</time></trkpt><trkpt lat="40.29934457341756" lon="17.55513034997731"><ele>4.0</ele><time>2026-03-29T10:11:35Z</time></trkpt><trkpt lat="40.299351085699115" lon="17.555306368708315"><ele>3.75</ele><time>2026-03-29T10:11:36Z</time></trkpt><trkpt lat="40.29936288734378" lon="17.55546996196607"><ele>3.5</ele><time>2026-03-29T10:11:37Z</time></trkpt><trkpt lat="40.29937290194141" lon="17.555626405940224"><ele>3.25</ele><time>2026-03-29T10:11:38Z</time></trkpt><trkpt lat="40.299381876300764" lon="17.55577520715428"><ele>3.0</ele><time>2026-03-29T10:11:39Z</time></trkpt><trkpt lat="40.29939359473336" lon="17.555930192373705"><ele>3.0</ele><time>2026-03-29T10:11:40Z</time></trkpt><trkpt lat="40.29938631272725" lon="17.556101433371204"><ele>3.0</ele><time>2026-03-29T10:11:41Z</time></trkpt><trkpt lat="40.299398530902316" lon="17.556288270653084"><ele>3.0</ele><time>2026-03-29T10:11:42Z</time></trkpt><trkpt lat="40.29942396836872" lon="17.556438496384214"><ele>3.0</ele><time>2026-03-29T10:11:43Z</time></trkpt><trkpt lat="40.2994272849902" lon="17.55655298709077"><ele>3.2</ele><time>2026-03-29T10:11:44Z</time></trkpt><trkpt lat="40.299430208410094" lon="17.55666606859089"><ele>3.4</ele><time>2026-03-29T10:11:45Z</time></trkpt><trkpt lat="40.29944393267312" lon="17.556795945125906"><ele>3.6000000000000005</ele><time>2026-03-29T10:11:46Z</time></trkpt><trkpt lat="40.29944920924139" lon="17.556879377741176"><ele>3.8000000000000003</ele><time>2026-03-29T10:11:47Z</time></trkpt><trkpt lat="40.299436140982216" lon="17.55704111877516"><ele>4.0</ele><time>2026-03-29T10:11:49Z</time></trkpt><trkpt lat="40.2994307726841" lon="17.557177077295215"><ele>4.25</ele><time>2026-03-29T10:11:50Z</time></trkpt><trkpt lat="40.29941448704714" lon="17.55737075768535"><ele>4.5</ele><time>2026-03-29T10:11:51Z</time></trkpt><trkpt lat="40.299420096818565" lon="17.557530486726346"><ele>4.75</ele><time>2026-03-29T10:11:52Z</time></trkpt><trkpt lat="40.29937997432203" lon="17.557646174649733"><ele>5.0</ele><time>2026-03-29T10:11:53Z</time></trkpt><trkpt lat="40.2993343407752" lon="17.557764276966367"><ele>5.0</ele><time>2026-03-29T10:11:54Z</time></trkpt><trkpt lat="40.299284300021014" lon="17.55790453911743"><ele>5.0</ele><time>2026-03-29T10:11:55Z</time></trkpt><trkpt lat="40.299227545776134" lon="17.558060687658546"><ele>5.0</ele><time>2026-03-29T10:11:56Z</time></trkpt><trkpt lat="40.29916342991628" lon="17.558230781300217"><ele>5.0</ele><time>2026-03-29T10:11:56.999Z</time></trkpt><trkpt lat="40.29909468444237" lon="17.558395936793843"><ele>5.0</ele><time>2026-03-29T10:11:57.999Z</time></trkpt><trkpt lat="40.29903190801582" lon="17.558549195846755"><ele>5.0</ele><time>2026-03-29T10:11:58.999Z</time></trkpt><trkpt lat="40.29896944915466" lon="17.558725289695108"><ele>5.0</ele><time>2026-03-29T10:11:59.999Z</time></trkpt><trkpt lat="40.298913096842206" lon="17.558879666843147"><ele>5.0</ele><time>2026-03-29T10:12:00.999Z</time></trkpt><trkpt lat="40.29884993128752" lon="17.559049436257535"><ele>4.25</ele><time>2026-03-29T10:12:01.999Z</time></trkpt><trkpt lat="40.298797863691284" lon="17.559200242700687"><ele>3.5</ele><time>2026-03-29T10:12:02.999Z</time></trkpt><trkpt lat="40.29874554345819" lon="17.559366017334497"><ele>2.75</ele><time>2026-03-29T10:12:03.999Z</time></trkpt><trkpt lat="40.29869947873314" lon="17.559543494823412"><ele>2.0</ele><time>2026-03-29T10:12:04.999Z</time></trkpt><trkpt lat="40.298669761646174" lon="17.5597313732462"><ele>2.0</ele><time>2026-03-29T10:12:05.999Z</time></trkpt><trkpt lat="40.29865948788133" lon="17.559899467489668"><ele>2.0</ele><time>2026-03-29T10:12:06.999Z</time></trkpt><trkpt lat="40.29865857183665" lon="17.56003999646465"><ele>2.0</ele><time>2026-03-29T10:12:07.999Z</time></trkpt><trkpt lat="40.2986620967714" lon="17.560150340423984"><ele>2.0</ele><time>2026-03-29T10:12:08.999Z</time></trkpt><trkpt lat="40.298667107778414" lon="17.56023825300395"><ele>2.0</ele><time>2026-03-29T10:12:09.999Z</time></trkpt><trkpt lat="40.29867986380473" lon="17.560362482169626"><ele>2.2</ele><time>2026-03-29T10:12:11.999Z</time></trkpt><trkpt lat="40.298698576591164" lon="17.560491753201113"><ele>2.4000000000000004</ele><time>2026-03-29T10:12:14.999Z</time></trkpt><trkpt lat="40.29871944105024" lon="17.560642264245608"><ele>2.5999999999999996</ele><time>2026-03-29T10:12:16.999Z</time></trkpt><trkpt lat="40.29873387677762" lon="17.560755479923603"><ele>2.8</ele><time>2026-03-29T10:12:17.999Z</time></trkpt><trkpt lat="40.29874745584031" lon="17.56086747394148"><ele>3.0</ele><time>2026-03-29T10:12:18.999Z</time></trkpt><trkpt lat="40.29876141795586" lon="17.560955639138967"><ele>3.0</ele><time>2026-03-29T10:12:19.999Z</time></trkpt><trkpt lat="40.298771123261325" lon="17.561041617903378"><ele>3.0</ele><time>2026-03-29T10:12:20.999Z</time></trkpt><trkpt lat="40.298785364022436" lon="17.56114325010614"><ele>3.0</ele><time>2026-03-29T10:12:21.999Z</time></trkpt><trkpt lat="40.29879066279085" lon="17.56123818234195"><ele>3.0</ele><time>2026-03-29T10:12:22.999Z</time></trkpt><trkpt lat="40.29882051553271" lon="17.561385788740637"><ele>3.0</ele><time>2026-03-29T10:12:24.999Z</time></trkpt><trkpt lat="40.298817377417215" lon="17.561520505102745"><ele>3.0</ele><time>2026-03-29T10:12:27.999Z</time></trkpt><trkpt lat="40.298842758894274" lon="17.561628302443907"><ele>2.8</ele><time>2026-03-29T10:12:29.999Z</time></trkpt><trkpt lat="40.29885699815682" lon="17.561729655466404"><ele>2.5999999999999996</ele><time>2026-03-29T10:12:31.999Z</time></trkpt><trkpt lat="40.298879005181696" lon="17.561841223673706"><ele>2.4000000000000004</ele><time>2026-03-29T10:12:33.999Z</time></trkpt><trkpt lat="40.29889552669032" lon="17.56199289256462"><ele>2.2</ele><time>2026-03-29T10:12:35.999Z</time></trkpt><trkpt lat="40.298923928614826" lon="17.562131769655483"><ele>2.0</ele><time>2026-03-29T10:12:37.999Z</time></trkpt><trkpt lat="40.29894191458335" lon="17.562280080474707"><ele>3.1666666666666665</ele><time>2026-03-29T10:12:39.999Z</time></trkpt><trkpt lat="40.29895891637025" lon="17.562405873503003"><ele>4.333333333333333</ele><time>2026-03-29T10:12:41.999Z</time></trkpt><trkpt lat="40.298969114777115" lon="17.56249784903909"><ele>5.5</ele><time>2026-03-29T10:12:42.999Z</time></trkpt><trkpt lat="40.29898343423502" lon="17.562588103452637"><ele>6.666666666666667</ele><time>2026-03-29T10:12:43.999Z</time></trkpt><trkpt lat="40.298996646655" lon="17.5626877845095"><ele>7.833333333333333</ele><time>2026-03-29T10:12:44.999Z</time></trkpt><trkpt lat="40.29900805583185" lon="17.5627756367441"><ele>9.0</ele><time>2026-03-29T10:12:45.999Z</time></trkpt><trkpt lat="40.29900364979984" lon="17.562942738591943"><ele>9.166666666666666</ele><time>2026-03-29T10:12:47.999Z</time></trkpt><trkpt lat="40.299015742175506" lon="17.563025133468816"><ele>9.333333333333334</ele><time>2026-03-29T10:12:48.999Z</time></trkpt><trkpt lat="40.299030959549206" lon="17.563138184171667"><ele>9.5</ele><time>2026-03-29T10:12:49.999Z</time></trkpt><trkpt lat="40.29904532235979" lon="17.56324488633789"><ele>9.666666666666668</ele><time>2026-03-29T10:12:50.999Z</time></trkpt><trkpt lat="40.299058961126384" lon="17.56334977627016"><ele>9.833333333333334</ele><time>2026-03-29T10:12:51.999Z</time></trkpt><trkpt lat="40.299105697632804" lon="17.563447082456882"><ele>10.0</ele><time>2026-03-29T10:12:52.999Z</time></trkpt><trkpt lat="40.29911303799625" lon="17.563565468613636"><ele>10.0</ele><time>2026-03-29T10:12:53.999Z</time></trkpt><trkpt lat="40.29911550954861" lon="17.563656938852173"><ele>10.0</ele><time>2026-03-29T10:12:57Z</time></trkpt><trkpt lat="40.299105305494194" lon="17.563783931751768"><ele>10.0</ele><time>2026-03-29T10:13:00Z</time></trkpt><trkpt lat="40.29911786539911" lon="17.563952521406783"><ele>10.0</ele><time>2026-03-29T10:13:02Z</time></trkpt><trkpt lat="40.29914085163738" lon="17.56406490473401"><ele>10.0</ele><time>2026-03-29T10:13:04Z</time></trkpt><trkpt lat="40.29915374523505" lon="17.5641619739556"><ele>9.571428571428571</ele><time>2026-03-29T10:13:06Z</time></trkpt><trkpt lat="40.2991688683844" lon="17.564261646819983"><ele>9.142857142857142</ele><time>2026-03-29T10:13:09Z</time></trkpt><trkpt lat="40.29918820210845" lon="17.564340253449988"><ele>8.714285714285715</ele><time>2026-03-29T10:13:11Z</time></trkpt><trkpt lat="40.29921974752511" lon="17.564415405112058"><ele>8.285714285714285</ele><time>2026-03-29T10:13:14Z</time></trkpt><trkpt lat="40.29923163115848" lon="17.564499483375005"><ele>7.857142857142858</ele><time>2026-03-29T10:13:17Z</time></trkpt><trkpt lat="40.29924640282274" lon="17.564602246353136"><ele>7.428571428571429</ele><time>2026-03-29T10:14:01.999Z</time></trkpt><trkpt lat="40.299287756310825" lon="17.56468764067868"><ele>7.0</ele><time>2026-03-29T10:14:04.999Z</time></trkpt><trkpt lat="40.299292988974756" lon="17.564780850671244"><ele>6.333333333333334</ele><time>2026-03-29T10:14:06.999Z</time></trkpt><trkpt lat="40.29931052951684" lon="17.564921821902914"><ele>5.666666666666667</ele><time>2026-03-29T10:14:08.999Z</time></trkpt><trkpt lat="40.29931141159242" lon="17.56502105134133"><ele>5.0</ele><time>2026-03-29T10:14:09.999Z</time></trkpt><trkpt lat="40.29932831839242" lon="17.565126966003692"><ele>4.333333333333334</ele><time>2026-03-29T10:14:10.999Z</time></trkpt><trkpt lat="40.29934648474136" lon="17.565238140954893"><ele>3.666666666666667</ele><time>2026-03-29T10:14:11.999Z</time></trkpt><trkpt lat="40.29936553947445" lon="17.565358941715672"><ele>3.0</ele><time>2026-03-29T10:14:12.999Z</time></trkpt><trkpt lat="40.29938493186626" lon="17.565497735820177"><ele>2.5</ele><time>2026-03-29T10:14:13.999Z</time></trkpt><trkpt lat="40.299402743570056" lon="17.56562681922051"><ele>2.0</ele><time>2026-03-29T10:14:14.999Z</time></trkpt><trkpt lat="40.299418211128895" lon="17.565729506163272"><ele>1.5</ele><time>2026-03-29T10:14:15.999Z</time></trkpt><trkpt lat="40.29943236211461" lon="17.565827721372685"><ele>1.0</ele><time>2026-03-29T10:14:16.999Z</time></trkpt><trkpt lat="40.29944844750332" lon="17.56594385270352"><ele>0.5</ele><time>2026-03-29T10:14:17.999Z</time></trkpt><trkpt lat="40.299463667608975" lon="17.566052623538294"><ele>0.0</ele><time>2026-03-29T10:14:18.999Z</time></trkpt><trkpt lat="40.29947696535057" lon="17.56616351461813"><ele>0.0</ele><time>2026-03-29T10:14:19.999Z</time></trkpt><trkpt lat="40.29949236600285" lon="17.566287742282828"><ele>0.0</ele><time>2026-03-29T10:14:20.999Z</time></trkpt><trkpt lat="40.29951641365926" lon="17.566409639558916"><ele>0.0</ele><time>2026-03-29T10:14:21.999Z</time></trkpt><trkpt lat="40.29954773770596" lon="17.566569334858556"><ele>0.0</ele><time>2026-03-29T10:14:22.999Z</time></trkpt><trkpt lat="40.2995573788555" lon="17.566727004574787"><ele>0.0</ele><time>2026-03-29T10:14:23.999Z</time></trkpt><trkpt lat="40.29957436045841" lon="17.566880718547406"><ele>0.5</ele><time>2026-03-29T10:14:24.999Z</time></trkpt><trkpt lat="40.29959997279096" lon="17.567058453938355"><ele>1.0</ele><time>2026-03-29T10:14:25.999Z</time></trkpt><trkpt lat="40.29961846426431" lon="17.5672373319264"><ele>1.5</ele><time>2026-03-29T10:14:26.999Z</time></trkpt><trkpt lat="40.29963854594404" lon="17.56741227454493"><ele>2.0</ele><time>2026-03-29T10:14:27.999Z</time></trkpt><trkpt lat="40.299654528307805" lon="17.56757039456388"><ele>2.0</ele><time>2026-03-29T10:14:28.999Z</time></trkpt><trkpt lat="40.299683548834096" lon="17.567722749969807"><ele>2.0</ele><time>2026-03-29T10:14:29.999Z</time></trkpt><trkpt lat="40.29970388710958" lon="17.56788221262999"><ele>2.0</ele><time>2026-03-29T10:14:30.999Z</time></trkpt><trkpt lat="40.29972736460884" lon="17.56805655888255"><ele>2.0</ele><time>2026-03-29T10:14:31.999Z</time></trkpt><trkpt lat="40.29975034471682" lon="17.5682406699199"><ele>2.25</ele><time>2026-03-29T10:14:32.999Z</time></trkpt><trkpt lat="40.299776819201725" lon="17.568408421890084"><ele>2.5</ele><time>2026-03-29T10:14:33.999Z</time></trkpt><trkpt lat="40.299767540493335" lon="17.568571679613814"><ele>2.75</ele><time>2026-03-29T10:14:34.999Z</time></trkpt><trkpt lat="40.2997858328647" lon="17.568732940223644"><ele>3.0</ele><time>2026-03-29T10:14:35.999Z</time></trkpt><trkpt lat="40.299804443933446" lon="17.568924827338705"><ele>3.333333333333333</ele><time>2026-03-29T10:14:36.999Z</time></trkpt><trkpt lat="40.299819219023874" lon="17.56911923715701"><ele>3.6666666666666665</ele><time>2026-03-29T10:14:37.999Z</time></trkpt><trkpt lat="40.299824663566625" lon="17.569312770540204"><ele>4.0</ele><time>2026-03-29T10:14:38.999Z</time></trkpt><trkpt lat="40.299823089578425" lon="17.56952318611356"><ele>5.0</ele><time>2026-03-29T10:14:39.999Z</time></trkpt><trkpt lat="40.29980969296303" lon="17.569750843225272"><ele>6.0</ele><time>2026-03-29T10:14:40.999Z</time></trkpt><trkpt lat="40.29978978349083" lon="17.569965234292486"><ele>7.0</ele><time>2026-03-29T10:14:41.999Z</time></trkpt><trkpt lat="40.29976719576904" lon="17.57015910327523"><ele>5.666666666666667</ele><time>2026-03-29T10:14:42.999Z</time></trkpt><trkpt lat="40.29974101379557" lon="17.57036380784028"><ele>4.333333333333334</ele><time>2026-03-29T10:14:43.999Z</time></trkpt><trkpt lat="40.29970539111335" lon="17.570588546260183"><ele>3.0</ele><time>2026-03-29T10:14:44.999Z</time></trkpt><trkpt lat="40.299669203921276" lon="17.570818546090887"><ele>3.0</ele><time>2026-03-29T10:14:45.999Z</time></trkpt><trkpt lat="40.299640013774244" lon="17.571024808509986"><ele>3.0</ele><time>2026-03-29T10:14:46.999Z</time></trkpt><trkpt lat="40.29961022479394" lon="17.571228559582707"><ele>3.0</ele><time>2026-03-29T10:14:47.999Z</time></trkpt><trkpt lat="40.299583760576326" lon="17.571411839346304"><ele>2.6666666666666665</ele><time>2026-03-29T10:14:48.999Z</time></trkpt><trkpt lat="40.29955744980056" lon="17.571608563122382"><ele>2.333333333333333</ele><time>2026-03-29T10:14:49.999Z</time></trkpt><trkpt lat="40.299543362619865" lon="17.57180593250918"><ele>2.0</ele><time>2026-03-29T10:14:50.999Z</time></trkpt><trkpt lat="40.299523453460004" lon="17.572010156690524"><ele>1.3333333333333333</ele><time>2026-03-29T10:14:51.999Z</time></trkpt><trkpt lat="40.299518565077875" lon="17.572219059936725"><ele>0.6666666666666666</ele><time>2026-03-29T10:14:52.999Z</time></trkpt><trkpt lat="40.29953083383708" lon="17.572426938595363"><ele>0.0</ele><time>2026-03-29T10:14:53.999Z</time></trkpt><trkpt lat="40.29955513313448" lon="17.5726269781648"><ele>0.0</ele><time>2026-03-29T10:14:54.999Z</time></trkpt><trkpt lat="40.29958721471416" lon="17.572824433574056"><ele>0.0</ele><time>2026-03-29T10:14:55.999Z</time></trkpt><trkpt lat="40.2996234908013" lon="17.5730231236909"><ele>0.0</ele><time>2026-03-29T10:14:56.999Z</time></trkpt><trkpt lat="40.299672666649" lon="17.573212778226083"><ele>0.0</ele><time>2026-03-29T10:14:57.999Z</time></trkpt><trkpt lat="40.299730873852994" lon="17.573415223245124"><ele>0.0</ele><time>2026-03-29T10:14:58.999Z</time></trkpt><trkpt lat="40.299802576245895" lon="17.573626031196294"><ele>0.0</ele><time>2026-03-29T10:14:59.999Z</time></trkpt><trkpt lat="40.299877301663074" lon="17.573835154116804"><ele>3.3333333333333335</ele><time>2026-03-29T10:15:01Z</time></trkpt><trkpt lat="40.29995487404797" lon="17.57405117414872"><ele>6.666666666666667</ele><time>2026-03-29T10:15:02Z</time></trkpt><trkpt lat="40.3000234388892" lon="17.574264146466646"><ele>10.0</ele><time>2026-03-29T10:15:03Z</time></trkpt><trkpt lat="40.30009016603136" lon="17.57447143556823"><ele>10.333333333333334</ele><time>2026-03-29T10:15:04Z</time></trkpt><trkpt lat="40.30013489185163" lon="17.574680804540712"><ele>10.666666666666666</ele><time>2026-03-29T10:15:05Z</time></trkpt><trkpt lat="40.300180191421575" lon="17.574917203917007"><ele>11.0</ele><time>2026-03-29T10:15:06Z</time></trkpt><trkpt lat="40.300189660088556" lon="17.575154005645167"><ele>10.0</ele><time>2026-03-29T10:15:07Z</time></trkpt><trkpt lat="40.30020432706208" lon="17.57539122601269"><ele>9.0</ele><time>2026-03-29T10:15:08Z</time></trkpt><trkpt lat="40.30020371182627" lon="17.575668386112035"><ele>8.0</ele><time>2026-03-29T10:15:09Z</time></trkpt><trkpt lat="40.30021137118718" lon="17.575943739641836"><ele>7.666666666666666</ele><time>2026-03-29T10:15:10Z</time></trkpt><trkpt lat="40.3001966576923" lon="17.576214056954242"><ele>7.333333333333334</ele><time>2026-03-29T10:15:11Z</time></trkpt><trkpt lat="40.30019097889777" lon="17.57648517899532"><ele>7.0</ele><time>2026-03-29T10:15:12Z</time></trkpt><trkpt lat="40.30017357451319" lon="17.57672973878552"><ele>7.0</ele><time>2026-03-29T10:15:13Z</time></trkpt><trkpt lat="40.30018152179876" lon="17.576976547865993"><ele>7.0</ele><time>2026-03-29T10:15:14Z</time></trkpt><trkpt lat="40.300172848514805" lon="17.577239030492535"><ele>7.0</ele><time>2026-03-29T10:15:15Z</time></trkpt><trkpt lat="40.300165210747075" lon="17.57750687151857"><ele>7.666666666666667</ele><time>2026-03-29T10:15:16Z</time></trkpt><trkpt lat="40.30016096567958" lon="17.577777334099412"><ele>8.333333333333334</ele><time>2026-03-29T10:15:17Z</time></trkpt><trkpt lat="40.30015329079031" lon="17.57802459627477"><ele>9.0</ele><time>2026-03-29T10:15:18Z</time></trkpt><trkpt lat="40.30012695526677" lon="17.578262373250023"><ele>9.333333333333334</ele><time>2026-03-29T10:15:19Z</time></trkpt><trkpt lat="40.300111804059526" lon="17.578509021145514"><ele>9.666666666666668</ele><time>2026-03-29T10:15:20Z</time></trkpt><trkpt lat="40.300091742331865" lon="17.578737185957618"><ele>10.0</ele><time>2026-03-29T10:15:21Z</time></trkpt><trkpt lat="40.30006974556587" lon="17.57895155578834"><ele>9.0</ele><time>2026-03-29T10:15:22Z</time></trkpt><trkpt lat="40.30004564896684" lon="17.579144823019703"><ele>8.0</ele><time>2026-03-29T10:15:23Z</time></trkpt><trkpt lat="40.300012375178596" lon="17.57934392142816"><ele>7.0</ele><time>2026-03-29T10:15:24Z</time></trkpt><trkpt lat="40.29997413362261" lon="17.57954808697649"><ele>6.0</ele><time>2026-03-29T10:15:25Z</time></trkpt><trkpt lat="40.299933684265966" lon="17.579758944276183"><ele>5.0</ele><time>2026-03-29T10:15:26Z</time></trkpt><trkpt lat="40.29988686630398" lon="17.579999317910328"><ele>4.0</ele><time>2026-03-29T10:15:27Z</time></trkpt><trkpt lat="40.29983995132449" lon="17.58023871993573"><ele>3.333333333333333</ele><time>2026-03-29T10:15:28Z</time></trkpt><trkpt lat="40.29978753345008" lon="17.580506202701255"><ele>2.6666666666666665</ele><time>2026-03-29T10:15:29Z</time></trkpt><trkpt lat="40.29975718426848" lon="17.58074235450508"><ele>2.0</ele><time>2026-03-29T10:15:30Z</time></trkpt><trkpt lat="40.29971614390967" lon="17.580942756083758"><ele>1.6666666666666665</ele><time>2026-03-29T10:15:31Z</time></trkpt><trkpt lat="40.29967651853001" lon="17.58114575742465"><ele>1.3333333333333333</ele><time>2026-03-29T10:15:32Z</time></trkpt><trkpt lat="40.299632780079925" lon="17.581378116283442"><ele>1.0</ele><time>2026-03-29T10:15:33Z</time></trkpt><trkpt lat="40.2995739698643" lon="17.581598773954116"><ele>1.0</ele><time>2026-03-29T10:15:34Z</time></trkpt><trkpt lat="40.299524543271936" lon="17.581793819421616"><ele>1.0</ele><time>2026-03-29T10:15:35Z</time></trkpt><trkpt lat="40.299510404755694" lon="17.581971562990784"><ele>1.0</ele><time>2026-03-29T10:15:36Z</time></trkpt><trkpt lat="40.29947164590468" lon="17.582187743783642"><ele>1.0</ele><time>2026-03-29T10:15:37Z</time></trkpt><trkpt lat="40.299437680986934" lon="17.582405491016246"><ele>1.0</ele><time>2026-03-29T10:15:38Z</time></trkpt><trkpt lat="40.299411702820464" lon="17.582627050706332"><ele>1.0</ele><time>2026-03-29T10:15:39Z</time></trkpt><trkpt lat="40.29939196181038" lon="17.58286449273825"><ele>1.0</ele><time>2026-03-29T10:15:40Z</time></trkpt><trkpt lat="40.2993578235594" lon="17.583105623571353"><ele>1.0</ele><time>2026-03-29T10:15:41Z</time></trkpt><trkpt lat="40.29933868618966" lon="17.58335505719926"><ele>1.0</ele><time>2026-03-29T10:15:42Z</time></trkpt><trkpt lat="40.29932145825978" lon="17.583603834809363"><ele>1.6666666666666665</ele><time>2026-03-29T10:15:43Z</time></trkpt><trkpt lat="40.29931647533679" lon="17.583833718690187"><ele>2.3333333333333335</ele><time>2026-03-29T10:15:44Z</time></trkpt><trkpt lat="40.29928818677213" lon="17.584067976252186"><ele>3.0</ele><time>2026-03-29T10:15:45Z</time></trkpt><trkpt lat="40.29926958645417" lon="17.584325281196808"><ele>3.333333333333333</ele><time>2026-03-29T10:15:46Z</time></trkpt><trkpt lat="40.29925098481926" lon="17.584587897115806"><ele>3.6666666666666665</ele><time>2026-03-29T10:15:47Z</time></trkpt><trkpt lat="40.29923140984085" lon="17.584862172827044"><ele>4.0</ele><time>2026-03-29T10:15:48Z</time></trkpt><trkpt lat="40.29921373188266" lon="17.585146241753435"><ele>4.0</ele><time>2026-03-29T10:15:49Z</time></trkpt><trkpt lat="40.29919587488843" lon="17.585436276896797"><ele>4.0</ele><time>2026-03-29T10:15:49.999Z</time></trkpt><trkpt lat="40.299186058322874" lon="17.585705312369967"><ele>4.0</ele><time>2026-03-29T10:15:50.999Z</time></trkpt><trkpt lat="40.29915682455378" lon="17.58596419143493"><ele>3.0</ele><time>2026-03-29T10:15:51.999Z</time></trkpt><trkpt lat="40.299142969961466" lon="17.586213750893823"><ele>2.0</ele><time>2026-03-29T10:15:52.999Z</time></trkpt><trkpt lat="40.29912637735948" lon="17.586452814380202"><ele>1.0</ele><time>2026-03-29T10:15:53.999Z</time></trkpt><trkpt lat="40.29911998547348" lon="17.586672658472494"><ele>1.0</ele><time>2026-03-29T10:15:54.999Z</time></trkpt><trkpt lat="40.29908926000305" lon="17.586918792656537"><ele>1.0</ele><time>2026-03-29T10:15:55.999Z</time></trkpt><trkpt lat="40.29908631300443" lon="17.587182616700012"><ele>1.0</ele><time>2026-03-29T10:15:56.999Z</time></trkpt><trkpt lat="40.299058129636514" lon="17.58742946951465"><ele>2.3333333333333335</ele><time>2026-03-29T10:15:57.999Z</time></trkpt><trkpt lat="40.29903672332991" lon="17.587679613614885"><ele>3.666666666666667</ele><time>2026-03-29T10:15:58.999Z</time></trkpt><trkpt lat="40.299022283147934" lon="17.58791772784016"><ele>5.0</ele><time>2026-03-29T10:15:59.999Z</time></trkpt><trkpt lat="40.299010772112304" lon="17.588144355298333"><ele>5.0</ele><time>2026-03-29T10:16:00.999Z</time></trkpt><trkpt lat="40.29900401276725" lon="17.588375692709388"><ele>5.0</ele><time>2026-03-29T10:16:01.999Z</time></trkpt><trkpt lat="40.29900058208732" lon="17.588617194975846"><ele>5.0</ele><time>2026-03-29T10:16:02.999Z</time></trkpt><trkpt lat="40.29901291748085" lon="17.588866042643623"><ele>4.666666666666667</ele><time>2026-03-29T10:16:03.999Z</time></trkpt><trkpt lat="40.2990254617802" lon="17.58913538891201"><ele>4.333333333333333</ele><time>2026-03-29T10:16:04.999Z</time></trkpt><trkpt lat="40.29904174849416" lon="17.589382958794037"><ele>4.0</ele><time>2026-03-29T10:16:05.999Z</time></trkpt><trkpt lat="40.2990635831124" lon="17.589644987579035"><ele>4.0</ele><time>2026-03-29T10:16:06.999Z</time></trkpt><trkpt lat="40.29907948157699" lon="17.589915667616353"><ele>4.0</ele><time>2026-03-29T10:16:07.999Z</time></trkpt><trkpt lat="40.29909065225073" lon="17.590185376180447"><ele>4.0</ele><time>2026-03-29T10:16:08.999Z</time></trkpt><trkpt lat="40.29911088523526" lon="17.590442330343915"><ele>4.0</ele><time>2026-03-29T10:16:09.999Z</time></trkpt><trkpt lat="40.2991368394875" lon="17.59068769122575"><ele>4.0</ele><time>2026-03-29T10:16:10.999Z</time></trkpt><trkpt lat="40.29915753417258" lon="17.590934760989583"><ele>4.0</ele><time>2026-03-29T10:16:11.999Z</time></trkpt><trkpt lat="40.29918045405112" lon="17.591189530444833"><ele>3.6666666666666665</ele><time>2026-03-29T10:16:12.999Z</time></trkpt><trkpt lat="40.299203202693334" lon="17.5914452174585"><ele>3.333333333333333</ele><time>2026-03-29T10:16:13.999Z</time></trkpt><trkpt lat="40.2992305827185" lon="17.591706307092895"><ele>3.0</ele><time>2026-03-29T10:16:14.999Z</time></trkpt><trkpt lat="40.29926450628452" lon="17.591972107856368"><ele>2.3333333333333335</ele><time>2026-03-29T10:16:15.999Z</time></trkpt><trkpt lat="40.29930894051828" lon="17.592236525105367"><ele>1.6666666666666665</ele><time>2026-03-29T10:16:16.999Z</time></trkpt><trkpt lat="40.29935410998392" lon="17.59250125763032"><ele>1.0</ele><time>2026-03-29T10:16:17.999Z</time></trkpt><trkpt lat="40.29938467739685" lon="17.59274055757094"><ele>0.6666666666666666</ele><time>2026-03-29T10:16:18.999Z</time></trkpt><trkpt lat="40.29939919436555" lon="17.59296431363574"><ele>0.3333333333333333</ele><time>2026-03-29T10:16:19.999Z</time></trkpt><trkpt lat="40.29940014408641" lon="17.59316203662003"><ele>0.0</ele><time>2026-03-29T10:16:20.999Z</time></trkpt><trkpt lat="40.299416641983875" lon="17.59335427338673"><ele>0.0</ele><time>2026-03-29T10:16:21.999Z</time></trkpt><trkpt lat="40.29945090115038" lon="17.59355744052968"><ele>0.0</ele><time>2026-03-29T10:16:22.999Z</time></trkpt><trkpt lat="40.29956025354625" lon="17.59372674852042"><ele>0.0</ele><time>2026-03-29T10:16:23.999Z</time></trkpt><trkpt lat="40.29958897729099" lon="17.593908765021624"><ele>0.25</ele><time>2026-03-29T10:16:24.999Z</time></trkpt><trkpt lat="40.29961712763779" lon="17.59407734856304"><ele>0.5</ele><time>2026-03-29T10:16:25.999Z</time></trkpt><trkpt lat="40.2996450971394" lon="17.59425589217157"><ele>0.75</ele><time>2026-03-29T10:16:26.999Z</time></trkpt><trkpt lat="40.29967498467401" lon="17.594437752602296"><ele>1.0</ele><time>2026-03-29T10:16:27.999Z</time></trkpt><trkpt lat="40.2997114196428" lon="17.59464608527771"><ele>1.0</ele><time>2026-03-29T10:16:28.999Z</time></trkpt><trkpt lat="40.29974337569606" lon="17.594864215589755"><ele>1.0</ele><time>2026-03-29T10:16:29.999Z</time></trkpt><trkpt lat="40.299773802027595" lon="17.595064192026705"><ele>1.0</ele><time>2026-03-29T10:16:30.999Z</time></trkpt><trkpt lat="40.2997969264008" lon="17.59527418051398"><ele>3.0</ele><time>2026-03-29T10:16:31.999Z</time></trkpt><trkpt lat="40.29981299092784" lon="17.595500179018188"><ele>5.0</ele><time>2026-03-29T10:16:32.999Z</time></trkpt><trkpt lat="40.29983298587837" lon="17.595736860863415"><ele>7.0</ele><time>2026-03-29T10:16:33.999Z</time></trkpt><trkpt lat="40.29984085581886" lon="17.59597387335771"><ele>6.666666666666667</ele><time>2026-03-29T10:16:34.999Z</time></trkpt><trkpt lat="40.29984874611995" lon="17.59620516687704"><ele>6.333333333333334</ele><time>2026-03-29T10:16:35.999Z</time></trkpt><trkpt lat="40.29985709006677" lon="17.59642541118184"><ele>6.0</ele><time>2026-03-29T10:16:36.999Z</time></trkpt><trkpt lat="40.29986712519607" lon="17.596652975127302"><ele>6.0</ele><time>2026-03-29T10:16:37.999Z</time></trkpt><trkpt lat="40.29988050834891" lon="17.596901608062502"><ele>6.0</ele><time>2026-03-29T10:16:38.999Z</time></trkpt><trkpt lat="40.29989314201454" lon="17.59716384396907"><ele>6.0</ele><time>2026-03-29T10:16:39.999Z</time></trkpt><trkpt lat="40.299908101547835" lon="17.59740594905103"><ele>5.333333333333333</ele><time>2026-03-29T10:16:40.999Z</time></trkpt><trkpt lat="40.29993144547856" lon="17.597640963280963"><ele>4.666666666666666</ele><time>2026-03-29T10:16:41.999Z</time></trkpt><trkpt lat="40.29996918576218" lon="17.597891348361735"><ele>4.0</ele><time>2026-03-29T10:16:42.999Z</time></trkpt><trkpt lat="40.30000323466193" lon="17.59812074572566"><ele>3.6666666666666665</ele><time>2026-03-29T10:16:43.999Z</time></trkpt><trkpt lat="40.30004008573262" lon="17.59833785152559"><ele>3.333333333333333</ele><time>2026-03-29T10:16:44.999Z</time></trkpt><trkpt lat="40.30007672541214" lon="17.598572639437023"><ele>3.0</ele><time>2026-03-29T10:16:45.999Z</time></trkpt><trkpt lat="40.30012045330028" lon="17.598817451396126"><ele>3.0</ele><time>2026-03-29T10:16:46.999Z</time></trkpt><trkpt lat="40.30016110501277" lon="17.599068816692153"><ele>3.0</ele><time>2026-03-29T10:16:47.999Z</time></trkpt><trkpt lat="40.300202405128985" lon="17.599316647621542"><ele>3.0</ele><time>2026-03-29T10:16:48.999Z</time></trkpt><trkpt lat="40.30024262149547" lon="17.599562095076504"><ele>3.0</ele><time>2026-03-29T10:16:49.999Z</time></trkpt><trkpt lat="40.300279718428904" lon="17.59980058748997"><ele>3.0</ele><time>2026-03-29T10:16:50.999Z</time></trkpt><trkpt lat="40.30031639339553" lon="17.60004019275276"><ele>3.0</ele><time>2026-03-29T10:16:51.999Z</time></trkpt><trkpt lat="40.300349909257825" lon="17.600258530515642"><ele>3.0</ele><time>2026-03-29T10:16:52.999Z</time></trkpt><trkpt lat="40.30038153583245" lon="17.600470243875794"><ele>3.0</ele><time>2026-03-29T10:16:53.999Z</time></trkpt><trkpt lat="40.300414489615335" lon="17.600684163051938"><ele>3.0</ele><time>2026-03-29T10:16:54.999Z</time></trkpt><trkpt lat="40.30044703285637" lon="17.600907122180743"><ele>3.0</ele><time>2026-03-29T10:16:55.999Z</time></trkpt><trkpt lat="40.30047098754129" lon="17.60111831804314"><ele>3.0</ele><time>2026-03-29T10:16:56.999Z</time></trkpt><trkpt lat="40.300482945663845" lon="17.60134077835657"><ele>3.0</ele><time>2026-03-29T10:16:57.999Z</time></trkpt><trkpt lat="40.30048818968662" lon="17.60158271236296"><ele>3.0</ele><time>2026-03-29T10:16:58.999Z</time></trkpt><trkpt lat="40.300484776438815" lon="17.601833607736733"><ele>3.0</ele><time>2026-03-29T10:16:59.999Z</time></trkpt><trkpt lat="40.3004753231461" lon="17.60209713095089"><ele>3.0</ele><time>2026-03-29T10:17:00.999Z</time></trkpt><trkpt lat="40.30047143532476" lon="17.602369473148812"><ele>3.0</ele><time>2026-03-29T10:17:01.999Z</time></trkpt><trkpt lat="40.30047180371994" lon="17.602633931696715"><ele>3.0</ele><time>2026-03-29T10:17:02.999Z</time></trkpt><trkpt lat="40.30048976582735" lon="17.602889987701538"><ele>3.0</ele><time>2026-03-29T10:17:03.999Z</time></trkpt><trkpt lat="40.30052566132783" lon="17.603144705899826"><ele>2.3333333333333335</ele><time>2026-03-29T10:17:04.999Z</time></trkpt><trkpt lat="40.300571373076544" lon="17.603392483441297"><ele>1.6666666666666665</ele><time>2026-03-29T10:17:05.999Z</time></trkpt><trkpt lat="40.300623414820585" lon="17.603640220917935"><ele>1.0</ele><time>2026-03-29T10:17:07Z</time></trkpt><trkpt lat="40.300680426101984" lon="17.603900040270776"><ele>2.6666666666666665</ele><time>2026-03-29T10:17:08Z</time></trkpt><trkpt lat="40.30073780208081" lon="17.604163200657503"><ele>4.333333333333333</ele><time>2026-03-29T10:17:09Z</time></trkpt><trkpt lat="40.300790245535765" lon="17.604416445709372"><ele>6.0</ele><time>2026-03-29T10:17:10Z</time></trkpt><trkpt lat="40.30084025063892" lon="17.60466196160126"><ele>6.333333333333334</ele><time>2026-03-29T10:17:11Z</time></trkpt><trkpt lat="40.30088924114125" lon="17.60490772672294"><ele>6.666666666666667</ele><time>2026-03-29T10:17:12Z</time></trkpt><trkpt lat="40.30093186736863" lon="17.60513658593339"><ele>7.0</ele><time>2026-03-29T10:17:13Z</time></trkpt><trkpt lat="40.3009750523694" lon="17.60535959115529"><ele>7.0</ele><time>2026-03-29T10:17:14Z</time></trkpt><trkpt lat="40.30100937524323" lon="17.605604045290274"><ele>7.0</ele><time>2026-03-29T10:17:15Z</time></trkpt><trkpt lat="40.30103389832737" lon="17.605874531898653"><ele>7.0</ele><time>2026-03-29T10:17:16Z</time></trkpt><trkpt lat="40.30105902368208" lon="17.606151708687413"><ele>6.666666666666667</ele><time>2026-03-29T10:17:17Z</time></trkpt><trkpt lat="40.301075479381595" lon="17.606425189582133"><ele>6.333333333333334</ele><time>2026-03-29T10:17:18Z</time></trkpt><trkpt lat="40.3010787379017" lon="17.606682856026946"><ele>6.0</ele><time>2026-03-29T10:17:19Z</time></trkpt><trkpt lat="40.301074872990505" lon="17.606919551068508"><ele>6.0</ele><time>2026-03-29T10:17:20Z</time></trkpt><trkpt lat="40.301073880247145" lon="17.607164630259838"><ele>6.0</ele><time>2026-03-29T10:17:21Z</time></trkpt><trkpt lat="40.301079453266546" lon="17.60741995292461"><ele>6.0</ele><time>2026-03-29T10:17:22Z</time></trkpt><trkpt lat="40.301084974341435" lon="17.607670927333395"><ele>6.0</ele><time>2026-03-29T10:17:23Z</time></trkpt><trkpt lat="40.301088998166485" lon="17.60791112127985"><ele>6.0</ele><time>2026-03-29T10:17:24Z</time></trkpt><trkpt lat="40.3010933295063" lon="17.6081383686068"><ele>6.0</ele><time>2026-03-29T10:17:25Z</time></trkpt><trkpt lat="40.30109617633399" lon="17.60838184426202"><ele>6.0</ele><time>2026-03-29T10:17:26Z</time></trkpt><trkpt lat="40.30110324559348" lon="17.60863237803082"><ele>6.0</ele><time>2026-03-29T10:17:27Z</time></trkpt><trkpt lat="40.30110817094074" lon="17.60886315382493"><ele>6.0</ele><time>2026-03-29T10:17:28Z</time></trkpt><trkpt lat="40.301114736980246" lon="17.60906900023735"><ele>5.333333333333333</ele><time>2026-03-29T10:17:29Z</time></trkpt><trkpt lat="40.30111756950147" lon="17.609273865966173"><ele>4.666666666666666</ele><time>2026-03-29T10:17:30Z</time></trkpt><trkpt lat="40.30112172188512" lon="17.609495639360247"><ele>4.0</ele><time>2026-03-29T10:17:31Z</time></trkpt><trkpt lat="40.301133284825156" lon="17.60973183966228"><ele>4.0</ele><time>2026-03-29T10:17:32Z</time></trkpt><trkpt lat="40.30114548009637" lon="17.609970982122427"><ele>4.0</ele><time>2026-03-29T10:17:33Z</time></trkpt><trkpt lat="40.301162739265415" lon="17.610196288617722"><ele>4.0</ele><time>2026-03-29T10:17:34Z</time></trkpt><trkpt lat="40.301181123697695" lon="17.61041209698137"><ele>4.0</ele><time>2026-03-29T10:17:35Z</time></trkpt><trkpt lat="40.30120172143819" lon="17.610614258169207"><ele>4.0</ele><time>2026-03-29T10:17:36Z</time></trkpt><trkpt lat="40.301221325997076" lon="17.610798662217313"><ele>4.0</ele><time>2026-03-29T10:17:37Z</time></trkpt><trkpt lat="40.30123875882507" lon="17.61097581578901"><ele>4.0</ele><time>2026-03-29T10:17:38Z</time></trkpt><trkpt lat="40.301255034406964" lon="17.6111690655209"><ele>4.0</ele><time>2026-03-29T10:17:39Z</time></trkpt><trkpt lat="40.301274266515136" lon="17.611383741994967"><ele>4.0</ele><time>2026-03-29T10:17:40Z</time></trkpt><trkpt lat="40.30129504431844" lon="17.61162070646375"><ele>4.0</ele><time>2026-03-29T10:17:41Z</time></trkpt><trkpt lat="40.301316154255055" lon="17.611868512499154"><ele>3.333333333333333</ele><time>2026-03-29T10:17:42Z</time></trkpt><trkpt lat="40.30133699610168" lon="17.612109478003582"><ele>2.6666666666666665</ele><time>2026-03-29T10:17:43Z</time></trkpt><trkpt lat="40.301358827827855" lon="17.612339221356645"><ele>2.0</ele><time>2026-03-29T10:17:44Z</time></trkpt><trkpt lat="40.3013821533898" lon="17.612582471889525"><ele>2.0</ele><time>2026-03-29T10:17:45Z</time></trkpt><trkpt lat="40.30140036435485" lon="17.61280948103221"><ele>2.0</ele><time>2026-03-29T10:17:46Z</time></trkpt><trkpt lat="40.30142015745884" lon="17.613028515876675"><ele>2.0</ele><time>2026-03-29T10:17:47Z</time></trkpt><trkpt lat="40.301434527774816" lon="17.613239365334707"><ele>3.0</ele><time>2026-03-29T10:17:47.999Z</time></trkpt><trkpt lat="40.301450101991044" lon="17.613444981081457"><ele>4.0</ele><time>2026-03-29T10:17:48.999Z</time></trkpt><trkpt lat="40.30146677429856" lon="17.613652603638958"><ele>5.0</ele><time>2026-03-29T10:17:49.999Z</time></trkpt><trkpt lat="40.30148611470336" lon="17.613859741493627"><ele>5.0</ele><time>2026-03-29T10:17:50.999Z</time></trkpt><trkpt lat="40.301504412639524" lon="17.614058450995472"><ele>5.0</ele><time>2026-03-29T10:17:51.999Z</time></trkpt><trkpt lat="40.30152563707862" lon="17.61426554664656"><ele>5.0</ele><time>2026-03-29T10:17:52.999Z</time></trkpt><trkpt lat="40.3015417175587" lon="17.614468218250508"><ele>5.0</ele><time>2026-03-29T10:17:53.999Z</time></trkpt><trkpt lat="40.30156025732803" lon="17.614676981115686"><ele>5.0</ele><time>2026-03-29T10:17:54.999Z</time></trkpt><trkpt lat="40.30157979811559" lon="17.61489757572009"><ele>5.0</ele><time>2026-03-29T10:17:55.999Z</time></trkpt><trkpt lat="40.30160175234713" lon="17.6151319337957"><ele>4.666666666666667</ele><time>2026-03-29T10:17:56.999Z</time></trkpt><trkpt lat="40.301625699934895" lon="17.615378587772444"><ele>4.333333333333333</ele><time>2026-03-29T10:17:57.999Z</time></trkpt><trkpt lat="40.30164477968311" lon="17.61563288330123"><ele>4.0</ele><time>2026-03-29T10:17:58.999Z</time></trkpt><trkpt lat="40.3016667006649" lon="17.615892176450423"><ele>4.0</ele><time>2026-03-29T10:17:59.999Z</time></trkpt><trkpt lat="40.30168063267816" lon="17.616136979243272"><ele>4.0</ele><time>2026-03-29T10:18:00.999Z</time></trkpt><trkpt lat="40.30169332056916" lon="17.61638374963347"><ele>4.0</ele><time>2026-03-29T10:18:01.999Z</time></trkpt><trkpt lat="40.30170354422705" lon="17.616642507278794"><ele>4.0</ele><time>2026-03-29T10:18:02.999Z</time></trkpt><trkpt lat="40.301714689863104" lon="17.616911734809023"><ele>4.0</ele><time>2026-03-29T10:18:03.999Z</time></trkpt><trkpt lat="40.301725708906964" lon="17.617172756072993"><ele>4.0</ele><time>2026-03-29T10:18:04.999Z</time></trkpt><trkpt lat="40.30173376644686" lon="17.617420515253936"><ele>4.0</ele><time>2026-03-29T10:18:05.999Z</time></trkpt><trkpt lat="40.30174293861873" lon="17.61768083129626"><ele>4.0</ele><time>2026-03-29T10:18:06.999Z</time></trkpt><trkpt lat="40.30175103649167" lon="17.617924568649848"><ele>4.0</ele><time>2026-03-29T10:18:07.999Z</time></trkpt><trkpt lat="40.301763580770114" lon="17.61816186415007"><ele>3.6666666666666665</ele><time>2026-03-29T10:18:08.999Z</time></trkpt><trkpt lat="40.3017816841538" lon="17.61840515671306"><ele>3.333333333333333</ele><time>2026-03-29T10:18:09.999Z</time></trkpt><trkpt lat="40.301805891938166" lon="17.61865823693255"><ele>3.0</ele><time>2026-03-29T10:18:10.999Z</time></trkpt><trkpt lat="40.301833083899375" lon="17.61891459270422"><ele>3.0</ele><time>2026-03-29T10:18:11.999Z</time></trkpt><trkpt lat="40.301857026552405" lon="17.619170178685877"><ele>3.0</ele><time>2026-03-29T10:18:12.999Z</time></trkpt><trkpt lat="40.30187990087226" lon="17.61942393274591"><ele>3.0</ele><time>2026-03-29T10:18:13.999Z</time></trkpt><trkpt lat="40.30190376681048" lon="17.619672547017775"><ele>2.3333333333333335</ele><time>2026-03-29T10:18:14.999Z</time></trkpt><trkpt lat="40.301931265833176" lon="17.61992200979556"><ele>1.6666666666666665</ele><time>2026-03-29T10:18:15.999Z</time></trkpt><trkpt lat="40.30194935430016" lon="17.620137561652506"><ele>1.0</ele><time>2026-03-29T10:18:16.999Z</time></trkpt><trkpt lat="40.30197939016323" lon="17.620358311482477"><ele>1.0</ele><time>2026-03-29T10:18:17.999Z</time></trkpt><trkpt lat="40.30200625758893" lon="17.620589306505256"><ele>1.0</ele><time>2026-03-29T10:18:18.999Z</time></trkpt><trkpt lat="40.30203074914107" lon="17.62083638348431"><ele>1.0</ele><time>2026-03-29T10:18:19.999Z</time></trkpt><trkpt lat="40.30205350454705" lon="17.62108577300118"><ele>0.6666666666666666</ele><time>2026-03-29T10:18:20.999Z</time></trkpt><trkpt lat="40.302078547089984" lon="17.621339440136296"><ele>0.3333333333333333</ele><time>2026-03-29T10:18:21.999Z</time></trkpt><trkpt lat="40.30210181167879" lon="17.621593608716577"><ele>0.0</ele><time>2026-03-29T10:18:22.999Z</time></trkpt><trkpt lat="40.30212525838534" lon="17.621850954453755"><ele>0.3333333333333333</ele><time>2026-03-29T10:18:23.999Z</time></trkpt><trkpt lat="40.30215267480133" lon="17.62209977070005"><ele>0.6666666666666666</ele><time>2026-03-29T10:18:24.999Z</time></trkpt><trkpt lat="40.30217173059821" lon="17.62233474000542"><ele>1.0</ele><time>2026-03-29T10:18:25.999Z</time></trkpt><trkpt lat="40.30219764286285" lon="17.622578390256415"><ele>1.0</ele><time>2026-03-29T10:18:26.999Z</time></trkpt><trkpt lat="40.3022246769306" lon="17.62283465699049"><ele>1.0</ele><time>2026-03-29T10:18:27.999Z</time></trkpt><trkpt lat="40.30224963297875" lon="17.623095052787352"><ele>1.0</ele><time>2026-03-29T10:18:28.999Z</time></trkpt><trkpt lat="40.302273452120204" lon="17.623365192326343"><ele>1.0</ele><time>2026-03-29T10:18:29.999Z</time></trkpt><trkpt lat="40.3022953830225" lon="17.623620330387233"><ele>1.0</ele><time>2026-03-29T10:18:30.999Z</time></trkpt><trkpt lat="40.302320426606705" lon="17.623870673826335"><ele>1.0</ele><time>2026-03-29T10:18:31.999Z</time></trkpt><trkpt lat="40.30234289243572" lon="17.624127563691275"><ele>1.0</ele><time>2026-03-29T10:18:32.999Z</time></trkpt><trkpt lat="40.302368382226966" lon="17.624391089136232"><ele>1.0</ele><time>2026-03-29T10:18:33.999Z</time></trkpt><trkpt lat="40.302392868912605" lon="17.624652573279675"><ele>1.0</ele><time>2026-03-29T10:18:34.999Z</time></trkpt><trkpt lat="40.30241507593413" lon="17.624899357141757"><ele>1.0</ele><time>2026-03-29T10:18:35.999Z</time></trkpt><trkpt lat="40.30243482091068" lon="17.625132201468546"><ele>1.0</ele><time>2026-03-29T10:18:36.999Z</time></trkpt><trkpt lat="40.30245682960833" lon="17.62537137689728"><ele>1.0</ele><time>2026-03-29T10:18:37.999Z</time></trkpt><trkpt lat="40.302477729538325" lon="17.625604607223217"><ele>1.0</ele><time>2026-03-29T10:18:38.999Z</time></trkpt><trkpt lat="40.302499944534745" lon="17.625834706863902"><ele>1.0</ele><time>2026-03-29T10:18:39.999Z</time></trkpt><trkpt lat="40.302527480028274" lon="17.62606585465195"><ele>1.0</ele><time>2026-03-29T10:18:40.999Z</time></trkpt><trkpt lat="40.302559140919826" lon="17.6263038264933"><ele>1.0</ele><time>2026-03-29T10:18:41.999Z</time></trkpt><trkpt lat="40.30260009057561" lon="17.626551013697153"><ele>1.0</ele><time>2026-03-29T10:18:42.999Z</time></trkpt><trkpt lat="40.30264582312632" lon="17.62679941564056"><ele>1.0</ele><time>2026-03-29T10:18:43.999Z</time></trkpt><trkpt lat="40.30269463594829" lon="17.6270373545776"><ele>1.0</ele><time>2026-03-29T10:18:44.999Z</time></trkpt><trkpt lat="40.30274585652162" lon="17.627266916905977"><ele>1.0</ele><time>2026-03-29T10:18:45.999Z</time></trkpt><trkpt lat="40.302795411617055" lon="17.627499356094347"><ele>1.0</ele><time>2026-03-29T10:18:46.999Z</time></trkpt><trkpt lat="40.30284353789489" lon="17.627728653848067"><ele>1.0</ele><time>2026-03-29T10:18:47.999Z</time></trkpt><trkpt lat="40.30289593529104" lon="17.627964592597678"><ele>1.0</ele><time>2026-03-29T10:18:48.999Z</time></trkpt><trkpt lat="40.30294808657801" lon="17.62821408932036"><ele>1.0</ele><time>2026-03-29T10:18:49.999Z</time></trkpt><trkpt lat="40.303001699420506" lon="17.628460597254037"><ele>0.6666666666666666</ele><time>2026-03-29T10:18:50.999Z</time></trkpt><trkpt lat="40.3030475456096" lon="17.628699950411242"><ele>0.3333333333333333</ele><time>2026-03-29T10:18:51.999Z</time></trkpt><trkpt lat="40.30309709659415" lon="17.628932756672782"><ele>0.0</ele><time>2026-03-29T10:18:52.999Z</time></trkpt><trkpt lat="40.303146491163346" lon="17.629152255924915"><ele>-0.3333333333333333</ele><time>2026-03-29T10:18:53.999Z</time></trkpt><trkpt lat="40.30320068133487" lon="17.629415271351068"><ele>-0.6666666666666666</ele><time>2026-03-29T10:18:54.999Z</time></trkpt><trkpt lat="40.30325414758726" lon="17.629664615400557"><ele>-1.0</ele><time>2026-03-29T10:18:55.999Z</time></trkpt><trkpt lat="40.30331218566983" lon="17.629927951032222"><ele>-1.0</ele><time>2026-03-29T10:18:56.999Z</time></trkpt><trkpt lat="40.30337144338536" lon="17.630192827713913"><ele>-1.0</ele><time>2026-03-29T10:18:57.999Z</time></trkpt><trkpt lat="40.30342488416488" lon="17.630441839515566"><ele>-1.0</ele><time>2026-03-29T10:18:58.999Z</time></trkpt><trkpt lat="40.3034791474182" lon="17.630677524515722"><ele>-0.3333333333333333</ele><time>2026-03-29T10:18:59.999Z</time></trkpt><trkpt lat="40.30353182140771" lon="17.63092357128792"><ele>0.3333333333333333</ele><time>2026-03-29T10:19:00.999Z</time></trkpt><trkpt lat="40.30358843092418" lon="17.631170598973235"><ele>1.0</ele><time>2026-03-29T10:19:01.999Z</time></trkpt><trkpt lat="40.3036455047315" lon="17.631425895294836"><ele>1.0</ele><time>2026-03-29T10:19:02.999Z</time></trkpt><trkpt lat="40.30370245611563" lon="17.63167726935327"><ele>1.0</ele><time>2026-03-29T10:19:03.999Z</time></trkpt><trkpt lat="40.30375509149014" lon="17.631925135382804"><ele>1.0</ele><time>2026-03-29T10:19:04.999Z</time></trkpt><trkpt lat="40.303804179080565" lon="17.632150596597626"><ele>1.0</ele><time>2026-03-29T10:19:05.999Z</time></trkpt><trkpt lat="40.30385132584785" lon="17.632397348917717"><ele>1.0</ele><time>2026-03-29T10:19:06.999Z</time></trkpt><trkpt lat="40.303906429165" lon="17.632643783960308"><ele>1.0</ele><time>2026-03-29T10:19:07.999Z</time></trkpt><trkpt lat="40.30397024763094" lon="17.63291009482871"><ele>1.0</ele><time>2026-03-29T10:19:08.999Z</time></trkpt><trkpt lat="40.30403646953676" lon="17.633166715284467"><ele>1.0</ele><time>2026-03-29T10:19:09.999Z</time></trkpt><trkpt lat="40.304089610694696" lon="17.633412932054547"><ele>1.0</ele><time>2026-03-29T10:19:10.999Z</time></trkpt><trkpt lat="40.304139556834784" lon="17.63364536650055"><ele>1.0</ele><time>2026-03-29T10:19:11.999Z</time></trkpt><trkpt lat="40.30419134571202" lon="17.633862546188386"><ele>1.0</ele><time>2026-03-29T10:19:12.999Z</time></trkpt><trkpt lat="40.30425241476673" lon="17.63407710443001"><ele>1.0</ele><time>2026-03-29T10:19:13.999Z</time></trkpt><trkpt lat="40.304291790977345" lon="17.634300684096534"><ele>1.3333333333333333</ele><time>2026-03-29T10:19:14.999Z</time></trkpt><trkpt lat="40.30433977251338" lon="17.634532668173218"><ele>1.6666666666666665</ele><time>2026-03-29T10:19:15.999Z</time></trkpt><trkpt lat="40.30438311706216" lon="17.634750455333975"><ele>2.0</ele><time>2026-03-29T10:19:16.999Z</time></trkpt><trkpt lat="40.30442375593249" lon="17.634961241475523"><ele>2.0</ele><time>2026-03-29T10:19:17.999Z</time></trkpt><trkpt lat="40.30442148492362" lon="17.635161793819837"><ele>2.0</ele><time>2026-03-29T10:19:18.999Z</time></trkpt><trkpt lat="40.30441185510793" lon="17.635432762540677"><ele>2.0</ele><time>2026-03-29T10:19:19.999Z</time></trkpt><trkpt lat="40.30436871694906" lon="17.6357051140513"><ele>2.0</ele><time>2026-03-29T10:19:20.999Z</time></trkpt><trkpt lat="40.304281182623235" lon="17.6360009474994"><ele>2.0</ele><time>2026-03-29T10:19:21.999Z</time></trkpt><trkpt lat="40.30416725182907" lon="17.636329466372924"><ele>2.0</ele><time>2026-03-29T10:19:22.999Z</time></trkpt><trkpt lat="40.30406998204378" lon="17.63660751166678"><ele>2.0</ele><time>2026-03-29T10:19:23.999Z</time></trkpt><trkpt lat="40.303981248257664" lon="17.63686081114368"><ele>2.0</ele><time>2026-03-29T10:19:24.999Z</time></trkpt><trkpt lat="40.30389757139887" lon="17.637099675122446"><ele>1.6666666666666665</ele><time>2026-03-29T10:19:25.999Z</time></trkpt><trkpt lat="40.30381355313421" lon="17.637339513653895"><ele>1.3333333333333333</ele><time>2026-03-29T10:19:26.999Z</time></trkpt><trkpt lat="40.303729900665" lon="17.637578308259137"><ele>1.0</ele><time>2026-03-29T10:19:27.999Z</time></trkpt><trkpt lat="40.30364083912006" lon="17.637835773215983"><ele>0.6666666666666666</ele><time>2026-03-29T10:19:28.999Z</time></trkpt><trkpt lat="40.303574040258425" lon="17.63808364827571"><ele>0.3333333333333333</ele><time>2026-03-29T10:19:29.999Z</time></trkpt><trkpt lat="40.30349733240743" lon="17.63830522272929"><ele>0.0</ele><time>2026-03-29T10:19:30.999Z</time></trkpt><trkpt lat="40.30342984704487" lon="17.638532312485964"><ele>0.0</ele><time>2026-03-29T10:19:31.999Z</time></trkpt><trkpt lat="40.3033835770987" lon="17.63876758334331"><ele>0.0</ele><time>2026-03-29T10:19:32.999Z</time></trkpt><trkpt lat="40.30335797819044" lon="17.639008508710035"><ele>0.0</ele><time>2026-03-29T10:19:33.999Z</time></trkpt><trkpt lat="40.30334901519578" lon="17.639260893378086"><ele>0.3333333333333333</ele><time>2026-03-29T10:19:34.999Z</time></trkpt><trkpt lat="40.303359492629816" lon="17.639514670891664"><ele>0.6666666666666666</ele><time>2026-03-29T10:19:35.999Z</time></trkpt><trkpt lat="40.30339239095844" lon="17.63976500412545"><ele>1.0</ele><time>2026-03-29T10:19:36.999Z</time></trkpt><trkpt lat="40.3034263965399" lon="17.639997763768395"><ele>1.0</ele><time>2026-03-29T10:19:37.999Z</time></trkpt><trkpt lat="40.30345951168403" lon="17.64022638320311"><ele>1.0</ele><time>2026-03-29T10:19:38.999Z</time></trkpt><trkpt lat="40.30348564798937" lon="17.640462882914452"><ele>1.0</ele><time>2026-03-29T10:19:39.999Z</time></trkpt><trkpt lat="40.30350926282933" lon="17.64070720312266"><ele>1.0</ele><time>2026-03-29T10:19:40.999Z</time></trkpt><trkpt lat="40.30353860464337" lon="17.64096286166573"><ele>1.0</ele><time>2026-03-29T10:19:41.999Z</time></trkpt><trkpt lat="40.30357325250701" lon="17.641209335830048"><ele>1.0</ele><time>2026-03-29T10:19:42.999Z</time></trkpt><trkpt lat="40.303597434107665" lon="17.6414463768559"><ele>0.6666666666666666</ele><time>2026-03-29T10:19:43.999Z</time></trkpt><trkpt lat="40.30362454631604" lon="17.641695008083126"><ele>0.3333333333333333</ele><time>2026-03-29T10:19:44.999Z</time></trkpt><trkpt lat="40.30364317136198" lon="17.641915438743847"><ele>0.0</ele><time>2026-03-29T10:19:45.999Z</time></trkpt><trkpt lat="40.3036630113356" lon="17.642116684640015"><ele>0.0</ele><time>2026-03-29T10:19:46.999Z</time></trkpt><trkpt lat="40.3036815542993" lon="17.642311336523925"><ele>0.0</ele><time>2026-03-29T10:19:47.999Z</time></trkpt><trkpt lat="40.303693836826604" lon="17.64248769662052"><ele>0.0</ele><time>2026-03-29T10:19:48.999Z</time></trkpt><trkpt lat="40.303711780056275" lon="17.642688374363306"><ele>0.0</ele><time>2026-03-29T10:19:49.999Z</time></trkpt><trkpt lat="40.30372434531608" lon="17.642888743529372"><ele>0.25</ele><time>2026-03-29T10:19:50.999Z</time></trkpt><trkpt lat="40.30373246349484" lon="17.643070793348812"><ele>0.5</ele><time>2026-03-29T10:19:51.999Z</time></trkpt><trkpt lat="40.30373590326402" lon="17.643233118731747"><ele>0.75</ele><time>2026-03-29T10:19:52.999Z</time></trkpt><trkpt lat="40.3037330844917" lon="17.64339733810797"><ele>1.0</ele><time>2026-03-29T10:19:53.999Z</time></trkpt><trkpt lat="40.30372979015027" lon="17.643575602657286"><ele>1.25</ele><time>2026-03-29T10:19:54.999Z</time></trkpt><trkpt lat="40.30372408787571" lon="17.6437339228667"><ele>1.5</ele><time>2026-03-29T10:19:55.999Z</time></trkpt><trkpt lat="40.30371806964362" lon="17.643887035437555"><ele>1.75</ele><time>2026-03-29T10:19:56.999Z</time></trkpt><trkpt lat="40.30370899212442" lon="17.644062958777663"><ele>2.0</ele><time>2026-03-29T10:19:57.999Z</time></trkpt><trkpt lat="40.30369761586429" lon="17.644245521319117"><ele>2.0</ele><time>2026-03-29T10:19:58.999Z</time></trkpt><trkpt lat="40.30368329027735" lon="17.644392632706523"><ele>2.0</ele><time>2026-03-29T10:19:59.999Z</time></trkpt><trkpt lat="40.3036726548666" lon="17.644535775713745"><ele>2.0</ele><time>2026-03-29T10:20:00.999Z</time></trkpt><trkpt lat="40.303655825294975" lon="17.644708694254756"><ele>2.0</ele><time>2026-03-29T10:20:01.999Z</time></trkpt><trkpt lat="40.30363704822573" lon="17.644873443734404"><ele>2.0</ele><time>2026-03-29T10:20:02.999Z</time></trkpt><trkpt lat="40.3036317554016" lon="17.64500759193784"><ele>2.0</ele><time>2026-03-29T10:20:03.999Z</time></trkpt><trkpt lat="40.303622110577365" lon="17.645137373369472"><ele>2.0</ele><time>2026-03-29T10:20:04.999Z</time></trkpt><trkpt lat="40.30361060684816" lon="17.645282684060664"><ele>2.0</ele><time>2026-03-29T10:20:05.999Z</time></trkpt><trkpt lat="40.3035955457964" lon="17.645428926366478"><ele>2.0</ele><time>2026-03-29T10:20:06.999Z</time></trkpt><trkpt lat="40.30358579362517" lon="17.645576166049107"><ele>2.2</ele><time>2026-03-29T10:20:07.999Z</time></trkpt><trkpt lat="40.303573548011904" lon="17.645689105526678"><ele>2.4000000000000004</ele><time>2026-03-29T10:20:08.999Z</time></trkpt><trkpt lat="40.30356705907811" lon="17.64580865929489"><ele>2.5999999999999996</ele><time>2026-03-29T10:20:09.999Z</time></trkpt><trkpt lat="40.30356009168887" lon="17.645922200689117"><ele>2.8</ele><time>2026-03-29T10:20:10.999Z</time></trkpt><trkpt lat="40.303550565512985" lon="17.646062596406118"><ele>3.0</ele><time>2026-03-29T10:20:11.999Z</time></trkpt><trkpt lat="40.30355226457959" lon="17.646214673984343"><ele>3.2</ele><time>2026-03-29T10:20:12.999Z</time></trkpt><trkpt lat="40.30357128275828" lon="17.646362783129938"><ele>3.4</ele><time>2026-03-29T10:20:13.999Z</time></trkpt><trkpt lat="40.30359105065086" lon="17.646488247622734"><ele>3.6000000000000005</ele><time>2026-03-29T10:20:14.999Z</time></trkpt><trkpt lat="40.30360986083686" lon="17.646615560950362"><ele>3.8000000000000003</ele><time>2026-03-29T10:20:15.999Z</time></trkpt><trkpt lat="40.303635532952" lon="17.64674182364345"><ele>4.0</ele><time>2026-03-29T10:20:16.999Z</time></trkpt><trkpt lat="40.3036944468063" lon="17.646869529433673"><ele>4.0</ele><time>2026-03-29T10:20:17.999Z</time></trkpt><trkpt lat="40.30374064106789" lon="17.647003849227083"><ele>4.0</ele><time>2026-03-29T10:20:18.999Z</time></trkpt><trkpt lat="40.30379644070074" lon="17.647144163784148"><ele>4.0</ele><time>2026-03-29T10:20:19.999Z</time></trkpt><trkpt lat="40.30386559830554" lon="17.647272871489523"><ele>4.0</ele><time>2026-03-29T10:20:20.999Z</time></trkpt><trkpt lat="40.30393142248953" lon="17.647406097487426"><ele>4.0</ele><time>2026-03-29T10:20:21.999Z</time></trkpt><trkpt lat="40.30400917064609" lon="17.64753974123343"><ele>4.0</ele><time>2026-03-29T10:20:22.999Z</time></trkpt><trkpt lat="40.304076354881104" lon="17.64767962771497"><ele>4.0</ele><time>2026-03-29T10:20:23.999Z</time></trkpt><trkpt lat="40.3041537578605" lon="17.647830825001197"><ele>4.0</ele><time>2026-03-29T10:20:24.999Z</time></trkpt><trkpt lat="40.3042262337393" lon="17.647979185561436"><ele>3.5</ele><time>2026-03-29T10:20:25.999Z</time></trkpt><trkpt lat="40.30429226180683" lon="17.648110324449444"><ele>3.0</ele><time>2026-03-29T10:20:26.999Z</time></trkpt><trkpt lat="40.3043597576459" lon="17.648259367406627"><ele>2.5</ele><time>2026-03-29T10:20:27.999Z</time></trkpt><trkpt lat="40.30443856830293" lon="17.648411256954045"><ele>2.0</ele><time>2026-03-29T10:20:28.999Z</time></trkpt><trkpt lat="40.30450870478543" lon="17.64853116671669"><ele>2.0</ele><time>2026-03-29T10:20:29.999Z</time></trkpt><trkpt lat="40.3045613582732" lon="17.648643513898598"><ele>2.0</ele><time>2026-03-29T10:20:30.999Z</time></trkpt><trkpt lat="40.304619140122234" lon="17.648760220851432"><ele>2.0</ele><time>2026-03-29T10:20:31.999Z</time></trkpt><trkpt lat="40.30468684518004" lon="17.648897562723988"><ele>2.0</ele><time>2026-03-29T10:20:32.999Z</time></trkpt><trkpt lat="40.304757121283636" lon="17.64902587868815"><ele>2.0</ele><time>2026-03-29T10:20:33.999Z</time></trkpt><trkpt lat="40.30482181771153" lon="17.64916051984156"><ele>2.0</ele><time>2026-03-29T10:20:34.999Z</time></trkpt><trkpt lat="40.30489662596807" lon="17.649306632492767"><ele>2.0</ele><time>2026-03-29T10:20:35.999Z</time></trkpt><trkpt lat="40.30497082935707" lon="17.649461625898983"><ele>2.0</ele><time>2026-03-29T10:20:36.999Z</time></trkpt><trkpt lat="40.305050411233246" lon="17.649624367409487"><ele>2.25</ele><time>2026-03-29T10:20:37.999Z</time></trkpt><trkpt lat="40.305134799715425" lon="17.649793141485052"><ele>2.5</ele><time>2026-03-29T10:20:38.999Z</time></trkpt><trkpt lat="40.30520901973566" lon="17.649941257763317"><ele>2.75</ele><time>2026-03-29T10:20:39.999Z</time></trkpt><trkpt lat="40.30527954780206" lon="17.65008397422754"><ele>3.0</ele><time>2026-03-29T10:20:40.999Z</time></trkpt><trkpt lat="40.305341903120436" lon="17.65020899008953"><ele>3.0</ele><time>2026-03-29T10:20:41.999Z</time></trkpt><trkpt lat="40.30540465791632" lon="17.65033566688006"><ele>3.0</ele><time>2026-03-29T10:20:42.999Z</time></trkpt><trkpt lat="40.30547540693561" lon="17.65047814995527"><ele>3.0</ele><time>2026-03-29T10:20:43.999Z</time></trkpt><trkpt lat="40.305554500275605" lon="17.650634551838138"><ele>3.0</ele><time>2026-03-29T10:20:44.999Z</time></trkpt><trkpt lat="40.30563450075379" lon="17.650802192622496"><ele>3.0</ele><time>2026-03-29T10:20:45.999Z</time></trkpt><trkpt lat="40.3057121441993" lon="17.650961792638093"><ele>3.0</ele><time>2026-03-29T10:20:46.999Z</time></trkpt><trkpt lat="40.30578055515574" lon="17.651102933938326"><ele>3.0</ele><time>2026-03-29T10:20:47.999Z</time></trkpt><trkpt lat="40.30585934028032" lon="17.651256241364806"><ele>3.0</ele><time>2026-03-29T10:20:48.999Z</time></trkpt><trkpt lat="40.30593687117057" lon="17.651404045290075"><ele>3.25</ele><time>2026-03-29T10:20:49.999Z</time></trkpt><trkpt lat="40.30601000586677" lon="17.65154018115266"><ele>3.5</ele><time>2026-03-29T10:20:50.999Z</time></trkpt><trkpt lat="40.30607187269532" lon="17.65166865478189"><ele>3.75</ele><time>2026-03-29T10:20:51.999Z</time></trkpt><trkpt lat="40.306142558356825" lon="17.651802849652253"><ele>4.0</ele><time>2026-03-29T10:20:52.999Z</time></trkpt><trkpt lat="40.30621980557575" lon="17.65195027322473"><ele>3.75</ele><time>2026-03-29T10:20:53.999Z</time></trkpt><trkpt lat="40.30630045001433" lon="17.652109747988977"><ele>3.5</ele><time>2026-03-29T10:20:54.999Z</time></trkpt><trkpt lat="40.30636562565286" lon="17.652249669089564"><ele>3.25</ele><time>2026-03-29T10:20:55.999Z</time></trkpt><trkpt lat="40.306424017918665" lon="17.65238054823835"><ele>3.0</ele><time>2026-03-29T10:20:56.999Z</time></trkpt><trkpt lat="40.306486324665876" lon="17.652524344970598"><ele>4.25</ele><time>2026-03-29T10:20:57.999Z</time></trkpt><trkpt lat="40.30654132184591" lon="17.65268212423933"><ele>5.5</ele><time>2026-03-29T10:20:58.999Z</time></trkpt><trkpt lat="40.30658422563206" lon="17.65285573126356"><ele>6.75</ele><time>2026-03-29T10:20:59.999Z</time></trkpt><trkpt lat="40.30661782118045" lon="17.653007226080234"><ele>8.0</ele><time>2026-03-29T10:21:00.999Z</time></trkpt><trkpt lat="40.306633348487594" lon="17.653150698754207"><ele>8.0</ele><time>2026-03-29T10:21:01.999Z</time></trkpt><trkpt lat="40.30664545324733" lon="17.653308353657298"><ele>8.0</ele><time>2026-03-29T10:21:02.999Z</time></trkpt><trkpt lat="40.30664831013957" lon="17.65347231694154"><ele>8.0</ele><time>2026-03-29T10:21:03.999Z</time></trkpt><trkpt lat="40.30665650838994" lon="17.653603388589083"><ele>8.0</ele><time>2026-03-29T10:21:04.999Z</time></trkpt><trkpt lat="40.306661636726375" lon="17.653735797301323"><ele>8.0</ele><time>2026-03-29T10:21:05.999Z</time></trkpt><trkpt lat="40.306663122367624" lon="17.65385688846792"><ele>7.833333333333333</ele><time>2026-03-29T10:21:06.999Z</time></trkpt><trkpt lat="40.306664871455084" lon="17.65395377105731"><ele>7.666666666666666</ele><time>2026-03-29T10:21:07.999Z</time></trkpt><trkpt lat="40.30667054362763" lon="17.654050084869947"><ele>7.5</ele><time>2026-03-29T10:21:08.999Z</time></trkpt><trkpt lat="40.306674209844616" lon="17.65416648265388"><ele>7.333333333333334</ele><time>2026-03-29T10:21:09.999Z</time></trkpt><trkpt lat="40.306673890148055" lon="17.65429325697548"><ele>7.166666666666667</ele><time>2026-03-29T10:21:10.999Z</time></trkpt><trkpt lat="40.30667583119491" lon="17.654439925795607"><ele>7.0</ele><time>2026-03-29T10:21:11.999Z</time></trkpt><trkpt lat="40.30667760729073" lon="17.654574787035894"><ele>6.6</ele><time>2026-03-29T10:21:12.999Z</time></trkpt><trkpt lat="40.30668021999243" lon="17.654682781438197"><ele>6.199999999999999</ele><time>2026-03-29T10:21:13.999Z</time></trkpt><trkpt lat="40.30668732005859" lon="17.654836943438493"><ele>5.8</ele><time>2026-03-29T10:21:15.999Z</time></trkpt><trkpt lat="40.30669520190443" lon="17.654979132743186"><ele>5.4</ele><time>2026-03-29T10:21:17.999Z</time></trkpt><trkpt lat="40.30669768200501" lon="17.655088722710197"><ele>5.0</ele><time>2026-03-29T10:21:18.999Z</time></trkpt><trkpt lat="40.30669915478382" lon="17.65522467326935"><ele>4.6</ele><time>2026-03-29T10:21:19.999Z</time></trkpt><trkpt lat="40.30670361366807" lon="17.655359028828453"><ele>4.2</ele><time>2026-03-29T10:21:20.999Z</time></trkpt><trkpt lat="40.30670436294715" lon="17.655469466516404"><ele>3.8</ele><time>2026-03-29T10:21:21.999Z</time></trkpt><trkpt lat="40.30669853887106" lon="17.655568120822792"><ele>3.4</ele><time>2026-03-29T10:21:22.999Z</time></trkpt><trkpt lat="40.30670955318772" lon="17.655723870014583"><ele>3.0</ele><time>2026-03-29T10:21:24.999Z</time></trkpt><trkpt lat="40.30671158032735" lon="17.655837286306795"><ele>3.0</ele><time>2026-03-29T10:21:25.999Z</time></trkpt><trkpt lat="40.306713615653535" lon="17.655920437909685"><ele>3.0</ele><time>2026-03-29T10:21:26.999Z</time></trkpt><trkpt lat="40.30672058209713" lon="17.656046718717082"><ele>3.0</ele><time>2026-03-29T10:21:28.999Z</time></trkpt><trkpt lat="40.30671264561546" lon="17.656169394504293"><ele>3.0</ele><time>2026-03-29T10:21:31Z</time></trkpt><trkpt lat="40.306729949018305" lon="17.656279246729447"><ele>3.0</ele><time>2026-03-29T10:21:33Z</time></trkpt><trkpt lat="40.306732091995855" lon="17.65644075220869"><ele>3.1666666666666665</ele><time>2026-03-29T10:21:35Z</time></trkpt><trkpt lat="40.306730372604505" lon="17.65653417839377"><ele>3.333333333333333</ele><time>2026-03-29T10:21:36Z</time></trkpt><trkpt lat="40.30673886966682" lon="17.65663047831767"><ele>3.5</ele><time>2026-03-29T10:21:37Z</time></trkpt><trkpt lat="40.30674245902873" lon="17.65673231364314"><ele>3.6666666666666665</ele><time>2026-03-29T10:21:38Z</time></trkpt><trkpt lat="40.30674464483474" lon="17.656834675894775"><ele>3.833333333333333</ele><time>2026-03-29T10:21:39Z</time></trkpt><trkpt lat="40.306743901157276" lon="17.6569472169715"><ele>4.0</ele><time>2026-03-29T10:21:40Z</time></trkpt><trkpt lat="40.30674888381633" lon="17.657060044624604"><ele>4.4</ele><time>2026-03-29T10:21:41Z</time></trkpt><trkpt lat="40.306751528234315" lon="17.657182880125653"><ele>4.800000000000001</ele><time>2026-03-29T10:21:42Z</time></trkpt><trkpt lat="40.30675698673365" lon="17.65729815350339"><ele>5.199999999999999</ele><time>2026-03-29T10:21:43Z</time></trkpt><trkpt lat="40.306757454972534" lon="17.657383251994247"><ele>5.6</ele><time>2026-03-29T10:21:44Z</time></trkpt><trkpt lat="40.30675762709235" lon="17.657524830941693"><ele>6.0</ele><time>2026-03-29T10:21:46Z</time></trkpt><trkpt lat="40.30676121060924" lon="17.65766149023947"><ele>6.0</ele><time>2026-03-29T10:21:48Z</time></trkpt><trkpt lat="40.30676611811268" lon="17.65775069403452"><ele>6.0</ele><time>2026-03-29T10:21:49Z</time></trkpt><trkpt lat="40.30676707729019" lon="17.65784453862808"><ele>6.0</ele><time>2026-03-29T10:21:50Z</time></trkpt><trkpt lat="40.30677129170709" lon="17.657954594765602"><ele>6.0</ele><time>2026-03-29T10:21:51Z</time></trkpt><trkpt lat="40.30677564103521" lon="17.658076425414556"><ele>6.0</ele><time>2026-03-29T10:21:52Z</time></trkpt><trkpt lat="40.30677441896623" lon="17.658205525727972"><ele>6.0</ele><time>2026-03-29T10:21:53Z</time></trkpt><trkpt lat="40.30678046763391" lon="17.65833790187547"><ele>6.0</ele><time>2026-03-29T10:21:54Z</time></trkpt><trkpt lat="40.306789083522325" lon="17.65846423206999"><ele>6.0</ele><time>2026-03-29T10:21:55Z</time></trkpt><trkpt lat="40.30679331815455" lon="17.658601961920848"><ele>6.0</ele><time>2026-03-29T10:21:56Z</time></trkpt><trkpt lat="40.30679684892293" lon="17.658752890169815"><ele>6.0</ele><time>2026-03-29T10:21:57Z</time></trkpt><trkpt lat="40.30680198533173" lon="17.65891189669682"><ele>6.0</ele><time>2026-03-29T10:21:58Z</time></trkpt><trkpt lat="40.306807683913824" lon="17.659063380126906"><ele>6.25</ele><time>2026-03-29T10:21:59Z</time></trkpt><trkpt lat="40.306813679757305" lon="17.659206793113622"><ele>6.5</ele><time>2026-03-29T10:22:00Z</time></trkpt><trkpt lat="40.30682128823515" lon="17.65934886744774"><ele>6.75</ele><time>2026-03-29T10:22:01Z</time></trkpt><trkpt lat="40.306830132127104" lon="17.659504061503757"><ele>7.0</ele><time>2026-03-29T10:22:02Z</time></trkpt><trkpt lat="40.30683530595277" lon="17.659663584346244"><ele>7.199999999999999</ele><time>2026-03-29T10:22:03Z</time></trkpt><trkpt lat="40.30684244376712" lon="17.659818448557576"><ele>7.3999999999999995</ele><time>2026-03-29T10:22:04Z</time></trkpt><trkpt lat="40.3068322796352" lon="17.659964120450663"><ele>7.6000000000000005</ele><time>2026-03-29T10:22:05Z</time></trkpt><trkpt lat="40.30683664525684" lon="17.660091279875164"><ele>7.800000000000001</ele><time>2026-03-29T10:22:06Z</time></trkpt><trkpt lat="40.3068413425006" lon="17.660228098581598"><ele>8.0</ele><time>2026-03-29T10:22:07Z</time></trkpt><trkpt lat="40.30684590601506" lon="17.660361022297458"><ele>8.0</ele><time>2026-03-29T10:22:08Z</time></trkpt><trkpt lat="40.3068495587274" lon="17.660498305094688"><ele>8.0</ele><time>2026-03-29T10:22:09Z</time></trkpt><trkpt lat="40.30685441539399" lon="17.660640525849228"><ele>8.0</ele><time>2026-03-29T10:22:10Z</time></trkpt><trkpt lat="40.30685909602707" lon="17.660782923632926"><ele>8.0</ele><time>2026-03-29T10:22:11Z</time></trkpt><trkpt lat="40.30686406612546" lon="17.660925759332326"><ele>8.0</ele><time>2026-03-29T10:22:12Z</time></trkpt><trkpt lat="40.306869167970405" lon="17.66107005283616"><ele>8.0</ele><time>2026-03-29T10:22:13Z</time></trkpt><trkpt lat="40.30687303634505" lon="17.661210919227038"><ele>8.0</ele><time>2026-03-29T10:22:14Z</time></trkpt><trkpt lat="40.306877222068216" lon="17.6613513843954"><ele>8.0</ele><time>2026-03-29T10:22:15Z</time></trkpt><trkpt lat="40.306881783957394" lon="17.66149686418213"><ele>8.0</ele><time>2026-03-29T10:22:16Z</time></trkpt><trkpt lat="40.30688561075064" lon="17.66163943351985"><ele>8.0</ele><time>2026-03-29T10:22:17Z</time></trkpt><trkpt lat="40.306889371596455" lon="17.661785456157435"><ele>8.0</ele><time>2026-03-29T10:22:18Z</time></trkpt><trkpt lat="40.3068933715684" lon="17.6619407633564"><ele>8.0</ele><time>2026-03-29T10:22:19Z</time></trkpt><trkpt lat="40.30689777486594" lon="17.6621083744254"><ele>8.0</ele><time>2026-03-29T10:22:20Z</time></trkpt><trkpt lat="40.3069174338213" lon="17.662269961924654"><ele>8.0</ele><time>2026-03-29T10:22:21Z</time></trkpt><trkpt lat="40.306920235115044" lon="17.66241120445829"><ele>7.6000000000000005</ele><time>2026-03-29T10:22:21.999Z</time></trkpt><trkpt lat="40.306921511197146" lon="17.662543515489066"><ele>7.200000000000001</ele><time>2026-03-29T10:22:22.999Z</time></trkpt><trkpt lat="40.30690664544902" lon="17.66269289183395"><ele>6.8</ele><time>2026-03-29T10:22:23.999Z</time></trkpt><trkpt lat="40.30690532438657" lon="17.662851747735555"><ele>6.4</ele><time>2026-03-29T10:22:24.999Z</time></trkpt><trkpt lat="40.30690303221087" lon="17.66299526324975"><ele>6.0</ele><time>2026-03-29T10:22:25.999Z</time></trkpt><trkpt lat="40.30689936549525" lon="17.663154810437955"><ele>6.0</ele><time>2026-03-29T10:22:26.999Z</time></trkpt><trkpt lat="40.30689350474476" lon="17.66331614577535"><ele>6.0</ele><time>2026-03-29T10:22:27.999Z</time></trkpt><trkpt lat="40.30690255010555" lon="17.66346667643847"><ele>6.0</ele><time>2026-03-29T10:22:28.999Z</time></trkpt><trkpt lat="40.30689241938152" lon="17.663606506345186"><ele>6.0</ele><time>2026-03-29T10:22:29.999Z</time></trkpt><trkpt lat="40.306888268647796" lon="17.66372758485005"><ele>6.0</ele><time>2026-03-29T10:22:30.999Z</time></trkpt><trkpt lat="40.30688561760599" lon="17.66383057049806"><ele>6.0</ele><time>2026-03-29T10:22:31.999Z</time></trkpt><trkpt lat="40.30688353378135" lon="17.66392046974391"><ele>6.0</ele><time>2026-03-29T10:22:32.999Z</time></trkpt><trkpt lat="40.3068760567736" lon="17.664047314967444"><ele>6.0</ele><time>2026-03-29T10:22:34.999Z</time></trkpt><trkpt lat="40.30685646897733" lon="17.664157422203594"><ele>6.0</ele><time>2026-03-29T10:22:36.999Z</time></trkpt><trkpt lat="40.30686923884064" lon="17.664239143537642"><ele>6.0</ele><time>2026-03-29T10:22:38.999Z</time></trkpt><trkpt lat="40.30685793803314" lon="17.664331477629787"><ele>6.0</ele><time>2026-03-29T10:22:54.999Z</time></trkpt><trkpt lat="40.306843250388496" lon="17.664459372646284"><ele>6.0</ele><time>2026-03-29T10:22:56.999Z</time></trkpt><trkpt lat="40.30683872115116" lon="17.664551152343677"><ele>6.0</ele><time>2026-03-29T10:22:57.999Z</time></trkpt><trkpt lat="40.30684664102972" lon="17.664685210115213"><ele>6.0</ele><time>2026-03-29T10:22:58.999Z</time></trkpt><trkpt lat="40.306840399312264" lon="17.664819913456515"><ele>6.0</ele><time>2026-03-29T10:22:59.999Z</time></trkpt><trkpt lat="40.30683618577739" lon="17.66497292759746"><ele>6.0</ele><time>2026-03-29T10:23:00.999Z</time></trkpt><trkpt lat="40.306830211003714" lon="17.665113172439998"><ele>6.0</ele><time>2026-03-29T10:23:01.999Z</time></trkpt><trkpt lat="40.306813039429926" lon="17.665255089298494"><ele>6.0</ele><time>2026-03-29T10:23:02.999Z</time></trkpt><trkpt lat="40.30682773634062" lon="17.665413069479484"><ele>6.0</ele><time>2026-03-29T10:23:03.999Z</time></trkpt><trkpt lat="40.30682769021069" lon="17.66555807246022"><ele>6.0</ele><time>2026-03-29T10:23:04.999Z</time></trkpt><trkpt lat="40.30683045361728" lon="17.665704325143395"><ele>6.0</ele><time>2026-03-29T10:23:05.999Z</time></trkpt><trkpt lat="40.30683315863252" lon="17.665853448472213"><ele>6.0</ele><time>2026-03-29T10:23:06.999Z</time></trkpt><trkpt lat="40.30683591570526" lon="17.665998164317546"><ele>6.0</ele><time>2026-03-29T10:23:07.999Z</time></trkpt><trkpt lat="40.30684207078511" lon="17.666129580402874"><ele>6.0</ele><time>2026-03-29T10:23:08.999Z</time></trkpt><trkpt lat="40.30684664060093" lon="17.66627087900715"><ele>6.0</ele><time>2026-03-29T10:23:09.999Z</time></trkpt><trkpt lat="40.30685405912233" lon="17.66642080416459"><ele>6.0</ele><time>2026-03-29T10:23:10.999Z</time></trkpt><trkpt lat="40.306866057865484" lon="17.666593566276962"><ele>6.0</ele><time>2026-03-29T10:23:11.999Z</time></trkpt><trkpt lat="40.30685910343868" lon="17.66676108185781"><ele>6.0</ele><time>2026-03-29T10:23:12.999Z</time></trkpt><trkpt lat="40.30686627355446" lon="17.66691575147299"><ele>6.0</ele><time>2026-03-29T10:23:13.999Z</time></trkpt><trkpt lat="40.306875099233515" lon="17.667096173334517"><ele>6.0</ele><time>2026-03-29T10:23:14.999Z</time></trkpt><trkpt lat="40.30688465005933" lon="17.667282069001878"><ele>6.0</ele><time>2026-03-29T10:23:15.999Z</time></trkpt><trkpt lat="40.30689338865974" lon="17.66745215562147"><ele>6.0</ele><time>2026-03-29T10:23:16.999Z</time></trkpt><trkpt lat="40.3069017465712" lon="17.66760207354909"><ele>6.0</ele><time>2026-03-29T10:23:17.999Z</time></trkpt><trkpt lat="40.30692651656796" lon="17.667755557157363"><ele>6.25</ele><time>2026-03-29T10:23:18.999Z</time></trkpt><trkpt lat="40.306920024167205" lon="17.667928180131444"><ele>6.5</ele><time>2026-03-29T10:23:19.999Z</time></trkpt><trkpt lat="40.30693082247178" lon="17.668096375227357"><ele>6.75</ele><time>2026-03-29T10:23:20.999Z</time></trkpt><trkpt lat="40.306938499831396" lon="17.668241198196068"><ele>7.0</ele><time>2026-03-29T10:23:21.999Z</time></trkpt><trkpt lat="40.30694720773106" lon="17.66839751481394"><ele>7.0</ele><time>2026-03-29T10:23:22.999Z</time></trkpt><trkpt lat="40.30695606230003" lon="17.668556464493168"><ele>6.999999999999999</ele><time>2026-03-29T10:23:23.999Z</time></trkpt><trkpt lat="40.30698190733308" lon="17.668706659511543"><ele>6.999999999999999</ele><time>2026-03-29T10:23:24.999Z</time></trkpt><trkpt lat="40.306975195110134" lon="17.668856445759918"><ele>7.0</ele><time>2026-03-29T10:23:25.999Z</time></trkpt><trkpt lat="40.30698152698986" lon="17.66897737089509"><ele>7.0</ele><time>2026-03-29T10:23:26.999Z</time></trkpt><trkpt lat="40.306987150975374" lon="17.669084776931197"><ele>6.833333333333334</ele><time>2026-03-29T10:23:27.999Z</time></trkpt><trkpt lat="40.30699125174288" lon="17.66919264354641"><ele>6.666666666666667</ele><time>2026-03-29T10:23:28.999Z</time></trkpt><trkpt lat="40.30699612411156" lon="17.669287502404817"><ele>6.5</ele><time>2026-03-29T10:23:29.999Z</time></trkpt><trkpt lat="40.3069995320517" lon="17.66937782043427"><ele>6.333333333333334</ele><time>2026-03-29T10:23:31Z</time></trkpt><trkpt lat="40.307004932505606" lon="17.669532770352284"><ele>6.166666666666667</ele><time>2026-03-29T10:23:33Z</time></trkpt><trkpt lat="40.30700989595275" lon="17.669665936033795"><ele>6.0</ele><time>2026-03-29T10:23:35Z</time></trkpt><trkpt lat="40.30701262350761" lon="17.66983754106974"><ele>6.0</ele><time>2026-03-29T10:23:37Z</time></trkpt><trkpt lat="40.307017907831714" lon="17.669955649732177"><ele>6.0</ele><time>2026-03-29T10:23:38Z</time></trkpt><trkpt lat="40.307018466741354" lon="17.6700499546913"><ele>6.0</ele><time>2026-03-29T10:23:39Z</time></trkpt><trkpt lat="40.307011905298246" lon="17.670132573766498"><ele>6.0</ele><time>2026-03-29T10:23:40Z</time></trkpt><trkpt lat="40.307009757373486" lon="17.670226586408603"><ele>6.0</ele><time>2026-03-29T10:23:41Z</time></trkpt><trkpt lat="40.30701030824491" lon="17.670315537095487"><ele>6.0</ele><time>2026-03-29T10:23:42Z</time></trkpt><trkpt lat="40.30698971875999" lon="17.670474546637504"><ele>6.166666666666667</ele><time>2026-03-29T10:23:44Z</time></trkpt><trkpt lat="40.3069865264208" lon="17.670616566717882"><ele>6.333333333333334</ele><time>2026-03-29T10:23:46Z</time></trkpt><trkpt lat="40.30698445388117" lon="17.670752157919374"><ele>6.5</ele><time>2026-03-29T10:23:48Z</time></trkpt><trkpt lat="40.30699983621233" lon="17.67084290748423"><ele>6.666666666666667</ele><time>2026-03-29T10:23:50Z</time></trkpt><trkpt lat="40.306981692038" lon="17.670957702562347"><ele>6.833333333333334</ele><time>2026-03-29T10:23:52Z</time></trkpt><trkpt lat="40.30698070754967" lon="17.67104495518975"><ele>7.0</ele><time>2026-03-29T10:23:53Z</time></trkpt><trkpt lat="40.30697952633642" lon="17.671149642987984"><ele>7.0</ele><time>2026-03-29T10:23:54Z</time></trkpt><trkpt lat="40.30697840589432" lon="17.67124894488903"><ele>7.0</ele><time>2026-03-29T10:23:55Z</time></trkpt><trkpt lat="40.30697746453466" lon="17.671332375107887"><ele>7.0</ele><time>2026-03-29T10:23:56Z</time></trkpt><trkpt lat="40.30697648245322" lon="17.671419544187835"><ele>7.0</ele><time>2026-03-29T10:23:57Z</time></trkpt><trkpt lat="40.30697553667606" lon="17.671503840343043"><ele>7.0</ele><time>2026-03-29T10:23:58Z</time></trkpt><trkpt lat="40.306988125354245" lon="17.671608261750226"><ele>7.0</ele><time>2026-03-29T10:24:01Z</time></trkpt><trkpt lat="40.30698606522452" lon="17.671509506222865"><ele>7.0</ele><time>2026-03-29T10:24:35Z</time></trkpt><trkpt lat="40.30698834388184" lon="17.671338701792344"><ele>7.0</ele><time>2026-03-29T10:24:37Z</time></trkpt><trkpt lat="40.30698591295644" lon="17.671117649501607"><ele>7.0</ele><time>2026-03-29T10:24:38Z</time></trkpt><trkpt lat="40.306992483900466" lon="17.670948085641346"><ele>7.0</ele><time>2026-03-29T10:24:39Z</time></trkpt><trkpt lat="40.30698366087944" lon="17.670765097327347"><ele>7.0</ele><time>2026-03-29T10:24:40Z</time></trkpt><trkpt lat="40.306987563660094" lon="17.67057882928855"><ele>7.25</ele><time>2026-03-29T10:24:41Z</time></trkpt><trkpt lat="40.30699289745137" lon="17.670417991843337"><ele>7.5</ele><time>2026-03-29T10:24:42Z</time></trkpt><trkpt lat="40.30700289779872" lon="17.67025672700336"><ele>7.75</ele><time>2026-03-29T10:24:43Z</time></trkpt><trkpt lat="40.30701755900119" lon="17.670105606270056"><ele>8.0</ele><time>2026-03-29T10:24:44Z</time></trkpt><trkpt lat="40.3070248200023" lon="17.669938782114567"><ele>7.6000000000000005</ele><time>2026-03-29T10:24:45Z</time></trkpt><trkpt lat="40.30701991727816" lon="17.669776319206104"><ele>7.200000000000001</ele><time>2026-03-29T10:24:46Z</time></trkpt><trkpt lat="40.307020025331276" lon="17.669633971857653"><ele>6.8</ele><time>2026-03-29T10:24:47Z</time></trkpt><trkpt lat="40.30701742590551" lon="17.66950870996029"><ele>6.4</ele><time>2026-03-29T10:24:47.999Z</time></trkpt><trkpt lat="40.30700773382541" lon="17.669403897074034"><ele>6.0</ele><time>2026-03-29T10:24:48.999Z</time></trkpt><trkpt lat="40.306994718352236" lon="17.669305651685143"><ele>6.0</ele><time>2026-03-29T10:24:49.999Z</time></trkpt><trkpt lat="40.30698534384576" lon="17.669190003451"><ele>6.0</ele><time>2026-03-29T10:24:50.999Z</time></trkpt><trkpt lat="40.3069827141363" lon="17.66904097092307"><ele>6.0</ele><time>2026-03-29T10:24:51.999Z</time></trkpt><trkpt lat="40.30696941244605" lon="17.668869118193975"><ele>6.0</ele><time>2026-03-29T10:24:52.999Z</time></trkpt><trkpt lat="40.30695378206682" lon="17.66869230026112"><ele>6.25</ele><time>2026-03-29T10:24:53.999Z</time></trkpt><trkpt lat="40.30694575070171" lon="17.668529011684175"><ele>6.5</ele><time>2026-03-29T10:24:54.999Z</time></trkpt><trkpt lat="40.306946401735864" lon="17.668398025911227"><ele>6.75</ele><time>2026-03-29T10:24:55.999Z</time></trkpt><trkpt lat="40.30697235956433" lon="17.66824928534255"><ele>7.0</ele><time>2026-03-29T10:24:56.999Z</time></trkpt><trkpt lat="40.30696264717236" lon="17.66807493695002"><ele>7.0</ele><time>2026-03-29T10:24:57.999Z</time></trkpt><trkpt lat="40.30695343880799" lon="17.667920605314254"><ele>7.0</ele><time>2026-03-29T10:24:58.999Z</time></trkpt><trkpt lat="40.30694394174399" lon="17.66776621497219"><ele>7.0</ele><time>2026-03-29T10:24:59.999Z</time></trkpt><trkpt lat="40.30693540037947" lon="17.6676064181018"><ele>7.0</ele><time>2026-03-29T10:25:00.999Z</time></trkpt><trkpt lat="40.306926551947335" lon="17.66744854558514"><ele>6.833333333333334</ele><time>2026-03-29T10:25:01.999Z</time></trkpt><trkpt lat="40.30691970092939" lon="17.667314277559893"><ele>6.666666666666667</ele><time>2026-03-29T10:25:02.999Z</time></trkpt><trkpt lat="40.30690879815422" lon="17.667201636706928"><ele>6.5</ele><time>2026-03-29T10:25:03.999Z</time></trkpt><trkpt lat="40.30690826124029" lon="17.667091617348845"><ele>6.333333333333334</ele><time>2026-03-29T10:25:04.999Z</time></trkpt><trkpt lat="40.30690318567666" lon="17.666991897699777"><ele>6.166666666666667</ele><time>2026-03-29T10:25:05.999Z</time></trkpt><trkpt lat="40.30689739616971" lon="17.666867009766793"><ele>6.0</ele><time>2026-03-29T10:25:06.999Z</time></trkpt><trkpt lat="40.30689054096333" lon="17.66671913317024"><ele>6.0</ele><time>2026-03-29T10:25:07.999Z</time></trkpt><trkpt lat="40.3068840448215" lon="17.666579002099443"><ele>6.0</ele><time>2026-03-29T10:25:08.999Z</time></trkpt><trkpt lat="40.3068788312217" lon="17.666466537270985"><ele>6.0</ele><time>2026-03-29T10:25:09.999Z</time></trkpt><trkpt lat="40.306874587042984" lon="17.666366112907095"><ele>6.0</ele><time>2026-03-29T10:25:10.999Z</time></trkpt><trkpt lat="40.306869750256126" lon="17.666252336794194"><ele>6.0</ele><time>2026-03-29T10:25:11.999Z</time></trkpt><trkpt lat="40.306863591001" lon="17.666107452164482"><ele>6.0</ele><time>2026-03-29T10:25:12.999Z</time></trkpt><trkpt lat="40.30684125542368" lon="17.665976096743"><ele>6.0</ele><time>2026-03-29T10:25:13.999Z</time></trkpt><trkpt lat="40.30684316495596" lon="17.665865195325363"><ele>6.0</ele><time>2026-03-29T10:25:14.999Z</time></trkpt><trkpt lat="40.30683374849943" lon="17.6657038356406"><ele>6.0</ele><time>2026-03-29T10:25:16.999Z</time></trkpt><trkpt lat="40.3068485584455" lon="17.66562271332149"><ele>6.0</ele><time>2026-03-29T10:25:17.999Z</time></trkpt><trkpt lat="40.30683135817148" lon="17.665467186255565"><ele>6.0</ele><time>2026-03-29T10:25:19.999Z</time></trkpt><trkpt lat="40.306838164160226" lon="17.66538256714701"><ele>6.0</ele><time>2026-03-29T10:25:20.999Z</time></trkpt><trkpt lat="40.306845705473165" lon="17.66527284575653"><ele>6.0</ele><time>2026-03-29T10:25:21.999Z</time></trkpt><trkpt lat="40.306847044509176" lon="17.665165602774618"><ele>6.0</ele><time>2026-03-29T10:25:22.999Z</time></trkpt><trkpt lat="40.30684866362932" lon="17.66505164103761"><ele>6.0</ele><time>2026-03-29T10:25:23.999Z</time></trkpt><trkpt lat="40.306856793984636" lon="17.664930895852503"><ele>6.0</ele><time>2026-03-29T10:25:24.999Z</time></trkpt><trkpt lat="40.30685864293142" lon="17.664785982513582"><ele>6.0</ele><time>2026-03-29T10:25:25.999Z</time></trkpt><trkpt lat="40.30686188131358" lon="17.664666706494966"><ele>6.0</ele><time>2026-03-29T10:25:26.999Z</time></trkpt><trkpt lat="40.30686589464222" lon="17.664567178794275"><ele>6.0</ele><time>2026-03-29T10:25:27.999Z</time></trkpt><trkpt lat="40.30686719800445" lon="17.66447929217537"><ele>6.0</ele><time>2026-03-29T10:25:28.999Z</time></trkpt><trkpt lat="40.306869740278486" lon="17.66439522375974"><ele>6.0</ele><time>2026-03-29T10:25:30Z</time></trkpt><trkpt lat="40.30688256499943" lon="17.664259434971502"><ele>6.0</ele><time>2026-03-29T10:25:32Z</time></trkpt><trkpt lat="40.30690138822116" lon="17.66417302862848"><ele>5.0</ele><time>2026-03-29T10:25:36Z</time></trkpt><trkpt lat="40.30687602116011" lon="17.66409637311073"><ele>5.0</ele><time>2026-03-29T10:25:40Z</time></trkpt><trkpt lat="40.30689613919223" lon="17.66401708070187"><ele>5.0</ele><time>2026-03-29T10:25:44Z</time></trkpt></trkseg><trkseg><trkpt lat="40.306828300593416" lon="17.664706482723183"><ele>6.0</ele><time>2026-03-29T10:36:38Z</time></trkpt><trkpt lat="40.30682545960672" lon="17.664805132298344"><ele>6.0</ele><time>2026-03-29T10:36:39Z</time></trkpt><trkpt lat="40.306827158367966" lon="17.664899516448628"><ele>6.0</ele><time>2026-03-29T10:36:40Z</time></trkpt><trkpt lat="40.30682279491326" lon="17.664984488996502"><ele>6.0</ele><time>2026-03-29T10:36:41Z</time></trkpt><trkpt lat="40.30682419157214" lon="17.665089439500733"><ele>6.0</ele><time>2026-03-29T10:36:42Z</time></trkpt><trkpt lat="40.3068120349795" lon="17.665208077093517"><ele>6.0</ele><time>2026-03-29T10:36:43Z</time></trkpt><trkpt lat="40.30682237068221" lon="17.66532747385876"><ele>6.0</ele><time>2026-03-29T10:36:44Z</time></trkpt><trkpt lat="40.306825545822754" lon="17.665451701288674"><ele>6.0</ele><time>2026-03-29T10:36:45Z</time></trkpt><trkpt lat="40.30682147994444" lon="17.665580676682744"><ele>6.0</ele><time>2026-03-29T10:36:46Z</time></trkpt><trkpt lat="40.30681977106372" lon="17.665713031546154"><ele>6.0</ele><time>2026-03-29T10:36:47Z</time></trkpt><trkpt lat="40.306823996643296" lon="17.665840095471218"><ele>6.0</ele><time>2026-03-29T10:36:48Z</time></trkpt><trkpt lat="40.30682926827587" lon="17.665997507195712"><ele>5.8</ele><time>2026-03-29T10:36:49Z</time></trkpt><trkpt lat="40.306841166317426" lon="17.666157974225897"><ele>5.6</ele><time>2026-03-29T10:36:50Z</time></trkpt><trkpt lat="40.306846010720136" lon="17.666296472582946"><ele>5.4</ele><time>2026-03-29T10:36:51Z</time></trkpt><trkpt lat="40.30684836975284" lon="17.666417516740076"><ele>5.2</ele><time>2026-03-29T10:36:52Z</time></trkpt><trkpt lat="40.30685642790094" lon="17.66652339877016"><ele>5.0</ele><time>2026-03-29T10:36:53Z</time></trkpt><trkpt lat="40.306868790962916" lon="17.666617559041597"><ele>5.0</ele><time>2026-03-29T10:36:54Z</time></trkpt><trkpt lat="40.30685709053227" lon="17.666717660542233"><ele>5.0</ele><time>2026-03-29T10:36:55Z</time></trkpt><trkpt lat="40.30686283345751" lon="17.6668415436864"><ele>5.0</ele><time>2026-03-29T10:36:56Z</time></trkpt><trkpt lat="40.306869049920856" lon="17.66697564167133"><ele>5.0</ele><time>2026-03-29T10:36:57Z</time></trkpt><trkpt lat="40.306876348890555" lon="17.667120496451187"><ele>5.0</ele><time>2026-03-29T10:36:58Z</time></trkpt><trkpt lat="40.306884764762124" lon="17.667284301607253"><ele>5.25</ele><time>2026-03-29T10:36:59Z</time></trkpt><trkpt lat="40.30689244536222" lon="17.667433795455445"><ele>5.5</ele><time>2026-03-29T10:37:00Z</time></trkpt><trkpt lat="40.30690071070015" lon="17.667583591720597"><ele>5.75</ele><time>2026-03-29T10:37:01Z</time></trkpt><trkpt lat="40.306909313270744" lon="17.667737077586526"><ele>6.0</ele><time>2026-03-29T10:37:02Z</time></trkpt><trkpt lat="40.306931165302984" lon="17.66788723023151"><ele>6.199999999999999</ele><time>2026-03-29T10:37:03Z</time></trkpt><trkpt lat="40.30694067919014" lon="17.668032484021612"><ele>6.3999999999999995</ele><time>2026-03-29T10:37:04Z</time></trkpt><trkpt lat="40.30693513580149" lon="17.66818081008951"><ele>6.6</ele><time>2026-03-29T10:37:05Z</time></trkpt><trkpt lat="40.3069597489848" lon="17.668326197167616"><ele>6.8</ele><time>2026-03-29T10:37:06Z</time></trkpt><trkpt lat="40.30696577198457" lon="17.668465793022335"><ele>7.0</ele><time>2026-03-29T10:37:07Z</time></trkpt><trkpt lat="40.30697464756243" lon="17.6686010783352"><ele>6.8</ele><time>2026-03-29T10:37:08Z</time></trkpt><trkpt lat="40.306983825124014" lon="17.668733079752727"><ele>6.6</ele><time>2026-03-29T10:37:09Z</time></trkpt><trkpt lat="40.306985314965765" lon="17.66887374092614"><ele>6.3999999999999995</ele><time>2026-03-29T10:37:10Z</time></trkpt><trkpt lat="40.306988608592924" lon="17.669014330228602"><ele>6.199999999999999</ele><time>2026-03-29T10:37:11Z</time></trkpt><trkpt lat="40.306995767932214" lon="17.66915211900963"><ele>6.0</ele><time>2026-03-29T10:37:12Z</time></trkpt><trkpt lat="40.307005366861986" lon="17.669280215773128"><ele>6.0</ele><time>2026-03-29T10:37:13Z</time></trkpt><trkpt lat="40.30701754782919" lon="17.669414121305813"><ele>6.0</ele><time>2026-03-29T10:37:14Z</time></trkpt><trkpt lat="40.307005794365196" lon="17.669555893458128"><ele>6.0</ele><time>2026-03-29T10:37:15Z</time></trkpt><trkpt lat="40.30701111320972" lon="17.669698594171802"><ele>6.0</ele><time>2026-03-29T10:37:16Z</time></trkpt><trkpt lat="40.307012446409736" lon="17.66981664368961"><ele>6.0</ele><time>2026-03-29T10:37:17Z</time></trkpt><trkpt lat="40.307029848922696" lon="17.66990483170915"><ele>6.0</ele><time>2026-03-29T10:37:18Z</time></trkpt><trkpt lat="40.307021189234796" lon="17.669990286881365"><ele>6.0</ele><time>2026-03-29T10:37:19Z</time></trkpt><trkpt lat="40.30701563273874" lon="17.670147204791494"><ele>6.0</ele><time>2026-03-29T10:37:21Z</time></trkpt><trkpt lat="40.306994618805454" lon="17.67024547415285"><ele>6.0</ele><time>2026-03-29T10:37:23Z</time></trkpt><trkpt lat="40.307000788098364" lon="17.67036800444979"><ele>6.0</ele><time>2026-03-29T10:37:25Z</time></trkpt><trkpt lat="40.3070015717996" lon="17.67047352535719"><ele>6.0</ele><time>2026-03-29T10:37:27Z</time></trkpt><trkpt lat="40.306998004894886" lon="17.670652477206126"><ele>6.142857142857142</ele><time>2026-03-29T10:37:29Z</time></trkpt><trkpt lat="40.30699775654021" lon="17.670746670086704"><ele>6.285714285714286</ele><time>2026-03-29T10:37:29.999Z</time></trkpt><trkpt lat="40.306998724037626" lon="17.67083762326796"><ele>6.428571428571429</ele><time>2026-03-29T10:37:30.999Z</time></trkpt><trkpt lat="40.30699596552457" lon="17.67094673832513"><ele>6.571428571428571</ele><time>2026-03-29T10:37:31.999Z</time></trkpt><trkpt lat="40.30698076292679" lon="17.671046645671474"><ele>6.714285714285714</ele><time>2026-03-29T10:37:32.999Z</time></trkpt><trkpt lat="40.30698860249667" lon="17.67113715932368"><ele>6.857142857142857</ele><time>2026-03-29T10:37:33.999Z</time></trkpt><trkpt lat="40.30699053153465" lon="17.67121994251019"><ele>7.0</ele><time>2026-03-29T10:37:34.999Z</time></trkpt><trkpt lat="40.30698719131527" lon="17.671303543510803"><ele>7.0</ele><time>2026-03-29T10:37:35.999Z</time></trkpt><trkpt lat="40.30697035682304" lon="17.67144281700989"><ele>6.999999999999999</ele><time>2026-03-29T10:37:37.999Z</time></trkpt><trkpt lat="40.30697857494645" lon="17.671582901623694"><ele>6.999999999999999</ele><time>2026-03-29T10:37:39.999Z</time></trkpt><trkpt lat="40.306963793355344" lon="17.671683190379305"><ele>7.0</ele><time>2026-03-29T10:37:46.999Z</time></trkpt><trkpt lat="40.30697233491721" lon="17.67179015188769"><ele>7.0</ele><time>2026-03-29T10:37:57.999Z</time></trkpt><trkpt lat="40.30697038124917" lon="17.671912984245605"><ele>6.3999999999999995</ele><time>2026-03-29T10:38:00.999Z</time></trkpt><trkpt lat="40.30696762966156" lon="17.672045251513655"><ele>5.799999999999999</ele><time>2026-03-29T10:38:03.999Z</time></trkpt><trkpt lat="40.30696438543126" lon="17.672201469321692"><ele>5.2</ele><time>2026-03-29T10:38:05.999Z</time></trkpt><trkpt lat="40.3069683878469" lon="17.67233820291848"><ele>4.6</ele><time>2026-03-29T10:38:07.999Z</time></trkpt><trkpt lat="40.3069746327156" lon="17.672422173879255"><ele>4.0</ele><time>2026-03-29T10:38:08.999Z</time></trkpt><trkpt lat="40.306964160903775" lon="17.672523553225005"><ele>3.9999999999999996</ele><time>2026-03-29T10:38:09.999Z</time></trkpt><trkpt lat="40.30696218496258" lon="17.672632626538988"><ele>4.0</ele><time>2026-03-29T10:38:10.999Z</time></trkpt><trkpt lat="40.306960995006925" lon="17.672740045747044"><ele>4.0</ele><time>2026-03-29T10:38:12Z</time></trkpt><trkpt lat="40.30695849872019" lon="17.672865839808065"><ele>4.0</ele><time>2026-03-29T10:38:13Z</time></trkpt><trkpt lat="40.306950802268055" lon="17.672971494061905"><ele>3.9999999999999996</ele><time>2026-03-29T10:38:14Z</time></trkpt><trkpt lat="40.30693327819758" lon="17.67309490181361"><ele>4.0</ele><time>2026-03-29T10:38:16Z</time></trkpt><trkpt lat="40.30686158074383" lon="17.673157951159684"><ele>3.8000000000000003</ele><time>2026-03-29T10:38:18Z</time></trkpt><trkpt lat="40.30674117742438" lon="17.67314356044021"><ele>3.6000000000000005</ele><time>2026-03-29T10:38:21Z</time></trkpt><trkpt lat="40.306600542626896" lon="17.67310778478387"><ele>3.4</ele><time>2026-03-29T10:38:23Z</time></trkpt><trkpt lat="40.30652269219918" lon="17.673099524293796"><ele>3.2</ele><time>2026-03-29T10:38:24Z</time></trkpt><trkpt lat="40.3064315222148" lon="17.673089850500414"><ele>3.0</ele><time>2026-03-29T10:38:25Z</time></trkpt><trkpt lat="40.30633915443326" lon="17.673080049613787"><ele>3.0</ele><time>2026-03-29T10:38:26Z</time></trkpt><trkpt lat="40.30623434831825" lon="17.67306892891216"><ele>3.0</ele><time>2026-03-29T10:38:27Z</time></trkpt><trkpt lat="40.30613619580087" lon="17.673058113081705"><ele>3.0</ele><time>2026-03-29T10:38:28Z</time></trkpt><trkpt lat="40.30605921808198" lon="17.67305316820352"><ele>3.0</ele><time>2026-03-29T10:38:29Z</time></trkpt><trkpt lat="40.30595314867847" lon="17.67306817784291"><ele>3.0</ele><time>2026-03-29T10:38:31Z</time></trkpt><trkpt lat="40.30589116470867" lon="17.67304944001517"><ele>3.0</ele><time>2026-03-29T10:38:33Z</time></trkpt><trkpt lat="40.30582756139795" lon="17.673069732886372"><ele>3.0</ele><time>2026-03-29T10:38:35Z</time></trkpt><trkpt lat="40.30573383615203" lon="17.67307243867334"><ele>3.0</ele><time>2026-03-29T10:38:38Z</time></trkpt><trkpt lat="40.30565791727607" lon="17.673042716213295"><ele>3.0</ele><time>2026-03-29T10:38:40Z</time></trkpt><trkpt lat="40.305590609392816" lon="17.672954821643636"><ele>3.0</ele><time>2026-03-29T10:38:42Z</time></trkpt><trkpt lat="40.30552369006974" lon="17.67292548594575"><ele>3.0</ele><time>2026-03-29T10:38:44Z</time></trkpt><trkpt lat="40.30545409071638" lon="17.67295888752918"><ele>1.0</ele><time>2026-03-29T10:38:47Z</time></trkpt></trkseg><trkseg><trkpt lat="40.30694928023993" lon="17.6733475271777"><ele>3.0</ele><time>2026-03-29T11:44:06.999Z</time></trkpt><trkpt lat="40.30694722991002" lon="17.673434884621162"><ele>3.0</ele><time>2026-03-29T11:44:55.999Z</time></trkpt><trkpt lat="40.30693903589905" lon="17.673604871794165"><ele>3.0</ele><time>2026-03-29T11:44:57.999Z</time></trkpt><trkpt lat="40.30693609198087" lon="17.67371082015889"><ele>3.0</ele><time>2026-03-29T11:44:58.999Z</time></trkpt><trkpt lat="40.30692169540237" lon="17.673822720267996"><ele>3.0</ele><time>2026-03-29T11:44:59.999Z</time></trkpt><trkpt lat="40.30691626982066" lon="17.67394555195592"><ele>3.2</ele><time>2026-03-29T11:45:00.999Z</time></trkpt><trkpt lat="40.30691983846643" lon="17.674063350093302"><ele>3.4</ele><time>2026-03-29T11:45:01.999Z</time></trkpt><trkpt lat="40.306899811396015" lon="17.674205122186393"><ele>3.6000000000000005</ele><time>2026-03-29T11:45:02.999Z</time></trkpt><trkpt lat="40.30686618034872" lon="17.674335002654708"><ele>3.8000000000000003</ele><time>2026-03-29T11:45:03.999Z</time></trkpt><trkpt lat="40.30684480012913" lon="17.674490075481515"><ele>4.0</ele><time>2026-03-29T11:45:04.999Z</time></trkpt><trkpt lat="40.30677803732926" lon="17.67461810601488"><ele>4.0</ele><time>2026-03-29T11:45:05.999Z</time></trkpt><trkpt lat="40.3067194767637" lon="17.674753729423482"><ele>4.0</ele><time>2026-03-29T11:45:06.999Z</time></trkpt><trkpt lat="40.306640613955196" lon="17.674906190529562"><ele>4.0</ele><time>2026-03-29T11:45:07.999Z</time></trkpt><trkpt lat="40.306541922569785" lon="17.67507152622733"><ele>4.0</ele><time>2026-03-29T11:45:08.999Z</time></trkpt><trkpt lat="40.30644225947768" lon="17.675234259903654"><ele>4.0</ele><time>2026-03-29T11:45:09.999Z</time></trkpt><trkpt lat="40.3063497639629" lon="17.67538254849512"><ele>4.0</ele><time>2026-03-29T11:45:10.999Z</time></trkpt><trkpt lat="40.306255882851936" lon="17.675531529690208"><ele>4.0</ele><time>2026-03-29T11:45:11.999Z</time></trkpt><trkpt lat="40.30615952574143" lon="17.67568652018145"><ele>4.0</ele><time>2026-03-29T11:45:12.999Z</time></trkpt><trkpt lat="40.30607587304729" lon="17.67582112534217"><ele>4.0</ele><time>2026-03-29T11:45:13.999Z</time></trkpt><trkpt lat="40.30599185288907" lon="17.675961113745448"><ele>4.0</ele><time>2026-03-29T11:45:14.999Z</time></trkpt><trkpt lat="40.30591862256846" lon="17.676115395111502"><ele>4.0</ele><time>2026-03-29T11:45:15.999Z</time></trkpt><trkpt lat="40.30586789751991" lon="17.676300277662495"><ele>4.0</ele><time>2026-03-29T11:45:16.999Z</time></trkpt><trkpt lat="40.30581925444771" lon="17.676476482819815"><ele>4.0</ele><time>2026-03-29T11:45:17.999Z</time></trkpt><trkpt lat="40.305759709259945" lon="17.676647403807284"><ele>4.0</ele><time>2026-03-29T11:45:18.999Z</time></trkpt><trkpt lat="40.30574983717807" lon="17.676825724819444"><ele>4.0</ele><time>2026-03-29T11:45:19.999Z</time></trkpt><trkpt lat="40.305711242545684" lon="17.676998724659352"><ele>4.0</ele><time>2026-03-29T11:45:20.999Z</time></trkpt><trkpt lat="40.305688895951825" lon="17.677170812796618"><ele>4.0</ele><time>2026-03-29T11:45:21.999Z</time></trkpt><trkpt lat="40.30566619030931" lon="17.677353835936437"><ele>4.0</ele><time>2026-03-29T11:45:22.999Z</time></trkpt><trkpt lat="40.3056425676809" lon="17.677554395006005"><ele>4.0</ele><time>2026-03-29T11:45:23.999Z</time></trkpt><trkpt lat="40.30562023256542" lon="17.67775258739055"><ele>4.0</ele><time>2026-03-29T11:45:24.999Z</time></trkpt><trkpt lat="40.30560222777304" lon="17.677945089914374"><ele>3.6666666666666665</ele><time>2026-03-29T11:45:25.999Z</time></trkpt><trkpt lat="40.305586281848015" lon="17.678149389041597"><ele>3.333333333333333</ele><time>2026-03-29T11:45:26.999Z</time></trkpt><trkpt lat="40.30557040941621" lon="17.678361283412617"><ele>3.0</ele><time>2026-03-29T11:45:27.999Z</time></trkpt><trkpt lat="40.30555228285018" lon="17.678581634509136"><ele>3.0</ele><time>2026-03-29T11:45:28.999Z</time></trkpt><trkpt lat="40.30552933027335" lon="17.678818794882545"><ele>3.0</ele><time>2026-03-29T11:45:29.999Z</time></trkpt><trkpt lat="40.30549867505466" lon="17.67905381131094"><ele>3.0</ele><time>2026-03-29T11:45:30.999Z</time></trkpt><trkpt lat="40.305459262176804" lon="17.67930702159106"><ele>2.6666666666666665</ele><time>2026-03-29T11:45:31.999Z</time></trkpt><trkpt lat="40.30541479399768" lon="17.679569683788547"><ele>2.333333333333333</ele><time>2026-03-29T11:45:32.999Z</time></trkpt><trkpt lat="40.30536381380015" lon="17.679839139532756"><ele>2.0</ele><time>2026-03-29T11:45:33.999Z</time></trkpt><trkpt lat="40.30530991222953" lon="17.680102297530144"><ele>2.0</ele><time>2026-03-29T11:45:34.999Z</time></trkpt><trkpt lat="40.305283127202124" lon="17.680295486144377"><ele>2.0</ele><time>2026-03-29T11:45:35.999Z</time></trkpt><trkpt lat="40.30521056637289" lon="17.680542787035005"><ele>2.0</ele><time>2026-03-29T11:45:36.999Z</time></trkpt><trkpt lat="40.30517458400057" lon="17.680775376211198"><ele>2.0</ele><time>2026-03-29T11:45:37.999Z</time></trkpt><trkpt lat="40.30512004933231" lon="17.68099114524982"><ele>2.0</ele><time>2026-03-29T11:45:38.999Z</time></trkpt><trkpt lat="40.30507230713217" lon="17.681196526280555"><ele>2.0</ele><time>2026-03-29T11:45:39.999Z</time></trkpt><trkpt lat="40.305032072865195" lon="17.681400034926014"><ele>2.0</ele><time>2026-03-29T11:45:40.999Z</time></trkpt><trkpt lat="40.304987704390506" lon="17.681615682174094"><ele>2.0</ele><time>2026-03-29T11:45:41.999Z</time></trkpt><trkpt lat="40.30494279190162" lon="17.681839086770374"><ele>2.0</ele><time>2026-03-29T11:45:42.999Z</time></trkpt><trkpt lat="40.304892915441656" lon="17.682067928580004"><ele>1.6666666666666665</ele><time>2026-03-29T11:45:43.999Z</time></trkpt><trkpt lat="40.3048231020321" lon="17.68229286817704"><ele>1.3333333333333333</ele><time>2026-03-29T11:45:44.999Z</time></trkpt><trkpt lat="40.304767933463964" lon="17.682538440905144"><ele>1.0</ele><time>2026-03-29T11:45:45.999Z</time></trkpt><trkpt lat="40.304735479087" lon="17.68278998664235"><ele>1.0</ele><time>2026-03-29T11:45:46.999Z</time></trkpt><trkpt lat="40.30469803315437" lon="17.68305808773063"><ele>1.0</ele><time>2026-03-29T11:45:47.999Z</time></trkpt><trkpt lat="40.30467000017848" lon="17.683311676437846"><ele>1.0</ele><time>2026-03-29T11:45:48.999Z</time></trkpt><trkpt lat="40.30464890123587" lon="17.683555521821756"><ele>0.6666666666666666</ele><time>2026-03-29T11:45:49.999Z</time></trkpt><trkpt lat="40.30463357132563" lon="17.68379594408476"><ele>0.3333333333333333</ele><time>2026-03-29T11:45:50.999Z</time></trkpt><trkpt lat="40.30463010885162" lon="17.684026504301528"><ele>0.0</ele><time>2026-03-29T11:45:51.999Z</time></trkpt><trkpt lat="40.304603187587574" lon="17.68427001927781"><ele>0.0</ele><time>2026-03-29T11:45:52.999Z</time></trkpt><trkpt lat="40.30459068958753" lon="17.684512222896778"><ele>0.0</ele><time>2026-03-29T11:45:53.999Z</time></trkpt><trkpt lat="40.30457888308217" lon="17.684762463219094"><ele>0.0</ele><time>2026-03-29T11:45:54.999Z</time></trkpt><trkpt lat="40.30456882567552" lon="17.6849917085591"><ele>0.0</ele><time>2026-03-29T11:45:55.999Z</time></trkpt><trkpt lat="40.304561623911226" lon="17.685222037446596"><ele>0.0</ele><time>2026-03-29T11:45:56.999Z</time></trkpt><trkpt lat="40.30455744487428" lon="17.68544693566719"><ele>0.0</ele><time>2026-03-29T11:45:57.999Z</time></trkpt><trkpt lat="40.304579283488955" lon="17.68566068352364"><ele>0.25</ele><time>2026-03-29T11:45:58.999Z</time></trkpt><trkpt lat="40.30457684851655" lon="17.68588234128456"><ele>0.5</ele><time>2026-03-29T11:45:59.999Z</time></trkpt><trkpt lat="40.30457172328091" lon="17.686065925188277"><ele>0.75</ele><time>2026-03-29T11:46:00.999Z</time></trkpt><trkpt lat="40.30456719011106" lon="17.68624477179223"><ele>1.0</ele><time>2026-03-29T11:46:01.999Z</time></trkpt><trkpt lat="40.30453117989586" lon="17.68644194504669"><ele>1.3333333333333333</ele><time>2026-03-29T11:46:02.999Z</time></trkpt><trkpt lat="40.30452511417447" lon="17.68665771599136"><ele>1.6666666666666665</ele><time>2026-03-29T11:46:03.999Z</time></trkpt><trkpt lat="40.30451742279536" lon="17.686879077754444"><ele>2.0</ele><time>2026-03-29T11:46:04.999Z</time></trkpt><trkpt lat="40.30450729569968" lon="17.687108003433902"><ele>2.6666666666666665</ele><time>2026-03-29T11:46:05.999Z</time></trkpt><trkpt lat="40.30449127714446" lon="17.68734220516461"><ele>3.333333333333333</ele><time>2026-03-29T11:46:06.999Z</time></trkpt><trkpt lat="40.30447212699726" lon="17.687580101757177"><ele>4.0</ele><time>2026-03-29T11:46:07.999Z</time></trkpt><trkpt lat="40.30444704674978" lon="17.68782941736232"><ele>4.0</ele><time>2026-03-29T11:46:08.999Z</time></trkpt><trkpt lat="40.30442071404395" lon="17.68806448909748"><ele>4.0</ele><time>2026-03-29T11:46:09.996Z</time></trkpt><trkpt lat="40.30439424805777" lon="17.68829026117747"><ele>4.0</ele><time>2026-03-29T11:46:10.996Z</time></trkpt><trkpt lat="40.304364513918244" lon="17.688545227288653"><ele>3.0</ele><time>2026-03-29T11:46:11.996Z</time></trkpt><trkpt lat="40.30433848483366" lon="17.68877332897098"><ele>2.0</ele><time>2026-03-29T11:46:12.996Z</time></trkpt><trkpt lat="40.30431059386128" lon="17.68901789466963"><ele>1.0</ele><time>2026-03-29T11:46:13.996Z</time></trkpt><trkpt lat="40.30427872343249" lon="17.689296314586613"><ele>1.0</ele><time>2026-03-29T11:46:14.996Z</time></trkpt><trkpt lat="40.3042501797576" lon="17.689549826339256"><ele>1.0</ele><time>2026-03-29T11:46:15.996Z</time></trkpt><trkpt lat="40.30423057340162" lon="17.689781411794424"><ele>1.0</ele><time>2026-03-29T11:46:16.996Z</time></trkpt><trkpt lat="40.304214486374825" lon="17.6900082943552"><ele>1.0</ele><time>2026-03-29T11:46:17.996Z</time></trkpt><trkpt lat="40.30421973727341" lon="17.690235149053724"><ele>1.0</ele><time>2026-03-29T11:46:18.996Z</time></trkpt><trkpt lat="40.304203749262584" lon="17.69046450616052"><ele>1.0</ele><time>2026-03-29T11:46:19.997Z</time></trkpt><trkpt lat="40.30418672198348" lon="17.690716428420515"><ele>1.3333333333333333</ele><time>2026-03-29T11:46:20.997Z</time></trkpt><trkpt lat="40.30418257587658" lon="17.690965879182226"><ele>1.6666666666666665</ele><time>2026-03-29T11:46:21.997Z</time></trkpt><trkpt lat="40.30417843800315" lon="17.691214834500055"><ele>2.0</ele><time>2026-03-29T11:46:22.997Z</time></trkpt><trkpt lat="40.30417452242142" lon="17.69146606620153"><ele>1.6666666666666665</ele><time>2026-03-29T11:46:23.997Z</time></trkpt><trkpt lat="40.30418589738387" lon="17.691729007676116"><ele>1.3333333333333333</ele><time>2026-03-29T11:46:24.997Z</time></trkpt><trkpt lat="40.30418259759038" lon="17.69198831383747"><ele>1.0</ele><time>2026-03-29T11:46:25.997Z</time></trkpt><trkpt lat="40.30417479873626" lon="17.692254010292366"><ele>1.0</ele><time>2026-03-29T11:46:26.997Z</time></trkpt><trkpt lat="40.304158679978194" lon="17.692514975964354"><ele>1.0</ele><time>2026-03-29T11:46:27.997Z</time></trkpt><trkpt lat="40.30415474607245" lon="17.692759412726968"><ele>1.0</ele><time>2026-03-29T11:46:28.997Z</time></trkpt><trkpt lat="40.304166920709896" lon="17.692988581191624"><ele>1.0</ele><time>2026-03-29T11:46:29.997Z</time></trkpt><trkpt lat="40.3041471279856" lon="17.69320219082633"><ele>1.0</ele><time>2026-03-29T11:46:30.998Z</time></trkpt><trkpt lat="40.3041436710695" lon="17.693403113751998"><ele>1.0</ele><time>2026-03-29T11:46:31.998Z</time></trkpt><trkpt lat="40.30413994179912" lon="17.693594876028964"><ele>0.6666666666666666</ele><time>2026-03-29T11:46:32.998Z</time></trkpt><trkpt lat="40.30413600436557" lon="17.693801872574017"><ele>0.3333333333333333</ele><time>2026-03-29T11:46:33.998Z</time></trkpt><trkpt lat="40.3041317322163" lon="17.69402688631352"><ele>0.0</ele><time>2026-03-29T11:46:34.998Z</time></trkpt><trkpt lat="40.30412721060024" lon="17.694265851988952"><ele>0.3333333333333333</ele><time>2026-03-29T11:46:35.998Z</time></trkpt><trkpt lat="40.304122524300396" lon="17.6945135211728"><ele>0.6666666666666666</ele><time>2026-03-29T11:46:36.998Z</time></trkpt><trkpt lat="40.30411769244021" lon="17.694767976790406"><ele>1.0</ele><time>2026-03-29T11:46:37.998Z</time></trkpt><trkpt lat="40.304112724196855" lon="17.69502854697169"><ele>1.3333333333333333</ele><time>2026-03-29T11:46:38.998Z</time></trkpt><trkpt lat="40.30410749696402" lon="17.69530179754984"><ele>1.6666666666666665</ele><time>2026-03-29T11:46:39.998Z</time></trkpt><trkpt lat="40.30410173859163" lon="17.695568748173503"><ele>2.0</ele><time>2026-03-29T11:46:40.998Z</time></trkpt><trkpt lat="40.30409509952266" lon="17.695836562505402"><ele>2.0</ele><time>2026-03-29T11:46:41.998Z</time></trkpt><trkpt lat="40.304088179329426" lon="17.696074788643116"><ele>2.0</ele><time>2026-03-29T11:46:42.998Z</time></trkpt><trkpt lat="40.304079777252745" lon="17.69631002673742"><ele>2.0</ele><time>2026-03-29T11:46:43.998Z</time></trkpt><trkpt lat="40.304071490848955" lon="17.69653288648658"><ele>2.0</ele><time>2026-03-29T11:46:44.998Z</time></trkpt><trkpt lat="40.30406285991488" lon="17.69675584104806"><ele>2.0</ele><time>2026-03-29T11:46:45.998Z</time></trkpt><trkpt lat="40.30406998950479" lon="17.696978371916916"><ele>2.0</ele><time>2026-03-29T11:46:46.998Z</time></trkpt><trkpt lat="40.30406084978009" lon="17.697197435477772"><ele>2.0</ele><time>2026-03-29T11:46:47.998Z</time></trkpt><trkpt lat="40.30403556361761" lon="17.697427468143555"><ele>2.0</ele><time>2026-03-29T11:46:48.998Z</time></trkpt><trkpt lat="40.30403437912761" lon="17.697668103410717"><ele>2.0</ele><time>2026-03-29T11:46:49.998Z</time></trkpt><trkpt lat="40.30401447108428" lon="17.69791223083873"><ele>2.333333333333333</ele><time>2026-03-29T11:46:50.998Z</time></trkpt><trkpt lat="40.30402096795642" lon="17.69816570692359"><ele>2.6666666666666665</ele><time>2026-03-29T11:46:51.998Z</time></trkpt><trkpt lat="40.30400172836092" lon="17.698399906993746"><ele>3.0</ele><time>2026-03-29T11:46:52.998Z</time></trkpt><trkpt lat="40.30400121587951" lon="17.69868501545139"><ele>3.0</ele><time>2026-03-29T11:46:53.998Z</time></trkpt><trkpt lat="40.30399073291287" lon="17.698960513247997"><ele>3.0</ele><time>2026-03-29T11:46:54.998Z</time></trkpt><trkpt lat="40.30397994107308" lon="17.699236555440002"><ele>3.0</ele><time>2026-03-29T11:46:55.998Z</time></trkpt><trkpt lat="40.303966555120944" lon="17.699525319815493"><ele>3.0</ele><time>2026-03-29T11:46:56.998Z</time></trkpt><trkpt lat="40.30394800371554" lon="17.69979159752763"><ele>3.0</ele><time>2026-03-29T11:46:57.998Z</time></trkpt><trkpt lat="40.30393542872007" lon="17.700110327978393"><ele>3.0</ele><time>2026-03-29T11:46:58.998Z</time></trkpt><trkpt lat="40.30392132324271" lon="17.700419534805334"><ele>2.5</ele><time>2026-03-29T11:46:59.998Z</time></trkpt><trkpt lat="40.30390567252888" lon="17.700729562932086"><ele>2.0</ele><time>2026-03-29T11:47:00.998Z</time></trkpt><trkpt lat="40.3038860801493" lon="17.70103991398606"><ele>2.0</ele><time>2026-03-29T11:47:01.998Z</time></trkpt><trkpt lat="40.303852988836084" lon="17.701348281724997"><ele>2.0</ele><time>2026-03-29T11:47:02.998Z</time></trkpt><trkpt lat="40.30380896908458" lon="17.701644975404534"><ele>3.0</ele><time>2026-03-29T11:47:03.999Z</time></trkpt><trkpt lat="40.30375294093714" lon="17.701951272104377"><ele>4.0</ele><time>2026-03-29T11:47:04.999Z</time></trkpt><trkpt lat="40.30370255254157" lon="17.70225076292803"><ele>4.0</ele><time>2026-03-29T11:47:05.999Z</time></trkpt><trkpt lat="40.303652363463875" lon="17.70254010120685"><ele>4.0</ele><time>2026-03-29T11:47:06.999Z</time></trkpt><trkpt lat="40.303597263057625" lon="17.702825875433962"><ele>3.333333333333333</ele><time>2026-03-29T11:47:07.999Z</time></trkpt><trkpt lat="40.30354253673472" lon="17.703107203328443"><ele>2.6666666666666665</ele><time>2026-03-29T11:47:08.999Z</time></trkpt><trkpt lat="40.30349577828757" lon="17.703377511887144"><ele>2.0</ele><time>2026-03-29T11:47:09.999Z</time></trkpt><trkpt lat="40.30344853389469" lon="17.703641763284683"><ele>2.0</ele><time>2026-03-29T11:47:10.999Z</time></trkpt><trkpt lat="40.30340026867975" lon="17.703908008441175"><ele>2.0</ele><time>2026-03-29T11:47:11.999Z</time></trkpt><trkpt lat="40.30335497351305" lon="17.704166775815356"><ele>2.0</ele><time>2026-03-29T11:47:12.999Z</time></trkpt><trkpt lat="40.30330935209336" lon="17.704421863262546"><ele>2.6666666666666665</ele><time>2026-03-29T11:47:13.999Z</time></trkpt><trkpt lat="40.30326127144013" lon="17.704677082096794"><ele>3.333333333333333</ele><time>2026-03-29T11:47:14.999Z</time></trkpt><trkpt lat="40.30321441317186" lon="17.704927877624883"><ele>4.0</ele><time>2026-03-29T11:47:15.999Z</time></trkpt><trkpt lat="40.303165272452354" lon="17.705168340216098"><ele>4.333333333333333</ele><time>2026-03-29T11:47:16.999Z</time></trkpt><trkpt lat="40.303128622214906" lon="17.705434362150687"><ele>4.666666666666667</ele><time>2026-03-29T11:47:17.999Z</time></trkpt><trkpt lat="40.30308684362126" lon="17.705685341802575"><ele>5.0</ele><time>2026-03-29T11:47:18.999Z</time></trkpt><trkpt lat="40.303038671584204" lon="17.705943981928677"><ele>3.3333333333333335</ele><time>2026-03-29T11:47:19.999Z</time></trkpt><trkpt lat="40.30299246122531" lon="17.70620603628983"><ele>1.6666666666666667</ele><time>2026-03-29T11:47:20.999Z</time></trkpt><trkpt lat="40.30294655951478" lon="17.706472736728696"><ele>0.0</ele><time>2026-03-29T11:47:21.999Z</time></trkpt><trkpt lat="40.302902414685434" lon="17.706742445462588"><ele>0.6666666666666666</ele><time>2026-03-29T11:47:22.999Z</time></trkpt><trkpt lat="40.30284092113341" lon="17.707015225494832"><ele>1.3333333333333333</ele><time>2026-03-29T11:47:23.999Z</time></trkpt><trkpt lat="40.302809194468715" lon="17.707299720448244"><ele>2.0</ele><time>2026-03-29T11:47:24.999Z</time></trkpt><trkpt lat="40.30276790495038" lon="17.70758450098996"><ele>2.0</ele><time>2026-03-29T11:47:25.999Z</time></trkpt><trkpt lat="40.302729613725376" lon="17.707876005307035"><ele>2.0</ele><time>2026-03-29T11:47:26.999Z</time></trkpt><trkpt lat="40.30268979811444" lon="17.708171978571475"><ele>2.0</ele><time>2026-03-29T11:47:27.999Z</time></trkpt><trkpt lat="40.302650884850465" lon="17.708463952435192"><ele>2.0</ele><time>2026-03-29T11:47:28.999Z</time></trkpt><trkpt lat="40.3025960100601" lon="17.708759847754486"><ele>3.0</ele><time>2026-03-29T11:47:29.999Z</time></trkpt><trkpt lat="40.30255579245064" lon="17.709057782491417"><ele>4.0</ele><time>2026-03-29T11:47:30.999Z</time></trkpt><trkpt lat="40.30251626395675" lon="17.709350612217637"><ele>4.0</ele><time>2026-03-29T11:47:31.999Z</time></trkpt><trkpt lat="40.30247927545358" lon="17.709624625524263"><ele>4.0</ele><time>2026-03-29T11:47:32.999Z</time></trkpt><trkpt lat="40.302444440773634" lon="17.70988268316335"><ele>4.0</ele><time>2026-03-29T11:47:33.999Z</time></trkpt><trkpt lat="40.302410181742594" lon="17.71013647694903"><ele>4.0</ele><time>2026-03-29T11:47:34.999Z</time></trkpt><trkpt lat="40.30237440677508" lon="17.71040150119621"><ele>4.0</ele><time>2026-03-29T11:47:35.999Z</time></trkpt><trkpt lat="40.302335186596146" lon="17.710692047903052"><ele>4.0</ele><time>2026-03-29T11:47:36.999Z</time></trkpt><trkpt lat="40.30231695532259" lon="17.710980650161183"><ele>4.333333333333333</ele><time>2026-03-29T11:47:37.999Z</time></trkpt><trkpt lat="40.3022802757804" lon="17.711263000353377"><ele>4.666666666666667</ele><time>2026-03-29T11:47:38.999Z</time></trkpt><trkpt lat="40.302243669099624" lon="17.711539934389542"><ele>5.0</ele><time>2026-03-29T11:47:39.999Z</time></trkpt><trkpt lat="40.30220835750626" lon="17.71179107875788"><ele>4.0</ele><time>2026-03-29T11:47:40.999Z</time></trkpt><trkpt lat="40.30217413849613" lon="17.712029004915593"><ele>3.0</ele><time>2026-03-29T11:47:41.999Z</time></trkpt><trkpt lat="40.30214473779041" lon="17.712268612356713"><ele>2.0</ele><time>2026-03-29T11:47:42.999Z</time></trkpt><trkpt lat="40.30210977757978" lon="17.712526714438596"><ele>1.6666666666666665</ele><time>2026-03-29T11:47:43.999Z</time></trkpt><trkpt lat="40.302070388725895" lon="17.71279621448226"><ele>1.3333333333333333</ele><time>2026-03-29T11:47:44.999Z</time></trkpt><trkpt lat="40.302030235035936" lon="17.71306884923956"><ele>1.0</ele><time>2026-03-29T11:47:45.999Z</time></trkpt><trkpt lat="40.301989708325735" lon="17.71334967493806"><ele>0.6666666666666666</ele><time>2026-03-29T11:47:46.999Z</time></trkpt><trkpt lat="40.30194458393878" lon="17.71363429148351"><ele>0.3333333333333333</ele><time>2026-03-29T11:47:47.999Z</time></trkpt><trkpt lat="40.301901626397346" lon="17.713895665572167"><ele>0.0</ele><time>2026-03-29T11:47:48.999Z</time></trkpt><trkpt lat="40.301868072117955" lon="17.714136431290314"><ele>0.0</ele><time>2026-03-29T11:47:49.999Z</time></trkpt><trkpt lat="40.30183193468796" lon="17.714371218207116"><ele>0.0</ele><time>2026-03-29T11:47:50.999Z</time></trkpt><trkpt lat="40.30180074263551" lon="17.71458835368318"><ele>0.0</ele><time>2026-03-29T11:47:51.999Z</time></trkpt><trkpt lat="40.30176819894343" lon="17.714794982536745"><ele>0.0</ele><time>2026-03-29T11:47:52.999Z</time></trkpt><trkpt lat="40.301734911774524" lon="17.714995974748145"><ele>0.0</ele><time>2026-03-29T11:47:53.999Z</time></trkpt><trkpt lat="40.30170322023869" lon="17.715198569724965"><ele>0.0</ele><time>2026-03-29T11:47:54.999Z</time></trkpt><trkpt lat="40.301672580208525" lon="17.715394326492493"><ele>0.5</ele><time>2026-03-29T11:47:55.999Z</time></trkpt><trkpt lat="40.30164431251853" lon="17.715590202525114"><ele>1.0</ele><time>2026-03-29T11:47:56.999Z</time></trkpt><trkpt lat="40.301611948506164" lon="17.715776302935968"><ele>1.5</ele><time>2026-03-29T11:47:57.999Z</time></trkpt><trkpt lat="40.30158249123019" lon="17.71595801628595"><ele>2.0</ele><time>2026-03-29T11:47:58.999Z</time></trkpt><trkpt lat="40.30155470832955" lon="17.71611670222186"><ele>1.9999999999999998</ele><time>2026-03-29T11:47:59.999Z</time></trkpt><trkpt lat="40.30153389576524" lon="17.71626224123203"><ele>2.0</ele><time>2026-03-29T11:48:00.999Z</time></trkpt><trkpt lat="40.30151388871017" lon="17.71639555618274"><ele>2.0</ele><time>2026-03-29T11:48:01.999Z</time></trkpt><trkpt lat="40.3014935332093" lon="17.71650868479303"><ele>2.0</ele><time>2026-03-29T11:48:02.999Z</time></trkpt><trkpt lat="40.30146543342823" lon="17.71658287696313"><ele>1.9999999999999998</ele><time>2026-03-29T11:48:03.999Z</time></trkpt><trkpt lat="40.301462058353295" lon="17.71666729535542"><ele>2.0</ele><time>2026-03-29T11:48:54Z</time></trkpt><trkpt lat="40.30143176428196" lon="17.71685785188945"><ele>1.6</ele><time>2026-03-29T11:48:56Z</time></trkpt><trkpt lat="40.3013986582659" lon="17.71695487511276"><ele>1.2000000000000002</ele><time>2026-03-29T11:48:57Z</time></trkpt><trkpt lat="40.301379859543765" lon="17.717076661436533"><ele>0.8</ele><time>2026-03-29T11:48:58Z</time></trkpt><trkpt lat="40.30135965240068" lon="17.717207572117434"><ele>0.4</ele><time>2026-03-29T11:48:59Z</time></trkpt><trkpt lat="40.301337253204586" lon="17.717352683857253"><ele>0.0</ele><time>2026-03-29T11:49:00Z</time></trkpt><trkpt lat="40.30131159285066" lon="17.717520966395398"><ele>0.0</ele><time>2026-03-29T11:49:01Z</time></trkpt><trkpt lat="40.301283107588034" lon="17.717725839448313"><ele>0.0</ele><time>2026-03-29T11:49:02Z</time></trkpt><trkpt lat="40.301262290415885" lon="17.71790843541861"><ele>0.0</ele><time>2026-03-29T11:49:03Z</time></trkpt><trkpt lat="40.301241882461184" lon="17.71811297737226"><ele>0.3333333333333333</ele><time>2026-03-29T11:49:04Z</time></trkpt><trkpt lat="40.30122905086697" lon="17.718338312190138"><ele>0.6666666666666666</ele><time>2026-03-29T11:49:05Z</time></trkpt><trkpt lat="40.301226513421476" lon="17.718571369959534"><ele>1.0</ele><time>2026-03-29T11:49:06Z</time></trkpt><trkpt lat="40.30122872961666" lon="17.718817163507126"><ele>1.3333333333333333</ele><time>2026-03-29T11:49:07Z</time></trkpt><trkpt lat="40.301234845490875" lon="17.719076331108724"><ele>1.6666666666666665</ele><time>2026-03-29T11:49:08Z</time></trkpt><trkpt lat="40.30124227286169" lon="17.719341067456167"><ele>2.0</ele><time>2026-03-29T11:49:09Z</time></trkpt><trkpt lat="40.30125060118985" lon="17.71961635852454"><ele>2.0</ele><time>2026-03-29T11:49:10Z</time></trkpt><trkpt lat="40.3012597155102" lon="17.719902307234992"><ele>2.0</ele><time>2026-03-29T11:49:11Z</time></trkpt><trkpt lat="40.30126798695403" lon="17.720179999160624"><ele>2.0</ele><time>2026-03-29T11:49:12Z</time></trkpt><trkpt lat="40.30127560969727" lon="17.720446688589593"><ele>2.333333333333333</ele><time>2026-03-29T11:49:13Z</time></trkpt><trkpt lat="40.3012831361937" lon="17.720713526147687"><ele>2.6666666666666665</ele><time>2026-03-29T11:49:14Z</time></trkpt><trkpt lat="40.30128953408645" lon="17.720986178743424"><ele>3.0</ele><time>2026-03-29T11:49:15Z</time></trkpt><trkpt lat="40.3012965005938" lon="17.721255910296083"><ele>2.3333333333333335</ele><time>2026-03-29T11:49:16Z</time></trkpt><trkpt lat="40.301302726168394" lon="17.721505537011243"><ele>1.6666666666666665</ele><time>2026-03-29T11:49:17Z</time></trkpt><trkpt lat="40.30132296014046" lon="17.721752562558496"><ele>1.0</ele><time>2026-03-29T11:49:18Z</time></trkpt><trkpt lat="40.301316613169305" lon="17.721999889123946"><ele>0.6666666666666666</ele><time>2026-03-29T11:49:19Z</time></trkpt><trkpt lat="40.30131057546034" lon="17.722245085102674"><ele>0.3333333333333333</ele><time>2026-03-29T11:49:20Z</time></trkpt><trkpt lat="40.30130815238896" lon="17.722488625544965"><ele>0.0</ele><time>2026-03-29T11:49:21Z</time></trkpt><trkpt lat="40.301307694947944" lon="17.722737146515875"><ele>0.0</ele><time>2026-03-29T11:49:22Z</time></trkpt><trkpt lat="40.30129816777655" lon="17.72298654884162"><ele>0.0</ele><time>2026-03-29T11:49:23Z</time></trkpt><trkpt lat="40.3012726540676" lon="17.723238847957614"><ele>0.0</ele><time>2026-03-29T11:49:24Z</time></trkpt><trkpt lat="40.30124786211096" lon="17.72348120335252"><ele>0.3333333333333333</ele><time>2026-03-29T11:49:25Z</time></trkpt><trkpt lat="40.30122894938119" lon="17.723697036230398"><ele>0.6666666666666666</ele><time>2026-03-29T11:49:26Z</time></trkpt><trkpt lat="40.301210546020485" lon="17.72389633705543"><ele>1.0</ele><time>2026-03-29T11:49:27Z</time></trkpt><trkpt lat="40.301193620018665" lon="17.72406667870907"><ele>1.0</ele><time>2026-03-29T11:49:28Z</time></trkpt><trkpt lat="40.301182588609386" lon="17.724193212316322"><ele>1.0</ele><time>2026-03-29T11:49:29Z</time></trkpt><trkpt lat="40.301280428906374" lon="17.72427311780596"><ele>1.0</ele><time>2026-03-29T11:49:32Z</time></trkpt><trkpt lat="40.30138718393033" lon="17.724291804553072"><ele>1.0</ele><time>2026-03-29T11:49:34Z</time></trkpt><trkpt lat="40.30148175939867" lon="17.724310320206115"><ele>1.0</ele><time>2026-03-29T11:49:35Z</time></trkpt><trkpt lat="40.30158504699454" lon="17.724336275173727"><ele>1.2000000000000002</ele><time>2026-03-29T11:49:36Z</time></trkpt><trkpt lat="40.30169032821813" lon="17.724372389264907"><ele>1.4000000000000001</ele><time>2026-03-29T11:49:37Z</time></trkpt><trkpt lat="40.30178056958372" lon="17.72442728563017"><ele>1.6</ele><time>2026-03-29T11:49:38Z</time></trkpt><trkpt lat="40.301843387342416" lon="17.724494668724237"><ele>1.8</ele><time>2026-03-29T11:49:39Z</time></trkpt><trkpt lat="40.30189543520218" lon="17.724584275886752"><ele>2.0</ele><time>2026-03-29T11:49:40Z</time></trkpt><trkpt lat="40.30196239152211" lon="17.724693190589264"><ele>2.5</ele><time>2026-03-29T11:49:41Z</time></trkpt><trkpt lat="40.30203905459161" lon="17.724823560411174"><ele>3.0</ele><time>2026-03-29T11:49:42Z</time></trkpt><trkpt lat="40.30213067627772" lon="17.724970393580357"><ele>3.5</ele><time>2026-03-29T11:49:43Z</time></trkpt><trkpt lat="40.30222379580781" lon="17.725115196874672"><ele>4.0</ele><time>2026-03-29T11:49:44Z</time></trkpt><trkpt lat="40.30233420550752" lon="17.725294974723756"><ele>4.0</ele><time>2026-03-29T11:49:45Z</time></trkpt><trkpt lat="40.30245278023295" lon="17.725478094871022"><ele>4.0</ele><time>2026-03-29T11:49:46Z</time></trkpt><trkpt lat="40.30257744258452" lon="17.725676146627087"><ele>4.0</ele><time>2026-03-29T11:49:47Z</time></trkpt><trkpt lat="40.30270008377332" lon="17.725879235647593"><ele>3.6666666666666665</ele><time>2026-03-29T11:49:48Z</time></trkpt><trkpt lat="40.30283401630526" lon="17.7260965768403"><ele>3.333333333333333</ele><time>2026-03-29T11:49:49Z</time></trkpt><trkpt lat="40.302984093639616" lon="17.726311054049063"><ele>3.0</ele><time>2026-03-29T11:49:50Z</time></trkpt><trkpt lat="40.30313340275907" lon="17.72653174942078"><ele>2.5</ele><time>2026-03-29T11:49:51Z</time></trkpt><trkpt lat="40.303281925370754" lon="17.726762003046495"><ele>2.0</ele><time>2026-03-29T11:49:52Z</time></trkpt><trkpt lat="40.30342733253252" lon="17.72699566932519"><ele>2.0</ele><time>2026-03-29T11:49:53Z</time></trkpt><trkpt lat="40.303571870900775" lon="17.72722443645244"><ele>2.0</ele><time>2026-03-29T11:49:54Z</time></trkpt><trkpt lat="40.303720795679226" lon="17.727447954519914"><ele>2.0</ele><time>2026-03-29T11:49:55Z</time></trkpt><trkpt lat="40.30386250204202" lon="17.727666618197876"><ele>2.0</ele><time>2026-03-29T11:49:56Z</time></trkpt><trkpt lat="40.30400303180418" lon="17.727892349070373"><ele>2.0</ele><time>2026-03-29T11:49:57Z</time></trkpt><trkpt lat="40.304121011810786" lon="17.72814944778656"><ele>3.0</ele><time>2026-03-29T11:49:58Z</time></trkpt><trkpt lat="40.3042332829612" lon="17.728397022212807"><ele>4.0</ele><time>2026-03-29T11:49:59Z</time></trkpt><trkpt lat="40.304338498052395" lon="17.728656933971738"><ele>5.0</ele><time>2026-03-29T11:50:00Z</time></trkpt><trkpt lat="40.304436079169356" lon="17.728922768540897"><ele>5.0</ele><time>2026-03-29T11:50:01Z</time></trkpt><trkpt lat="40.30451893326245" lon="17.729194963599625"><ele>5.0</ele><time>2026-03-29T11:50:02Z</time></trkpt><trkpt lat="40.30459144144897" lon="17.729472082484673"><ele>5.0</ele><time>2026-03-29T11:50:03Z</time></trkpt><trkpt lat="40.304655179517155" lon="17.729761158958112"><ele>4.0</ele><time>2026-03-29T11:50:04Z</time></trkpt><trkpt lat="40.30470394404031" lon="17.73004904304371"><ele>3.0</ele><time>2026-03-29T11:50:05Z</time></trkpt><trkpt lat="40.304741590002564" lon="17.730345691252413"><ele>3.333333333333333</ele><time>2026-03-29T11:50:06Z</time></trkpt><trkpt lat="40.30476459968647" lon="17.730625617753613"><ele>3.6666666666666665</ele><time>2026-03-29T11:50:07Z</time></trkpt><trkpt lat="40.30477601465998" lon="17.730902869275386"><ele>4.0</ele><time>2026-03-29T11:50:08Z</time></trkpt><trkpt lat="40.304776524668576" lon="17.73117902721091"><ele>4.0</ele><time>2026-03-29T11:50:09Z</time></trkpt><trkpt lat="40.30476939379929" lon="17.731452419634913"><ele>4.0</ele><time>2026-03-29T11:50:10Z</time></trkpt><trkpt lat="40.30475117517908" lon="17.731741557422183"><ele>4.0</ele><time>2026-03-29T11:50:11Z</time></trkpt><trkpt lat="40.304726818200756" lon="17.732032630009456"><ele>3.0</ele><time>2026-03-29T11:50:12Z</time></trkpt><trkpt lat="40.304703970976604" lon="17.732325148947588"><ele>2.0</ele><time>2026-03-29T11:50:13Z</time></trkpt><trkpt lat="40.304680481526816" lon="17.732625890464618"><ele>1.0</ele><time>2026-03-29T11:50:14Z</time></trkpt><trkpt lat="40.30465679365973" lon="17.732929172358656"><ele>0.0</ele><time>2026-03-29T11:50:15Z</time></trkpt><trkpt lat="40.30463195311031" lon="17.73322697845933"><ele>0.0</ele><time>2026-03-29T11:50:16Z</time></trkpt><trkpt lat="40.3046092786407" lon="17.73351066510812"><ele>0.0</ele><time>2026-03-29T11:50:17Z</time></trkpt><trkpt lat="40.30458588580072" lon="17.73380876432632"><ele>0.0</ele><time>2026-03-29T11:50:18Z</time></trkpt><trkpt lat="40.30456105443302" lon="17.734117146299447"><ele>0.5</ele><time>2026-03-29T11:50:19Z</time></trkpt><trkpt lat="40.30455168915533" lon="17.73443579731517"><ele>1.0</ele><time>2026-03-29T11:50:20Z</time></trkpt><trkpt lat="40.30451022313935" lon="17.734746531190606"><ele>1.0</ele><time>2026-03-29T11:50:21Z</time></trkpt><trkpt lat="40.30448511276422" lon="17.735061597596708"><ele>1.0</ele><time>2026-03-29T11:50:22Z</time></trkpt><trkpt lat="40.30446069366318" lon="17.735372186596745"><ele>0.5</ele><time>2026-03-29T11:50:23Z</time></trkpt><trkpt lat="40.30444886307965" lon="17.735686467302124"><ele>0.0</ele><time>2026-03-29T11:50:24Z</time></trkpt><trkpt lat="40.30442364645405" lon="17.735998040245544"><ele>0.0</ele><time>2026-03-29T11:50:25Z</time></trkpt><trkpt lat="40.30439938207972" lon="17.736320096158153"><ele>0.0</ele><time>2026-03-29T11:50:26Z</time></trkpt><trkpt lat="40.30437339517063" lon="17.736644272300847"><ele>1.5</ele><time>2026-03-29T11:50:27Z</time></trkpt><trkpt lat="40.30434446289789" lon="17.736976233436746"><ele>3.0</ele><time>2026-03-29T11:50:28Z</time></trkpt><trkpt lat="40.30431959900862" lon="17.737306385499952"><ele>3.0</ele><time>2026-03-29T11:50:29Z</time></trkpt><trkpt lat="40.304295105704874" lon="17.73764440488668"><ele>3.0</ele><time>2026-03-29T11:50:30Z</time></trkpt><trkpt lat="40.3042694136534" lon="17.73797693958663"><ele>3.5</ele><time>2026-03-29T11:50:31Z</time></trkpt><trkpt lat="40.30424099045575" lon="17.73830856552101"><ele>4.0</ele><time>2026-03-29T11:50:32Z</time></trkpt><trkpt lat="40.3042003078353" lon="17.738635848598765"><ele>4.5</ele><time>2026-03-29T11:50:33Z</time></trkpt><trkpt lat="40.30417398792937" lon="17.738961106509766"><ele>5.0</ele><time>2026-03-29T11:50:34Z</time></trkpt><trkpt lat="40.304147195520656" lon="17.739296830184493"><ele>5.5</ele><time>2026-03-29T11:50:35Z</time></trkpt><trkpt lat="40.30411993323277" lon="17.73963978786927"><ele>6.0</ele><time>2026-03-29T11:50:36Z</time></trkpt><trkpt lat="40.304094984144776" lon="17.7399536457505"><ele>6.5</ele><time>2026-03-29T11:50:37Z</time></trkpt><trkpt lat="40.30406897233093" lon="17.740280872606103"><ele>7.0</ele><time>2026-03-29T11:50:38Z</time></trkpt><trkpt lat="40.30404358666715" lon="17.740598929472124"><ele>7.0</ele><time>2026-03-29T11:50:39Z</time></trkpt><trkpt lat="40.30401824020168" lon="17.740912996958258"><ele>7.0</ele><time>2026-03-29T11:50:40Z</time></trkpt><trkpt lat="40.30399256776037" lon="17.74123110360646"><ele>6.5</ele><time>2026-03-29T11:50:41Z</time></trkpt><trkpt lat="40.30396714938343" lon="17.74154606210489"><ele>6.0</ele><time>2026-03-29T11:50:42Z</time></trkpt><trkpt lat="40.30394305549343" lon="17.74184460899199"><ele>5.333333333333333</ele><time>2026-03-29T11:50:43Z</time></trkpt><trkpt lat="40.3039214260859" lon="17.742112619238437"><ele>4.666666666666666</ele><time>2026-03-29T11:50:44Z</time></trkpt><trkpt lat="40.303900806149755" lon="17.742368121132746"><ele>4.0</ele><time>2026-03-29T11:50:45Z</time></trkpt><trkpt lat="40.30390641272571" lon="17.742609493070738"><ele>3.0</ele><time>2026-03-29T11:50:46Z</time></trkpt><trkpt lat="40.30389201923904" lon="17.742826461722647"><ele>2.0</ele><time>2026-03-29T11:50:47Z</time></trkpt><trkpt lat="40.30388030528111" lon="17.743026497405516"><ele>1.0</ele><time>2026-03-29T11:50:48Z</time></trkpt><trkpt lat="40.30386388488152" lon="17.74322036929709"><ele>1.0</ele><time>2026-03-29T11:50:49Z</time></trkpt><trkpt lat="40.30385132138985" lon="17.743398392043233"><ele>1.0</ele><time>2026-03-29T11:50:50Z</time></trkpt><trkpt lat="40.303835008679776" lon="17.743584117820436"><ele>1.0</ele><time>2026-03-29T11:50:51Z</time></trkpt><trkpt lat="40.30381536621028" lon="17.7437541369261"><ele>1.0</ele><time>2026-03-29T11:50:52Z</time></trkpt><trkpt lat="40.3037981426911" lon="17.743899563695038"><ele>1.0</ele><time>2026-03-29T11:50:53Z</time></trkpt><trkpt lat="40.303788245829786" lon="17.744030555065233"><ele>1.0</ele><time>2026-03-29T11:50:54Z</time></trkpt><trkpt lat="40.303743981597854" lon="17.744125813141462"><ele>1.0</ele><time>2026-03-29T11:50:55Z</time></trkpt><trkpt lat="40.303692845788945" lon="17.744217790262816"><ele>1.0</ele><time>2026-03-29T11:50:56Z</time></trkpt><trkpt lat="40.30362849684764" lon="17.744299058387437"><ele>1.0</ele><time>2026-03-29T11:50:57Z</time></trkpt><trkpt lat="40.30355364752773" lon="17.744382215566908"><ele>1.0</ele><time>2026-03-29T11:50:58Z</time></trkpt><trkpt lat="40.30346672246605" lon="17.744375784279928"><ele>1.0</ele><time>2026-03-29T11:50:59Z</time></trkpt><trkpt lat="40.30333633803814" lon="17.744403391371698"><ele>1.0</ele><time>2026-03-29T11:51:00Z</time></trkpt><trkpt lat="40.30322553875145" lon="17.7444038410308"><ele>1.0</ele><time>2026-03-29T11:51:01Z</time></trkpt><trkpt lat="40.303096833233006" lon="17.744381985173106"><ele>1.3333333333333333</ele><time>2026-03-29T11:51:02Z</time></trkpt><trkpt lat="40.3029637399566" lon="17.744367047472057"><ele>1.6666666666666665</ele><time>2026-03-29T11:51:03Z</time></trkpt><trkpt lat="40.30271371346763" lon="17.744335533586643"><ele>2.0</ele><time>2026-03-29T11:51:05Z</time></trkpt><trkpt lat="40.30259915355125" lon="17.744321999760018"><ele>2.0</ele><time>2026-03-29T11:51:06Z</time></trkpt><trkpt lat="40.30250287726195" lon="17.744314815343202"><ele>2.0</ele><time>2026-03-29T11:51:07Z</time></trkpt><trkpt lat="40.30240932398145" lon="17.7442954611025"><ele>2.0</ele><time>2026-03-29T11:51:08Z</time></trkpt><trkpt lat="40.30233065645841" lon="17.744281287434614"><ele>2.0</ele><time>2026-03-29T11:51:09Z</time></trkpt><trkpt lat="40.30222472535684" lon="17.744270189043352"><ele>2.0</ele><time>2026-03-29T11:51:10Z</time></trkpt><trkpt lat="40.30211121990566" lon="17.744259256294466"><ele>2.2</ele><time>2026-03-29T11:51:11Z</time></trkpt><trkpt lat="40.302002250141726" lon="17.744245794309514"><ele>2.4000000000000004</ele><time>2026-03-29T11:51:12Z</time></trkpt><trkpt lat="40.301911265142316" lon="17.744234156779616"><ele>2.5999999999999996</ele><time>2026-03-29T11:51:13Z</time></trkpt><trkpt lat="40.301841149781566" lon="17.74421678197499"><ele>2.8</ele><time>2026-03-29T11:51:14Z</time></trkpt><trkpt lat="40.30173915222004" lon="17.74420158433755"><ele>3.0</ele><time>2026-03-29T11:51:16Z</time></trkpt><trkpt lat="40.30164727047324" lon="17.74419422899573"><ele>3.0</ele><time>2026-03-29T11:51:18Z</time></trkpt><trkpt lat="40.30158806230709" lon="17.744255110690563"><ele>3.0</ele><time>2026-03-29T11:51:21Z</time></trkpt><trkpt lat="40.30165327012179" lon="17.74431044647374"><ele>3.0</ele><time>2026-03-29T11:51:24Z</time></trkpt><trkpt lat="40.30175382661628" lon="17.74425371290415"><ele>3.0</ele><time>2026-03-29T11:51:28Z</time></trkpt><trkpt lat="40.30184053796659" lon="17.744262864249414"><ele>3.0</ele><time>2026-03-29T11:51:29Z</time></trkpt><trkpt lat="40.30192922516258" lon="17.74427181293011"><ele>3.0</ele><time>2026-03-29T11:51:30Z</time></trkpt><trkpt lat="40.302040738528895" lon="17.744282153476785"><ele>3.0</ele><time>2026-03-29T11:51:31Z</time></trkpt><trkpt lat="40.302160529643245" lon="17.744299928017455"><ele>3.0</ele><time>2026-03-29T11:51:32Z</time></trkpt><trkpt lat="40.302303273929205" lon="17.744309225217837"><ele>3.0</ele><time>2026-03-29T11:51:33Z</time></trkpt><trkpt lat="40.30244462318722" lon="17.744324930399387"><ele>3.0</ele><time>2026-03-29T11:51:34Z</time></trkpt><trkpt lat="40.30259820915744" lon="17.744333752831345"><ele>2.75</ele><time>2026-03-29T11:51:35Z</time></trkpt><trkpt lat="40.30272946474128" lon="17.74431887007005"><ele>2.5</ele><time>2026-03-29T11:51:36Z</time></trkpt><trkpt lat="40.30286958811737" lon="17.74435382888087"><ele>2.25</ele><time>2026-03-29T11:51:37Z</time></trkpt><trkpt lat="40.303003879338405" lon="17.74436336464407"><ele>2.0</ele><time>2026-03-29T11:51:38Z</time></trkpt><trkpt lat="40.3031446209152" lon="17.744383910809983"><ele>1.6</ele><time>2026-03-29T11:51:39Z</time></trkpt><trkpt lat="40.30328751018657" lon="17.744405550338914"><ele>1.2000000000000002</ele><time>2026-03-29T11:51:40Z</time></trkpt><trkpt lat="40.303399085252536" lon="17.74444947433623"><ele>0.8</ele><time>2026-03-29T11:51:41Z</time></trkpt><trkpt lat="40.30347504415931" lon="17.74446244810012"><ele>0.4</ele><time>2026-03-29T11:51:42Z</time></trkpt><trkpt lat="40.30356757287462" lon="17.74453241937997"><ele>0.0</ele><time>2026-03-29T11:51:43Z</time></trkpt><trkpt lat="40.30364580155702" lon="17.744647194750726"><ele>0.0</ele><time>2026-03-29T11:51:44Z</time></trkpt><trkpt lat="40.3037002155066" lon="17.744770216541973"><ele>0.0</ele><time>2026-03-29T11:51:45Z</time></trkpt><trkpt lat="40.30371382641027" lon="17.744879672753093"><ele>0.0</ele><time>2026-03-29T11:51:46Z</time></trkpt><trkpt lat="40.30371697862553" lon="17.74501281954103"><ele>0.0</ele><time>2026-03-29T11:51:47.001Z</time></trkpt><trkpt lat="40.303724558930355" lon="17.74519282696967"><ele>0.0</ele><time>2026-03-29T11:51:48Z</time></trkpt><trkpt lat="40.30360653116288" lon="17.74533026850135"><ele>0.0</ele><time>2026-03-29T11:51:49Z</time></trkpt><trkpt lat="40.30363998159682" lon="17.745543370076067"><ele>0.0</ele><time>2026-03-29T11:51:50Z</time></trkpt><trkpt lat="40.303635254802174" lon="17.745774800610914"><ele>0.0</ele><time>2026-03-29T11:51:51Z</time></trkpt><trkpt lat="40.30362599284102" lon="17.746033791306385"><ele>0.0</ele><time>2026-03-29T11:51:52Z</time></trkpt><trkpt lat="40.30361227778283" lon="17.746298948555935"><ele>0.0</ele><time>2026-03-29T11:51:53Z</time></trkpt><trkpt lat="40.30358433127699" lon="17.746510652076218"><ele>0.0</ele><time>2026-03-29T11:51:54Z</time></trkpt><trkpt lat="40.30358234146421" lon="17.74680232885312"><ele>0.0</ele><time>2026-03-29T11:51:55Z</time></trkpt><trkpt lat="40.303577560251284" lon="17.747147320394152"><ele>0.0</ele><time>2026-03-29T11:51:56Z</time></trkpt><trkpt lat="40.30354516609733" lon="17.74744040714782"><ele>0.0</ele><time>2026-03-29T11:51:57Z</time></trkpt><trkpt lat="40.30352856431989" lon="17.74773388931419"><ele>0.0</ele><time>2026-03-29T11:51:58Z</time></trkpt><trkpt lat="40.30352677732996" lon="17.74802960802904"><ele>0.0</ele><time>2026-03-29T11:51:59Z</time></trkpt><trkpt lat="40.303493159006216" lon="17.748324355639497"><ele>0.0</ele><time>2026-03-29T11:52:00.001Z</time></trkpt><trkpt lat="40.303473633812786" lon="17.74860539593303"><ele>0.0</ele><time>2026-03-29T11:52:01.001Z</time></trkpt><trkpt lat="40.30344842977509" lon="17.748871594081017"><ele>0.0</ele><time>2026-03-29T11:52:02.001Z</time></trkpt><trkpt lat="40.303411896001705" lon="17.749124948893712"><ele>0.0</ele><time>2026-03-29T11:52:03.001Z</time></trkpt><trkpt lat="40.30337154605692" lon="17.74935371736753"><ele>0.0</ele><time>2026-03-29T11:52:04.001Z</time></trkpt><trkpt lat="40.303332427771714" lon="17.74956295607852"><ele>0.0</ele><time>2026-03-29T11:52:05.001Z</time></trkpt><trkpt lat="40.30328777389629" lon="17.74979542819708"><ele>0.0</ele><time>2026-03-29T11:52:06.001Z</time></trkpt><trkpt lat="40.30323868270287" lon="17.750051001392798"><ele>0.0</ele><time>2026-03-29T11:52:07.001Z</time></trkpt><trkpt lat="40.303188947772384" lon="17.75031486072165"><ele>0.0</ele><time>2026-03-29T11:52:08.001Z</time></trkpt><trkpt lat="40.30313695750725" lon="17.750596645879078"><ele>0.0</ele><time>2026-03-29T11:52:09.001Z</time></trkpt><trkpt lat="40.303084447218104" lon="17.750879977403503"><ele>0.0</ele><time>2026-03-29T11:52:10.001Z</time></trkpt><trkpt lat="40.30304377305727" lon="17.75118661957998"><ele>-0.5</ele><time>2026-03-29T11:52:11.001Z</time></trkpt><trkpt lat="40.30298810033649" lon="17.751481178515533"><ele>-1.0</ele><time>2026-03-29T11:52:12.001Z</time></trkpt><trkpt lat="40.30293608355581" lon="17.75175983124982"><ele>-0.6666666666666666</ele><time>2026-03-29T11:52:13.001Z</time></trkpt><trkpt lat="40.302871843263226" lon="17.752022021835867"><ele>-0.3333333333333333</ele><time>2026-03-29T11:52:14.001Z</time></trkpt><trkpt lat="40.302820868230235" lon="17.752297165399664"><ele>0.0</ele><time>2026-03-29T11:52:15.001Z</time></trkpt><trkpt lat="40.302785076622555" lon="17.752573020669676"><ele>0.0</ele><time>2026-03-29T11:52:16.001Z</time></trkpt><trkpt lat="40.30273606482728" lon="17.752846774551465"><ele>0.0</ele><time>2026-03-29T11:52:17.001Z</time></trkpt><trkpt lat="40.30268415622959" lon="17.753122008621"><ele>0.0</ele><time>2026-03-29T11:52:18.001Z</time></trkpt><trkpt lat="40.302634948862305" lon="17.753398791300388"><ele>-0.3333333333333333</ele><time>2026-03-29T11:52:19.001Z</time></trkpt><trkpt lat="40.30256730572795" lon="17.75368332375058"><ele>-0.6666666666666666</ele><time>2026-03-29T11:52:20.001Z</time></trkpt><trkpt lat="40.3025154486582" lon="17.753962391857076"><ele>-1.0</ele><time>2026-03-29T11:52:21.001Z</time></trkpt><trkpt lat="40.3024618609046" lon="17.754254223507285"><ele>-1.0</ele><time>2026-03-29T11:52:22.001Z</time></trkpt><trkpt lat="40.30241029098566" lon="17.75453506631262"><ele>-1.0</ele><time>2026-03-29T11:52:23.001Z</time></trkpt><trkpt lat="40.30235514206415" lon="17.754802858968237"><ele>-1.0</ele><time>2026-03-29T11:52:24.001Z</time></trkpt><trkpt lat="40.30231952346617" lon="17.755103636175438"><ele>0.0</ele><time>2026-03-29T11:52:25.001Z</time></trkpt><trkpt lat="40.302267436940944" lon="17.75540922092553"><ele>1.0</ele><time>2026-03-29T11:52:26.001Z</time></trkpt><trkpt lat="40.30221360361007" lon="17.75569551113842"><ele>1.0</ele><time>2026-03-29T11:52:27.001Z</time></trkpt><trkpt lat="40.302162089374626" lon="17.755973321554492"><ele>1.0</ele><time>2026-03-29T11:52:28.001Z</time></trkpt><trkpt lat="40.30211381967252" lon="17.756259710323885"><ele>1.0</ele><time>2026-03-29T11:52:29.001Z</time></trkpt><trkpt lat="40.30205639655594" lon="17.756547013446465"><ele>0.5</ele><time>2026-03-29T11:52:30.001Z</time></trkpt><trkpt lat="40.30200085414464" lon="17.75684042084373"><ele>0.0</ele><time>2026-03-29T11:52:31.001Z</time></trkpt><trkpt lat="40.30195362414372" lon="17.75714500653761"><ele>0.0</ele><time>2026-03-29T11:52:32.001Z</time></trkpt><trkpt lat="40.301899732933656" lon="17.75745366402617"><ele>0.0</ele><time>2026-03-29T11:52:33.001Z</time></trkpt><trkpt lat="40.301826555361195" lon="17.757774827719558"><ele>0.5</ele><time>2026-03-29T11:52:34.001Z</time></trkpt><trkpt lat="40.301786535046176" lon="17.758072286607607"><ele>1.0</ele><time>2026-03-29T11:52:35.001Z</time></trkpt><trkpt lat="40.30172726714588" lon="17.758385043752394"><ele>0.5</ele><time>2026-03-29T11:52:36.001Z</time></trkpt><trkpt lat="40.3016658560377" lon="17.758704286914398"><ele>0.0</ele><time>2026-03-29T11:52:37.001Z</time></trkpt><trkpt lat="40.30160861152781" lon="17.75901133206087"><ele>0.0</ele><time>2026-03-29T11:52:38.001Z</time></trkpt><trkpt lat="40.301551095301015" lon="17.759319182007058"><ele>0.0</ele><time>2026-03-29T11:52:39.001Z</time></trkpt><trkpt lat="40.301504506805095" lon="17.759621513506747"><ele>-0.5</ele><time>2026-03-29T11:52:40.001Z</time></trkpt><trkpt lat="40.301453157638534" lon="17.759927818226895"><ele>-1.0</ele><time>2026-03-29T11:52:41.001Z</time></trkpt><trkpt lat="40.301382649070824" lon="17.76023445159158"><ele>-1.0</ele><time>2026-03-29T11:52:42Z</time></trkpt><trkpt lat="40.301324804312905" lon="17.76054966546399"><ele>-1.0</ele><time>2026-03-29T11:52:43Z</time></trkpt><trkpt lat="40.30128193756567" lon="17.760870825156488"><ele>-1.0</ele><time>2026-03-29T11:52:44Z</time></trkpt><trkpt lat="40.30120900348895" lon="17.76118780559914"><ele>-1.0</ele><time>2026-03-29T11:52:45Z</time></trkpt><trkpt lat="40.30115312045377" lon="17.761500226583053"><ele>-1.0</ele><time>2026-03-29T11:52:46Z</time></trkpt><trkpt lat="40.301112691647155" lon="17.761819589183457"><ele>-1.0</ele><time>2026-03-29T11:52:47Z</time></trkpt><trkpt lat="40.30104085056057" lon="17.76211786782546"><ele>0.0</ele><time>2026-03-29T11:52:48Z</time></trkpt><trkpt lat="40.30098765556403" lon="17.76242147873618"><ele>1.0</ele><time>2026-03-29T11:52:49Z</time></trkpt><trkpt lat="40.30093605304942" lon="17.762695622836375"><ele>1.0</ele><time>2026-03-29T11:52:50Z</time></trkpt><trkpt lat="40.30089213636669" lon="17.762986103948137"><ele>1.0</ele><time>2026-03-29T11:52:51Z</time></trkpt><trkpt lat="40.30087848428611" lon="17.76327880253453"><ele>1.0</ele><time>2026-03-29T11:52:52Z</time></trkpt><trkpt lat="40.30086017729082" lon="17.763580041611142"><ele>1.0</ele><time>2026-03-29T11:52:53Z</time></trkpt><trkpt lat="40.30086368112816" lon="17.76389371983613"><ele>1.0</ele><time>2026-03-29T11:52:54Z</time></trkpt><trkpt lat="40.30085986958243" lon="17.764215000286054"><ele>0.5</ele><time>2026-03-29T11:52:55Z</time></trkpt><trkpt lat="40.300861324373905" lon="17.764533045153524"><ele>0.0</ele><time>2026-03-29T11:52:56Z</time></trkpt><trkpt lat="40.300845162282826" lon="17.76484877025658"><ele>0.0</ele><time>2026-03-29T11:52:57Z</time></trkpt><trkpt lat="40.30084402233689" lon="17.765183170472223"><ele>0.0</ele><time>2026-03-29T11:52:58Z</time></trkpt><trkpt lat="40.30084387338138" lon="17.765467956996908"><ele>0.0</ele><time>2026-03-29T11:52:59Z</time></trkpt><trkpt lat="40.30084562590064" lon="17.765747462348646"><ele>0.0</ele><time>2026-03-29T11:53:00Z</time></trkpt><trkpt lat="40.30083061947223" lon="17.76599826484562"><ele>0.0</ele><time>2026-03-29T11:53:01Z</time></trkpt><trkpt lat="40.30084227992642" lon="17.766259551567696"><ele>0.3333333333333333</ele><time>2026-03-29T11:53:02Z</time></trkpt><trkpt lat="40.30084080309366" lon="17.766528092862043"><ele>0.6666666666666666</ele><time>2026-03-29T11:53:03Z</time></trkpt><trkpt lat="40.30083529540392" lon="17.766767539487414"><ele>1.0</ele><time>2026-03-29T11:53:04Z</time></trkpt><trkpt lat="40.300837462291376" lon="17.767064200440466"><ele>1.0</ele><time>2026-03-29T11:53:05Z</time></trkpt><trkpt lat="40.300835620506795" lon="17.767341905655034"><ele>1.0</ele><time>2026-03-29T11:53:06Z</time></trkpt><trkpt lat="40.300835696988365" lon="17.767626603101224"><ele>1.0</ele><time>2026-03-29T11:53:07Z</time></trkpt><trkpt lat="40.300832263410406" lon="17.767920918482506"><ele>0.5</ele><time>2026-03-29T11:53:08Z</time></trkpt><trkpt lat="40.300823348085025" lon="17.768220883296586"><ele>0.0</ele><time>2026-03-29T11:53:09Z</time></trkpt><trkpt lat="40.30080838119641" lon="17.768532721552734"><ele>0.0</ele><time>2026-03-29T11:53:10Z</time></trkpt><trkpt lat="40.3007735315071" lon="17.76884612627397"><ele>0.0</ele><time>2026-03-29T11:53:11Z</time></trkpt><trkpt lat="40.300710214041736" lon="17.76915627733212"><ele>0.5</ele><time>2026-03-29T11:53:12Z</time></trkpt><trkpt lat="40.30065194656765" lon="17.769468600521584"><ele>1.0</ele><time>2026-03-29T11:53:13Z</time></trkpt><trkpt lat="40.30060702763336" lon="17.769799510054373"><ele>1.0</ele><time>2026-03-29T11:53:14Z</time></trkpt><trkpt lat="40.30059487956097" lon="17.770150530156897"><ele>1.0</ele><time>2026-03-29T11:53:15Z</time></trkpt><trkpt lat="40.3005716477099" lon="17.77046688572424"><ele>1.5</ele><time>2026-03-29T11:53:16Z</time></trkpt><trkpt lat="40.30052787906755" lon="17.770795209059802"><ele>2.0</ele><time>2026-03-29T11:53:17Z</time></trkpt><trkpt lat="40.30049149011292" lon="17.771125507915215"><ele>2.5</ele><time>2026-03-29T11:53:18Z</time></trkpt><trkpt lat="40.30044562807629" lon="17.771473857500983"><ele>3.0</ele><time>2026-03-29T11:53:19Z</time></trkpt><trkpt lat="40.300405446385746" lon="17.77182198467454"><ele>2.5</ele><time>2026-03-29T11:53:20Z</time></trkpt><trkpt lat="40.30036657286532" lon="17.77216300662289"><ele>2.0</ele><time>2026-03-29T11:53:21Z</time></trkpt><trkpt lat="40.30032734767674" lon="17.77249940715899"><ele>1.5</ele><time>2026-03-29T11:53:22Z</time></trkpt><trkpt lat="40.300285131491506" lon="17.77283910772866"><ele>1.0</ele><time>2026-03-29T11:53:23Z</time></trkpt><trkpt lat="40.30024281142392" lon="17.773191376033726"><ele>0.5</ele><time>2026-03-29T11:53:24Z</time></trkpt><trkpt lat="40.300199307502446" lon="17.77353584494321"><ele>0.0</ele><time>2026-03-29T11:53:25Z</time></trkpt><trkpt lat="40.300159954603394" lon="17.77388142989444"><ele>0.0</ele><time>2026-03-29T11:53:26Z</time></trkpt><trkpt lat="40.300124072924284" lon="17.774218856449217"><ele>0.0</ele><time>2026-03-29T11:53:27Z</time></trkpt><trkpt lat="40.30008428890272" lon="17.774548590976575"><ele>0.5</ele><time>2026-03-29T11:53:28Z</time></trkpt><trkpt lat="40.30004334577154" lon="17.77488395143496"><ele>1.0</ele><time>2026-03-29T11:53:29Z</time></trkpt><trkpt lat="40.30000490511726" lon="17.775206609166855"><ele>0.0</ele><time>2026-03-29T11:53:30Z</time></trkpt><trkpt lat="40.29996959069492" lon="17.775525954935805"><ele>-1.0</ele><time>2026-03-29T11:53:31Z</time></trkpt><trkpt lat="40.29992853288212" lon="17.775852490373843"><ele>-1.0</ele><time>2026-03-29T11:53:32Z</time></trkpt><trkpt lat="40.29989184642381" lon="17.776181164345545"><ele>-1.0</ele><time>2026-03-29T11:53:33Z</time></trkpt><trkpt lat="40.29985250196437" lon="17.776509495897102"><ele>-1.0</ele><time>2026-03-29T11:53:34Z</time></trkpt><trkpt lat="40.29981342204292" lon="17.776845085811246"><ele>-1.0</ele><time>2026-03-29T11:53:35Z</time></trkpt><trkpt lat="40.29977215668291" lon="17.77717827645319"><ele>-0.5</ele><time>2026-03-29T11:53:36Z</time></trkpt><trkpt lat="40.29972956137114" lon="17.77751182350552"><ele>0.0</ele><time>2026-03-29T11:53:37Z</time></trkpt><trkpt lat="40.29968740862134" lon="17.777850998662707"><ele>0.0</ele><time>2026-03-29T11:53:38Z</time></trkpt><trkpt lat="40.29963658799666" lon="17.778187312913065"><ele>0.0</ele><time>2026-03-29T11:53:39Z</time></trkpt><trkpt lat="40.299577155902796" lon="17.778517347808986"><ele>0.5</ele><time>2026-03-29T11:53:40Z</time></trkpt><trkpt lat="40.299506209647284" lon="17.778834834931484"><ele>1.0</ele><time>2026-03-29T11:53:41Z</time></trkpt><trkpt lat="40.29942895476657" lon="17.779140022553396"><ele>1.0</ele><time>2026-03-29T11:53:42Z</time></trkpt><trkpt lat="40.29935089913244" lon="17.779449703341456"><ele>1.0</ele><time>2026-03-29T11:53:43Z</time></trkpt><trkpt lat="40.29928104034421" lon="17.779762111316035"><ele>1.0</ele><time>2026-03-29T11:53:44Z</time></trkpt><trkpt lat="40.29920900018382" lon="17.78008561385421"><ele>1.0</ele><time>2026-03-29T11:53:45Z</time></trkpt><trkpt lat="40.29914260898583" lon="17.780410651205116"><ele>0.0</ele><time>2026-03-29T11:53:46Z</time></trkpt><trkpt lat="40.299070712331975" lon="17.78074188525672"><ele>-1.0</ele><time>2026-03-29T11:53:47Z</time></trkpt><trkpt lat="40.29899147046095" lon="17.781075505962665"><ele>-0.5</ele><time>2026-03-29T11:53:48Z</time></trkpt><trkpt lat="40.29891265162274" lon="17.781407709468887"><ele>0.0</ele><time>2026-03-29T11:53:49Z</time></trkpt><trkpt lat="40.29883434110555" lon="17.781749340573757"><ele>-0.5</ele><time>2026-03-29T11:53:50Z</time></trkpt><trkpt lat="40.29875925335185" lon="17.78208949897418"><ele>-1.0</ele><time>2026-03-29T11:53:51Z</time></trkpt><trkpt lat="40.29868410015032" lon="17.78242611129524"><ele>0.0</ele><time>2026-03-29T11:53:52Z</time></trkpt><trkpt lat="40.29860773296514" lon="17.782757994303925"><ele>1.0</ele><time>2026-03-29T11:53:53Z</time></trkpt><trkpt lat="40.29853193257429" lon="17.783094008543443"><ele>1.0</ele><time>2026-03-29T11:53:54Z</time></trkpt><trkpt lat="40.29845729185764" lon="17.783429529132945"><ele>1.0</ele><time>2026-03-29T11:53:55Z</time></trkpt><trkpt lat="40.29838456079477" lon="17.783766749347123"><ele>0.5</ele><time>2026-03-29T11:53:56Z</time></trkpt><trkpt lat="40.298310023140644" lon="17.784109530238048"><ele>0.0</ele><time>2026-03-29T11:53:57Z</time></trkpt><trkpt lat="40.298233128940126" lon="17.78445326363399"><ele>0.0</ele><time>2026-03-29T11:53:58Z</time></trkpt><trkpt lat="40.29815641312074" lon="17.78479242618264"><ele>0.0</ele><time>2026-03-29T11:53:59Z</time></trkpt><trkpt lat="40.2980766460165" lon="17.785142998718875"><ele>0.0</ele><time>2026-03-29T11:54:00Z</time></trkpt><trkpt lat="40.29799217239759" lon="17.785484549905988"><ele>0.0</ele><time>2026-03-29T11:54:01Z</time></trkpt><trkpt lat="40.29791106082854" lon="17.785825828704766"><ele>0.0</ele><time>2026-03-29T11:54:02Z</time></trkpt><trkpt lat="40.297833824901495" lon="17.786167382459187"><ele>0.0</ele><time>2026-03-29T11:54:03Z</time></trkpt><trkpt lat="40.29776038720328" lon="17.786511143107315"><ele>-0.5</ele><time>2026-03-29T11:54:04Z</time></trkpt><trkpt lat="40.29768215583817" lon="17.786857107924753"><ele>-1.0</ele><time>2026-03-29T11:54:05Z</time></trkpt><trkpt lat="40.29760513709946" lon="17.787198435945488"><ele>-1.0</ele><time>2026-03-29T11:54:06Z</time></trkpt><trkpt lat="40.29752742447515" lon="17.787541172564428"><ele>-1.0</ele><time>2026-03-29T11:54:07Z</time></trkpt><trkpt lat="40.29745171912012" lon="17.787878485857995"><ele>-1.0</ele><time>2026-03-29T11:54:08Z</time></trkpt><trkpt lat="40.297376192893836" lon="17.78821402943636"><ele>-1.0</ele><time>2026-03-29T11:54:09Z</time></trkpt><trkpt lat="40.29730278567396" lon="17.788541663721652"><ele>-1.5</ele><time>2026-03-29T11:54:10Z</time></trkpt><trkpt lat="40.297230686340676" lon="17.788866070361742"><ele>-2.0</ele><time>2026-03-29T11:54:11Z</time></trkpt><trkpt lat="40.29715893189188" lon="17.789185913999095"><ele>-2.0</ele><time>2026-03-29T11:54:12Z</time></trkpt><trkpt lat="40.297084804365625" lon="17.789500123154298"><ele>-2.0</ele><time>2026-03-29T11:54:13Z</time></trkpt><trkpt lat="40.29701269954999" lon="17.789814375107117"><ele>-2.0</ele><time>2026-03-29T11:54:14Z</time></trkpt><trkpt lat="40.29694310608384" lon="17.790125596089542"><ele>-2.0</ele><time>2026-03-29T11:54:15Z</time></trkpt><trkpt lat="40.29687313585288" lon="17.790442018221515"><ele>-2.0</ele><time>2026-03-29T11:54:16Z</time></trkpt><trkpt lat="40.29680005494165" lon="17.790758528997717"><ele>-2.0</ele><time>2026-03-29T11:54:17Z</time></trkpt><trkpt lat="40.29673282598862" lon="17.7910796003178"><ele>-1.0</ele><time>2026-03-29T11:54:18Z</time></trkpt><trkpt lat="40.29665346656363" lon="17.791410050420854"><ele>0.0</ele><time>2026-03-29T11:54:19Z</time></trkpt><trkpt lat="40.29658288768999" lon="17.79173108498065"><ele>-0.5</ele><time>2026-03-29T11:54:20Z</time></trkpt><trkpt lat="40.29651408169881" lon="17.792061820196803"><ele>-1.0</ele><time>2026-03-29T11:54:21Z</time></trkpt><trkpt lat="40.296456164642215" lon="17.792389475188575"><ele>-0.5</ele><time>2026-03-29T11:54:22Z</time></trkpt><trkpt lat="40.29638450256248" lon="17.79271807452039"><ele>0.0</ele><time>2026-03-29T11:54:23Z</time></trkpt><trkpt lat="40.29633702949504" lon="17.79305268599573"><ele>0.0</ele><time>2026-03-29T11:54:24Z</time></trkpt><trkpt lat="40.29627077166505" lon="17.793388348337814"><ele>0.0</ele><time>2026-03-29T11:54:25Z</time></trkpt><trkpt lat="40.29621046054111" lon="17.793730869072736"><ele>0.5</ele><time>2026-03-29T11:54:26Z</time></trkpt><trkpt lat="40.296151254208" lon="17.794069801267522"><ele>1.0</ele><time>2026-03-29T11:54:27Z</time></trkpt><trkpt lat="40.29609719805673" lon="17.79443366169217"><ele>1.0</ele><time>2026-03-29T11:54:28Z</time></trkpt><trkpt lat="40.29602672663868" lon="17.79478107553379"><ele>1.0</ele><time>2026-03-29T11:54:29Z</time></trkpt><trkpt lat="40.29597893820194" lon="17.795123959973296"><ele>1.0</ele><time>2026-03-29T11:54:30Z</time></trkpt><trkpt lat="40.29592336577851" lon="17.795476292624713"><ele>1.0</ele><time>2026-03-29T11:54:31Z</time></trkpt><trkpt lat="40.29586366343177" lon="17.7958356548934"><ele>2.0</ele><time>2026-03-29T11:54:32Z</time></trkpt><trkpt lat="40.295799794849614" lon="17.79618570738264"><ele>3.0</ele><time>2026-03-29T11:54:33Z</time></trkpt><trkpt lat="40.295739159708354" lon="17.796537638261558"><ele>3.5</ele><time>2026-03-29T11:54:34.001Z</time></trkpt><trkpt lat="40.29568394243218" lon="17.79689074964505"><ele>4.0</ele><time>2026-03-29T11:54:35.001Z</time></trkpt><trkpt lat="40.29562330459632" lon="17.79721727161053"><ele>4.0</ele><time>2026-03-29T11:54:36.001Z</time></trkpt><trkpt lat="40.295570987846666" lon="17.79753414382537"><ele>4.0</ele><time>2026-03-29T11:54:37.001Z</time></trkpt><trkpt lat="40.29552097215318" lon="17.797819755545554"><ele>4.0</ele><time>2026-03-29T11:54:38.001Z</time></trkpt><trkpt lat="40.29546425447065" lon="17.79815492550979"><ele>4.0</ele><time>2026-03-29T11:54:39.001Z</time></trkpt><trkpt lat="40.295409626020096" lon="17.798475571759706"><ele>4.0</ele><time>2026-03-29T11:54:40.001Z</time></trkpt><trkpt lat="40.295352812888645" lon="17.798803156521835"><ele>4.0</ele><time>2026-03-29T11:54:41.001Z</time></trkpt><trkpt lat="40.29529539099787" lon="17.799133665656434"><ele>4.0</ele><time>2026-03-29T11:54:42.001Z</time></trkpt><trkpt lat="40.29523905697973" lon="17.799465908224814"><ele>4.0</ele><time>2026-03-29T11:54:43.001Z</time></trkpt><trkpt lat="40.29518091578565" lon="17.79981044124531"><ele>4.0</ele><time>2026-03-29T11:54:44.001Z</time></trkpt><trkpt lat="40.2951223139977" lon="17.800153945161526"><ele>4.0</ele><time>2026-03-29T11:54:45.001Z</time></trkpt><trkpt lat="40.29506293266043" lon="17.8004875707787"><ele>4.0</ele><time>2026-03-29T11:54:46.001Z</time></trkpt><trkpt lat="40.29500348771949" lon="17.800822247436827"><ele>4.0</ele><time>2026-03-29T11:54:47.001Z</time></trkpt><trkpt lat="40.294935593068374" lon="17.801161029928707"><ele>4.0</ele><time>2026-03-29T11:54:48.001Z</time></trkpt><trkpt lat="40.29489248254223" lon="17.801497376692648"><ele>4.0</ele><time>2026-03-29T11:54:49.001Z</time></trkpt><trkpt lat="40.2948356586121" lon="17.801834602217284"><ele>3.0</ele><time>2026-03-29T11:54:50.001Z</time></trkpt><trkpt lat="40.29477339191275" lon="17.802175575040945"><ele>2.0</ele><time>2026-03-29T11:54:51.001Z</time></trkpt><trkpt lat="40.29471455337845" lon="17.80251586328743"><ele>1.5</ele><time>2026-03-29T11:54:52.001Z</time></trkpt><trkpt lat="40.29465430919972" lon="17.802861839438467"><ele>1.0</ele><time>2026-03-29T11:54:53.001Z</time></trkpt><trkpt lat="40.29459463653489" lon="17.803198135607655"><ele>0.5</ele><time>2026-03-29T11:54:54.001Z</time></trkpt><trkpt lat="40.29454008041429" lon="17.803517876850034"><ele>0.0</ele><time>2026-03-29T11:54:55.001Z</time></trkpt><trkpt lat="40.29448420232461" lon="17.80383158483844"><ele>0.0</ele><time>2026-03-29T11:54:56.001Z</time></trkpt><trkpt lat="40.29443132273653" lon="17.804139794924364"><ele>0.0</ele><time>2026-03-29T11:54:57.001Z</time></trkpt><trkpt lat="40.29437745337525" lon="17.80445407506043"><ele>0.5</ele><time>2026-03-29T11:54:58.001Z</time></trkpt><trkpt lat="40.29432859115302" lon="17.804763225806152"><ele>1.0</ele><time>2026-03-29T11:54:59.001Z</time></trkpt><trkpt lat="40.29427282479572" lon="17.805095260278975"><ele>0.5</ele><time>2026-03-29T11:55:00.001Z</time></trkpt><trkpt lat="40.29422058736992" lon="17.805418110934347"><ele>0.0</ele><time>2026-03-29T11:55:01.001Z</time></trkpt><trkpt lat="40.29415058305632" lon="17.805745489537067"><ele>0.5</ele><time>2026-03-29T11:55:02Z</time></trkpt><trkpt lat="40.294104582221564" lon="17.80609258162107"><ele>1.0</ele><time>2026-03-29T11:55:03Z</time></trkpt><trkpt lat="40.29404236730938" lon="17.806434825293127"><ele>1.0</ele><time>2026-03-29T11:55:04Z</time></trkpt><trkpt lat="40.29398596975191" lon="17.806758328235507"><ele>1.0</ele><time>2026-03-29T11:55:05Z</time></trkpt><trkpt lat="40.29392890341597" lon="17.80708580074275"><ele>1.0</ele><time>2026-03-29T11:55:06Z</time></trkpt><trkpt lat="40.293872946740414" lon="17.807416936747156"><ele>1.0</ele><time>2026-03-29T11:55:07Z</time></trkpt><trkpt lat="40.29381564010192" lon="17.807747266261313"><ele>1.0</ele><time>2026-03-29T11:55:08Z</time></trkpt><trkpt lat="40.293760559355206" lon="17.808066737653654"><ele>1.0</ele><time>2026-03-29T11:55:09Z</time></trkpt><trkpt lat="40.29371308291431" lon="17.808376697199666"><ele>1.0</ele><time>2026-03-29T11:55:10Z</time></trkpt><trkpt lat="40.29364585398846" lon="17.808683108518025"><ele>1.0</ele><time>2026-03-29T11:55:11Z</time></trkpt><trkpt lat="40.29359092126174" lon="17.809001491603876"><ele>1.0</ele><time>2026-03-29T11:55:12Z</time></trkpt><trkpt lat="40.2935497885643" lon="17.809320213885584"><ele>1.0</ele><time>2026-03-29T11:55:13Z</time></trkpt><trkpt lat="40.29349889747508" lon="17.809658488504702"><ele>2.0</ele><time>2026-03-29T11:55:14Z</time></trkpt><trkpt lat="40.293439176837815" lon="17.809986704546635"><ele>3.0</ele><time>2026-03-29T11:55:15Z</time></trkpt><trkpt lat="40.293383065189786" lon="17.810307346269735"><ele>3.0</ele><time>2026-03-29T11:55:16Z</time></trkpt><trkpt lat="40.2933236576351" lon="17.810646231460698"><ele>3.0</ele><time>2026-03-29T11:55:17Z</time></trkpt><trkpt lat="40.293209284923854" lon="17.811315774339896"><ele>2.5</ele><time>2026-03-29T11:55:19Z</time></trkpt><trkpt lat="40.293158556017026" lon="17.811658315791526"><ele>2.0</ele><time>2026-03-29T11:55:20Z</time></trkpt><trkpt lat="40.293095337461544" lon="17.811982109376334"><ele>2.0</ele><time>2026-03-29T11:55:21Z</time></trkpt><trkpt lat="40.29303382586152" lon="17.812325953179048"><ele>2.0</ele><time>2026-03-29T11:55:22Z</time></trkpt><trkpt lat="40.29297318567064" lon="17.812671568186715"><ele>2.0</ele><time>2026-03-29T11:55:23Z</time></trkpt><trkpt lat="40.29291087378441" lon="17.813016362616338"><ele>2.0</ele><time>2026-03-29T11:55:24Z</time></trkpt><trkpt lat="40.29284892894041" lon="17.813363424108033"><ele>3.5</ele><time>2026-03-29T11:55:25Z</time></trkpt><trkpt lat="40.29278784421928" lon="17.81371455533349"><ele>5.0</ele><time>2026-03-29T11:55:26Z</time></trkpt><trkpt lat="40.29272834267443" lon="17.814065291665827"><ele>6.0</ele><time>2026-03-29T11:55:27Z</time></trkpt><trkpt lat="40.29266976049395" lon="17.814414277629847"><ele>7.0</ele><time>2026-03-29T11:55:28Z</time></trkpt><trkpt lat="40.29260962963675" lon="17.814753304417927"><ele>7.0</ele><time>2026-03-29T11:55:29Z</time></trkpt><trkpt lat="40.2925508152946" lon="17.815089625275697"><ele>7.0</ele><time>2026-03-29T11:55:30Z</time></trkpt><trkpt lat="40.29249496943307" lon="17.815437243182192"><ele>7.0</ele><time>2026-03-29T11:55:31Z</time></trkpt><trkpt lat="40.292432978920466" lon="17.81577489448356"><ele>7.0</ele><time>2026-03-29T11:55:32Z</time></trkpt><trkpt lat="40.292368409187446" lon="17.81609016379576"><ele>7.0</ele><time>2026-03-29T11:55:33Z</time></trkpt><trkpt lat="40.29231413898183" lon="17.816400000224192"><ele>7.0</ele><time>2026-03-29T11:55:34Z</time></trkpt><trkpt lat="40.29224006510126" lon="17.816663590050908"><ele>6.5</ele><time>2026-03-29T11:55:35Z</time></trkpt><trkpt lat="40.29220790843663" lon="17.817031095595357"><ele>6.0</ele><time>2026-03-29T11:55:36Z</time></trkpt><trkpt lat="40.292155817665815" lon="17.81734885744764"><ele>6.0</ele><time>2026-03-29T11:55:37Z</time></trkpt><trkpt lat="40.29210410795387" lon="17.817668497349533"><ele>6.0</ele><time>2026-03-29T11:55:38Z</time></trkpt><trkpt lat="40.29204797732981" lon="17.817969332093746"><ele>6.0</ele><time>2026-03-29T11:55:39Z</time></trkpt><trkpt lat="40.292000526050366" lon="17.818278476552656"><ele>6.0</ele><time>2026-03-29T11:55:40Z</time></trkpt><trkpt lat="40.29194565744131" lon="17.818581926918693"><ele>6.5</ele><time>2026-03-29T11:55:41Z</time></trkpt><trkpt lat="40.291892957203984" lon="17.8188727652195"><ele>7.0</ele><time>2026-03-29T11:55:42Z</time></trkpt><trkpt lat="40.291839363123636" lon="17.819167943272333"><ele>6.5</ele><time>2026-03-29T11:55:43Z</time></trkpt><trkpt lat="40.2917907527779" lon="17.81946043395097"><ele>6.0</ele><time>2026-03-29T11:55:44Z</time></trkpt><trkpt lat="40.29173769069923" lon="17.81974922775189"><ele>6.0</ele><time>2026-03-29T11:55:45Z</time></trkpt><trkpt lat="40.29168042853553" lon="17.820033034404542"><ele>6.0</ele><time>2026-03-29T11:55:46Z</time></trkpt><trkpt lat="40.291593002627" lon="17.820345243434975"><ele>5.666666666666667</ele><time>2026-03-29T11:55:47Z</time></trkpt><trkpt lat="40.29151336952506" lon="17.820611664182564"><ele>5.333333333333334</ele><time>2026-03-29T11:55:48Z</time></trkpt><trkpt lat="40.29145269829781" lon="17.820890707836313"><ele>5.0</ele><time>2026-03-29T11:55:49Z</time></trkpt><trkpt lat="40.29137027975992" lon="17.8211855005739"><ele>5.0</ele><time>2026-03-29T11:55:50Z</time></trkpt><trkpt lat="40.29129294195032" lon="17.821474359939874"><ele>5.0</ele><time>2026-03-29T11:55:51Z</time></trkpt><trkpt lat="40.29122037697786" lon="17.821762307664077"><ele>4.5</ele><time>2026-03-29T11:55:52Z</time></trkpt><trkpt lat="40.291139977358675" lon="17.82203715601828"><ele>4.0</ele><time>2026-03-29T11:55:53Z</time></trkpt><trkpt lat="40.29105845665028" lon="17.822334436163366"><ele>4.0</ele><time>2026-03-29T11:55:54Z</time></trkpt><trkpt lat="40.290979205502026" lon="17.822628894259473"><ele>4.0</ele><time>2026-03-29T11:55:55Z</time></trkpt><trkpt lat="40.290899953145896" lon="17.82291848149664"><ele>3.5</ele><time>2026-03-29T11:55:56Z</time></trkpt><trkpt lat="40.290818798836476" lon="17.823215892847156"><ele>3.0</ele><time>2026-03-29T11:55:57Z</time></trkpt><trkpt lat="40.29074377370583" lon="17.823504205824293"><ele>3.0</ele><time>2026-03-29T11:55:58Z</time></trkpt><trkpt lat="40.29067124625669" lon="17.82379861564369"><ele>3.0</ele><time>2026-03-29T11:55:59Z</time></trkpt><trkpt lat="40.29059623084973" lon="17.824072713471168"><ele>4.0</ele><time>2026-03-29T11:56:00Z</time></trkpt><trkpt lat="40.290539685680585" lon="17.8243927732364"><ele>5.0</ele><time>2026-03-29T11:56:01Z</time></trkpt><trkpt lat="40.29048428644591" lon="17.824697999352434"><ele>5.0</ele><time>2026-03-29T11:56:02Z</time></trkpt><trkpt lat="40.29043390962054" lon="17.82500055369602"><ele>5.0</ele><time>2026-03-29T11:56:03Z</time></trkpt><trkpt lat="40.290381331676414" lon="17.82528088379721"><ele>5.0</ele><time>2026-03-29T11:56:04Z</time></trkpt><trkpt lat="40.29032460231922" lon="17.82556589066458"><ele>5.0</ele><time>2026-03-29T11:56:05Z</time></trkpt><trkpt lat="40.29025939383461" lon="17.825860064643198"><ele>4.5</ele><time>2026-03-29T11:56:06Z</time></trkpt><trkpt lat="40.29020584056893" lon="17.826165175124224"><ele>4.0</ele><time>2026-03-29T11:56:07Z</time></trkpt><trkpt lat="40.29014935490378" lon="17.82647339003018"><ele>4.0</ele><time>2026-03-29T11:56:08Z</time></trkpt><trkpt lat="40.29008976545897" lon="17.826779834524608"><ele>4.0</ele><time>2026-03-29T11:56:09Z</time></trkpt><trkpt lat="40.290033392066384" lon="17.827084650266457"><ele>4.5</ele><time>2026-03-29T11:56:10Z</time></trkpt><trkpt lat="40.28998287646441" lon="17.827398270110763"><ele>5.0</ele><time>2026-03-29T11:56:11Z</time></trkpt><trkpt lat="40.28991870371372" lon="17.82767494148012"><ele>5.0</ele><time>2026-03-29T11:56:12Z</time></trkpt><trkpt lat="40.28986585995825" lon="17.82796197610447"><ele>5.0</ele><time>2026-03-29T11:56:13Z</time></trkpt><trkpt lat="40.2898180225256" lon="17.82825165918403"><ele>4.5</ele><time>2026-03-29T11:56:14Z</time></trkpt><trkpt lat="40.28975320493114" lon="17.828545421532162"><ele>4.0</ele><time>2026-03-29T11:56:15Z</time></trkpt><trkpt lat="40.289697827867016" lon="17.828835170767963"><ele>4.0</ele><time>2026-03-29T11:56:16Z</time></trkpt><trkpt lat="40.289641376203036" lon="17.8291550695776"><ele>4.0</ele><time>2026-03-29T11:56:17Z</time></trkpt><trkpt lat="40.28957799372619" lon="17.829451971497758"><ele>3.5</ele><time>2026-03-29T11:56:18Z</time></trkpt><trkpt lat="40.28951597244437" lon="17.8297448759455"><ele>3.0</ele><time>2026-03-29T11:56:19Z</time></trkpt><trkpt lat="40.289461823105455" lon="17.83005854903335"><ele>3.5</ele><time>2026-03-29T11:56:20Z</time></trkpt><trkpt lat="40.28940852881137" lon="17.830348937864844"><ele>4.0</ele><time>2026-03-29T11:56:21Z</time></trkpt><trkpt lat="40.28933734494063" lon="17.830640165330124"><ele>4.0</ele><time>2026-03-29T11:56:22Z</time></trkpt><trkpt lat="40.289281673135974" lon="17.830995969310457"><ele>4.0</ele><time>2026-03-29T11:56:23Z</time></trkpt><trkpt lat="40.28922086952098" lon="17.831309128045095"><ele>4.0</ele><time>2026-03-29T11:56:24Z</time></trkpt><trkpt lat="40.28916477807566" lon="17.83159356813618"><ele>4.0</ele><time>2026-03-29T11:56:25Z</time></trkpt><trkpt lat="40.28910999142407" lon="17.831871926245544"><ele>4.0</ele><time>2026-03-29T11:56:26Z</time></trkpt><trkpt lat="40.28906144816826" lon="17.832134117951423"><ele>4.0</ele><time>2026-03-29T11:56:27Z</time></trkpt><trkpt lat="40.28901267267181" lon="17.83239566230322"><ele>4.0</ele><time>2026-03-29T11:56:28Z</time></trkpt><trkpt lat="40.28896092764305" lon="17.8326592417156"><ele>4.0</ele><time>2026-03-29T11:56:29Z</time></trkpt><trkpt lat="40.28890501511313" lon="17.832914603708158"><ele>4.0</ele><time>2026-03-29T11:56:30Z</time></trkpt><trkpt lat="40.28887185249994" lon="17.83314844188355"><ele>4.0</ele><time>2026-03-29T11:56:31Z</time></trkpt><trkpt lat="40.28882010920319" lon="17.833426632728823"><ele>4.0</ele><time>2026-03-29T11:56:32Z</time></trkpt><trkpt lat="40.28876324075486" lon="17.833700495675235"><ele>4.0</ele><time>2026-03-29T11:56:33Z</time></trkpt><trkpt lat="40.28871014391142" lon="17.833979712561298"><ele>4.0</ele><time>2026-03-29T11:56:34Z</time></trkpt><trkpt lat="40.28865631278009" lon="17.834265038710107"><ele>4.0</ele><time>2026-03-29T11:56:35Z</time></trkpt><trkpt lat="40.28859881228277" lon="17.83455120901721"><ele>4.0</ele><time>2026-03-29T11:56:36Z</time></trkpt><trkpt lat="40.28855256556821" lon="17.834857816816037"><ele>4.0</ele><time>2026-03-29T11:56:37Z</time></trkpt><trkpt lat="40.288530784739" lon="17.83516131079721"><ele>4.0</ele><time>2026-03-29T11:56:38Z</time></trkpt><trkpt lat="40.288524121982945" lon="17.8354866024562"><ele>4.0</ele><time>2026-03-29T11:56:39Z</time></trkpt><trkpt lat="40.28853797641816" lon="17.835806919975255"><ele>3.5</ele><time>2026-03-29T11:56:40Z</time></trkpt><trkpt lat="40.28854203520548" lon="17.83612720589499"><ele>3.0</ele><time>2026-03-29T11:56:41Z</time></trkpt><trkpt lat="40.28855237434775" lon="17.836443178114905"><ele>3.0</ele><time>2026-03-29T11:56:42Z</time></trkpt><trkpt lat="40.28856238059768" lon="17.836769491085263"><ele>3.0</ele><time>2026-03-29T11:56:43Z</time></trkpt><trkpt lat="40.288571746501965" lon="17.83709039807924"><ele>3.0</ele><time>2026-03-29T11:56:44Z</time></trkpt><trkpt lat="40.28857357037051" lon="17.837424401791058"><ele>3.0</ele><time>2026-03-29T11:56:45Z</time></trkpt><trkpt lat="40.28857623914474" lon="17.837758894316977"><ele>3.5</ele><time>2026-03-29T11:56:46Z</time></trkpt><trkpt lat="40.2885802593543" lon="17.8380970461802"><ele>4.0</ele><time>2026-03-29T11:56:47Z</time></trkpt><trkpt lat="40.288580073530646" lon="17.83842953623038"><ele>3.5</ele><time>2026-03-29T11:56:48Z</time></trkpt><trkpt lat="40.288579263511316" lon="17.83876060426079"><ele>3.0</ele><time>2026-03-29T11:56:49Z</time></trkpt><trkpt lat="40.28857817625534" lon="17.839090788227985"><ele>2.5</ele><time>2026-03-29T11:56:50Z</time></trkpt><trkpt lat="40.28858441115017" lon="17.839412044607815"><ele>2.0</ele><time>2026-03-29T11:56:51Z</time></trkpt><trkpt lat="40.28858603830013" lon="17.839735517811835"><ele>2.0</ele><time>2026-03-29T11:56:52Z</time></trkpt><trkpt lat="40.288591832042954" lon="17.840056864210094"><ele>2.0</ele><time>2026-03-29T11:56:53Z</time></trkpt><trkpt lat="40.28859258988773" lon="17.840374092547357"><ele>2.5</ele><time>2026-03-29T11:56:54Z</time></trkpt><trkpt lat="40.28859435600304" lon="17.840686733870534"><ele>3.0</ele><time>2026-03-29T11:56:55Z</time></trkpt><trkpt lat="40.2885937022736" lon="17.841005312344926"><ele>3.0</ele><time>2026-03-29T11:56:56Z</time></trkpt><trkpt lat="40.288595580209766" lon="17.841320521108074"><ele>3.0</ele><time>2026-03-29T11:56:57Z</time></trkpt><trkpt lat="40.2885986478292" lon="17.841634041256743"><ele>3.0</ele><time>2026-03-29T11:56:58Z</time></trkpt><trkpt lat="40.288601739734396" lon="17.841951025073634"><ele>3.0</ele><time>2026-03-29T11:56:59Z</time></trkpt><trkpt lat="40.28860283017201" lon="17.842265909482222"><ele>3.0</ele><time>2026-03-29T11:57:00Z</time></trkpt><trkpt lat="40.28860326672927" lon="17.842570878973582"><ele>3.0</ele><time>2026-03-29T11:57:01Z</time></trkpt><trkpt lat="40.28860646051564" lon="17.84288588577355"><ele>3.0</ele><time>2026-03-29T11:57:02Z</time></trkpt><trkpt lat="40.288612878883974" lon="17.843185572630315"><ele>3.0</ele><time>2026-03-29T11:57:03Z</time></trkpt><trkpt lat="40.288616037257846" lon="17.843464797976623"><ele>3.0</ele><time>2026-03-29T11:57:04Z</time></trkpt><trkpt lat="40.28860964253115" lon="17.84373717060619"><ele>3.0</ele><time>2026-03-29T11:57:05Z</time></trkpt><trkpt lat="40.28861350757995" lon="17.84398867222851"><ele>3.0</ele><time>2026-03-29T11:57:06Z</time></trkpt><trkpt lat="40.28862486685944" lon="17.844221617874798"><ele>3.0</ele><time>2026-03-29T11:57:07Z</time></trkpt><trkpt lat="40.28862764263183" lon="17.844408124297395"><ele>3.333333333333333</ele><time>2026-03-29T11:57:08Z</time></trkpt><trkpt lat="40.28864238673453" lon="17.844579445802193"><ele>3.6666666666666665</ele><time>2026-03-29T11:57:09Z</time></trkpt><trkpt lat="40.28862847997971" lon="17.84480971442739"><ele>4.0</ele><time>2026-03-29T11:57:10Z</time></trkpt><trkpt lat="40.28863373056229" lon="17.84500209578962"><ele>4.0</ele><time>2026-03-29T11:57:11Z</time></trkpt><trkpt lat="40.28863481523635" lon="17.845224542135288"><ele>4.0</ele><time>2026-03-29T11:57:12Z</time></trkpt><trkpt lat="40.2886408995293" lon="17.845467279565604"><ele>4.0</ele><time>2026-03-29T11:57:13Z</time></trkpt><trkpt lat="40.28864037976997" lon="17.84570711966635"><ele>4.0</ele><time>2026-03-29T11:57:14Z</time></trkpt><trkpt lat="40.28864025291921" lon="17.845953432174035"><ele>4.0</ele><time>2026-03-29T11:57:15Z</time></trkpt><trkpt lat="40.28863852596177" lon="17.84620649273889"><ele>4.0</ele><time>2026-03-29T11:57:16Z</time></trkpt><trkpt lat="40.288638013938595" lon="17.846453938883027"><ele>4.333333333333333</ele><time>2026-03-29T11:57:17Z</time></trkpt><trkpt lat="40.28864429437753" lon="17.84670243110323"><ele>4.666666666666667</ele><time>2026-03-29T11:57:18Z</time></trkpt><trkpt lat="40.28865252845744" lon="17.84694592906418"><ele>5.0</ele><time>2026-03-29T11:57:19Z</time></trkpt><trkpt lat="40.28865310129131" lon="17.847203226111304"><ele>5.0</ele><time>2026-03-29T11:57:20Z</time></trkpt><trkpt lat="40.28865334089863" lon="17.84744869101621"><ele>5.0</ele><time>2026-03-29T11:57:21Z</time></trkpt><trkpt lat="40.28865438367085" lon="17.84769480602914"><ele>5.0</ele><time>2026-03-29T11:57:22Z</time></trkpt><trkpt lat="40.28865901920976" lon="17.847947068705615"><ele>5.333333333333334</ele><time>2026-03-29T11:57:23Z</time></trkpt><trkpt lat="40.288659373878836" lon="17.84819109188353"><ele>5.666666666666667</ele><time>2026-03-29T11:57:24Z</time></trkpt><trkpt lat="40.288662744234664" lon="17.848422502646372"><ele>6.0</ele><time>2026-03-29T11:57:25Z</time></trkpt><trkpt lat="40.28866802758279" lon="17.848649990621112"><ele>6.0</ele><time>2026-03-29T11:57:26Z</time></trkpt><trkpt lat="40.288665469953415" lon="17.84889844103868"><ele>6.0</ele><time>2026-03-29T11:57:27Z</time></trkpt><trkpt lat="40.28866420597372" lon="17.84914945353632"><ele>6.0</ele><time>2026-03-29T11:57:28Z</time></trkpt><trkpt lat="40.288673278014805" lon="17.849394290742914"><ele>5.666666666666667</ele><time>2026-03-29T11:57:29Z</time></trkpt><trkpt lat="40.28866799023899" lon="17.849616684474483"><ele>5.333333333333334</ele><time>2026-03-29T11:57:30Z</time></trkpt><trkpt lat="40.28867268768846" lon="17.849858712756745"><ele>5.0</ele><time>2026-03-29T11:57:31Z</time></trkpt><trkpt lat="40.288683293108974" lon="17.850080521339297"><ele>4.666666666666667</ele><time>2026-03-29T11:57:32Z</time></trkpt><trkpt lat="40.288674623831575" lon="17.85033919876401"><ele>4.333333333333333</ele><time>2026-03-29T11:57:33Z</time></trkpt><trkpt lat="40.28867200946645" lon="17.85058518887663"><ele>4.0</ele><time>2026-03-29T11:57:34Z</time></trkpt><trkpt lat="40.288674326020406" lon="17.850806768967168"><ele>4.0</ele><time>2026-03-29T11:57:35Z</time></trkpt><trkpt lat="40.288678785971996" lon="17.851001130609756"><ele>4.0</ele><time>2026-03-29T11:57:36Z</time></trkpt><trkpt lat="40.28868703176218" lon="17.851195109653776"><ele>4.0</ele><time>2026-03-29T11:57:37Z</time></trkpt><trkpt lat="40.28868268613024" lon="17.851359583960484"><ele>4.0</ele><time>2026-03-29T11:57:38Z</time></trkpt><trkpt lat="40.28867913499813" lon="17.851513651512175"><ele>4.0</ele><time>2026-03-29T11:57:39Z</time></trkpt><trkpt lat="40.2886765858309" lon="17.851665575235128"><ele>4.0</ele><time>2026-03-29T11:57:40Z</time></trkpt><trkpt lat="40.28867385357201" lon="17.85184115007742"><ele>4.0</ele><time>2026-03-29T11:57:41Z</time></trkpt><trkpt lat="40.28867428095847" lon="17.851997641729298"><ele>4.0</ele><time>2026-03-29T11:57:42Z</time></trkpt><trkpt lat="40.28867408464415" lon="17.852118499232994"><ele>4.0</ele><time>2026-03-29T11:57:43Z</time></trkpt><trkpt lat="40.288673543063354" lon="17.85222079553686"><ele>4.0</ele><time>2026-03-29T11:57:44Z</time></trkpt><trkpt lat="40.28867988167008" lon="17.852319455669655"><ele>4.0</ele><time>2026-03-29T11:57:45Z</time></trkpt><trkpt lat="40.288679953084944" lon="17.852441077796076"><ele>4.0</ele><time>2026-03-29T11:57:46Z</time></trkpt><trkpt lat="40.28864669322027" lon="17.852590295991977"><ele>4.0</ele><time>2026-03-29T11:57:47Z</time></trkpt><trkpt lat="40.28858860213485" lon="17.85275006731879"><ele>4.0</ele><time>2026-03-29T11:57:48Z</time></trkpt><trkpt lat="40.288530084120715" lon="17.852916311956466"><ele>4.0</ele><time>2026-03-29T11:57:49Z</time></trkpt><trkpt lat="40.288467182842396" lon="17.85310766212843"><ele>4.0</ele><time>2026-03-29T11:57:50Z</time></trkpt><trkpt lat="40.28839572531425" lon="17.853315626575114"><ele>4.0</ele><time>2026-03-29T11:57:51Z</time></trkpt><trkpt lat="40.28832670383135" lon="17.853522911310087"><ele>4.0</ele><time>2026-03-29T11:57:52Z</time></trkpt><trkpt lat="40.28824184338897" lon="17.85372543887925"><ele>4.0</ele><time>2026-03-29T11:57:53Z</time></trkpt><trkpt lat="40.28815963081449" lon="17.853951641229557"><ele>4.0</ele><time>2026-03-29T11:57:54Z</time></trkpt><trkpt lat="40.288083123975184" lon="17.854196978175793"><ele>4.0</ele><time>2026-03-29T11:57:55Z</time></trkpt><trkpt lat="40.2879962896094" lon="17.85444088483592"><ele>4.0</ele><time>2026-03-29T11:57:56Z</time></trkpt><trkpt lat="40.28790995090838" lon="17.85468640052258"><ele>4.0</ele><time>2026-03-29T11:57:57Z</time></trkpt><trkpt lat="40.28783118546763" lon="17.854929692558645"><ele>4.0</ele><time>2026-03-29T11:57:58Z</time></trkpt><trkpt lat="40.28775977525071" lon="17.8551415072933"><ele>4.0</ele><time>2026-03-29T11:57:59Z</time></trkpt><trkpt lat="40.2876875999596" lon="17.855352026160443"><ele>4.0</ele><time>2026-03-29T11:58:00Z</time></trkpt><trkpt lat="40.2876147281585" lon="17.855574737646645"><ele>4.0</ele><time>2026-03-29T11:58:01Z</time></trkpt><trkpt lat="40.28754017170608" lon="17.85579691175785"><ele>4.0</ele><time>2026-03-29T11:58:02Z</time></trkpt><trkpt lat="40.2874656155693" lon="17.856021568807858"><ele>4.333333333333333</ele><time>2026-03-29T11:58:03Z</time></trkpt><trkpt lat="40.28739718423893" lon="17.856224734588157"><ele>4.666666666666667</ele><time>2026-03-29T11:58:04Z</time></trkpt><trkpt lat="40.28729635762681" lon="17.856436316477232"><ele>5.0</ele><time>2026-03-29T11:58:05Z</time></trkpt><trkpt lat="40.287205983054406" lon="17.85670363058309"><ele>4.0</ele><time>2026-03-29T11:58:06Z</time></trkpt><trkpt lat="40.28712511083756" lon="17.856942598149658"><ele>3.0</ele><time>2026-03-29T11:58:07Z</time></trkpt><trkpt lat="40.28704357007033" lon="17.857186840999994"><ele>2.0</ele><time>2026-03-29T11:58:08Z</time></trkpt><trkpt lat="40.28696471949779" lon="17.85742056811741"><ele>2.333333333333333</ele><time>2026-03-29T11:58:09Z</time></trkpt><trkpt lat="40.28689467302328" lon="17.857629367095743"><ele>2.6666666666666665</ele><time>2026-03-29T11:58:10Z</time></trkpt><trkpt lat="40.286813277050435" lon="17.857869442369463"><ele>3.0</ele><time>2026-03-29T11:58:11Z</time></trkpt><trkpt lat="40.28673547562663" lon="17.858098915356486"><ele>3.0</ele><time>2026-03-29T11:58:12Z</time></trkpt><trkpt lat="40.286661847135335" lon="17.858316595263194"><ele>3.0</ele><time>2026-03-29T11:58:13Z</time></trkpt><trkpt lat="40.28659624797924" lon="17.85851050811209"><ele>3.0</ele><time>2026-03-29T11:58:14Z</time></trkpt><trkpt lat="40.286537034400496" lon="17.858685544410047"><ele>3.0</ele><time>2026-03-29T11:58:15Z</time></trkpt><trkpt lat="40.28646707270795" lon="17.858892797629114"><ele>3.0</ele><time>2026-03-29T11:58:16Z</time></trkpt><trkpt lat="40.28640607603638" lon="17.859073409390817"><ele>3.0</ele><time>2026-03-29T11:58:17Z</time></trkpt><trkpt lat="40.286342435261155" lon="17.859261849490963"><ele>3.333333333333333</ele><time>2026-03-29T11:58:18Z</time></trkpt><trkpt lat="40.286271763155284" lon="17.85947103955404"><ele>3.6666666666666665</ele><time>2026-03-29T11:58:19Z</time></trkpt><trkpt lat="40.2861958644155" lon="17.859695804965423"><ele>4.0</ele><time>2026-03-29T11:58:20Z</time></trkpt><trkpt lat="40.28614655190325" lon="17.859949127993826"><ele>4.0</ele><time>2026-03-29T11:58:21Z</time></trkpt><trkpt lat="40.28606728728992" lon="17.860196632767646"><ele>4.0</ele><time>2026-03-29T11:58:22Z</time></trkpt><trkpt lat="40.28598673326375" lon="17.86042061762202"><ele>4.0</ele><time>2026-03-29T11:58:23Z</time></trkpt><trkpt lat="40.28590961336421" lon="17.860638187087886"><ele>4.0</ele><time>2026-03-29T11:58:24Z</time></trkpt><trkpt lat="40.28584360076252" lon="17.860851385757847"><ele>4.0</ele><time>2026-03-29T11:58:25Z</time></trkpt><trkpt lat="40.285732091549384" lon="17.861074941537172"><ele>4.0</ele><time>2026-03-29T11:58:26Z</time></trkpt><trkpt lat="40.28565786952044" lon="17.86129662024027"><ele>3.6666666666666665</ele><time>2026-03-29T11:58:27Z</time></trkpt><trkpt lat="40.2855767488779" lon="17.86153890218375"><ele>3.333333333333333</ele><time>2026-03-29T11:58:28Z</time></trkpt><trkpt lat="40.28549725944786" lon="17.861777302683148"><ele>3.0</ele><time>2026-03-29T11:58:29Z</time></trkpt><trkpt lat="40.28541590014" lon="17.86201963902932"><ele>3.0</ele><time>2026-03-29T11:58:30Z</time></trkpt><trkpt lat="40.28533454694171" lon="17.862261170427562"><ele>3.0</ele><time>2026-03-29T11:58:31Z</time></trkpt><trkpt lat="40.2852561254481" lon="17.862497145579297"><ele>3.0</ele><time>2026-03-29T11:58:32Z</time></trkpt><trkpt lat="40.28517822957616" lon="17.862732116815952"><ele>3.0</ele><time>2026-03-29T11:58:33Z</time></trkpt><trkpt lat="40.28509839411639" lon="17.862967972568295"><ele>3.0</ele><time>2026-03-29T11:58:34Z</time></trkpt><trkpt lat="40.28501795822874" lon="17.863192500361027"><ele>3.0</ele><time>2026-03-29T11:58:35Z</time></trkpt><trkpt lat="40.28493609526868" lon="17.863396224247886"><ele>3.0</ele><time>2026-03-29T11:58:36Z</time></trkpt><trkpt lat="40.28484735059577" lon="17.86360777972289"><ele>3.0</ele><time>2026-03-29T11:58:37Z</time></trkpt><trkpt lat="40.28474353247315" lon="17.863830131264482"><ele>3.0</ele><time>2026-03-29T11:58:38Z</time></trkpt><trkpt lat="40.284630464401125" lon="17.864053247999422"><ele>3.666666666666667</ele><time>2026-03-29T11:58:39Z</time></trkpt><trkpt lat="40.28451234232957" lon="17.86428582072698"><ele>4.333333333333334</ele><time>2026-03-29T11:58:40Z</time></trkpt><trkpt lat="40.28439611025612" lon="17.864513137897394"><ele>5.0</ele><time>2026-03-29T11:58:41Z</time></trkpt><trkpt lat="40.28427985065655" lon="17.864740734385595"><ele>5.0</ele><time>2026-03-29T11:58:42Z</time></trkpt><trkpt lat="40.284161001847316" lon="17.864974011144795"><ele>5.0</ele><time>2026-03-29T11:58:43Z</time></trkpt><trkpt lat="40.2840492774585" lon="17.865193697423397"><ele>5.0</ele><time>2026-03-29T11:58:44Z</time></trkpt><trkpt lat="40.28394271182578" lon="17.865401103309495"><ele>5.0</ele><time>2026-03-29T11:58:45Z</time></trkpt><trkpt lat="40.28382830895376" lon="17.865626437741156"><ele>5.0</ele><time>2026-03-29T11:58:46Z</time></trkpt><trkpt lat="40.28372499808062" lon="17.86582986665172"><ele>5.0</ele><time>2026-03-29T11:58:47Z</time></trkpt><trkpt lat="40.28364074659266" lon="17.865987932471377"><ele>4.75</ele><time>2026-03-29T11:58:48Z</time></trkpt><trkpt lat="40.28358659971581" lon="17.866131789146728"><ele>4.5</ele><time>2026-03-29T11:58:49Z</time></trkpt><trkpt lat="40.28351523180143" lon="17.8662849689793"><ele>4.25</ele><time>2026-03-29T11:58:50Z</time></trkpt><trkpt lat="40.28342750141885" lon="17.86645368206466"><ele>4.0</ele><time>2026-03-29T11:58:51Z</time></trkpt><trkpt lat="40.2833289242456" lon="17.866649874054726"><ele>3.333333333333333</ele><time>2026-03-29T11:58:52Z</time></trkpt><trkpt lat="40.28322100597063" lon="17.866853748919095"><ele>2.6666666666666665</ele><time>2026-03-29T11:58:53Z</time></trkpt><trkpt lat="40.28310885540181" lon="17.86708322932688"><ele>2.0</ele><time>2026-03-29T11:58:54Z</time></trkpt><trkpt lat="40.28298456413852" lon="17.86732256824757"><ele>1.6666666666666665</ele><time>2026-03-29T11:58:55Z</time></trkpt><trkpt lat="40.282863353324124" lon="17.86754744110605"><ele>1.3333333333333333</ele><time>2026-03-29T11:58:56Z</time></trkpt><trkpt lat="40.28277205627696" lon="17.86773448505897"><ele>1.0</ele><time>2026-03-29T11:58:57Z</time></trkpt><trkpt lat="40.28264882735026" lon="17.867979679984163"><ele>1.0</ele><time>2026-03-29T11:58:58Z</time></trkpt><trkpt lat="40.28254409279064" lon="17.86819710274928"><ele>1.0</ele><time>2026-03-29T11:58:59Z</time></trkpt><trkpt lat="40.282440905109944" lon="17.868402838401288"><ele>1.0</ele><time>2026-03-29T11:59:00Z</time></trkpt><trkpt lat="40.28233379543984" lon="17.868600994503648"><ele>0.3333333333333333</ele><time>2026-03-29T11:59:01Z</time></trkpt><trkpt lat="40.28224316316706" lon="17.86878685825194"><ele>-0.3333333333333333</ele><time>2026-03-29T11:59:02Z</time></trkpt><trkpt lat="40.28214247277505" lon="17.8689431438441"><ele>-1.0</ele><time>2026-03-29T11:59:03Z</time></trkpt><trkpt lat="40.28205974400419" lon="17.86909859312621"><ele>-1.0</ele><time>2026-03-29T11:59:04Z</time></trkpt><trkpt lat="40.2819794798278" lon="17.869214559649013"><ele>-1.0</ele><time>2026-03-29T11:59:05Z</time></trkpt><trkpt lat="40.28188493212907" lon="17.869320964397104"><ele>-1.0</ele><time>2026-03-29T11:59:06Z</time></trkpt><trkpt lat="40.2817805202935" lon="17.869396553327324"><ele>-1.0</ele><time>2026-03-29T11:59:07Z</time></trkpt><trkpt lat="40.28167423487308" lon="17.869504950060726"><ele>-1.0</ele><time>2026-03-29T11:59:08Z</time></trkpt><trkpt lat="40.2815368027427" lon="17.869591415092234"><ele>-1.0</ele><time>2026-03-29T11:59:09Z</time></trkpt><trkpt lat="40.28139912249016" lon="17.869690199003067"><ele>-1.0</ele><time>2026-03-29T11:59:10Z</time></trkpt><trkpt lat="40.28127227989249" lon="17.86976915941644"><ele>0.0</ele><time>2026-03-29T11:59:11Z</time></trkpt><trkpt lat="40.281135167668005" lon="17.869845273546737"><ele>1.0</ele><time>2026-03-29T11:59:12Z</time></trkpt><trkpt lat="40.2809682694761" lon="17.86987314562041"><ele>2.0</ele><time>2026-03-29T11:59:13Z</time></trkpt><trkpt lat="40.28079270280497" lon="17.869919861320504"><ele>2.0</ele><time>2026-03-29T11:59:14Z</time></trkpt><trkpt lat="40.280602792182385" lon="17.869968627692927"><ele>2.0</ele><time>2026-03-29T11:59:15Z</time></trkpt><trkpt lat="40.28041220820181" lon="17.870013557470898"><ele>2.0</ele><time>2026-03-29T11:59:16Z</time></trkpt><trkpt lat="40.280231498013094" lon="17.870056618782545"><ele>1.3333333333333333</ele><time>2026-03-29T11:59:17Z</time></trkpt><trkpt lat="40.280071798787624" lon="17.870115127533598"><ele>0.6666666666666666</ele><time>2026-03-29T11:59:18Z</time></trkpt><trkpt lat="40.27989960644797" lon="17.870134007727035"><ele>0.0</ele><time>2026-03-29T11:59:19Z</time></trkpt><trkpt lat="40.27971950394169" lon="17.870176914953447"><ele>-0.3333333333333333</ele><time>2026-03-29T11:59:20Z</time></trkpt><trkpt lat="40.27952819615897" lon="17.870222491694378"><ele>-0.6666666666666666</ele><time>2026-03-29T11:59:21Z</time></trkpt><trkpt lat="40.27932945644382" lon="17.87027061380362"><ele>-1.0</ele><time>2026-03-29T11:59:22Z</time></trkpt><trkpt lat="40.27913677693581" lon="17.870317289933187"><ele>-1.0</ele><time>2026-03-29T11:59:23Z</time></trkpt><trkpt lat="40.2789319921732" lon="17.870366898557343"><ele>-1.0</ele><time>2026-03-29T11:59:24Z</time></trkpt><trkpt lat="40.278747279135814" lon="17.87041135238924"><ele>-1.0</ele><time>2026-03-29T11:59:25Z</time></trkpt><trkpt lat="40.27854110631935" lon="17.87046175854212"><ele>-1.0</ele><time>2026-03-29T11:59:26Z</time></trkpt><trkpt lat="40.27836463629311" lon="17.87050490280817"><ele>-1.0</ele><time>2026-03-29T11:59:27Z</time></trkpt><trkpt lat="40.27820504955882" lon="17.87054391936459"><ele>-1.0</ele><time>2026-03-29T11:59:28Z</time></trkpt><trkpt lat="40.278054714331425" lon="17.870578799780063"><ele>-0.75</ele><time>2026-03-29T11:59:29Z</time></trkpt><trkpt lat="40.2779059283551" lon="17.870613365980482"><ele>-0.5</ele><time>2026-03-29T11:59:30Z</time></trkpt><trkpt lat="40.2777591079256" lon="17.87064747554292"><ele>-0.25</ele><time>2026-03-29T11:59:31Z</time></trkpt><trkpt lat="40.27762779120572" lon="17.87067798325608"><ele>0.0</ele><time>2026-03-29T11:59:32Z</time></trkpt><trkpt lat="40.27750265049765" lon="17.870708382113"><ele>0.0</ele><time>2026-03-29T11:59:33Z</time></trkpt><trkpt lat="40.27737814392115" lon="17.87073945658479"><ele>0.0</ele><time>2026-03-29T11:59:34Z</time></trkpt><trkpt lat="40.277271026569856" lon="17.870787028410138"><ele>0.0</ele><time>2026-03-29T11:59:35Z</time></trkpt><trkpt lat="40.27718904282073" lon="17.8708041553207"><ele>0.0</ele><time>2026-03-29T11:59:36Z</time></trkpt><trkpt lat="40.27712099686045" lon="17.87082242126421"><ele>0.0</ele><time>2026-03-29T11:59:37Z</time></trkpt><trkpt lat="40.277039311420126" lon="17.87084176462556"><ele>0.6</ele><time>2026-03-29T11:59:38Z</time></trkpt><trkpt lat="40.27693535744628" lon="17.870869601219248"><ele>1.2</ele><time>2026-03-29T11:59:39Z</time></trkpt><trkpt lat="40.27682200351232" lon="17.870894630525463"><ele>1.7999999999999998</ele><time>2026-03-29T11:59:40Z</time></trkpt><trkpt lat="40.276734368602774" lon="17.870906982855836"><ele>2.4</ele><time>2026-03-29T11:59:41Z</time></trkpt><trkpt lat="40.276658075505566" lon="17.87092517860768"><ele>3.0</ele><time>2026-03-29T11:59:43Z</time></trkpt><trkpt lat="40.27654530096886" lon="17.87093861024601"><ele>2.5</ele><time>2026-03-29T11:59:45Z</time></trkpt><trkpt lat="40.27645080403078" lon="17.87096889112661"><ele>2.0</ele><time>2026-03-29T11:59:46Z</time></trkpt><trkpt lat="40.27633536655698" lon="17.870988703873227"><ele>1.5</ele><time>2026-03-29T11:59:47Z</time></trkpt><trkpt lat="40.27617827793948" lon="17.87102759085334"><ele>1.0</ele><time>2026-03-29T11:59:48Z</time></trkpt><trkpt lat="40.27608064603653" lon="17.871060599223004"><ele>1.0</ele><time>2026-03-29T11:59:49Z</time></trkpt><trkpt lat="40.275964637150295" lon="17.871108904164686"><ele>1.0</ele><time>2026-03-29T11:59:50Z</time></trkpt><trkpt lat="40.27584299426195" lon="17.871170008481627"><ele>1.0</ele><time>2026-03-29T11:59:51Z</time></trkpt><trkpt lat="40.27572547481769" lon="17.871254217691543"><ele>1.0</ele><time>2026-03-29T11:59:52Z</time></trkpt><trkpt lat="40.27561570641552" lon="17.871351781487373"><ele>1.0</ele><time>2026-03-29T11:59:53Z</time></trkpt><trkpt lat="40.27552379863781" lon="17.871468706988516"><ele>1.0</ele><time>2026-03-29T11:59:54Z</time></trkpt><trkpt lat="40.27540245962116" lon="17.8715842964644"><ele>1.0</ele><time>2026-03-29T11:59:55Z</time></trkpt><trkpt lat="40.27532087813682" lon="17.871749131071155"><ele>1.0</ele><time>2026-03-29T11:59:56Z</time></trkpt><trkpt lat="40.275240571596726" lon="17.871891637371657"><ele>1.0</ele><time>2026-03-29T11:59:57Z</time></trkpt><trkpt lat="40.275179227146175" lon="17.872008399310612"><ele>1.0</ele><time>2026-03-29T11:59:58Z</time></trkpt><trkpt lat="40.275127159612936" lon="17.87217217173602"><ele>1.0</ele><time>2026-03-29T11:59:59Z</time></trkpt><trkpt lat="40.275107244349904" lon="17.87229127623024"><ele>1.0</ele><time>2026-03-29T12:00:00Z</time></trkpt><trkpt lat="40.275054431675265" lon="17.87240352369553"><ele>1.0</ele><time>2026-03-29T12:00:01Z</time></trkpt><trkpt lat="40.27502606953588" lon="17.872561880841204"><ele>1.5</ele><time>2026-03-29T12:00:02Z</time></trkpt><trkpt lat="40.27496982824709" lon="17.872730723167145"><ele>2.0</ele><time>2026-03-29T12:00:03Z</time></trkpt><trkpt lat="40.27491743289705" lon="17.872910710401868"><ele>2.5</ele><time>2026-03-29T12:00:04Z</time></trkpt><trkpt lat="40.27486020103369" lon="17.8731061454753"><ele>3.0</ele><time>2026-03-29T12:00:05Z</time></trkpt><trkpt lat="40.27480177008214" lon="17.87330534924557"><ele>3.333333333333333</ele><time>2026-03-29T12:00:06Z</time></trkpt><trkpt lat="40.274734347374476" lon="17.87351084937149"><ele>3.6666666666666665</ele><time>2026-03-29T12:00:07Z</time></trkpt><trkpt lat="40.274677941372126" lon="17.873705042911926"><ele>4.0</ele><time>2026-03-29T12:00:08Z</time></trkpt><trkpt lat="40.27460887541438" lon="17.873878282043982"><ele>4.0</ele><time>2026-03-29T12:00:09Z</time></trkpt><trkpt lat="40.2745687094637" lon="17.874060375802387"><ele>4.0</ele><time>2026-03-29T12:00:10Z</time></trkpt><trkpt lat="40.27449703313289" lon="17.874244311826608"><ele>4.0</ele><time>2026-03-29T12:00:11Z</time></trkpt><trkpt lat="40.274435546357054" lon="17.87444745287048"><ele>4.0</ele><time>2026-03-29T12:00:12Z</time></trkpt><trkpt lat="40.274397481145336" lon="17.87462613709104"><ele>4.0</ele><time>2026-03-29T12:00:13Z</time></trkpt><trkpt lat="40.27432202346207" lon="17.874825233967318"><ele>4.0</ele><time>2026-03-29T12:00:14Z</time></trkpt><trkpt lat="40.274270533477285" lon="17.875001565345187"><ele>3.5</ele><time>2026-03-29T12:00:15Z</time></trkpt><trkpt lat="40.27422367184308" lon="17.875163637746034"><ele>3.0</ele><time>2026-03-29T12:00:16Z</time></trkpt><trkpt lat="40.274189014800335" lon="17.875342067585414"><ele>2.5</ele><time>2026-03-29T12:00:17Z</time></trkpt><trkpt lat="40.27413459162977" lon="17.87550557829921"><ele>2.0</ele><time>2026-03-29T12:00:18Z</time></trkpt><trkpt lat="40.27408889860059" lon="17.875650855865757"><ele>2.0</ele><time>2026-03-29T12:00:19Z</time></trkpt><trkpt lat="40.27404758136863" lon="17.87580873630494"><ele>2.0</ele><time>2026-03-29T12:00:20Z</time></trkpt><trkpt lat="40.27399733098948" lon="17.87598602229718"><ele>2.0</ele><time>2026-03-29T12:00:21Z</time></trkpt><trkpt lat="40.273924967936196" lon="17.87617404973527"><ele>2.0</ele><time>2026-03-29T12:00:22Z</time></trkpt><trkpt lat="40.273862907775815" lon="17.87637659309199"><ele>1.3333333333333333</ele><time>2026-03-29T12:00:23Z</time></trkpt><trkpt lat="40.27379820141468" lon="17.87658841096048"><ele>0.6666666666666666</ele><time>2026-03-29T12:00:24Z</time></trkpt><trkpt lat="40.27373812881232" lon="17.87679410163909"><ele>0.0</ele><time>2026-03-29T12:00:25Z</time></trkpt><trkpt lat="40.27367529339741" lon="17.87700925231666"><ele>0.0</ele><time>2026-03-29T12:00:26Z</time></trkpt><trkpt lat="40.27361568269031" lon="17.877213362028833"><ele>0.0</ele><time>2026-03-29T12:00:27Z</time></trkpt><trkpt lat="40.27356235512404" lon="17.877396138769875"><ele>0.0</ele><time>2026-03-29T12:00:28Z</time></trkpt><trkpt lat="40.27350898685219" lon="17.87757934124791"><ele>1.0</ele><time>2026-03-29T12:00:29Z</time></trkpt><trkpt lat="40.27344903255765" lon="17.8777851521375"><ele>2.0</ele><time>2026-03-29T12:00:30Z</time></trkpt><trkpt lat="40.273393398383114" lon="17.877973546167848"><ele>3.0</ele><time>2026-03-29T12:00:31Z</time></trkpt><trkpt lat="40.273336781663616" lon="17.87814505116769"><ele>3.0</ele><time>2026-03-29T12:00:32Z</time></trkpt><trkpt lat="40.27328165979021" lon="17.878304631529204"><ele>3.0</ele><time>2026-03-29T12:00:33Z</time></trkpt><trkpt lat="40.27321741322155" lon="17.878467557767106"><ele>3.0</ele><time>2026-03-29T12:00:34Z</time></trkpt><trkpt lat="40.27313576629823" lon="17.878628435582133"><ele>3.0</ele><time>2026-03-29T12:00:35Z</time></trkpt><trkpt lat="40.273041794334304" lon="17.878795926869614"><ele>2.6666666666666665</ele><time>2026-03-29T12:00:36Z</time></trkpt><trkpt lat="40.27293902324182" lon="17.878962843423384"><ele>2.333333333333333</ele><time>2026-03-29T12:00:37Z</time></trkpt><trkpt lat="40.27285726322686" lon="17.879118145372452"><ele>2.0</ele><time>2026-03-29T12:00:38Z</time></trkpt><trkpt lat="40.27276281837467" lon="17.879258735802313"><ele>2.333333333333333</ele><time>2026-03-29T12:00:39Z</time></trkpt><trkpt lat="40.272665054853306" lon="17.879408528872588"><ele>2.6666666666666665</ele><time>2026-03-29T12:00:40Z</time></trkpt><trkpt lat="40.27257401278778" lon="17.879579993080608"><ele>3.0</ele><time>2026-03-29T12:00:41Z</time></trkpt><trkpt lat="40.27246880575981" lon="17.87971923224901"><ele>3.0</ele><time>2026-03-29T12:00:42Z</time></trkpt><trkpt lat="40.27236839405472" lon="17.879870346639116"><ele>3.0</ele><time>2026-03-29T12:00:43Z</time></trkpt><trkpt lat="40.27227438196759" lon="17.88000741997416"><ele>3.0</ele><time>2026-03-29T12:00:44Z</time></trkpt><trkpt lat="40.272197060595296" lon="17.880128546848432"><ele>3.0</ele><time>2026-03-29T12:00:45Z</time></trkpt><trkpt lat="40.272126057846435" lon="17.88024262571243"><ele>3.0</ele><time>2026-03-29T12:00:46Z</time></trkpt><trkpt lat="40.272058533450945" lon="17.88035199040618"><ele>3.0</ele><time>2026-03-29T12:00:47Z</time></trkpt><trkpt lat="40.271966648105774" lon="17.880460348617707"><ele>3.0</ele><time>2026-03-29T12:00:48Z</time></trkpt><trkpt lat="40.27187506093855" lon="17.880598948328146"><ele>3.0</ele><time>2026-03-29T12:00:49Z</time></trkpt><trkpt lat="40.27178576155674" lon="17.880748591604473"><ele>3.0</ele><time>2026-03-29T12:00:50Z</time></trkpt><trkpt lat="40.271706898466505" lon="17.880876650487345"><ele>3.0</ele><time>2026-03-29T12:00:51Z</time></trkpt><trkpt lat="40.2716319271244" lon="17.880991151029267"><ele>3.0</ele><time>2026-03-29T12:00:52Z</time></trkpt><trkpt lat="40.2715476109018" lon="17.881114960993685"><ele>3.0</ele><time>2026-03-29T12:00:53Z</time></trkpt><trkpt lat="40.27146152471639" lon="17.88125369648528"><ele>3.0</ele><time>2026-03-29T12:00:54Z</time></trkpt><trkpt lat="40.271359758151675" lon="17.88139760311674"><ele>3.0</ele><time>2026-03-29T12:00:55Z</time></trkpt><trkpt lat="40.27126345594162" lon="17.881545757653132"><ele>3.0</ele><time>2026-03-29T12:00:56Z</time></trkpt><trkpt lat="40.27117694847227" lon="17.881692467663694"><ele>3.0</ele><time>2026-03-29T12:00:57Z</time></trkpt><trkpt lat="40.27107953792252" lon="17.881828762600573"><ele>3.0</ele><time>2026-03-29T12:00:58Z</time></trkpt><trkpt lat="40.27097809392797" lon="17.881967585022526"><ele>3.0</ele><time>2026-03-29T12:00:59Z</time></trkpt><trkpt lat="40.27089275472119" lon="17.882124982142813"><ele>3.0</ele><time>2026-03-29T12:01:00Z</time></trkpt><trkpt lat="40.270791036106715" lon="17.882239109569454"><ele>3.0</ele><time>2026-03-29T12:01:01Z</time></trkpt><trkpt lat="40.270700845697256" lon="17.88237738019758"><ele>3.0</ele><time>2026-03-29T12:01:02Z</time></trkpt><trkpt lat="40.270613219432846" lon="17.88252667784736"><ele>3.0</ele><time>2026-03-29T12:01:03Z</time></trkpt><trkpt lat="40.27049002701545" lon="17.882670251675272"><ele>3.0</ele><time>2026-03-29T12:01:04Z</time></trkpt><trkpt lat="40.270392639693426" lon="17.882789925608606"><ele>3.0</ele><time>2026-03-29T12:01:05Z</time></trkpt><trkpt lat="40.27028715320434" lon="17.882915454107504"><ele>2.75</ele><time>2026-03-29T12:01:06Z</time></trkpt><trkpt lat="40.27020236676386" lon="17.88304855207475"><ele>2.5</ele><time>2026-03-29T12:01:07Z</time></trkpt><trkpt lat="40.27007943978676" lon="17.88314509028821"><ele>2.25</ele><time>2026-03-29T12:01:08Z</time></trkpt><trkpt lat="40.26995211647217" lon="17.883266413715123"><ele>2.0</ele><time>2026-03-29T12:01:09Z</time></trkpt><trkpt lat="40.26980730739415" lon="17.883400076483753"><ele>1.3333333333333333</ele><time>2026-03-29T12:01:10Z</time></trkpt><trkpt lat="40.269668529387445" lon="17.88352475314066"><ele>0.6666666666666666</ele><time>2026-03-29T12:01:11Z</time></trkpt><trkpt lat="40.269535392613854" lon="17.883642551632104"><ele>0.0</ele><time>2026-03-29T12:01:12Z</time></trkpt><trkpt lat="40.269428415558146" lon="17.883739258628868"><ele>0.0</ele><time>2026-03-29T12:01:13Z</time></trkpt><trkpt lat="40.26933325544037" lon="17.883855346052204"><ele>0.0</ele><time>2026-03-29T12:01:14Z</time></trkpt><trkpt lat="40.26917628932269" lon="17.883977730866093"><ele>0.0</ele><time>2026-03-29T12:01:15Z</time></trkpt><trkpt lat="40.2690539443196" lon="17.88409345022332"><ele>0.0</ele><time>2026-03-29T12:01:16Z</time></trkpt><trkpt lat="40.268923630099124" lon="17.88421415995112"><ele>0.0</ele><time>2026-03-29T12:01:17Z</time></trkpt><trkpt lat="40.268780453388" lon="17.88434462205025"><ele>0.0</ele><time>2026-03-29T12:01:18Z</time></trkpt><trkpt lat="40.26864655023645" lon="17.88446663402378"><ele>0.0</ele><time>2026-03-29T12:01:19Z</time></trkpt><trkpt lat="40.26850638247058" lon="17.88459120242613"><ele>0.0</ele><time>2026-03-29T12:01:20Z</time></trkpt><trkpt lat="40.26837378610853" lon="17.88470957969809"><ele>0.0</ele><time>2026-03-29T12:01:21Z</time></trkpt><trkpt lat="40.26821641490045" lon="17.884770310336595"><ele>0.0</ele><time>2026-03-29T12:01:22Z</time></trkpt><trkpt lat="40.268062577822896" lon="17.88483907830136"><ele>0.0</ele><time>2026-03-29T12:01:23Z</time></trkpt><trkpt lat="40.26792612604216" lon="17.88489739792789"><ele>0.0</ele><time>2026-03-29T12:01:24Z</time></trkpt><trkpt lat="40.26778681285409" lon="17.88494269285009"><ele>0.0</ele><time>2026-03-29T12:01:25Z</time></trkpt><trkpt lat="40.267640258683706" lon="17.884974794206567"><ele>0.0</ele><time>2026-03-29T12:01:26Z</time></trkpt><trkpt lat="40.267521086884855" lon="17.88498216792696"><ele>0.0</ele><time>2026-03-29T12:01:27Z</time></trkpt><trkpt lat="40.267398981971496" lon="17.88495972616642"><ele>0.0</ele><time>2026-03-29T12:01:28Z</time></trkpt><trkpt lat="40.26730320176595" lon="17.88493732498058"><ele>0.16666666666666666</ele><time>2026-03-29T12:01:29Z</time></trkpt><trkpt lat="40.267240569295595" lon="17.884921527460815"><ele>0.3333333333333333</ele><time>2026-03-29T12:01:30Z</time></trkpt><trkpt lat="40.267177142512885" lon="17.885054847485844"><ele>0.5</ele><time>2026-03-29T12:01:32Z</time></trkpt><trkpt lat="40.267187963661506" lon="17.88513731287672"><ele>0.6666666666666666</ele><time>2026-03-29T12:01:33Z</time></trkpt><trkpt lat="40.26720012648286" lon="17.885254274564602"><ele>0.8333333333333333</ele><time>2026-03-29T12:01:34Z</time></trkpt><trkpt lat="40.26721500224207" lon="17.885395481983586"><ele>1.0</ele><time>2026-03-29T12:01:35Z</time></trkpt><trkpt lat="40.26722155042071" lon="17.88554214561024"><ele>1.0</ele><time>2026-03-29T12:01:36Z</time></trkpt><trkpt lat="40.267227765557124" lon="17.885712243473982"><ele>1.0</ele><time>2026-03-29T12:01:37Z</time></trkpt><trkpt lat="40.26722463959682" lon="17.885852333167804"><ele>1.0</ele><time>2026-03-29T12:01:38Z</time></trkpt><trkpt lat="40.267185220805096" lon="17.88596847413126"><ele>1.0</ele><time>2026-03-29T12:01:39Z</time></trkpt><trkpt lat="40.26708637378265" lon="17.886069976897208"><ele>0.6666666666666666</ele><time>2026-03-29T12:01:40Z</time></trkpt><trkpt lat="40.266995895751464" lon="17.886235721400954"><ele>0.3333333333333333</ele><time>2026-03-29T12:01:41Z</time></trkpt><trkpt lat="40.26688282222813" lon="17.886383679123696"><ele>0.0</ele><time>2026-03-29T12:01:42Z</time></trkpt><trkpt lat="40.26677463628895" lon="17.88654246691777"><ele>0.0</ele><time>2026-03-29T12:01:43Z</time></trkpt><trkpt lat="40.26668041515037" lon="17.886677147451774"><ele>0.0</ele><time>2026-03-29T12:01:44Z</time></trkpt><trkpt lat="40.26660072648279" lon="17.886790061443303"><ele>0.0</ele><time>2026-03-29T12:01:45Z</time></trkpt><trkpt lat="40.26653310668699" lon="17.88688629730156"><ele>0.0</ele><time>2026-03-29T12:01:46Z</time></trkpt><trkpt lat="40.26647603479551" lon="17.886967400044"><ele>0.0</ele><time>2026-03-29T12:01:47Z</time></trkpt><trkpt lat="40.26643589733114" lon="17.887036420296006"><ele>0.4</ele><time>2026-03-29T12:01:48Z</time></trkpt><trkpt lat="40.2663953238043" lon="17.887111741673827"><ele>0.8</ele><time>2026-03-29T12:01:49Z</time></trkpt><trkpt lat="40.26633888205282" lon="17.887202805235763"><ele>1.2000000000000002</ele><time>2026-03-29T12:01:50Z</time></trkpt><trkpt lat="40.26627255509017" lon="17.887301915639927"><ele>1.6</ele><time>2026-03-29T12:01:51Z</time></trkpt><trkpt lat="40.266231937394686" lon="17.887423932561234"><ele>2.0</ele><time>2026-03-29T12:01:52Z</time></trkpt><trkpt lat="40.26624413835765" lon="17.887581494350467"><ele>1.8</ele><time>2026-03-29T12:01:53Z</time></trkpt><trkpt lat="40.26628253803731" lon="17.88773403527751"><ele>1.6</ele><time>2026-03-29T12:01:54Z</time></trkpt><trkpt lat="40.26632363372792" lon="17.887869444414175"><ele>1.4000000000000001</ele><time>2026-03-29T12:01:55Z</time></trkpt><trkpt lat="40.266358102565086" lon="17.887972750811628"><ele>1.2000000000000002</ele><time>2026-03-29T12:01:56Z</time></trkpt><trkpt lat="40.26639884306128" lon="17.888073624967838"><ele>1.0</ele><time>2026-03-29T12:01:57Z</time></trkpt><trkpt lat="40.26644612630321" lon="17.888191278690776"><ele>1.0</ele><time>2026-03-29T12:01:58Z</time></trkpt><trkpt lat="40.26649592130454" lon="17.88833246891634"><ele>1.0</ele><time>2026-03-29T12:01:59Z</time></trkpt><trkpt lat="40.26652687123593" lon="17.888461894486575"><ele>1.0</ele><time>2026-03-29T12:02:00Z</time></trkpt><trkpt lat="40.26655601235636" lon="17.88855515887473"><ele>1.0</ele><time>2026-03-29T12:02:01Z</time></trkpt><trkpt lat="40.26660731146652" lon="17.888679373586168"><ele>1.0</ele><time>2026-03-29T12:02:03Z</time></trkpt><trkpt lat="40.2666323277002" lon="17.888800366147585"><ele>1.4</ele><time>2026-03-29T12:02:05Z</time></trkpt><trkpt lat="40.26661417558905" lon="17.8889076337446"><ele>1.8</ele><time>2026-03-29T12:02:07Z</time></trkpt><trkpt lat="40.26654425030319" lon="17.889023468459733"><ele>2.1999999999999997</ele><time>2026-03-29T12:02:09Z</time></trkpt><trkpt lat="40.26647112692667" lon="17.88906253459124"><ele>2.6</ele><time>2026-03-29T12:02:10Z</time></trkpt><trkpt lat="40.26641245275373" lon="17.889127279389434"><ele>3.0</ele><time>2026-03-29T12:02:11Z</time></trkpt><trkpt lat="40.26629609530793" lon="17.889204332927054"><ele>3.4</ele><time>2026-03-29T12:02:13Z</time></trkpt><trkpt lat="40.266169830889524" lon="17.889275398976544"><ele>3.8</ele><time>2026-03-29T12:02:15Z</time></trkpt><trkpt lat="40.266096737046375" lon="17.889329835632832"><ele>4.2</ele><time>2026-03-29T12:02:16Z</time></trkpt><trkpt lat="40.26600994502986" lon="17.889393709018314"><ele>4.6</ele><time>2026-03-29T12:02:17Z</time></trkpt><trkpt lat="40.26590987401592" lon="17.889453400609472"><ele>5.0</ele><time>2026-03-29T12:02:18Z</time></trkpt><trkpt lat="40.265824431421876" lon="17.889520278713107"><ele>5.0</ele><time>2026-03-29T12:02:19Z</time></trkpt><trkpt lat="40.26573915150141" lon="17.889581989368292"><ele>5.0</ele><time>2026-03-29T12:02:20Z</time></trkpt><trkpt lat="40.26568199373504" lon="17.889620659250035"><ele>5.0</ele><time>2026-03-29T12:02:21Z</time></trkpt><trkpt lat="40.265599201359734" lon="17.88968851334225"><ele>5.0</ele><time>2026-03-29T12:02:25Z</time></trkpt><trkpt lat="40.26552357356947" lon="17.889746619998107"><ele>5.0</ele><time>2026-03-29T12:02:26Z</time></trkpt><trkpt lat="40.265448352565755" lon="17.889809001327365"><ele>5.0</ele><time>2026-03-29T12:02:27Z</time></trkpt><trkpt lat="40.265358130238944" lon="17.889871553607676"><ele>5.0</ele><time>2026-03-29T12:02:28Z</time></trkpt><trkpt lat="40.26525358096451" lon="17.889934983569642"><ele>5.0</ele><time>2026-03-29T12:02:29Z</time></trkpt><trkpt lat="40.265142747318315" lon="17.8900138558074"><ele>5.0</ele><time>2026-03-29T12:02:30Z</time></trkpt><trkpt lat="40.265025768253466" lon="17.89009395169201"><ele>5.0</ele><time>2026-03-29T12:02:31Z</time></trkpt><trkpt lat="40.26491288046845" lon="17.890176672301873"><ele>5.2</ele><time>2026-03-29T12:02:32Z</time></trkpt><trkpt lat="40.26482155668875" lon="17.89024898455943"><ele>5.4</ele><time>2026-03-29T12:02:33Z</time></trkpt><trkpt lat="40.26473467157815" lon="17.89031158993223"><ele>5.6</ele><time>2026-03-29T12:02:34Z</time></trkpt><trkpt lat="40.264652946337364" lon="17.890362021576696"><ele>5.8</ele><time>2026-03-29T12:02:35Z</time></trkpt><trkpt lat="40.26453520280113" lon="17.890449064732408"><ele>6.0</ele><time>2026-03-29T12:02:37Z</time></trkpt><trkpt lat="40.26444565858279" lon="17.89050852387017"><ele>6.0</ele><time>2026-03-29T12:02:38Z</time></trkpt><trkpt lat="40.26435693507017" lon="17.890569968879323"><ele>6.0</ele><time>2026-03-29T12:02:39Z</time></trkpt><trkpt lat="40.2642958497855" lon="17.89061780052875"><ele>6.0</ele><time>2026-03-29T12:02:40Z</time></trkpt><trkpt lat="40.26422707720679" lon="17.890635705254383"><ele>6.0</ele><time>2026-03-29T12:02:44Z</time></trkpt><trkpt lat="40.26411966983076" lon="17.890460752494526"><ele>6.0</ele><time>2026-03-29T12:02:46Z</time></trkpt><trkpt lat="40.26407108988096" lon="17.890378948009236"><ele>6.0</ele><time>2026-03-29T12:02:47Z</time></trkpt><trkpt lat="40.26401637471519" lon="17.890292525188066"><ele>6.0</ele><time>2026-03-29T12:02:48Z</time></trkpt><trkpt lat="40.263947201822496" lon="17.890192752512895"><ele>6.0</ele><time>2026-03-29T12:02:49Z</time></trkpt><trkpt lat="40.26387589068867" lon="17.890080018419784"><ele>6.0</ele><time>2026-03-29T12:02:50Z</time></trkpt><trkpt lat="40.263786857497905" lon="17.8899713074899"><ele>6.0</ele><time>2026-03-29T12:02:51Z</time></trkpt><trkpt lat="40.26370800468273" lon="17.889845894562203"><ele>6.0</ele><time>2026-03-29T12:02:52Z</time></trkpt><trkpt lat="40.263637828909545" lon="17.889714761774474"><ele>6.0</ele><time>2026-03-29T12:02:53Z</time></trkpt><trkpt lat="40.26356289204634" lon="17.88960564821397"><ele>6.0</ele><time>2026-03-29T12:02:54Z</time></trkpt><trkpt lat="40.26348474878146" lon="17.88948707596176"><ele>6.0</ele><time>2026-03-29T12:02:55Z</time></trkpt><trkpt lat="40.26340143821849" lon="17.88936334986591"><ele>5.5</ele><time>2026-03-29T12:02:56Z</time></trkpt><trkpt lat="40.26331931785796" lon="17.889230927218573"><ele>5.0</ele><time>2026-03-29T12:02:57Z</time></trkpt><trkpt lat="40.26322960712019" lon="17.889103457153844"><ele>4.5</ele><time>2026-03-29T12:02:58Z</time></trkpt><trkpt lat="40.26315194301588" lon="17.888992675278146"><ele>4.0</ele><time>2026-03-29T12:02:59Z</time></trkpt><trkpt lat="40.26309079863006" lon="17.888892258285924"><ele>3.833333333333333</ele><time>2026-03-29T12:03:00Z</time></trkpt><trkpt lat="40.26303763372188" lon="17.888816585940795"><ele>3.6666666666666665</ele><time>2026-03-29T12:03:01Z</time></trkpt><trkpt lat="40.262995809330526" lon="17.888747912310997"><ele>3.5</ele><time>2026-03-29T12:03:02Z</time></trkpt><trkpt lat="40.262932850532174" lon="17.88866100623131"><ele>3.333333333333333</ele><time>2026-03-29T12:03:06Z</time></trkpt><trkpt lat="40.26284711135175" lon="17.8885219567118"><ele>3.1666666666666665</ele><time>2026-03-29T12:03:08Z</time></trkpt><trkpt lat="40.262807768235774" lon="17.888447261583725"><ele>3.0</ele><time>2026-03-29T12:03:09Z</time></trkpt><trkpt lat="40.262735208248785" lon="17.888332341504512"><ele>2.8333333333333335</ele><time>2026-03-29T12:03:11Z</time></trkpt><trkpt lat="40.26268493766276" lon="17.888254414592566"><ele>2.6666666666666665</ele><time>2026-03-29T12:03:13Z</time></trkpt><trkpt lat="40.26260932095993" lon="17.888266493202718"><ele>2.5</ele><time>2026-03-29T12:03:14Z</time></trkpt><trkpt lat="40.262531523097245" lon="17.888243815853404"><ele>2.333333333333333</ele><time>2026-03-29T12:03:15Z</time></trkpt><trkpt lat="40.26244002108994" lon="17.88823353651712"><ele>2.1666666666666665</ele><time>2026-03-29T12:03:16Z</time></trkpt><trkpt lat="40.262358904566156" lon="17.88820332810455"><ele>2.0</ele><time>2026-03-29T12:03:17Z</time></trkpt><trkpt lat="40.262275239486726" lon="17.888183143604003"><ele>1.6666666666666665</ele><time>2026-03-29T12:03:18Z</time></trkpt><trkpt lat="40.262196352702055" lon="17.888127576689037"><ele>1.3333333333333333</ele><time>2026-03-29T12:03:19Z</time></trkpt><trkpt lat="40.26213120959029" lon="17.88810504724587"><ele>1.0</ele><time>2026-03-29T12:03:20Z</time></trkpt><trkpt lat="40.26205285511351" lon="17.88808241752911"><ele>0.6666666666666666</ele><time>2026-03-29T12:03:22Z</time></trkpt><trkpt lat="40.26197466637899" lon="17.88813888103708"><ele>0.3333333333333333</ele><time>2026-03-29T12:03:24Z</time></trkpt><trkpt lat="40.26193473321377" lon="17.88820351468319"><ele>0.0</ele><time>2026-03-29T12:03:27Z</time></trkpt><trkpt lat="40.26201742568605" lon="17.888335766294155"><ele>0.0</ele><time>2026-03-29T12:03:28Z</time></trkpt><trkpt lat="40.26207763376154" lon="17.888406689350372"><ele>0.0</ele><time>2026-03-29T12:03:30Z</time></trkpt><trkpt lat="40.262124768925474" lon="17.88848431480135"><ele>0.0</ele><time>2026-03-29T12:03:31Z</time></trkpt><trkpt lat="40.26217221556362" lon="17.888582331953778"><ele>0.0</ele><time>2026-03-29T12:03:32Z</time></trkpt><trkpt lat="40.26221875015601" lon="17.888705689853307"><ele>0.0</ele><time>2026-03-29T12:03:34Z</time></trkpt><trkpt lat="40.26219633527805" lon="17.888814340787917"><ele>0.0</ele><time>2026-03-29T12:03:35Z</time></trkpt><trkpt lat="40.262130812205406" lon="17.888875136723964"><ele>0.4</ele><time>2026-03-29T12:03:36Z</time></trkpt><trkpt lat="40.26205663951237" lon="17.88893615486253"><ele>0.8</ele><time>2026-03-29T12:03:37Z</time></trkpt><trkpt lat="40.26198613530062" lon="17.889005385131057"><ele>1.2000000000000002</ele><time>2026-03-29T12:03:38Z</time></trkpt><trkpt lat="40.26190818713603" lon="17.889079477253357"><ele>1.6</ele><time>2026-03-29T12:03:39Z</time></trkpt><trkpt lat="40.2618411519352" lon="17.889170570965803"><ele>2.0</ele><time>2026-03-29T12:03:40Z</time></trkpt><trkpt lat="40.26177299190354" lon="17.889253976311192"><ele>2.2</ele><time>2026-03-29T12:03:41Z</time></trkpt><trkpt lat="40.261693743918514" lon="17.88933206817782"><ele>2.4000000000000004</ele><time>2026-03-29T12:03:42Z</time></trkpt><trkpt lat="40.261632330380124" lon="17.889408967707624"><ele>2.5999999999999996</ele><time>2026-03-29T12:03:43Z</time></trkpt><trkpt lat="40.26158615709928" lon="17.889485124671314"><ele>2.8</ele><time>2026-03-29T12:03:44Z</time></trkpt><trkpt lat="40.26150609533053" lon="17.88956726981262"><ele>3.0</ele><time>2026-03-29T12:03:45Z</time></trkpt><trkpt lat="40.26144098937363" lon="17.889650242948875"><ele>2.6</ele><time>2026-03-29T12:03:46Z</time></trkpt><trkpt lat="40.2613757671166" lon="17.88972444561765"><ele>2.1999999999999997</ele><time>2026-03-29T12:03:47Z</time></trkpt><trkpt lat="40.26131193957146" lon="17.889798868885716"><ele>1.8</ele><time>2026-03-29T12:03:48Z</time></trkpt><trkpt lat="40.261247031436056" lon="17.88987746668234"><ele>1.4</ele><time>2026-03-29T12:03:49Z</time></trkpt><trkpt lat="40.261171911384835" lon="17.889956342575783"><ele>1.0</ele><time>2026-03-29T12:03:50Z</time></trkpt><trkpt lat="40.261102287828365" lon="17.890047630431088"><ele>2.0</ele><time>2026-03-29T12:03:51Z</time></trkpt><trkpt lat="40.26102323843089" lon="17.890139158912824"><ele>3.0</ele><time>2026-03-29T12:03:52Z</time></trkpt><trkpt lat="40.260948638400784" lon="17.890219908819034"><ele>3.9999999999999996</ele><time>2026-03-29T12:03:53Z</time></trkpt><trkpt lat="40.260869761023045" lon="17.890279288778405"><ele>5.0</ele><time>2026-03-29T12:03:54Z</time></trkpt><trkpt lat="40.260789772415606" lon="17.890338969245057"><ele>6.0</ele><time>2026-03-29T12:03:55Z</time></trkpt><trkpt lat="40.260715524792325" lon="17.89039817306514"><ele>6.0</ele><time>2026-03-29T12:03:56Z</time></trkpt><trkpt lat="40.26064316892158" lon="17.890452125972125"><ele>6.0</ele><time>2026-03-29T12:03:57Z</time></trkpt><trkpt lat="40.26057891689546" lon="17.890512796069824"><ele>6.0</ele><time>2026-03-29T12:03:58Z</time></trkpt><trkpt lat="40.260527086095145" lon="17.89056656342802"><ele>6.0</ele><time>2026-03-29T12:03:59Z</time></trkpt><trkpt lat="40.260461820890214" lon="17.89066129626581"><ele>6.0</ele><time>2026-03-29T12:04:01Z</time></trkpt><trkpt lat="40.260422029789744" lon="17.890750591644036"><ele>6.0</ele><time>2026-03-29T12:04:02Z</time></trkpt><trkpt lat="40.26037594423809" lon="17.890830382343307"><ele>5.6</ele><time>2026-03-29T12:04:03Z</time></trkpt><trkpt lat="40.26033466050093" lon="17.890928186572708"><ele>5.199999999999999</ele><time>2026-03-29T12:04:04Z</time></trkpt><trkpt lat="40.260291144725855" lon="17.891037418963666"><ele>4.800000000000001</ele><time>2026-03-29T12:04:05Z</time></trkpt><trkpt lat="40.26024974475627" lon="17.89114242852673"><ele>4.4</ele><time>2026-03-29T12:04:06Z</time></trkpt><trkpt lat="40.260214069468894" lon="17.891232543415523"><ele>4.0</ele><time>2026-03-29T12:04:07Z</time></trkpt><trkpt lat="40.26017340526377" lon="17.891371030779247"><ele>4.0</ele><time>2026-03-29T12:04:09Z</time></trkpt><trkpt lat="40.26009825654914" lon="17.891456737392172"><ele>4.0</ele><time>2026-03-29T12:04:11Z</time></trkpt><trkpt lat="40.2600019694809" lon="17.891461484918313"><ele>4.0</ele><time>2026-03-29T12:04:13Z</time></trkpt><trkpt lat="40.25991505741283" lon="17.89147738932932"><ele>4.0</ele><time>2026-03-29T12:04:15Z</time></trkpt><trkpt lat="40.25979385749779" lon="17.891517439807245"><ele>4.0</ele><time>2026-03-29T12:04:17Z</time></trkpt><trkpt lat="40.25972229287712" lon="17.89153129209587"><ele>3.6</ele><time>2026-03-29T12:04:18Z</time></trkpt><trkpt lat="40.25961033162154" lon="17.89155235651922"><ele>3.2</ele><time>2026-03-29T12:04:20Z</time></trkpt><trkpt lat="40.25951903975563" lon="17.89157100499094"><ele>2.8000000000000003</ele><time>2026-03-29T12:04:22Z</time></trkpt><trkpt lat="40.25940284045806" lon="17.89158657457987"><ele>2.4000000000000004</ele><time>2026-03-29T12:04:24Z</time></trkpt><trkpt lat="40.259327107099885" lon="17.89148005286365"><ele>2.0</ele><time>2026-03-29T12:04:25Z</time></trkpt><trkpt lat="40.25927513769358" lon="17.891394937066757"><ele>1.9999999999999998</ele><time>2026-03-29T12:04:26Z</time></trkpt><trkpt lat="40.25920782391762" lon="17.891330371754478"><ele>2.0</ele><time>2026-03-29T12:04:27Z</time></trkpt><trkpt lat="40.25913216498158" lon="17.891288070549525"><ele>2.0</ele><time>2026-03-29T12:04:28Z</time></trkpt><trkpt lat="40.25906753136553" lon="17.891238352748864"><ele>2.0</ele><time>2026-03-29T12:04:29Z</time></trkpt><trkpt lat="40.25900246151073" lon="17.89120695129846"><ele>1.9999999999999998</ele><time>2026-03-29T12:04:30Z</time></trkpt><trkpt lat="40.25889950997025" lon="17.891190132787987"><ele>2.0</ele><time>2026-03-29T12:04:32Z</time></trkpt><trkpt lat="40.25880905097844" lon="17.891182356519124"><ele>2.0</ele><time>2026-03-29T12:04:34Z</time></trkpt><trkpt lat="40.25873836998156" lon="17.89118886224065"><ele>2.0</ele><time>2026-03-29T12:04:36Z</time></trkpt><trkpt lat="40.25866353686074" lon="17.891186150355693"><ele>2.0</ele><time>2026-03-29T12:04:38Z</time></trkpt><trkpt lat="40.258574294771826" lon="17.891194831434618"><ele>2.0</ele><time>2026-03-29T12:04:40Z</time></trkpt><trkpt lat="40.25845066364107" lon="17.891210668213674"><ele>2.0</ele><time>2026-03-29T12:04:42Z</time></trkpt><trkpt lat="40.25833151944983" lon="17.891205415046564"><ele>1.9999999999999998</ele><time>2026-03-29T12:04:44Z</time></trkpt><trkpt lat="40.25825049689381" lon="17.89121284806892"><ele>2.0</ele><time>2026-03-29T12:04:46Z</time></trkpt><trkpt lat="40.25815915868551" lon="17.891237809881115"><ele>2.0</ele><time>2026-03-29T12:04:48Z</time></trkpt><trkpt lat="40.258074657902135" lon="17.89122349389229"><ele>2.0</ele><time>2026-03-29T12:04:50Z</time></trkpt><trkpt lat="40.25797165250514" lon="17.891203798140328"><ele>1.9999999999999998</ele><time>2026-03-29T12:04:52Z</time></trkpt><trkpt lat="40.257915175184856" lon="17.89115713049808"><ele>2.0</ele><time>2026-03-29T12:04:53Z</time></trkpt><trkpt lat="40.25784566167107" lon="17.89111560266644"><ele>2.1666666666666665</ele><time>2026-03-29T12:04:54Z</time></trkpt><trkpt lat="40.257772017767245" lon="17.89109188455445"><ele>2.333333333333333</ele><time>2026-03-29T12:04:55Z</time></trkpt><trkpt lat="40.25768302784105" lon="17.891019093244996"><ele>2.5</ele><time>2026-03-29T12:04:57Z</time></trkpt><trkpt lat="40.25760474122377" lon="17.891003152754735"><ele>2.6666666666666665</ele><time>2026-03-29T12:04:59Z</time></trkpt><trkpt lat="40.25754387223741" lon="17.89096987519223"><ele>2.8333333333333335</ele><time>2026-03-29T12:05:03Z</time></trkpt><trkpt lat="40.25749245685476" lon="17.891050727311125"><ele>3.0</ele><time>2026-03-29T12:05:07Z</time></trkpt><trkpt lat="40.25747811670492" lon="17.891155303768816"><ele>3.0</ele><time>2026-03-29T12:05:09Z</time></trkpt><trkpt lat="40.257463201938506" lon="17.891238846380347"><ele>3.0</ele><time>2026-03-29T12:05:11Z</time></trkpt><trkpt lat="40.25735849545709" lon="17.8912696615228"><ele>3.0</ele><time>2026-03-29T12:05:16Z</time></trkpt><trkpt lat="40.257285946096054" lon="17.891279555379004"><ele>3.0</ele><time>2026-03-29T12:05:19Z</time></trkpt><trkpt lat="40.25721842287222" lon="17.891289350321927"><ele>3.0</ele><time>2026-03-29T12:05:27Z</time></trkpt><trkpt lat="40.25714947468453" lon="17.891276841601126"><ele>3.0</ele><time>2026-03-29T12:05:31Z</time></trkpt><trkpt lat="40.25723362808408" lon="17.89125131915732"><ele>0.0</ele><time>2026-03-29T12:06:02Z</time></trkpt><trkpt lat="40.25731021685676" lon="17.891252768434544"><ele>3.0</ele><time>2026-03-29T12:06:05Z</time></trkpt></trkseg><trkseg><trkpt lat="40.259250460433364" lon="17.893824327263868"><ele>7.000000000000001</ele><time>2026-03-29T13:40:22.25Z</time></trkpt><trkpt lat="40.25917351496404" lon="17.893835790976738"><ele>7.0</ele><time>2026-03-29T13:41:11Z</time></trkpt><trkpt lat="40.25924475330879" lon="17.893799532704655"><ele>7.0</ele><time>2026-03-29T13:41:16Z</time></trkpt><trkpt lat="40.25933993238048" lon="17.893832239739567"><ele>7.0</ele><time>2026-03-29T13:41:19Z</time></trkpt><trkpt lat="40.259408857950845" lon="17.893849774049936"><ele>7.000000000000001</ele><time>2026-03-29T13:41:21Z</time></trkpt><trkpt lat="40.25949699187565" lon="17.89391268141014"><ele>7.0</ele><time>2026-03-29T13:41:24Z</time></trkpt><trkpt lat="40.2595753055087" lon="17.89396327393274"><ele>7.000000000000001</ele><time>2026-03-29T13:41:27Z</time></trkpt><trkpt lat="40.25964911605884" lon="17.893968943405742"><ele>7.0</ele><time>2026-03-29T13:41:31Z</time></trkpt><trkpt lat="40.25968915044144" lon="17.893876210816806"><ele>7.0</ele><time>2026-03-29T13:41:34Z</time></trkpt><trkpt lat="40.259682866531726" lon="17.89375920381298"><ele>7.0</ele><time>2026-03-29T13:41:36Z</time></trkpt><trkpt lat="40.25969889959952" lon="17.893678907294614"><ele>7.000000000000001</ele><time>2026-03-29T13:41:38Z</time></trkpt><trkpt lat="40.25972541412456" lon="17.893566124995843"><ele>7.0</ele><time>2026-03-29T13:41:41Z</time></trkpt><trkpt lat="40.25978090255522" lon="17.893425916119796"><ele>7.199999999999999</ele><time>2026-03-29T13:41:43Z</time></trkpt><trkpt lat="40.25982063903931" lon="17.89333314425467"><ele>7.3999999999999995</ele><time>2026-03-29T13:41:45Z</time></trkpt><trkpt lat="40.259899235593004" lon="17.893305592574322"><ele>7.6000000000000005</ele><time>2026-03-29T13:41:46Z</time></trkpt><trkpt lat="40.25995431741181" lon="17.893379030167008"><ele>7.800000000000001</ele><time>2026-03-29T13:41:48Z</time></trkpt><trkpt lat="40.259996105346104" lon="17.89348449875255"><ele>8.0</ele><time>2026-03-29T13:41:50Z</time></trkpt><trkpt lat="40.260083102040284" lon="17.893627632233677"><ele>7.666666666666666</ele><time>2026-03-29T13:41:52Z</time></trkpt><trkpt lat="40.260120812746166" lon="17.89373481752792"><ele>7.333333333333333</ele><time>2026-03-29T13:41:53Z</time></trkpt><trkpt lat="40.26013045155003" lon="17.893833435850503"><ele>7.0</ele><time>2026-03-29T13:41:54Z</time></trkpt><trkpt lat="40.2601822557627" lon="17.893949313691934"><ele>6.666666666666666</ele><time>2026-03-29T13:41:56Z</time></trkpt><trkpt lat="40.260214183461635" lon="17.894020730875912"><ele>6.333333333333333</ele><time>2026-03-29T13:41:57Z</time></trkpt><trkpt lat="40.260247819480064" lon="17.89409603396546"><ele>6.0</ele><time>2026-03-29T13:41:58Z</time></trkpt><trkpt lat="40.26028314290095" lon="17.894175332252484"><ele>5.666666666666667</ele><time>2026-03-29T13:41:59Z</time></trkpt><trkpt lat="40.2603263393672" lon="17.89427287210751"><ele>5.333333333333333</ele><time>2026-03-29T13:42:00Z</time></trkpt><trkpt lat="40.26039178133566" lon="17.89442038281918"><ele>5.0</ele><time>2026-03-29T13:42:02Z</time></trkpt><trkpt lat="40.260425811557376" lon="17.89449708939929"><ele>4.666666666666666</ele><time>2026-03-29T13:42:03Z</time></trkpt><trkpt lat="40.26046025192529" lon="17.8945745333404"><ele>4.333333333333333</ele><time>2026-03-29T13:42:04Z</time></trkpt><trkpt lat="40.26049414454167" lon="17.894650665012495"><ele>4.0</ele><time>2026-03-29T13:42:05Z</time></trkpt><trkpt lat="40.26054872198253" lon="17.894773260215874"><ele>3.9999999999999996</ele><time>2026-03-29T13:42:07Z</time></trkpt><trkpt lat="40.26058292056043" lon="17.894850079169654"><ele>4.0</ele><time>2026-03-29T13:42:08Z</time></trkpt><trkpt lat="40.260622394607864" lon="17.89493874816459"><ele>4.0</ele><time>2026-03-29T13:42:09Z</time></trkpt><trkpt lat="40.26066106858295" lon="17.895025621028257"><ele>4.0</ele><time>2026-03-29T13:42:10Z</time></trkpt><trkpt lat="40.26070159962481" lon="17.89511685634617"><ele>3.9999999999999996</ele><time>2026-03-29T13:42:11Z</time></trkpt><trkpt lat="40.26074315641019" lon="17.895210327716665"><ele>4.0</ele><time>2026-03-29T13:42:12Z</time></trkpt><trkpt lat="40.260784401871476" lon="17.89530309886798"><ele>4.166666666666666</ele><time>2026-03-29T13:42:13Z</time></trkpt><trkpt lat="40.260825227832036" lon="17.89539492644281"><ele>4.333333333333333</ele><time>2026-03-29T13:42:14Z</time></trkpt><trkpt lat="40.26086332123665" lon="17.89548080746744"><ele>4.5</ele><time>2026-03-29T13:42:15Z</time></trkpt><trkpt lat="40.26089968355454" lon="17.895562856285512"><ele>4.666666666666667</ele><time>2026-03-29T13:42:16Z</time></trkpt><trkpt lat="40.260954493807745" lon="17.895686531315715"><ele>4.833333333333334</ele><time>2026-03-29T13:42:18Z</time></trkpt><trkpt lat="40.261003566414544" lon="17.895787382571722"><ele>5.0</ele><time>2026-03-29T13:42:19Z</time></trkpt><trkpt lat="40.261054775969484" lon="17.895913324335393"><ele>4.857142857142857</ele><time>2026-03-29T13:42:21Z</time></trkpt><trkpt lat="40.26109427136952" lon="17.895986771867072"><ele>4.714285714285714</ele><time>2026-03-29T13:42:22Z</time></trkpt><trkpt lat="40.26113149908971" lon="17.896069412619095"><ele>4.571428571428571</ele><time>2026-03-29T13:42:23Z</time></trkpt><trkpt lat="40.26116028023267" lon="17.896151443655565"><ele>4.428571428571429</ele><time>2026-03-29T13:42:24Z</time></trkpt><trkpt lat="40.261194868303136" lon="17.896234537948935"><ele>4.285714285714286</ele><time>2026-03-29T13:42:25Z</time></trkpt><trkpt lat="40.26122694649958" lon="17.89630691513218"><ele>4.142857142857142</ele><time>2026-03-29T13:42:26Z</time></trkpt><trkpt lat="40.261259895145756" lon="17.896379096149797"><ele>4.0</ele><time>2026-03-29T13:42:27Z</time></trkpt><trkpt lat="40.26133201005929" lon="17.896539935399034"><ele>3.9999999999999996</ele><time>2026-03-29T13:42:29Z</time></trkpt><trkpt lat="40.2613858521672" lon="17.896625411348218"><ele>4.0</ele><time>2026-03-29T13:42:30Z</time></trkpt><trkpt lat="40.26141989982298" lon="17.896700336638386"><ele>4.0</ele><time>2026-03-29T13:42:31Z</time></trkpt><trkpt lat="40.26146928746609" lon="17.896816439766745"><ele>4.0</ele><time>2026-03-29T13:42:33Z</time></trkpt><trkpt lat="40.26151467960069" lon="17.896924956580794"><ele>3.9999999999999996</ele><time>2026-03-29T13:42:34Z</time></trkpt><trkpt lat="40.26156648073859" lon="17.897037288684093"><ele>4.0</ele><time>2026-03-29T13:42:35Z</time></trkpt><trkpt lat="40.26162965338731" lon="17.89716069399186"><ele>3.8000000000000003</ele><time>2026-03-29T13:42:36Z</time></trkpt><trkpt lat="40.26167710568553" lon="17.897326667515976"><ele>3.6000000000000005</ele><time>2026-03-29T13:42:37Z</time></trkpt><trkpt lat="40.26172779369159" lon="17.897442126164822"><ele>3.4</ele><time>2026-03-29T13:42:38Z</time></trkpt><trkpt lat="40.26177141953585" lon="17.89752796963864"><ele>3.2</ele><time>2026-03-29T13:42:39Z</time></trkpt><trkpt lat="40.2618128499456" lon="17.897595824917797"><ele>3.0</ele><time>2026-03-29T13:42:40Z</time></trkpt><trkpt lat="40.26187575759967" lon="17.897739291877553"><ele>3.0</ele><time>2026-03-29T13:42:42Z</time></trkpt><trkpt lat="40.261944395102496" lon="17.897889584419346"><ele>3.0</ele><time>2026-03-29T13:42:44Z</time></trkpt><trkpt lat="40.261968493426785" lon="17.897986612045223"><ele>3.0</ele><time>2026-03-29T13:42:45Z</time></trkpt><trkpt lat="40.262012432107824" lon="17.89808561643176"><ele>3.0</ele><time>2026-03-29T13:42:46Z</time></trkpt><trkpt lat="40.26205604322342" lon="17.898183884135406"><ele>3.0</ele><time>2026-03-29T13:42:47Z</time></trkpt><trkpt lat="40.262104639778315" lon="17.898293242090823"><ele>3.0</ele><time>2026-03-29T13:42:48Z</time></trkpt><trkpt lat="40.26216477866184" lon="17.89840002904888"><ele>3.0</ele><time>2026-03-29T13:42:49Z</time></trkpt><trkpt lat="40.26222309402891" lon="17.898542372123018"><ele>3.0</ele><time>2026-03-29T13:42:50Z</time></trkpt><trkpt lat="40.262270733742405" lon="17.898659414182635"><ele>3.0</ele><time>2026-03-29T13:42:51Z</time></trkpt><trkpt lat="40.26232352517989" lon="17.898754926772128"><ele>3.0</ele><time>2026-03-29T13:42:52Z</time></trkpt><trkpt lat="40.2623708324429" lon="17.898859645433838"><ele>3.25</ele><time>2026-03-29T13:42:53Z</time></trkpt><trkpt lat="40.262416729568166" lon="17.898971822728498"><ele>3.5</ele><time>2026-03-29T13:42:54Z</time></trkpt><trkpt lat="40.26247492382356" lon="17.899121396997547"><ele>3.75</ele><time>2026-03-29T13:42:55Z</time></trkpt><trkpt lat="40.26252962357634" lon="17.899317750210567"><ele>4.0</ele><time>2026-03-29T13:42:56Z</time></trkpt><trkpt lat="40.26261634100481" lon="17.899518273966365"><ele>4.0</ele><time>2026-03-29T13:42:57Z</time></trkpt><trkpt lat="40.2626897104434" lon="17.899683816721016"><ele>4.0</ele><time>2026-03-29T13:42:58Z</time></trkpt><trkpt lat="40.26274840253201" lon="17.899816900222337"><ele>4.0</ele><time>2026-03-29T13:42:59Z</time></trkpt><trkpt lat="40.26279657230631" lon="17.89992872077655"><ele>4.0</ele><time>2026-03-29T13:43:00Z</time></trkpt><trkpt lat="40.26284608725505" lon="17.900042068295996"><ele>3.8000000000000003</ele><time>2026-03-29T13:43:01Z</time></trkpt><trkpt lat="40.26290304594378" lon="17.900172455910283"><ele>3.6000000000000005</ele><time>2026-03-29T13:43:02Z</time></trkpt><trkpt lat="40.262958129474576" lon="17.900296858855366"><ele>3.4</ele><time>2026-03-29T13:43:03Z</time></trkpt><trkpt lat="40.26300696413508" lon="17.900407327703032"><ele>3.2</ele><time>2026-03-29T13:43:04Z</time></trkpt><trkpt lat="40.26305354295262" lon="17.900513538433454"><ele>3.0</ele><time>2026-03-29T13:43:05Z</time></trkpt><trkpt lat="40.26309569270234" lon="17.90060943580921"><ele>3.0</ele><time>2026-03-29T13:43:06Z</time></trkpt><trkpt lat="40.26313502480439" lon="17.900697150041115"><ele>3.0</ele><time>2026-03-29T13:43:07Z</time></trkpt><trkpt lat="40.2631730737527" lon="17.90078221116763"><ele>3.0</ele><time>2026-03-29T13:43:08Z</time></trkpt><trkpt lat="40.263205942711686" lon="17.900870315753057"><ele>3.0</ele><time>2026-03-29T13:43:09Z</time></trkpt><trkpt lat="40.263241559838185" lon="17.900965651532033"><ele>3.0</ele><time>2026-03-29T13:43:10Z</time></trkpt><trkpt lat="40.26323782221842" lon="17.901062097671723"><ele>3.0</ele><time>2026-03-29T13:43:11Z</time></trkpt><trkpt lat="40.26322516509564" lon="17.901170663106377"><ele>3.0</ele><time>2026-03-29T13:43:12Z</time></trkpt><trkpt lat="40.26321897771635" lon="17.901266772426823"><ele>3.0</ele><time>2026-03-29T13:43:13Z</time></trkpt><trkpt lat="40.26327653303579" lon="17.90138814819078"><ele>3.0</ele><time>2026-03-29T13:43:15Z</time></trkpt><trkpt lat="40.26335791398062" lon="17.901424573021874"><ele>3.0</ele><time>2026-03-29T13:43:17Z</time></trkpt><trkpt lat="40.2634545115651" lon="17.901434137821767"><ele>3.0</ele><time>2026-03-29T13:43:19Z</time></trkpt><trkpt lat="40.26349933982449" lon="17.901349906413255"><ele>3.0</ele><time>2026-03-29T13:43:20Z</time></trkpt><trkpt lat="40.263531920415396" lon="17.901262913947633"><ele>3.0</ele><time>2026-03-29T13:43:21Z</time></trkpt><trkpt lat="40.26358077662955" lon="17.90115730430065"><ele>3.0</ele><time>2026-03-29T13:43:22Z</time></trkpt><trkpt lat="40.26362856824933" lon="17.901059821740237"><ele>3.0</ele><time>2026-03-29T13:43:23Z</time></trkpt><trkpt lat="40.26369093633093" lon="17.900971591322687"><ele>3.0</ele><time>2026-03-29T13:43:24Z</time></trkpt><trkpt lat="40.26377036513613" lon="17.90090246920277"><ele>3.0</ele><time>2026-03-29T13:43:25Z</time></trkpt><trkpt lat="40.26386109785092" lon="17.90084914289465"><ele>3.0</ele><time>2026-03-29T13:43:26Z</time></trkpt><trkpt lat="40.2639480598598" lon="17.900808099982044"><ele>3.0</ele><time>2026-03-29T13:43:27Z</time></trkpt><trkpt lat="40.264024176088384" lon="17.900752477943676"><ele>3.0</ele><time>2026-03-29T13:43:28Z</time></trkpt><trkpt lat="40.26413424669877" lon="17.90064789826631"><ele>3.0</ele><time>2026-03-29T13:43:30Z</time></trkpt><trkpt lat="40.26420694825794" lon="17.900607065815286"><ele>3.0</ele><time>2026-03-29T13:43:31Z</time></trkpt><trkpt lat="40.264268170734944" lon="17.90055947177302"><ele>3.0</ele><time>2026-03-29T13:43:32Z</time></trkpt><trkpt lat="40.26433105625521" lon="17.90051624756834"><ele>3.0</ele><time>2026-03-29T13:43:33Z</time></trkpt><trkpt lat="40.26440269362507" lon="17.90045458345635"><ele>3.0</ele><time>2026-03-29T13:43:34Z</time></trkpt><trkpt lat="40.26448216957667" lon="17.900403371062687"><ele>3.0</ele><time>2026-03-29T13:43:35Z</time></trkpt><trkpt lat="40.26457406135468" lon="17.90032468063393"><ele>3.0</ele><time>2026-03-29T13:43:36Z</time></trkpt><trkpt lat="40.26467676460029" lon="17.900231035563788"><ele>3.25</ele><time>2026-03-29T13:43:37Z</time></trkpt><trkpt lat="40.26478490085439" lon="17.900124370217526"><ele>3.5</ele><time>2026-03-29T13:43:38Z</time></trkpt><trkpt lat="40.264891709865545" lon="17.89998859186978"><ele>3.75</ele><time>2026-03-29T13:43:39Z</time></trkpt><trkpt lat="40.264993148554986" lon="17.899873805257627"><ele>4.0</ele><time>2026-03-29T13:43:40Z</time></trkpt><trkpt lat="40.265088213145184" lon="17.89976274660087"><ele>4.0</ele><time>2026-03-29T13:43:41Z</time></trkpt><trkpt lat="40.26517294648109" lon="17.89968635016169"><ele>4.0</ele><time>2026-03-29T13:43:42Z</time></trkpt><trkpt lat="40.2652459254113" lon="17.899589426468033"><ele>4.0</ele><time>2026-03-29T13:43:43Z</time></trkpt><trkpt lat="40.265324387583746" lon="17.8994830780977"><ele>4.0</ele><time>2026-03-29T13:43:44Z</time></trkpt><trkpt lat="40.265396775712425" lon="17.899351259569052"><ele>4.0</ele><time>2026-03-29T13:43:45Z</time></trkpt><trkpt lat="40.26549880293532" lon="17.899240053373052"><ele>3.75</ele><time>2026-03-29T13:43:46Z</time></trkpt><trkpt lat="40.26558713730176" lon="17.899102124758382"><ele>3.5</ele><time>2026-03-29T13:43:47Z</time></trkpt><trkpt lat="40.26568530008569" lon="17.89896717011036"><ele>3.25</ele><time>2026-03-29T13:43:48Z</time></trkpt><trkpt lat="40.26578593489238" lon="17.898867290344878"><ele>3.0</ele><time>2026-03-29T13:43:49Z</time></trkpt><trkpt lat="40.26585965028421" lon="17.89875927674154"><ele>2.75</ele><time>2026-03-29T13:43:50Z</time></trkpt><trkpt lat="40.26592427237668" lon="17.89865147970015"><ele>2.5</ele><time>2026-03-29T13:43:51Z</time></trkpt><trkpt lat="40.266003869769364" lon="17.89854826441127"><ele>2.25</ele><time>2026-03-29T13:43:52Z</time></trkpt><trkpt lat="40.26608618554888" lon="17.89842967871911"><ele>2.0</ele><time>2026-03-29T13:43:53Z</time></trkpt><trkpt lat="40.26615905656883" lon="17.898309882157413"><ele>2.0</ele><time>2026-03-29T13:43:54Z</time></trkpt><trkpt lat="40.2662475423999" lon="17.898195147201406"><ele>2.0</ele><time>2026-03-29T13:43:55Z</time></trkpt><trkpt lat="40.266337788732834" lon="17.898074350784437"><ele>2.0</ele><time>2026-03-29T13:43:56Z</time></trkpt><trkpt lat="40.26642985451625" lon="17.897952295319136"><ele>2.0</ele><time>2026-03-29T13:43:57Z</time></trkpt><trkpt lat="40.26651359386617" lon="17.897835167584486"><ele>2.6</ele><time>2026-03-29T13:43:58Z</time></trkpt><trkpt lat="40.26658618954414" lon="17.897732794661838"><ele>3.2</ele><time>2026-03-29T13:43:59Z</time></trkpt><trkpt lat="40.266665007751506" lon="17.897630193063325"><ele>3.8</ele><time>2026-03-29T13:44:00Z</time></trkpt><trkpt lat="40.266742148473135" lon="17.897530239529075"><ele>4.4</ele><time>2026-03-29T13:44:01Z</time></trkpt><trkpt lat="40.26681936170509" lon="17.897426947884654"><ele>5.0</ele><time>2026-03-29T13:44:02Z</time></trkpt><trkpt lat="40.26689658802621" lon="17.897304468803686"><ele>5.0</ele><time>2026-03-29T13:44:03Z</time></trkpt><trkpt lat="40.2669654217246" lon="17.897200433199213"><ele>5.0</ele><time>2026-03-29T13:44:04Z</time></trkpt><trkpt lat="40.26702203965602" lon="17.897114800133174"><ele>5.0</ele><time>2026-03-29T13:44:05Z</time></trkpt><trkpt lat="40.26707806003994" lon="17.89706155926727"><ele>5.0</ele><time>2026-03-29T13:44:06Z</time></trkpt><trkpt lat="40.2671492561959" lon="17.896947643547403"><ele>5.0</ele><time>2026-03-29T13:44:08Z</time></trkpt><trkpt lat="40.267215814117314" lon="17.896904325107492"><ele>5.0</ele><time>2026-03-29T13:44:10Z</time></trkpt><trkpt lat="40.26728906264412" lon="17.896901159956933"><ele>5.0</ele><time>2026-03-29T13:44:13Z</time></trkpt><trkpt lat="40.2673680836314" lon="17.89688054644828"><ele>5.0</ele><time>2026-03-29T13:44:38Z</time></trkpt><trkpt lat="40.267478657264135" lon="17.896872408928402"><ele>5.0</ele><time>2026-03-29T13:44:40Z</time></trkpt><trkpt lat="40.2675916893975" lon="17.896945064094897"><ele>5.0</ele><time>2026-03-29T13:44:41Z</time></trkpt><trkpt lat="40.2677295664234" lon="17.897064746447864"><ele>5.0</ele><time>2026-03-29T13:44:42Z</time></trkpt><trkpt lat="40.267916243830776" lon="17.897204166128315"><ele>5.0</ele><time>2026-03-29T13:44:43Z</time></trkpt><trkpt lat="40.26810937689589" lon="17.897382123412704"><ele>7.0</ele><time>2026-03-29T13:44:44Z</time></trkpt><trkpt lat="40.268291266551486" lon="17.897551636807655"><ele>9.0</ele><time>2026-03-29T13:44:45Z</time></trkpt><trkpt lat="40.26853508372123" lon="17.897704159059668"><ele>9.0</ele><time>2026-03-29T13:44:46Z</time></trkpt><trkpt lat="40.26875565405454" lon="17.89779250542343"><ele>9.0</ele><time>2026-03-29T13:44:47Z</time></trkpt><trkpt lat="40.26902271876785" lon="17.89797595419181"><ele>9.666666666666666</ele><time>2026-03-29T13:44:48Z</time></trkpt><trkpt lat="40.26924271551484" lon="17.898134138641588"><ele>10.333333333333332</ele><time>2026-03-29T13:44:49Z</time></trkpt><trkpt lat="40.26940255159091" lon="17.898267607973043"><ele>11.0</ele><time>2026-03-29T13:44:50Z</time></trkpt><trkpt lat="40.26956397060501" lon="17.898362171897514"><ele>11.0</ele><time>2026-03-29T13:44:51Z</time></trkpt><trkpt lat="40.269730483802434" lon="17.89851913929192"><ele>11.0</ele><time>2026-03-29T13:44:52Z</time></trkpt><trkpt lat="40.26994064669838" lon="17.898646577360687"><ele>11.0</ele><time>2026-03-29T13:44:53Z</time></trkpt><trkpt lat="40.27015163206326" lon="17.898797400552063"><ele>11.0</ele><time>2026-03-29T13:44:54Z</time></trkpt><trkpt lat="40.270382510027154" lon="17.898961717475615"><ele>11.0</ele><time>2026-03-29T13:44:55Z</time></trkpt><trkpt lat="40.27062710913463" lon="17.89913288467353"><ele>12.5</ele><time>2026-03-29T13:44:56Z</time></trkpt><trkpt lat="40.270889802489144" lon="17.89932253738531"><ele>14.0</ele><time>2026-03-29T13:44:57Z</time></trkpt><trkpt lat="40.27117206525883" lon="17.89952159413946"><ele>16.0</ele><time>2026-03-29T13:44:58Z</time></trkpt><trkpt lat="40.27147057820534" lon="17.899738931921423"><ele>18.0</ele><time>2026-03-29T13:44:59Z</time></trkpt><trkpt lat="40.27178553909352" lon="17.89995878160108"><ele>18.5</ele><time>2026-03-29T13:45:00Z</time></trkpt><trkpt lat="40.272059712855814" lon="17.900153625222618"><ele>19.0</ele><time>2026-03-29T13:45:01Z</time></trkpt><trkpt lat="40.27229910016486" lon="17.90030929077327"><ele>19.0</ele><time>2026-03-29T13:45:02Z</time></trkpt><trkpt lat="40.27249839040167" lon="17.900472509961617"><ele>19.0</ele><time>2026-03-29T13:45:03Z</time></trkpt><trkpt lat="40.272668293639384" lon="17.900593744087345"><ele>19.0</ele><time>2026-03-29T13:45:04Z</time></trkpt><trkpt lat="40.27281116668254" lon="17.900684773734277"><ele>19.0</ele><time>2026-03-29T13:45:05Z</time></trkpt><trkpt lat="40.27294131276211" lon="17.90080216568775"><ele>19.0</ele><time>2026-03-29T13:45:06Z</time></trkpt><trkpt lat="40.27305319574078" lon="17.900872016585577"><ele>19.0</ele><time>2026-03-29T13:45:07Z</time></trkpt><trkpt lat="40.27313621518477" lon="17.900963575138764"><ele>19.0</ele><time>2026-03-29T13:45:08Z</time></trkpt><trkpt lat="40.27318638827653" lon="17.90108606510743"><ele>19.799999999999997</ele><time>2026-03-29T13:45:09Z</time></trkpt><trkpt lat="40.27321684387844" lon="17.901235030928483"><ele>20.599999999999998</ele><time>2026-03-29T13:45:10Z</time></trkpt><trkpt lat="40.27327228509721" lon="17.901332333823984"><ele>21.4</ele><time>2026-03-29T13:45:11Z</time></trkpt><trkpt lat="40.27332324577163" lon="17.901415278039938"><ele>22.2</ele><time>2026-03-29T13:45:12Z</time></trkpt><trkpt lat="40.273398600726125" lon="17.901464762794"><ele>23.0</ele><time>2026-03-29T13:45:13Z</time></trkpt><trkpt lat="40.27349765630745" lon="17.90147259147936"><ele>23.0</ele><time>2026-03-29T13:45:14Z</time></trkpt><trkpt lat="40.27357904938327" lon="17.901427311231227"><ele>23.0</ele><time>2026-03-29T13:45:15Z</time></trkpt><trkpt lat="40.27364978401872" lon="17.901320739642962"><ele>23.0</ele><time>2026-03-29T13:45:16Z</time></trkpt><trkpt lat="40.27368332553686" lon="17.90116337087627"><ele>23.0</ele><time>2026-03-29T13:45:17Z</time></trkpt><trkpt lat="40.273681650849035" lon="17.9010210819629"><ele>23.0</ele><time>2026-03-29T13:45:18Z</time></trkpt><trkpt lat="40.27365686359197" lon="17.900851345958134"><ele>22.75</ele><time>2026-03-29T13:45:19Z</time></trkpt><trkpt lat="40.2736578325304" lon="17.900664952074234"><ele>22.5</ele><time>2026-03-29T13:45:20Z</time></trkpt><trkpt lat="40.273702380430244" lon="17.900489983018055"><ele>22.25</ele><time>2026-03-29T13:45:21Z</time></trkpt><trkpt lat="40.27383130337787" lon="17.900357375311255"><ele>22.0</ele><time>2026-03-29T13:45:22Z</time></trkpt><trkpt lat="40.27394354696885" lon="17.900171883684727"><ele>22.5</ele><time>2026-03-29T13:45:23Z</time></trkpt><trkpt lat="40.2740886552632" lon="17.89993208103059"><ele>23.0</ele><time>2026-03-29T13:45:24Z</time></trkpt><trkpt lat="40.27424794613219" lon="17.899668840301672"><ele>23.0</ele><time>2026-03-29T13:45:25Z</time></trkpt><trkpt lat="40.27441679359485" lon="17.899350893523817"><ele>23.0</ele><time>2026-03-29T13:45:26Z</time></trkpt><trkpt lat="40.27460072138815" lon="17.899047449442012"><ele>23.0</ele><time>2026-03-29T13:45:27Z</time></trkpt><trkpt lat="40.27480288590326" lon="17.898728542083322"><ele>23.0</ele><time>2026-03-29T13:45:28Z</time></trkpt><trkpt lat="40.27499723426383" lon="17.89839209935889"><ele>23.0</ele><time>2026-03-29T13:45:29Z</time></trkpt><trkpt lat="40.275202675368874" lon="17.898065993134026"><ele>23.0</ele><time>2026-03-29T13:45:30Z</time></trkpt><trkpt lat="40.27540652673939" lon="17.897729582314565"><ele>23.0</ele><time>2026-03-29T13:45:31Z</time></trkpt><trkpt lat="40.27560395359126" lon="17.89739466579344"><ele>23.0</ele><time>2026-03-29T13:45:32Z</time></trkpt><trkpt lat="40.275815707936175" lon="17.897066603080024"><ele>23.0</ele><time>2026-03-29T13:45:33Z</time></trkpt><trkpt lat="40.276051601829074" lon="17.896764862346092"><ele>23.0</ele><time>2026-03-29T13:45:34Z</time></trkpt><trkpt lat="40.2761971200717" lon="17.896402451333312"><ele>22.5</ele><time>2026-03-29T13:45:35Z</time></trkpt><trkpt lat="40.27638093100975" lon="17.89612633242977"><ele>22.0</ele><time>2026-03-29T13:45:36Z</time></trkpt><trkpt lat="40.276566243653456" lon="17.895819196536813"><ele>23.5</ele><time>2026-03-29T13:45:37Z</time></trkpt><trkpt lat="40.2767780206346" lon="17.895447041181434"><ele>25.0</ele><time>2026-03-29T13:45:38Z</time></trkpt><trkpt lat="40.276974893060945" lon="17.89511555163348"><ele>25.0</ele><time>2026-03-29T13:45:39Z</time></trkpt><trkpt lat="40.2771857816982" lon="17.89477139619375"><ele>25.0</ele><time>2026-03-29T13:45:40Z</time></trkpt><trkpt lat="40.27739555110502" lon="17.89441960012175"><ele>24.5</ele><time>2026-03-29T13:45:41Z</time></trkpt><trkpt lat="40.27760586515904" lon="17.89406479581601"><ele>24.0</ele><time>2026-03-29T13:45:42Z</time></trkpt><trkpt lat="40.27784496944146" lon="17.893699845387832"><ele>23.5</ele><time>2026-03-29T13:45:43Z</time></trkpt><trkpt lat="40.27806596290018" lon="17.893301238929332"><ele>23.0</ele><time>2026-03-29T13:45:44Z</time></trkpt><trkpt lat="40.278307325829616" lon="17.892900314375478"><ele>24.0</ele><time>2026-03-29T13:45:45Z</time></trkpt><trkpt lat="40.27853978440781" lon="17.892515074743887"><ele>25.0</ele><time>2026-03-29T13:45:46Z</time></trkpt><trkpt lat="40.27878511724735" lon="17.89213740321967"><ele>24.5</ele><time>2026-03-29T13:45:47Z</time></trkpt><trkpt lat="40.278998960265206" lon="17.89175130688119"><ele>24.0</ele><time>2026-03-29T13:45:48Z</time></trkpt><trkpt lat="40.2792189633506" lon="17.891396236988484"><ele>24.0</ele><time>2026-03-29T13:45:49Z</time></trkpt><trkpt lat="40.27941758641412" lon="17.891067015761283"><ele>24.0</ele><time>2026-03-29T13:45:50Z</time></trkpt><trkpt lat="40.2796155739459" lon="17.890736016107365"><ele>24.0</ele><time>2026-03-29T13:45:51Z</time></trkpt><trkpt lat="40.27982425415393" lon="17.890386312413916"><ele>24.0</ele><time>2026-03-29T13:45:52Z</time></trkpt><trkpt lat="40.280040426917544" lon="17.89002606372826"><ele>24.0</ele><time>2026-03-29T13:45:53Z</time></trkpt><trkpt lat="40.280265175309005" lon="17.889658286198884"><ele>24.0</ele><time>2026-03-29T13:45:54Z</time></trkpt><trkpt lat="40.28048985530239" lon="17.88927719582829"><ele>25.0</ele><time>2026-03-29T13:45:55Z</time></trkpt><trkpt lat="40.28072418516611" lon="17.88888724514362"><ele>26.0</ele><time>2026-03-29T13:45:56Z</time></trkpt><trkpt lat="40.28097141425446" lon="17.88847914592824"><ele>27.5</ele><time>2026-03-29T13:45:57Z</time></trkpt><trkpt lat="40.28121661740048" lon="17.88807948553225"><ele>29.0</ele><time>2026-03-29T13:45:58Z</time></trkpt><trkpt lat="40.2814471204266" lon="17.8876974191362"><ele>29.0</ele><time>2026-03-29T13:45:59Z</time></trkpt><trkpt lat="40.28168039150649" lon="17.88730058918103"><ele>29.0</ele><time>2026-03-29T13:46:00Z</time></trkpt><trkpt lat="40.28192263882151" lon="17.886895412616475"><ele>29.0</ele><time>2026-03-29T13:46:01Z</time></trkpt><trkpt lat="40.282164714474" lon="17.88649488145537"><ele>29.0</ele><time>2026-03-29T13:46:02Z</time></trkpt><trkpt lat="40.28240608803807" lon="17.886096203196796"><ele>28.0</ele><time>2026-03-29T13:46:03Z</time></trkpt><trkpt lat="40.282641752615845" lon="17.88570463128162"><ele>27.0</ele><time>2026-03-29T13:46:04Z</time></trkpt><trkpt lat="40.28287449661468" lon="17.885313996582823"><ele>28.0</ele><time>2026-03-29T13:46:05Z</time></trkpt><trkpt lat="40.28309784203773" lon="17.884942552169598"><ele>29.0</ele><time>2026-03-29T13:46:06Z</time></trkpt><trkpt lat="40.28331533025235" lon="17.884592498851124"><ele>29.0</ele><time>2026-03-29T13:46:07Z</time></trkpt><trkpt lat="40.283524619405945" lon="17.884241553222846"><ele>29.0</ele><time>2026-03-29T13:46:08Z</time></trkpt><trkpt lat="40.283723315841904" lon="17.883898260837206"><ele>29.0</ele><time>2026-03-29T13:46:09Z</time></trkpt><trkpt lat="40.28393726944397" lon="17.883577416737182"><ele>29.0</ele><time>2026-03-29T13:46:10Z</time></trkpt><trkpt lat="40.284137174048325" lon="17.883244862209736"><ele>29.0</ele><time>2026-03-29T13:46:11Z</time></trkpt><trkpt lat="40.284333998234864" lon="17.882917432408707"><ele>29.0</ele><time>2026-03-29T13:46:12Z</time></trkpt><trkpt lat="40.28453154478417" lon="17.882589052376762"><ele>29.5</ele><time>2026-03-29T13:46:13Z</time></trkpt><trkpt lat="40.2847185397987" lon="17.882252258126687"><ele>30.0</ele><time>2026-03-29T13:46:14Z</time></trkpt><trkpt lat="40.28494565524004" lon="17.881931032097842"><ele>30.0</ele><time>2026-03-29T13:46:15Z</time></trkpt><trkpt lat="40.28514575545127" lon="17.88156798959893"><ele>30.0</ele><time>2026-03-29T13:46:16Z</time></trkpt><trkpt lat="40.285358464769715" lon="17.8812143818269"><ele>30.5</ele><time>2026-03-29T13:46:17Z</time></trkpt><trkpt lat="40.28556696012322" lon="17.880865727680042"><ele>31.0</ele><time>2026-03-29T13:46:18Z</time></trkpt><trkpt lat="40.28576729963833" lon="17.88052749475321"><ele>31.0</ele><time>2026-03-29T13:46:19Z</time></trkpt><trkpt lat="40.285964217102126" lon="17.880195039143672"><ele>31.0</ele><time>2026-03-29T13:46:20Z</time></trkpt><trkpt lat="40.28615814894342" lon="17.879874019820654"><ele>30.0</ele><time>2026-03-29T13:46:21Z</time></trkpt><trkpt lat="40.286352197196926" lon="17.879554067642854"><ele>29.0</ele><time>2026-03-29T13:46:22Z</time></trkpt><trkpt lat="40.28654039405727" lon="17.879241554804594"><ele>29.0</ele><time>2026-03-29T13:46:23Z</time></trkpt><trkpt lat="40.286704306721084" lon="17.878906173562186"><ele>29.0</ele><time>2026-03-29T13:46:24Z</time></trkpt><trkpt lat="40.28688804139765" lon="17.878606848690964"><ele>29.5</ele><time>2026-03-29T13:46:25Z</time></trkpt><trkpt lat="40.28706791028751" lon="17.87829844794225"><ele>30.0</ele><time>2026-03-29T13:46:26Z</time></trkpt><trkpt lat="40.28722827509326" lon="17.87799251186419"><ele>30.0</ele><time>2026-03-29T13:46:27Z</time></trkpt><trkpt lat="40.28735996960105" lon="17.877660358092246"><ele>30.0</ele><time>2026-03-29T13:46:28Z</time></trkpt><trkpt lat="40.287480847809455" lon="17.87730435074544"><ele>30.0</ele><time>2026-03-29T13:46:29Z</time></trkpt><trkpt lat="40.287603874051364" lon="17.876937478973648"><ele>30.0</ele><time>2026-03-29T13:46:30Z</time></trkpt><trkpt lat="40.287730498533236" lon="17.876568713661435"><ele>29.5</ele><time>2026-03-29T13:46:31Z</time></trkpt><trkpt lat="40.28785629147977" lon="17.876204505195677"><ele>29.0</ele><time>2026-03-29T13:46:32Z</time></trkpt><trkpt lat="40.28797405373842" lon="17.875897973301004"><ele>29.0</ele><time>2026-03-29T13:46:33Z</time></trkpt><trkpt lat="40.288082646212565" lon="17.87559536366719"><ele>29.0</ele><time>2026-03-29T13:46:34Z</time></trkpt><trkpt lat="40.28818391378005" lon="17.8753046548271"><ele>28.0</ele><time>2026-03-29T13:46:35Z</time></trkpt><trkpt lat="40.28828343095681" lon="17.87503846311047"><ele>27.0</ele><time>2026-03-29T13:46:36Z</time></trkpt><trkpt lat="40.28837495333463" lon="17.874784301010315"><ele>26.0</ele><time>2026-03-29T13:46:37Z</time></trkpt><trkpt lat="40.28846217386603" lon="17.874533650346578"><ele>26.0</ele><time>2026-03-29T13:46:38Z</time></trkpt><trkpt lat="40.288552957016556" lon="17.87428735690837"><ele>26.0</ele><time>2026-03-29T13:46:39Z</time></trkpt><trkpt lat="40.28863690440199" lon="17.874047642615594"><ele>26.0</ele><time>2026-03-29T13:46:40Z</time></trkpt><trkpt lat="40.288726953937676" lon="17.873846273570035"><ele>25.75</ele><time>2026-03-29T13:46:41Z</time></trkpt><trkpt lat="40.28878068249725" lon="17.873642111219677"><ele>25.5</ele><time>2026-03-29T13:46:42Z</time></trkpt><trkpt lat="40.288836506643406" lon="17.873479690667683"><ele>25.25</ele><time>2026-03-29T13:46:43Z</time></trkpt><trkpt lat="40.28886810146524" lon="17.87336135110979"><ele>25.0</ele><time>2026-03-29T13:46:44.001Z</time></trkpt><trkpt lat="40.288959248708295" lon="17.873337012828706"><ele>24.4</ele><time>2026-03-29T13:46:45.001Z</time></trkpt><trkpt lat="40.28904833032749" lon="17.87331549893751"><ele>23.8</ele><time>2026-03-29T13:46:46.001Z</time></trkpt><trkpt lat="40.28914179843645" lon="17.8732821439653"><ele>23.200000000000003</ele><time>2026-03-29T13:46:47.001Z</time></trkpt><trkpt lat="40.28922387862043" lon="17.873231637065846"><ele>22.6</ele><time>2026-03-29T13:46:48.001Z</time></trkpt><trkpt lat="40.2893077687387" lon="17.87316353594189"><ele>22.0</ele><time>2026-03-29T13:46:49.001Z</time></trkpt><trkpt lat="40.289363164255704" lon="17.873049381433347"><ele>22.0</ele><time>2026-03-29T13:46:50.001Z</time></trkpt><trkpt lat="40.28939678477855" lon="17.872917036619462"><ele>22.0</ele><time>2026-03-29T13:46:51.001Z</time></trkpt><trkpt lat="40.28937972369813" lon="17.872746764416807"><ele>22.0</ele><time>2026-03-29T13:46:52.001Z</time></trkpt><trkpt lat="40.2893162236421" lon="17.872563116852135"><ele>22.0</ele><time>2026-03-29T13:46:53.001Z</time></trkpt><trkpt lat="40.28926305908326" lon="17.872406321407624"><ele>22.0</ele><time>2026-03-29T13:46:54.001Z</time></trkpt><trkpt lat="40.28925591898848" lon="17.87226835397055"><ele>22.0</ele><time>2026-03-29T13:46:55.001Z</time></trkpt><trkpt lat="40.28928975728448" lon="17.872138322205817"><ele>22.0</ele><time>2026-03-29T13:46:56.001Z</time></trkpt><trkpt lat="40.28935592405829" lon="17.871976450070157"><ele>22.0</ele><time>2026-03-29T13:46:57.001Z</time></trkpt><trkpt lat="40.28943321009801" lon="17.871793920189152"><ele>21.666666666666664</ele><time>2026-03-29T13:46:58.001Z</time></trkpt><trkpt lat="40.28951341855872" lon="17.871602389915637"><ele>21.333333333333332</ele><time>2026-03-29T13:46:59.001Z</time></trkpt><trkpt lat="40.2896055019828" lon="17.87129724736451"><ele>21.0</ele><time>2026-03-29T13:47:00.001Z</time></trkpt><trkpt lat="40.28972635185617" lon="17.870996927771106"><ele>21.0</ele><time>2026-03-29T13:47:01.001Z</time></trkpt><trkpt lat="40.28983898290376" lon="17.870675141361133"><ele>21.0</ele><time>2026-03-29T13:47:02.001Z</time></trkpt><trkpt lat="40.28995391721927" lon="17.870338267433198"><ele>20.5</ele><time>2026-03-29T13:47:03.001Z</time></trkpt><trkpt lat="40.29008064105075" lon="17.8699807929568"><ele>20.0</ele><time>2026-03-29T13:47:04.001Z</time></trkpt><trkpt lat="40.29020954089203" lon="17.869630982952387"><ele>21.0</ele><time>2026-03-29T13:47:05.001Z</time></trkpt><trkpt lat="40.29033192576354" lon="17.869272372329835"><ele>22.0</ele><time>2026-03-29T13:47:06.001Z</time></trkpt><trkpt lat="40.290440639146986" lon="17.86893617507964"><ele>22.0</ele><time>2026-03-29T13:47:07.001Z</time></trkpt><trkpt lat="40.29056937579976" lon="17.86858499621923"><ele>22.0</ele><time>2026-03-29T13:47:08.001Z</time></trkpt><trkpt lat="40.29072474353484" lon="17.86823934660674"><ele>21.0</ele><time>2026-03-29T13:47:09Z</time></trkpt><trkpt lat="40.290809993589924" lon="17.867915079075114"><ele>20.0</ele><time>2026-03-29T13:47:10Z</time></trkpt><trkpt lat="40.29093218670644" lon="17.867583113458547"><ele>19.0</ele><time>2026-03-29T13:47:11Z</time></trkpt><trkpt lat="40.29106375277236" lon="17.867265743195297"><ele>18.0</ele><time>2026-03-29T13:47:12Z</time></trkpt><trkpt lat="40.291164545874" lon="17.86693453423339"><ele>18.5</ele><time>2026-03-29T13:47:13Z</time></trkpt><trkpt lat="40.291292248980426" lon="17.866627659986438"><ele>19.0</ele><time>2026-03-29T13:47:14Z</time></trkpt><trkpt lat="40.291388948672136" lon="17.866315673032176"><ele>19.5</ele><time>2026-03-29T13:47:15Z</time></trkpt><trkpt lat="40.29149106793762" lon="17.866021159674823"><ele>20.0</ele><time>2026-03-29T13:47:16Z</time></trkpt><trkpt lat="40.29160132271932" lon="17.865729344122308"><ele>21.0</ele><time>2026-03-29T13:47:17Z</time></trkpt><trkpt lat="40.29171656452709" lon="17.865432233411212"><ele>22.0</ele><time>2026-03-29T13:47:18Z</time></trkpt><trkpt lat="40.291839051855575" lon="17.86509132357724"><ele>22.0</ele><time>2026-03-29T13:47:19Z</time></trkpt><trkpt lat="40.29193334978047" lon="17.864789241888676"><ele>22.0</ele><time>2026-03-29T13:47:20Z</time></trkpt><trkpt lat="40.292035612070435" lon="17.86453795206265"><ele>22.0</ele><time>2026-03-29T13:47:21Z</time></trkpt><trkpt lat="40.29211929880767" lon="17.864283106661865"><ele>22.0</ele><time>2026-03-29T13:47:22Z</time></trkpt><trkpt lat="40.29223668559064" lon="17.864028410275182"><ele>22.0</ele><time>2026-03-29T13:47:23Z</time></trkpt><trkpt lat="40.29230664159004" lon="17.863791635666818"><ele>21.666666666666664</ele><time>2026-03-29T13:47:24Z</time></trkpt><trkpt lat="40.292392407718715" lon="17.86353736740072"><ele>21.333333333333332</ele><time>2026-03-29T13:47:25Z</time></trkpt><trkpt lat="40.292481712116384" lon="17.863295263172724"><ele>21.0</ele><time>2026-03-29T13:47:26Z</time></trkpt><trkpt lat="40.29256709571898" lon="17.863055152259253"><ele>21.0</ele><time>2026-03-29T13:47:27Z</time></trkpt><trkpt lat="40.29264561446513" lon="17.86281205122178"><ele>21.0</ele><time>2026-03-29T13:47:28Z</time></trkpt><trkpt lat="40.29272789783673" lon="17.862577838666407"><ele>21.0</ele><time>2026-03-29T13:47:29Z</time></trkpt><trkpt lat="40.29280560599271" lon="17.862345693923416"><ele>21.0</ele><time>2026-03-29T13:47:30Z</time></trkpt><trkpt lat="40.29289178913544" lon="17.862115919770954"><ele>21.0</ele><time>2026-03-29T13:47:31Z</time></trkpt><trkpt lat="40.292976633723136" lon="17.8618901900661"><ele>21.0</ele><time>2026-03-29T13:47:32Z</time></trkpt><trkpt lat="40.293059249579784" lon="17.861663072168877"><ele>20.333333333333332</ele><time>2026-03-29T13:47:33Z</time></trkpt><trkpt lat="40.293132285890636" lon="17.86143792277584"><ele>19.666666666666664</ele><time>2026-03-29T13:47:34Z</time></trkpt><trkpt lat="40.293211054447525" lon="17.86121137888847"><ele>19.0</ele><time>2026-03-29T13:47:35Z</time></trkpt><trkpt lat="40.29328915970824" lon="17.860985334052845"><ele>18.666666666666664</ele><time>2026-03-29T13:47:36Z</time></trkpt><trkpt lat="40.29337473976608" lon="17.860747877988413"><ele>18.333333333333332</ele><time>2026-03-29T13:47:37Z</time></trkpt><trkpt lat="40.2934681871809" lon="17.860468417292314"><ele>18.0</ele><time>2026-03-29T13:47:38Z</time></trkpt><trkpt lat="40.29357735578358" lon="17.860159325526006"><ele>17.5</ele><time>2026-03-29T13:47:39Z</time></trkpt><trkpt lat="40.293695359999795" lon="17.85982676862216"><ele>17.0</ele><time>2026-03-29T13:47:40Z</time></trkpt><trkpt lat="40.29381256346452" lon="17.859493879198862"><ele>17.0</ele><time>2026-03-29T13:47:41Z</time></trkpt><trkpt lat="40.293909715843824" lon="17.859201767351607"><ele>17.0</ele><time>2026-03-29T13:47:42Z</time></trkpt><trkpt lat="40.29402023378359" lon="17.858937916828523"><ele>17.0</ele><time>2026-03-29T13:47:43Z</time></trkpt><trkpt lat="40.29411626263969" lon="17.858680210370572"><ele>17.0</ele><time>2026-03-29T13:47:44Z</time></trkpt><trkpt lat="40.29418770103798" lon="17.858458659568715"><ele>17.0</ele><time>2026-03-29T13:47:45Z</time></trkpt><trkpt lat="40.2942677887204" lon="17.858241810187177"><ele>17.0</ele><time>2026-03-29T13:47:46Z</time></trkpt><trkpt lat="40.29435059125267" lon="17.85803075529524"><ele>17.0</ele><time>2026-03-29T13:47:47Z</time></trkpt><trkpt lat="40.29442725927277" lon="17.857822529832827"><ele>17.0</ele><time>2026-03-29T13:47:48Z</time></trkpt><trkpt lat="40.29450345964986" lon="17.85760756983399"><ele>16.666666666666668</ele><time>2026-03-29T13:47:49Z</time></trkpt><trkpt lat="40.29456749444981" lon="17.857406641037905"><ele>16.333333333333332</ele><time>2026-03-29T13:47:50Z</time></trkpt><trkpt lat="40.29462962083078" lon="17.857219647342575"><ele>16.0</ele><time>2026-03-29T13:47:51Z</time></trkpt><trkpt lat="40.294688588666105" lon="17.85704947114366"><ele>16.0</ele><time>2026-03-29T13:47:52Z</time></trkpt><trkpt lat="40.294744560830146" lon="17.856893495866228"><ele>16.0</ele><time>2026-03-29T13:47:53Z</time></trkpt><trkpt lat="40.29479899124859" lon="17.856743812403586"><ele>16.0</ele><time>2026-03-29T13:47:54Z</time></trkpt><trkpt lat="40.29485534858181" lon="17.85658870214846"><ele>16.0</ele><time>2026-03-29T13:47:55Z</time></trkpt><trkpt lat="40.29490582594814" lon="17.856447562949267"><ele>16.5</ele><time>2026-03-29T13:47:56Z</time></trkpt><trkpt lat="40.294967157513625" lon="17.85629768339666"><ele>17.0</ele><time>2026-03-29T13:47:57Z</time></trkpt><trkpt lat="40.2950535803323" lon="17.85615198561515"><ele>17.5</ele><time>2026-03-29T13:47:58Z</time></trkpt><trkpt lat="40.29515067372108" lon="17.856007500959876"><ele>18.0</ele><time>2026-03-29T13:47:59Z</time></trkpt><trkpt lat="40.295278243135435" lon="17.855894471769844"><ele>18.0</ele><time>2026-03-29T13:48:00Z</time></trkpt><trkpt lat="40.29541064131916" lon="17.855788689445394"><ele>18.0</ele><time>2026-03-29T13:48:01Z</time></trkpt><trkpt lat="40.295588124064956" lon="17.855735866345604"><ele>18.0</ele><time>2026-03-29T13:48:02Z</time></trkpt><trkpt lat="40.29576048515224" lon="17.855696925719926"><ele>18.666666666666668</ele><time>2026-03-29T13:48:03Z</time></trkpt><trkpt lat="40.29592936931048" lon="17.855720123308917"><ele>19.333333333333336</ele><time>2026-03-29T13:48:04Z</time></trkpt><trkpt lat="40.296115314987794" lon="17.855765641318815"><ele>20.0</ele><time>2026-03-29T13:48:05Z</time></trkpt><trkpt lat="40.29629032142581" lon="17.85588521044666"><ele>20.5</ele><time>2026-03-29T13:48:06Z</time></trkpt><trkpt lat="40.296442671943865" lon="17.855973205849182"><ele>21.0</ele><time>2026-03-29T13:48:07Z</time></trkpt><trkpt lat="40.29657089632808" lon="17.856047112341567"><ele>21.5</ele><time>2026-03-29T13:48:08Z</time></trkpt><trkpt lat="40.29668342572121" lon="17.856137120746336"><ele>22.0</ele><time>2026-03-29T13:48:09Z</time></trkpt><trkpt lat="40.29680052734227" lon="17.85620903409966"><ele>22.0</ele><time>2026-03-29T13:48:10Z</time></trkpt><trkpt lat="40.29691757840173" lon="17.856242686900185"><ele>22.0</ele><time>2026-03-29T13:48:11Z</time></trkpt><trkpt lat="40.29704072281623" lon="17.856322190421036"><ele>22.0</ele><time>2026-03-29T13:48:12Z</time></trkpt><trkpt lat="40.29717683979068" lon="17.856415402702513"><ele>22.0</ele><time>2026-03-29T13:48:13Z</time></trkpt><trkpt lat="40.29730430668372" lon="17.856487397544676"><ele>21.666666666666664</ele><time>2026-03-29T13:48:14Z</time></trkpt><trkpt lat="40.29745517780072" lon="17.85661493835812"><ele>21.333333333333332</ele><time>2026-03-29T13:48:15Z</time></trkpt><trkpt lat="40.297630915033096" lon="17.85672342644121"><ele>21.0</ele><time>2026-03-29T13:48:16Z</time></trkpt><trkpt lat="40.29784263421508" lon="17.85685557680882"><ele>21.5</ele><time>2026-03-29T13:48:17Z</time></trkpt><trkpt lat="40.29809748022458" lon="17.85699095445048"><ele>22.0</ele><time>2026-03-29T13:48:18Z</time></trkpt><trkpt lat="40.298357342736274" lon="17.85715662183572"><ele>22.0</ele><time>2026-03-29T13:48:19Z</time></trkpt><trkpt lat="40.298640992467924" lon="17.85735299193475"><ele>22.0</ele><time>2026-03-29T13:48:20Z</time></trkpt><trkpt lat="40.298976092087834" lon="17.857558277787643"><ele>24.0</ele><time>2026-03-29T13:48:21Z</time></trkpt><trkpt lat="40.299316718294584" lon="17.85776623064789"><ele>26.0</ele><time>2026-03-29T13:48:22Z</time></trkpt><trkpt lat="40.299656444247546" lon="17.857973800080583"><ele>25.5</ele><time>2026-03-29T13:48:23Z</time></trkpt><trkpt lat="40.299926404238654" lon="17.858145528892475"><ele>25.0</ele><time>2026-03-29T13:48:24Z</time></trkpt><trkpt lat="40.30023363823031" lon="17.85831202533704"><ele>25.0</ele><time>2026-03-29T13:48:25Z</time></trkpt><trkpt lat="40.30051141576771" lon="17.858512128487636"><ele>25.0</ele><time>2026-03-29T13:48:26Z</time></trkpt><trkpt lat="40.30081262190421" lon="17.85866279526562"><ele>25.0</ele><time>2026-03-29T13:48:27Z</time></trkpt><trkpt lat="40.30107529938448" lon="17.858827605651864"><ele>25.0</ele><time>2026-03-29T13:48:28Z</time></trkpt><trkpt lat="40.301305966830725" lon="17.85897395156812"><ele>26.0</ele><time>2026-03-29T13:48:29Z</time></trkpt><trkpt lat="40.3015187138888" lon="17.859121330813437"><ele>27.0</ele><time>2026-03-29T13:48:30Z</time></trkpt><trkpt lat="40.30170960087075" lon="17.859239445793737"><ele>26.666666666666664</ele><time>2026-03-29T13:48:31Z</time></trkpt><trkpt lat="40.30189632308838" lon="17.859340055485102"><ele>26.333333333333332</ele><time>2026-03-29T13:48:32Z</time></trkpt><trkpt lat="40.30204684008171" lon="17.859454445335977"><ele>26.0</ele><time>2026-03-29T13:48:33Z</time></trkpt><trkpt lat="40.30218750193716" lon="17.85954121526393"><ele>26.25</ele><time>2026-03-29T13:48:34Z</time></trkpt><trkpt lat="40.302301282483164" lon="17.859653607703102"><ele>26.5</ele><time>2026-03-29T13:48:35Z</time></trkpt><trkpt lat="40.30238846132935" lon="17.8597705628727"><ele>26.75</ele><time>2026-03-29T13:48:36Z</time></trkpt><trkpt lat="40.30245470613767" lon="17.859902038397376"><ele>27.0</ele><time>2026-03-29T13:48:37Z</time></trkpt><trkpt lat="40.30250002771258" lon="17.860022518718303"><ele>27.0</ele><time>2026-03-29T13:48:38Z</time></trkpt><trkpt lat="40.302569099903025" lon="17.860090843949706"><ele>27.000000000000004</ele><time>2026-03-29T13:48:39Z</time></trkpt><trkpt lat="40.302648942977484" lon="17.86013773914983"><ele>27.000000000000004</ele><time>2026-03-29T13:48:40Z</time></trkpt><trkpt lat="40.30275761874818" lon="17.86009577112688"><ele>27.0</ele><time>2026-03-29T13:48:41Z</time></trkpt><trkpt lat="40.302822001294295" lon="17.860014944702638"><ele>27.0</ele><time>2026-03-29T13:48:42Z</time></trkpt><trkpt lat="40.30296747178462" lon="17.859965921523425"><ele>26.75</ele><time>2026-03-29T13:48:43Z</time></trkpt><trkpt lat="40.30310193210433" lon="17.859966366216554"><ele>26.5</ele><time>2026-03-29T13:48:44Z</time></trkpt><trkpt lat="40.30321985437873" lon="17.860068500962853"><ele>26.25</ele><time>2026-03-29T13:48:45Z</time></trkpt><trkpt lat="40.303361206031305" lon="17.86019116902097"><ele>26.0</ele><time>2026-03-29T13:48:46Z</time></trkpt><trkpt lat="40.30351709239942" lon="17.86034410706082"><ele>26.0</ele><time>2026-03-29T13:48:47Z</time></trkpt><trkpt lat="40.30371123668029" lon="17.86049140708752"><ele>26.0</ele><time>2026-03-29T13:48:48Z</time></trkpt><trkpt lat="40.303933630725346" lon="17.860652471145777"><ele>26.5</ele><time>2026-03-29T13:48:49Z</time></trkpt><trkpt lat="40.30419002606458" lon="17.86083921467522"><ele>27.0</ele><time>2026-03-29T13:48:50.001Z</time></trkpt><trkpt lat="40.30448890036607" lon="17.860957512659912"><ele>26.5</ele><time>2026-03-29T13:48:51.001Z</time></trkpt><trkpt lat="40.30478376557832" lon="17.861102196907467"><ele>26.0</ele><time>2026-03-29T13:48:52.001Z</time></trkpt><trkpt lat="40.30507672958333" lon="17.861309736585465"><ele>26.0</ele><time>2026-03-29T13:48:53.001Z</time></trkpt><trkpt lat="40.305394799337954" lon="17.861513094116358"><ele>26.0</ele><time>2026-03-29T13:48:54.001Z</time></trkpt><trkpt lat="40.305716686799165" lon="17.86171695024763"><ele>26.5</ele><time>2026-03-29T13:48:55.001Z</time></trkpt><trkpt lat="40.306046199128794" lon="17.86191977968054"><ele>27.0</ele><time>2026-03-29T13:48:56.001Z</time></trkpt><trkpt lat="40.30638369192217" lon="17.862124690376977"><ele>27.0</ele><time>2026-03-29T13:48:57.001Z</time></trkpt><trkpt lat="40.306713916443584" lon="17.862330808563247"><ele>27.0</ele><time>2026-03-29T13:48:58.001Z</time></trkpt><trkpt lat="40.307038684106104" lon="17.862547368806837"><ele>25.5</ele><time>2026-03-29T13:48:59.001Z</time></trkpt><trkpt lat="40.307360091886665" lon="17.86276859984579"><ele>24.0</ele><time>2026-03-29T13:49:00.001Z</time></trkpt><trkpt lat="40.30776115997562" lon="17.86295338870137"><ele>25.5</ele><time>2026-03-29T13:49:01.001Z</time></trkpt><trkpt lat="40.30810972063386" lon="17.863086177219202"><ele>27.0</ele><time>2026-03-29T13:49:02.001Z</time></trkpt><trkpt lat="40.30848179525045" lon="17.863189934019783"><ele>27.0</ele><time>2026-03-29T13:49:03.001Z</time></trkpt><trkpt lat="40.30886896590108" lon="17.86329388489442"><ele>27.0</ele><time>2026-03-29T13:49:04.001Z</time></trkpt><trkpt lat="40.30924948449518" lon="17.863357253945576"><ele>26.5</ele><time>2026-03-29T13:49:05.001Z</time></trkpt><trkpt lat="40.309640422932866" lon="17.86338724991956"><ele>26.0</ele><time>2026-03-29T13:49:06.001Z</time></trkpt><trkpt lat="40.31004183749432" lon="17.86339054245166"><ele>26.5</ele><time>2026-03-29T13:49:07.001Z</time></trkpt><trkpt lat="40.31044209553378" lon="17.863357936179657"><ele>27.0</ele><time>2026-03-29T13:49:08.001Z</time></trkpt><trkpt lat="40.31085147589927" lon="17.863292843972214"><ele>27.0</ele><time>2026-03-29T13:49:09.001Z</time></trkpt><trkpt lat="40.31125602944543" lon="17.86319932351607"><ele>27.0</ele><time>2026-03-29T13:49:10Z</time></trkpt><trkpt lat="40.311593959008974" lon="17.863080101336553"><ele>27.5</ele><time>2026-03-29T13:49:11Z</time></trkpt><trkpt lat="40.31187907107121" lon="17.862960831887822"><ele>28.0</ele><time>2026-03-29T13:49:12Z</time></trkpt><trkpt lat="40.31214150364399" lon="17.86285549907433"><ele>29.0</ele><time>2026-03-29T13:49:13Z</time></trkpt><trkpt lat="40.31237896940046" lon="17.86281597671377"><ele>30.0</ele><time>2026-03-29T13:49:14Z</time></trkpt><trkpt lat="40.31259803670868" lon="17.86274352165729"><ele>30.666666666666664</ele><time>2026-03-29T13:49:15Z</time></trkpt><trkpt lat="40.312719308917956" lon="17.862575933468076"><ele>31.333333333333332</ele><time>2026-03-29T13:49:16Z</time></trkpt><trkpt lat="40.31288648076252" lon="17.862489154172238"><ele>32.0</ele><time>2026-03-29T13:49:17Z</time></trkpt><trkpt lat="40.31304739199809" lon="17.862415883606392"><ele>32.666666666666664</ele><time>2026-03-29T13:49:18Z</time></trkpt><trkpt lat="40.313228827905526" lon="17.86234826764848"><ele>33.333333333333336</ele><time>2026-03-29T13:49:19Z</time></trkpt><trkpt lat="40.31345617571367" lon="17.862262010941404"><ele>34.0</ele><time>2026-03-29T13:49:20Z</time></trkpt><trkpt lat="40.313754296390464" lon="17.862126928257048"><ele>35.0</ele><time>2026-03-29T13:49:21Z</time></trkpt><trkpt lat="40.31404553250017" lon="17.86196485058933"><ele>36.0</ele><time>2026-03-29T13:49:22Z</time></trkpt><trkpt lat="40.31436749125608" lon="17.861813406627988"><ele>35.5</ele><time>2026-03-29T13:49:23Z</time></trkpt><trkpt lat="40.31469016755697" lon="17.86169221118752"><ele>35.0</ele><time>2026-03-29T13:49:24Z</time></trkpt><trkpt lat="40.31503548542007" lon="17.861547465283845"><ele>36.0</ele><time>2026-03-29T13:49:25Z</time></trkpt><trkpt lat="40.31539907491255" lon="17.861393611702205"><ele>37.0</ele><time>2026-03-29T13:49:26Z</time></trkpt><trkpt lat="40.31575774651018" lon="17.861256099016394"><ele>39.5</ele><time>2026-03-29T13:49:27Z</time></trkpt><trkpt lat="40.31611169084057" lon="17.861095990198226"><ele>42.0</ele><time>2026-03-29T13:49:28Z</time></trkpt><trkpt lat="40.31644039779305" lon="17.860927061573065"><ele>42.0</ele><time>2026-03-29T13:49:29Z</time></trkpt><trkpt lat="40.31673459609855" lon="17.860788694004533"><ele>42.0</ele><time>2026-03-29T13:49:30Z</time></trkpt><trkpt lat="40.317031142105094" lon="17.860650102544728"><ele>41.0</ele><time>2026-03-29T13:49:31Z</time></trkpt><trkpt lat="40.317311390447934" lon="17.860501986539937"><ele>40.0</ele><time>2026-03-29T13:49:32Z</time></trkpt><trkpt lat="40.317602516995635" lon="17.860325246538387"><ele>40.5</ele><time>2026-03-29T13:49:33Z</time></trkpt><trkpt lat="40.317896777114015" lon="17.86011344633647"><ele>41.0</ele><time>2026-03-29T13:49:34Z</time></trkpt><trkpt lat="40.31818225173934" lon="17.85987464022024"><ele>41.5</ele><time>2026-03-29T13:49:35Z</time></trkpt><trkpt lat="40.31847674912089" lon="17.85961241280073"><ele>42.0</ele><time>2026-03-29T13:49:36Z</time></trkpt><trkpt lat="40.31876623476207" lon="17.85935651929291"><ele>43.0</ele><time>2026-03-29T13:49:37Z</time></trkpt><trkpt lat="40.319070026940864" lon="17.859066887740457"><ele>44.0</ele><time>2026-03-29T13:49:38Z</time></trkpt><trkpt lat="40.31944644127232" lon="17.858778587410256"><ele>44.0</ele><time>2026-03-29T13:49:39Z</time></trkpt><trkpt lat="40.31980245981058" lon="17.85848619196162"><ele>44.0</ele><time>2026-03-29T13:49:40Z</time></trkpt><trkpt lat="40.320156408085886" lon="17.858163951176934"><ele>44.5</ele><time>2026-03-29T13:49:41Z</time></trkpt><trkpt lat="40.320534126072275" lon="17.857848691491693"><ele>45.0</ele><time>2026-03-29T13:49:42Z</time></trkpt><trkpt lat="40.3209249357328" lon="17.857529257528437"><ele>46.0</ele><time>2026-03-29T13:49:43Z</time></trkpt><trkpt lat="40.32131558216" lon="17.85720690110701"><ele>45.0</ele><time>2026-03-29T13:49:44Z</time></trkpt><trkpt lat="40.321705329186834" lon="17.85687708986841"><ele>45.0</ele><time>2026-03-29T13:49:45Z</time></trkpt><trkpt lat="40.322097611347814" lon="17.856546417169376"><ele>45.5</ele><time>2026-03-29T13:49:46Z</time></trkpt><trkpt lat="40.32246532818095" lon="17.85624483387681"><ele>46.0</ele><time>2026-03-29T13:49:47Z</time></trkpt><trkpt lat="40.32278268079527" lon="17.8559719298667"><ele>46.5</ele><time>2026-03-29T13:49:48Z</time></trkpt><trkpt lat="40.323091873690046" lon="17.855719877472826"><ele>47.0</ele><time>2026-03-29T13:49:49Z</time></trkpt><trkpt lat="40.32340101804033" lon="17.855440534101625"><ele>47.0</ele><time>2026-03-29T13:49:50Z</time></trkpt><trkpt lat="40.32372282327135" lon="17.85517825607907"><ele>47.0</ele><time>2026-03-29T13:49:51Z</time></trkpt><trkpt lat="40.32401448873882" lon="17.85496925942779"><ele>47.5</ele><time>2026-03-29T13:49:52Z</time></trkpt><trkpt lat="40.32427464692623" lon="17.85472911811671"><ele>48.0</ele><time>2026-03-29T13:49:53Z</time></trkpt><trkpt lat="40.32454161802223" lon="17.854509290083723"><ele>49.5</ele><time>2026-03-29T13:49:54Z</time></trkpt><trkpt lat="40.32477873049342" lon="17.854305193083913"><ele>51.0</ele><time>2026-03-29T13:49:55Z</time></trkpt><trkpt lat="40.32500132815904" lon="17.85410345640578"><ele>51.0</ele><time>2026-03-29T13:49:56Z</time></trkpt><trkpt lat="40.32520929945305" lon="17.85392482896187"><ele>51.0</ele><time>2026-03-29T13:49:57Z</time></trkpt><trkpt lat="40.32540944964425" lon="17.853784229147262"><ele>52.0</ele><time>2026-03-29T13:49:58Z</time></trkpt><trkpt lat="40.32560669088331" lon="17.853672567029783"><ele>53.0</ele><time>2026-03-29T13:49:59Z</time></trkpt><trkpt lat="40.32581606098666" lon="17.85359192740866"><ele>54.0</ele><time>2026-03-29T13:50:00Z</time></trkpt><trkpt lat="40.32601888372512" lon="17.853510290026293"><ele>54.0</ele><time>2026-03-29T13:50:01Z</time></trkpt><trkpt lat="40.32623543371843" lon="17.853471403537824"><ele>54.0</ele><time>2026-03-29T13:50:02Z</time></trkpt><trkpt lat="40.326447172872186" lon="17.853429719872615"><ele>54.0</ele><time>2026-03-29T13:50:03Z</time></trkpt><trkpt lat="40.326651108464844" lon="17.853387211730432"><ele>54.33333333333333</ele><time>2026-03-29T13:50:04Z</time></trkpt><trkpt lat="40.326857833689516" lon="17.85334398291797"><ele>54.666666666666664</ele><time>2026-03-29T13:50:05Z</time></trkpt><trkpt lat="40.32707157905842" lon="17.853301626070376"><ele>55.0</ele><time>2026-03-29T13:50:06Z</time></trkpt><trkpt lat="40.327291706037926" lon="17.85325493570562"><ele>55.666666666666664</ele><time>2026-03-29T13:50:07Z</time></trkpt><trkpt lat="40.32751019989161" lon="17.853215549187443"><ele>56.33333333333333</ele><time>2026-03-29T13:50:08Z</time></trkpt><trkpt lat="40.327710441647845" lon="17.853174861930903"><ele>57.0</ele><time>2026-03-29T13:50:09Z</time></trkpt><trkpt lat="40.32790177980668" lon="17.85313688958721"><ele>56.66666666666667</ele><time>2026-03-29T13:50:10Z</time></trkpt><trkpt lat="40.32808680517565" lon="17.85309725683037"><ele>56.333333333333336</ele><time>2026-03-29T13:50:11Z</time></trkpt><trkpt lat="40.32826134074277" lon="17.85305978538534"><ele>56.0</ele><time>2026-03-29T13:50:12Z</time></trkpt><trkpt lat="40.32844038822261" lon="17.853022318957333"><ele>56.0</ele><time>2026-03-29T13:50:13Z</time></trkpt><trkpt lat="40.32861146358422" lon="17.852989549658105"><ele>56.0</ele><time>2026-03-29T13:50:14Z</time></trkpt><trkpt lat="40.32878280089568" lon="17.852954063991312"><ele>56.0</ele><time>2026-03-29T13:50:15Z</time></trkpt><trkpt lat="40.328957086944655" lon="17.85291589445032"><ele>55.66666666666667</ele><time>2026-03-29T13:50:16Z</time></trkpt><trkpt lat="40.32914509378335" lon="17.852893647141297"><ele>55.33333333333333</ele><time>2026-03-29T13:50:17Z</time></trkpt><trkpt lat="40.32932226654819" lon="17.85283817861884"><ele>55.0</ele><time>2026-03-29T13:50:18Z</time></trkpt><trkpt lat="40.329497849084" lon="17.852792064343934"><ele>55.0</ele><time>2026-03-29T13:50:19Z</time></trkpt><trkpt lat="40.32967508181593" lon="17.852747439319412"><ele>55.0</ele><time>2026-03-29T13:50:20Z</time></trkpt><trkpt lat="40.329886677295434" lon="17.852670780118693"><ele>55.0</ele><time>2026-03-29T13:50:21Z</time></trkpt><trkpt lat="40.33010118951186" lon="17.852588736755546"><ele>54.666666666666664</ele><time>2026-03-29T13:50:22Z</time></trkpt><trkpt lat="40.33031390858209" lon="17.85250877137832"><ele>54.33333333333333</ele><time>2026-03-29T13:50:23Z</time></trkpt><trkpt lat="40.330519556990296" lon="17.852434446831072"><ele>54.0</ele><time>2026-03-29T13:50:24Z</time></trkpt><trkpt lat="40.33072686766655" lon="17.85235905260846"><ele>53.66666666666667</ele><time>2026-03-29T13:50:25Z</time></trkpt><trkpt lat="40.33093297035166" lon="17.85228392713025"><ele>53.333333333333336</ele><time>2026-03-29T13:50:26Z</time></trkpt><trkpt lat="40.3311314777982" lon="17.852187430144326"><ele>53.0</ele><time>2026-03-29T13:50:27Z</time></trkpt><trkpt lat="40.33133959231661" lon="17.852111985719834"><ele>53.0</ele><time>2026-03-29T13:50:28Z</time></trkpt><trkpt lat="40.33154324429637" lon="17.852036415381743"><ele>53.0</ele><time>2026-03-29T13:50:29Z</time></trkpt><trkpt lat="40.331747865577896" lon="17.851982503495346"><ele>53.0</ele><time>2026-03-29T13:50:30Z</time></trkpt><trkpt lat="40.33194691687873" lon="17.851886063102853"><ele>53.0</ele><time>2026-03-29T13:50:31Z</time></trkpt><trkpt lat="40.332144329671245" lon="17.8518150779869"><ele>53.0</ele><time>2026-03-29T13:50:32Z</time></trkpt><trkpt lat="40.33233572026186" lon="17.851743836631886"><ele>53.0</ele><time>2026-03-29T13:50:33Z</time></trkpt><trkpt lat="40.33252078513357" lon="17.851675637234948"><ele>53.0</ele><time>2026-03-29T13:50:34Z</time></trkpt><trkpt lat="40.332707979748584" lon="17.851605692249013"><ele>53.0</ele><time>2026-03-29T13:50:35Z</time></trkpt><trkpt lat="40.33289680563359" lon="17.851534796923"><ele>53.0</ele><time>2026-03-29T13:50:36Z</time></trkpt><trkpt lat="40.3330885463815" lon="17.851464896907903"><ele>53.0</ele><time>2026-03-29T13:50:37Z</time></trkpt><trkpt lat="40.33327872402148" lon="17.851398889685644"><ele>53.0</ele><time>2026-03-29T13:50:38Z</time></trkpt><trkpt lat="40.333476595647724" lon="17.851322401592"><ele>53.0</ele><time>2026-03-29T13:50:39Z</time></trkpt><trkpt lat="40.33366798796568" lon="17.85125207574369"><ele>53.0</ele><time>2026-03-29T13:50:40Z</time></trkpt><trkpt lat="40.33386943993568" lon="17.851182653080613"><ele>53.0</ele><time>2026-03-29T13:50:41Z</time></trkpt><trkpt lat="40.33407022482409" lon="17.85110883676542"><ele>53.0</ele><time>2026-03-29T13:50:42Z</time></trkpt><trkpt lat="40.33427813221674" lon="17.85103341490255"><ele>52.66666666666667</ele><time>2026-03-29T13:50:43Z</time></trkpt><trkpt lat="40.33447331344705" lon="17.850967482062188"><ele>52.33333333333333</ele><time>2026-03-29T13:50:44Z</time></trkpt><trkpt lat="40.33464772618424" lon="17.850906803922946"><ele>52.0</ele><time>2026-03-29T13:50:45Z</time></trkpt><trkpt lat="40.33479985605397" lon="17.85084678170988"><ele>53.33333333333333</ele><time>2026-03-29T13:50:46Z</time></trkpt><trkpt lat="40.33495701149097" lon="17.85079006129433"><ele>54.66666666666667</ele><time>2026-03-29T13:50:47Z</time></trkpt><trkpt lat="40.33513264716215" lon="17.850723378269038"><ele>56.0</ele><time>2026-03-29T13:50:48Z</time></trkpt><trkpt lat="40.33531935627743" lon="17.850660053431646"><ele>56.0</ele><time>2026-03-29T13:50:49Z</time></trkpt><trkpt lat="40.33550849926266" lon="17.850591232997154"><ele>56.0</ele><time>2026-03-29T13:50:50Z</time></trkpt><trkpt lat="40.335707877555805" lon="17.850513706369508"><ele>56.0</ele><time>2026-03-29T13:50:51Z</time></trkpt><trkpt lat="40.33590905272268" lon="17.85043321048074"><ele>55.66666666666667</ele><time>2026-03-29T13:50:52Z</time></trkpt><trkpt lat="40.33611564303443" lon="17.850350567604064"><ele>55.33333333333333</ele><time>2026-03-29T13:50:53Z</time></trkpt><trkpt lat="40.336324210228206" lon="17.850278994464627"><ele>55.0</ele><time>2026-03-29T13:50:54Z</time></trkpt><trkpt lat="40.336542530426364" lon="17.85020567300484"><ele>55.5</ele><time>2026-03-29T13:50:55Z</time></trkpt><trkpt lat="40.33676103862837" lon="17.850124668063188"><ele>56.0</ele><time>2026-03-29T13:50:56.001Z</time></trkpt><trkpt lat="40.33697494017832" lon="17.85004144455814"><ele>56.0</ele><time>2026-03-29T13:50:57.001Z</time></trkpt><trkpt lat="40.337182604450206" lon="17.84998105833405"><ele>56.0</ele><time>2026-03-29T13:50:58.001Z</time></trkpt><trkpt lat="40.33738350512348" lon="17.849888990541082"><ele>56.0</ele><time>2026-03-29T13:50:59.001Z</time></trkpt><trkpt lat="40.337583073287185" lon="17.849820741471667"><ele>56.333333333333336</ele><time>2026-03-29T13:51:00.001Z</time></trkpt><trkpt lat="40.33777573824277" lon="17.849754532380402"><ele>56.66666666666667</ele><time>2026-03-29T13:51:01.001Z</time></trkpt><trkpt lat="40.3379691483877" lon="17.84969137996518"><ele>57.0</ele><time>2026-03-29T13:51:02.001Z</time></trkpt><trkpt lat="40.33814595841591" lon="17.849636036987945"><ele>58.0</ele><time>2026-03-29T13:51:03.001Z</time></trkpt><trkpt lat="40.33831985243331" lon="17.849584353414485"><ele>59.0</ele><time>2026-03-29T13:51:04.001Z</time></trkpt><trkpt lat="40.338498375990326" lon="17.849533798306847"><ele>60.0</ele><time>2026-03-29T13:51:05.001Z</time></trkpt><trkpt lat="40.33868157060232" lon="17.849470127452975"><ele>60.0</ele><time>2026-03-29T13:51:06.001Z</time></trkpt><trkpt lat="40.338870172218236" lon="17.849419232823255"><ele>60.0</ele><time>2026-03-29T13:51:07.001Z</time></trkpt><trkpt lat="40.339067752448315" lon="17.849367326480444"><ele>60.0</ele><time>2026-03-29T13:51:08.001Z</time></trkpt><trkpt lat="40.339252750004164" lon="17.84929569367551"><ele>60.0</ele><time>2026-03-29T13:51:09.001Z</time></trkpt><trkpt lat="40.339440336180544" lon="17.849236218598964"><ele>60.0</ele><time>2026-03-29T13:51:10.001Z</time></trkpt><trkpt lat="40.339629397468265" lon="17.84917740122273"><ele>60.0</ele><time>2026-03-29T13:51:11Z</time></trkpt><trkpt lat="40.33981875015915" lon="17.849113659020624"><ele>59.66666666666667</ele><time>2026-03-29T13:51:12Z</time></trkpt><trkpt lat="40.34002278708868" lon="17.84904936947307"><ele>59.333333333333336</ele><time>2026-03-29T13:51:13Z</time></trkpt><trkpt lat="40.34024349481869" lon="17.849002584546508"><ele>59.0</ele><time>2026-03-29T13:51:14Z</time></trkpt><trkpt lat="40.34050784952426" lon="17.848920200642027"><ele>60.0</ele><time>2026-03-29T13:51:15Z</time></trkpt><trkpt lat="40.34079110739643" lon="17.848810484326012"><ele>61.0</ele><time>2026-03-29T13:51:16Z</time></trkpt><trkpt lat="40.341115878540066" lon="17.84873310265954"><ele>61.0</ele><time>2026-03-29T13:51:17Z</time></trkpt><trkpt lat="40.34144815336939" lon="17.848626447265357"><ele>61.0</ele><time>2026-03-29T13:51:18Z</time></trkpt><trkpt lat="40.341794355251444" lon="17.848508653606032"><ele>61.0</ele><time>2026-03-29T13:51:19Z</time></trkpt><trkpt lat="40.342157331377386" lon="17.848394195870103"><ele>61.0</ele><time>2026-03-29T13:51:20Z</time></trkpt><trkpt lat="40.3425329409256" lon="17.848288202080614"><ele>60.5</ele><time>2026-03-29T13:51:21Z</time></trkpt><trkpt lat="40.34292443264815" lon="17.848166169491233"><ele>60.0</ele><time>2026-03-29T13:51:22Z</time></trkpt><trkpt lat="40.34332809454247" lon="17.84802738585804"><ele>60.0</ele><time>2026-03-29T13:51:23Z</time></trkpt><trkpt lat="40.34373334535112" lon="17.847898951568578"><ele>60.0</ele><time>2026-03-29T13:51:24Z</time></trkpt><trkpt lat="40.34415468432104" lon="17.847767011631586"><ele>61.0</ele><time>2026-03-29T13:51:25Z</time></trkpt><trkpt lat="40.34458755251257" lon="17.8476288095042"><ele>62.0</ele><time>2026-03-29T13:51:26Z</time></trkpt><trkpt lat="40.34501941445261" lon="17.847482961999656"><ele>62.0</ele><time>2026-03-29T13:51:27Z</time></trkpt><trkpt lat="40.34545620851949" lon="17.84734572641276"><ele>62.0</ele><time>2026-03-29T13:51:28Z</time></trkpt><trkpt lat="40.34590536384148" lon="17.847203288429206"><ele>63.0</ele><time>2026-03-29T13:51:29Z</time></trkpt><trkpt lat="40.3463529785959" lon="17.847065128504365"><ele>64.0</ele><time>2026-03-29T13:51:30Z</time></trkpt><trkpt lat="40.346799876799246" lon="17.84693782816556"><ele>63.0</ele><time>2026-03-29T13:51:31Z</time></trkpt><trkpt lat="40.34725705021704" lon="17.846784353833936"><ele>63.0</ele><time>2026-03-29T13:51:32Z</time></trkpt><trkpt lat="40.347720512514215" lon="17.846634479401747"><ele>65.0</ele><time>2026-03-29T13:51:33Z</time></trkpt><trkpt lat="40.348163503104296" lon="17.846491134970723"><ele>65.0</ele><time>2026-03-29T13:51:34Z</time></trkpt><trkpt lat="40.34856552387819" lon="17.846377139015008"><ele>65.0</ele><time>2026-03-29T13:51:35Z</time></trkpt><trkpt lat="40.34892992564104" lon="17.84626850193987"><ele>65.0</ele><time>2026-03-29T13:51:36Z</time></trkpt><trkpt lat="40.34928158866079" lon="17.84616586966774"><ele>65.0</ele><time>2026-03-29T13:51:37Z</time></trkpt><trkpt lat="40.34964436518658" lon="17.84605839406733"><ele>65.5</ele><time>2026-03-29T13:51:38Z</time></trkpt><trkpt lat="40.350014427689636" lon="17.84593576164995"><ele>66.0</ele><time>2026-03-29T13:51:39Z</time></trkpt><trkpt lat="40.35039658996882" lon="17.8458198024119"><ele>66.0</ele><time>2026-03-29T13:51:40Z</time></trkpt><trkpt lat="40.3507737384548" lon="17.84570517465279"><ele>66.0</ele><time>2026-03-29T13:51:41Z</time></trkpt><trkpt lat="40.35112472665944" lon="17.845594893641962"><ele>66.5</ele><time>2026-03-29T13:51:42Z</time></trkpt><trkpt lat="40.351466915040795" lon="17.845486931221952"><ele>67.0</ele><time>2026-03-29T13:51:43Z</time></trkpt><trkpt lat="40.351831084204626" lon="17.845373741119353"><ele>67.0</ele><time>2026-03-29T13:51:44Z</time></trkpt><trkpt lat="40.352202312641495" lon="17.845256090807517"><ele>67.0</ele><time>2026-03-29T13:51:45Z</time></trkpt><trkpt lat="40.35257245807786" lon="17.845152283569963"><ele>67.0</ele><time>2026-03-29T13:51:46Z</time></trkpt><trkpt lat="40.35294044613373" lon="17.845039766151586"><ele>67.0</ele><time>2026-03-29T13:51:47Z</time></trkpt><trkpt lat="40.353302633845786" lon="17.84492206903894"><ele>66.5</ele><time>2026-03-29T13:51:48Z</time></trkpt><trkpt lat="40.353670369566906" lon="17.844810310426112"><ele>66.0</ele><time>2026-03-29T13:51:49Z</time></trkpt><trkpt lat="40.35404810870711" lon="17.8446954004845"><ele>66.0</ele><time>2026-03-29T13:51:50Z</time></trkpt><trkpt lat="40.35443513282243" lon="17.844575731598354"><ele>66.0</ele><time>2026-03-29T13:51:51Z</time></trkpt><trkpt lat="40.354830694152874" lon="17.84445212761788"><ele>66.0</ele><time>2026-03-29T13:51:52Z</time></trkpt><trkpt lat="40.35524003644109" lon="17.844323576226838"><ele>66.0</ele><time>2026-03-29T13:51:53Z</time></trkpt><trkpt lat="40.355656586766" lon="17.84419303069095"><ele>66.0</ele><time>2026-03-29T13:51:54Z</time></trkpt><trkpt lat="40.35608791841264" lon="17.844051965824328"><ele>66.0</ele><time>2026-03-29T13:51:55Z</time></trkpt><trkpt lat="40.356526017097345" lon="17.843915492085742"><ele>66.0</ele><time>2026-03-29T13:51:56Z</time></trkpt><trkpt lat="40.3569762714844" lon="17.843771685404032"><ele>67.0</ele><time>2026-03-29T13:51:57Z</time></trkpt><trkpt lat="40.357434830001225" lon="17.843625509559807"><ele>67.0</ele><time>2026-03-29T13:51:58Z</time></trkpt><trkpt lat="40.35790241642452" lon="17.843481246530484"><ele>70.0</ele><time>2026-03-29T13:51:59Z</time></trkpt><trkpt lat="40.358367613400766" lon="17.843332654625318"><ele>70.0</ele><time>2026-03-29T13:52:00Z</time></trkpt><trkpt lat="40.3588507296708" lon="17.843181782892525"><ele>70.0</ele><time>2026-03-29T13:52:01Z</time></trkpt><trkpt lat="40.35932616914067" lon="17.84304048840246"><ele>69.0</ele><time>2026-03-29T13:52:02Z</time></trkpt><trkpt lat="40.35979986470123" lon="17.842886620147222"><ele>69.0</ele><time>2026-03-29T13:52:03Z</time></trkpt><trkpt lat="40.36029314893031" lon="17.84273866020852"><ele>72.0</ele><time>2026-03-29T13:52:04Z</time></trkpt><trkpt lat="40.36077946018189" lon="17.842586537114876"><ele>72.0</ele><time>2026-03-29T13:52:05Z</time></trkpt><trkpt lat="40.36126653352173" lon="17.8424313914848"><ele>72.0</ele><time>2026-03-29T13:52:06Z</time></trkpt><trkpt lat="40.36175267588105" lon="17.84227482238586"><ele>69.0</ele><time>2026-03-29T13:52:07Z</time></trkpt><trkpt lat="40.36223455883713" lon="17.842136840107493"><ele>69.0</ele><time>2026-03-29T13:52:08Z</time></trkpt><trkpt lat="40.3627019171118" lon="17.841991638019653"><ele>70.0</ele><time>2026-03-29T13:52:09Z</time></trkpt><trkpt lat="40.36315469083905" lon="17.841849564679073"><ele>70.5</ele><time>2026-03-29T13:52:10Z</time></trkpt><trkpt lat="40.3635636100471" lon="17.84172209980095"><ele>71.0</ele><time>2026-03-29T13:52:11Z</time></trkpt><trkpt lat="40.36396680365097" lon="17.841594621146943"><ele>71.0</ele><time>2026-03-29T13:52:12Z</time></trkpt><trkpt lat="40.36436948419569" lon="17.841456629576374"><ele>71.0</ele><time>2026-03-29T13:52:13Z</time></trkpt><trkpt lat="40.3647259267655" lon="17.84132535526866"><ele>71.0</ele><time>2026-03-29T13:52:14Z</time></trkpt><trkpt lat="40.36507813895878" lon="17.84123793956773"><ele>71.0</ele><time>2026-03-29T13:52:15Z</time></trkpt><trkpt lat="40.36543884687158" lon="17.84113163621009"><ele>70.5</ele><time>2026-03-29T13:52:16Z</time></trkpt><trkpt lat="40.36578718077583" lon="17.841026516725112"><ele>70.0</ele><time>2026-03-29T13:52:17Z</time></trkpt><trkpt lat="40.36613207822489" lon="17.840912715061958"><ele>71.0</ele><time>2026-03-29T13:52:18Z</time></trkpt><trkpt lat="40.36647726434489" lon="17.84080461087367"><ele>72.0</ele><time>2026-03-29T13:52:19Z</time></trkpt><trkpt lat="40.36682319196911" lon="17.840696328318973"><ele>72.0</ele><time>2026-03-29T13:52:20Z</time></trkpt><trkpt lat="40.367169297024056" lon="17.840586097367748"><ele>72.0</ele><time>2026-03-29T13:52:21Z</time></trkpt><trkpt lat="40.36751247112171" lon="17.84047818651925"><ele>71.5</ele><time>2026-03-29T13:52:22Z</time></trkpt><trkpt lat="40.36785766560191" lon="17.84037999237324"><ele>71.0</ele><time>2026-03-29T13:52:23Z</time></trkpt><trkpt lat="40.368193954908804" lon="17.840284216891167"><ele>71.0</ele><time>2026-03-29T13:52:24Z</time></trkpt><trkpt lat="40.36852563161939" lon="17.84018054376438"><ele>71.0</ele><time>2026-03-29T13:52:25Z</time></trkpt><trkpt lat="40.36885929575967" lon="17.840072016110728"><ele>71.5</ele><time>2026-03-29T13:52:26Z</time></trkpt><trkpt lat="40.36920095568204" lon="17.839966627588485"><ele>72.0</ele><time>2026-03-29T13:52:27Z</time></trkpt><trkpt lat="40.36953953140572" lon="17.839856938097842"><ele>70.0</ele><time>2026-03-29T13:52:28Z</time></trkpt><trkpt lat="40.369902077751135" lon="17.839748736657466"><ele>68.0</ele><time>2026-03-29T13:52:29Z</time></trkpt><trkpt lat="40.370267925588585" lon="17.839646100354262"><ele>68.0</ele><time>2026-03-29T13:52:30Z</time></trkpt><trkpt lat="40.3706690935924" lon="17.839498931902313"><ele>68.0</ele><time>2026-03-29T13:52:31Z</time></trkpt><trkpt lat="40.37106778098185" lon="17.839364931126745"><ele>68.5</ele><time>2026-03-29T13:52:32Z</time></trkpt><trkpt lat="40.3714395222318" lon="17.839262942962648"><ele>69.0</ele><time>2026-03-29T13:52:33Z</time></trkpt><trkpt lat="40.37178314310398" lon="17.83915067362513"><ele>69.0</ele><time>2026-03-29T13:52:34Z</time></trkpt><trkpt lat="40.37212747868375" lon="17.839044731202147"><ele>69.0</ele><time>2026-03-29T13:52:35Z</time></trkpt><trkpt lat="40.37248266598899" lon="17.838932873922733"><ele>68.5</ele><time>2026-03-29T13:52:36Z</time></trkpt><trkpt lat="40.372820048138564" lon="17.838831979073746"><ele>68.0</ele><time>2026-03-29T13:52:37Z</time></trkpt><trkpt lat="40.373134681755204" lon="17.83873327625847"><ele>68.0</ele><time>2026-03-29T13:52:38Z</time></trkpt><trkpt lat="40.37345152630677" lon="17.8386324660431"><ele>68.0</ele><time>2026-03-29T13:52:39Z</time></trkpt><trkpt lat="40.37377574119443" lon="17.838529940923223"><ele>68.5</ele><time>2026-03-29T13:52:40Z</time></trkpt><trkpt lat="40.374085662103994" lon="17.838442077248736"><ele>69.0</ele><time>2026-03-29T13:52:41Z</time></trkpt><trkpt lat="40.37435934507274" lon="17.838346011443267"><ele>69.0</ele><time>2026-03-29T13:52:42Z</time></trkpt><trkpt lat="40.37461423841714" lon="17.838256997464566"><ele>69.0</ele><time>2026-03-29T13:52:43Z</time></trkpt><trkpt lat="40.37486937671542" lon="17.83818972586939"><ele>69.0</ele><time>2026-03-29T13:52:44Z</time></trkpt><trkpt lat="40.37508853211982" lon="17.83810502300263"><ele>69.0</ele><time>2026-03-29T13:52:45Z</time></trkpt><trkpt lat="40.3753038851147" lon="17.8380391662534"><ele>69.0</ele><time>2026-03-29T13:52:46Z</time></trkpt><trkpt lat="40.37548766124712" lon="17.83799553771107"><ele>69.0</ele><time>2026-03-29T13:52:47Z</time></trkpt><trkpt lat="40.3756626718429" lon="17.837924494965357"><ele>69.0</ele><time>2026-03-29T13:52:48Z</time></trkpt><trkpt lat="40.37579226928612" lon="17.837890486781898"><ele>69.2</ele><time>2026-03-29T13:52:49Z</time></trkpt><trkpt lat="40.375911337344355" lon="17.837879144822484"><ele>69.4</ele><time>2026-03-29T13:52:50Z</time></trkpt><trkpt lat="40.376022690545454" lon="17.83790771950225"><ele>69.6</ele><time>2026-03-29T13:52:51Z</time></trkpt><trkpt lat="40.37612626919421" lon="17.837945051044905"><ele>69.8</ele><time>2026-03-29T13:52:52Z</time></trkpt><trkpt lat="40.376215567546424" lon="17.83798793244005"><ele>70.0</ele><time>2026-03-29T13:52:53Z</time></trkpt><trkpt lat="40.37630219527963" lon="17.837955675184205"><ele>70.0</ele><time>2026-03-29T13:52:54Z</time></trkpt><trkpt lat="40.376361248112495" lon="17.837881066625094"><ele>70.0</ele><time>2026-03-29T13:52:55Z</time></trkpt><trkpt lat="40.37643383574362" lon="17.837789607771857"><ele>70.0</ele><time>2026-03-29T13:52:56Z</time></trkpt><trkpt lat="40.37653477222726" lon="17.83771747748952"><ele>70.0</ele><time>2026-03-29T13:52:57Z</time></trkpt><trkpt lat="40.37667194835079" lon="17.83770872710539"><ele>70.0</ele><time>2026-03-29T13:52:58Z</time></trkpt><trkpt lat="40.376817089887155" lon="17.837686044418188"><ele>70.0</ele><time>2026-03-29T13:52:59Z</time></trkpt><trkpt lat="40.376991834761235" lon="17.837645286008932"><ele>70.0</ele><time>2026-03-29T13:53:00Z</time></trkpt><trkpt lat="40.37718643210613" lon="17.837614328929746"><ele>70.0</ele><time>2026-03-29T13:53:01Z</time></trkpt><trkpt lat="40.37741223174778" lon="17.83757908385686"><ele>70.0</ele><time>2026-03-29T13:53:02Z</time></trkpt><trkpt lat="40.37764245320933" lon="17.83753812970688"><ele>70.0</ele><time>2026-03-29T13:53:03Z</time></trkpt><trkpt lat="40.37790620905183" lon="17.837493554120012"><ele>69.0</ele><time>2026-03-29T13:53:04Z</time></trkpt><trkpt lat="40.378194005519305" lon="17.83744283317833"><ele>68.0</ele><time>2026-03-29T13:53:05Z</time></trkpt><trkpt lat="40.378493199936756" lon="17.837392965999115"><ele>68.0</ele><time>2026-03-29T13:53:06Z</time></trkpt><trkpt lat="40.37881273217255" lon="17.837354332271648"><ele>68.0</ele><time>2026-03-29T13:53:07Z</time></trkpt><trkpt lat="40.37912871645082" lon="17.837283485661008"><ele>68.0</ele><time>2026-03-29T13:53:08Z</time></trkpt><trkpt lat="40.37944735114503" lon="17.837238974966496"><ele>68.0</ele><time>2026-03-29T13:53:09Z</time></trkpt><trkpt lat="40.37977993876505" lon="17.83718794138624"><ele>68.0</ele><time>2026-03-29T13:53:10Z</time></trkpt><trkpt lat="40.38013442679653" lon="17.837126670483567"><ele>68.0</ele><time>2026-03-29T13:53:11Z</time></trkpt><trkpt lat="40.38049130787443" lon="17.837064396071696"><ele>68.5</ele><time>2026-03-29T13:53:12Z</time></trkpt><trkpt lat="40.38085978823604" lon="17.837005047070196"><ele>69.0</ele><time>2026-03-29T13:53:13Z</time></trkpt><trkpt lat="40.3812482821142" lon="17.836939890587647"><ele>69.0</ele><time>2026-03-29T13:53:14Z</time></trkpt><trkpt lat="40.38164925877688" lon="17.836873348776038"><ele>69.0</ele><time>2026-03-29T13:53:15Z</time></trkpt><trkpt lat="40.382065170127234" lon="17.836806237714782"><ele>68.5</ele><time>2026-03-29T13:53:16Z</time></trkpt><trkpt lat="40.382488458485575" lon="17.836735475995756"><ele>68.0</ele><time>2026-03-29T13:53:17Z</time></trkpt><trkpt lat="40.38292186307933" lon="17.836669653193734"><ele>69.0</ele><time>2026-03-29T13:53:18Z</time></trkpt><trkpt lat="40.38336058730446" lon="17.83660181347639"><ele>70.0</ele><time>2026-03-29T13:53:19Z</time></trkpt><trkpt lat="40.38381054652856" lon="17.836518803656208"><ele>67.0</ele><time>2026-03-29T13:53:20Z</time></trkpt><trkpt lat="40.38427009712304" lon="17.83643749377078"><ele>66.0</ele><time>2026-03-29T13:53:21Z</time></trkpt><trkpt lat="40.384735065142" lon="17.836356207945848"><ele>66.0</ele><time>2026-03-29T13:53:22Z</time></trkpt><trkpt lat="40.38520919504482" lon="17.836281651199414"><ele>67.0</ele><time>2026-03-29T13:53:23Z</time></trkpt><trkpt lat="40.38568733028576" lon="17.836204773404564"><ele>67.0</ele><time>2026-03-29T13:53:24Z</time></trkpt><trkpt lat="40.38616897321346" lon="17.83612844854701"><ele>68.0</ele><time>2026-03-29T13:53:25Z</time></trkpt><trkpt lat="40.386658193350875" lon="17.836043720921165"><ele>67.0</ele><time>2026-03-29T13:53:26Z</time></trkpt><trkpt lat="40.38715267811519" lon="17.835954931173017"><ele>67.0</ele><time>2026-03-29T13:53:27Z</time></trkpt><trkpt lat="40.38764744235285" lon="17.835869422946253"><ele>67.0</ele><time>2026-03-29T13:53:28Z</time></trkpt><trkpt lat="40.38813917850351" lon="17.83578839690303"><ele>67.0</ele><time>2026-03-29T13:53:29Z</time></trkpt><trkpt lat="40.38863223656553" lon="17.83570664332351"><ele>67.0</ele><time>2026-03-29T13:53:30Z</time></trkpt><trkpt lat="40.38908870428361" lon="17.835635500978842"><ele>67.0</ele><time>2026-03-29T13:53:31Z</time></trkpt><trkpt lat="40.38952679791341" lon="17.835561741703057"><ele>67.0</ele><time>2026-03-29T13:53:32Z</time></trkpt><trkpt lat="40.389988228805436" lon="17.835492551790857"><ele>67.0</ele><time>2026-03-29T13:53:33Z</time></trkpt><trkpt lat="40.390437982598115" lon="17.83541022820024"><ele>67.0</ele><time>2026-03-29T13:53:34Z</time></trkpt><trkpt lat="40.39084385687659" lon="17.835332479894326"><ele>67.0</ele><time>2026-03-29T13:53:35Z</time></trkpt><trkpt lat="40.391229206734494" lon="17.835272212228897"><ele>66.5</ele><time>2026-03-29T13:53:36Z</time></trkpt><trkpt lat="40.39163438969826" lon="17.835201225538402"><ele>66.0</ele><time>2026-03-29T13:53:37Z</time></trkpt><trkpt lat="40.39204910851432" lon="17.835141312080772"><ele>65.5</ele><time>2026-03-29T13:53:38Z</time></trkpt><trkpt lat="40.392487023500934" lon="17.83506877307405"><ele>65.0</ele><time>2026-03-29T13:53:39Z</time></trkpt><trkpt lat="40.39291614045233" lon="17.834997560068985"><ele>66.0</ele><time>2026-03-29T13:53:40Z</time></trkpt><trkpt lat="40.393307263099395" lon="17.834930062549113"><ele>67.0</ele><time>2026-03-29T13:53:41Z</time></trkpt><trkpt lat="40.393693709592505" lon="17.834867033712975"><ele>66.5</ele><time>2026-03-29T13:53:42Z</time></trkpt><trkpt lat="40.3940805815374" lon="17.834800966146723"><ele>66.0</ele><time>2026-03-29T13:53:43Z</time></trkpt><trkpt lat="40.39444490698349" lon="17.83474172339437"><ele>66.0</ele><time>2026-03-29T13:53:44Z</time></trkpt><trkpt lat="40.39478614184212" lon="17.83468324320318"><ele>66.0</ele><time>2026-03-29T13:53:45Z</time></trkpt><trkpt lat="40.39513764783439" lon="17.83462881780894"><ele>66.0</ele><time>2026-03-29T13:53:46Z</time></trkpt><trkpt lat="40.39548376321188" lon="17.83458331376856"><ele>66.0</ele><time>2026-03-29T13:53:47Z</time></trkpt><trkpt lat="40.39582609334956" lon="17.83458203397962"><ele>65.5</ele><time>2026-03-29T13:53:48Z</time></trkpt><trkpt lat="40.396172584623585" lon="17.83463186826623"><ele>65.0</ele><time>2026-03-29T13:53:49Z</time></trkpt><trkpt lat="40.39652974758465" lon="17.834702279606294"><ele>64.5</ele><time>2026-03-29T13:53:50Z</time></trkpt><trkpt lat="40.39688515549415" lon="17.8347651475567"><ele>64.0</ele><time>2026-03-29T13:53:51Z</time></trkpt><trkpt lat="40.39725430486006" lon="17.834824754820076"><ele>64.0</ele><time>2026-03-29T13:53:52Z</time></trkpt><trkpt lat="40.39762680310742" lon="17.834885097853782"><ele>64.0</ele><time>2026-03-29T13:53:53Z</time></trkpt><trkpt lat="40.39799378654568" lon="17.834934400427603"><ele>63.5</ele><time>2026-03-29T13:53:54Z</time></trkpt><trkpt lat="40.398355427676144" lon="17.834982339562988"><ele>63.0</ele><time>2026-03-29T13:53:55Z</time></trkpt><trkpt lat="40.39871016082825" lon="17.83502837058564"><ele>63.0</ele><time>2026-03-29T13:53:56Z</time></trkpt><trkpt lat="40.39905361986507" lon="17.83508305292444"><ele>63.0</ele><time>2026-03-29T13:53:57Z</time></trkpt><trkpt lat="40.39940717056153" lon="17.83513867951175"><ele>62.5</ele><time>2026-03-29T13:53:58Z</time></trkpt><trkpt lat="40.39977153479552" lon="17.835185601570743"><ele>62.0</ele><time>2026-03-29T13:53:59Z</time></trkpt><trkpt lat="40.4001533374964" lon="17.83524450364091"><ele>61.0</ele><time>2026-03-29T13:54:00Z</time></trkpt><trkpt lat="40.40052871651328" lon="17.83530292290819"><ele>60.0</ele><time>2026-03-29T13:54:01Z</time></trkpt><trkpt lat="40.40091321289199" lon="17.83535977041629"><ele>60.0</ele><time>2026-03-29T13:54:02Z</time></trkpt><trkpt lat="40.40130515137104" lon="17.835410835054446"><ele>60.0</ele><time>2026-03-29T13:54:03Z</time></trkpt><trkpt lat="40.40170292587816" lon="17.83546930168693"><ele>60.0</ele><time>2026-03-29T13:54:04Z</time></trkpt><trkpt lat="40.402121113785974" lon="17.835526517626928"><ele>60.0</ele><time>2026-03-29T13:54:05Z</time></trkpt><trkpt lat="40.40255089707121" lon="17.835583451508153"><ele>60.0</ele><time>2026-03-29T13:54:06Z</time></trkpt><trkpt lat="40.402993471036275" lon="17.835650578702023"><ele>60.0</ele><time>2026-03-29T13:54:07Z</time></trkpt><trkpt lat="40.40343745885347" lon="17.835716656732284"><ele>60.0</ele><time>2026-03-29T13:54:08Z</time></trkpt><trkpt lat="40.40383797256482" lon="17.835783145220333"><ele>60.0</ele><time>2026-03-29T13:54:09Z</time></trkpt><trkpt lat="40.404213994821184" lon="17.835836296135355"><ele>60.0</ele><time>2026-03-29T13:54:10Z</time></trkpt><trkpt lat="40.40458323423849" lon="17.835887318499182"><ele>60.0</ele><time>2026-03-29T13:54:11Z</time></trkpt><trkpt lat="40.40492535519695" lon="17.83593524836538"><ele>60.5</ele><time>2026-03-29T13:54:12Z</time></trkpt><trkpt lat="40.40524709260621" lon="17.83598156368742"><ele>61.0</ele><time>2026-03-29T13:54:13Z</time></trkpt><trkpt lat="40.40554533239682" lon="17.836025026577182"><ele>61.0</ele><time>2026-03-29T13:54:14Z</time></trkpt><trkpt lat="40.40582189518107" lon="17.83606865310171"><ele>61.0</ele><time>2026-03-29T13:54:15Z</time></trkpt><trkpt lat="40.40607855910581" lon="17.836104743762785"><ele>61.0</ele><time>2026-03-29T13:54:16Z</time></trkpt><trkpt lat="40.40631786536788" lon="17.836131729607164"><ele>61.0</ele><time>2026-03-29T13:54:17Z</time></trkpt><trkpt lat="40.406535240830955" lon="17.83616097003281"><ele>60.666666666666664</ele><time>2026-03-29T13:54:18Z</time></trkpt><trkpt lat="40.40674159122712" lon="17.836191035414405"><ele>60.33333333333333</ele><time>2026-03-29T13:54:19Z</time></trkpt><trkpt lat="40.40694453968097" lon="17.836227907125593"><ele>60.0</ele><time>2026-03-29T13:54:20Z</time></trkpt><trkpt lat="40.40714857112823" lon="17.836266464725462"><ele>60.33333333333333</ele><time>2026-03-29T13:54:21Z</time></trkpt><trkpt lat="40.40735460241786" lon="17.836298226983416"><ele>60.666666666666664</ele><time>2026-03-29T13:54:22Z</time></trkpt><trkpt lat="40.40755859558158" lon="17.836331367479023"><ele>61.0</ele><time>2026-03-29T13:54:23Z</time></trkpt><trkpt lat="40.40775525443932" lon="17.836353561914756"><ele>61.0</ele><time>2026-03-29T13:54:24Z</time></trkpt><trkpt lat="40.407949258273405" lon="17.836383440577492"><ele>61.0</ele><time>2026-03-29T13:54:25Z</time></trkpt><trkpt lat="40.40815537483922" lon="17.836411747040373"><ele>61.0</ele><time>2026-03-29T13:54:26Z</time></trkpt><trkpt lat="40.40832348955507" lon="17.8364088236032"><ele>60.666666666666664</ele><time>2026-03-29T13:54:27Z</time></trkpt><trkpt lat="40.408461456854816" lon="17.8364431895765"><ele>60.33333333333333</ele><time>2026-03-29T13:54:28Z</time></trkpt><trkpt lat="40.4086200958676" lon="17.836468448125693"><ele>60.0</ele><time>2026-03-29T13:54:29Z</time></trkpt><trkpt lat="40.408775682584405" lon="17.836472485703304"><ele>59.66666666666667</ele><time>2026-03-29T13:54:30Z</time></trkpt><trkpt lat="40.40893073915018" lon="17.83650752436847"><ele>59.333333333333336</ele><time>2026-03-29T13:54:31Z</time></trkpt><trkpt lat="40.40908048230076" lon="17.836532902609804"><ele>59.0</ele><time>2026-03-29T13:54:32Z</time></trkpt><trkpt lat="40.40922305644536" lon="17.836549992106125"><ele>59.0</ele><time>2026-03-29T13:54:33Z</time></trkpt><trkpt lat="40.40937039466063" lon="17.83660099072303"><ele>59.0</ele><time>2026-03-29T13:54:34Z</time></trkpt><trkpt lat="40.40952191450317" lon="17.836607462711726"><ele>59.0</ele><time>2026-03-29T13:54:35Z</time></trkpt><trkpt lat="40.4096764346337" lon="17.836629444382588"><ele>59.25</ele><time>2026-03-29T13:54:36Z</time></trkpt><trkpt lat="40.40981503380689" lon="17.836662027692924"><ele>59.5</ele><time>2026-03-29T13:54:37Z</time></trkpt><trkpt lat="40.409943127820036" lon="17.836684854958936"><ele>59.75</ele><time>2026-03-29T13:54:38Z</time></trkpt><trkpt lat="40.410048829864145" lon="17.83672156210056"><ele>60.0</ele><time>2026-03-29T13:54:39Z</time></trkpt><trkpt lat="40.410139338821324" lon="17.836763052570095"><ele>60.0</ele><time>2026-03-29T13:54:40Z</time></trkpt><trkpt lat="40.41020795192207" lon="17.836819150786635"><ele>60.0</ele><time>2026-03-29T13:54:41Z</time></trkpt><trkpt lat="40.41026802347598" lon="17.836864596352914"><ele>60.0</ele><time>2026-03-29T13:54:42Z</time></trkpt><trkpt lat="40.41033212182736" lon="17.836879135306347"><ele>60.0</ele><time>2026-03-29T13:54:43Z</time></trkpt><trkpt lat="40.410399016693866" lon="17.83684222329151"><ele>60.0</ele><time>2026-03-29T13:54:45Z</time></trkpt><trkpt lat="40.41041307256663" lon="17.83673060143327"><ele>60.0</ele><time>2026-03-29T13:54:47Z</time></trkpt><trkpt lat="40.41037736436654" lon="17.83665206795768"><ele>60.0</ele><time>2026-03-29T13:54:48Z</time></trkpt><trkpt lat="40.41038629142132" lon="17.836512515328092"><ele>60.0</ele><time>2026-03-29T13:54:49Z</time></trkpt><trkpt lat="40.4103897754821" lon="17.836351489110932"><ele>60.0</ele><time>2026-03-29T13:54:50Z</time></trkpt><trkpt lat="40.410405332142695" lon="17.836197908637743"><ele>60.0</ele><time>2026-03-29T13:54:51Z</time></trkpt><trkpt lat="40.410420553934905" lon="17.83604030991377"><ele>60.0</ele><time>2026-03-29T13:54:51.999Z</time></trkpt><trkpt lat="40.410434126471955" lon="17.835888316139332"><ele>60.25</ele><time>2026-03-29T13:54:52.999Z</time></trkpt><trkpt lat="40.4104465961291" lon="17.835737796947306"><ele>60.5</ele><time>2026-03-29T13:54:53.999Z</time></trkpt><trkpt lat="40.41046060328798" lon="17.835568718958502"><ele>60.75</ele><time>2026-03-29T13:54:54.999Z</time></trkpt><trkpt lat="40.41047529791349" lon="17.83539134259057"><ele>61.0</ele><time>2026-03-29T13:54:55.999Z</time></trkpt><trkpt lat="40.410492309579276" lon="17.835183109754894"><ele>61.33333333333333</ele><time>2026-03-29T13:54:56.999Z</time></trkpt><trkpt lat="40.410509451190265" lon="17.834973165864014"><ele>61.66666666666667</ele><time>2026-03-29T13:54:57.999Z</time></trkpt><trkpt lat="40.41052864898192" lon="17.83473256582472"><ele>62.0</ele><time>2026-03-29T13:54:58.999Z</time></trkpt><trkpt lat="40.41054510189892" lon="17.83447190549825"><ele>61.5</ele><time>2026-03-29T13:54:59.999Z</time></trkpt><trkpt lat="40.41055693574153" lon="17.834251565695947"><ele>61.0</ele><time>2026-03-29T13:55:00.999Z</time></trkpt><trkpt lat="40.410551198789896" lon="17.834065871308976"><ele>60.5</ele><time>2026-03-29T13:55:01.999Z</time></trkpt><trkpt lat="40.41056498407233" lon="17.833896853362045"><ele>60.0</ele><time>2026-03-29T13:55:02.999Z</time></trkpt><trkpt lat="40.410583875304965" lon="17.833760063460005"><ele>60.0</ele><time>2026-03-29T13:55:03.999Z</time></trkpt><trkpt lat="40.410617743239065" lon="17.833662932366206"><ele>60.0</ele><time>2026-03-29T13:55:04.999Z</time></trkpt><trkpt lat="40.410669368070224" lon="17.83360139951417"><ele>60.0</ele><time>2026-03-29T13:55:05.999Z</time></trkpt><trkpt lat="40.41073097067282" lon="17.83356203616958"><ele>60.0</ele><time>2026-03-29T13:55:06.999Z</time></trkpt><trkpt lat="40.41080586868427" lon="17.833549604087747"><ele>60.0</ele><time>2026-03-29T13:55:08Z</time></trkpt><trkpt lat="40.410902356799525" lon="17.833535499207596"><ele>60.0</ele><time>2026-03-29T13:55:09Z</time></trkpt><trkpt lat="40.410994558597" lon="17.83350955240871"><ele>60.0</ele><time>2026-03-29T13:55:10Z</time></trkpt><trkpt lat="40.41109659154489" lon="17.833509644173613"><ele>60.0</ele><time>2026-03-29T13:55:11Z</time></trkpt><trkpt lat="40.41122014065311" lon="17.833489037757975"><ele>60.0</ele><time>2026-03-29T13:55:12Z</time></trkpt><trkpt lat="40.411342383875926" lon="17.833450017585587"><ele>60.0</ele><time>2026-03-29T13:55:13Z</time></trkpt><trkpt lat="40.411466078928335" lon="17.833431351178888"><ele>60.0</ele><time>2026-03-29T13:55:14Z</time></trkpt><trkpt lat="40.411589892591124" lon="17.833406453165875"><ele>60.0</ele><time>2026-03-29T13:55:15Z</time></trkpt><trkpt lat="40.41172160893901" lon="17.833389267022113"><ele>60.0</ele><time>2026-03-29T13:55:16Z</time></trkpt><trkpt lat="40.41185161332027" lon="17.8333741749121"><ele>60.0</ele><time>2026-03-29T13:55:17Z</time></trkpt><trkpt lat="40.41199116323476" lon="17.833352247673485"><ele>60.0</ele><time>2026-03-29T13:55:18Z</time></trkpt><trkpt lat="40.412138216846564" lon="17.833319232953087"><ele>60.0</ele><time>2026-03-29T13:55:19Z</time></trkpt><trkpt lat="40.412302806668635" lon="17.83328600368742"><ele>60.0</ele><time>2026-03-29T13:55:20Z</time></trkpt><trkpt lat="40.412468443033084" lon="17.83323974000039"><ele>60.0</ele><time>2026-03-29T13:55:21Z</time></trkpt><trkpt lat="40.41266093329315" lon="17.83321046068094"><ele>60.0</ele><time>2026-03-29T13:55:22Z</time></trkpt><trkpt lat="40.412855656895786" lon="17.83317942875531"><ele>60.0</ele><time>2026-03-29T13:55:23Z</time></trkpt><trkpt lat="40.413035261578" lon="17.83314464396558"><ele>59.75</ele><time>2026-03-29T13:55:24Z</time></trkpt><trkpt lat="40.41317724669402" lon="17.8331155469774"><ele>59.5</ele><time>2026-03-29T13:55:25Z</time></trkpt><trkpt lat="40.41331551475468" lon="17.833098891607982"><ele>59.25</ele><time>2026-03-29T13:55:26Z</time></trkpt><trkpt lat="40.41342315266628" lon="17.833062934667176"><ele>59.0</ele><time>2026-03-29T13:55:27Z</time></trkpt><trkpt lat="40.41351655628657" lon="17.833050046544496"><ele>59.00000000000001</ele><time>2026-03-29T13:55:28Z</time></trkpt><trkpt lat="40.41359948993174" lon="17.83303797264503"><ele>59.0</ele><time>2026-03-29T13:55:29Z</time></trkpt><trkpt lat="40.41366899680207" lon="17.833020969917587"><ele>59.0</ele><time>2026-03-29T13:55:30Z</time></trkpt><trkpt lat="40.41377921685468" lon="17.832989297858628"><ele>59.0</ele><time>2026-03-29T13:55:32Z</time></trkpt><trkpt lat="40.413823542674706" lon="17.83287331070293"><ele>59.00000000000001</ele><time>2026-03-29T13:55:34Z</time></trkpt><trkpt lat="40.41381003183475" lon="17.83279245028258"><ele>59.0</ele><time>2026-03-29T13:55:35Z</time></trkpt><trkpt lat="40.4137727476768" lon="17.832710757734176"><ele>59.0</ele><time>2026-03-29T13:55:36Z</time></trkpt><trkpt lat="40.41373034407691" lon="17.83260059935004"><ele>59.0</ele><time>2026-03-29T13:55:37Z</time></trkpt><trkpt lat="40.41369122844715" lon="17.832469338238056"><ele>59.0</ele><time>2026-03-29T13:55:38Z</time></trkpt><trkpt lat="40.413643667808806" lon="17.832329511521944"><ele>59.0</ele><time>2026-03-29T13:55:39Z</time></trkpt><trkpt lat="40.41359569157141" lon="17.83216625855551"><ele>59.0</ele><time>2026-03-29T13:55:40Z</time></trkpt><trkpt lat="40.41354682464499" lon="17.831994946121558"><ele>59.0</ele><time>2026-03-29T13:55:41Z</time></trkpt><trkpt lat="40.413495722960064" lon="17.83185450965576"><ele>59.0</ele><time>2026-03-29T13:55:42Z</time></trkpt><trkpt lat="40.41344561206865" lon="17.83172817998709"><ele>59.0</ele><time>2026-03-29T13:55:43Z</time></trkpt><trkpt lat="40.413385086944814" lon="17.831599425802935"><ele>59.2</ele><time>2026-03-29T13:55:44Z</time></trkpt><trkpt lat="40.41331657679692" lon="17.83148955878806"><ele>59.400000000000006</ele><time>2026-03-29T13:55:45Z</time></trkpt><trkpt lat="40.41326545653338" lon="17.831399378608214"><ele>59.6</ele><time>2026-03-29T13:55:46Z</time></trkpt><trkpt lat="40.41324225330647" lon="17.831295125853902"><ele>59.8</ele><time>2026-03-29T13:55:48Z</time></trkpt><trkpt lat="40.413335166886725" lon="17.831239616379634"><ele>60.0</ele><time>2026-03-29T13:55:50Z</time></trkpt><trkpt lat="40.41340580339629" lon="17.831260106615268"><ele>60.0</ele><time>2026-03-29T13:55:51Z</time></trkpt><trkpt lat="40.41351030458482" lon="17.831241571102"><ele>60.0</ele><time>2026-03-29T13:55:52Z</time></trkpt><trkpt lat="40.413621416645135" lon="17.8312201346048"><ele>60.0</ele><time>2026-03-29T13:55:53Z</time></trkpt><trkpt lat="40.413767701718356" lon="17.831198868458824"><ele>60.0</ele><time>2026-03-29T13:55:54Z</time></trkpt><trkpt lat="40.41393611967838" lon="17.831145849276197"><ele>60.4</ele><time>2026-03-29T13:55:55Z</time></trkpt><trkpt lat="40.41406437772464" lon="17.83112375604908"><ele>60.8</ele><time>2026-03-29T13:55:56Z</time></trkpt><trkpt lat="40.41416624449842" lon="17.83109486435065"><ele>61.2</ele><time>2026-03-29T13:55:57Z</time></trkpt><trkpt lat="40.41425987374217" lon="17.831086096744553"><ele>61.6</ele><time>2026-03-29T13:55:58Z</time></trkpt><trkpt lat="40.414330407230196" lon="17.831069437318884"><ele>62.0</ele><time>2026-03-29T13:55:59Z</time></trkpt><trkpt lat="40.414403234433344" lon="17.831051207695825"><ele>62.00000000000001</ele><time>2026-03-29T13:56:01Z</time></trkpt><trkpt lat="40.41448610590657" lon="17.83103585876772"><ele>62.0</ele><time>2026-03-29T13:56:04Z</time></trkpt><trkpt lat="40.41456399376974" lon="17.83101914840314"><ele>62.0</ele><time>2026-03-29T13:56:06Z</time></trkpt><trkpt lat="40.414629236598856" lon="17.831023499616023"><ele>62.0</ele><time>2026-03-29T13:56:08Z</time></trkpt><trkpt lat="40.41475370603256" lon="17.83099848310802"><ele>62.00000000000001</ele><time>2026-03-29T13:56:10Z</time></trkpt><trkpt lat="40.414830256484635" lon="17.830962191599276"><ele>62.0</ele><time>2026-03-29T13:56:11Z</time></trkpt><trkpt lat="40.41491196851498" lon="17.8309479565745"><ele>62.00000000000001</ele><time>2026-03-29T13:56:12Z</time></trkpt><trkpt lat="40.41499658626932" lon="17.830934456624558"><ele>62.0</ele><time>2026-03-29T13:56:13Z</time></trkpt><trkpt lat="40.41506949083495" lon="17.830919594227872"><ele>62.0</ele><time>2026-03-29T13:56:14Z</time></trkpt><trkpt lat="40.41514359456259" lon="17.830910172679573"><ele>62.0</ele><time>2026-03-29T13:56:15Z</time></trkpt><trkpt lat="40.415231303201516" lon="17.83089269618205"><ele>62.00000000000001</ele><time>2026-03-29T13:56:16Z</time></trkpt><trkpt lat="40.41532251820987" lon="17.830884161768843"><ele>62.0</ele><time>2026-03-29T13:56:17Z</time></trkpt><trkpt lat="40.415391947863974" lon="17.830870207431005"><ele>62.00000000000001</ele><time>2026-03-29T13:56:18Z</time></trkpt><trkpt lat="40.41547684529893" lon="17.830844397204437"><ele>62.0</ele><time>2026-03-29T13:56:19Z</time></trkpt><trkpt lat="40.415559585704585" lon="17.830821872115507"><ele>62.0</ele><time>2026-03-29T13:56:20Z</time></trkpt><trkpt lat="40.415669952322794" lon="17.830812847927398"><ele>62.0</ele><time>2026-03-29T13:56:22Z</time></trkpt><trkpt lat="40.41573493992191" lon="17.830784943932073"><ele>62.00000000000001</ele><time>2026-03-29T13:56:23Z</time></trkpt><trkpt lat="40.41582228751323" lon="17.830764299644493"><ele>62.0</ele><time>2026-03-29T13:56:24Z</time></trkpt><trkpt lat="40.415920093455426" lon="17.830738057511837"><ele>62.0</ele><time>2026-03-29T13:56:25Z</time></trkpt><trkpt lat="40.41603083683017" lon="17.83073561835754"><ele>62.0</ele><time>2026-03-29T13:56:26Z</time></trkpt><trkpt lat="40.416153940668366" lon="17.830709274033904"><ele>62.0</ele><time>2026-03-29T13:56:27Z</time></trkpt><trkpt lat="40.416260559454194" lon="17.830679610120495"><ele>62.0</ele><time>2026-03-29T13:56:28Z</time></trkpt><trkpt lat="40.41634986226391" lon="17.830653386781492"><ele>62.0</ele><time>2026-03-29T13:56:29Z</time></trkpt><trkpt lat="40.41644404559364" lon="17.83062389865815"><ele>62.0</ele><time>2026-03-29T13:56:30Z</time></trkpt><trkpt lat="40.416556490642215" lon="17.83057846938098"><ele>62.0</ele><time>2026-03-29T13:56:31Z</time></trkpt><trkpt lat="40.41667361590613" lon="17.830554578141847"><ele>62.0</ele><time>2026-03-29T13:56:32Z</time></trkpt><trkpt lat="40.4167634131225" lon="17.830526726817233"><ele>62.0</ele><time>2026-03-29T13:56:33Z</time></trkpt><trkpt lat="40.41687622725752" lon="17.830484195452257"><ele>62.0</ele><time>2026-03-29T13:56:34Z</time></trkpt><trkpt lat="40.41702924898947" lon="17.83045606982962"><ele>62.0</ele><time>2026-03-29T13:56:35Z</time></trkpt><trkpt lat="40.41716180951691" lon="17.830409406548288"><ele>62.0</ele><time>2026-03-29T13:56:36Z</time></trkpt><trkpt lat="40.41726945810851" lon="17.83038239637704"><ele>62.0</ele><time>2026-03-29T13:56:37Z</time></trkpt><trkpt lat="40.417351707352125" lon="17.830347192818262"><ele>62.0</ele><time>2026-03-29T13:56:38Z</time></trkpt><trkpt lat="40.417429177335265" lon="17.830311317663426"><ele>62.0</ele><time>2026-03-29T13:56:39Z</time></trkpt><trkpt lat="40.41751335281165" lon="17.830282843487737"><ele>62.0</ele><time>2026-03-29T13:56:40Z</time></trkpt><trkpt lat="40.41760155274989" lon="17.830250647139565"><ele>62.0</ele><time>2026-03-29T13:56:41Z</time></trkpt><trkpt lat="40.41767220362054" lon="17.830229399844626"><ele>62.0</ele><time>2026-03-29T13:56:42Z</time></trkpt><trkpt lat="40.41774955863359" lon="17.83020920492037"><ele>62.0</ele><time>2026-03-29T13:56:44Z</time></trkpt><trkpt lat="40.41779845097117" lon="17.83038114629394"><ele>62.0</ele><time>2026-03-29T13:57:05.999Z</time></trkpt><trkpt lat="40.41780917920324" lon="17.8304883569187"><ele>62.0</ele><time>2026-03-29T13:57:06.999Z</time></trkpt><trkpt lat="40.41782588250913" lon="17.830621693611473"><ele>62.0</ele><time>2026-03-29T13:57:07.999Z</time></trkpt><trkpt lat="40.41784462868623" lon="17.830786842204798"><ele>62.0</ele><time>2026-03-29T13:57:08.999Z</time></trkpt><trkpt lat="40.417848257222296" lon="17.83097365374345"><ele>62.0</ele><time>2026-03-29T13:57:09.999Z</time></trkpt><trkpt lat="40.41786653884114" lon="17.83119270769734"><ele>62.0</ele><time>2026-03-29T13:57:10.999Z</time></trkpt><trkpt lat="40.41788795308204" lon="17.831443569830377"><ele>62.0</ele><time>2026-03-29T13:57:11.999Z</time></trkpt><trkpt lat="40.41791079701797" lon="17.83171055050436"><ele>62.0</ele><time>2026-03-29T13:57:12.999Z</time></trkpt><trkpt lat="40.417935096017345" lon="17.831995286397227"><ele>62.333333333333336</ele><time>2026-03-29T13:57:14Z</time></trkpt><trkpt lat="40.41795717475034" lon="17.832253862352452"><ele>62.66666666666667</ele><time>2026-03-29T13:57:15Z</time></trkpt><trkpt lat="40.41797796626108" lon="17.83249747442392"><ele>63.0</ele><time>2026-03-29T13:57:16Z</time></trkpt><trkpt lat="40.41799800377377" lon="17.832732247829256"><ele>63.0</ele><time>2026-03-29T13:57:17Z</time></trkpt><trkpt lat="40.41801863565677" lon="17.83297398540994"><ele>63.0</ele><time>2026-03-29T13:57:18Z</time></trkpt><trkpt lat="40.41803892452453" lon="17.833198713954054"><ele>63.0</ele><time>2026-03-29T13:57:19Z</time></trkpt><trkpt lat="40.4180591533207" lon="17.83342443961943"><ele>63.0</ele><time>2026-03-29T13:57:20Z</time></trkpt><trkpt lat="40.41807975026291" lon="17.83365427329983"><ele>63.0</ele><time>2026-03-29T13:57:21Z</time></trkpt><trkpt lat="40.418097991607866" lon="17.833858829771884"><ele>63.0</ele><time>2026-03-29T13:57:22Z</time></trkpt><trkpt lat="40.41811860524683" lon="17.834090001851887"><ele>62.66666666666667</ele><time>2026-03-29T13:57:23Z</time></trkpt><trkpt lat="40.41814043144377" lon="17.834344544732062"><ele>62.333333333333336</ele><time>2026-03-29T13:57:24Z</time></trkpt><trkpt lat="40.41815839850961" lon="17.834553422758503"><ele>62.0</ele><time>2026-03-29T13:57:25Z</time></trkpt><trkpt lat="40.418176604724685" lon="17.8347651428479"><ele>62.0</ele><time>2026-03-29T13:57:26Z</time></trkpt><trkpt lat="40.418196255882044" lon="17.83499366618666"><ele>62.0</ele><time>2026-03-29T13:57:27Z</time></trkpt><trkpt lat="40.418216416505395" lon="17.835228114055237"><ele>62.0</ele><time>2026-03-29T13:57:28Z</time></trkpt><trkpt lat="40.41823457516528" lon="17.835439281129844"><ele>62.0</ele><time>2026-03-29T13:57:29Z</time></trkpt><trkpt lat="40.41824766441569" lon="17.835621282955305"><ele>62.0</ele><time>2026-03-29T13:57:30Z</time></trkpt><trkpt lat="40.418255612207076" lon="17.83575041408866"><ele>62.0</ele><time>2026-03-29T13:57:31Z</time></trkpt><trkpt lat="40.41846925071258" lon="17.83533311052693"><ele>62.0</ele><time>2026-03-29T13:57:51Z</time></trkpt><trkpt lat="40.41861935310921" lon="17.835166507004086"><ele>62.0</ele><time>2026-03-29T13:57:52Z</time></trkpt><trkpt lat="40.41867488129913" lon="17.835014389948334"><ele>62.0</ele><time>2026-03-29T13:57:53Z</time></trkpt><trkpt lat="40.41872556477441" lon="17.834834422284867"><ele>62.0</ele><time>2026-03-29T13:57:54Z</time></trkpt><trkpt lat="40.41877560537962" lon="17.834675470857352"><ele>62.0</ele><time>2026-03-29T13:57:55Z</time></trkpt><trkpt lat="40.41881811444517" lon="17.834551748631643"><ele>62.0</ele><time>2026-03-29T13:57:56Z</time></trkpt><trkpt lat="40.418840064850684" lon="17.834431555684887"><ele>62.0</ele><time>2026-03-29T13:57:57Z</time></trkpt><trkpt lat="40.418881698622236" lon="17.834312352271635"><ele>62.0</ele><time>2026-03-29T13:57:58Z</time></trkpt><trkpt lat="40.418905158405046" lon="17.834218844433373"><ele>62.25</ele><time>2026-03-29T13:57:59Z</time></trkpt><trkpt lat="40.41894297659702" lon="17.834108926999473"><ele>62.5</ele><time>2026-03-29T13:58:00Z</time></trkpt><trkpt lat="40.41897437548626" lon="17.833956096466096"><ele>62.75</ele><time>2026-03-29T13:58:01Z</time></trkpt><trkpt lat="40.41900669555386" lon="17.83378791377226"><ele>63.0</ele><time>2026-03-29T13:58:02Z</time></trkpt><trkpt lat="40.41905474854042" lon="17.83364978171187"><ele>63.0</ele><time>2026-03-29T13:58:03Z</time></trkpt><trkpt lat="40.419087449262356" lon="17.833515929782934"><ele>63.0</ele><time>2026-03-29T13:58:04Z</time></trkpt><trkpt lat="40.41914380574251" lon="17.833387975677375"><ele>63.0</ele><time>2026-03-29T13:58:05Z</time></trkpt><trkpt lat="40.41921586749444" lon="17.83325959881247"><ele>63.0</ele><time>2026-03-29T13:58:06Z</time></trkpt><trkpt lat="40.41928131023383" lon="17.83314657720028"><ele>63.0</ele><time>2026-03-29T13:58:07Z</time></trkpt><trkpt lat="40.41933620117384" lon="17.833056452539207"><ele>62.75</ele><time>2026-03-29T13:58:08Z</time></trkpt><trkpt lat="40.41938905469423" lon="17.832971829821616"><ele>62.5</ele><time>2026-03-29T13:58:10Z</time></trkpt><trkpt lat="40.419453010388054" lon="17.83299345225753"><ele>62.25</ele><time>2026-03-29T13:58:11Z</time></trkpt><trkpt lat="40.419621758012205" lon="17.83312069961858"><ele>62.0</ele><time>2026-03-29T13:58:13Z</time></trkpt><trkpt lat="40.41972902525098" lon="17.833160959347246"><ele>61.25</ele><time>2026-03-29T13:58:14Z</time></trkpt><trkpt lat="40.41985448429245" lon="17.83320599491959"><ele>60.5</ele><time>2026-03-29T13:58:15Z</time></trkpt><trkpt lat="40.419983207817246" lon="17.833251073025842"><ele>59.75</ele><time>2026-03-29T13:58:16Z</time></trkpt><trkpt lat="40.420129019570496" lon="17.83330213528259"><ele>59.0</ele><time>2026-03-29T13:58:17Z</time></trkpt><trkpt lat="40.4202830981503" lon="17.833355998521785"><ele>59.0</ele><time>2026-03-29T13:58:18Z</time></trkpt><trkpt lat="40.42044619255824" lon="17.833415401809557"><ele>59.0</ele><time>2026-03-29T13:58:19Z</time></trkpt><trkpt lat="40.420628709888796" lon="17.833482579117845"><ele>59.0</ele><time>2026-03-29T13:58:20Z</time></trkpt><trkpt lat="40.420807309676526" lon="17.83354831453974"><ele>59.25</ele><time>2026-03-29T13:58:21Z</time></trkpt><trkpt lat="40.42095812660646" lon="17.8336038241995"><ele>59.5</ele><time>2026-03-29T13:58:22Z</time></trkpt><trkpt lat="40.421103142719026" lon="17.83363737004243"><ele>59.75</ele><time>2026-03-29T13:58:23Z</time></trkpt><trkpt lat="40.42124137713501" lon="17.833685930337772"><ele>60.0</ele><time>2026-03-29T13:58:24Z</time></trkpt><trkpt lat="40.42137022072899" lon="17.83373193851329"><ele>60.0</ele><time>2026-03-29T13:58:25Z</time></trkpt><trkpt lat="40.42146403341857" lon="17.833759233046905"><ele>60.0</ele><time>2026-03-29T13:58:26Z</time></trkpt><trkpt lat="40.421541212724804" lon="17.833787960783962"><ele>60.0</ele><time>2026-03-29T13:58:27Z</time></trkpt><trkpt lat="40.4216079652853" lon="17.83383249591322"><ele>60.0</ele><time>2026-03-29T13:58:29Z</time></trkpt><trkpt lat="40.42156136877138" lon="17.833994625860594"><ele>60.0</ele><time>2026-03-29T13:58:32Z</time></trkpt><trkpt lat="40.42153705990037" lon="17.83413036083047"><ele>60.0</ele><time>2026-03-29T13:58:33Z</time></trkpt><trkpt lat="40.42151610876793" lon="17.834248016322903"><ele>60.0</ele><time>2026-03-29T13:58:34Z</time></trkpt><trkpt lat="40.42148960586306" lon="17.83440128839811"><ele>60.0</ele><time>2026-03-29T13:58:35Z</time></trkpt><trkpt lat="40.42146120319772" lon="17.834565546895178"><ele>60.0</ele><time>2026-03-29T13:58:36Z</time></trkpt><trkpt lat="40.421440938966626" lon="17.834658973154273"><ele>60.0</ele><time>2026-03-29T13:58:37Z</time></trkpt><trkpt lat="40.42140138813857" lon="17.834804087804052"><ele>60.0</ele><time>2026-03-29T13:58:38Z</time></trkpt><trkpt lat="40.421314560736285" lon="17.834918619008803"><ele>60.0</ele><time>2026-03-29T13:58:39Z</time></trkpt><trkpt lat="40.42123210841075" lon="17.835073860549834"><ele>60.0</ele><time>2026-03-29T13:58:40Z</time></trkpt><trkpt lat="40.42119556447759" lon="17.835234074854647"><ele>60.0</ele><time>2026-03-29T13:58:41Z</time></trkpt><trkpt lat="40.4211718712591" lon="17.83540071609468"><ele>60.0</ele><time>2026-03-29T13:58:42Z</time></trkpt><trkpt lat="40.42115142943275" lon="17.835494015605292"><ele>60.0</ele><time>2026-03-29T13:58:43Z</time></trkpt><trkpt lat="40.42110466107678" lon="17.83560017632286"><ele>60.0</ele><time>2026-03-29T13:58:44Z</time></trkpt><trkpt lat="40.42107222217764" lon="17.83570223995633"><ele>60.0</ele><time>2026-03-29T13:58:45Z</time></trkpt><trkpt lat="40.421068939453626" lon="17.83588136123865"><ele>60.0</ele><time>2026-03-29T13:58:47Z</time></trkpt><trkpt lat="40.421042323881885" lon="17.83602011892579"><ele>60.4</ele><time>2026-03-29T13:58:48Z</time></trkpt><trkpt lat="40.42101623696714" lon="17.836155799848015"><ele>60.8</ele><time>2026-03-29T13:58:49Z</time></trkpt><trkpt lat="40.42101349179857" lon="17.836281593223866"><ele>61.2</ele><time>2026-03-29T13:58:50Z</time></trkpt><trkpt lat="40.42096287384147" lon="17.836388450451093"><ele>61.6</ele><time>2026-03-29T13:58:51Z</time></trkpt><trkpt lat="40.42093704225875" lon="17.836484522418885"><ele>62.0</ele><time>2026-03-29T13:58:51.999Z</time></trkpt><trkpt lat="40.42086793789945" lon="17.83659918845816"><ele>62.0</ele><time>2026-03-29T13:58:53.999Z</time></trkpt><trkpt lat="40.42086504520152" lon="17.836702664151577"><ele>62.0</ele><time>2026-03-29T13:58:54.999Z</time></trkpt><trkpt lat="40.42085558584535" lon="17.836827545627035"><ele>62.0</ele><time>2026-03-29T13:58:55.999Z</time></trkpt><trkpt lat="40.420838285060846" lon="17.836992312888018"><ele>62.0</ele><time>2026-03-29T13:58:56.999Z</time></trkpt><trkpt lat="40.420806740734626" lon="17.837164277759413"><ele>62.0</ele><time>2026-03-29T13:58:57.999Z</time></trkpt><trkpt lat="40.420787744399156" lon="17.837323639211025"><ele>61.8</ele><time>2026-03-29T13:58:58.999Z</time></trkpt><trkpt lat="40.420771923165624" lon="17.837477792148"><ele>61.6</ele><time>2026-03-29T13:58:59.999Z</time></trkpt><trkpt lat="40.420775643708396" lon="17.837631604171982"><ele>61.39999999999999</ele><time>2026-03-29T13:59:00.999Z</time></trkpt><trkpt lat="40.420761934256944" lon="17.837764992549275"><ele>61.199999999999996</ele><time>2026-03-29T13:59:01.999Z</time></trkpt><trkpt lat="40.42075508038439" lon="17.837871935648423"><ele>61.0</ele><time>2026-03-29T13:59:02.999Z</time></trkpt><trkpt lat="40.42075327020147" lon="17.83796850874399"><ele>61.0</ele><time>2026-03-29T13:59:03.999Z</time></trkpt><trkpt lat="40.42073377003746" lon="17.838119756874608"><ele>60.99999999999999</ele><time>2026-03-29T13:59:05.999Z</time></trkpt><trkpt lat="40.420783179250336" lon="17.838191355483062"><ele>60.99999999999999</ele><time>2026-03-29T13:59:08.999Z</time></trkpt><trkpt lat="40.42090074349078" lon="17.838203920346707"><ele>61.0</ele><time>2026-03-29T13:59:10.999Z</time></trkpt><trkpt lat="40.42096947951787" lon="17.838239931412552"><ele>61.0</ele><time>2026-03-29T13:59:12.999Z</time></trkpt><trkpt lat="40.42095381341888" lon="17.838392197429158"><ele>60.75</ele><time>2026-03-29T13:59:14.999Z</time></trkpt><trkpt lat="40.420933241600686" lon="17.838508096181705"><ele>60.5</ele><time>2026-03-29T13:59:15.999Z</time></trkpt><trkpt lat="40.42090537441355" lon="17.838638970239383"><ele>60.25</ele><time>2026-03-29T13:59:16.999Z</time></trkpt><trkpt lat="40.420865310074326" lon="17.83880021984915"><ele>60.0</ele><time>2026-03-29T13:59:17.999Z</time></trkpt><trkpt lat="40.420837582047646" lon="17.839007317268365"><ele>60.0</ele><time>2026-03-29T13:59:18.999Z</time></trkpt><trkpt lat="40.42079373391367" lon="17.839225758297992"><ele>60.0</ele><time>2026-03-29T13:59:20Z</time></trkpt><trkpt lat="40.42072771678847" lon="17.839408245827236"><ele>60.0</ele><time>2026-03-29T13:59:21Z</time></trkpt><trkpt lat="40.420698190288796" lon="17.839568964451264"><ele>60.0</ele><time>2026-03-29T13:59:22Z</time></trkpt><trkpt lat="40.420672707977914" lon="17.83970766972207"><ele>60.0</ele><time>2026-03-29T13:59:23Z</time></trkpt><trkpt lat="40.420651611696805" lon="17.839822500989467"><ele>60.0</ele><time>2026-03-29T13:59:24Z</time></trkpt><trkpt lat="40.42063508925395" lon="17.83991136554862"><ele>60.0</ele><time>2026-03-29T13:59:25Z</time></trkpt><trkpt lat="40.420608104088835" lon="17.84005545247591"><ele>60.0</ele><time>2026-03-29T13:59:27Z</time></trkpt><trkpt lat="40.420592810677874" lon="17.84013711142024"><ele>60.0</ele><time>2026-03-29T13:59:28Z</time></trkpt><trkpt lat="40.42057200293939" lon="17.840248214065845"><ele>59.833333333333336</ele><time>2026-03-29T13:59:29Z</time></trkpt><trkpt lat="40.42054819771328" lon="17.840355315402956"><ele>59.66666666666667</ele><time>2026-03-29T13:59:30Z</time></trkpt><trkpt lat="40.42054368219108" lon="17.84043935816153"><ele>59.5</ele><time>2026-03-29T13:59:34Z</time></trkpt><trkpt lat="40.42058253943925" lon="17.840526412229508"><ele>59.333333333333336</ele><time>2026-03-29T13:59:37Z</time></trkpt><trkpt lat="40.42067001671737" lon="17.84054165261708"><ele>59.16666666666667</ele><time>2026-03-29T13:59:40Z</time></trkpt><trkpt lat="40.4207721037648" lon="17.840559980490614"><ele>59.0</ele><time>2026-03-29T13:59:42Z</time></trkpt><trkpt lat="40.420915803418225" lon="17.840608754743418"><ele>59.0</ele><time>2026-03-29T13:59:44Z</time></trkpt><trkpt lat="40.42101476916465" lon="17.840631702625096"><ele>59.0</ele><time>2026-03-29T13:59:45Z</time></trkpt><trkpt lat="40.42115287336078" lon="17.840663222128175"><ele>59.0</ele><time>2026-03-29T13:59:46Z</time></trkpt><trkpt lat="40.42127221564882" lon="17.840687594129463"><ele>59.0</ele><time>2026-03-29T13:59:47Z</time></trkpt><trkpt lat="40.4213876253763" lon="17.840696200447617"><ele>58.75</ele><time>2026-03-29T13:59:48Z</time></trkpt><trkpt lat="40.42149251840312" lon="17.840731464337736"><ele>58.5</ele><time>2026-03-29T13:59:49Z</time></trkpt><trkpt lat="40.42160863795217" lon="17.84075399804841"><ele>58.25</ele><time>2026-03-29T13:59:50Z</time></trkpt><trkpt lat="40.421710893889596" lon="17.840773173450433"><ele>58.0</ele><time>2026-03-29T13:59:51Z</time></trkpt><trkpt lat="40.42184715912585" lon="17.840798726387227"><ele>58.0</ele><time>2026-03-29T13:59:52Z</time></trkpt><trkpt lat="40.42199755048973" lon="17.8408240186106"><ele>58.0</ele><time>2026-03-29T13:59:53Z</time></trkpt><trkpt lat="40.422114234314286" lon="17.840859892861193"><ele>58.0</ele><time>2026-03-29T13:59:54Z</time></trkpt><trkpt lat="40.42221753871874" lon="17.8408838454107"><ele>58.0</ele><time>2026-03-29T13:59:55Z</time></trkpt><trkpt lat="40.42232964300055" lon="17.840909209683836"><ele>58.0</ele><time>2026-03-29T13:59:56Z</time></trkpt><trkpt lat="40.422426543531245" lon="17.8409441773178"><ele>58.0</ele><time>2026-03-29T13:59:57Z</time></trkpt><trkpt lat="40.4225384901912" lon="17.84097787621967"><ele>58.0</ele><time>2026-03-29T13:59:58Z</time></trkpt><trkpt lat="40.42267933132701" lon="17.841005728302125"><ele>58.0</ele><time>2026-03-29T13:59:59Z</time></trkpt><trkpt lat="40.422812558568424" lon="17.84099521470422"><ele>58.0</ele><time>2026-03-29T14:00:00Z</time></trkpt><trkpt lat="40.42294277677397" lon="17.84102847220175"><ele>58.0</ele><time>2026-03-29T14:00:01Z</time></trkpt><trkpt lat="40.42306217960378" lon="17.84105856160658"><ele>58.0</ele><time>2026-03-29T14:00:02Z</time></trkpt><trkpt lat="40.423173086763995" lon="17.84107049636064"><ele>58.0</ele><time>2026-03-29T14:00:03Z</time></trkpt><trkpt lat="40.42326934061992" lon="17.841094501050446"><ele>58.2</ele><time>2026-03-29T14:00:04Z</time></trkpt><trkpt lat="40.42336436073632" lon="17.841100645132"><ele>58.4</ele><time>2026-03-29T14:00:05Z</time></trkpt><trkpt lat="40.4234473862519" lon="17.841114408807133"><ele>58.60000000000001</ele><time>2026-03-29T14:00:06Z</time></trkpt><trkpt lat="40.42355236262498" lon="17.841141835975563"><ele>58.800000000000004</ele><time>2026-03-29T14:00:07Z</time></trkpt><trkpt lat="40.42365516651488" lon="17.84116054051301"><ele>59.0</ele><time>2026-03-29T14:00:08Z</time></trkpt><trkpt lat="40.42377232068365" lon="17.841177735107454"><ele>59.0</ele><time>2026-03-29T14:00:09Z</time></trkpt><trkpt lat="40.42390516107031" lon="17.841198923771415"><ele>59.0</ele><time>2026-03-29T14:00:10Z</time></trkpt><trkpt lat="40.424053758776864" lon="17.841214988020997"><ele>59.0</ele><time>2026-03-29T14:00:11Z</time></trkpt><trkpt lat="40.42421419093897" lon="17.841213696601258"><ele>59.0</ele><time>2026-03-29T14:00:12Z</time></trkpt><trkpt lat="40.42440230688065" lon="17.841189886718798"><ele>59.0</ele><time>2026-03-29T14:00:13Z</time></trkpt><trkpt lat="40.424600465631556" lon="17.841159138448372"><ele>59.0</ele><time>2026-03-29T14:00:14Z</time></trkpt><trkpt lat="40.4247871174711" lon="17.841129095347767"><ele>59.0</ele><time>2026-03-29T14:00:15Z</time></trkpt><trkpt lat="40.42496007015763" lon="17.841104187495475"><ele>58.75</ele><time>2026-03-29T14:00:16Z</time></trkpt><trkpt lat="40.42505870827005" lon="17.84107944677232"><ele>58.5</ele><time>2026-03-29T14:00:17Z</time></trkpt><trkpt lat="40.42516955287341" lon="17.841057175260797"><ele>58.25</ele><time>2026-03-29T14:00:18Z</time></trkpt><trkpt lat="40.42531157879406" lon="17.841036711485483"><ele>58.0</ele><time>2026-03-29T14:00:19Z</time></trkpt><trkpt lat="40.42547720799844" lon="17.841005941905163"><ele>57.0</ele><time>2026-03-29T14:00:20Z</time></trkpt><trkpt lat="40.42568340955137" lon="17.84097501208075"><ele>56.0</ele><time>2026-03-29T14:00:21Z</time></trkpt><trkpt lat="40.42589573310018" lon="17.840957129741653"><ele>55.0</ele><time>2026-03-29T14:00:22Z</time></trkpt><trkpt lat="40.42613673317942" lon="17.84090413017546"><ele>55.5</ele><time>2026-03-29T14:00:23Z</time></trkpt><trkpt lat="40.42638890623222" lon="17.840867502063027"><ele>56.0</ele><time>2026-03-29T14:00:24Z</time></trkpt><trkpt lat="40.426644388206576" lon="17.84082915601101"><ele>56.0</ele><time>2026-03-29T14:00:25Z</time></trkpt><trkpt lat="40.426924016939864" lon="17.84080384408698"><ele>56.0</ele><time>2026-03-29T14:00:26Z</time></trkpt><trkpt lat="40.42720029802131" lon="17.840756584488247"><ele>56.0</ele><time>2026-03-29T14:00:27Z</time></trkpt><trkpt lat="40.42748172520509" lon="17.84071204905544"><ele>56.0</ele><time>2026-03-29T14:00:28Z</time></trkpt><trkpt lat="40.42776629394878" lon="17.840689285357133"><ele>55.0</ele><time>2026-03-29T14:00:29Z</time></trkpt><trkpt lat="40.42805340128706" lon="17.840647421205272"><ele>54.0</ele><time>2026-03-29T14:00:30Z</time></trkpt><trkpt lat="40.42835087472595" lon="17.84058447546456"><ele>54.0</ele><time>2026-03-29T14:00:31Z</time></trkpt><trkpt lat="40.42865226875275" lon="17.84055952345126"><ele>54.0</ele><time>2026-03-29T14:00:32Z</time></trkpt><trkpt lat="40.42897082718836" lon="17.840512655880747"><ele>53.5</ele><time>2026-03-29T14:00:33Z</time></trkpt><trkpt lat="40.42931067696359" lon="17.840451743455002"><ele>53.0</ele><time>2026-03-29T14:00:34Z</time></trkpt><trkpt lat="40.42964495784696" lon="17.840400127082127"><ele>53.0</ele><time>2026-03-29T14:00:35Z</time></trkpt><trkpt lat="40.42999855576297" lon="17.84034514693908"><ele>53.0</ele><time>2026-03-29T14:00:36Z</time></trkpt><trkpt lat="40.43036402877267" lon="17.84029011397174"><ele>53.5</ele><time>2026-03-29T14:00:37Z</time></trkpt><trkpt lat="40.43074048779884" lon="17.840237796225733"><ele>54.0</ele><time>2026-03-29T14:00:38Z</time></trkpt><trkpt lat="40.43107103008351" lon="17.840203599091097"><ele>54.0</ele><time>2026-03-29T14:00:39Z</time></trkpt><trkpt lat="40.431434586214834" lon="17.840150639191346"><ele>54.0</ele><time>2026-03-29T14:00:40Z</time></trkpt><trkpt lat="40.431794813561325" lon="17.840097467561247"><ele>53.5</ele><time>2026-03-29T14:00:41Z</time></trkpt><trkpt lat="40.432205181084626" lon="17.84003670256461"><ele>53.0</ele><time>2026-03-29T14:00:42Z</time></trkpt><trkpt lat="40.43259082642744" lon="17.83996425194507"><ele>53.0</ele><time>2026-03-29T14:00:43Z</time></trkpt><trkpt lat="40.43296387752081" lon="17.83990902670079"><ele>53.0</ele><time>2026-03-29T14:00:44Z</time></trkpt><trkpt lat="40.433342059569334" lon="17.839851430642106"><ele>53.0</ele><time>2026-03-29T14:00:45Z</time></trkpt><trkpt lat="40.433721560635064" lon="17.839812165346363"><ele>53.0</ele><time>2026-03-29T14:00:46Z</time></trkpt><trkpt lat="40.43409884221534" lon="17.839735611023908"><ele>53.0</ele><time>2026-03-29T14:00:47Z</time></trkpt><trkpt lat="40.43447263296023" lon="17.839684265532746"><ele>53.0</ele><time>2026-03-29T14:00:48Z</time></trkpt><trkpt lat="40.43482823400902" lon="17.839630064583076"><ele>53.0</ele><time>2026-03-29T14:00:49Z</time></trkpt><trkpt lat="40.435173583909254" lon="17.839599765990286"><ele>53.0</ele><time>2026-03-29T14:00:50Z</time></trkpt><trkpt lat="40.43550597225371" lon="17.83953021871539"><ele>53.0</ele><time>2026-03-29T14:00:51Z</time></trkpt><trkpt lat="40.4358312055532" lon="17.839491153688954"><ele>53.0</ele><time>2026-03-29T14:00:52Z</time></trkpt><trkpt lat="40.43616131867716" lon="17.839493696245448"><ele>52.5</ele><time>2026-03-29T14:00:53Z</time></trkpt><trkpt lat="40.43649286205016" lon="17.839492903668354"><ele>52.0</ele><time>2026-03-29T14:00:54Z</time></trkpt><trkpt lat="40.43681369951435" lon="17.839487701819237"><ele>52.0</ele><time>2026-03-29T14:00:55Z</time></trkpt><trkpt lat="40.43710481745182" lon="17.839523754566738"><ele>52.0</ele><time>2026-03-29T14:00:56Z</time></trkpt><trkpt lat="40.43737609072997" lon="17.839489439473056"><ele>52.0</ele><time>2026-03-29T14:00:57Z</time></trkpt><trkpt lat="40.43763451072616" lon="17.839500213855693"><ele>52.0</ele><time>2026-03-29T14:00:58Z</time></trkpt><trkpt lat="40.437879840887724" lon="17.83952078188369"><ele>51.5</ele><time>2026-03-29T14:00:59Z</time></trkpt><trkpt lat="40.43814182099125" lon="17.83960902680133"><ele>51.0</ele><time>2026-03-29T14:01:00Z</time></trkpt><trkpt lat="40.438423947803315" lon="17.83971848031865"><ele>51.0</ele><time>2026-03-29T14:01:01Z</time></trkpt><trkpt lat="40.43868300069738" lon="17.839821235393956"><ele>51.0</ele><time>2026-03-29T14:01:02Z</time></trkpt><trkpt lat="40.43891933250015" lon="17.839896103238818"><ele>50.0</ele><time>2026-03-29T14:01:03Z</time></trkpt><trkpt lat="40.43915283537679" lon="17.839991528948346"><ele>49.0</ele><time>2026-03-29T14:01:04Z</time></trkpt><trkpt lat="40.43936229748402" lon="17.840075536543946"><ele>48.33333333333333</ele><time>2026-03-29T14:01:05Z</time></trkpt><trkpt lat="40.43956000649786" lon="17.840151515935045"><ele>47.666666666666664</ele><time>2026-03-29T14:01:06Z</time></trkpt><trkpt lat="40.439759271718394" lon="17.84021626578519"><ele>47.0</ele><time>2026-03-29T14:01:07Z</time></trkpt><trkpt lat="40.4399351866953" lon="17.84027878697557"><ele>46.8</ele><time>2026-03-29T14:01:08Z</time></trkpt><trkpt lat="40.44004139913196" lon="17.840327279833755"><ele>46.6</ele><time>2026-03-29T14:01:09Z</time></trkpt><trkpt lat="40.44015484528928" lon="17.840382893336795"><ele>46.4</ele><time>2026-03-29T14:01:10Z</time></trkpt><trkpt lat="40.440248877517426" lon="17.8404534105906"><ele>46.199999999999996</ele><time>2026-03-29T14:01:11Z</time></trkpt><trkpt lat="40.440306258409024" lon="17.840551119372904"><ele>46.0</ele><time>2026-03-29T14:01:12Z</time></trkpt><trkpt lat="40.44035208853413" lon="17.84067433163549"><ele>46.0</ele><time>2026-03-29T14:01:13Z</time></trkpt><trkpt lat="40.44039799723136" lon="17.840823412089623"><ele>46.0</ele><time>2026-03-29T14:01:14Z</time></trkpt><trkpt lat="40.44047110257959" lon="17.840941491628314"><ele>46.0</ele><time>2026-03-29T14:01:15Z</time></trkpt><trkpt lat="40.440572074069046" lon="17.8409976508158"><ele>46.0</ele><time>2026-03-29T14:01:16Z</time></trkpt><trkpt lat="40.44065619702837" lon="17.841080596911947"><ele>46.0</ele><time>2026-03-29T14:01:16.999Z</time></trkpt><trkpt lat="40.44077412767724" lon="17.841084878591985"><ele>46.0</ele><time>2026-03-29T14:01:17.999Z</time></trkpt><trkpt lat="40.44088805632299" lon="17.841024880247627"><ele>46.0</ele><time>2026-03-29T14:01:18.999Z</time></trkpt><trkpt lat="40.44101214353794" lon="17.840925564854665"><ele>46.0</ele><time>2026-03-29T14:01:19.999Z</time></trkpt><trkpt lat="40.44115036035274" lon="17.840845054864186"><ele>46.0</ele><time>2026-03-29T14:01:20.999Z</time></trkpt><trkpt lat="40.44129168674386" lon="17.840826975209392"><ele>46.0</ele><time>2026-03-29T14:01:21.999Z</time></trkpt><trkpt lat="40.44145420096459" lon="17.840855481185223"><ele>46.0</ele><time>2026-03-29T14:01:22.999Z</time></trkpt><trkpt lat="40.441655446514694" lon="17.840903413032642"><ele>46.0</ele><time>2026-03-29T14:01:23.999Z</time></trkpt><trkpt lat="40.44188189015125" lon="17.840997645791283"><ele>46.0</ele><time>2026-03-29T14:01:24.999Z</time></trkpt><trkpt lat="40.44215063766003" lon="17.841089851800504"><ele>46.0</ele><time>2026-03-29T14:01:26Z</time></trkpt><trkpt lat="40.442456235254376" lon="17.841164468447055"><ele>46.0</ele><time>2026-03-29T14:01:27Z</time></trkpt><trkpt lat="40.442800576141536" lon="17.841214160416417"><ele>46.0</ele><time>2026-03-29T14:01:28Z</time></trkpt><trkpt lat="40.44314008651688" lon="17.84126362822634"><ele>46.0</ele><time>2026-03-29T14:01:29Z</time></trkpt><trkpt lat="40.44344617959154" lon="17.841248404097783"><ele>46.0</ele><time>2026-03-29T14:01:30Z</time></trkpt><trkpt lat="40.44379488922825" lon="17.841265354563085"><ele>46.0</ele><time>2026-03-29T14:01:31Z</time></trkpt><trkpt lat="40.44416066282031" lon="17.841293032107373"><ele>46.0</ele><time>2026-03-29T14:01:32Z</time></trkpt><trkpt lat="40.444551938843375" lon="17.84131643279214"><ele>46.0</ele><time>2026-03-29T14:01:33Z</time></trkpt><trkpt lat="40.44493979014941" lon="17.841337577334716"><ele>47.0</ele><time>2026-03-29T14:01:34Z</time></trkpt><trkpt lat="40.445345974906004" lon="17.84135835197283"><ele>48.0</ele><time>2026-03-29T14:01:35Z</time></trkpt><trkpt lat="40.4457436165938" lon="17.841394947907506"><ele>48.5</ele><time>2026-03-29T14:01:36Z</time></trkpt><trkpt lat="40.44610440542407" lon="17.84140493760982"><ele>49.0</ele><time>2026-03-29T14:01:37Z</time></trkpt><trkpt lat="40.4464748362502" lon="17.841431933079203"><ele>49.5</ele><time>2026-03-29T14:01:38Z</time></trkpt><trkpt lat="40.44685213516858" lon="17.841446553827137"><ele>50.0</ele><time>2026-03-29T14:01:39Z</time></trkpt><trkpt lat="40.447219883031686" lon="17.84145282832282"><ele>50.0</ele><time>2026-03-29T14:01:40Z</time></trkpt><trkpt lat="40.44759371324816" lon="17.84144801645978"><ele>50.0</ele><time>2026-03-29T14:01:41Z</time></trkpt><trkpt lat="40.44796084592904" lon="17.841414452667422"><ele>50.0</ele><time>2026-03-29T14:01:42Z</time></trkpt><trkpt lat="40.44831987155198" lon="17.84135144305171"><ele>50.0</ele><time>2026-03-29T14:01:43Z</time></trkpt><trkpt lat="40.448698889816484" lon="17.841279878317476"><ele>50.5</ele><time>2026-03-29T14:01:44Z</time></trkpt><trkpt lat="40.449072185881036" lon="17.84119905309346"><ele>51.0</ele><time>2026-03-29T14:01:45Z</time></trkpt><trkpt lat="40.44944793725034" lon="17.841112269668663"><ele>51.0</ele><time>2026-03-29T14:01:46Z</time></trkpt><trkpt lat="40.44981569008871" lon="17.841037279058124"><ele>51.0</ele><time>2026-03-29T14:01:47Z</time></trkpt><trkpt lat="40.450187190892706" lon="17.840963013855895"><ele>52.0</ele><time>2026-03-29T14:01:48Z</time></trkpt><trkpt lat="40.45054155397917" lon="17.84088859675988"><ele>53.0</ele><time>2026-03-29T14:01:49Z</time></trkpt><trkpt lat="40.45088683349024" lon="17.840827790010096"><ele>53.0</ele><time>2026-03-29T14:01:50Z</time></trkpt><trkpt lat="40.45124095259712" lon="17.840751681996355"><ele>53.0</ele><time>2026-03-29T14:01:51Z</time></trkpt><trkpt lat="40.451586019799805" lon="17.840679601957028"><ele>52.0</ele><time>2026-03-29T14:01:52Z</time></trkpt><trkpt lat="40.4519229715263" lon="17.84060753415614"><ele>51.0</ele><time>2026-03-29T14:01:53Z</time></trkpt><trkpt lat="40.45226891773089" lon="17.84053450528773"><ele>51.0</ele><time>2026-03-29T14:01:54Z</time></trkpt><trkpt lat="40.45261258994099" lon="17.840454254925874"><ele>51.0</ele><time>2026-03-29T14:01:55Z</time></trkpt><trkpt lat="40.45293901665744" lon="17.84040517066865"><ele>51.0</ele><time>2026-03-29T14:01:56Z</time></trkpt><trkpt lat="40.453276848690244" lon="17.84034129812753"><ele>51.0</ele><time>2026-03-29T14:01:57Z</time></trkpt><trkpt lat="40.45361811581782" lon="17.840279313322018"><ele>52.0</ele><time>2026-03-29T14:01:58Z</time></trkpt><trkpt lat="40.45395811922111" lon="17.840226692895676"><ele>53.0</ele><time>2026-03-29T14:01:59Z</time></trkpt><trkpt lat="40.454301200081055" lon="17.84017365352672"><ele>52.5</ele><time>2026-03-29T14:02:00Z</time></trkpt><trkpt lat="40.45464311894834" lon="17.840124070004613"><ele>52.0</ele><time>2026-03-29T14:02:01Z</time></trkpt><trkpt lat="40.45498610380038" lon="17.840062237324727"><ele>52.0</ele><time>2026-03-29T14:02:02Z</time></trkpt><trkpt lat="40.45533152970765" lon="17.839998705761992"><ele>52.0</ele><time>2026-03-29T14:02:03Z</time></trkpt><trkpt lat="40.455679104193315" lon="17.83994698046725"><ele>53.0</ele><time>2026-03-29T14:02:04Z</time></trkpt><trkpt lat="40.456025705573424" lon="17.839894954035305"><ele>54.0</ele><time>2026-03-29T14:02:05Z</time></trkpt><trkpt lat="40.45637397209083" lon="17.83983927980166"><ele>54.5</ele><time>2026-03-29T14:02:06Z</time></trkpt><trkpt lat="40.45672839593157" lon="17.839778161901968"><ele>55.0</ele><time>2026-03-29T14:02:07Z</time></trkpt><trkpt lat="40.457102628259435" lon="17.83972755158744"><ele>55.0</ele><time>2026-03-29T14:02:08Z</time></trkpt><trkpt lat="40.45749382953399" lon="17.839710432977967"><ele>55.0</ele><time>2026-03-29T14:02:09Z</time></trkpt><trkpt lat="40.457899297105016" lon="17.839631716786094"><ele>55.0</ele><time>2026-03-29T14:02:10Z</time></trkpt><trkpt lat="40.45831861826114" lon="17.839571257807876"><ele>55.0</ele><time>2026-03-29T14:02:11Z</time></trkpt><trkpt lat="40.458748819220766" lon="17.839501269378754"><ele>55.0</ele><time>2026-03-29T14:02:12Z</time></trkpt><trkpt lat="40.45918922391184" lon="17.839425061234657"><ele>55.0</ele><time>2026-03-29T14:02:13Z</time></trkpt><trkpt lat="40.45963973541491" lon="17.839347986527834"><ele>55.0</ele><time>2026-03-29T14:02:14Z</time></trkpt><trkpt lat="40.46009366472194" lon="17.839267940309337"><ele>56.0</ele><time>2026-03-29T14:02:15Z</time></trkpt><trkpt lat="40.46055826935558" lon="17.83921811662342"><ele>56.0</ele><time>2026-03-29T14:02:16Z</time></trkpt><trkpt lat="40.461019666969754" lon="17.839153950630063"><ele>57.5</ele><time>2026-03-29T14:02:17Z</time></trkpt><trkpt lat="40.4614601952262" lon="17.839085887531688"><ele>59.0</ele><time>2026-03-29T14:02:18Z</time></trkpt><trkpt lat="40.46188960514477" lon="17.839016441062792"><ele>59.0</ele><time>2026-03-29T14:02:19Z</time></trkpt><trkpt lat="40.46232521968578" lon="17.838939422244923"><ele>59.0</ele><time>2026-03-29T14:02:20Z</time></trkpt><trkpt lat="40.462747506682305" lon="17.83886410472093"><ele>57.5</ele><time>2026-03-29T14:02:21Z</time></trkpt><trkpt lat="40.46313995383559" lon="17.83880411570431"><ele>56.0</ele><time>2026-03-29T14:02:22Z</time></trkpt><trkpt lat="40.46352254756824" lon="17.838746895666393"><ele>56.0</ele><time>2026-03-29T14:02:23Z</time></trkpt><trkpt lat="40.4639077912137" lon="17.838693697585942"><ele>56.0</ele><time>2026-03-29T14:02:24Z</time></trkpt><trkpt lat="40.46428530299203" lon="17.838642887361182"><ele>56.0</ele><time>2026-03-29T14:02:25Z</time></trkpt><trkpt lat="40.46466417036451" lon="17.83857335110932"><ele>56.0</ele><time>2026-03-29T14:02:26Z</time></trkpt><trkpt lat="40.46504142688397" lon="17.838510836629958"><ele>56.0</ele><time>2026-03-29T14:02:27Z</time></trkpt><trkpt lat="40.465411313534034" lon="17.838463153704687"><ele>56.0</ele><time>2026-03-29T14:02:28Z</time></trkpt><trkpt lat="40.46577018852544" lon="17.838414225994768"><ele>55.0</ele><time>2026-03-29T14:02:29Z</time></trkpt><trkpt lat="40.46613005587378" lon="17.83838435943271"><ele>54.0</ele><time>2026-03-29T14:02:30Z</time></trkpt><trkpt lat="40.46649094904832" lon="17.838365759697645"><ele>54.0</ele><time>2026-03-29T14:02:31Z</time></trkpt><trkpt lat="40.46685420045243" lon="17.838351966315212"><ele>54.0</ele><time>2026-03-29T14:02:32Z</time></trkpt><trkpt lat="40.4672253525532" lon="17.83833374749443"><ele>55.0</ele><time>2026-03-29T14:02:33Z</time></trkpt><trkpt lat="40.46757651774867" lon="17.838296148846776"><ele>56.0</ele><time>2026-03-29T14:02:34Z</time></trkpt><trkpt lat="40.467920989476646" lon="17.838271941475497"><ele>56.5</ele><time>2026-03-29T14:02:35Z</time></trkpt><trkpt lat="40.46826031802891" lon="17.838268245155287"><ele>57.0</ele><time>2026-03-29T14:02:36Z</time></trkpt><trkpt lat="40.46860038619339" lon="17.838227976659375"><ele>56.0</ele><time>2026-03-29T14:02:37Z</time></trkpt><trkpt lat="40.468948405319836" lon="17.838220327594044"><ele>55.0</ele><time>2026-03-29T14:02:38Z</time></trkpt><trkpt lat="40.46929455558984" lon="17.838172276983776"><ele>55.5</ele><time>2026-03-29T14:02:39Z</time></trkpt><trkpt lat="40.4696446533517" lon="17.838143076623094"><ele>56.0</ele><time>2026-03-29T14:02:40Z</time></trkpt><trkpt lat="40.46999058474599" lon="17.838105034442385"><ele>56.0</ele><time>2026-03-29T14:02:41Z</time></trkpt><trkpt lat="40.47033033626387" lon="17.83806275047288"><ele>56.0</ele><time>2026-03-29T14:02:42Z</time></trkpt><trkpt lat="40.47067789592335" lon="17.83802146942974"><ele>56.0</ele><time>2026-03-29T14:02:43Z</time></trkpt><trkpt lat="40.471026284248204" lon="17.83798747205156"><ele>56.0</ele><time>2026-03-29T14:02:44Z</time></trkpt><trkpt lat="40.47137008939394" lon="17.83795328498778"><ele>56.5</ele><time>2026-03-29T14:02:45Z</time></trkpt><trkpt lat="40.471687006405716" lon="17.837938440749685"><ele>57.0</ele><time>2026-03-29T14:02:46Z</time></trkpt><trkpt lat="40.47203469411676" lon="17.837881309133838"><ele>55.5</ele><time>2026-03-29T14:02:47Z</time></trkpt><trkpt lat="40.472365031175364" lon="17.837865476031666"><ele>54.0</ele><time>2026-03-29T14:02:48Z</time></trkpt><trkpt lat="40.472685864025685" lon="17.837831174581684"><ele>53.0</ele><time>2026-03-29T14:02:49Z</time></trkpt><trkpt lat="40.47302029806572" lon="17.83779696614629"><ele>52.0</ele><time>2026-03-29T14:02:50Z</time></trkpt><trkpt lat="40.47335291372474" lon="17.83775819780416"><ele>52.0</ele><time>2026-03-29T14:02:51Z</time></trkpt><trkpt lat="40.47365787652851" lon="17.837717546645074"><ele>52.0</ele><time>2026-03-29T14:02:52Z</time></trkpt><trkpt lat="40.47398483349242" lon="17.837664720509736"><ele>53.0</ele><time>2026-03-29T14:02:53Z</time></trkpt><trkpt lat="40.47430621288378" lon="17.837575853745157"><ele>54.0</ele><time>2026-03-29T14:02:54Z</time></trkpt><trkpt lat="40.47462550087666" lon="17.837507344380064"><ele>54.0</ele><time>2026-03-29T14:02:55Z</time></trkpt><trkpt lat="40.474942383141375" lon="17.83742456177694"><ele>54.0</ele><time>2026-03-29T14:02:56Z</time></trkpt><trkpt lat="40.47527472629246" lon="17.83730077984435"><ele>54.5</ele><time>2026-03-29T14:02:57Z</time></trkpt><trkpt lat="40.47561111115015" lon="17.837224966733178"><ele>55.0</ele><time>2026-03-29T14:02:58Z</time></trkpt><trkpt lat="40.47594810599173" lon="17.83712790467983"><ele>55.0</ele><time>2026-03-29T14:02:59Z</time></trkpt><trkpt lat="40.47628892052238" lon="17.837031588293026"><ele>55.0</ele><time>2026-03-29T14:03:00Z</time></trkpt><trkpt lat="40.47662121540995" lon="17.836925014986065"><ele>55.0</ele><time>2026-03-29T14:03:01Z</time></trkpt><trkpt lat="40.476955818729905" lon="17.836830320575977"><ele>55.0</ele><time>2026-03-29T14:03:02Z</time></trkpt><trkpt lat="40.47728513235529" lon="17.836740147357673"><ele>56.0</ele><time>2026-03-29T14:03:03Z</time></trkpt><trkpt lat="40.47762143183935" lon="17.83664857637687"><ele>57.0</ele><time>2026-03-29T14:03:04Z</time></trkpt><trkpt lat="40.47795937709324" lon="17.836553416357322"><ele>57.0</ele><time>2026-03-29T14:03:05Z</time></trkpt><trkpt lat="40.47829059548009" lon="17.83645788202866"><ele>57.0</ele><time>2026-03-29T14:03:06Z</time></trkpt><trkpt lat="40.47862701178721" lon="17.836373140590563"><ele>57.0</ele><time>2026-03-29T14:03:07Z</time></trkpt><trkpt lat="40.478965712989705" lon="17.836289127718455"><ele>57.0</ele><time>2026-03-29T14:03:08Z</time></trkpt><trkpt lat="40.479297642329485" lon="17.836202184243433"><ele>58.0</ele><time>2026-03-29T14:03:09Z</time></trkpt><trkpt lat="40.479629388769894" lon="17.836113006360236"><ele>59.0</ele><time>2026-03-29T14:03:10Z</time></trkpt><trkpt lat="40.47995705343829" lon="17.83603209904817"><ele>59.5</ele><time>2026-03-29T14:03:11Z</time></trkpt><trkpt lat="40.4802886422009" lon="17.83592023480251"><ele>60.0</ele><time>2026-03-29T14:03:12Z</time></trkpt><trkpt lat="40.48062259027955" lon="17.83584470623724"><ele>60.5</ele><time>2026-03-29T14:03:13Z</time></trkpt><trkpt lat="40.48094123323594" lon="17.83573568922127"><ele>61.0</ele><time>2026-03-29T14:03:14Z</time></trkpt><trkpt lat="40.48127029320278" lon="17.835649977383195"><ele>61.5</ele><time>2026-03-29T14:03:15Z</time></trkpt><trkpt lat="40.481586962487846" lon="17.835551793667122"><ele>62.0</ele><time>2026-03-29T14:03:16Z</time></trkpt><trkpt lat="40.481914391184844" lon="17.835454906363193"><ele>62.0</ele><time>2026-03-29T14:03:17Z</time></trkpt><trkpt lat="40.48223718044754" lon="17.835367375316977"><ele>62.0</ele><time>2026-03-29T14:03:18Z</time></trkpt><trkpt lat="40.48253373274883" lon="17.835274105642878"><ele>62.0</ele><time>2026-03-29T14:03:19Z</time></trkpt><trkpt lat="40.48280108711533" lon="17.835173395253822"><ele>62.0</ele><time>2026-03-29T14:03:20Z</time></trkpt><trkpt lat="40.48305659957015" lon="17.83510583620975"><ele>63.5</ele><time>2026-03-29T14:03:21Z</time></trkpt><trkpt lat="40.48328841297668" lon="17.835019383138093"><ele>65.0</ele><time>2026-03-29T14:03:22Z</time></trkpt><trkpt lat="40.483499582657856" lon="17.83493341802922"><ele>65.0</ele><time>2026-03-29T14:03:23Z</time></trkpt><trkpt lat="40.48370424030806" lon="17.834853917074255"><ele>65.0</ele><time>2026-03-29T14:03:24Z</time></trkpt><trkpt lat="40.48389267885886" lon="17.83478693968846"><ele>65.0</ele><time>2026-03-29T14:03:25Z</time></trkpt><trkpt lat="40.484082660030204" lon="17.834721679397475"><ele>65.66666666666667</ele><time>2026-03-29T14:03:26Z</time></trkpt><trkpt lat="40.48426814662561" lon="17.834657532772464"><ele>66.33333333333333</ele><time>2026-03-29T14:03:27Z</time></trkpt><trkpt lat="40.484425810509315" lon="17.834586878176435"><ele>67.0</ele><time>2026-03-29T14:03:28Z</time></trkpt><trkpt lat="40.48456783354643" lon="17.83452884030774"><ele>67.0</ele><time>2026-03-29T14:03:29Z</time></trkpt><trkpt lat="40.48472569057989" lon="17.83445145617836"><ele>67.0</ele><time>2026-03-29T14:03:30Z</time></trkpt><trkpt lat="40.48490321072882" lon="17.834420096723566"><ele>67.0</ele><time>2026-03-29T14:03:31Z</time></trkpt><trkpt lat="40.48503986798308" lon="17.834389194817884"><ele>67.0</ele><time>2026-03-29T14:03:32.001Z</time></trkpt><trkpt lat="40.48513835601295" lon="17.834322759699667"><ele>67.0</ele><time>2026-03-29T14:03:33.001Z</time></trkpt><trkpt lat="40.48524398349264" lon="17.834296721187584"><ele>67.0</ele><time>2026-03-29T14:03:34.001Z</time></trkpt><trkpt lat="40.48535249825211" lon="17.83428967403474"><ele>67.0</ele><time>2026-03-29T14:03:35.001Z</time></trkpt><trkpt lat="40.48546901492039" lon="17.834294441470178"><ele>67.0</ele><time>2026-03-29T14:03:36.001Z</time></trkpt><trkpt lat="40.48557967414488" lon="17.83432464401521"><ele>67.4</ele><time>2026-03-29T14:03:37.001Z</time></trkpt><trkpt lat="40.48567402548314" lon="17.834367229742035"><ele>67.80000000000001</ele><time>2026-03-29T14:03:38.001Z</time></trkpt><trkpt lat="40.485765852696126" lon="17.834371295661004"><ele>68.2</ele><time>2026-03-29T14:03:39.001Z</time></trkpt><trkpt lat="40.48586038473753" lon="17.834316583943725"><ele>68.60000000000001</ele><time>2026-03-29T14:03:40Z</time></trkpt><trkpt lat="40.485940222958504" lon="17.83421484760069"><ele>69.0</ele><time>2026-03-29T14:03:41Z</time></trkpt><trkpt lat="40.48601311122755" lon="17.834076961443042"><ele>69.0</ele><time>2026-03-29T14:03:42Z</time></trkpt><trkpt lat="40.486118687264984" lon="17.83395620729612"><ele>69.0</ele><time>2026-03-29T14:03:43Z</time></trkpt><trkpt lat="40.486249504674525" lon="17.833861801182568"><ele>69.0</ele><time>2026-03-29T14:03:44Z</time></trkpt><trkpt lat="40.486432982453856" lon="17.83384637490316"><ele>70.0</ele><time>2026-03-29T14:03:45Z</time></trkpt><trkpt lat="40.486661486248536" lon="17.83379674234486"><ele>71.0</ele><time>2026-03-29T14:03:46Z</time></trkpt><trkpt lat="40.486885921035395" lon="17.833775821864798"><ele>72.0</ele><time>2026-03-29T14:03:47Z</time></trkpt><trkpt lat="40.487135918224645" lon="17.833734933264772"><ele>73.0</ele><time>2026-03-29T14:03:48Z</time></trkpt><trkpt lat="40.48740621840727" lon="17.833707517074192"><ele>73.0</ele><time>2026-03-29T14:03:49Z</time></trkpt><trkpt lat="40.48764319889207" lon="17.833694601163423"><ele>73.0</ele><time>2026-03-29T14:03:50Z</time></trkpt><trkpt lat="40.48788199390933" lon="17.833669357764318"><ele>73.0</ele><time>2026-03-29T14:03:51Z</time></trkpt><trkpt lat="40.488116725072295" lon="17.83364790149595"><ele>73.0</ele><time>2026-03-29T14:03:52Z</time></trkpt><trkpt lat="40.48837288461179" lon="17.833621945890876"><ele>73.0</ele><time>2026-03-29T14:03:53Z</time></trkpt><trkpt lat="40.488641681070945" lon="17.8335926594179"><ele>73.0</ele><time>2026-03-29T14:03:54Z</time></trkpt><trkpt lat="40.48893052800563" lon="17.833582328270463"><ele>73.0</ele><time>2026-03-29T14:03:55Z</time></trkpt><trkpt lat="40.48921997707892" lon="17.833554387301763"><ele>73.0</ele><time>2026-03-29T14:03:56Z</time></trkpt><trkpt lat="40.489512898102745" lon="17.833557951710134"><ele>75.0</ele><time>2026-03-29T14:03:57Z</time></trkpt><trkpt lat="40.4898265245256" lon="17.833539713719773"><ele>77.0</ele><time>2026-03-29T14:03:58Z</time></trkpt><trkpt lat="40.49010922107782" lon="17.83350436468964"><ele>77.0</ele><time>2026-03-29T14:03:59Z</time></trkpt><trkpt lat="40.490388425476525" lon="17.833466957921107"><ele>77.0</ele><time>2026-03-29T14:04:00Z</time></trkpt><trkpt lat="40.49065051341623" lon="17.833439834397552"><ele>77.0</ele><time>2026-03-29T14:04:01Z</time></trkpt><trkpt lat="40.49091481277191" lon="17.83342157554406"><ele>77.0</ele><time>2026-03-29T14:04:02Z</time></trkpt><trkpt lat="40.4911873743776" lon="17.83339338621639"><ele>78.0</ele><time>2026-03-29T14:04:03Z</time></trkpt><trkpt lat="40.491467374565715" lon="17.83335190870866"><ele>79.0</ele><time>2026-03-29T14:04:04Z</time></trkpt><trkpt lat="40.491741606528954" lon="17.83326943842425"><ele>79.0</ele><time>2026-03-29T14:04:05Z</time></trkpt><trkpt lat="40.492021625906766" lon="17.833156942518478"><ele>79.0</ele><time>2026-03-29T14:04:06Z</time></trkpt><trkpt lat="40.49229959832516" lon="17.833031508972045"><ele>78.0</ele><time>2026-03-29T14:04:07Z</time></trkpt><trkpt lat="40.492571752595275" lon="17.832878003572684"><ele>77.0</ele><time>2026-03-29T14:04:08Z</time></trkpt><trkpt lat="40.49283660877491" lon="17.83270433789461"><ele>77.5</ele><time>2026-03-29T14:04:09Z</time></trkpt><trkpt lat="40.49309124527382" lon="17.832484671562046"><ele>78.0</ele><time>2026-03-29T14:04:10Z</time></trkpt><trkpt lat="40.4933160615339" lon="17.832254883713503"><ele>78.0</ele><time>2026-03-29T14:04:11Z</time></trkpt><trkpt lat="40.49358187862685" lon="17.83204452459156"><ele>78.0</ele><time>2026-03-29T14:04:12Z</time></trkpt><trkpt lat="40.493841962700316" lon="17.831809527849863"><ele>77.5</ele><time>2026-03-29T14:04:13Z</time></trkpt><trkpt lat="40.49410542703899" lon="17.831583708991463"><ele>77.0</ele><time>2026-03-29T14:04:14Z</time></trkpt><trkpt lat="40.49439194038687" lon="17.831381475042893"><ele>77.5</ele><time>2026-03-29T14:04:15Z</time></trkpt><trkpt lat="40.49465884688702" lon="17.831156966735968"><ele>78.0</ele><time>2026-03-29T14:04:16Z</time></trkpt><trkpt lat="40.494904290512544" lon="17.830921591719665"><ele>77.0</ele><time>2026-03-29T14:04:17Z</time></trkpt><trkpt lat="40.495169975164394" lon="17.830715662893322"><ele>76.0</ele><time>2026-03-29T14:04:18Z</time></trkpt><trkpt lat="40.49542214970066" lon="17.83047772615354"><ele>76.0</ele><time>2026-03-29T14:04:19Z</time></trkpt><trkpt lat="40.49568143888213" lon="17.830248888582744"><ele>76.0</ele><time>2026-03-29T14:04:20Z</time></trkpt><trkpt lat="40.495939076367414" lon="17.830032499853317"><ele>76.0</ele><time>2026-03-29T14:04:21Z</time></trkpt><trkpt lat="40.496188586133336" lon="17.829834286796014"><ele>76.0</ele><time>2026-03-29T14:04:22Z</time></trkpt><trkpt lat="40.4964387305551" lon="17.829656863501143"><ele>75.5</ele><time>2026-03-29T14:04:23Z</time></trkpt><trkpt lat="40.49669725414532" lon="17.829500211409453"><ele>75.0</ele><time>2026-03-29T14:04:24Z</time></trkpt><trkpt lat="40.496965438293934" lon="17.829377468970193"><ele>75.5</ele><time>2026-03-29T14:04:25Z</time></trkpt><trkpt lat="40.49724374110293" lon="17.829274984318506"><ele>76.0</ele><time>2026-03-29T14:04:26Z</time></trkpt><trkpt lat="40.4975317255204" lon="17.82919318095891"><ele>76.0</ele><time>2026-03-29T14:04:27Z</time></trkpt><trkpt lat="40.4978178905232" lon="17.829117193291907"><ele>76.0</ele><time>2026-03-29T14:04:28Z</time></trkpt><trkpt lat="40.49812793025865" lon="17.82905099912944"><ele>76.0</ele><time>2026-03-29T14:04:29Z</time></trkpt><trkpt lat="40.498438692212325" lon="17.8289936237674"><ele>76.0</ele><time>2026-03-29T14:04:30Z</time></trkpt><trkpt lat="40.49874708742856" lon="17.82893894204664"><ele>77.0</ele><time>2026-03-29T14:04:31Z</time></trkpt><trkpt lat="40.49906575775408" lon="17.828875216764796"><ele>78.0</ele><time>2026-03-29T14:04:32Z</time></trkpt><trkpt lat="40.49938631452802" lon="17.828813698914168"><ele>77.0</ele><time>2026-03-29T14:04:33Z</time></trkpt><trkpt lat="40.499696176526086" lon="17.82875223554787"><ele>76.0</ele><time>2026-03-29T14:04:34Z</time></trkpt><trkpt lat="40.50000385949916" lon="17.828692480632572"><ele>76.0</ele><time>2026-03-29T14:04:35Z</time></trkpt><trkpt lat="40.50030914362842" lon="17.828633205807407"><ele>76.0</ele><time>2026-03-29T14:04:36Z</time></trkpt><trkpt lat="40.50060324473152" lon="17.828575462027704"><ele>76.5</ele><time>2026-03-29T14:04:37Z</time></trkpt><trkpt lat="40.50088963306621" lon="17.82851894856931"><ele>77.0</ele><time>2026-03-29T14:04:38Z</time></trkpt><trkpt lat="40.50117111074623" lon="17.8284633436442"><ele>77.5</ele><time>2026-03-29T14:04:39Z</time></trkpt><trkpt lat="40.501452213546145" lon="17.828406806367635"><ele>78.0</ele><time>2026-03-29T14:04:40Z</time></trkpt><trkpt lat="40.50173930597146" lon="17.82835304301943"><ele>78.0</ele><time>2026-03-29T14:04:41Z</time></trkpt><trkpt lat="40.502024786296815" lon="17.82829966254752"><ele>78.0</ele><time>2026-03-29T14:04:42Z</time></trkpt><trkpt lat="40.50232094841828" lon="17.828245558804948"><ele>78.0</ele><time>2026-03-29T14:04:43Z</time></trkpt><trkpt lat="40.50262050591066" lon="17.828188934222624"><ele>78.0</ele><time>2026-03-29T14:04:44Z</time></trkpt><trkpt lat="40.50292398311321" lon="17.828129810123688"><ele>79.0</ele><time>2026-03-29T14:04:45Z</time></trkpt><trkpt lat="40.503232489266246" lon="17.828074932619383"><ele>80.0</ele><time>2026-03-29T14:04:46Z</time></trkpt><trkpt lat="40.50354093835503" lon="17.828022909921078"><ele>79.5</ele><time>2026-03-29T14:04:47Z</time></trkpt><trkpt lat="40.5038463309769" lon="17.827963942261828"><ele>79.0</ele><time>2026-03-29T14:04:48Z</time></trkpt><trkpt lat="40.504156456980965" lon="17.827904006011003"><ele>79.0</ele><time>2026-03-29T14:04:49Z</time></trkpt><trkpt lat="40.50446965341725" lon="17.82784522407088"><ele>79.0</ele><time>2026-03-29T14:04:50Z</time></trkpt><trkpt lat="40.504775098996916" lon="17.82778533947105"><ele>78.5</ele><time>2026-03-29T14:04:51Z</time></trkpt><trkpt lat="40.50508133385997" lon="17.827728252172314"><ele>78.0</ele><time>2026-03-29T14:04:52Z</time></trkpt><trkpt lat="40.50538768910396" lon="17.827671375431386"><ele>79.5</ele><time>2026-03-29T14:04:53Z</time></trkpt><trkpt lat="40.505700035364434" lon="17.82761705292163"><ele>81.0</ele><time>2026-03-29T14:04:54Z</time></trkpt><trkpt lat="40.50601332990537" lon="17.82756177233701"><ele>80.0</ele><time>2026-03-29T14:04:55Z</time></trkpt><trkpt lat="40.506314707533235" lon="17.827505478180758"><ele>79.0</ele><time>2026-03-29T14:04:56Z</time></trkpt><trkpt lat="40.50659765909197" lon="17.827464493430004"><ele>79.0</ele><time>2026-03-29T14:04:57Z</time></trkpt><trkpt lat="40.50687114656932" lon="17.827422694940285"><ele>79.0</ele><time>2026-03-29T14:04:58Z</time></trkpt><trkpt lat="40.50714855663053" lon="17.827384067562576"><ele>79.5</ele><time>2026-03-29T14:04:59Z</time></trkpt><trkpt lat="40.50743607232036" lon="17.827348898817977"><ele>80.0</ele><time>2026-03-29T14:05:00Z</time></trkpt><trkpt lat="40.507730232359435" lon="17.827315379888127"><ele>80.0</ele><time>2026-03-29T14:05:01Z</time></trkpt><trkpt lat="40.50802689796281" lon="17.82729095852509"><ele>80.0</ele><time>2026-03-29T14:05:02Z</time></trkpt><trkpt lat="40.50832526702602" lon="17.827269865225716"><ele>80.0</ele><time>2026-03-29T14:05:03Z</time></trkpt><trkpt lat="40.5086297659725" lon="17.82726572662553"><ele>80.0</ele><time>2026-03-29T14:05:04Z</time></trkpt><trkpt lat="40.50893717442585" lon="17.82726404049519"><ele>79.5</ele><time>2026-03-29T14:05:05Z</time></trkpt><trkpt lat="40.50924338123678" lon="17.8272564832407"><ele>79.0</ele><time>2026-03-29T14:05:06Z</time></trkpt><trkpt lat="40.509551165115646" lon="17.827238379706586"><ele>78.0</ele><time>2026-03-29T14:05:07Z</time></trkpt><trkpt lat="40.50985689809415" lon="17.827214027783448"><ele>77.0</ele><time>2026-03-29T14:05:08Z</time></trkpt><trkpt lat="40.51016174612108" lon="17.827173000615318"><ele>78.0</ele><time>2026-03-29T14:05:09Z</time></trkpt><trkpt lat="40.51047194039841" lon="17.827129513451887"><ele>79.0</ele><time>2026-03-29T14:05:10Z</time></trkpt><trkpt lat="40.51079909458848" lon="17.82711559643218"><ele>79.0</ele><time>2026-03-29T14:05:11Z</time></trkpt><trkpt lat="40.511154796125254" lon="17.827070650276728"><ele>79.0</ele><time>2026-03-29T14:05:12Z</time></trkpt><trkpt lat="40.51150891564952" lon="17.826998950109534"><ele>79.0</ele><time>2026-03-29T14:05:13Z</time></trkpt><trkpt lat="40.51180974617909" lon="17.8269293818326"><ele>79.0</ele><time>2026-03-29T14:05:14Z</time></trkpt><trkpt lat="40.51212079648209" lon="17.826837080252282"><ele>79.5</ele><time>2026-03-29T14:05:15Z</time></trkpt><trkpt lat="40.51245645366965" lon="17.82677982811235"><ele>80.0</ele><time>2026-03-29T14:05:16Z</time></trkpt><trkpt lat="40.51278676296874" lon="17.826683321824262"><ele>79.5</ele><time>2026-03-29T14:05:17Z</time></trkpt><trkpt lat="40.51312296939449" lon="17.826608398731786"><ele>79.0</ele><time>2026-03-29T14:05:18Z</time></trkpt><trkpt lat="40.51347103715735" lon="17.826527850326848"><ele>78.0</ele><time>2026-03-29T14:05:19Z</time></trkpt><trkpt lat="40.513842338354664" lon="17.826460767866866"><ele>77.0</ele><time>2026-03-29T14:05:20Z</time></trkpt><trkpt lat="40.51422008281076" lon="17.826354660682995"><ele>77.5</ele><time>2026-03-29T14:05:21Z</time></trkpt><trkpt lat="40.51462059341106" lon="17.82626966631148"><ele>78.0</ele><time>2026-03-29T14:05:22Z</time></trkpt><trkpt lat="40.51503621200857" lon="17.826172030547987"><ele>78.0</ele><time>2026-03-29T14:05:23Z</time></trkpt><trkpt lat="40.51545457820982" lon="17.826068639132547"><ele>78.0</ele><time>2026-03-29T14:05:24Z</time></trkpt><trkpt lat="40.515832593819056" lon="17.825971345853603"><ele>78.0</ele><time>2026-03-29T14:05:25Z</time></trkpt><trkpt lat="40.516171303748024" lon="17.82591473229442"><ele>78.0</ele><time>2026-03-29T14:05:25.999Z</time></trkpt><trkpt lat="40.5164782388253" lon="17.82584064062893"><ele>78.0</ele><time>2026-03-29T14:05:26.999Z</time></trkpt><trkpt lat="40.51676333480606" lon="17.825711628531632"><ele>78.0</ele><time>2026-03-29T14:05:27.999Z</time></trkpt><trkpt lat="40.51705474932709" lon="17.825530879362226"><ele>78.0</ele><time>2026-03-29T14:05:28.999Z</time></trkpt><trkpt lat="40.51735351281224" lon="17.825303013821962"><ele>78.0</ele><time>2026-03-29T14:05:29.999Z</time></trkpt><trkpt lat="40.517655575079345" lon="17.825049055645508"><ele>77.5</ele><time>2026-03-29T14:05:30.999Z</time></trkpt><trkpt lat="40.51796831493041" lon="17.82478997908882"><ele>77.0</ele><time>2026-03-29T14:05:31.999Z</time></trkpt><trkpt lat="40.518286197947354" lon="17.824541750475007"><ele>76.5</ele><time>2026-03-29T14:05:32.999Z</time></trkpt><trkpt lat="40.51859629187225" lon="17.82428983100209"><ele>76.0</ele><time>2026-03-29T14:05:33.999Z</time></trkpt><trkpt lat="40.518888828340664" lon="17.82406054324908"><ele>77.0</ele><time>2026-03-29T14:05:34.999Z</time></trkpt><trkpt lat="40.519168742954754" lon="17.823832217852257"><ele>78.0</ele><time>2026-03-29T14:05:35.999Z</time></trkpt><trkpt lat="40.51946019166308" lon="17.82360161140681"><ele>77.5</ele><time>2026-03-29T14:05:36.999Z</time></trkpt><trkpt lat="40.51976602898416" lon="17.823359387888548"><ele>77.0</ele><time>2026-03-29T14:05:38Z</time></trkpt><trkpt lat="40.52008526638041" lon="17.823104522234715"><ele>76.5</ele><time>2026-03-29T14:05:39Z</time></trkpt><trkpt lat="40.520402901948934" lon="17.822849558203814"><ele>76.0</ele><time>2026-03-29T14:05:40Z</time></trkpt><trkpt lat="40.520726393310305" lon="17.822592600169735"><ele>76.0</ele><time>2026-03-29T14:05:41Z</time></trkpt><trkpt lat="40.521044394434675" lon="17.822331382162176"><ele>76.0</ele><time>2026-03-29T14:05:42Z</time></trkpt><trkpt lat="40.5213479294106" lon="17.822093161278186"><ele>76.0</ele><time>2026-03-29T14:05:43Z</time></trkpt><trkpt lat="40.521619869986836" lon="17.821862901819383"><ele>76.0</ele><time>2026-03-29T14:05:44Z</time></trkpt><trkpt lat="40.52191482392486" lon="17.821645090739437"><ele>75.5</ele><time>2026-03-29T14:05:45Z</time></trkpt><trkpt lat="40.52222215856703" lon="17.821466015057606"><ele>75.0</ele><time>2026-03-29T14:05:46Z</time></trkpt><trkpt lat="40.52253571878028" lon="17.821343413088414"><ele>75.0</ele><time>2026-03-29T14:05:47Z</time></trkpt><trkpt lat="40.52286867977841" lon="17.821274457335537"><ele>75.0</ele><time>2026-03-29T14:05:48Z</time></trkpt><trkpt lat="40.52322441538356" lon="17.821236250769893"><ele>75.0</ele><time>2026-03-29T14:05:49Z</time></trkpt><trkpt lat="40.52358460702706" lon="17.82119393950526"><ele>75.0</ele><time>2026-03-29T14:05:50Z</time></trkpt><trkpt lat="40.523957403222575" lon="17.82115301793198"><ele>75.0</ele><time>2026-03-29T14:05:51Z</time></trkpt><trkpt lat="40.52430951711084" lon="17.821110378940812"><ele>75.0</ele><time>2026-03-29T14:05:52Z</time></trkpt><trkpt lat="40.52462710196456" lon="17.821073492036284"><ele>74.0</ele><time>2026-03-29T14:05:53Z</time></trkpt><trkpt lat="40.52493771501553" lon="17.821076952038414"><ele>73.0</ele><time>2026-03-29T14:05:54Z</time></trkpt><trkpt lat="40.52529703849124" lon="17.82110483105983"><ele>73.0</ele><time>2026-03-29T14:05:55Z</time></trkpt><trkpt lat="40.525632146918355" lon="17.82101796964829"><ele>73.0</ele><time>2026-03-29T14:05:56Z</time></trkpt><trkpt lat="40.52594431720016" lon="17.820874654763404"><ele>73.0</ele><time>2026-03-29T14:05:57Z</time></trkpt><trkpt lat="40.52625538030352" lon="17.820761307307635"><ele>73.0</ele><time>2026-03-29T14:05:58Z</time></trkpt><trkpt lat="40.52658956941879" lon="17.820643836497453"><ele>73.0</ele><time>2026-03-29T14:05:59Z</time></trkpt><trkpt lat="40.526962465868095" lon="17.820528084463174"><ele>73.0</ele><time>2026-03-29T14:06:00Z</time></trkpt><trkpt lat="40.52728434103635" lon="17.820366713775158"><ele>73.0</ele><time>2026-03-29T14:06:01Z</time></trkpt><trkpt lat="40.527577473910775" lon="17.82023676740663"><ele>73.0</ele><time>2026-03-29T14:06:02Z</time></trkpt><trkpt lat="40.52791848256703" lon="17.820158775678102"><ele>73.0</ele><time>2026-03-29T14:06:03Z</time></trkpt><trkpt lat="40.528282454448224" lon="17.820108199659828"><ele>73.0</ele><time>2026-03-29T14:06:04Z</time></trkpt><trkpt lat="40.52861337363858" lon="17.820036266908446"><ele>73.0</ele><time>2026-03-29T14:06:05Z</time></trkpt><trkpt lat="40.52897313610113" lon="17.819955647957613"><ele>73.0</ele><time>2026-03-29T14:06:06Z</time></trkpt><trkpt lat="40.52930142161715" lon="17.81988819898223"><ele>73.5</ele><time>2026-03-29T14:06:07Z</time></trkpt><trkpt lat="40.52961863017219" lon="17.819824136371174"><ele>74.0</ele><time>2026-03-29T14:06:08Z</time></trkpt><trkpt lat="40.529937997198935" lon="17.819753027321802"><ele>74.0</ele><time>2026-03-29T14:06:09Z</time></trkpt><trkpt lat="40.53026670716496" lon="17.819677555957412"><ele>74.0</ele><time>2026-03-29T14:06:10Z</time></trkpt><trkpt lat="40.53060671990181" lon="17.819612164904846"><ele>74.0</ele><time>2026-03-29T14:06:11Z</time></trkpt><trkpt lat="40.530937812762545" lon="17.8195547520976"><ele>74.0</ele><time>2026-03-29T14:06:12Z</time></trkpt><trkpt lat="40.53127315978917" lon="17.81951144827938"><ele>74.0</ele><time>2026-03-29T14:06:13Z</time></trkpt><trkpt lat="40.53160182723984" lon="17.819466871856836"><ele>74.0</ele><time>2026-03-29T14:06:14Z</time></trkpt><trkpt lat="40.53193661575505" lon="17.81942613746579"><ele>73.5</ele><time>2026-03-29T14:06:15Z</time></trkpt><trkpt lat="40.53227887683961" lon="17.819382500209144"><ele>73.0</ele><time>2026-03-29T14:06:16Z</time></trkpt><trkpt lat="40.53263471048493" lon="17.819327643156186"><ele>74.0</ele><time>2026-03-29T14:06:17Z</time></trkpt><trkpt lat="40.53299420268852" lon="17.81925450755671"><ele>75.0</ele><time>2026-03-29T14:06:18Z</time></trkpt><trkpt lat="40.53334390078874" lon="17.819160569015885"><ele>75.0</ele><time>2026-03-29T14:06:19Z</time></trkpt><trkpt lat="40.53368363333815" lon="17.81898267549212"><ele>75.0</ele><time>2026-03-29T14:06:20Z</time></trkpt><trkpt lat="40.53406876717059" lon="17.818841416952175"><ele>74.5</ele><time>2026-03-29T14:06:21Z</time></trkpt><trkpt lat="40.534440280990005" lon="17.818748067829258"><ele>74.0</ele><time>2026-03-29T14:06:22Z</time></trkpt><trkpt lat="40.53478070868745" lon="17.818683555889038"><ele>73.0</ele><time>2026-03-29T14:06:23Z</time></trkpt><trkpt lat="40.53510718714194" lon="17.818601832909547"><ele>72.0</ele><time>2026-03-29T14:06:24Z</time></trkpt><trkpt lat="40.535418671798695" lon="17.818550789925197"><ele>72.0</ele><time>2026-03-29T14:06:25Z</time></trkpt><trkpt lat="40.53573725433269" lon="17.818509340478812"><ele>72.0</ele><time>2026-03-29T14:06:26Z</time></trkpt><trkpt lat="40.536052571948574" lon="17.81843493401272"><ele>72.0</ele><time>2026-03-29T14:06:27Z</time></trkpt><trkpt lat="40.53636994315" lon="17.818392080260143"><ele>72.0</ele><time>2026-03-29T14:06:28Z</time></trkpt><trkpt lat="40.53669778373739" lon="17.818229145895362"><ele>72.0</ele><time>2026-03-29T14:06:29Z</time></trkpt><trkpt lat="40.53701802443626" lon="17.818155601948057"><ele>72.0</ele><time>2026-03-29T14:06:30Z</time></trkpt><trkpt lat="40.53733780133147" lon="17.81805258976146"><ele>72.5</ele><time>2026-03-29T14:06:31Z</time></trkpt><trkpt lat="40.53766692035779" lon="17.81795571186438"><ele>73.0</ele><time>2026-03-29T14:06:32Z</time></trkpt><trkpt lat="40.53794520023311" lon="17.817818005045915"><ele>72.0</ele><time>2026-03-29T14:06:33Z</time></trkpt><trkpt lat="40.53825135325301" lon="17.817666017118185"><ele>71.0</ele><time>2026-03-29T14:06:34Z</time></trkpt><trkpt lat="40.5385659358233" lon="17.81750127977365"><ele>71.0</ele><time>2026-03-29T14:06:35Z</time></trkpt><trkpt lat="40.53886222301363" lon="17.81730978300274"><ele>71.0</ele><time>2026-03-29T14:06:36Z</time></trkpt><trkpt lat="40.53919822045797" lon="17.817123298617457"><ele>71.0</ele><time>2026-03-29T14:06:37Z</time></trkpt><trkpt lat="40.539403111875544" lon="17.81699790615397"><ele>71.0</ele><time>2026-03-29T14:06:38Z</time></trkpt><trkpt lat="40.53967169923496" lon="17.816906135769653"><ele>71.0</ele><time>2026-03-29T14:06:39Z</time></trkpt><trkpt lat="40.53999839903365" lon="17.81681086360022"><ele>71.0</ele><time>2026-03-29T14:06:40Z</time></trkpt><trkpt lat="40.54025188596998" lon="17.816731675436657"><ele>70.0</ele><time>2026-03-29T14:06:41Z</time></trkpt><trkpt lat="40.54050033183326" lon="17.816700011356364"><ele>69.0</ele><time>2026-03-29T14:06:42Z</time></trkpt><trkpt lat="40.5407232747653" lon="17.816624794358454"><ele>69.0</ele><time>2026-03-29T14:06:43Z</time></trkpt><trkpt lat="40.54093247637741" lon="17.816579786966976"><ele>69.0</ele><time>2026-03-29T14:06:44Z</time></trkpt><trkpt lat="40.54111999331821" lon="17.816537780928837"><ele>69.0</ele><time>2026-03-29T14:06:45Z</time></trkpt><trkpt lat="40.54126648784996" lon="17.816459570539987"><ele>69.33333333333333</ele><time>2026-03-29T14:06:46Z</time></trkpt><trkpt lat="40.54144727859654" lon="17.816531185560365"><ele>69.66666666666666</ele><time>2026-03-29T14:06:47Z</time></trkpt><trkpt lat="40.54158023010755" lon="17.81647855131047"><ele>70.0</ele><time>2026-03-29T14:06:48Z</time></trkpt><trkpt lat="40.541715326958204" lon="17.816401613432987"><ele>70.0</ele><time>2026-03-29T14:06:49Z</time></trkpt><trkpt lat="40.541800976281344" lon="17.816421346354097"><ele>70.0</ele><time>2026-03-29T14:06:50Z</time></trkpt><trkpt lat="40.54191803170455" lon="17.816405150790867"><ele>70.0</ele><time>2026-03-29T14:06:51Z</time></trkpt><trkpt lat="40.541987979178494" lon="17.8164354604122"><ele>70.0</ele><time>2026-03-29T14:06:52Z</time></trkpt><trkpt lat="40.542077288094745" lon="17.81651953871325"><ele>70.0</ele><time>2026-03-29T14:06:53Z</time></trkpt><trkpt lat="40.54213989254452" lon="17.81658970467553"><ele>70.2</ele><time>2026-03-29T14:06:54Z</time></trkpt><trkpt lat="40.54220796949673" lon="17.81659322711812"><ele>70.4</ele><time>2026-03-29T14:06:55Z</time></trkpt><trkpt lat="40.54228063031685" lon="17.816512397147285"><ele>70.6</ele><time>2026-03-29T14:06:56Z</time></trkpt><trkpt lat="40.54234424305695" lon="17.816394539780934"><ele>70.8</ele><time>2026-03-29T14:06:57Z</time></trkpt><trkpt lat="40.542426804110065" lon="17.816336130077726"><ele>71.0</ele><time>2026-03-29T14:06:57.999Z</time></trkpt><trkpt lat="40.542492715685334" lon="17.81627013433908"><ele>71.0</ele><time>2026-03-29T14:06:58.999Z</time></trkpt><trkpt lat="40.542591047277334" lon="17.816184454905372"><ele>71.0</ele><time>2026-03-29T14:06:59.999Z</time></trkpt><trkpt lat="40.54282313121786" lon="17.815992673882604"><ele>71.0</ele><time>2026-03-29T14:07:00.999Z</time></trkpt><trkpt lat="40.54296932230867" lon="17.81587027028551"><ele>71.0</ele><time>2026-03-29T14:07:01.999Z</time></trkpt><trkpt lat="40.54310668981384" lon="17.815757632930527"><ele>71.0</ele><time>2026-03-29T14:07:02.999Z</time></trkpt><trkpt lat="40.54323490206063" lon="17.81565189138943"><ele>71.0</ele><time>2026-03-29T14:07:03.999Z</time></trkpt><trkpt lat="40.543352187725695" lon="17.815555426828855"><ele>71.0</ele><time>2026-03-29T14:07:04.999Z</time></trkpt><trkpt lat="40.54347086220343" lon="17.815462176202416"><ele>71.0</ele><time>2026-03-29T14:07:05.999Z</time></trkpt><trkpt lat="40.54359767855119" lon="17.81538934071069"><ele>71.0</ele><time>2026-03-29T14:07:06.999Z</time></trkpt><trkpt lat="40.54373154132351" lon="17.81533780603208"><ele>71.0</ele><time>2026-03-29T14:07:07.999Z</time></trkpt><trkpt lat="40.543881679277604" lon="17.81528922459654"><ele>70.33333333333334</ele><time>2026-03-29T14:07:08.999Z</time></trkpt><trkpt lat="40.54401303675326" lon="17.81528362285268"><ele>69.66666666666667</ele><time>2026-03-29T14:07:09.999Z</time></trkpt><trkpt lat="40.54418503630075" lon="17.815252496592734"><ele>69.0</ele><time>2026-03-29T14:07:10.999Z</time></trkpt><trkpt lat="40.5443818139244" lon="17.81521599259879"><ele>69.0</ele><time>2026-03-29T14:07:11.999Z</time></trkpt><trkpt lat="40.544555337808454" lon="17.815183658312563"><ele>69.0</ele><time>2026-03-29T14:07:12.999Z</time></trkpt><trkpt lat="40.54471735360476" lon="17.815153447878235"><ele>69.0</ele><time>2026-03-29T14:07:13.999Z</time></trkpt><trkpt lat="40.54488719781725" lon="17.81512217486418"><ele>69.0</ele><time>2026-03-29T14:07:14.999Z</time></trkpt><trkpt lat="40.54505660612677" lon="17.81509089696419"><ele>69.0</ele><time>2026-03-29T14:07:15.999Z</time></trkpt><trkpt lat="40.54522559058105" lon="17.81505418706486"><ele>69.0</ele><time>2026-03-29T14:07:16.999Z</time></trkpt><trkpt lat="40.54538257215402" lon="17.81499045216945"><ele>69.66666666666667</ele><time>2026-03-29T14:07:17.999Z</time></trkpt><trkpt lat="40.545545099213996" lon="17.814889987899456"><ele>70.33333333333334</ele><time>2026-03-29T14:07:18.999Z</time></trkpt><trkpt lat="40.545702930351595" lon="17.814800292817072"><ele>71.0</ele><time>2026-03-29T14:07:19.999Z</time></trkpt><trkpt lat="40.54586460798084" lon="17.81470439636651"><ele>71.0</ele><time>2026-03-29T14:07:20.999Z</time></trkpt><trkpt lat="40.546027715105026" lon="17.814617139223678"><ele>71.0</ele><time>2026-03-29T14:07:21.999Z</time></trkpt><trkpt lat="40.54617911033214" lon="17.81453246506546"><ele>71.0</ele><time>2026-03-29T14:07:22.999Z</time></trkpt><trkpt lat="40.54632808926101" lon="17.814450366755647"><ele>71.33333333333334</ele><time>2026-03-29T14:07:23.999Z</time></trkpt><trkpt lat="40.546476414747374" lon="17.814375446512734"><ele>71.66666666666667</ele><time>2026-03-29T14:07:24.999Z</time></trkpt><trkpt lat="40.546625442145135" lon="17.814306928597894"><ele>72.0</ele><time>2026-03-29T14:07:25.999Z</time></trkpt><trkpt lat="40.546777678429244" lon="17.81423282016392"><ele>72.0</ele><time>2026-03-29T14:07:26.999Z</time></trkpt><trkpt lat="40.546939366348695" lon="17.814157046517824"><ele>72.0</ele><time>2026-03-29T14:07:27.999Z</time></trkpt><trkpt lat="40.54710549645962" lon="17.814084440228033"><ele>72.0</ele><time>2026-03-29T14:07:28.999Z</time></trkpt><trkpt lat="40.547267016686476" lon="17.814000572314885"><ele>71.33333333333333</ele><time>2026-03-29T14:07:29.999Z</time></trkpt><trkpt lat="40.54740958581794" lon="17.813930984590584"><ele>70.66666666666666</ele><time>2026-03-29T14:07:30.999Z</time></trkpt><trkpt lat="40.547547881472276" lon="17.81386281290888"><ele>70.0</ele><time>2026-03-29T14:07:31.999Z</time></trkpt><trkpt lat="40.547708406311386" lon="17.813802824513605"><ele>70.0</ele><time>2026-03-29T14:07:32.999Z</time></trkpt><trkpt lat="40.54786222886433" lon="17.813738905052233"><ele>70.0</ele><time>2026-03-29T14:07:33.999Z</time></trkpt><trkpt lat="40.54799810259371" lon="17.813670246917017"><ele>70.0</ele><time>2026-03-29T14:07:34.999Z</time></trkpt><trkpt lat="40.548117781063056" lon="17.813607916382466"><ele>70.0</ele><time>2026-03-29T14:07:35.999Z</time></trkpt><trkpt lat="40.548238318277996" lon="17.813538337824607"><ele>70.0</ele><time>2026-03-29T14:07:36.999Z</time></trkpt><trkpt lat="40.54837478327135" lon="17.813476131612468"><ele>70.0</ele><time>2026-03-29T14:07:37.999Z</time></trkpt><trkpt lat="40.548509774604085" lon="17.813406181348604"><ele>70.0</ele><time>2026-03-29T14:07:38.999Z</time></trkpt><trkpt lat="40.548652241856544" lon="17.81334693282477"><ele>70.0</ele><time>2026-03-29T14:07:39.999Z</time></trkpt><trkpt lat="40.54880044289653" lon="17.813274121867938"><ele>70.0</ele><time>2026-03-29T14:07:40.999Z</time></trkpt><trkpt lat="40.5489330407042" lon="17.81321503906008"><ele>70.0</ele><time>2026-03-29T14:07:41.999Z</time></trkpt><trkpt lat="40.54905197107425" lon="17.81315466921379"><ele>70.0</ele><time>2026-03-29T14:07:42.999Z</time></trkpt><trkpt lat="40.54917873438137" lon="17.81310127567861"><ele>70.0</ele><time>2026-03-29T14:07:44Z</time></trkpt><trkpt lat="40.54930542775761" lon="17.813052768747593"><ele>70.0</ele><time>2026-03-29T14:07:45Z</time></trkpt><trkpt lat="40.54941830801807" lon="17.813010948020988"><ele>70.0</ele><time>2026-03-29T14:07:46Z</time></trkpt><trkpt lat="40.549510390808855" lon="17.812976527267164"><ele>70.0</ele><time>2026-03-29T14:07:47Z</time></trkpt><trkpt lat="40.54961292653074" lon="17.812943233863926"><ele>70.0</ele><time>2026-03-29T14:07:48Z</time></trkpt><trkpt lat="40.54970602401476" lon="17.812908151856305"><ele>70.0</ele><time>2026-03-29T14:07:49Z</time></trkpt><trkpt lat="40.549811180071416" lon="17.812859571465747"><ele>70.16666666666666</ele><time>2026-03-29T14:07:50Z</time></trkpt><trkpt lat="40.549920414705255" lon="17.812837148221092"><ele>70.33333333333333</ele><time>2026-03-29T14:07:51Z</time></trkpt><trkpt lat="40.54999672461149" lon="17.81280524966384"><ele>70.5</ele><time>2026-03-29T14:07:52Z</time></trkpt><trkpt lat="40.55006167912816" lon="17.81275615229931"><ele>70.66666666666667</ele><time>2026-03-29T14:07:53Z</time></trkpt><trkpt lat="40.55014896381298" lon="17.812729271050777"><ele>70.83333333333334</ele><time>2026-03-29T14:07:54Z</time></trkpt><trkpt lat="40.55020124212488" lon="17.81268223252021"><ele>71.0</ele><time>2026-03-29T14:07:55Z</time></trkpt><trkpt lat="40.550262222551915" lon="17.812660412594248"><ele>71.2</ele><time>2026-03-29T14:07:56Z</time></trkpt><trkpt lat="40.55032541631729" lon="17.812612521904008"><ele>71.39999999999999</ele><time>2026-03-29T14:07:57Z</time></trkpt><trkpt lat="40.5504352558927" lon="17.812550100941955"><ele>71.6</ele><time>2026-03-29T14:07:59Z</time></trkpt><trkpt lat="40.55054790742499" lon="17.81251758779435"><ele>71.8</ele><time>2026-03-29T14:08:01Z</time></trkpt><trkpt lat="40.550635344984606" lon="17.812453749921083"><ele>72.0</ele><time>2026-03-29T14:08:03Z</time></trkpt><trkpt lat="40.550713614835615" lon="17.81237239264825"><ele>72.6</ele><time>2026-03-29T14:08:05Z</time></trkpt><trkpt lat="40.55079568810961" lon="17.812326923085305"><ele>73.2</ele><time>2026-03-29T14:08:07Z</time></trkpt><trkpt lat="40.550864112894544" lon="17.81226067949386"><ele>73.8</ele><time>2026-03-29T14:08:09Z</time></trkpt><trkpt lat="40.55092379201472" lon="17.812196803484238"><ele>74.4</ele><time>2026-03-29T14:08:11Z</time></trkpt><trkpt lat="40.551019719752034" lon="17.812072487911816"><ele>75.0</ele><time>2026-03-29T14:08:13Z</time></trkpt><trkpt lat="40.55109993852807" lon="17.81196531745054"><ele>75.0</ele><time>2026-03-29T14:08:14Z</time></trkpt><trkpt lat="40.551170255793224" lon="17.811848737870598"><ele>75.0</ele><time>2026-03-29T14:08:15Z</time></trkpt><trkpt lat="40.5512596047199" lon="17.81175019664006"><ele>75.0</ele><time>2026-03-29T14:08:16Z</time></trkpt><trkpt lat="40.551340559565446" lon="17.81164041584074"><ele>75.0</ele><time>2026-03-29T14:08:17Z</time></trkpt><trkpt lat="40.55140954718953" lon="17.811543603712682"><ele>75.0</ele><time>2026-03-29T14:08:18Z</time></trkpt><trkpt lat="40.55147071502017" lon="17.811455541888083"><ele>74.6</ele><time>2026-03-29T14:08:19Z</time></trkpt><trkpt lat="40.55153440412306" lon="17.81138185665179"><ele>74.2</ele><time>2026-03-29T14:08:20Z</time></trkpt><trkpt lat="40.55160937684773" lon="17.811305758481176"><ele>73.8</ele><time>2026-03-29T14:08:21Z</time></trkpt><trkpt lat="40.55168698146703" lon="17.811228846276784"><ele>73.4</ele><time>2026-03-29T14:08:22Z</time></trkpt><trkpt lat="40.55177119571091" lon="17.811150380149044"><ele>73.0</ele><time>2026-03-29T14:08:23Z</time></trkpt><trkpt lat="40.551855844776725" lon="17.811078073462618"><ele>73.0</ele><time>2026-03-29T14:08:24Z</time></trkpt><trkpt lat="40.55192978537367" lon="17.81102210185511"><ele>73.0</ele><time>2026-03-29T14:08:25Z</time></trkpt><trkpt lat="40.55201470831757" lon="17.810968429741"><ele>73.0</ele><time>2026-03-29T14:08:26Z</time></trkpt><trkpt lat="40.55212157610222" lon="17.81089985080575"><ele>73.0</ele><time>2026-03-29T14:08:27Z</time></trkpt><trkpt lat="40.55223191233459" lon="17.810832297751038"><ele>73.0</ele><time>2026-03-29T14:08:28Z</time></trkpt><trkpt lat="40.5523487571941" lon="17.8107606720847"><ele>73.0</ele><time>2026-03-29T14:08:29Z</time></trkpt><trkpt lat="40.55246146336487" lon="17.8106922222608"><ele>73.0</ele><time>2026-03-29T14:08:30Z</time></trkpt><trkpt lat="40.552568369904186" lon="17.810627342672294"><ele>73.0</ele><time>2026-03-29T14:08:30.999Z</time></trkpt><trkpt lat="40.55266414472155" lon="17.810569218785425"><ele>73.0</ele><time>2026-03-29T14:08:31.999Z</time></trkpt><trkpt lat="40.55274415206017" lon="17.810519696810946"><ele>73.0</ele><time>2026-03-29T14:08:32.999Z</time></trkpt><trkpt lat="40.55281374298128" lon="17.810476543974026"><ele>73.0</ele><time>2026-03-29T14:08:33.999Z</time></trkpt><trkpt lat="40.5528944035495" lon="17.810426526897512"><ele>73.0</ele><time>2026-03-29T14:08:34.999Z</time></trkpt><trkpt lat="40.552982164886394" lon="17.810373004783447"><ele>73.0</ele><time>2026-03-29T14:08:35.999Z</time></trkpt><trkpt lat="40.55307447295552" lon="17.81031094602557"><ele>73.0</ele><time>2026-03-29T14:08:36.999Z</time></trkpt><trkpt lat="40.553177575923186" lon="17.81027786498986"><ele>73.0</ele><time>2026-03-29T14:08:37.999Z</time></trkpt><trkpt lat="40.553282549749255" lon="17.810235239580564"><ele>73.0</ele><time>2026-03-29T14:08:38.999Z</time></trkpt><trkpt lat="40.55341000533123" lon="17.8101852203595"><ele>73.0</ele><time>2026-03-29T14:08:39.999Z</time></trkpt><trkpt lat="40.55355205660288" lon="17.810128545509656"><ele>73.0</ele><time>2026-03-29T14:08:40.999Z</time></trkpt><trkpt lat="40.55364182054576" lon="17.810070728353164"><ele>73.0</ele><time>2026-03-29T14:08:41.999Z</time></trkpt><trkpt lat="40.55375478175866" lon="17.810026613521163"><ele>73.4</ele><time>2026-03-29T14:08:42.999Z</time></trkpt><trkpt lat="40.55387773386533" lon="17.809996389476677"><ele>73.8</ele><time>2026-03-29T14:08:43.999Z</time></trkpt><trkpt lat="40.55398666929457" lon="17.80993072880811"><ele>74.2</ele><time>2026-03-29T14:08:44.999Z</time></trkpt><trkpt lat="40.55408206723626" lon="17.809901710554684"><ele>74.6</ele><time>2026-03-29T14:08:45.999Z</time></trkpt><trkpt lat="40.55415679010922" lon="17.809882454429108"><ele>75.0</ele><time>2026-03-29T14:08:47.999Z</time></trkpt><trkpt lat="40.55423516496712" lon="17.809796850309162"><ele>75.0</ele><time>2026-03-29T14:08:50.999Z</time></trkpt><trkpt lat="40.55437728528424" lon="17.809748443223107"><ele>75.0</ele><time>2026-03-29T14:08:52.999Z</time></trkpt><trkpt lat="40.5544664585245" lon="17.809706080093488"><ele>75.0</ele><time>2026-03-29T14:08:53.999Z</time></trkpt><trkpt lat="40.55456517650254" lon="17.809664157557094"><ele>75.0</ele><time>2026-03-29T14:08:54.999Z</time></trkpt><trkpt lat="40.55467750854537" lon="17.809623099313217"><ele>75.16666666666667</ele><time>2026-03-29T14:08:55.999Z</time></trkpt><trkpt lat="40.554797156112734" lon="17.80958781575269"><ele>75.33333333333333</ele><time>2026-03-29T14:08:56.999Z</time></trkpt><trkpt lat="40.55489481815714" lon="17.809564646810443"><ele>75.5</ele><time>2026-03-29T14:08:57.999Z</time></trkpt><trkpt lat="40.554973900488676" lon="17.809520094850544"><ele>75.66666666666666</ele><time>2026-03-29T14:08:58.999Z</time></trkpt><trkpt lat="40.55504373412205" lon="17.80949514563144"><ele>75.83333333333333</ele><time>2026-03-29T14:08:59.999Z</time></trkpt><trkpt lat="40.55510504755029" lon="17.80947140233073"><ele>76.0</ele><time>2026-03-29T14:09:00.999Z</time></trkpt><trkpt lat="40.555167565023496" lon="17.80944788142681"><ele>76.0</ele><time>2026-03-29T14:09:01.999Z</time></trkpt><trkpt lat="40.55523864618982" lon="17.80940737127834"><ele>76.0</ele><time>2026-03-29T14:09:02.999Z</time></trkpt><trkpt lat="40.55532629736031" lon="17.809363675397073"><ele>76.0</ele><time>2026-03-29T14:09:03.999Z</time></trkpt><trkpt lat="40.55540407365168" lon="17.80933508153925"><ele>76.0</ele><time>2026-03-29T14:09:04.999Z</time></trkpt><trkpt lat="40.55548790651803" lon="17.809307922873682"><ele>76.0</ele><time>2026-03-29T14:09:05.999Z</time></trkpt><trkpt lat="40.555578593281325" lon="17.809280635572048"><ele>76.0</ele><time>2026-03-29T14:09:06.999Z</time></trkpt><trkpt lat="40.555666318871204" lon="17.809245754877328"><ele>75.33333333333333</ele><time>2026-03-29T14:09:07.999Z</time></trkpt><trkpt lat="40.55579051358757" lon="17.809201189564593"><ele>74.66666666666666</ele><time>2026-03-29T14:09:09.999Z</time></trkpt><trkpt lat="40.55586396693439" lon="17.809221313834193"><ele>74.0</ele><time>2026-03-29T14:09:11.999Z</time></trkpt><trkpt lat="40.55593609301924" lon="17.809263317791217"><ele>73.33333333333333</ele><time>2026-03-29T14:09:14.999Z</time></trkpt><trkpt lat="40.555962765574385" lon="17.809341838440425"><ele>72.66666666666667</ele><time>2026-03-29T14:09:16.999Z</time></trkpt><trkpt lat="40.55597674913712" lon="17.809453753702385"><ele>72.0</ele><time>2026-03-29T14:09:17.999Z</time></trkpt><trkpt lat="40.55598958312581" lon="17.809560707633977"><ele>72.0</ele><time>2026-03-29T14:09:18.999Z</time></trkpt><trkpt lat="40.55600362801989" lon="17.80967922575293"><ele>72.0</ele><time>2026-03-29T14:09:19.999Z</time></trkpt><trkpt lat="40.55601772743799" lon="17.80976390431328"><ele>72.0</ele><time>2026-03-29T14:09:20.999Z</time></trkpt><trkpt lat="40.55602427247878" lon="17.809890729388048"><ele>72.0</ele><time>2026-03-29T14:09:22.999Z</time></trkpt><trkpt lat="40.55605297717146" lon="17.809971021131222"><ele>72.0</ele><time>2026-03-29T14:09:24.999Z</time></trkpt><trkpt lat="40.55609616170734" lon="17.810056926654475"><ele>72.0</ele><time>2026-03-29T14:09:26.999Z</time></trkpt><trkpt lat="40.5561846832523" lon="17.810192894911353"><ele>72.2</ele><time>2026-03-29T14:09:28.999Z</time></trkpt><trkpt lat="40.556240905471476" lon="17.810254921306868"><ele>72.4</ele><time>2026-03-29T14:09:29.999Z</time></trkpt><trkpt lat="40.55631869917798" lon="17.810324747217393"><ele>72.6</ele><time>2026-03-29T14:09:30.999Z</time></trkpt><trkpt lat="40.556395901670136" lon="17.8103960631552"><ele>72.8</ele><time>2026-03-29T14:09:31.999Z</time></trkpt><trkpt lat="40.55648156336193" lon="17.81050263555366"><ele>73.0</ele><time>2026-03-29T14:09:32.999Z</time></trkpt><trkpt lat="40.55656851561176" lon="17.810603682597133"><ele>73.0</ele><time>2026-03-29T14:09:33.999Z</time></trkpt><trkpt lat="40.55666583902041" lon="17.81068345487995"><ele>73.0</ele><time>2026-03-29T14:09:34.999Z</time></trkpt><trkpt lat="40.556746134111535" lon="17.810760605845466"><ele>73.0</ele><time>2026-03-29T14:09:35.999Z</time></trkpt><trkpt lat="40.55680633888408" lon="17.81083639083004"><ele>73.0</ele><time>2026-03-29T14:09:36.999Z</time></trkpt><trkpt lat="40.5568660246251" lon="17.81087765659451"><ele>73.0</ele><time>2026-03-29T14:09:37.999Z</time></trkpt><trkpt lat="40.556961242372104" lon="17.81093261271722"><ele>73.0</ele><time>2026-03-29T14:09:39.999Z</time></trkpt><trkpt lat="40.557022072608255" lon="17.811037145805862"><ele>73.0</ele><time>2026-03-29T14:09:41.999Z</time></trkpt><trkpt lat="40.55706414666902" lon="17.811110850462338"><ele>73.0</ele><time>2026-03-29T14:09:43.999Z</time></trkpt><trkpt lat="40.55713313034441" lon="17.810999701884903"><ele>73.0</ele><time>2026-03-29T14:09:45.999Z</time></trkpt><trkpt lat="40.557231119072284" lon="17.81087422425327"><ele>73.0</ele><time>2026-03-29T14:09:47.999Z</time></trkpt><trkpt lat="40.557293474325476" lon="17.81080833354691"><ele>73.0</ele><time>2026-03-29T14:09:48.999Z</time></trkpt><trkpt lat="40.557392524585126" lon="17.810732810552597"><ele>73.0</ele><time>2026-03-29T14:09:50Z</time></trkpt><trkpt lat="40.557470048719765" lon="17.810677960703135"><ele>73.0</ele><time>2026-03-29T14:09:51Z</time></trkpt><trkpt lat="40.55756983440548" lon="17.810597354499784"><ele>73.0</ele><time>2026-03-29T14:09:53Z</time></trkpt><trkpt lat="40.557632878500684" lon="17.810522058274962"><ele>73.0</ele><time>2026-03-29T14:09:55Z</time></trkpt><trkpt lat="40.557694923542954" lon="17.81045786491098"><ele>73.0</ele><time>2026-03-29T14:09:58Z</time></trkpt><trkpt lat="40.557853518616234" lon="17.810606753390925"><ele>73.0</ele><time>2026-03-29T14:10:01Z</time></trkpt><trkpt lat="40.557891801944535" lon="17.810678541153077"><ele>73.0</ele><time>2026-03-29T14:10:02Z</time></trkpt><trkpt lat="40.55795056610266" lon="17.81075268863308"><ele>73.0</ele><time>2026-03-29T14:10:03Z</time></trkpt><trkpt lat="40.55800754581253" lon="17.810815627843073"><ele>73.0</ele><time>2026-03-29T14:10:04Z</time></trkpt><trkpt lat="40.55811331159957" lon="17.81088933813325"><ele>73.0</ele><time>2026-03-29T14:10:06Z</time></trkpt><trkpt lat="40.55821022713599" lon="17.810975695239915"><ele>73.0</ele><time>2026-03-29T14:10:08Z</time></trkpt><trkpt lat="40.55829634583494" lon="17.811005749920962"><ele>73.0</ele><time>2026-03-29T14:10:09Z</time></trkpt><trkpt lat="40.55837390792107" lon="17.811018087323436"><ele>73.0</ele><time>2026-03-29T14:10:10Z</time></trkpt><trkpt lat="40.558449978737954" lon="17.81105570161705"><ele>73.0</ele><time>2026-03-29T14:10:11Z</time></trkpt><trkpt lat="40.55854956470399" lon="17.81108902866055"><ele>73.2</ele><time>2026-03-29T14:10:12Z</time></trkpt><trkpt lat="40.55864422943554" lon="17.81111577736637"><ele>73.4</ele><time>2026-03-29T14:10:13Z</time></trkpt><trkpt lat="40.55875729546659" lon="17.81109889158893"><ele>73.60000000000001</ele><time>2026-03-29T14:10:14Z</time></trkpt><trkpt lat="40.558874498779765" lon="17.81108116886651"><ele>73.8</ele><time>2026-03-29T14:10:15Z</time></trkpt><trkpt lat="40.55897667342344" lon="17.81106725581248"><ele>74.0</ele><time>2026-03-29T14:10:16Z</time></trkpt><trkpt lat="40.55908000186843" lon="17.81104617551404"><ele>74.0</ele><time>2026-03-29T14:10:17Z</time></trkpt><trkpt lat="40.55920654482406" lon="17.810984597897864"><ele>74.0</ele><time>2026-03-29T14:10:18Z</time></trkpt><trkpt lat="40.55937145447469" lon="17.81092827343237"><ele>74.0</ele><time>2026-03-29T14:10:19Z</time></trkpt><trkpt lat="40.55949972399767" lon="17.810875425525456"><ele>74.0</ele><time>2026-03-29T14:10:20Z</time></trkpt><trkpt lat="40.55959463664218" lon="17.810823671430445"><ele>74.0</ele><time>2026-03-29T14:10:21Z</time></trkpt><trkpt lat="40.55968393105149" lon="17.810773990931008"><ele>74.0</ele><time>2026-03-29T14:10:22Z</time></trkpt><trkpt lat="40.55978310429162" lon="17.810725257050954"><ele>74.0</ele><time>2026-03-29T14:10:23Z</time></trkpt><trkpt lat="40.55992348717635" lon="17.810689337533148"><ele>74.0</ele><time>2026-03-29T14:10:24Z</time></trkpt><trkpt lat="40.56007408170451" lon="17.810675442708867"><ele>74.0</ele><time>2026-03-29T14:10:25Z</time></trkpt><trkpt lat="40.56021734583653" lon="17.810595490659054"><ele>74.0</ele><time>2026-03-29T14:10:26Z</time></trkpt><trkpt lat="40.560323731601905" lon="17.810545053909866"><ele>74.0</ele><time>2026-03-29T14:10:27Z</time></trkpt><trkpt lat="40.560461094782546" lon="17.81048271416186"><ele>74.0</ele><time>2026-03-29T14:10:28Z</time></trkpt><trkpt lat="40.56054512792865" lon="17.81041555936772"><ele>73.5</ele><time>2026-03-29T14:10:29Z</time></trkpt><trkpt lat="40.56064338206808" lon="17.81034675589925"><ele>73.0</ele><time>2026-03-29T14:10:30Z</time></trkpt><trkpt lat="40.56075321278285" lon="17.810280522244184"><ele>72.5</ele><time>2026-03-29T14:10:31Z</time></trkpt><trkpt lat="40.560854630959454" lon="17.810211277142532"><ele>72.0</ele><time>2026-03-29T14:10:32Z</time></trkpt><trkpt lat="40.56094555583417" lon="17.810135356947697"><ele>71.8</ele><time>2026-03-29T14:10:33Z</time></trkpt><trkpt lat="40.561020382513185" lon="17.81006652472961"><ele>71.6</ele><time>2026-03-29T14:10:34Z</time></trkpt><trkpt lat="40.561098848787964" lon="17.809994881896394"><ele>71.39999999999999</ele><time>2026-03-29T14:10:35Z</time></trkpt><trkpt lat="40.561191484213914" lon="17.80994210066958"><ele>71.2</ele><time>2026-03-29T14:10:36Z</time></trkpt><trkpt lat="40.561276993581075" lon="17.809877327590726"><ele>71.0</ele><time>2026-03-29T14:10:37Z</time></trkpt><trkpt lat="40.561390320863424" lon="17.809792085229795"><ele>70.6</ele><time>2026-03-29T14:10:39Z</time></trkpt><trkpt lat="40.56147737929931" lon="17.8097282073838"><ele>70.19999999999999</ele><time>2026-03-29T14:10:41Z</time></trkpt><trkpt lat="40.56153667569028" lon="17.809682901813453"><ele>69.80000000000001</ele><time>2026-03-29T14:11:23.999Z</time></trkpt><trkpt lat="40.5616271666516" lon="17.80961658280731"><ele>69.4</ele><time>2026-03-29T14:11:26.999Z</time></trkpt><trkpt lat="40.56169510373349" lon="17.809561718294994"><ele>69.0</ele><time>2026-03-29T14:11:29.999Z</time></trkpt><trkpt lat="40.561628800398424" lon="17.809415666728867"><ele>69.0</ele><time>2026-03-29T14:11:30.999Z</time></trkpt><trkpt lat="40.56156666679206" lon="17.809334286585162"><ele>69.0</ele><time>2026-03-29T14:11:31.999Z</time></trkpt><trkpt lat="40.561505329948254" lon="17.809277419641756"><ele>69.0</ele><time>2026-03-29T14:11:32.999Z</time></trkpt><trkpt lat="40.561445871736204" lon="17.809194549264376"><ele>69.0</ele><time>2026-03-29T14:11:33.999Z</time></trkpt><trkpt lat="40.56137696191866" lon="17.809106554275402"><ele>69.0</ele><time>2026-03-29T14:11:34.999Z</time></trkpt><trkpt lat="40.56131138496291" lon="17.80900841144317"><ele>69.0</ele><time>2026-03-29T14:11:35.999Z</time></trkpt><trkpt lat="40.56124525045629" lon="17.808914762177196"><ele>69.4</ele><time>2026-03-29T14:11:36.999Z</time></trkpt><trkpt lat="40.561175116157465" lon="17.808832170977336"><ele>69.80000000000001</ele><time>2026-03-29T14:11:37.999Z</time></trkpt><trkpt lat="40.56111436198737" lon="17.808734287996426"><ele>70.19999999999999</ele><time>2026-03-29T14:11:38.999Z</time></trkpt><trkpt lat="40.561061917500595" lon="17.80864583715553"><ele>70.6</ele><time>2026-03-29T14:11:39.999Z</time></trkpt><trkpt lat="40.561045213337145" lon="17.80852576549982"><ele>71.0</ele><time>2026-03-29T14:11:40.999Z</time></trkpt><trkpt lat="40.560994772188664" lon="17.808426921638315"><ele>71.0</ele><time>2026-03-29T14:11:41.999Z</time></trkpt><trkpt lat="40.56095225827851" lon="17.808337744239537"><ele>71.0</ele><time>2026-03-29T14:11:42.999Z</time></trkpt><trkpt lat="40.56090915616768" lon="17.808238082726845"><ele>71.0</ele><time>2026-03-29T14:11:43.999Z</time></trkpt><trkpt lat="40.5608659158385" lon="17.808114952608424"><ele>71.0</ele><time>2026-03-29T14:11:44.999Z</time></trkpt><trkpt lat="40.56083579214129" lon="17.808004951171796"><ele>71.0</ele><time>2026-03-29T14:11:45.999Z</time></trkpt><trkpt lat="40.56080441509654" lon="17.80792253726727"><ele>71.0</ele><time>2026-03-29T14:11:46.999Z</time></trkpt><trkpt lat="40.560829948156695" lon="17.807840677479508"><ele>71.0</ele><time>2026-03-29T14:11:47.999Z</time></trkpt><trkpt lat="40.560862341020474" lon="17.80774404904135"><ele>71.0</ele><time>2026-03-29T14:11:49.999Z</time></trkpt><trkpt lat="40.561025777205415" lon="17.807630619397866"><ele>71.0</ele><time>2026-03-29T14:11:50.999Z</time></trkpt><trkpt lat="40.56115705794965" lon="17.807512872775774"><ele>71.0</ele><time>2026-03-29T14:11:51.999Z</time></trkpt><trkpt lat="40.56128102234364" lon="17.807370955428805"><ele>70.75</ele><time>2026-03-29T14:11:52.999Z</time></trkpt><trkpt lat="40.56137933555403" lon="17.807282178195404"><ele>70.5</ele><time>2026-03-29T14:11:53.999Z</time></trkpt><trkpt lat="40.56147516255111" lon="17.807196364783177"><ele>70.25</ele><time>2026-03-29T14:11:54.999Z</time></trkpt><trkpt lat="40.56154443573459" lon="17.807096132618785"><ele>70.0</ele><time>2026-03-29T14:11:55.999Z</time></trkpt><trkpt lat="40.5616317532727" lon="17.806995469918277"><ele>70.0</ele><time>2026-03-29T14:11:56.999Z</time></trkpt><trkpt lat="40.56173961014908" lon="17.806888804228326"><ele>70.0</ele><time>2026-03-29T14:11:57.999Z</time></trkpt><trkpt lat="40.561838753086505" lon="17.806738723948904"><ele>70.0</ele><time>2026-03-29T14:11:58.999Z</time></trkpt><trkpt lat="40.561981928713195" lon="17.806561385406937"><ele>69.0</ele><time>2026-03-29T14:11:59.999Z</time></trkpt><trkpt lat="40.562121516463506" lon="17.80637146200588"><ele>68.0</ele><time>2026-03-29T14:12:00.999Z</time></trkpt><trkpt lat="40.56224709494386" lon="17.806238317588424"><ele>67.0</ele><time>2026-03-29T14:12:01.999Z</time></trkpt><trkpt lat="40.56234807204118" lon="17.80612398100901"><ele>67.0</ele><time>2026-03-29T14:12:02.999Z</time></trkpt><trkpt lat="40.562463125948476" lon="17.80600508120371"><ele>67.0</ele><time>2026-03-29T14:12:03.999Z</time></trkpt><trkpt lat="40.56256135661121" lon="17.805899624240997"><ele>67.0</ele><time>2026-03-29T14:12:04.999Z</time></trkpt><trkpt lat="40.56264979529794" lon="17.805800296570084"><ele>67.0</ele><time>2026-03-29T14:12:05.999Z</time></trkpt><trkpt lat="40.56274437260924" lon="17.8056602076659"><ele>66.66666666666666</ele><time>2026-03-29T14:12:06.999Z</time></trkpt><trkpt lat="40.562874746966706" lon="17.80549206106275"><ele>66.33333333333333</ele><time>2026-03-29T14:12:07.999Z</time></trkpt><trkpt lat="40.56299422512853" lon="17.805341549471226"><ele>66.0</ele><time>2026-03-29T14:12:08.999Z</time></trkpt><trkpt lat="40.56312109174201" lon="17.805220160721085"><ele>66.33333333333333</ele><time>2026-03-29T14:12:09.999Z</time></trkpt><trkpt lat="40.56325822841175" lon="17.805119510393617"><ele>66.66666666666666</ele><time>2026-03-29T14:12:10.999Z</time></trkpt><trkpt lat="40.563389601282616" lon="17.804985323670085"><ele>67.0</ele><time>2026-03-29T14:12:11.999Z</time></trkpt><trkpt lat="40.56349950683324" lon="17.804826794091337"><ele>67.0</ele><time>2026-03-29T14:12:12.999Z</time></trkpt><trkpt lat="40.56363446431448" lon="17.80469703708612"><ele>67.0</ele><time>2026-03-29T14:12:13.999Z</time></trkpt><trkpt lat="40.56372737966022" lon="17.804605052848892"><ele>67.0</ele><time>2026-03-29T14:12:14.999Z</time></trkpt><trkpt lat="40.563806944748585" lon="17.804516409498575"><ele>67.0</ele><time>2026-03-29T14:12:15.999Z</time></trkpt><trkpt lat="40.56387499429289" lon="17.804440595629117"><ele>66.8</ele><time>2026-03-29T14:12:16.999Z</time></trkpt><trkpt lat="40.56394548592384" lon="17.804361313008606"><ele>66.6</ele><time>2026-03-29T14:12:17.999Z</time></trkpt><trkpt lat="40.56402518224512" lon="17.80424172454043"><ele>66.39999999999999</ele><time>2026-03-29T14:12:18.999Z</time></trkpt><trkpt lat="40.56411487422795" lon="17.804148274944858"><ele>66.2</ele><time>2026-03-29T14:12:19.999Z</time></trkpt><trkpt lat="40.564181404563115" lon="17.804077635916638"><ele>66.0</ele><time>2026-03-29T14:12:20.999Z</time></trkpt><trkpt lat="40.56427107812443" lon="17.803989424235105"><ele>66.0</ele><time>2026-03-29T14:12:22.999Z</time></trkpt><trkpt lat="40.5643907635286" lon="17.803851133853335"><ele>66.0</ele><time>2026-03-29T14:12:24.999Z</time></trkpt><trkpt lat="40.5644993104309" lon="17.80372580497557"><ele>66.0</ele><time>2026-03-29T14:12:25.999Z</time></trkpt><trkpt lat="40.564636659149244" lon="17.80356772539779"><ele>66.0</ele><time>2026-03-29T14:12:26.999Z</time></trkpt><trkpt lat="40.56476814389337" lon="17.80339257801359"><ele>66.0</ele><time>2026-03-29T14:12:27.999Z</time></trkpt><trkpt lat="40.56487731896758" lon="17.80329309415675"><ele>66.0</ele><time>2026-03-29T14:12:28.999Z</time></trkpt><trkpt lat="40.56495913267459" lon="17.803202141609987"><ele>66.0</ele><time>2026-03-29T14:12:29.999Z</time></trkpt><trkpt lat="40.56502622600745" lon="17.803127182804303"><ele>66.0</ele><time>2026-03-29T14:12:30.999Z</time></trkpt><trkpt lat="40.56509134496031" lon="17.80305505807941"><ele>66.0</ele><time>2026-03-29T14:12:31.999Z</time></trkpt><trkpt lat="40.56517411020233" lon="17.80296374870659"><ele>66.0</ele><time>2026-03-29T14:12:32.999Z</time></trkpt><trkpt lat="40.56527440388966" lon="17.802853362588984"><ele>66.0</ele><time>2026-03-29T14:12:33.999Z</time></trkpt><trkpt lat="40.56541499619904" lon="17.802704303826996"><ele>65.66666666666667</ele><time>2026-03-29T14:12:34.999Z</time></trkpt><trkpt lat="40.56557239281126" lon="17.802537850970904"><ele>65.33333333333334</ele><time>2026-03-29T14:12:35.999Z</time></trkpt><trkpt lat="40.56575249803673" lon="17.802327506194942"><ele>65.0</ele><time>2026-03-29T14:12:36.999Z</time></trkpt><trkpt lat="40.565962480558916" lon="17.802125313591173"><ele>65.0</ele><time>2026-03-29T14:12:37.999Z</time></trkpt><trkpt lat="40.56618207231651" lon="17.801903175397864"><ele>65.0</ele><time>2026-03-29T14:12:38.999Z</time></trkpt><trkpt lat="40.566392837720926" lon="17.801693967340793"><ele>65.33333333333334</ele><time>2026-03-29T14:12:39.999Z</time></trkpt><trkpt lat="40.56657303682797" lon="17.801507958322947"><ele>65.66666666666667</ele><time>2026-03-29T14:12:40.999Z</time></trkpt><trkpt lat="40.566733982756475" lon="17.801338446520333"><ele>66.0</ele><time>2026-03-29T14:12:41.999Z</time></trkpt><trkpt lat="40.56687802903013" lon="17.801187482418566"><ele>66.0</ele><time>2026-03-29T14:12:42.999Z</time></trkpt><trkpt lat="40.567010787974425" lon="17.801051095326084"><ele>66.0</ele><time>2026-03-29T14:12:43.999Z</time></trkpt><trkpt lat="40.56713428469121" lon="17.80092422474698"><ele>66.0</ele><time>2026-03-29T14:12:44.999Z</time></trkpt><trkpt lat="40.567259317303474" lon="17.800778963421468"><ele>65.0</ele><time>2026-03-29T14:12:45.999Z</time></trkpt><trkpt lat="40.56739984556885" lon="17.800637377431787"><ele>64.0</ele><time>2026-03-29T14:12:46.999Z</time></trkpt><trkpt lat="40.56755342551256" lon="17.800459865162065"><ele>63.0</ele><time>2026-03-29T14:12:47.999Z</time></trkpt><trkpt lat="40.56774182656874" lon="17.80028178927571"><ele>62.5</ele><time>2026-03-29T14:12:48.999Z</time></trkpt><trkpt lat="40.567928539644264" lon="17.800064093608363"><ele>62.0</ele><time>2026-03-29T14:12:49.999Z</time></trkpt><trkpt lat="40.56813115202746" lon="17.799853628939058"><ele>62.0</ele><time>2026-03-29T14:12:50.999Z</time></trkpt><trkpt lat="40.56833578435437" lon="17.799642601718258"><ele>62.0</ele><time>2026-03-29T14:12:51.999Z</time></trkpt><trkpt lat="40.56852790908052" lon="17.7994351873025"><ele>61.5</ele><time>2026-03-29T14:12:52.999Z</time></trkpt><trkpt lat="40.56877673510139" lon="17.79923800465022"><ele>61.0</ele><time>2026-03-29T14:12:53.999Z</time></trkpt><trkpt lat="40.56900768898029" lon="17.798961534382336"><ele>61.0</ele><time>2026-03-29T14:12:54.999Z</time></trkpt><trkpt lat="40.56927669173933" lon="17.79869500486592"><ele>61.0</ele><time>2026-03-29T14:12:55.999Z</time></trkpt><trkpt lat="40.56950893757581" lon="17.798450663590202"><ele>61.33333333333333</ele><time>2026-03-29T14:12:56.999Z</time></trkpt><trkpt lat="40.56966469478347" lon="17.79826934092361"><ele>61.66666666666667</ele><time>2026-03-29T14:12:57.999Z</time></trkpt><trkpt lat="40.569834871170265" lon="17.79808519603006"><ele>62.0</ele><time>2026-03-29T14:12:58.999Z</time></trkpt><trkpt lat="40.56996685156348" lon="17.79794742393309"><ele>62.0</ele><time>2026-03-29T14:12:59.999Z</time></trkpt><trkpt lat="40.57008566788226" lon="17.79783956445365"><ele>62.0</ele><time>2026-03-29T14:13:00.999Z</time></trkpt><trkpt lat="40.57016640034501" lon="17.79773556458699"><ele>62.0</ele><time>2026-03-29T14:13:01.999Z</time></trkpt><trkpt lat="40.57029769974021" lon="17.79761698441754"><ele>62.0</ele><time>2026-03-29T14:13:02.999Z</time></trkpt><trkpt lat="40.57043139749616" lon="17.797478974274622"><ele>62.0</ele><time>2026-03-29T14:13:03.999Z</time></trkpt><trkpt lat="40.57057237221913" lon="17.79732090087064"><ele>62.0</ele><time>2026-03-29T14:13:04.999Z</time></trkpt><trkpt lat="40.570717833417866" lon="17.79717937910691"><ele>62.0</ele><time>2026-03-29T14:13:05.999Z</time></trkpt><trkpt lat="40.57087035536416" lon="17.797014384076213"><ele>62.0</ele><time>2026-03-29T14:13:06.999Z</time></trkpt><trkpt lat="40.57102242095966" lon="17.79686213306035"><ele>62.0</ele><time>2026-03-29T14:13:07.999Z</time></trkpt><trkpt lat="40.57115967802403" lon="17.796720098460042"><ele>62.0</ele><time>2026-03-29T14:13:08.999Z</time></trkpt><trkpt lat="40.571281666638626" lon="17.796590520898874"><ele>62.0</ele><time>2026-03-29T14:13:09.999Z</time></trkpt><trkpt lat="40.57142585194635" lon="17.79643398443294"><ele>62.0</ele><time>2026-03-29T14:13:10.999Z</time></trkpt><trkpt lat="40.57160587877431" lon="17.79625131768797"><ele>62.0</ele><time>2026-03-29T14:13:11.999Z</time></trkpt><trkpt lat="40.57178324845642" lon="17.796055864986922"><ele>62.0</ele><time>2026-03-29T14:13:12.999Z</time></trkpt><trkpt lat="40.57198036379893" lon="17.795847254119188"><ele>62.0</ele><time>2026-03-29T14:13:13.999Z</time></trkpt><trkpt lat="40.572185971061614" lon="17.795629419906433"><ele>62.5</ele><time>2026-03-29T14:13:14.999Z</time></trkpt><trkpt lat="40.57239980051477" lon="17.79540548208697"><ele>63.0</ele><time>2026-03-29T14:13:15.999Z</time></trkpt><trkpt lat="40.57261271496662" lon="17.795172493035793"><ele>64.0</ele><time>2026-03-29T14:13:16.999Z</time></trkpt><trkpt lat="40.572815258711884" lon="17.794967022686862"><ele>65.0</ele><time>2026-03-29T14:13:17.999Z</time></trkpt><trkpt lat="40.57300305881571" lon="17.79477732607966"><ele>65.0</ele><time>2026-03-29T14:13:18.999Z</time></trkpt><trkpt lat="40.57319375639464" lon="17.794587433479336"><ele>65.0</ele><time>2026-03-29T14:13:19.999Z</time></trkpt><trkpt lat="40.57337834721489" lon="17.794390151095968"><ele>65.33333333333334</ele><time>2026-03-29T14:13:20.999Z</time></trkpt><trkpt lat="40.57356096982553" lon="17.79420080147781"><ele>65.66666666666667</ele><time>2026-03-29T14:13:21.999Z</time></trkpt><trkpt lat="40.573719329563765" lon="17.794028645079447"><ele>66.0</ele><time>2026-03-29T14:13:22.999Z</time></trkpt><trkpt lat="40.57382916452205" lon="17.793908428737137"><ele>65.6</ele><time>2026-03-29T14:13:23.999Z</time></trkpt><trkpt lat="40.57391560144227" lon="17.79382458733711"><ele>65.19999999999999</ele><time>2026-03-29T14:13:24.999Z</time></trkpt><trkpt lat="40.573982747401686" lon="17.79374439032022"><ele>64.80000000000001</ele><time>2026-03-29T14:13:25.999Z</time></trkpt><trkpt lat="40.57406612336065" lon="17.793659843168967"><ele>64.4</ele><time>2026-03-29T14:13:26.999Z</time></trkpt><trkpt lat="40.57417795835352" lon="17.793564284335375"><ele>64.0</ele><time>2026-03-29T14:13:27.999Z</time></trkpt><trkpt lat="40.57429044533362" lon="17.79344049034512"><ele>63.666666666666664</ele><time>2026-03-29T14:13:28.999Z</time></trkpt><trkpt lat="40.57443125591208" lon="17.793280576018322"><ele>63.33333333333333</ele><time>2026-03-29T14:13:29.999Z</time></trkpt><trkpt lat="40.57456701931221" lon="17.79313193858399"><ele>63.0</ele><time>2026-03-29T14:13:30.999Z</time></trkpt><trkpt lat="40.57471733005854" lon="17.79298306516899"><ele>63.0</ele><time>2026-03-29T14:13:31.999Z</time></trkpt><trkpt lat="40.57489545544388" lon="17.792811587843634"><ele>63.0</ele><time>2026-03-29T14:13:32.999Z</time></trkpt><trkpt lat="40.57507946870167" lon="17.79261930592133"><ele>63.5</ele><time>2026-03-29T14:13:33.999Z</time></trkpt><trkpt lat="40.575279341608116" lon="17.792396128867896"><ele>64.0</ele><time>2026-03-29T14:13:34.999Z</time></trkpt><trkpt lat="40.575516420782954" lon="17.792167898807197"><ele>64.0</ele><time>2026-03-29T14:13:35.999Z</time></trkpt><trkpt lat="40.575762630134" lon="17.79194038067942"><ele>64.0</ele><time>2026-03-29T14:13:36.999Z</time></trkpt><trkpt lat="40.576044046226606" lon="17.791698829735534"><ele>64.0</ele><time>2026-03-29T14:13:37.999Z</time></trkpt><trkpt lat="40.57631031185947" lon="17.791406456309886"><ele>64.0</ele><time>2026-03-29T14:13:38.999Z</time></trkpt><trkpt lat="40.57657819521918" lon="17.79105307141623"><ele>64.5</ele><time>2026-03-29T14:13:39.999Z</time></trkpt><trkpt lat="40.57687047106947" lon="17.79074113757628"><ele>65.0</ele><time>2026-03-29T14:13:40.999Z</time></trkpt><trkpt lat="40.577175372688984" lon="17.790432901081154"><ele>65.5</ele><time>2026-03-29T14:13:41.999Z</time></trkpt><trkpt lat="40.57748672267195" lon="17.790108668467827"><ele>66.0</ele><time>2026-03-29T14:13:42.999Z</time></trkpt><trkpt lat="40.57780508689109" lon="17.78975472612773"><ele>66.0</ele><time>2026-03-29T14:13:43.999Z</time></trkpt><trkpt lat="40.5781237653205" lon="17.78940473577295"><ele>66.0</ele><time>2026-03-29T14:13:44.999Z</time></trkpt><trkpt lat="40.578447336596675" lon="17.789071976987458"><ele>66.5</ele><time>2026-03-29T14:13:45.999Z</time></trkpt><trkpt lat="40.578769815814006" lon="17.78874408225618"><ele>67.0</ele><time>2026-03-29T14:13:46.999Z</time></trkpt><trkpt lat="40.57906435013971" lon="17.78840465293826"><ele>67.0</ele><time>2026-03-29T14:13:47.999Z</time></trkpt><trkpt lat="40.5793453935475" lon="17.7881304854929"><ele>67.0</ele><time>2026-03-29T14:13:48.999Z</time></trkpt><trkpt lat="40.579599164474594" lon="17.78788050893882"><ele>68.0</ele><time>2026-03-29T14:13:49.999Z</time></trkpt><trkpt lat="40.57983374096354" lon="17.78763374584689"><ele>69.0</ele><time>2026-03-29T14:13:50.999Z</time></trkpt><trkpt lat="40.58006157817965" lon="17.787409461487744"><ele>69.0</ele><time>2026-03-29T14:13:51.999Z</time></trkpt><trkpt lat="40.58026503727309" lon="17.78720633838801"><ele>69.0</ele><time>2026-03-29T14:13:52.999Z</time></trkpt><trkpt lat="40.58041708802504" lon="17.787040617743965"><ele>69.0</ele><time>2026-03-29T14:13:53.999Z</time></trkpt><trkpt lat="40.5805603745914" lon="17.786892753512056"><ele>69.0</ele><time>2026-03-29T14:13:54.999Z</time></trkpt><trkpt lat="40.58068428551705" lon="17.786764165301673"><ele>69.0</ele><time>2026-03-29T14:13:55.999Z</time></trkpt><trkpt lat="40.58079418794923" lon="17.786653246801738"><ele>69.0</ele><time>2026-03-29T14:13:56.999Z</time></trkpt><trkpt lat="40.58087765054303" lon="17.786563734646883"><ele>69.0</ele><time>2026-03-29T14:13:57.999Z</time></trkpt><trkpt lat="40.580954382594044" lon="17.78648156308866"><ele>69.0</ele><time>2026-03-29T14:13:58.999Z</time></trkpt><trkpt lat="40.58102267379457" lon="17.78641525011094"><ele>69.0</ele><time>2026-03-29T14:13:59.999Z</time></trkpt><trkpt lat="40.58110297523776" lon="17.786332301418785"><ele>69.0</ele><time>2026-03-29T14:14:00.999Z</time></trkpt><trkpt lat="40.58119347363042" lon="17.78620526049759"><ele>68.33333333333333</ele><time>2026-03-29T14:14:02Z</time></trkpt><trkpt lat="40.58133633782783" lon="17.78608500123144"><ele>67.66666666666666</ele><time>2026-03-29T14:14:03Z</time></trkpt><trkpt lat="40.581467090708564" lon="17.78595435674488"><ele>67.0</ele><time>2026-03-29T14:14:04Z</time></trkpt><trkpt lat="40.58161615140104" lon="17.785795063572717"><ele>67.0</ele><time>2026-03-29T14:14:05Z</time></trkpt><trkpt lat="40.58178405490012" lon="17.785629823664948"><ele>67.0</ele><time>2026-03-29T14:14:06Z</time></trkpt><trkpt lat="40.58196278838252" lon="17.7854713781251"><ele>67.0</ele><time>2026-03-29T14:14:07Z</time></trkpt><trkpt lat="40.58215037100935" lon="17.785245087374268"><ele>66.5</ele><time>2026-03-29T14:14:08Z</time></trkpt><trkpt lat="40.58237122559919" lon="17.785024031540708"><ele>66.0</ele><time>2026-03-29T14:14:09Z</time></trkpt><trkpt lat="40.58259566209041" lon="17.784796207020644"><ele>66.0</ele><time>2026-03-29T14:14:10Z</time></trkpt><trkpt lat="40.58282607485286" lon="17.784538040409096"><ele>66.0</ele><time>2026-03-29T14:14:11Z</time></trkpt><trkpt lat="40.58306586125328" lon="17.784281847478862"><ele>65.5</ele><time>2026-03-29T14:14:12Z</time></trkpt><trkpt lat="40.58331146321396" lon="17.784031210502366"><ele>65.0</ele><time>2026-03-29T14:14:13Z</time></trkpt><trkpt lat="40.58355615002191" lon="17.78376847785658"><ele>65.5</ele><time>2026-03-29T14:14:14Z</time></trkpt><trkpt lat="40.583803985238795" lon="17.783508294833393"><ele>66.0</ele><time>2026-03-29T14:14:15Z</time></trkpt><trkpt lat="40.58405496537055" lon="17.78324510327304"><ele>66.0</ele><time>2026-03-29T14:14:16Z</time></trkpt><trkpt lat="40.5842930448709" lon="17.782959211093463"><ele>66.0</ele><time>2026-03-29T14:14:17Z</time></trkpt><trkpt lat="40.584546706387584" lon="17.78270071911828"><ele>66.5</ele><time>2026-03-29T14:14:18Z</time></trkpt><trkpt lat="40.58480134170541" lon="17.782452895255734"><ele>67.0</ele><time>2026-03-29T14:14:19Z</time></trkpt><trkpt lat="40.585044253190226" lon="17.782198868320485"><ele>67.0</ele><time>2026-03-29T14:14:20Z</time></trkpt><trkpt lat="40.585290538909526" lon="17.781941671309603"><ele>67.0</ele><time>2026-03-29T14:14:21Z</time></trkpt><trkpt lat="40.58553940002844" lon="17.781680165989872"><ele>67.0</ele><time>2026-03-29T14:14:22Z</time></trkpt><trkpt lat="40.58578437037985" lon="17.781429033820746"><ele>67.0</ele><time>2026-03-29T14:14:22.999Z</time></trkpt><trkpt lat="40.58602558355741" lon="17.781179380120783"><ele>66.0</ele><time>2026-03-29T14:14:23.999Z</time></trkpt><trkpt lat="40.586271707609775" lon="17.78093094743899"><ele>65.0</ele><time>2026-03-29T14:14:24.999Z</time></trkpt><trkpt lat="40.586519158662135" lon="17.78069387900622"><ele>65.0</ele><time>2026-03-29T14:14:25.999Z</time></trkpt><trkpt lat="40.58674834460158" lon="17.780433006678013"><ele>65.0</ele><time>2026-03-29T14:14:26.999Z</time></trkpt><trkpt lat="40.58698577249536" lon="17.78017328935766"><ele>66.0</ele><time>2026-03-29T14:14:27.999Z</time></trkpt><trkpt lat="40.58722496099231" lon="17.779917064448675"><ele>67.0</ele><time>2026-03-29T14:14:28.999Z</time></trkpt><trkpt lat="40.58746340790054" lon="17.77967886084932"><ele>67.0</ele><time>2026-03-29T14:14:29.999Z</time></trkpt><trkpt lat="40.587705834576184" lon="17.779437210824117"><ele>67.0</ele><time>2026-03-29T14:14:30.999Z</time></trkpt><trkpt lat="40.587939743058875" lon="17.77919153927258"><ele>67.5</ele><time>2026-03-29T14:14:31.999Z</time></trkpt><trkpt lat="40.58817171885778" lon="17.778944423017602"><ele>68.0</ele><time>2026-03-29T14:14:32.999Z</time></trkpt><trkpt lat="40.588394730672164" lon="17.77869670262474"><ele>68.0</ele><time>2026-03-29T14:14:33.999Z</time></trkpt><trkpt lat="40.58862528890357" lon="17.778452671468827"><ele>68.0</ele><time>2026-03-29T14:14:34.999Z</time></trkpt><trkpt lat="40.58885694694168" lon="17.77821200998124"><ele>67.5</ele><time>2026-03-29T14:14:35.999Z</time></trkpt><trkpt lat="40.589092609027276" lon="17.777972288317237"><ele>67.0</ele><time>2026-03-29T14:14:36.999Z</time></trkpt><trkpt lat="40.589328710760526" lon="17.77773174949539"><ele>66.0</ele><time>2026-03-29T14:14:37.999Z</time></trkpt><trkpt lat="40.58954791769598" lon="17.777515585371898"><ele>65.0</ele><time>2026-03-29T14:14:38.999Z</time></trkpt><trkpt lat="40.58976850519529" lon="17.77727926268714"><ele>65.0</ele><time>2026-03-29T14:14:39.999Z</time></trkpt><trkpt lat="40.58999430140229" lon="17.77705142965969"><ele>65.0</ele><time>2026-03-29T14:14:40.999Z</time></trkpt><trkpt lat="40.59021835386972" lon="17.776824798536932"><ele>66.0</ele><time>2026-03-29T14:14:41.999Z</time></trkpt><trkpt lat="40.59044002745161" lon="17.776594817419575"><ele>67.0</ele><time>2026-03-29T14:14:42.999Z</time></trkpt><trkpt lat="40.59065963548446" lon="17.77636558027149"><ele>67.0</ele><time>2026-03-29T14:14:43.999Z</time></trkpt><trkpt lat="40.59087676259283" lon="17.776140479456664"><ele>67.0</ele><time>2026-03-29T14:14:44.999Z</time></trkpt><trkpt lat="40.59109740236772" lon="17.775909085424438"><ele>67.5</ele><time>2026-03-29T14:14:45.999Z</time></trkpt><trkpt lat="40.59131929082956" lon="17.77567370878454"><ele>68.0</ele><time>2026-03-29T14:14:46.999Z</time></trkpt><trkpt lat="40.591548078199644" lon="17.775441033860293"><ele>68.0</ele><time>2026-03-29T14:14:47.999Z</time></trkpt><trkpt lat="40.5917689172715" lon="17.775207651641203"><ele>68.0</ele><time>2026-03-29T14:14:48.999Z</time></trkpt><trkpt lat="40.59198613090868" lon="17.774976767030225"><ele>67.0</ele><time>2026-03-29T14:14:49.999Z</time></trkpt><trkpt lat="40.59220534348789" lon="17.774738364050574"><ele>66.0</ele><time>2026-03-29T14:14:50.999Z</time></trkpt><trkpt lat="40.592426933912115" lon="17.774508283483563"><ele>66.0</ele><time>2026-03-29T14:14:51.999Z</time></trkpt><trkpt lat="40.59265322423514" lon="17.774276824445796"><ele>66.0</ele><time>2026-03-29T14:14:52.999Z</time></trkpt><trkpt lat="40.59288301045241" lon="17.77404092816068"><ele>66.0</ele><time>2026-03-29T14:14:53.999Z</time></trkpt><trkpt lat="40.59311546080038" lon="17.773803485284635"><ele>66.0</ele><time>2026-03-29T14:14:54.999Z</time></trkpt><trkpt lat="40.59334490137775" lon="17.77356513699772"><ele>66.0</ele><time>2026-03-29T14:14:55.999Z</time></trkpt><trkpt lat="40.59357802800441" lon="17.773324181569937"><ele>66.0</ele><time>2026-03-29T14:14:56.999Z</time></trkpt><trkpt lat="40.5938046249898" lon="17.773080156502886"><ele>66.0</ele><time>2026-03-29T14:14:57.999Z</time></trkpt><trkpt lat="40.59403376732284" lon="17.77283431880474"><ele>66.0</ele><time>2026-03-29T14:14:58.999Z</time></trkpt><trkpt lat="40.594261043091976" lon="17.772596608183548"><ele>66.5</ele><time>2026-03-29T14:14:59.999Z</time></trkpt><trkpt lat="40.594483221113755" lon="17.77236612561848"><ele>67.0</ele><time>2026-03-29T14:15:00.999Z</time></trkpt><trkpt lat="40.59471868199241" lon="17.772130066827042"><ele>66.0</ele><time>2026-03-29T14:15:01.999Z</time></trkpt><trkpt lat="40.5949390312908" lon="17.771888066634492"><ele>65.0</ele><time>2026-03-29T14:15:02.999Z</time></trkpt><trkpt lat="40.59515845764681" lon="17.771658098024975"><ele>65.0</ele><time>2026-03-29T14:15:03.999Z</time></trkpt><trkpt lat="40.59538709915254" lon="17.77144345427068"><ele>65.0</ele><time>2026-03-29T14:15:04.999Z</time></trkpt><trkpt lat="40.59560826674279" lon="17.771211429425424"><ele>65.5</ele><time>2026-03-29T14:15:05.999Z</time></trkpt><trkpt lat="40.59582454002395" lon="17.77098453914914"><ele>66.0</ele><time>2026-03-29T14:15:06.999Z</time></trkpt><trkpt lat="40.59603725560872" lon="17.77076105833063"><ele>65.5</ele><time>2026-03-29T14:15:07.999Z</time></trkpt><trkpt lat="40.59625295528221" lon="17.770533744613026"><ele>65.0</ele><time>2026-03-29T14:15:08.999Z</time></trkpt><trkpt lat="40.59646930433596" lon="17.770307404497334"><ele>66.0</ele><time>2026-03-29T14:15:09.999Z</time></trkpt><trkpt lat="40.59668615941356" lon="17.7700824369399"><ele>67.0</ele><time>2026-03-29T14:15:10.999Z</time></trkpt><trkpt lat="40.596891788405266" lon="17.769866581604017"><ele>66.5</ele><time>2026-03-29T14:15:11.999Z</time></trkpt><trkpt lat="40.5970944788981" lon="17.76963122179511"><ele>66.0</ele><time>2026-03-29T14:15:12.999Z</time></trkpt><trkpt lat="40.59730385927065" lon="17.76941292810973"><ele>66.0</ele><time>2026-03-29T14:15:13.999Z</time></trkpt><trkpt lat="40.59751516965509" lon="17.76919658811081"><ele>66.0</ele><time>2026-03-29T14:15:14.999Z</time></trkpt><trkpt lat="40.597730683060114" lon="17.768980069398378"><ele>66.5</ele><time>2026-03-29T14:15:15.999Z</time></trkpt><trkpt lat="40.59793347564691" lon="17.768761800778318"><ele>67.0</ele><time>2026-03-29T14:15:16.999Z</time></trkpt><trkpt lat="40.59812944580252" lon="17.76855561956679"><ele>67.0</ele><time>2026-03-29T14:15:17.999Z</time></trkpt><trkpt lat="40.59832938759698" lon="17.768342494356936"><ele>67.0</ele><time>2026-03-29T14:15:18.999Z</time></trkpt><trkpt lat="40.59853506152059" lon="17.768130119588132"><ele>67.5</ele><time>2026-03-29T14:15:19.999Z</time></trkpt><trkpt lat="40.598744214641805" lon="17.76791268906018"><ele>68.0</ele><time>2026-03-29T14:15:20.999Z</time></trkpt><trkpt lat="40.598968668982685" lon="17.767700230948073"><ele>67.0</ele><time>2026-03-29T14:15:21.999Z</time></trkpt><trkpt lat="40.59918218323075" lon="17.767478346203678"><ele>66.0</ele><time>2026-03-29T14:15:22.999Z</time></trkpt><trkpt lat="40.59939324360023" lon="17.767232863107115"><ele>66.0</ele><time>2026-03-29T14:15:23.999Z</time></trkpt><trkpt lat="40.599634089139656" lon="17.7670090320667"><ele>66.0</ele><time>2026-03-29T14:15:24.999Z</time></trkpt><trkpt lat="40.59986183740832" lon="17.766750110595105"><ele>66.0</ele><time>2026-03-29T14:15:25.999Z</time></trkpt><trkpt lat="40.60009798924833" lon="17.766529389561725"><ele>66.0</ele><time>2026-03-29T14:15:26.999Z</time></trkpt><trkpt lat="40.60031759572136" lon="17.766273229084334"><ele>66.5</ele><time>2026-03-29T14:15:27.999Z</time></trkpt><trkpt lat="40.60054640484705" lon="17.76603339787762"><ele>67.0</ele><time>2026-03-29T14:15:28.999Z</time></trkpt><trkpt lat="40.60077643656035" lon="17.7657974751539"><ele>67.0</ele><time>2026-03-29T14:15:29.999Z</time></trkpt><trkpt lat="40.6010156993136" lon="17.76557486816833"><ele>67.0</ele><time>2026-03-29T14:15:30.999Z</time></trkpt><trkpt lat="40.601245959877026" lon="17.765337070857015"><ele>67.0</ele><time>2026-03-29T14:15:31.999Z</time></trkpt><trkpt lat="40.60147224171507" lon="17.76510269750088"><ele>67.0</ele><time>2026-03-29T14:15:32.999Z</time></trkpt><trkpt lat="40.60169803823116" lon="17.764867350071317"><ele>67.0</ele><time>2026-03-29T14:15:33.999Z</time></trkpt><trkpt lat="40.60192209193325" lon="17.764631712748095"><ele>67.0</ele><time>2026-03-29T14:15:34.999Z</time></trkpt><trkpt lat="40.60214473767138" lon="17.76439998648599"><ele>68.0</ele><time>2026-03-29T14:15:35.999Z</time></trkpt><trkpt lat="40.60236730110473" lon="17.7641688062579"><ele>69.0</ele><time>2026-03-29T14:15:36.999Z</time></trkpt><trkpt lat="40.60259093014376" lon="17.763935118830414"><ele>69.0</ele><time>2026-03-29T14:15:37.999Z</time></trkpt><trkpt lat="40.602799950951855" lon="17.763716576123333"><ele>69.0</ele><time>2026-03-29T14:15:38.999Z</time></trkpt><trkpt lat="40.603014112782056" lon="17.76347662002919"><ele>68.0</ele><time>2026-03-29T14:15:39.999Z</time></trkpt><trkpt lat="40.603227091495086" lon="17.76324704116353"><ele>67.0</ele><time>2026-03-29T14:15:40.999Z</time></trkpt><trkpt lat="40.60344854132305" lon="17.763016287023316"><ele>67.0</ele><time>2026-03-29T14:15:41.999Z</time></trkpt><trkpt lat="40.60366598875717" lon="17.76279184939037"><ele>67.0</ele><time>2026-03-29T14:15:42.999Z</time></trkpt><trkpt lat="40.603871357698544" lon="17.762570835942615"><ele>67.0</ele><time>2026-03-29T14:15:43.999Z</time></trkpt><trkpt lat="40.604055261034766" lon="17.76237927346147"><ele>67.0</ele><time>2026-03-29T14:15:44.999Z</time></trkpt><trkpt lat="40.60423592862084" lon="17.76220321120469"><ele>67.0</ele><time>2026-03-29T14:15:45.999Z</time></trkpt><trkpt lat="40.604402655833994" lon="17.762017503248966"><ele>67.0</ele><time>2026-03-29T14:15:46.999Z</time></trkpt><trkpt lat="40.60456486748082" lon="17.76184477615523"><ele>67.0</ele><time>2026-03-29T14:15:47.999Z</time></trkpt><trkpt lat="40.604722860925484" lon="17.761680442112656"><ele>67.0</ele><time>2026-03-29T14:15:48.999Z</time></trkpt><trkpt lat="40.60487322752485" lon="17.76152950194387"><ele>67.0</ele><time>2026-03-29T14:15:49.999Z</time></trkpt><trkpt lat="40.60501870075304" lon="17.761377909844374"><ele>67.0</ele><time>2026-03-29T14:15:50.999Z</time></trkpt><trkpt lat="40.60517779614779" lon="17.761214959361546"><ele>66.5</ele><time>2026-03-29T14:15:51.999Z</time></trkpt><trkpt lat="40.60535660033859" lon="17.761028204671444"><ele>66.0</ele><time>2026-03-29T14:15:52.999Z</time></trkpt><trkpt lat="40.605548658908994" lon="17.760825012898817"><ele>66.0</ele><time>2026-03-29T14:15:53.999Z</time></trkpt><trkpt lat="40.605748290503655" lon="17.76061294657415"><ele>66.0</ele><time>2026-03-29T14:15:54.999Z</time></trkpt><trkpt lat="40.60595211109265" lon="17.76039825697321"><ele>66.0</ele><time>2026-03-29T14:15:55.999Z</time></trkpt><trkpt lat="40.60615929740133" lon="17.760186665902296"><ele>66.0</ele><time>2026-03-29T14:15:56.999Z</time></trkpt><trkpt lat="40.60636655484567" lon="17.75997415009444"><ele>67.0</ele><time>2026-03-29T14:15:57.999Z</time></trkpt><trkpt lat="40.60657257166223" lon="17.759754004007643"><ele>68.0</ele><time>2026-03-29T14:15:58.999Z</time></trkpt><trkpt lat="40.606779562444444" lon="17.759520039792257"><ele>67.5</ele><time>2026-03-29T14:15:59.999Z</time></trkpt><trkpt lat="40.60699064950917" lon="17.75931281720042"><ele>67.0</ele><time>2026-03-29T14:16:00.999Z</time></trkpt><trkpt lat="40.607193809895456" lon="17.75906804928846"><ele>66.0</ele><time>2026-03-29T14:16:01.999Z</time></trkpt><trkpt lat="40.607404210842375" lon="17.758820742749606"><ele>65.0</ele><time>2026-03-29T14:16:02.999Z</time></trkpt><trkpt lat="40.60764928600736" lon="17.758613841707064"><ele>66.0</ele><time>2026-03-29T14:16:03.999Z</time></trkpt><trkpt lat="40.60787585625079" lon="17.75838383040994"><ele>67.0</ele><time>2026-03-29T14:16:04.999Z</time></trkpt><trkpt lat="40.60810133821256" lon="17.75815125538861"><ele>67.0</ele><time>2026-03-29T14:16:05.999Z</time></trkpt><trkpt lat="40.60832768967031" lon="17.757911471938094"><ele>67.0</ele><time>2026-03-29T14:16:06.999Z</time></trkpt><trkpt lat="40.60856646179755" lon="17.757663371169"><ele>66.5</ele><time>2026-03-29T14:16:07.999Z</time></trkpt><trkpt lat="40.608810074921564" lon="17.757409154810688"><ele>66.0</ele><time>2026-03-29T14:16:08.999Z</time></trkpt><trkpt lat="40.609056014193676" lon="17.757152918102214"><ele>66.0</ele><time>2026-03-29T14:16:09.999Z</time></trkpt><trkpt lat="40.60929575542996" lon="17.75690775997419"><ele>66.0</ele><time>2026-03-29T14:16:10.999Z</time></trkpt><trkpt lat="40.60952897112075" lon="17.756661164491334"><ele>66.0</ele><time>2026-03-29T14:16:11.999Z</time></trkpt><trkpt lat="40.609759910776965" lon="17.756420616640245"><ele>66.0</ele><time>2026-03-29T14:16:12.999Z</time></trkpt><trkpt lat="40.60998749260708" lon="17.756173532300842"><ele>66.5</ele><time>2026-03-29T14:16:13.999Z</time></trkpt><trkpt lat="40.610222582426395" lon="17.755911766083994"><ele>67.0</ele><time>2026-03-29T14:16:14.999Z</time></trkpt><trkpt lat="40.61046853591116" lon="17.75564086451662"><ele>67.0</ele><time>2026-03-29T14:16:15.999Z</time></trkpt><trkpt lat="40.61071603903166" lon="17.755381213888228"><ele>67.0</ele><time>2026-03-29T14:16:16.999Z</time></trkpt><trkpt lat="40.61097672517855" lon="17.75513631749476"><ele>67.5</ele><time>2026-03-29T14:16:17.999Z</time></trkpt><trkpt lat="40.611236673085294" lon="17.754887362529853"><ele>68.0</ele><time>2026-03-29T14:16:18.999Z</time></trkpt><trkpt lat="40.61148318393033" lon="17.754638457690568"><ele>68.0</ele><time>2026-03-29T14:16:19.999Z</time></trkpt><trkpt lat="40.611721200761345" lon="17.754384355095134"><ele>68.0</ele><time>2026-03-29T14:16:21Z</time></trkpt><trkpt lat="40.611957336595296" lon="17.754127980995516"><ele>69.0</ele><time>2026-03-29T14:16:22Z</time></trkpt><trkpt lat="40.61219782097475" lon="17.75385536814344"><ele>70.0</ele><time>2026-03-29T14:16:23Z</time></trkpt><trkpt lat="40.61245122397564" lon="17.753620415272763"><ele>70.0</ele><time>2026-03-29T14:16:24Z</time></trkpt><trkpt lat="40.612700596849315" lon="17.753358376759625"><ele>70.0</ele><time>2026-03-29T14:16:25Z</time></trkpt><trkpt lat="40.61294908575091" lon="17.75310231079976"><ele>70.0</ele><time>2026-03-29T14:16:26Z</time></trkpt><trkpt lat="40.6131955022178" lon="17.75284700405723"><ele>70.0</ele><time>2026-03-29T14:16:27Z</time></trkpt><trkpt lat="40.61344575516745" lon="17.752587736261273"><ele>70.0</ele><time>2026-03-29T14:16:28Z</time></trkpt><trkpt lat="40.61369070480592" lon="17.752330061051556"><ele>70.0</ele><time>2026-03-29T14:16:29Z</time></trkpt><trkpt lat="40.613933549412764" lon="17.752070343557744"><ele>70.5</ele><time>2026-03-29T14:16:30Z</time></trkpt><trkpt lat="40.61417093884517" lon="17.751817155033795"><ele>71.0</ele><time>2026-03-29T14:16:31Z</time></trkpt><trkpt lat="40.61440957939652" lon="17.75157194167731"><ele>71.0</ele><time>2026-03-29T14:16:32Z</time></trkpt><trkpt lat="40.61464794446375" lon="17.751322216559714"><ele>71.0</ele><time>2026-03-29T14:16:33Z</time></trkpt><trkpt lat="40.61488933801222" lon="17.75107528143138"><ele>71.5</ele><time>2026-03-29T14:16:34Z</time></trkpt><trkpt lat="40.61512486919142" lon="17.75082496228551"><ele>72.0</ele><time>2026-03-29T14:16:35Z</time></trkpt><trkpt lat="40.6153641218524" lon="17.750578432078516"><ele>72.0</ele><time>2026-03-29T14:16:36Z</time></trkpt><trkpt lat="40.61560397569657" lon="17.75032989624346"><ele>72.0</ele><time>2026-03-29T14:16:37Z</time></trkpt><trkpt lat="40.61584129136258" lon="17.750079121578548"><ele>72.5</ele><time>2026-03-29T14:16:38Z</time></trkpt><trkpt lat="40.616073109034396" lon="17.74983082528436"><ele>73.0</ele><time>2026-03-29T14:16:39Z</time></trkpt><trkpt lat="40.61630481377282" lon="17.74959252444591"><ele>74.5</ele><time>2026-03-29T14:16:40Z</time></trkpt><trkpt lat="40.61653612344536" lon="17.749360333266694"><ele>76.0</ele><time>2026-03-29T14:16:41Z</time></trkpt><trkpt lat="40.616766245532226" lon="17.74912683713003"><ele>76.0</ele><time>2026-03-29T14:16:42Z</time></trkpt><trkpt lat="40.61698890194522" lon="17.748888082682882"><ele>76.0</ele><time>2026-03-29T14:16:43Z</time></trkpt><trkpt lat="40.61722108640664" lon="17.74864463560555"><ele>76.5</ele><time>2026-03-29T14:16:44Z</time></trkpt><trkpt lat="40.61746064522218" lon="17.748396320707258"><ele>77.0</ele><time>2026-03-29T14:16:45Z</time></trkpt><trkpt lat="40.61769458721838" lon="17.74815241564182"><ele>77.0</ele><time>2026-03-29T14:16:46Z</time></trkpt><trkpt lat="40.6179280810031" lon="17.747911035780042"><ele>77.0</ele><time>2026-03-29T14:16:47Z</time></trkpt><trkpt lat="40.61815531190103" lon="17.747662757553098"><ele>76.5</ele><time>2026-03-29T14:16:48Z</time></trkpt><trkpt lat="40.61838750724094" lon="17.74742845565353"><ele>76.0</ele><time>2026-03-29T14:16:49Z</time></trkpt><trkpt lat="40.618615034017495" lon="17.747191381527383"><ele>77.0</ele><time>2026-03-29T14:16:50Z</time></trkpt><trkpt lat="40.61884225940558" lon="17.746955102999205"><ele>78.0</ele><time>2026-03-29T14:16:51Z</time></trkpt><trkpt lat="40.61906266889509" lon="17.746724023457755"><ele>78.0</ele><time>2026-03-29T14:16:52Z</time></trkpt><trkpt lat="40.61927833897291" lon="17.746492596827405"><ele>78.0</ele><time>2026-03-29T14:16:53Z</time></trkpt><trkpt lat="40.619501283117984" lon="17.746260431515104"><ele>78.0</ele><time>2026-03-29T14:16:54Z</time></trkpt><trkpt lat="40.61972734407843" lon="17.74602104565543"><ele>78.0</ele><time>2026-03-29T14:16:55Z</time></trkpt><trkpt lat="40.61995572255997" lon="17.745773306571234"><ele>78.0</ele><time>2026-03-29T14:16:56Z</time></trkpt><trkpt lat="40.62018221663419" lon="17.74553602091334"><ele>78.0</ele><time>2026-03-29T14:16:57Z</time></trkpt><trkpt lat="40.62040063748737" lon="17.745305895389343"><ele>79.0</ele><time>2026-03-29T14:16:58Z</time></trkpt><trkpt lat="40.62064113685018" lon="17.74507811851346"><ele>80.0</ele><time>2026-03-29T14:16:59Z</time></trkpt><trkpt lat="40.620876594531865" lon="17.74483257415449"><ele>80.0</ele><time>2026-03-29T14:17:00Z</time></trkpt><trkpt lat="40.621096129403064" lon="17.744580135700428"><ele>80.0</ele><time>2026-03-29T14:17:01Z</time></trkpt><trkpt lat="40.62131716010706" lon="17.744346065927076"><ele>80.0</ele><time>2026-03-29T14:17:02Z</time></trkpt><trkpt lat="40.621538228529374" lon="17.744112994994737"><ele>80.0</ele><time>2026-03-29T14:17:03Z</time></trkpt><trkpt lat="40.62175825971531" lon="17.74390480946277"><ele>80.0</ele><time>2026-03-29T14:17:04Z</time></trkpt><trkpt lat="40.62197277768748" lon="17.743679686677417"><ele>80.0</ele><time>2026-03-29T14:17:05Z</time></trkpt><trkpt lat="40.62220432826193" lon="17.74343668927175"><ele>81.0</ele><time>2026-03-29T14:17:06Z</time></trkpt><trkpt lat="40.62237585749968" lon="17.743230586948822"><ele>82.0</ele><time>2026-03-29T14:17:07Z</time></trkpt><trkpt lat="40.62255665288938" lon="17.74307033186327"><ele>82.0</ele><time>2026-03-29T14:17:08Z</time></trkpt><trkpt lat="40.622720461347555" lon="17.742898612900284"><ele>82.0</ele><time>2026-03-29T14:17:09Z</time></trkpt><trkpt lat="40.622866162418894" lon="17.742730873654907"><ele>82.0</ele><time>2026-03-29T14:17:10Z</time></trkpt><trkpt lat="40.623026101341345" lon="17.742570699658465"><ele>81.0</ele><time>2026-03-29T14:17:11Z</time></trkpt><trkpt lat="40.62319162333656" lon="17.742380757216008"><ele>80.0</ele><time>2026-03-29T14:17:12Z</time></trkpt><trkpt lat="40.62337386842475" lon="17.742205761151315"><ele>79.0</ele><time>2026-03-29T14:17:13Z</time></trkpt><trkpt lat="40.623551864820854" lon="17.74201146118817"><ele>78.5</ele><time>2026-03-29T14:17:14Z</time></trkpt><trkpt lat="40.623744129959455" lon="17.741811225901625"><ele>78.0</ele><time>2026-03-29T14:17:15Z</time></trkpt><trkpt lat="40.62393694441064" lon="17.741608104590938"><ele>78.0</ele><time>2026-03-29T14:17:16Z</time></trkpt><trkpt lat="40.62413609887793" lon="17.741409906500223"><ele>78.0</ele><time>2026-03-29T14:17:17Z</time></trkpt><trkpt lat="40.624335986971346" lon="17.74120198786129"><ele>78.0</ele><time>2026-03-29T14:17:18Z</time></trkpt><trkpt lat="40.624531163682605" lon="17.74099691993461"><ele>78.0</ele><time>2026-03-29T14:17:19Z</time></trkpt><trkpt lat="40.62472383858872" lon="17.740794620861433"><ele>78.0</ele><time>2026-03-29T14:17:20Z</time></trkpt><trkpt lat="40.62492077525783" lon="17.740584132622644"><ele>78.0</ele><time>2026-03-29T14:17:21Z</time></trkpt><trkpt lat="40.625125581530305" lon="17.74038537511366"><ele>78.5</ele><time>2026-03-29T14:17:22Z</time></trkpt><trkpt lat="40.62531871716388" lon="17.74018310587292"><ele>79.0</ele><time>2026-03-29T14:17:23Z</time></trkpt><trkpt lat="40.62549694274217" lon="17.73997020270806"><ele>79.0</ele><time>2026-03-29T14:17:24Z</time></trkpt><trkpt lat="40.625673730335194" lon="17.73978971538326"><ele>79.0</ele><time>2026-03-29T14:17:25Z</time></trkpt><trkpt lat="40.625879192743064" lon="17.739575806855754"><ele>79.5</ele><time>2026-03-29T14:17:26Z</time></trkpt><trkpt lat="40.62607390536875" lon="17.739374217619996"><ele>80.0</ele><time>2026-03-29T14:17:27Z</time></trkpt><trkpt lat="40.626267488263274" lon="17.739176935931486"><ele>81.0</ele><time>2026-03-29T14:17:28Z</time></trkpt><trkpt lat="40.626461921369135" lon="17.73897195362184"><ele>82.0</ele><time>2026-03-29T14:17:29Z</time></trkpt><trkpt lat="40.62666010276495" lon="17.73876037099471"><ele>81.0</ele><time>2026-03-29T14:17:30Z</time></trkpt><trkpt lat="40.62685714320584" lon="17.738545442764302"><ele>80.0</ele><time>2026-03-29T14:17:31Z</time></trkpt><trkpt lat="40.62706715597068" lon="17.73834904400602"><ele>83.0</ele><time>2026-03-29T14:17:32Z</time></trkpt><trkpt lat="40.62727073529269" lon="17.738135794376653"><ele>86.0</ele><time>2026-03-29T14:17:33Z</time></trkpt><trkpt lat="40.62746349592288" lon="17.737914464488945"><ele>86.5</ele><time>2026-03-29T14:17:34Z</time></trkpt><trkpt lat="40.62767302337791" lon="17.73769978317734"><ele>87.0</ele><time>2026-03-29T14:17:35Z</time></trkpt><trkpt lat="40.627883834841136" lon="17.737486458423657"><ele>87.0</ele><time>2026-03-29T14:17:36Z</time></trkpt><trkpt lat="40.62809182731885" lon="17.737270608493404"><ele>87.0</ele><time>2026-03-29T14:17:37Z</time></trkpt><trkpt lat="40.62829420749228" lon="17.737054188886447"><ele>86.5</ele><time>2026-03-29T14:17:38Z</time></trkpt><trkpt lat="40.62849818298666" lon="17.736834447556664"><ele>86.0</ele><time>2026-03-29T14:17:39Z</time></trkpt><trkpt lat="40.62870052300148" lon="17.736620239555002"><ele>86.0</ele><time>2026-03-29T14:17:40Z</time></trkpt><trkpt lat="40.628904853042954" lon="17.736413488276398"><ele>86.0</ele><time>2026-03-29T14:17:41Z</time></trkpt><trkpt lat="40.62911820262154" lon="17.73619503894325"><ele>85.5</ele><time>2026-03-29T14:17:42Z</time></trkpt><trkpt lat="40.629328590121894" lon="17.735974070394665"><ele>85.0</ele><time>2026-03-29T14:17:43Z</time></trkpt><trkpt lat="40.62954373449435" lon="17.73574880654492"><ele>86.5</ele><time>2026-03-29T14:17:44Z</time></trkpt><trkpt lat="40.62975962686351" lon="17.7355273516063"><ele>88.0</ele><time>2026-03-29T14:17:45Z</time></trkpt><trkpt lat="40.62996902292842" lon="17.73530601688115"><ele>87.5</ele><time>2026-03-29T14:17:46Z</time></trkpt><trkpt lat="40.630181154234215" lon="17.7350806978869"><ele>87.0</ele><time>2026-03-29T14:17:47Z</time></trkpt><trkpt lat="40.63039038346832" lon="17.734841357459285"><ele>87.0</ele><time>2026-03-29T14:17:48Z</time></trkpt><trkpt lat="40.630623178506134" lon="17.734590728232927"><ele>87.0</ele><time>2026-03-29T14:17:49Z</time></trkpt><trkpt lat="40.63083825465015" lon="17.73439280863526"><ele>87.0</ele><time>2026-03-29T14:17:50Z</time></trkpt><trkpt lat="40.63106074019149" lon="17.734164766176818"><ele>87.0</ele><time>2026-03-29T14:17:51Z</time></trkpt><trkpt lat="40.631286730330345" lon="17.73393406837166"><ele>87.0</ele><time>2026-03-29T14:17:52Z</time></trkpt><trkpt lat="40.631505606413874" lon="17.73370470049535"><ele>87.0</ele><time>2026-03-29T14:17:53Z</time></trkpt><trkpt lat="40.631719560933256" lon="17.733477786494053"><ele>87.0</ele><time>2026-03-29T14:17:54Z</time></trkpt><trkpt lat="40.63192989481277" lon="17.73325916340207"><ele>87.0</ele><time>2026-03-29T14:17:55Z</time></trkpt><trkpt lat="40.632134941918004" lon="17.733038170233247"><ele>87.5</ele><time>2026-03-29T14:17:56Z</time></trkpt><trkpt lat="40.63234169808366" lon="17.732818460239574"><ele>88.0</ele><time>2026-03-29T14:17:57Z</time></trkpt><trkpt lat="40.632547458506124" lon="17.732601263178168"><ele>88.5</ele><time>2026-03-29T14:17:58Z</time></trkpt><trkpt lat="40.63275188579643" lon="17.73238769063166"><ele>89.0</ele><time>2026-03-29T14:17:59Z</time></trkpt><trkpt lat="40.63295621422326" lon="17.73217139615413"><ele>89.5</ele><time>2026-03-29T14:18:00Z</time></trkpt><trkpt lat="40.63316007808531" lon="17.731961011382342"><ele>90.0</ele><time>2026-03-29T14:18:01Z</time></trkpt><trkpt lat="40.63336159649937" lon="17.731745476875695"><ele>90.5</ele><time>2026-03-29T14:18:02Z</time></trkpt><trkpt lat="40.63356310425387" lon="17.731536180539134"><ele>91.0</ele><time>2026-03-29T14:18:03Z</time></trkpt><trkpt lat="40.63376080594298" lon="17.731328770405927"><ele>91.0</ele><time>2026-03-29T14:18:04Z</time></trkpt><trkpt lat="40.633961523575024" lon="17.73112075881594"><ele>91.0</ele><time>2026-03-29T14:18:04.999Z</time></trkpt><trkpt lat="40.634165686083385" lon="17.730912217683837"><ele>91.5</ele><time>2026-03-29T14:18:05.999Z</time></trkpt><trkpt lat="40.6343700135934" lon="17.730697384329538"><ele>92.0</ele><time>2026-03-29T14:18:06.999Z</time></trkpt><trkpt lat="40.634574948036345" lon="17.730479521140435"><ele>92.0</ele><time>2026-03-29T14:18:07.999Z</time></trkpt><trkpt lat="40.63477843348189" lon="17.730256959775794"><ele>92.0</ele><time>2026-03-29T14:18:08.999Z</time></trkpt><trkpt lat="40.63498463819373" lon="17.730038065307134"><ele>91.5</ele><time>2026-03-29T14:18:09.999Z</time></trkpt><trkpt lat="40.635185052308834" lon="17.72983122396603"><ele>91.0</ele><time>2026-03-29T14:18:10.999Z</time></trkpt><trkpt lat="40.63538479568296" lon="17.729624376451273"><ele>92.5</ele><time>2026-03-29T14:18:11.999Z</time></trkpt><trkpt lat="40.63558415533837" lon="17.729410631492733"><ele>94.0</ele><time>2026-03-29T14:18:12.999Z</time></trkpt><trkpt lat="40.635777080283425" lon="17.729199664430155"><ele>94.0</ele><time>2026-03-29T14:18:14Z</time></trkpt><trkpt lat="40.63597744613043" lon="17.728991128479947"><ele>94.0</ele><time>2026-03-29T14:18:15Z</time></trkpt><trkpt lat="40.63617484278583" lon="17.728784667520053"><ele>94.0</ele><time>2026-03-29T14:18:16Z</time></trkpt><trkpt lat="40.63637612764964" lon="17.728580982905818"><ele>94.0</ele><time>2026-03-29T14:18:17Z</time></trkpt><trkpt lat="40.63657970134294" lon="17.728376278261283"><ele>94.0</ele><time>2026-03-29T14:18:18Z</time></trkpt><trkpt lat="40.636780479489424" lon="17.728171091627864"><ele>94.0</ele><time>2026-03-29T14:18:19Z</time></trkpt><trkpt lat="40.63697559705096" lon="17.72797121710255"><ele>94.0</ele><time>2026-03-29T14:18:20Z</time></trkpt><trkpt lat="40.63716288316346" lon="17.72777509561154"><ele>94.0</ele><time>2026-03-29T14:18:21Z</time></trkpt><trkpt lat="40.63734231536753" lon="17.727585117734822"><ele>93.0</ele><time>2026-03-29T14:18:22Z</time></trkpt><trkpt lat="40.63751585849255" lon="17.727390346918458"><ele>92.0</ele><time>2026-03-29T14:18:23Z</time></trkpt><trkpt lat="40.63769795818943" lon="17.727199250200215"><ele>93.0</ele><time>2026-03-29T14:18:24Z</time></trkpt><trkpt lat="40.63787908947783" lon="17.727008576001698"><ele>94.0</ele><time>2026-03-29T14:18:25Z</time></trkpt><trkpt lat="40.63806718843331" lon="17.726818003925647"><ele>94.0</ele><time>2026-03-29T14:18:26Z</time></trkpt><trkpt lat="40.63825346147218" lon="17.726616577561167"><ele>94.0</ele><time>2026-03-29T14:18:27Z</time></trkpt><trkpt lat="40.638442856330265" lon="17.72641749212405"><ele>94.0</ele><time>2026-03-29T14:18:28Z</time></trkpt><trkpt lat="40.63863226903757" lon="17.726218008438735"><ele>94.0</ele><time>2026-03-29T14:18:29Z</time></trkpt><trkpt lat="40.638827470786985" lon="17.726019872031568"><ele>93.5</ele><time>2026-03-29T14:18:30Z</time></trkpt><trkpt lat="40.6390145631751" lon="17.72583192091142"><ele>93.0</ele><time>2026-03-29T14:18:31Z</time></trkpt><trkpt lat="40.639193304871476" lon="17.72564500469857"><ele>93.0</ele><time>2026-03-29T14:18:32Z</time></trkpt><trkpt lat="40.63937271638819" lon="17.725450323025218"><ele>93.0</ele><time>2026-03-29T14:18:33Z</time></trkpt><trkpt lat="40.639558178355884" lon="17.725268788782287"><ele>93.0</ele><time>2026-03-29T14:18:34Z</time></trkpt><trkpt lat="40.63973631148602" lon="17.725080966098457"><ele>93.0</ele><time>2026-03-29T14:18:35Z</time></trkpt><trkpt lat="40.63991682489666" lon="17.724888287175197"><ele>93.0</ele><time>2026-03-29T14:18:36Z</time></trkpt><trkpt lat="40.6400997043763" lon="17.724690813453886"><ele>93.0</ele><time>2026-03-29T14:18:37Z</time></trkpt><trkpt lat="40.640276411083576" lon="17.724508587003204"><ele>94.33333333333334</ele><time>2026-03-29T14:18:38Z</time></trkpt><trkpt lat="40.64044311648291" lon="17.724332930788584"><ele>95.66666666666667</ele><time>2026-03-29T14:18:39Z</time></trkpt><trkpt lat="40.640609928002426" lon="17.724155331204724"><ele>97.0</ele><time>2026-03-29T14:18:40Z</time></trkpt><trkpt lat="40.64078078559468" lon="17.72397027461105"><ele>97.0</ele><time>2026-03-29T14:18:41Z</time></trkpt><trkpt lat="40.64094959407885" lon="17.723787926610758"><ele>97.0</ele><time>2026-03-29T14:18:42Z</time></trkpt><trkpt lat="40.64112034976862" lon="17.723606005792416"><ele>97.0</ele><time>2026-03-29T14:18:43Z</time></trkpt><trkpt lat="40.64130024028381" lon="17.723419181138652"><ele>97.0</ele><time>2026-03-29T14:18:44Z</time></trkpt><trkpt lat="40.64148377166944" lon="17.723242673094703"><ele>97.0</ele><time>2026-03-29T14:18:45Z</time></trkpt><trkpt lat="40.64165739501434" lon="17.723052708870895"><ele>97.0</ele><time>2026-03-29T14:18:46Z</time></trkpt><trkpt lat="40.64183396888982" lon="17.722867002327128"><ele>97.0</ele><time>2026-03-29T14:18:47Z</time></trkpt><trkpt lat="40.6420077542461" lon="17.72268366049618"><ele>97.0</ele><time>2026-03-29T14:18:48Z</time></trkpt><trkpt lat="40.6421781586055" lon="17.72250363947392"><ele>97.66666666666667</ele><time>2026-03-29T14:18:49Z</time></trkpt><trkpt lat="40.64234732183923" lon="17.722323575501942"><ele>98.33333333333334</ele><time>2026-03-29T14:18:50Z</time></trkpt><trkpt lat="40.642515004985" lon="17.7221561228104"><ele>99.0</ele><time>2026-03-29T14:18:51Z</time></trkpt><trkpt lat="40.64268062274916" lon="17.721993532107824"><ele>98.66666666666666</ele><time>2026-03-29T14:18:52Z</time></trkpt><trkpt lat="40.64284290137934" lon="17.721830075054033"><ele>98.33333333333333</ele><time>2026-03-29T14:18:53Z</time></trkpt><trkpt lat="40.643035865687665" lon="17.721652053706105"><ele>98.0</ele><time>2026-03-29T14:18:54Z</time></trkpt><trkpt lat="40.64314909814079" lon="17.721514195134162"><ele>98.0</ele><time>2026-03-29T14:18:55Z</time></trkpt><trkpt lat="40.6432873915064" lon="17.72136848691999"><ele>98.0</ele><time>2026-03-29T14:18:56Z</time></trkpt><trkpt lat="40.64343127793174" lon="17.721217974760634"><ele>98.0</ele><time>2026-03-29T14:18:57Z</time></trkpt><trkpt lat="40.64354998922969" lon="17.72109258102681"><ele>98.0</ele><time>2026-03-29T14:18:58Z</time></trkpt><trkpt lat="40.64368318169094" lon="17.7209635704922"><ele>98.0</ele><time>2026-03-29T14:18:59Z</time></trkpt><trkpt lat="40.643801952224855" lon="17.720834453067116"><ele>98.0</ele><time>2026-03-29T14:19:00Z</time></trkpt><trkpt lat="40.643923412598504" lon="17.72070637809401"><ele>98.0</ele><time>2026-03-29T14:19:01Z</time></trkpt><trkpt lat="40.64402295452483" lon="17.720607912934163"><ele>98.0</ele><time>2026-03-29T14:19:02Z</time></trkpt><trkpt lat="40.64412912255847" lon="17.720489420815213"><ele>98.0</ele><time>2026-03-29T14:19:03Z</time></trkpt><trkpt lat="40.64423869037136" lon="17.720366104822546"><ele>98.0</ele><time>2026-03-29T14:19:04Z</time></trkpt><trkpt lat="40.64433874295671" lon="17.720257610481962"><ele>98.4</ele><time>2026-03-29T14:19:05Z</time></trkpt><trkpt lat="40.64442202516486" lon="17.720169780801402"><ele>98.80000000000001</ele><time>2026-03-29T14:19:06Z</time></trkpt><trkpt lat="40.64449602977671" lon="17.72009175743893"><ele>99.2</ele><time>2026-03-29T14:19:07Z</time></trkpt><trkpt lat="40.644578128856246" lon="17.720012420469242"><ele>99.6</ele><time>2026-03-29T14:19:08Z</time></trkpt><trkpt lat="40.64467596971746" lon="17.7199339882476"><ele>100.0</ele><time>2026-03-29T14:19:09Z</time></trkpt><trkpt lat="40.64477487113958" lon="17.719889399953484"><ele>100.33333333333334</ele><time>2026-03-29T14:19:10Z</time></trkpt><trkpt lat="40.644869038647336" lon="17.719887481657064"><ele>100.66666666666667</ele><time>2026-03-29T14:19:11Z</time></trkpt><trkpt lat="40.64494943633792" lon="17.71987938596954"><ele>101.0</ele><time>2026-03-29T14:19:12Z</time></trkpt><trkpt lat="40.645007403570276" lon="17.719832666813584"><ele>101.33333333333334</ele><time>2026-03-29T14:19:13Z</time></trkpt><trkpt lat="40.64503914454917" lon="17.71975078046867"><ele>101.66666666666667</ele><time>2026-03-29T14:19:14Z</time></trkpt><trkpt lat="40.645082107351286" lon="17.719620300303653"><ele>102.0</ele><time>2026-03-29T14:19:15Z</time></trkpt><trkpt lat="40.64513081088224" lon="17.71948392196525"><ele>101.75</ele><time>2026-03-29T14:19:16Z</time></trkpt><trkpt lat="40.64520619064968" lon="17.7193725629091"><ele>101.5</ele><time>2026-03-29T14:19:17Z</time></trkpt><trkpt lat="40.64530517230705" lon="17.71926130826712"><ele>101.25</ele><time>2026-03-29T14:19:18Z</time></trkpt><trkpt lat="40.64541964637108" lon="17.719149449667235"><ele>101.0</ele><time>2026-03-29T14:19:19Z</time></trkpt><trkpt lat="40.64554037394005" lon="17.71901271005242"><ele>101.0</ele><time>2026-03-29T14:19:20Z</time></trkpt><trkpt lat="40.64567595198333" lon="17.71886712427997"><ele>101.0</ele><time>2026-03-29T14:19:21Z</time></trkpt><trkpt lat="40.645814037892684" lon="17.718725583226796"><ele>101.0</ele><time>2026-03-29T14:19:22Z</time></trkpt><trkpt lat="40.64596825140031" lon="17.71857172267154"><ele>101.33333333333333</ele><time>2026-03-29T14:19:23Z</time></trkpt><trkpt lat="40.646112880519645" lon="17.71841221834652"><ele>101.66666666666666</ele><time>2026-03-29T14:19:24Z</time></trkpt><trkpt lat="40.6462658189597" lon="17.718250092424817"><ele>102.0</ele><time>2026-03-29T14:19:25Z</time></trkpt><trkpt lat="40.64641828827778" lon="17.71811830337533"><ele>102.0</ele><time>2026-03-29T14:19:26Z</time></trkpt><trkpt lat="40.64659355279688" lon="17.71793847143173"><ele>102.0</ele><time>2026-03-29T14:19:27Z</time></trkpt><trkpt lat="40.64675195603506" lon="17.717771700236014"><ele>102.0</ele><time>2026-03-29T14:19:28Z</time></trkpt><trkpt lat="40.646912128462944" lon="17.71759898756212"><ele>102.0</ele><time>2026-03-29T14:19:29Z</time></trkpt><trkpt lat="40.64708041935732" lon="17.71742320683083"><ele>102.0</ele><time>2026-03-29T14:19:30Z</time></trkpt><trkpt lat="40.647250595027806" lon="17.717245423231212"><ele>102.0</ele><time>2026-03-29T14:19:31Z</time></trkpt><trkpt lat="40.64743017224494" lon="17.71705672827386"><ele>103.5</ele><time>2026-03-29T14:19:32Z</time></trkpt><trkpt lat="40.64760327696417" lon="17.716879310019237"><ele>105.0</ele><time>2026-03-29T14:19:33Z</time></trkpt><trkpt lat="40.64778471630179" lon="17.71669117692437"><ele>104.66666666666666</ele><time>2026-03-29T14:19:34Z</time></trkpt><trkpt lat="40.647961153288605" lon="17.716505859018124"><ele>104.33333333333333</ele><time>2026-03-29T14:19:35Z</time></trkpt><trkpt lat="40.648120503207565" lon="17.716337239017648"><ele>104.0</ele><time>2026-03-29T14:19:36Z</time></trkpt><trkpt lat="40.64826529999012" lon="17.716159616242475"><ele>104.66666666666666</ele><time>2026-03-29T14:19:37Z</time></trkpt><trkpt lat="40.648427931499086" lon="17.715995031374103"><ele>105.33333333333334</ele><time>2026-03-29T14:19:38Z</time></trkpt><trkpt lat="40.648600115227886" lon="17.715823527547666"><ele>106.0</ele><time>2026-03-29T14:19:39Z</time></trkpt><trkpt lat="40.64876964134526" lon="17.715647088865467"><ele>106.0</ele><time>2026-03-29T14:19:40Z</time></trkpt><trkpt lat="40.64894868830134" lon="17.71546376140663"><ele>106.0</ele><time>2026-03-29T14:19:41Z</time></trkpt><trkpt lat="40.649129018076664" lon="17.71527825058073"><ele>106.5</ele><time>2026-03-29T14:19:42Z</time></trkpt><trkpt lat="40.64931554498881" lon="17.71508561938756"><ele>107.0</ele><time>2026-03-29T14:19:43Z</time></trkpt><trkpt lat="40.64949155942488" lon="17.714897919333197"><ele>106.0</ele><time>2026-03-29T14:19:44Z</time></trkpt><trkpt lat="40.6496704664927" lon="17.71470294650959"><ele>105.0</ele><time>2026-03-29T14:19:45Z</time></trkpt><trkpt lat="40.64985162396801" lon="17.71451773134922"><ele>106.0</ele><time>2026-03-29T14:19:46Z</time></trkpt><trkpt lat="40.65004117603355" lon="17.71432254269579"><ele>107.0</ele><time>2026-03-29T14:19:47Z</time></trkpt><trkpt lat="40.65022157047699" lon="17.71413465838081"><ele>106.66666666666666</ele><time>2026-03-29T14:19:48Z</time></trkpt><trkpt lat="40.65039447371494" lon="17.713960551440515"><ele>106.33333333333334</ele><time>2026-03-29T14:19:49Z</time></trkpt><trkpt lat="40.650545706337205" lon="17.71380342899152"><ele>106.0</ele><time>2026-03-29T14:19:50Z</time></trkpt><trkpt lat="40.65069127711396" lon="17.71364427364628"><ele>106.66666666666667</ele><time>2026-03-29T14:19:51Z</time></trkpt><trkpt lat="40.650840020582535" lon="17.713496754165845"><ele>107.33333333333334</ele><time>2026-03-29T14:19:52Z</time></trkpt><trkpt lat="40.650966061218455" lon="17.713375777725755"><ele>108.0</ele><time>2026-03-29T14:19:53Z</time></trkpt><trkpt lat="40.651094272484066" lon="17.71324196719675"><ele>106.66666666666666</ele><time>2026-03-29T14:19:54Z</time></trkpt><trkpt lat="40.651223439473554" lon="17.71310715914355"><ele>105.33333333333333</ele><time>2026-03-29T14:19:55Z</time></trkpt><trkpt lat="40.65135506230124" lon="17.712970966441215"><ele>104.0</ele><time>2026-03-29T14:19:56Z</time></trkpt><trkpt lat="40.65146792052422" lon="17.71285406766917"><ele>105.0</ele><time>2026-03-29T14:19:57Z</time></trkpt><trkpt lat="40.65158718510822" lon="17.71272723622653"><ele>106.0</ele><time>2026-03-29T14:19:58Z</time></trkpt><trkpt lat="40.65170268349071" lon="17.71258101631204"><ele>107.0</ele><time>2026-03-29T14:19:59Z</time></trkpt><trkpt lat="40.651833174118885" lon="17.712442794057882"><ele>108.0</ele><time>2026-03-29T14:20:00Z</time></trkpt><trkpt lat="40.65195940117056" lon="17.71230303582517"><ele>109.0</ele><time>2026-03-29T14:20:01Z</time></trkpt><trkpt lat="40.652085315701996" lon="17.712181858773114"><ele>110.0</ele><time>2026-03-29T14:20:02Z</time></trkpt><trkpt lat="40.652188488796256" lon="17.712079331611537"><ele>109.99999999999999</ele><time>2026-03-29T14:20:03Z</time></trkpt><trkpt lat="40.65225369214012" lon="17.712012522409612"><ele>110.0</ele><time>2026-03-29T14:20:04Z</time></trkpt><trkpt lat="40.65230901765322" lon="17.71196301461542"><ele>110.0</ele><time>2026-03-29T14:20:05Z</time></trkpt><trkpt lat="40.65240632040002" lon="17.711880419111637"><ele>110.0</ele><time>2026-03-29T14:20:08Z</time></trkpt><trkpt lat="40.652383305903086" lon="17.71175793415052"><ele>109.99999999999999</ele><time>2026-03-29T14:20:10Z</time></trkpt><trkpt lat="40.65244373977266" lon="17.71169358753304"><ele>110.0</ele><time>2026-03-29T14:20:13Z</time></trkpt><trkpt lat="40.652505701525186" lon="17.71162703601615"><ele>109.75</ele><time>2026-03-29T14:20:16Z</time></trkpt><trkpt lat="40.65242399755808" lon="17.71151518955296"><ele>109.5</ele><time>2026-03-29T14:20:19Z</time></trkpt><trkpt lat="40.652356090692564" lon="17.71142287457907"><ele>109.25</ele><time>2026-03-29T14:20:21.001Z</time></trkpt><trkpt lat="40.652339284854975" lon="17.71122596844798"><ele>109.0</ele><time>2026-03-29T14:20:25.001Z</time></trkpt><trkpt lat="40.65235305339192" lon="17.71110954322256"><ele>109.0</ele><time>2026-03-29T14:20:26.001Z</time></trkpt><trkpt lat="40.65238034089417" lon="17.710998770707636"><ele>109.0</ele><time>2026-03-29T14:20:27.001Z</time></trkpt><trkpt lat="40.65239082806321" lon="17.710866137117844"><ele>109.0</ele><time>2026-03-29T14:20:28.001Z</time></trkpt><trkpt lat="40.65240165032523" lon="17.710748944021958"><ele>109.0</ele><time>2026-03-29T14:20:29.001Z</time></trkpt><trkpt lat="40.65243383656915" lon="17.710597787758296"><ele>109.0</ele><time>2026-03-29T14:20:30.001Z</time></trkpt><trkpt lat="40.65245659560123" lon="17.710441188514807"><ele>109.0</ele><time>2026-03-29T14:20:31.001Z</time></trkpt><trkpt lat="40.6524764709917" lon="17.71030630008517"><ele>109.0</ele><time>2026-03-29T14:20:32.001Z</time></trkpt><trkpt lat="40.652489187770634" lon="17.710163749992955"><ele>109.0</ele><time>2026-03-29T14:20:33.001Z</time></trkpt><trkpt lat="40.652518919125605" lon="17.71002934141998"><ele>109.0</ele><time>2026-03-29T14:20:34Z</time></trkpt><trkpt lat="40.65253942655163" lon="17.70990380509141"><ele>109.0</ele><time>2026-03-29T14:20:35Z</time></trkpt><trkpt lat="40.65255985953929" lon="17.709790442417773"><ele>109.16666666666667</ele><time>2026-03-29T14:20:36Z</time></trkpt><trkpt lat="40.652575397622236" lon="17.70967964610805"><ele>109.33333333333334</ele><time>2026-03-29T14:20:37Z</time></trkpt><trkpt lat="40.65258777256647" lon="17.709594001557043"><ele>109.5</ele><time>2026-03-29T14:20:38Z</time></trkpt><trkpt lat="40.652602451414246" lon="17.709512074423372"><ele>109.66666666666666</ele><time>2026-03-29T14:20:39Z</time></trkpt><trkpt lat="40.65262102468647" lon="17.709361674888957"><ele>109.83333333333333</ele><time>2026-03-29T14:20:41Z</time></trkpt><trkpt lat="40.65265960543259" lon="17.70925950769203"><ele>110.0</ele><time>2026-03-29T14:20:43Z</time></trkpt><trkpt lat="40.652688404317466" lon="17.70912962382874"><ele>110.0</ele><time>2026-03-29T14:20:46Z</time></trkpt><trkpt lat="40.6527866203947" lon="17.709180782886584"><ele>110.0</ele><time>2026-03-29T14:20:47Z</time></trkpt><trkpt lat="40.65288640190269" lon="17.709156181481227"><ele>110.0</ele><time>2026-03-29T14:20:48Z</time></trkpt><trkpt lat="40.652976140767194" lon="17.709131437149114"><ele>110.0</ele><time>2026-03-29T14:20:49Z</time></trkpt><trkpt lat="40.65306923402514" lon="17.70906447616967"><ele>110.0</ele><time>2026-03-29T14:20:50Z</time></trkpt><trkpt lat="40.65316172488788" lon="17.709036429185947"><ele>110.14285714285714</ele><time>2026-03-29T14:20:51Z</time></trkpt><trkpt lat="40.65322719057898" lon="17.709013770674495"><ele>110.28571428571428</ele><time>2026-03-29T14:20:52Z</time></trkpt><trkpt lat="40.65327844420628" lon="17.708965355936407"><ele>110.42857142857142</ele><time>2026-03-29T14:20:53Z</time></trkpt><trkpt lat="40.65334762317333" lon="17.70894350618643"><ele>110.57142857142857</ele><time>2026-03-29T14:20:54Z</time></trkpt><trkpt lat="40.65343686132395" lon="17.708916295492084"><ele>110.71428571428572</ele><time>2026-03-29T14:20:55Z</time></trkpt><trkpt lat="40.653499029029234" lon="17.70888849426049"><ele>110.85714285714285</ele><time>2026-03-29T14:20:56Z</time></trkpt><trkpt lat="40.653568463927975" lon="17.70884896015644"><ele>111.0</ele><time>2026-03-29T14:20:57Z</time></trkpt><trkpt lat="40.653637775492136" lon="17.708829566391923"><ele>111.16666666666667</ele><time>2026-03-29T14:20:58Z</time></trkpt><trkpt lat="40.653718579029935" lon="17.708803814010363"><ele>111.33333333333334</ele><time>2026-03-29T14:20:59Z</time></trkpt><trkpt lat="40.653776611989855" lon="17.708760707366345"><ele>111.5</ele><time>2026-03-29T14:21:00Z</time></trkpt><trkpt lat="40.653841241114925" lon="17.708736879203713"><ele>111.66666666666667</ele><time>2026-03-29T14:21:02Z</time></trkpt><trkpt lat="40.653912762045486" lon="17.70867991491613"><ele>111.83333333333334</ele><time>2026-03-29T14:21:04Z</time></trkpt><trkpt lat="40.654029956197775" lon="17.708654499396065"><ele>112.0</ele><time>2026-03-29T14:21:06Z</time></trkpt><trkpt lat="40.65410105268626" lon="17.708607131827716"><ele>112.00000000000001</ele><time>2026-03-29T14:21:07Z</time></trkpt><trkpt lat="40.65418582356415" lon="17.708592415534344"><ele>112.0</ele><time>2026-03-29T14:21:08Z</time></trkpt><trkpt lat="40.65428597010708" lon="17.708565294493223"><ele>112.0</ele><time>2026-03-29T14:21:09Z</time></trkpt><trkpt lat="40.65435760594734" lon="17.708531944050666"><ele>112.0</ele><time>2026-03-29T14:21:10Z</time></trkpt><trkpt lat="40.65441571603661" lon="17.708479908409803"><ele>112.00000000000001</ele><time>2026-03-29T14:21:11Z</time></trkpt><trkpt lat="40.6544952435508" lon="17.70845232358152"><ele>112.0</ele><time>2026-03-29T14:21:13Z</time></trkpt><trkpt lat="40.65460978039296" lon="17.70841556009326"><ele>112.00000000000001</ele><time>2026-03-29T14:21:15Z</time></trkpt><trkpt lat="40.65467718284963" lon="17.708385848267945"><ele>112.0</ele><time>2026-03-29T14:21:17Z</time></trkpt><trkpt lat="40.654747569624206" lon="17.708357068367643"><ele>112.0</ele><time>2026-03-29T14:21:19Z</time></trkpt><trkpt lat="40.65483065771439" lon="17.708348262737726"><ele>112.0</ele><time>2026-03-29T14:21:22Z</time></trkpt><trkpt lat="40.65489832036443" lon="17.708307939929494"><ele>112.00000000000001</ele><time>2026-03-29T14:21:24Z</time></trkpt><trkpt lat="40.65499395385396" lon="17.708283578843652"><ele>112.0</ele><time>2026-03-29T14:21:26Z</time></trkpt><trkpt lat="40.65505097897214" lon="17.70823140624491"><ele>112.00000000000001</ele><time>2026-03-29T14:21:27Z</time></trkpt><trkpt lat="40.65512667719041" lon="17.708210130739083"><ele>112.0</ele><time>2026-03-29T14:21:28Z</time></trkpt><trkpt lat="40.65519042182371" lon="17.708167319157475"><ele>112.0</ele><time>2026-03-29T14:21:29Z</time></trkpt><trkpt lat="40.6552960170186" lon="17.708125611436287"><ele>112.0</ele><time>2026-03-29T14:21:31Z</time></trkpt><trkpt lat="40.655399216879765" lon="17.70808847968338"><ele>112.00000000000001</ele><time>2026-03-29T14:21:33Z</time></trkpt><trkpt lat="40.65547110816497" lon="17.708056701053714"><ele>112.0</ele><time>2026-03-29T14:21:34Z</time></trkpt><trkpt lat="40.65553978653329" lon="17.708043826762584"><ele>111.8</ele><time>2026-03-29T14:21:35Z</time></trkpt><trkpt lat="40.655628544503145" lon="17.708005029948506"><ele>111.6</ele><time>2026-03-29T14:21:37Z</time></trkpt><trkpt lat="40.6557160906308" lon="17.7079779793823"><ele>111.39999999999999</ele><time>2026-03-29T14:21:39Z</time></trkpt><trkpt lat="40.655828214577305" lon="17.707921809827056"><ele>111.19999999999999</ele><time>2026-03-29T14:21:41Z</time></trkpt><trkpt lat="40.65592806218609" lon="17.707876538411515"><ele>111.0</ele><time>2026-03-29T14:21:43Z</time></trkpt><trkpt lat="40.65600469576811" lon="17.707848880445496"><ele>111.0</ele><time>2026-03-29T14:21:45Z</time></trkpt><trkpt lat="40.65609582588332" lon="17.707804884538692"><ele>111.0</ele><time>2026-03-29T14:21:48Z</time></trkpt><trkpt lat="40.65616473065872" lon="17.707785223897936"><ele>111.0</ele><time>2026-03-29T14:21:50Z</time></trkpt><trkpt lat="40.65625265257445" lon="17.70775136790121"><ele>111.0</ele><time>2026-03-29T14:21:54Z</time></trkpt><trkpt lat="40.65635593474013" lon="17.707731214740996"><ele>111.0</ele><time>2026-03-29T14:21:56Z</time></trkpt><trkpt lat="40.65644460251794" lon="17.707635098695192"><ele>111.19999999999999</ele><time>2026-03-29T14:21:58Z</time></trkpt><trkpt lat="40.656512779857636" lon="17.70759494346765"><ele>111.39999999999999</ele><time>2026-03-29T14:21:59Z</time></trkpt><trkpt lat="40.656552866732184" lon="17.7075302176417"><ele>111.6</ele><time>2026-03-29T14:22:00Z</time></trkpt><trkpt lat="40.65663396514868" lon="17.707498797690782"><ele>111.8</ele><time>2026-03-29T14:22:02Z</time></trkpt><trkpt lat="40.65671390924587" lon="17.70747507718109"><ele>112.0</ele><time>2026-03-29T14:22:05Z</time></trkpt><trkpt lat="40.6567752509741" lon="17.707661974901857"><ele>112.00000000000001</ele><time>2026-03-29T14:22:08Z</time></trkpt><trkpt lat="40.656846623891845" lon="17.707724240678814"><ele>112.0</ele><time>2026-03-29T14:22:09Z</time></trkpt><trkpt lat="40.65687772150333" lon="17.70781693832339"><ele>112.0</ele><time>2026-03-29T14:22:10Z</time></trkpt><trkpt lat="40.656918406936846" lon="17.707906199155246"><ele>112.0</ele><time>2026-03-29T14:22:11Z</time></trkpt><trkpt lat="40.65694496958114" lon="17.70798428534994"><ele>112.00000000000001</ele><time>2026-03-29T14:22:12Z</time></trkpt><trkpt lat="40.65698287078723" lon="17.708095973098636"><ele>112.0</ele><time>2026-03-29T14:22:13Z</time></trkpt><trkpt lat="40.65703398845326" lon="17.70820191845256"><ele>112.00000000000001</ele><time>2026-03-29T14:22:14Z</time></trkpt><trkpt lat="40.657086978209705" lon="17.708298570376797"><ele>112.0</ele><time>2026-03-29T14:22:15Z</time></trkpt><trkpt lat="40.657139887515605" lon="17.708388257009723"><ele>112.0</ele><time>2026-03-29T14:22:16Z</time></trkpt><trkpt lat="40.65718822863114" lon="17.708470254169068"><ele>112.0</ele><time>2026-03-29T14:22:17Z</time></trkpt><trkpt lat="40.657242038101096" lon="17.708577000320986"><ele>112.00000000000001</ele><time>2026-03-29T14:22:19Z</time></trkpt><trkpt lat="40.657284284113956" lon="17.70866582175075"><ele>112.0</ele><time>2026-03-29T14:22:20Z</time></trkpt><trkpt lat="40.6573520550597" lon="17.708736435322557"><ele>112.00000000000001</ele><time>2026-03-29T14:22:21Z</time></trkpt><trkpt lat="40.65740535733658" lon="17.708814158074873"><ele>112.0</ele><time>2026-03-29T14:22:22Z</time></trkpt><trkpt lat="40.65743335378398" lon="17.708891474998282"><ele>112.0</ele><time>2026-03-29T14:22:23Z</time></trkpt><trkpt lat="40.657470715964365" lon="17.708980409182118"><ele>112.0</ele><time>2026-03-29T14:22:24Z</time></trkpt><trkpt lat="40.65751372768424" lon="17.70906757605646"><ele>112.00000000000001</ele><time>2026-03-29T14:22:25Z</time></trkpt><trkpt lat="40.65761999367072" lon="17.709183244635458"><ele>112.0</ele><time>2026-03-29T14:22:27Z</time></trkpt><trkpt lat="40.65764836793626" lon="17.709266503109422"><ele>112.0</ele><time>2026-03-29T14:22:28Z</time></trkpt><trkpt lat="40.657715358474036" lon="17.70938531375636"><ele>111.99999999999999</ele><time>2026-03-29T14:22:29Z</time></trkpt><trkpt lat="40.65777612635281" lon="17.709484579238975"><ele>111.99999999999999</ele><time>2026-03-29T14:22:30Z</time></trkpt><trkpt lat="40.65782065803721" lon="17.70955780538004"><ele>112.0</ele><time>2026-03-29T14:22:31Z</time></trkpt><trkpt lat="40.65788066376971" lon="17.709634650909585"><ele>112.0</ele><time>2026-03-29T14:22:32Z</time></trkpt><trkpt lat="40.657929396877456" lon="17.709754979021017"><ele>111.6</ele><time>2026-03-29T14:22:33Z</time></trkpt><trkpt lat="40.65798571652619" lon="17.709858666184278"><ele>111.19999999999999</ele><time>2026-03-29T14:22:34Z</time></trkpt><trkpt lat="40.658038238109896" lon="17.709958872531356"><ele>110.8</ele><time>2026-03-29T14:22:36Z</time></trkpt><trkpt lat="40.658088450078424" lon="17.710044057030963"><ele>110.4</ele><time>2026-03-29T14:22:38Z</time></trkpt><trkpt lat="40.658198387954215" lon="17.709919420168344"><ele>110.0</ele><time>2026-03-29T14:22:46Z</time></trkpt><trkpt lat="40.65823020493988" lon="17.709847105731875"><ele>110.0</ele><time>2026-03-29T14:22:47Z</time></trkpt><trkpt lat="40.65818970784539" lon="17.70970494601602"><ele>110.0</ele><time>2026-03-29T14:22:49Z</time></trkpt><trkpt lat="40.65819487552906" lon="17.709599114055624"><ele>110.0</ele><time>2026-03-29T14:22:50Z</time></trkpt><trkpt lat="40.658200910845416" lon="17.709480005457316"><ele>110.0</ele><time>2026-03-29T14:22:51Z</time></trkpt><trkpt lat="40.65820206335275" lon="17.709352353876735"><ele>110.0</ele><time>2026-03-29T14:22:52Z</time></trkpt><trkpt lat="40.65820693007057" lon="17.70920752142123"><ele>109.83333333333333</ele><time>2026-03-29T14:22:53Z</time></trkpt><trkpt lat="40.658202278268476" lon="17.709082053027252"><ele>109.66666666666666</ele><time>2026-03-29T14:22:54Z</time></trkpt><trkpt lat="40.65820888242158" lon="17.70897776643879"><ele>109.5</ele><time>2026-03-29T14:22:55Z</time></trkpt><trkpt lat="40.65821384828369" lon="17.708877362430464"><ele>109.33333333333334</ele><time>2026-03-29T14:22:56Z</time></trkpt><trkpt lat="40.65823606835231" lon="17.708783020549937"><ele>109.16666666666667</ele><time>2026-03-29T14:22:57Z</time></trkpt><trkpt lat="40.65822822080446" lon="17.70866815767208"><ele>109.0</ele><time>2026-03-29T14:22:58Z</time></trkpt><trkpt lat="40.65824326321868" lon="17.70856514807839"><ele>109.0</ele><time>2026-03-29T14:22:59Z</time></trkpt><trkpt lat="40.65824942155118" lon="17.708447318317962"><ele>109.0</ele><time>2026-03-29T14:23:00Z</time></trkpt><trkpt lat="40.658265233197966" lon="17.70834726064264"><ele>109.0</ele><time>2026-03-29T14:23:01Z</time></trkpt><trkpt lat="40.65827663438005" lon="17.708168404726383"><ele>109.0</ele><time>2026-03-29T14:23:03Z</time></trkpt><trkpt lat="40.65828138962504" lon="17.70806073011578"><ele>109.0</ele><time>2026-03-29T14:23:04Z</time></trkpt><trkpt lat="40.65827608679195" lon="17.70794231186038"><ele>109.00000000000001</ele><time>2026-03-29T14:23:05Z</time></trkpt><trkpt lat="40.65827793040741" lon="17.70783064696882"><ele>109.0</ele><time>2026-03-29T14:23:06Z</time></trkpt><trkpt lat="40.65829954636277" lon="17.707732657364645"><ele>109.0</ele><time>2026-03-29T14:23:07Z</time></trkpt><trkpt lat="40.65830584065138" lon="17.70762833789251"><ele>109.0</ele><time>2026-03-29T14:23:08Z</time></trkpt><trkpt lat="40.65831286873674" lon="17.70751185670692"><ele>109.00000000000001</ele><time>2026-03-29T14:23:09Z</time></trkpt><trkpt lat="40.65831835745259" lon="17.707420888513102"><ele>109.0</ele><time>2026-03-29T14:23:10Z</time></trkpt><trkpt lat="40.65832410403575" lon="17.707325646505023"><ele>109.0</ele><time>2026-03-29T14:23:11Z</time></trkpt><trkpt lat="40.6583248262057" lon="17.70721353650521"><ele>109.0</ele><time>2026-03-29T14:23:12Z</time></trkpt><trkpt lat="40.65835364178277" lon="17.707099147138237"><ele>109.0</ele><time>2026-03-29T14:23:13Z</time></trkpt><trkpt lat="40.65836437717868" lon="17.70695687747493"><ele>109.0</ele><time>2026-03-29T14:23:14Z</time></trkpt><trkpt lat="40.65836134196525" lon="17.706836447333444"><ele>109.0</ele><time>2026-03-29T14:23:15Z</time></trkpt><trkpt lat="40.65839337346041" lon="17.7067115602096"><ele>109.0</ele><time>2026-03-29T14:23:17Z</time></trkpt><trkpt lat="40.65840064845494" lon="17.7065629018379"><ele>109.0</ele><time>2026-03-29T14:23:20Z</time></trkpt><trkpt lat="40.6583737882784" lon="17.706450250878152"><ele>109.0</ele><time>2026-03-29T14:23:22Z</time></trkpt><trkpt lat="40.658461231508475" lon="17.70634097295644"><ele>109.0</ele><time>2026-03-29T14:23:24Z</time></trkpt><trkpt lat="40.65853113271752" lon="17.70627597656945"><ele>109.0</ele><time>2026-03-29T14:23:25Z</time></trkpt><trkpt lat="40.65860485600532" lon="17.706203377627034"><ele>109.0</ele><time>2026-03-29T14:23:26Z</time></trkpt><trkpt lat="40.65868577567182" lon="17.706121756451697"><ele>109.0</ele><time>2026-03-29T14:23:27Z</time></trkpt><trkpt lat="40.65875727345683" lon="17.706044945576465"><ele>109.0</ele><time>2026-03-29T14:23:28Z</time></trkpt><trkpt lat="40.65881905425682" lon="17.705981029443386"><ele>109.0</ele><time>2026-03-29T14:23:29Z</time></trkpt><trkpt lat="40.65889643455564" lon="17.70590149613217"><ele>109.0</ele><time>2026-03-29T14:23:30Z</time></trkpt><trkpt lat="40.65898261041963" lon="17.7058142933416"><ele>109.0</ele><time>2026-03-29T14:23:31Z</time></trkpt><trkpt lat="40.65905668870941" lon="17.705739470103612"><ele>109.0</ele><time>2026-03-29T14:23:32Z</time></trkpt><trkpt lat="40.65911998841949" lon="17.705669811704176"><ele>109.0</ele><time>2026-03-29T14:23:33Z</time></trkpt><trkpt lat="40.65920021874139" lon="17.705594499092644"><ele>109.0</ele><time>2026-03-29T14:23:34Z</time></trkpt><trkpt lat="40.659272810078214" lon="17.705521178958804"><ele>109.0</ele><time>2026-03-29T14:23:35Z</time></trkpt><trkpt lat="40.65935841484633" lon="17.705434714747312"><ele>109.0</ele><time>2026-03-29T14:23:36Z</time></trkpt><trkpt lat="40.65946360316648" lon="17.705329130137756"><ele>109.0</ele><time>2026-03-29T14:23:37Z</time></trkpt><trkpt lat="40.65955062050329" lon="17.70524180276444"><ele>109.0</ele><time>2026-03-29T14:23:38Z</time></trkpt><trkpt lat="40.65958977740267" lon="17.70512973057712"><ele>109.0</ele><time>2026-03-29T14:23:39Z</time></trkpt><trkpt lat="40.659648874408916" lon="17.70507650912016"><ele>109.0</ele><time>2026-03-29T14:23:40Z</time></trkpt><trkpt lat="40.659680208128464" lon="17.704998125775017"><ele>109.00000000000001</ele><time>2026-03-29T14:23:41Z</time></trkpt><trkpt lat="40.659743017905996" lon="17.704954160777145"><ele>109.0</ele><time>2026-03-29T14:23:42Z</time></trkpt><trkpt lat="40.65983653224431" lon="17.704953205335645"><ele>109.0</ele><time>2026-03-29T14:23:43Z</time></trkpt><trkpt lat="40.65989056566816" lon="17.70489816418546"><ele>109.0</ele><time>2026-03-29T14:23:44Z</time></trkpt><trkpt lat="40.65995272607581" lon="17.70483471738506"><ele>109.00000000000001</ele><time>2026-03-29T14:23:45Z</time></trkpt><trkpt lat="40.66002299197922" lon="17.704762997386556"><ele>109.0</ele><time>2026-03-29T14:23:46Z</time></trkpt><trkpt lat="40.660094754279186" lon="17.70468931278958"><ele>109.0</ele><time>2026-03-29T14:23:47Z</time></trkpt><trkpt lat="40.66017091215764" lon="17.70461124926381"><ele>109.0</ele><time>2026-03-29T14:23:48Z</time></trkpt><trkpt lat="40.660243467548746" lon="17.70453723901572"><ele>109.0</ele><time>2026-03-29T14:23:49Z</time></trkpt><trkpt lat="40.66031838030178" lon="17.704461492499515"><ele>109.0</ele><time>2026-03-29T14:23:50Z</time></trkpt><trkpt lat="40.660383805578675" lon="17.704395339055022"><ele>109.0</ele><time>2026-03-29T14:23:51Z</time></trkpt><trkpt lat="40.66045792177774" lon="17.704320397961663"><ele>109.2</ele><time>2026-03-29T14:23:52Z</time></trkpt><trkpt lat="40.66052578075817" lon="17.70425178372594"><ele>109.4</ele><time>2026-03-29T14:23:53Z</time></trkpt><trkpt lat="40.66060636373459" lon="17.70417030388314"><ele>109.6</ele><time>2026-03-29T14:23:54Z</time></trkpt><trkpt lat="40.660700439786424" lon="17.704075139495863"><ele>109.8</ele><time>2026-03-29T14:23:55Z</time></trkpt><trkpt lat="40.66079594745662" lon="17.703977985143055"><ele>110.0</ele><time>2026-03-29T14:23:56Z</time></trkpt><trkpt lat="40.66087380054765" lon="17.70389013445538"><ele>110.0</ele><time>2026-03-29T14:23:57Z</time></trkpt><trkpt lat="40.66095074353651" lon="17.70382160289357"><ele>110.0</ele><time>2026-03-29T14:23:58Z</time></trkpt><trkpt lat="40.661057188510014" lon="17.703714463330883"><ele>110.0</ele><time>2026-03-29T14:23:59Z</time></trkpt><trkpt lat="40.661199354930496" lon="17.70357136929685"><ele>110.0</ele><time>2026-03-29T14:24:00Z</time></trkpt><trkpt lat="40.661377642058056" lon="17.703391930709117"><ele>108.5</ele><time>2026-03-29T14:24:01Z</time></trkpt><trkpt lat="40.661570565398016" lon="17.70317216136491"><ele>107.0</ele><time>2026-03-29T14:24:02Z</time></trkpt><trkpt lat="40.66178624506166" lon="17.703002649593024"><ele>106.5</ele><time>2026-03-29T14:24:03Z</time></trkpt><trkpt lat="40.662003441497035" lon="17.70277884807386"><ele>106.0</ele><time>2026-03-29T14:24:04Z</time></trkpt><trkpt lat="40.662182942070125" lon="17.702546372293845"><ele>105.66666666666667</ele><time>2026-03-29T14:24:05Z</time></trkpt><trkpt lat="40.66234774422637" lon="17.702422322176524"><ele>105.33333333333334</ele><time>2026-03-29T14:24:06Z</time></trkpt><trkpt lat="40.66248478267596" lon="17.7022592169774"><ele>105.0</ele><time>2026-03-29T14:24:07Z</time></trkpt><trkpt lat="40.662702964322555" lon="17.7020685723048"><ele>104.5</ele><time>2026-03-29T14:24:08Z</time></trkpt><trkpt lat="40.66292423390708" lon="17.701850636406256"><ele>104.0</ele><time>2026-03-29T14:24:09Z</time></trkpt><trkpt lat="40.663152882560695" lon="17.701598929699053"><ele>104.0</ele><time>2026-03-29T14:24:10Z</time></trkpt><trkpt lat="40.66337789898324" lon="17.70134980731566"><ele>104.0</ele><time>2026-03-29T14:24:11Z</time></trkpt><trkpt lat="40.663577363505006" lon="17.701144977375805"><ele>104.66666666666666</ele><time>2026-03-29T14:24:12Z</time></trkpt><trkpt lat="40.66375607561716" lon="17.70097614248601"><ele>105.33333333333334</ele><time>2026-03-29T14:24:13Z</time></trkpt><trkpt lat="40.66392038992245" lon="17.700797859479813"><ele>106.0</ele><time>2026-03-29T14:24:14Z</time></trkpt><trkpt lat="40.66410375677736" lon="17.700624387734734"><ele>106.0</ele><time>2026-03-29T14:24:15Z</time></trkpt><trkpt lat="40.66427038530561" lon="17.700462657810622"><ele>106.0</ele><time>2026-03-29T14:24:16Z</time></trkpt><trkpt lat="40.66440992832254" lon="17.70032139192445"><ele>106.0</ele><time>2026-03-29T14:24:17Z</time></trkpt><trkpt lat="40.66454017151874" lon="17.70016881669401"><ele>106.33333333333334</ele><time>2026-03-29T14:24:18Z</time></trkpt><trkpt lat="40.66468199389404" lon="17.700047641237084"><ele>106.66666666666666</ele><time>2026-03-29T14:24:19Z</time></trkpt><trkpt lat="40.664809770891054" lon="17.699908809315385"><ele>107.0</ele><time>2026-03-29T14:24:20Z</time></trkpt><trkpt lat="40.664926199985295" lon="17.699800039160504"><ele>107.0</ele><time>2026-03-29T14:24:21Z</time></trkpt><trkpt lat="40.66501604241642" lon="17.69970926586372"><ele>106.99999999999999</ele><time>2026-03-29T14:24:21.999Z</time></trkpt><trkpt lat="40.66509444037041" lon="17.69960796974132"><ele>106.99999999999999</ele><time>2026-03-29T14:24:22.999Z</time></trkpt><trkpt lat="40.66518413767464" lon="17.699560788272475"><ele>107.0</ele><time>2026-03-29T14:24:23.999Z</time></trkpt><trkpt lat="40.66528037396855" lon="17.699525776599927"><ele>107.0</ele><time>2026-03-29T14:24:24.999Z</time></trkpt><trkpt lat="40.665441214278346" lon="17.69949694261598"><ele>106.8</ele><time>2026-03-29T14:24:26.999Z</time></trkpt><trkpt lat="40.66553841258605" lon="17.699480563604478"><ele>106.6</ele><time>2026-03-29T14:24:27.999Z</time></trkpt><trkpt lat="40.66561417393399" lon="17.699409744882278"><ele>106.39999999999999</ele><time>2026-03-29T14:24:28.999Z</time></trkpt><trkpt lat="40.665673429394836" lon="17.699308628719017"><ele>106.19999999999999</ele><time>2026-03-29T14:24:29.999Z</time></trkpt><trkpt lat="40.66571126249208" lon="17.699148371831154"><ele>106.0</ele><time>2026-03-29T14:24:30.999Z</time></trkpt><trkpt lat="40.66577493124707" lon="17.69898927925103"><ele>105.66666666666667</ele><time>2026-03-29T14:24:32Z</time></trkpt><trkpt lat="40.66585729044517" lon="17.698855984555948"><ele>105.33333333333334</ele><time>2026-03-29T14:24:33Z</time></trkpt><trkpt lat="40.66597530809726" lon="17.69872208807573"><ele>105.0</ele><time>2026-03-29T14:24:34Z</time></trkpt><trkpt lat="40.666126015675204" lon="17.698578136569655"><ele>104.33333333333334</ele><time>2026-03-29T14:24:35Z</time></trkpt><trkpt lat="40.66628385387286" lon="17.69841789532018"><ele>103.66666666666667</ele><time>2026-03-29T14:24:36Z</time></trkpt><trkpt lat="40.66645304311796" lon="17.69826449341993"><ele>103.0</ele><time>2026-03-29T14:24:37Z</time></trkpt><trkpt lat="40.666626357200116" lon="17.698088375070984"><ele>103.0</ele><time>2026-03-29T14:24:38Z</time></trkpt><trkpt lat="40.66679999247942" lon="17.69788583163912"><ele>103.0</ele><time>2026-03-29T14:24:39Z</time></trkpt><trkpt lat="40.666992171006015" lon="17.697696101252298"><ele>102.5</ele><time>2026-03-29T14:24:40Z</time></trkpt><trkpt lat="40.667180457363855" lon="17.69750131344282"><ele>102.0</ele><time>2026-03-29T14:24:41Z</time></trkpt><trkpt lat="40.667389769754145" lon="17.69731636437773"><ele>102.0</ele><time>2026-03-29T14:24:42Z</time></trkpt><trkpt lat="40.667587524193664" lon="17.697116355872346"><ele>102.0</ele><time>2026-03-29T14:24:43Z</time></trkpt><trkpt lat="40.66777898490035" lon="17.696901750627447"><ele>104.0</ele><time>2026-03-29T14:24:44Z</time></trkpt><trkpt lat="40.6679710107495" lon="17.696709266296903"><ele>106.0</ele><time>2026-03-29T14:24:45Z</time></trkpt><trkpt lat="40.66815315215904" lon="17.69652582431317"><ele>106.0</ele><time>2026-03-29T14:24:46Z</time></trkpt><trkpt lat="40.66832102271023" lon="17.69636089361243"><ele>106.0</ele><time>2026-03-29T14:24:47Z</time></trkpt><trkpt lat="40.66847126531315" lon="17.696212491854048"><ele>106.0</ele><time>2026-03-29T14:24:48Z</time></trkpt><trkpt lat="40.668603701843374" lon="17.696069428983403"><ele>106.0</ele><time>2026-03-29T14:24:49Z</time></trkpt><trkpt lat="40.668730103910555" lon="17.695940165039094"><ele>106.0</ele><time>2026-03-29T14:24:50Z</time></trkpt><trkpt lat="40.66884332933556" lon="17.695831979628633"><ele>106.0</ele><time>2026-03-29T14:24:51Z</time></trkpt><trkpt lat="40.66895786975252" lon="17.69573910729867"><ele>106.0</ele><time>2026-03-29T14:24:52Z</time></trkpt><trkpt lat="40.669063748010224" lon="17.6956064237622"><ele>106.0</ele><time>2026-03-29T14:24:53Z</time></trkpt><trkpt lat="40.669173482459435" lon="17.69553767909238"><ele>106.0</ele><time>2026-03-29T14:24:54Z</time></trkpt><trkpt lat="40.669311126177" lon="17.695511986012285"><ele>106.0</ele><time>2026-03-29T14:24:55Z</time></trkpt><trkpt lat="40.66943756802914" lon="17.69547645821908"><ele>106.0</ele><time>2026-03-29T14:24:56Z</time></trkpt><trkpt lat="40.66955989328604" lon="17.695449446891548"><ele>106.0</ele><time>2026-03-29T14:24:57Z</time></trkpt><trkpt lat="40.66966652350535" lon="17.695388760127187"><ele>106.0</ele><time>2026-03-29T14:24:58Z</time></trkpt><trkpt lat="40.66975360213139" lon="17.69528317584219"><ele>106.0</ele><time>2026-03-29T14:24:59Z</time></trkpt><trkpt lat="40.669783040260526" lon="17.69507927366396"><ele>106.0</ele><time>2026-03-29T14:25:00Z</time></trkpt><trkpt lat="40.6698431293852" lon="17.694904333347253"><ele>106.33333333333334</ele><time>2026-03-29T14:25:01Z</time></trkpt><trkpt lat="40.66992957756001" lon="17.69473228534276"><ele>106.66666666666666</ele><time>2026-03-29T14:25:02Z</time></trkpt><trkpt lat="40.67008872364885" lon="17.694587451199645"><ele>107.0</ele><time>2026-03-29T14:25:03Z</time></trkpt><trkpt lat="40.67024443385972" lon="17.694436581184835"><ele>107.66666666666666</ele><time>2026-03-29T14:25:04Z</time></trkpt><trkpt lat="40.67040780169212" lon="17.69427499897047"><ele>108.33333333333334</ele><time>2026-03-29T14:25:05Z</time></trkpt><trkpt lat="40.67056979625708" lon="17.694107376002496"><ele>109.0</ele><time>2026-03-29T14:25:06Z</time></trkpt><trkpt lat="40.670752470596206" lon="17.693938357706784"><ele>109.0</ele><time>2026-03-29T14:25:07Z</time></trkpt><trkpt lat="40.670925550774335" lon="17.693766201953583"><ele>109.0</ele><time>2026-03-29T14:25:08Z</time></trkpt><trkpt lat="40.671101765718355" lon="17.69358428970142"><ele>109.0</ele><time>2026-03-29T14:25:09Z</time></trkpt><trkpt lat="40.67128444090282" lon="17.693401348217687"><ele>110.0</ele><time>2026-03-29T14:25:10Z</time></trkpt><trkpt lat="40.671459210513696" lon="17.69318845778211"><ele>111.0</ele><time>2026-03-29T14:25:11Z</time></trkpt><trkpt lat="40.671655715687706" lon="17.69301902502195"><ele>111.0</ele><time>2026-03-29T14:25:12Z</time></trkpt><trkpt lat="40.67183779073867" lon="17.69283675273763"><ele>111.0</ele><time>2026-03-29T14:25:13Z</time></trkpt><trkpt lat="40.67201290421823" lon="17.692659550618636"><ele>111.0</ele><time>2026-03-29T14:25:14Z</time></trkpt><trkpt lat="40.672204721527834" lon="17.692465693423266"><ele>112.0</ele><time>2026-03-29T14:25:15Z</time></trkpt><trkpt lat="40.67239862348488" lon="17.692244610065725"><ele>113.0</ele><time>2026-03-29T14:25:16Z</time></trkpt><trkpt lat="40.67257495079338" lon="17.69207125260545"><ele>113.5</ele><time>2026-03-29T14:25:17Z</time></trkpt><trkpt lat="40.67276231157849" lon="17.691874372307243"><ele>114.0</ele><time>2026-03-29T14:25:18Z</time></trkpt><trkpt lat="40.67295447629063" lon="17.691704091040346"><ele>114.0</ele><time>2026-03-29T14:25:19Z</time></trkpt><trkpt lat="40.67311990133617" lon="17.69153605918614"><ele>114.0</ele><time>2026-03-29T14:25:20Z</time></trkpt><trkpt lat="40.673315267848345" lon="17.69132001634282"><ele>114.0</ele><time>2026-03-29T14:25:21Z</time></trkpt><trkpt lat="40.67349727500229" lon="17.69114035053605"><ele>114.0</ele><time>2026-03-29T14:25:22Z</time></trkpt><trkpt lat="40.673678273123514" lon="17.690959031822494"><ele>114.5</ele><time>2026-03-29T14:25:23Z</time></trkpt><trkpt lat="40.67387014727742" lon="17.690766545391"><ele>115.0</ele><time>2026-03-29T14:25:24Z</time></trkpt><trkpt lat="40.67405876899969" lon="17.690580610456472"><ele>115.0</ele><time>2026-03-29T14:25:25Z</time></trkpt><trkpt lat="40.67423799526517" lon="17.6904231248292"><ele>115.0</ele><time>2026-03-29T14:25:26Z</time></trkpt><trkpt lat="40.67443168540898" lon="17.690221338650286"><ele>115.0</ele><time>2026-03-29T14:25:27Z</time></trkpt><trkpt lat="40.67462116868459" lon="17.690035150530065"><ele>115.0</ele><time>2026-03-29T14:25:28Z</time></trkpt><trkpt lat="40.67480492922576" lon="17.689833800485918"><ele>115.0</ele><time>2026-03-29T14:25:29Z</time></trkpt><trkpt lat="40.67499843376118" lon="17.68964592272599"><ele>115.0</ele><time>2026-03-29T14:25:30Z</time></trkpt><trkpt lat="40.675370739425425" lon="17.689260125224692"><ele>115.5</ele><time>2026-03-29T14:25:32Z</time></trkpt><trkpt lat="40.675562831557116" lon="17.689067424957642"><ele>116.0</ele><time>2026-03-29T14:25:33Z</time></trkpt><trkpt lat="40.67575430928522" lon="17.68887393531623"><ele>116.0</ele><time>2026-03-29T14:25:34Z</time></trkpt><trkpt lat="40.67594484816009" lon="17.68868298447021"><ele>116.0</ele><time>2026-03-29T14:25:35Z</time></trkpt><trkpt lat="40.67613799525825" lon="17.688485945347317"><ele>115.5</ele><time>2026-03-29T14:25:36Z</time></trkpt><trkpt lat="40.67632705146381" lon="17.688283888747797"><ele>115.0</ele><time>2026-03-29T14:25:37Z</time></trkpt><trkpt lat="40.67652436803934" lon="17.688086604672655"><ele>115.0</ele><time>2026-03-29T14:25:38Z</time></trkpt><trkpt lat="40.6767199044464" lon="17.687886806594744"><ele>115.0</ele><time>2026-03-29T14:25:39Z</time></trkpt><trkpt lat="40.67691695976286" lon="17.687684227954097"><ele>116.0</ele><time>2026-03-29T14:25:40Z</time></trkpt><trkpt lat="40.6771092583135" lon="17.687488260192545"><ele>117.0</ele><time>2026-03-29T14:25:41Z</time></trkpt><trkpt lat="40.67730034511821" lon="17.687299730783188"><ele>117.0</ele><time>2026-03-29T14:25:42Z</time></trkpt><trkpt lat="40.67748438010975" lon="17.68711447099643"><ele>117.0</ele><time>2026-03-29T14:25:43Z</time></trkpt><trkpt lat="40.677671518756135" lon="17.686932077684883"><ele>116.0</ele><time>2026-03-29T14:25:44Z</time></trkpt><trkpt lat="40.67785738605463" lon="17.686744709735827"><ele>115.0</ele><time>2026-03-29T14:25:45Z</time></trkpt><trkpt lat="40.67804217940766" lon="17.68655882439362"><ele>115.0</ele><time>2026-03-29T14:25:46Z</time></trkpt><trkpt lat="40.67823004283653" lon="17.686366976328177"><ele>115.0</ele><time>2026-03-29T14:25:47Z</time></trkpt><trkpt lat="40.67841894091691" lon="17.686174785950115"><ele>115.5</ele><time>2026-03-29T14:25:48Z</time></trkpt><trkpt lat="40.678597650557094" lon="17.685986134763382"><ele>116.0</ele><time>2026-03-29T14:25:49Z</time></trkpt><trkpt lat="40.67878366833683" lon="17.68581064002353"><ele>116.0</ele><time>2026-03-29T14:25:50Z</time></trkpt><trkpt lat="40.678968276697766" lon="17.685629221303582"><ele>116.0</ele><time>2026-03-29T14:25:51Z</time></trkpt><trkpt lat="40.679154531473614" lon="17.68544786185824"><ele>116.0</ele><time>2026-03-29T14:25:52Z</time></trkpt><trkpt lat="40.679332864942154" lon="17.685241146134388"><ele>116.0</ele><time>2026-03-29T14:25:53Z</time></trkpt><trkpt lat="40.67951988413299" lon="17.685045394357623"><ele>114.5</ele><time>2026-03-29T14:25:54Z</time></trkpt><trkpt lat="40.67971002696222" lon="17.684846851335486"><ele>113.0</ele><time>2026-03-29T14:25:55Z</time></trkpt><trkpt lat="40.679900983645545" lon="17.684653711626012"><ele>113.0</ele><time>2026-03-29T14:25:56Z</time></trkpt><trkpt lat="40.68009817891489" lon="17.68445964775806"><ele>113.0</ele><time>2026-03-29T14:25:57Z</time></trkpt><trkpt lat="40.68029128896744" lon="17.684271578659835"><ele>112.0</ele><time>2026-03-29T14:25:58Z</time></trkpt><trkpt lat="40.68048310370554" lon="17.684077900431614"><ele>111.0</ele><time>2026-03-29T14:25:58.999Z</time></trkpt><trkpt lat="40.680681842252234" lon="17.68387646184838"><ele>111.0</ele><time>2026-03-29T14:25:59.999Z</time></trkpt><trkpt lat="40.68088520768906" lon="17.683669369677155"><ele>111.0</ele><time>2026-03-29T14:26:00.999Z</time></trkpt><trkpt lat="40.68108383688825" lon="17.683459678645"><ele>112.0</ele><time>2026-03-29T14:26:01.999Z</time></trkpt><trkpt lat="40.68128481372217" lon="17.68325736202733"><ele>113.0</ele><time>2026-03-29T14:26:02.999Z</time></trkpt><trkpt lat="40.68148397705885" lon="17.68305649001769"><ele>113.0</ele><time>2026-03-29T14:26:03.999Z</time></trkpt><trkpt lat="40.681682259089655" lon="17.682860810612073"><ele>113.0</ele><time>2026-03-29T14:26:04.999Z</time></trkpt><trkpt lat="40.68188188111372" lon="17.68266908564317"><ele>113.0</ele><time>2026-03-29T14:26:05.999Z</time></trkpt><trkpt lat="40.68208914418096" lon="17.682477487175962"><ele>113.0</ele><time>2026-03-29T14:26:06.999Z</time></trkpt><trkpt lat="40.68228367989837" lon="17.682279572705188"><ele>113.0</ele><time>2026-03-29T14:26:07.999Z</time></trkpt><trkpt lat="40.68247972955176" lon="17.682076196764708"><ele>113.0</ele><time>2026-03-29T14:26:08.999Z</time></trkpt><trkpt lat="40.6826727162089" lon="17.681873906606633"><ele>114.0</ele><time>2026-03-29T14:26:09.999Z</time></trkpt><trkpt lat="40.682868912126885" lon="17.68167441616484"><ele>115.0</ele><time>2026-03-29T14:26:10.999Z</time></trkpt><trkpt lat="40.683064285311" lon="17.681472901629974"><ele>115.0</ele><time>2026-03-29T14:26:11.999Z</time></trkpt><trkpt lat="40.6832560241823" lon="17.68127822649219"><ele>115.0</ele><time>2026-03-29T14:26:12.999Z</time></trkpt><trkpt lat="40.68344763343312" lon="17.68108093679132"><ele>115.5</ele><time>2026-03-29T14:26:13.999Z</time></trkpt><trkpt lat="40.68364224449989" lon="17.68088614961445"><ele>116.0</ele><time>2026-03-29T14:26:14.999Z</time></trkpt><trkpt lat="40.6838303911373" lon="17.680694692704648"><ele>116.0</ele><time>2026-03-29T14:26:15.999Z</time></trkpt><trkpt lat="40.68401351244216" lon="17.680498329441473"><ele>116.0</ele><time>2026-03-29T14:26:16.999Z</time></trkpt><trkpt lat="40.684195200852756" lon="17.680319042200377"><ele>115.66666666666666</ele><time>2026-03-29T14:26:17.999Z</time></trkpt><trkpt lat="40.68437843024209" lon="17.68013483245994"><ele>115.33333333333334</ele><time>2026-03-29T14:26:18.999Z</time></trkpt><trkpt lat="40.68454735039789" lon="17.67995100710796"><ele>115.0</ele><time>2026-03-29T14:26:19.999Z</time></trkpt><trkpt lat="40.68473702813196" lon="17.679762170589893"><ele>115.33333333333334</ele><time>2026-03-29T14:26:20.999Z</time></trkpt><trkpt lat="40.684911580966876" lon="17.679582459796112"><ele>115.66666666666666</ele><time>2026-03-29T14:26:21.999Z</time></trkpt><trkpt lat="40.68509005042943" lon="17.679403776398026"><ele>116.0</ele><time>2026-03-29T14:26:22.999Z</time></trkpt><trkpt lat="40.685269767815264" lon="17.679225519920962"><ele>116.66666666666666</ele><time>2026-03-29T14:26:23.999Z</time></trkpt><trkpt lat="40.68544814762191" lon="17.67904601883726"><ele>117.33333333333334</ele><time>2026-03-29T14:26:24.999Z</time></trkpt><trkpt lat="40.685622433424854" lon="17.678860754325743"><ele>118.0</ele><time>2026-03-29T14:26:25.999Z</time></trkpt><trkpt lat="40.68580390641748" lon="17.678676371048088"><ele>120.0</ele><time>2026-03-29T14:26:26.999Z</time></trkpt><trkpt lat="40.685987465953005" lon="17.67849354118797"><ele>122.0</ele><time>2026-03-29T14:26:27.999Z</time></trkpt><trkpt lat="40.686169148043824" lon="17.67830483057285"><ele>123.0</ele><time>2026-03-29T14:26:28.999Z</time></trkpt><trkpt lat="40.686350051111376" lon="17.67812211057544"><ele>124.0</ele><time>2026-03-29T14:26:29.999Z</time></trkpt><trkpt lat="40.68652969066856" lon="17.677945526650646"><ele>124.0</ele><time>2026-03-29T14:26:30.999Z</time></trkpt><trkpt lat="40.68671440914329" lon="17.67775949222475"><ele>124.0</ele><time>2026-03-29T14:26:31.999Z</time></trkpt><trkpt lat="40.686904144653205" lon="17.67757868503264"><ele>124.0</ele><time>2026-03-29T14:26:32.999Z</time></trkpt><trkpt lat="40.68709660366635" lon="17.67739789777164"><ele>124.0</ele><time>2026-03-29T14:26:33.999Z</time></trkpt><trkpt lat="40.68727938771394" lon="17.677208770121922"><ele>124.0</ele><time>2026-03-29T14:26:34.999Z</time></trkpt><trkpt lat="40.687468818699166" lon="17.677016129272552"><ele>124.0</ele><time>2026-03-29T14:26:35.999Z</time></trkpt><trkpt lat="40.68765575043301" lon="17.67682383597182"><ele>124.5</ele><time>2026-03-29T14:26:36.999Z</time></trkpt><trkpt lat="40.687841320270415" lon="17.6766288635464"><ele>125.0</ele><time>2026-03-29T14:26:38Z</time></trkpt><trkpt lat="40.68802952365584" lon="17.676433053074067"><ele>125.0</ele><time>2026-03-29T14:26:39Z</time></trkpt><trkpt lat="40.68822230758496" lon="17.676241457740144"><ele>125.0</ele><time>2026-03-29T14:26:40Z</time></trkpt><trkpt lat="40.688409014252066" lon="17.676053679539745"><ele>125.5</ele><time>2026-03-29T14:26:41Z</time></trkpt><trkpt lat="40.68859729189283" lon="17.675860424743746"><ele>126.0</ele><time>2026-03-29T14:26:42Z</time></trkpt><trkpt lat="40.68878902292014" lon="17.675668547807085"><ele>126.0</ele><time>2026-03-29T14:26:43Z</time></trkpt><trkpt lat="40.68898439495233" lon="17.67546937476641"><ele>126.0</ele><time>2026-03-29T14:26:44Z</time></trkpt><trkpt lat="40.68918383794276" lon="17.67526690790521"><ele>126.0</ele><time>2026-03-29T14:26:45Z</time></trkpt><trkpt lat="40.68938245971984" lon="17.67507038880849"><ele>126.0</ele><time>2026-03-29T14:26:46Z</time></trkpt><trkpt lat="40.68957702207187" lon="17.674874765349223"><ele>126.0</ele><time>2026-03-29T14:26:47Z</time></trkpt><trkpt lat="40.68977931216535" lon="17.674671839260498"><ele>126.0</ele><time>2026-03-29T14:26:48Z</time></trkpt><trkpt lat="40.689977329014376" lon="17.67447252215827"><ele>127.0</ele><time>2026-03-29T14:26:49Z</time></trkpt><trkpt lat="40.69017597127718" lon="17.674272988521206"><ele>128.0</ele><time>2026-03-29T14:26:50Z</time></trkpt><trkpt lat="40.69036916009322" lon="17.67406812711999"><ele>128.5</ele><time>2026-03-29T14:26:51Z</time></trkpt><trkpt lat="40.69056261684161" lon="17.673875408531135"><ele>129.0</ele><time>2026-03-29T14:26:52Z</time></trkpt><trkpt lat="40.690756567385456" lon="17.673680557384476"><ele>129.0</ele><time>2026-03-29T14:26:53Z</time></trkpt><trkpt lat="40.69094762970679" lon="17.673481197042864"><ele>129.0</ele><time>2026-03-29T14:26:54Z</time></trkpt><trkpt lat="40.69114874487146" lon="17.673274508976046"><ele>128.5</ele><time>2026-03-29T14:26:55Z</time></trkpt><trkpt lat="40.69135456351415" lon="17.673064186220536"><ele>128.0</ele><time>2026-03-29T14:26:56Z</time></trkpt><trkpt lat="40.691560014364796" lon="17.672861781034022"><ele>128.0</ele><time>2026-03-29T14:26:57Z</time></trkpt><trkpt lat="40.69176378440942" lon="17.672655819718877"><ele>128.0</ele><time>2026-03-29T14:26:58Z</time></trkpt><trkpt lat="40.69197371167964" lon="17.672443329407532"><ele>128.0</ele><time>2026-03-29T14:26:59Z</time></trkpt><trkpt lat="40.69218224082523" lon="17.672228502173443"><ele>128.0</ele><time>2026-03-29T14:27:00Z</time></trkpt><trkpt lat="40.69239357063023" lon="17.672020350234934"><ele>128.5</ele><time>2026-03-29T14:27:01Z</time></trkpt><trkpt lat="40.692604829677705" lon="17.67180891826598"><ele>129.0</ele><time>2026-03-29T14:27:02Z</time></trkpt><trkpt lat="40.69281360413435" lon="17.67159462321376"><ele>127.5</ele><time>2026-03-29T14:27:03Z</time></trkpt><trkpt lat="40.693018816999256" lon="17.671386953531073"><ele>126.0</ele><time>2026-03-29T14:27:04Z</time></trkpt><trkpt lat="40.69321498119081" lon="17.6711914874378"><ele>126.5</ele><time>2026-03-29T14:27:05Z</time></trkpt><trkpt lat="40.69341033819296" lon="17.67099965617349"><ele>127.0</ele><time>2026-03-29T14:27:06Z</time></trkpt><trkpt lat="40.69358579104941" lon="17.67082565359227"><ele>127.0</ele><time>2026-03-29T14:27:07Z</time></trkpt><trkpt lat="40.693740968492236" lon="17.670665128255507"><ele>127.0</ele><time>2026-03-29T14:27:08Z</time></trkpt><trkpt lat="40.693882515078684" lon="17.670508032259153"><ele>127.0</ele><time>2026-03-29T14:27:09Z</time></trkpt><trkpt lat="40.69402316567038" lon="17.670355155984716"><ele>127.0</ele><time>2026-03-29T14:27:10Z</time></trkpt><trkpt lat="40.69417225028655" lon="17.670202799186704"><ele>127.0</ele><time>2026-03-29T14:27:11Z</time></trkpt><trkpt lat="40.69431563464197" lon="17.670062874821678"><ele>127.0</ele><time>2026-03-29T14:27:12Z</time></trkpt><trkpt lat="40.69445111804268" lon="17.66992520667113"><ele>127.0</ele><time>2026-03-29T14:27:13Z</time></trkpt><trkpt lat="40.6945942122985" lon="17.66978276137514"><ele>127.0</ele><time>2026-03-29T14:27:14Z</time></trkpt><trkpt lat="40.69472534824884" lon="17.66965293498442"><ele>127.0</ele><time>2026-03-29T14:27:15Z</time></trkpt><trkpt lat="40.694845229373705" lon="17.66953380637472"><ele>127.0</ele><time>2026-03-29T14:27:16Z</time></trkpt><trkpt lat="40.694967782420974" lon="17.669414115714705"><ele>127.0</ele><time>2026-03-29T14:27:17Z</time></trkpt><trkpt lat="40.695064470098565" lon="17.669297188731914"><ele>127.0</ele><time>2026-03-29T14:27:18Z</time></trkpt><trkpt lat="40.695167546434995" lon="17.669190139201767"><ele>127.0</ele><time>2026-03-29T14:27:19Z</time></trkpt><trkpt lat="40.69527555799767" lon="17.669086651410005"><ele>127.0</ele><time>2026-03-29T14:27:20Z</time></trkpt><trkpt lat="40.69538861071141" lon="17.66902023324842"><ele>127.0</ele><time>2026-03-29T14:27:21Z</time></trkpt><trkpt lat="40.69551143595774" lon="17.66898641932819"><ele>127.0</ele><time>2026-03-29T14:27:22Z</time></trkpt><trkpt lat="40.69561403760951" lon="17.668920261534232"><ele>127.0</ele><time>2026-03-29T14:27:23Z</time></trkpt><trkpt lat="40.69570251757106" lon="17.668795653539142"><ele>127.0</ele><time>2026-03-29T14:27:24Z</time></trkpt><trkpt lat="40.695778862066376" lon="17.668627314388182"><ele>127.0</ele><time>2026-03-29T14:27:25Z</time></trkpt><trkpt lat="40.695891178642995" lon="17.668467017526808"><ele>127.0</ele><time>2026-03-29T14:27:26Z</time></trkpt><trkpt lat="40.69604311527128" lon="17.668323308021108"><ele>127.0</ele><time>2026-03-29T14:27:27Z</time></trkpt><trkpt lat="40.69621074814934" lon="17.668172070597713"><ele>127.0</ele><time>2026-03-29T14:27:28Z</time></trkpt><trkpt lat="40.696392972204876" lon="17.667990813971016"><ele>127.0</ele><time>2026-03-29T14:27:29Z</time></trkpt><trkpt lat="40.69656915548354" lon="17.66779492828074"><ele>126.66666666666667</ele><time>2026-03-29T14:27:30Z</time></trkpt><trkpt lat="40.69674574300587" lon="17.667607894749942"><ele>126.33333333333334</ele><time>2026-03-29T14:27:31Z</time></trkpt><trkpt lat="40.69692010774803" lon="17.667434278955866"><ele>126.0</ele><time>2026-03-29T14:27:32Z</time></trkpt><trkpt lat="40.697091241303724" lon="17.6672622161521"><ele>125.0</ele><time>2026-03-29T14:27:33Z</time></trkpt><trkpt lat="40.69724292313167" lon="17.667106016715827"><ele>124.0</ele><time>2026-03-29T14:27:34Z</time></trkpt><trkpt lat="40.69739456836431" lon="17.66694121270694"><ele>123.0</ele><time>2026-03-29T14:27:35Z</time></trkpt><trkpt lat="40.69755537965796" lon="17.666773900210988"><ele>123.0</ele><time>2026-03-29T14:27:36Z</time></trkpt><trkpt lat="40.69773037339708" lon="17.666610800293174"><ele>123.0</ele><time>2026-03-29T14:27:37Z</time></trkpt><trkpt lat="40.697879383614655" lon="17.666454433637536"><ele>123.0</ele><time>2026-03-29T14:27:38Z</time></trkpt><trkpt lat="40.69802706782856" lon="17.666303104464603"><ele>123.0</ele><time>2026-03-29T14:27:39Z</time></trkpt><trkpt lat="40.69817737876499" lon="17.666147576749232"><ele>123.0</ele><time>2026-03-29T14:27:40Z</time></trkpt><trkpt lat="40.69833225777389" lon="17.6659886051973"><ele>123.0</ele><time>2026-03-29T14:27:41Z</time></trkpt><trkpt lat="40.69847993081086" lon="17.66583654081812"><ele>124.33333333333334</ele><time>2026-03-29T14:27:42Z</time></trkpt><trkpt lat="40.698622626924866" lon="17.665697488486195"><ele>125.66666666666667</ele><time>2026-03-29T14:27:43Z</time></trkpt><trkpt lat="40.69875780552105" lon="17.665566534096275"><ele>127.0</ele><time>2026-03-29T14:27:44Z</time></trkpt><trkpt lat="40.69888878504844" lon="17.665493896318697"><ele>127.0</ele><time>2026-03-29T14:27:45Z</time></trkpt><trkpt lat="40.69896622780792" lon="17.66535901646694"><ele>126.99999999999999</ele><time>2026-03-29T14:27:46Z</time></trkpt><trkpt lat="40.69905002041209" lon="17.665282556973064"><ele>126.99999999999999</ele><time>2026-03-29T14:27:47Z</time></trkpt><trkpt lat="40.69911300829991" lon="17.665227447783202"><ele>127.0</ele><time>2026-03-29T14:27:48Z</time></trkpt><trkpt lat="40.69916630229095" lon="17.66517273278066"><ele>127.0</ele><time>2026-03-29T14:27:49Z</time></trkpt><trkpt lat="40.699230643137575" lon="17.66511589556214"><ele>127.25</ele><time>2026-03-29T14:27:50Z</time></trkpt><trkpt lat="40.69929977876778" lon="17.665036902711538"><ele>127.5</ele><time>2026-03-29T14:27:51Z</time></trkpt><trkpt lat="40.69939835412818" lon="17.66492908706828"><ele>127.75</ele><time>2026-03-29T14:27:52Z</time></trkpt><trkpt lat="40.699509359062" lon="17.664821111719938"><ele>128.0</ele><time>2026-03-29T14:27:53Z</time></trkpt><trkpt lat="40.69961990268512" lon="17.664709063239684"><ele>128.0</ele><time>2026-03-29T14:27:54Z</time></trkpt><trkpt lat="40.69973470868194" lon="17.664591263404247"><ele>128.0</ele><time>2026-03-29T14:27:55Z</time></trkpt><trkpt lat="40.699855194370116" lon="17.664479229603483"><ele>128.0</ele><time>2026-03-29T14:27:56Z</time></trkpt><trkpt lat="40.69997115138204" lon="17.664367084202066"><ele>128.0</ele><time>2026-03-29T14:27:57Z</time></trkpt><trkpt lat="40.700074189234314" lon="17.664261380114677"><ele>127.75</ele><time>2026-03-29T14:27:58Z</time></trkpt><trkpt lat="40.70017416384742" lon="17.6641604446023"><ele>127.5</ele><time>2026-03-29T14:27:59Z</time></trkpt><trkpt lat="40.70027572305112" lon="17.664051314705638"><ele>127.25</ele><time>2026-03-29T14:27:59.999Z</time></trkpt><trkpt lat="40.70038821807192" lon="17.663936068833607"><ele>127.0</ele><time>2026-03-29T14:28:00.999Z</time></trkpt><trkpt lat="40.70050540506404" lon="17.663818988163285"><ele>127.33333333333334</ele><time>2026-03-29T14:28:01.999Z</time></trkpt><trkpt lat="40.70062974322403" lon="17.663694610724836"><ele>127.66666666666666</ele><time>2026-03-29T14:28:02.999Z</time></trkpt><trkpt lat="40.70075293173382" lon="17.663551645573172"><ele>128.0</ele><time>2026-03-29T14:28:03.999Z</time></trkpt><trkpt lat="40.70087181643431" lon="17.663420145822716"><ele>128.0</ele><time>2026-03-29T14:28:04.999Z</time></trkpt><trkpt lat="40.70098391479544" lon="17.663302446945185"><ele>128.0</ele><time>2026-03-29T14:28:05.999Z</time></trkpt><trkpt lat="40.70109259683235" lon="17.663196132107903"><ele>128.0</ele><time>2026-03-29T14:28:06.999Z</time></trkpt><trkpt lat="40.70119146789625" lon="17.6630795623052"><ele>128.0</ele><time>2026-03-29T14:28:07.999Z</time></trkpt><trkpt lat="40.701299650750485" lon="17.662973808895025"><ele>128.0</ele><time>2026-03-29T14:28:08.999Z</time></trkpt><trkpt lat="40.70140166699516" lon="17.662895336234403"><ele>128.0</ele><time>2026-03-29T14:28:09.999Z</time></trkpt><trkpt lat="40.701497165143145" lon="17.66280079287687"><ele>128.0</ele><time>2026-03-29T14:28:10.999Z</time></trkpt><trkpt lat="40.7015874033681" lon="17.66270649856622"><ele>128.0</ele><time>2026-03-29T14:28:11.999Z</time></trkpt><trkpt lat="40.701664973169656" lon="17.66262296203429"><ele>128.20000000000002</ele><time>2026-03-29T14:28:12.999Z</time></trkpt><trkpt lat="40.701738998445585" lon="17.662541041437596"><ele>128.4</ele><time>2026-03-29T14:28:13.999Z</time></trkpt><trkpt lat="40.70182578170512" lon="17.662437043236803"><ele>128.60000000000002</ele><time>2026-03-29T14:28:14.999Z</time></trkpt><trkpt lat="40.70190219095858" lon="17.66232234865147"><ele>128.8</ele><time>2026-03-29T14:28:15.999Z</time></trkpt><trkpt lat="40.701967245422814" lon="17.66222653638566"><ele>129.0</ele><time>2026-03-29T14:28:16.999Z</time></trkpt><trkpt lat="40.702028202212006" lon="17.66216466075875"><ele>129.33333333333334</ele><time>2026-03-29T14:28:17.999Z</time></trkpt><trkpt lat="40.70206639971852" lon="17.662097939196617"><ele>129.66666666666666</ele><time>2026-03-29T14:28:18.999Z</time></trkpt><trkpt lat="40.7021005098868" lon="17.662024453396175"><ele>130.0</ele><time>2026-03-29T14:28:21.999Z</time></trkpt><trkpt lat="40.70214042527888" lon="17.66192612542673"><ele>130.33333333333331</ele><time>2026-03-29T14:28:24.999Z</time></trkpt><trkpt lat="40.70219227842124" lon="17.661825778390696"><ele>130.66666666666666</ele><time>2026-03-29T14:28:27.999Z</time></trkpt><trkpt lat="40.70224214027623" lon="17.66170327515409"><ele>131.0</ele><time>2026-03-29T14:28:30.999Z</time></trkpt><trkpt lat="40.702240221480196" lon="17.661607745737836"><ele>131.14285714285714</ele><time>2026-03-29T14:28:31.999Z</time></trkpt><trkpt lat="40.702263661143924" lon="17.661521113549053"><ele>131.2857142857143</ele><time>2026-03-29T14:28:32.999Z</time></trkpt><trkpt lat="40.70228932669235" lon="17.661444779063963"><ele>131.42857142857144</ele><time>2026-03-29T14:28:33.999Z</time></trkpt><trkpt lat="40.702316929635366" lon="17.66135726307251"><ele>131.57142857142858</ele><time>2026-03-29T14:28:34.999Z</time></trkpt><trkpt lat="40.70235881969469" lon="17.66128298798212"><ele>131.71428571428572</ele><time>2026-03-29T14:28:35.999Z</time></trkpt><trkpt lat="40.7023902959645" lon="17.661189893781717"><ele>131.85714285714286</ele><time>2026-03-29T14:28:37.999Z</time></trkpt><trkpt lat="40.70242770289947" lon="17.66107928368878"><ele>132.0</ele><time>2026-03-29T14:28:39.999Z</time></trkpt><trkpt lat="40.70245472814992" lon="17.660999371626666"><ele>132.33333333333334</ele><time>2026-03-29T14:28:40.999Z</time></trkpt><trkpt lat="40.70248060692197" lon="17.660922849626022"><ele>132.66666666666666</ele><time>2026-03-29T14:28:41.999Z</time></trkpt><trkpt lat="40.70251218823015" lon="17.660829465558802"><ele>133.0</ele><time>2026-03-29T14:28:42.999Z</time></trkpt><trkpt lat="40.70254913583569" lon="17.660716478527686"><ele>133.33333333333331</ele><time>2026-03-29T14:28:44Z</time></trkpt><trkpt lat="40.702577676109385" lon="17.660628709237578"><ele>133.66666666666666</ele><time>2026-03-29T14:28:45Z</time></trkpt><trkpt lat="40.7026144790881" lon="17.660515529862533"><ele>134.0</ele><time>2026-03-29T14:28:46Z</time></trkpt><trkpt lat="40.702649668927954" lon="17.66040637334798"><ele>134.0</ele><time>2026-03-29T14:28:47Z</time></trkpt><trkpt lat="40.70268690252622" lon="17.66028956081198"><ele>134.0</ele><time>2026-03-29T14:28:48Z</time></trkpt><trkpt lat="40.70273647472731" lon="17.660134038522898"><ele>134.0</ele><time>2026-03-29T14:28:49Z</time></trkpt><trkpt lat="40.70278856660477" lon="17.65997259301603"><ele>134.0</ele><time>2026-03-29T14:28:50Z</time></trkpt><trkpt lat="40.702840193344116" lon="17.659813465295816"><ele>135.0</ele><time>2026-03-29T14:28:51Z</time></trkpt><trkpt lat="40.702866602825125" lon="17.659677915732555"><ele>136.0</ele><time>2026-03-29T14:28:52Z</time></trkpt><trkpt lat="40.70290459913978" lon="17.65956852315506"><ele>137.0</ele><time>2026-03-29T14:28:53Z</time></trkpt><trkpt lat="40.70297536674144" lon="17.65944039802118"><ele>138.0</ele><time>2026-03-29T14:28:54Z</time></trkpt><trkpt lat="40.70300939415433" lon="17.659330116708805"><ele>139.0</ele><time>2026-03-29T14:28:55Z</time></trkpt><trkpt lat="40.70303597162118" lon="17.659236193421975"><ele>139.6</ele><time>2026-03-29T14:28:56Z</time></trkpt><trkpt lat="40.703058654163875" lon="17.659123327194052"><ele>140.2</ele><time>2026-03-29T14:28:57Z</time></trkpt><trkpt lat="40.70310354586876" lon="17.658983906821465"><ele>140.79999999999998</ele><time>2026-03-29T14:28:58Z</time></trkpt><trkpt lat="40.703153135026646" lon="17.658851376468235"><ele>141.4</ele><time>2026-03-29T14:28:59Z</time></trkpt><trkpt lat="40.70319874765067" lon="17.658721328320564"><ele>142.0</ele><time>2026-03-29T14:29:00Z</time></trkpt><trkpt lat="40.70324178798578" lon="17.658592143157307"><ele>142.4</ele><time>2026-03-29T14:29:01Z</time></trkpt><trkpt lat="40.70328464255806" lon="17.658452793938945"><ele>142.79999999999998</ele><time>2026-03-29T14:29:02Z</time></trkpt><trkpt lat="40.703321963042725" lon="17.658345023099557"><ele>143.2</ele><time>2026-03-29T14:29:03Z</time></trkpt><trkpt lat="40.70335674445491" lon="17.658244485783765"><ele>143.6</ele><time>2026-03-29T14:29:04Z</time></trkpt><trkpt lat="40.70338852678713" lon="17.658132157858045"><ele>144.0</ele><time>2026-03-29T14:29:05Z</time></trkpt><trkpt lat="40.70343757523228" lon="17.657994490715016"><ele>144.0</ele><time>2026-03-29T14:29:06Z</time></trkpt><trkpt lat="40.70348568972507" lon="17.657844811555318"><ele>144.0</ele><time>2026-03-29T14:29:07Z</time></trkpt><trkpt lat="40.703531928800956" lon="17.657696785857098"><ele>144.0</ele><time>2026-03-29T14:29:08Z</time></trkpt><trkpt lat="40.70358748733049" lon="17.657513995815375"><ele>144.0</ele><time>2026-03-29T14:29:09Z</time></trkpt><trkpt lat="40.703660450763174" lon="17.657332943840615"><ele>145.25</ele><time>2026-03-29T14:29:10Z</time></trkpt><trkpt lat="40.703722098418616" lon="17.6571927130782"><ele>146.5</ele><time>2026-03-29T14:29:11Z</time></trkpt><trkpt lat="40.703744378569425" lon="17.657048014365074"><ele>147.75</ele><time>2026-03-29T14:29:12Z</time></trkpt><trkpt lat="40.70378154601733" lon="17.656893474649916"><ele>149.0</ele><time>2026-03-29T14:29:13Z</time></trkpt><trkpt lat="40.7038420419451" lon="17.656751986828496"><ele>149.25</ele><time>2026-03-29T14:29:14Z</time></trkpt><trkpt lat="40.7038906282661" lon="17.656591510738917"><ele>149.5</ele><time>2026-03-29T14:29:15Z</time></trkpt><trkpt lat="40.70392741676566" lon="17.656456876699707"><ele>149.75</ele><time>2026-03-29T14:29:16Z</time></trkpt><trkpt lat="40.703972007483664" lon="17.65632983989176"><ele>150.0</ele><time>2026-03-29T14:29:17Z</time></trkpt><trkpt lat="40.70403276315851" lon="17.656197739567514"><ele>149.8</ele><time>2026-03-29T14:29:18Z</time></trkpt><trkpt lat="40.70407781252629" lon="17.65605726356472"><ele>149.6</ele><time>2026-03-29T14:29:19Z</time></trkpt><trkpt lat="40.704104773198885" lon="17.65593726363472"><ele>149.4</ele><time>2026-03-29T14:29:20Z</time></trkpt><trkpt lat="40.704143258283814" lon="17.655818154372106"><ele>149.2</ele><time>2026-03-29T14:29:21Z</time></trkpt><trkpt lat="40.70419689115001" lon="17.655688550979452"><ele>149.0</ele><time>2026-03-29T14:29:22Z</time></trkpt><trkpt lat="40.704230004248856" lon="17.655588154115158"><ele>149.0</ele><time>2026-03-29T14:29:23Z</time></trkpt><trkpt lat="40.7042441156574" lon="17.655498811744675"><ele>149.0</ele><time>2026-03-29T14:29:24Z</time></trkpt><trkpt lat="40.70427647756407" lon="17.655395963115662"><ele>149.0</ele><time>2026-03-29T14:29:25Z</time></trkpt><trkpt lat="40.7043221793946" lon="17.655311922614484"><ele>149.0</ele><time>2026-03-29T14:29:26Z</time></trkpt><trkpt lat="40.704333451637225" lon="17.6552252646653"><ele>149.0</ele><time>2026-03-29T14:29:27Z</time></trkpt><trkpt lat="40.70440127556759" lon="17.655074141287418"><ele>149.0</ele><time>2026-03-29T14:29:29Z</time></trkpt><trkpt lat="40.70442873387314" lon="17.654961406174937"><ele>149.0</ele><time>2026-03-29T14:29:30Z</time></trkpt><trkpt lat="40.70446472873776" lon="17.6548727079717"><ele>149.0</ele><time>2026-03-29T14:29:31Z</time></trkpt><trkpt lat="40.70451074062476" lon="17.65471781195095"><ele>149.0</ele><time>2026-03-29T14:29:33Z</time></trkpt><trkpt lat="40.70454073732635" lon="17.654628544730308"><ele>149.0</ele><time>2026-03-29T14:29:34Z</time></trkpt><trkpt lat="40.704581959940136" lon="17.65452236553417"><ele>149.0</ele><time>2026-03-29T14:29:35Z</time></trkpt><trkpt lat="40.7046239867721" lon="17.654402334766495"><ele>149.0</ele><time>2026-03-29T14:29:36Z</time></trkpt><trkpt lat="40.70465924944101" lon="17.654283025416813"><ele>149.0</ele><time>2026-03-29T14:29:37Z</time></trkpt><trkpt lat="40.70469782223274" lon="17.654156810447585"><ele>149.0</ele><time>2026-03-29T14:29:38Z</time></trkpt><trkpt lat="40.70474064834102" lon="17.65404222072666"><ele>149.0</ele><time>2026-03-29T14:29:39Z</time></trkpt><trkpt lat="40.70478921134474" lon="17.653902505864373"><ele>149.0</ele><time>2026-03-29T14:29:40Z</time></trkpt><trkpt lat="40.70483868703048" lon="17.653761625156402"><ele>149.0</ele><time>2026-03-29T14:29:41Z</time></trkpt><trkpt lat="40.70490761248431" lon="17.65364073795322"><ele>149.0</ele><time>2026-03-29T14:29:42Z</time></trkpt><trkpt lat="40.70494648656812" lon="17.653547057746497"><ele>149.0</ele><time>2026-03-29T14:29:43Z</time></trkpt><trkpt lat="40.70502433450491" lon="17.653427384006967"><ele>149.0</ele><time>2026-03-29T14:29:44Z</time></trkpt><trkpt lat="40.7050155710339" lon="17.653294662347317"><ele>149.0</ele><time>2026-03-29T14:29:47Z</time></trkpt><trkpt lat="40.70503679277731" lon="17.653157377985423"><ele>148.5</ele><time>2026-03-29T14:29:49Z</time></trkpt><trkpt lat="40.705088590606046" lon="17.653036269527547"><ele>148.0</ele><time>2026-03-29T14:29:51Z</time></trkpt><trkpt lat="40.70512605216577" lon="17.652920421764353"><ele>147.5</ele><time>2026-03-29T14:29:53Z</time></trkpt><trkpt lat="40.70515772973226" lon="17.652833264041412"><ele>147.0</ele><time>2026-03-29T14:29:54Z</time></trkpt><trkpt lat="40.70520163295669" lon="17.65276012979215"><ele>146.5</ele><time>2026-03-29T14:29:55Z</time></trkpt><trkpt lat="40.705250421952265" lon="17.652700924055782"><ele>146.0</ele><time>2026-03-29T14:29:56Z</time></trkpt><trkpt lat="40.705295917387986" lon="17.652520425422704"><ele>145.4</ele><time>2026-03-29T14:29:57.999Z</time></trkpt><trkpt lat="40.70533659727571" lon="17.652456506333717"><ele>144.8</ele><time>2026-03-29T14:29:58.999Z</time></trkpt><trkpt lat="40.70538790172035" lon="17.652374698572284"><ele>144.20000000000002</ele><time>2026-03-29T14:29:59.999Z</time></trkpt><trkpt lat="40.70537495638458" lon="17.652212833994806"><ele>143.6</ele><time>2026-03-29T14:30:00.999Z</time></trkpt><trkpt lat="40.7053756072238" lon="17.652036210900995"><ele>143.0</ele><time>2026-03-29T14:30:01.999Z</time></trkpt><trkpt lat="40.70543383482464" lon="17.65179245808326"><ele>142.66666666666666</ele><time>2026-03-29T14:30:02.999Z</time></trkpt><trkpt lat="40.70550974110644" lon="17.651650241943376"><ele>142.33333333333334</ele><time>2026-03-29T14:30:03.999Z</time></trkpt><trkpt lat="40.70559949579284" lon="17.651406747886234"><ele>142.0</ele><time>2026-03-29T14:30:04.999Z</time></trkpt><trkpt lat="40.70570862110988" lon="17.65116200475486"><ele>141.33333333333334</ele><time>2026-03-29T14:30:05.999Z</time></trkpt><trkpt lat="40.70579687881839" lon="17.650900072728653"><ele>140.66666666666666</ele><time>2026-03-29T14:30:06.999Z</time></trkpt><trkpt lat="40.70587281221921" lon="17.65062021502936"><ele>140.0</ele><time>2026-03-29T14:30:07.999Z</time></trkpt><trkpt lat="40.70596803885473" lon="17.6503555099583"><ele>140.0</ele><time>2026-03-29T14:30:08.999Z</time></trkpt><trkpt lat="40.70606068799417" lon="17.650065200856044"><ele>140.0</ele><time>2026-03-29T14:30:09.999Z</time></trkpt><trkpt lat="40.70614758822081" lon="17.649809204123887"><ele>140.0</ele><time>2026-03-29T14:30:10.999Z</time></trkpt><trkpt lat="40.70622814784757" lon="17.649580156363307"><ele>140.0</ele><time>2026-03-29T14:30:11.999Z</time></trkpt><trkpt lat="40.70630504719348" lon="17.649353271365698"><ele>140.0</ele><time>2026-03-29T14:30:12.999Z</time></trkpt><trkpt lat="40.706382703197455" lon="17.6491277834252"><ele>141.0</ele><time>2026-03-29T14:30:13.999Z</time></trkpt><trkpt lat="40.70645961782607" lon="17.648884053427825"><ele>142.0</ele><time>2026-03-29T14:30:14.999Z</time></trkpt><trkpt lat="40.70654477596643" lon="17.648623707705806"><ele>143.0</ele><time>2026-03-29T14:30:15.999Z</time></trkpt><trkpt lat="40.70664380126322" lon="17.64835939195607"><ele>143.33333333333331</ele><time>2026-03-29T14:30:16.999Z</time></trkpt><trkpt lat="40.70673492495403" lon="17.64808685586839"><ele>143.66666666666666</ele><time>2026-03-29T14:30:17.999Z</time></trkpt><trkpt lat="40.706815951437264" lon="17.647843125391976"><ele>144.0</ele><time>2026-03-29T14:30:18.999Z</time></trkpt><trkpt lat="40.70688408743923" lon="17.647638119802"><ele>144.25</ele><time>2026-03-29T14:30:19.999Z</time></trkpt><trkpt lat="40.70694894810007" lon="17.647447494643462"><ele>144.5</ele><time>2026-03-29T14:30:20.999Z</time></trkpt><trkpt lat="40.7070008243585" lon="17.64728962222847"><ele>144.75</ele><time>2026-03-29T14:30:21.999Z</time></trkpt><trkpt lat="40.70704037052242" lon="17.64717055324231"><ele>145.0</ele><time>2026-03-29T14:30:22.999Z</time></trkpt><trkpt lat="40.707080572598535" lon="17.647049509343486"><ele>145.25</ele><time>2026-03-29T14:30:23.999Z</time></trkpt><trkpt lat="40.70712090154334" lon="17.64689893257919"><ele>145.5</ele><time>2026-03-29T14:30:24.999Z</time></trkpt><trkpt lat="40.7071795933801" lon="17.64672461652662"><ele>145.75</ele><time>2026-03-29T14:30:25.999Z</time></trkpt><trkpt lat="40.707242892176055" lon="17.646540146954326"><ele>146.0</ele><time>2026-03-29T14:30:26.999Z</time></trkpt><trkpt lat="40.707309337580796" lon="17.646345933204394"><ele>146.0</ele><time>2026-03-29T14:30:27.999Z</time></trkpt><trkpt lat="40.7073742319596" lon="17.646136992480375"><ele>146.0</ele><time>2026-03-29T14:30:28.999Z</time></trkpt><trkpt lat="40.70745070936159" lon="17.645912802870452"><ele>146.0</ele><time>2026-03-29T14:30:29.999Z</time></trkpt><trkpt lat="40.70752143934632" lon="17.645712078661305"><ele>146.0</ele><time>2026-03-29T14:30:30.999Z</time></trkpt><trkpt lat="40.70759827752812" lon="17.645479752279776"><ele>146.0</ele><time>2026-03-29T14:30:31.999Z</time></trkpt><trkpt lat="40.70769482060637" lon="17.645197935522813"><ele>146.0</ele><time>2026-03-29T14:30:32.999Z</time></trkpt><trkpt lat="40.707804409275155" lon="17.644851819337767"><ele>146.0</ele><time>2026-03-29T14:30:33.999Z</time></trkpt><trkpt lat="40.70793948074677" lon="17.64446533266199"><ele>146.0</ele><time>2026-03-29T14:30:34.999Z</time></trkpt><trkpt lat="40.70808140614834" lon="17.64406781153163"><ele>146.0</ele><time>2026-03-29T14:30:35.999Z</time></trkpt><trkpt lat="40.70822626308365" lon="17.643646030402824"><ele>146.0</ele><time>2026-03-29T14:30:36.999Z</time></trkpt><trkpt lat="40.708377509328244" lon="17.643198540371014"><ele>147.0</ele><time>2026-03-29T14:30:37.999Z</time></trkpt><trkpt lat="40.70853914809779" lon="17.6427252617355"><ele>148.0</ele><time>2026-03-29T14:30:38.999Z</time></trkpt><trkpt lat="40.70870220325065" lon="17.642220117522015"><ele>149.0</ele><time>2026-03-29T14:30:39.999Z</time></trkpt><trkpt lat="40.708869680700026" lon="17.641710632659535"><ele>150.0</ele><time>2026-03-29T14:30:40.999Z</time></trkpt><trkpt lat="40.70904294438001" lon="17.641196704228857"><ele>150.5</ele><time>2026-03-29T14:30:41.999Z</time></trkpt><trkpt lat="40.709209033908216" lon="17.64072106162572"><ele>151.0</ele><time>2026-03-29T14:30:42.999Z</time></trkpt><trkpt lat="40.70936908749349" lon="17.640239017543266"><ele>150.5</ele><time>2026-03-29T14:30:43.999Z</time></trkpt><trkpt lat="40.709538606781734" lon="17.639722301817887"><ele>150.0</ele><time>2026-03-29T14:30:44.999Z</time></trkpt><trkpt lat="40.709719677946254" lon="17.63918657581831"><ele>147.0</ele><time>2026-03-29T14:30:45.999Z</time></trkpt><trkpt lat="40.70990036029927" lon="17.63864104012554"><ele>148.0</ele><time>2026-03-29T14:30:46.999Z</time></trkpt><trkpt lat="40.71010031773333" lon="17.638124560108636"><ele>149.0</ele><time>2026-03-29T14:30:47.999Z</time></trkpt><trkpt lat="40.71021669986713" lon="17.637723047926468"><ele>150.0</ele><time>2026-03-29T14:30:48.999Z</time></trkpt><trkpt lat="40.710333318024496" lon="17.637324985974704"><ele>151.0</ele><time>2026-03-29T14:30:50Z</time></trkpt><trkpt lat="40.710445704568386" lon="17.636957685576352"><ele>151.0</ele><time>2026-03-29T14:30:51Z</time></trkpt><trkpt lat="40.71056826310446" lon="17.63660881573539"><ele>151.0</ele><time>2026-03-29T14:30:52Z</time></trkpt><trkpt lat="40.710669592904324" lon="17.636297303668748"><ele>151.0</ele><time>2026-03-29T14:30:53Z</time></trkpt><trkpt lat="40.710774497569666" lon="17.636010380240503"><ele>151.0</ele><time>2026-03-29T14:30:54Z</time></trkpt><trkpt lat="40.710880772249034" lon="17.63572939808761"><ele>151.0</ele><time>2026-03-29T14:30:55Z</time></trkpt><trkpt lat="40.7110078911235" lon="17.635413582781492"><ele>151.0</ele><time>2026-03-29T14:30:56Z</time></trkpt><trkpt lat="40.71112150336798" lon="17.635105740588216"><ele>151.5</ele><time>2026-03-29T14:30:57Z</time></trkpt><trkpt lat="40.71120665139124" lon="17.634753283164326"><ele>152.0</ele><time>2026-03-29T14:30:58Z</time></trkpt><trkpt lat="40.71131452699328" lon="17.634402509491398"><ele>152.5</ele><time>2026-03-29T14:30:59Z</time></trkpt><trkpt lat="40.71142275559982" lon="17.63405401838927"><ele>153.0</ele><time>2026-03-29T14:31:00Z</time></trkpt><trkpt lat="40.71153566534044" lon="17.63371628705163"><ele>153.5</ele><time>2026-03-29T14:31:01Z</time></trkpt><trkpt lat="40.711670730953216" lon="17.633336347264894"><ele>154.0</ele><time>2026-03-29T14:31:02Z</time></trkpt><trkpt lat="40.71183533789046" lon="17.63300482333008"><ele>153.5</ele><time>2026-03-29T14:31:03Z</time></trkpt><trkpt lat="40.71191655334245" lon="17.632640853523906"><ele>153.0</ele><time>2026-03-29T14:31:04Z</time></trkpt><trkpt lat="40.71200403599695" lon="17.63230638688865"><ele>153.0</ele><time>2026-03-29T14:31:05Z</time></trkpt><trkpt lat="40.7121132040798" lon="17.631990991819624"><ele>153.0</ele><time>2026-03-29T14:31:06Z</time></trkpt><trkpt lat="40.71221675433863" lon="17.63169330850524"><ele>153.0</ele><time>2026-03-29T14:31:07Z</time></trkpt><trkpt lat="40.7123138578136" lon="17.6314115532043"><ele>153.0</ele><time>2026-03-29T14:31:08Z</time></trkpt><trkpt lat="40.7124009324334" lon="17.63115114718682"><ele>153.0</ele><time>2026-03-29T14:31:09Z</time></trkpt><trkpt lat="40.71249486990631" lon="17.63087545562088"><ele>153.0</ele><time>2026-03-29T14:31:10Z</time></trkpt><trkpt lat="40.712574660545265" lon="17.630635810217818"><ele>153.0</ele><time>2026-03-29T14:31:11Z</time></trkpt><trkpt lat="40.7126636669771" lon="17.630373189905683"><ele>154.0</ele><time>2026-03-29T14:31:12Z</time></trkpt><trkpt lat="40.712759383674694" lon="17.630088769772676"><ele>155.0</ele><time>2026-03-29T14:31:13Z</time></trkpt><trkpt lat="40.71285030064435" lon="17.629807216211113"><ele>155.0</ele><time>2026-03-29T14:31:14Z</time></trkpt><trkpt lat="40.7129485717134" lon="17.629517875911823"><ele>155.0</ele><time>2026-03-29T14:31:15Z</time></trkpt><trkpt lat="40.71305475247179" lon="17.629195154579218"><ele>155.0</ele><time>2026-03-29T14:31:16Z</time></trkpt><trkpt lat="40.71315611746857" lon="17.628892187021677"><ele>155.0</ele><time>2026-03-29T14:31:17Z</time></trkpt><trkpt lat="40.71326202230647" lon="17.62852198057883"><ele>155.0</ele><time>2026-03-29T14:31:18Z</time></trkpt><trkpt lat="40.71337978306703" lon="17.628191576639896"><ele>155.0</ele><time>2026-03-29T14:31:19Z</time></trkpt><trkpt lat="40.71349737844898" lon="17.627858012397812"><ele>155.5</ele><time>2026-03-29T14:31:20Z</time></trkpt><trkpt lat="40.713616109791396" lon="17.62750269510532"><ele>156.0</ele><time>2026-03-29T14:31:21Z</time></trkpt><trkpt lat="40.71373851751323" lon="17.627145042080905"><ele>154.5</ele><time>2026-03-29T14:31:22Z</time></trkpt><trkpt lat="40.713852003045176" lon="17.626795856215697"><ele>153.0</ele><time>2026-03-29T14:31:23Z</time></trkpt><trkpt lat="40.71396647497177" lon="17.62644764490479"><ele>154.0</ele><time>2026-03-29T14:31:24Z</time></trkpt><trkpt lat="40.71407680390956" lon="17.626108904447516"><ele>155.0</ele><time>2026-03-29T14:31:25Z</time></trkpt><trkpt lat="40.71418620054711" lon="17.62577759023057"><ele>155.0</ele><time>2026-03-29T14:31:26Z</time></trkpt><trkpt lat="40.71428937744746" lon="17.625463949302922"><ele>155.0</ele><time>2026-03-29T14:31:27Z</time></trkpt><trkpt lat="40.71439204032297" lon="17.62516773728731"><ele>156.0</ele><time>2026-03-29T14:31:28Z</time></trkpt><trkpt lat="40.714490218081835" lon="17.624874992291645"><ele>157.0</ele><time>2026-03-29T14:31:29Z</time></trkpt><trkpt lat="40.71458142663306" lon="17.624609855930007"><ele>157.66666666666669</ele><time>2026-03-29T14:31:30Z</time></trkpt><trkpt lat="40.71465987919936" lon="17.62434857941363"><ele>158.33333333333334</ele><time>2026-03-29T14:31:31Z</time></trkpt><trkpt lat="40.71473167810341" lon="17.624114825980378"><ele>159.0</ele><time>2026-03-29T14:31:32Z</time></trkpt><trkpt lat="40.7147998755613" lon="17.62388514079351"><ele>159.0</ele><time>2026-03-29T14:31:33Z</time></trkpt><trkpt lat="40.7148629686867" lon="17.623718251983806"><ele>159.0</ele><time>2026-03-29T14:31:34Z</time></trkpt><trkpt lat="40.71492330297285" lon="17.62353288700021"><ele>159.0</ele><time>2026-03-29T14:31:35Z</time></trkpt><trkpt lat="40.714981394715494" lon="17.623352226065236"><ele>159.0</ele><time>2026-03-29T14:31:36Z</time></trkpt><trkpt lat="40.71503026770216" lon="17.623192548119086"><ele>159.25</ele><time>2026-03-29T14:31:37Z</time></trkpt><trkpt lat="40.71508825543976" lon="17.623030968432367"><ele>159.5</ele><time>2026-03-29T14:31:38Z</time></trkpt><trkpt lat="40.71514482473594" lon="17.622857580717508"><ele>159.75</ele><time>2026-03-29T14:31:39Z</time></trkpt><trkpt lat="40.715195156869676" lon="17.622694600740203"><ele>160.0</ele><time>2026-03-29T14:31:40Z</time></trkpt><trkpt lat="40.71524970564435" lon="17.622531084232314"><ele>160.0</ele><time>2026-03-29T14:31:41Z</time></trkpt><trkpt lat="40.7153055545541" lon="17.622365143526544"><ele>160.0</ele><time>2026-03-29T14:31:42Z</time></trkpt><trkpt lat="40.71536835543101" lon="17.622165821387224"><ele>160.0</ele><time>2026-03-29T14:31:43Z</time></trkpt><trkpt lat="40.715442708591816" lon="17.62195778020903"><ele>160.0</ele><time>2026-03-29T14:31:44Z</time></trkpt><trkpt lat="40.71552387795725" lon="17.6217165792607"><ele>160.0</ele><time>2026-03-29T14:31:45Z</time></trkpt><trkpt lat="40.715609956162936" lon="17.621464665140223"><ele>160.0</ele><time>2026-03-29T14:31:45.999Z</time></trkpt><trkpt lat="40.715689578324245" lon="17.621240043142254"><ele>160.33333333333334</ele><time>2026-03-29T14:31:46.999Z</time></trkpt><trkpt lat="40.71576654991053" lon="17.621015684647137"><ele>160.66666666666666</ele><time>2026-03-29T14:31:47.999Z</time></trkpt><trkpt lat="40.715842865397484" lon="17.620769181850395"><ele>161.0</ele><time>2026-03-29T14:31:48.999Z</time></trkpt><trkpt lat="40.71592929183255" lon="17.620506664411387"><ele>161.66666666666666</ele><time>2026-03-29T14:31:49.999Z</time></trkpt><trkpt lat="40.71600698095993" lon="17.62027753210346"><ele>162.33333333333334</ele><time>2026-03-29T14:31:50.999Z</time></trkpt><trkpt lat="40.71607668151951" lon="17.620065705869806"><ele>163.0</ele><time>2026-03-29T14:31:51.999Z</time></trkpt><trkpt lat="40.71615567084722" lon="17.619820671026172"><ele>163.0</ele><time>2026-03-29T14:31:52.999Z</time></trkpt><trkpt lat="40.716260059066606" lon="17.619530023999566"><ele>163.0</ele><time>2026-03-29T14:31:53.999Z</time></trkpt><trkpt lat="40.71636534796669" lon="17.61924074464569"><ele>164.5</ele><time>2026-03-29T14:31:54.999Z</time></trkpt><trkpt lat="40.71647868081184" lon="17.618921869270633"><ele>166.0</ele><time>2026-03-29T14:31:55.999Z</time></trkpt><trkpt lat="40.71658498044646" lon="17.618570029206868"><ele>166.0</ele><time>2026-03-29T14:31:56.999Z</time></trkpt><trkpt lat="40.716693724517654" lon="17.618219037000518"><ele>166.0</ele><time>2026-03-29T14:31:57.999Z</time></trkpt><trkpt lat="40.71680991637113" lon="17.617862878250193"><ele>168.5</ele><time>2026-03-29T14:31:58.999Z</time></trkpt><trkpt lat="40.716925281710886" lon="17.617490903682175"><ele>171.0</ele><time>2026-03-29T14:31:59.999Z</time></trkpt><trkpt lat="40.717056015619555" lon="17.61719365700357"><ele>171.5</ele><time>2026-03-29T14:32:00.999Z</time></trkpt><trkpt lat="40.71717621758066" lon="17.616833261062784"><ele>172.0</ele><time>2026-03-29T14:32:01.999Z</time></trkpt><trkpt lat="40.71729344997697" lon="17.616481189849846"><ele>171.0</ele><time>2026-03-29T14:32:02.999Z</time></trkpt><trkpt lat="40.717400665752145" lon="17.616150466017984"><ele>170.0</ele><time>2026-03-29T14:32:03.999Z</time></trkpt><trkpt lat="40.71750230461719" lon="17.615828596418428"><ele>170.0</ele><time>2026-03-29T14:32:04.999Z</time></trkpt><trkpt lat="40.71760815663834" lon="17.61550670307042"><ele>170.0</ele><time>2026-03-29T14:32:05.999Z</time></trkpt><trkpt lat="40.71770635956584" lon="17.61518663570335"><ele>170.5</ele><time>2026-03-29T14:32:06.999Z</time></trkpt><trkpt lat="40.71780359295295" lon="17.614868738081007"><ele>171.0</ele><time>2026-03-29T14:32:07.999Z</time></trkpt><trkpt lat="40.71790332476808" lon="17.614532807253855"><ele>173.0</ele><time>2026-03-29T14:32:08.999Z</time></trkpt><trkpt lat="40.717994056812444" lon="17.614224400461456"><ele>175.0</ele><time>2026-03-29T14:32:09.999Z</time></trkpt><trkpt lat="40.71812725764091" lon="17.613933237948753"><ele>175.0</ele><time>2026-03-29T14:32:10.999Z</time></trkpt><trkpt lat="40.718227540883404" lon="17.61363055425039"><ele>175.0</ele><time>2026-03-29T14:32:11.999Z</time></trkpt><trkpt lat="40.71832244886641" lon="17.613345808579925"><ele>175.0</ele><time>2026-03-29T14:32:12.999Z</time></trkpt><trkpt lat="40.71843701168159" lon="17.613002580193104"><ele>175.0</ele><time>2026-03-29T14:32:13.999Z</time></trkpt><trkpt lat="40.718539489359074" lon="17.612695076292333"><ele>175.0</ele><time>2026-03-29T14:32:14.999Z</time></trkpt><trkpt lat="40.71864462395178" lon="17.612379324263017"><ele>175.0</ele><time>2026-03-29T14:32:15.999Z</time></trkpt><trkpt lat="40.718748569971154" lon="17.61206714190261"><ele>175.0</ele><time>2026-03-29T14:32:16.999Z</time></trkpt><trkpt lat="40.718850686918636" lon="17.611760802541394"><ele>175.0</ele><time>2026-03-29T14:32:17.999Z</time></trkpt><trkpt lat="40.71895108710032" lon="17.61145973680212"><ele>175.0</ele><time>2026-03-29T14:32:18.999Z</time></trkpt><trkpt lat="40.719051485645295" lon="17.611158675972714"><ele>175.0</ele><time>2026-03-29T14:32:19.999Z</time></trkpt><trkpt lat="40.71915343767365" lon="17.61085291776637"><ele>175.0</ele><time>2026-03-29T14:32:20.999Z</time></trkpt><trkpt lat="40.71925804874873" lon="17.61053809502951"><ele>175.0</ele><time>2026-03-29T14:32:21.999Z</time></trkpt><trkpt lat="40.71936045548382" lon="17.610229906087678"><ele>176.5</ele><time>2026-03-29T14:32:22.999Z</time></trkpt><trkpt lat="40.719464625813195" lon="17.60991679928362"><ele>178.0</ele><time>2026-03-29T14:32:23.999Z</time></trkpt><trkpt lat="40.71955152162739" lon="17.609602125074186"><ele>178.0</ele><time>2026-03-29T14:32:24.999Z</time></trkpt><trkpt lat="40.71965947724067" lon="17.60928942511335"><ele>178.0</ele><time>2026-03-29T14:32:25.999Z</time></trkpt><trkpt lat="40.719776151259644" lon="17.608966827075292"><ele>178.5</ele><time>2026-03-29T14:32:26.999Z</time></trkpt><trkpt lat="40.719883182907886" lon="17.608644113288875"><ele>179.0</ele><time>2026-03-29T14:32:27.999Z</time></trkpt><trkpt lat="40.719983933256714" lon="17.608331006551563"><ele>179.0</ele><time>2026-03-29T14:32:28.999Z</time></trkpt><trkpt lat="40.72007959947223" lon="17.608043045910907"><ele>179.0</ele><time>2026-03-29T14:32:29.999Z</time></trkpt><trkpt lat="40.720184850798205" lon="17.607740323439092"><ele>181.0</ele><time>2026-03-29T14:32:30.999Z</time></trkpt><trkpt lat="40.72028046541884" lon="17.607451447348026"><ele>183.0</ele><time>2026-03-29T14:32:31.999Z</time></trkpt><trkpt lat="40.72036179560057" lon="17.607193462067844"><ele>183.0</ele><time>2026-03-29T14:32:32.999Z</time></trkpt><trkpt lat="40.72043549246771" lon="17.60696093772643"><ele>183.0</ele><time>2026-03-29T14:32:33.999Z</time></trkpt><trkpt lat="40.720508146501665" lon="17.606750685034445"><ele>183.0</ele><time>2026-03-29T14:32:34.999Z</time></trkpt><trkpt lat="40.7205816067999" lon="17.606546153031488"><ele>183.0</ele><time>2026-03-29T14:32:35.999Z</time></trkpt><trkpt lat="40.720654439543004" lon="17.606354375339972"><ele>183.0</ele><time>2026-03-29T14:32:36.999Z</time></trkpt><trkpt lat="40.72071598022594" lon="17.60615426006344"><ele>183.0</ele><time>2026-03-29T14:32:37.999Z</time></trkpt><trkpt lat="40.72078499476475" lon="17.605939630654856"><ele>182.33333333333334</ele><time>2026-03-29T14:32:38.999Z</time></trkpt><trkpt lat="40.72085743006673" lon="17.605725688421696"><ele>181.66666666666669</ele><time>2026-03-29T14:32:39.999Z</time></trkpt><trkpt lat="40.72092396430497" lon="17.60553336351959"><ele>181.0</ele><time>2026-03-29T14:32:40.999Z</time></trkpt><trkpt lat="40.72099151655868" lon="17.605340775656487"><ele>181.0</ele><time>2026-03-29T14:32:41.999Z</time></trkpt><trkpt lat="40.721050316025185" lon="17.605167009379382"><ele>181.0</ele><time>2026-03-29T14:32:42.999Z</time></trkpt><trkpt lat="40.72110032626528" lon="17.60500486849822"><ele>181.0</ele><time>2026-03-29T14:32:43.999Z</time></trkpt><trkpt lat="40.72115104499006" lon="17.60483989232049"><ele>181.0</ele><time>2026-03-29T14:32:44.999Z</time></trkpt><trkpt lat="40.7212154299554" lon="17.604705760246173"><ele>181.4</ele><time>2026-03-29T14:32:45.999Z</time></trkpt><trkpt lat="40.72126781035394" lon="17.60455222054187"><ele>181.8</ele><time>2026-03-29T14:32:46.999Z</time></trkpt><trkpt lat="40.72129794712861" lon="17.604466296207075"><ele>182.20000000000002</ele><time>2026-03-29T14:32:47.999Z</time></trkpt><trkpt lat="40.72133754718558" lon="17.604318132024165"><ele>182.60000000000002</ele><time>2026-03-29T14:32:48.999Z</time></trkpt><trkpt lat="40.721378263895396" lon="17.604207391443712"><ele>183.0</ele><time>2026-03-29T14:32:49.999Z</time></trkpt><trkpt lat="40.72141893329314" lon="17.604103595876364"><ele>183.16666666666666</ele><time>2026-03-29T14:32:50.999Z</time></trkpt><trkpt lat="40.7214554570384" lon="17.604031550454785"><ele>183.33333333333334</ele><time>2026-03-29T14:32:51.999Z</time></trkpt><trkpt lat="40.721535037301074" lon="17.60394561524828"><ele>183.5</ele><time>2026-03-29T14:32:52.999Z</time></trkpt><trkpt lat="40.72159942223813" lon="17.603884145137787"><ele>183.66666666666669</ele><time>2026-03-29T14:32:53.999Z</time></trkpt><trkpt lat="40.721642346740694" lon="17.60381083018386"><ele>183.83333333333334</ele><time>2026-03-29T14:32:54.999Z</time></trkpt><trkpt lat="40.72166214737294" lon="17.603726729232385"><ele>184.0</ele><time>2026-03-29T14:32:56Z</time></trkpt><trkpt lat="40.72164376377889" lon="17.603643038148306"><ele>184.25</ele><time>2026-03-29T14:32:57Z</time></trkpt><trkpt lat="40.7216675613034" lon="17.60351046171935"><ele>184.5</ele><time>2026-03-29T14:32:58Z</time></trkpt><trkpt lat="40.72166330176309" lon="17.603363521145354"><ele>184.75</ele><time>2026-03-29T14:32:59Z</time></trkpt><trkpt lat="40.72168673578271" lon="17.603223808764017"><ele>185.0</ele><time>2026-03-29T14:33:00Z</time></trkpt><trkpt lat="40.72175211407236" lon="17.603073798325"><ele>185.0</ele><time>2026-03-29T14:33:01Z</time></trkpt><trkpt lat="40.72181359922752" lon="17.602890970893352"><ele>185.0</ele><time>2026-03-29T14:33:02Z</time></trkpt><trkpt lat="40.721875446821436" lon="17.6027006070071"><ele>185.0</ele><time>2026-03-29T14:33:03Z</time></trkpt><trkpt lat="40.72194237171754" lon="17.602495766103498"><ele>185.33333333333331</ele><time>2026-03-29T14:33:04Z</time></trkpt><trkpt lat="40.72200822949861" lon="17.602297338897426"><ele>185.66666666666666</ele><time>2026-03-29T14:33:05Z</time></trkpt><trkpt lat="40.72207855656698" lon="17.602089023505926"><ele>186.0</ele><time>2026-03-29T14:33:06Z</time></trkpt><trkpt lat="40.722158618732294" lon="17.60186655911702"><ele>186.33333333333334</ele><time>2026-03-29T14:33:07Z</time></trkpt><trkpt lat="40.72223379282656" lon="17.601642139300406"><ele>186.66666666666669</ele><time>2026-03-29T14:33:08Z</time></trkpt><trkpt lat="40.72229871535134" lon="17.60142415671064"><ele>187.0</ele><time>2026-03-29T14:33:09Z</time></trkpt><trkpt lat="40.72237058077586" lon="17.601191509022332"><ele>188.0</ele><time>2026-03-29T14:33:10Z</time></trkpt><trkpt lat="40.7224354674363" lon="17.600989294340113"><ele>189.0</ele><time>2026-03-29T14:33:11Z</time></trkpt><trkpt lat="40.722510998800416" lon="17.600780857801205"><ele>190.0</ele><time>2026-03-29T14:33:12Z</time></trkpt><trkpt lat="40.72257883935554" lon="17.600570182696973"><ele>190.0</ele><time>2026-03-29T14:33:13Z</time></trkpt><trkpt lat="40.72265318723282" lon="17.60036042107235"><ele>190.0</ele><time>2026-03-29T14:33:14Z</time></trkpt><trkpt lat="40.72272142540716" lon="17.600165942660336"><ele>190.0</ele><time>2026-03-29T14:33:15Z</time></trkpt><trkpt lat="40.722794994138184" lon="17.599959391466754"><ele>191.0</ele><time>2026-03-29T14:33:16Z</time></trkpt><trkpt lat="40.72286407206244" lon="17.599761417644658"><ele>192.0</ele><time>2026-03-29T14:33:17Z</time></trkpt><trkpt lat="40.72293086957773" lon="17.599564857595933"><ele>193.0</ele><time>2026-03-29T14:33:18Z</time></trkpt><trkpt lat="40.72297986227118" lon="17.599380227677305"><ele>193.5</ele><time>2026-03-29T14:33:19Z</time></trkpt><trkpt lat="40.72303091524807" lon="17.599235988625527"><ele>194.0</ele><time>2026-03-29T14:33:20Z</time></trkpt><trkpt lat="40.723077947395396" lon="17.599094316759352"><ele>194.5</ele><time>2026-03-29T14:33:21Z</time></trkpt><trkpt lat="40.723128978069376" lon="17.598940883064667"><ele>195.0</ele><time>2026-03-29T14:33:22Z</time></trkpt><trkpt lat="40.72319220999428" lon="17.598771276687383"><ele>196.66666666666669</ele><time>2026-03-29T14:33:23Z</time></trkpt><trkpt lat="40.72324570782108" lon="17.59857512526471"><ele>198.33333333333334</ele><time>2026-03-29T14:33:24Z</time></trkpt><trkpt lat="40.72331598698981" lon="17.5983613207899"><ele>200.0</ele><time>2026-03-29T14:33:25Z</time></trkpt><trkpt lat="40.72338100541533" lon="17.59818373888243"><ele>200.0</ele><time>2026-03-29T14:33:26Z</time></trkpt><trkpt lat="40.72344129182222" lon="17.597999473360773"><ele>200.0</ele><time>2026-03-29T14:33:27Z</time></trkpt><trkpt lat="40.723501303619685" lon="17.59781609487447"><ele>200.0</ele><time>2026-03-29T14:33:28Z</time></trkpt><trkpt lat="40.72355997015309" lon="17.597632959074748"><ele>200.5</ele><time>2026-03-29T14:33:29Z</time></trkpt><trkpt lat="40.72361521009189" lon="17.59745582370002"><ele>201.0</ele><time>2026-03-29T14:33:30Z</time></trkpt><trkpt lat="40.723675299867544" lon="17.597276843725126"><ele>201.5</ele><time>2026-03-29T14:33:31Z</time></trkpt><trkpt lat="40.72372883130929" lon="17.597105103784227"><ele>202.0</ele><time>2026-03-29T14:33:32Z</time></trkpt><trkpt lat="40.723788234372456" lon="17.596930277810205"><ele>202.0</ele><time>2026-03-29T14:33:33Z</time></trkpt><trkpt lat="40.72385512119217" lon="17.59673860616864"><ele>202.0</ele><time>2026-03-29T14:33:34Z</time></trkpt><trkpt lat="40.72391333412306" lon="17.596560319330223"><ele>202.0</ele><time>2026-03-29T14:33:35Z</time></trkpt><trkpt lat="40.72397249157728" lon="17.596376268246882"><ele>202.0</ele><time>2026-03-29T14:33:36Z</time></trkpt><trkpt lat="40.72402860613801" lon="17.59620342256635"><ele>202.0</ele><time>2026-03-29T14:33:37Z</time></trkpt><trkpt lat="40.7240972188771" lon="17.59605052143694"><ele>202.0</ele><time>2026-03-29T14:33:38Z</time></trkpt><trkpt lat="40.72415161562827" lon="17.595886959409032"><ele>202.0</ele><time>2026-03-29T14:33:39Z</time></trkpt><trkpt lat="40.724199315809265" lon="17.595743343446873"><ele>202.75</ele><time>2026-03-29T14:33:40Z</time></trkpt><trkpt lat="40.72424091462606" lon="17.595615336822682"><ele>203.5</ele><time>2026-03-29T14:33:41Z</time></trkpt><trkpt lat="40.72428703219689" lon="17.595476283797264"><ele>204.25</ele><time>2026-03-29T14:33:42Z</time></trkpt><trkpt lat="40.724336101355945" lon="17.59532862382829"><ele>205.0</ele><time>2026-03-29T14:33:43Z</time></trkpt><trkpt lat="40.72438475928031" lon="17.595182201362615"><ele>205.5</ele><time>2026-03-29T14:33:44Z</time></trkpt><trkpt lat="40.724432021491104" lon="17.59503997891073"><ele>206.0</ele><time>2026-03-29T14:33:45Z</time></trkpt><trkpt lat="40.72448005328423" lon="17.594894889808646"><ele>206.5</ele><time>2026-03-29T14:33:46Z</time></trkpt><trkpt lat="40.72452622298461" lon="17.594755307569454"><ele>207.0</ele><time>2026-03-29T14:33:47Z</time></trkpt><trkpt lat="40.72457169227187" lon="17.594617842840385"><ele>207.0</ele><time>2026-03-29T14:33:48Z</time></trkpt><trkpt lat="40.724636914823414" lon="17.59448703566844"><ele>207.0</ele><time>2026-03-29T14:33:49Z</time></trkpt><trkpt lat="40.72465219898086" lon="17.59437039478903"><ele>207.0</ele><time>2026-03-29T14:33:50Z</time></trkpt><trkpt lat="40.72469209107329" lon="17.5942246728477"><ele>207.0</ele><time>2026-03-29T14:33:51Z</time></trkpt><trkpt lat="40.72472905976372" lon="17.594081510374124"><ele>207.0</ele><time>2026-03-29T14:33:52Z</time></trkpt><trkpt lat="40.72478855664049" lon="17.593968763915118"><ele>207.0</ele><time>2026-03-29T14:33:53Z</time></trkpt><trkpt lat="40.72484341074614" lon="17.59381891114155"><ele>207.0</ele><time>2026-03-29T14:33:54Z</time></trkpt><trkpt lat="40.7248408096103" lon="17.593701137731152"><ele>207.0</ele><time>2026-03-29T14:33:55Z</time></trkpt><trkpt lat="40.724811984823276" lon="17.593589411973845"><ele>207.0</ele><time>2026-03-29T14:33:56Z</time></trkpt><trkpt lat="40.72479085456765" lon="17.593463357432345"><ele>207.0</ele><time>2026-03-29T14:33:57Z</time></trkpt><trkpt lat="40.724761003907204" lon="17.593303329633535"><ele>206.66666666666669</ele><time>2026-03-29T14:33:58Z</time></trkpt><trkpt lat="40.72472296820006" lon="17.593123668388703"><ele>206.33333333333334</ele><time>2026-03-29T14:33:59Z</time></trkpt><trkpt lat="40.72464183483206" lon="17.592889390339312"><ele>206.0</ele><time>2026-03-29T14:34:00Z</time></trkpt><trkpt lat="40.72458104350148" lon="17.59266809866293"><ele>204.75</ele><time>2026-03-29T14:34:01Z</time></trkpt><trkpt lat="40.72451963980225" lon="17.59251068023845"><ele>203.5</ele><time>2026-03-29T14:34:02Z</time></trkpt><trkpt lat="40.72447803353948" lon="17.59235456942964"><ele>202.25</ele><time>2026-03-29T14:34:03Z</time></trkpt><trkpt lat="40.72443999555195" lon="17.592207481358034"><ele>201.0</ele><time>2026-03-29T14:34:04Z</time></trkpt><trkpt lat="40.72440443908775" lon="17.592068292080825"><ele>201.20000000000002</ele><time>2026-03-29T14:34:05Z</time></trkpt><trkpt lat="40.72439129177569" lon="17.59197455087038"><ele>201.4</ele><time>2026-03-29T14:34:06Z</time></trkpt><trkpt lat="40.72438867763837" lon="17.591849268067225"><ele>201.6</ele><time>2026-03-29T14:34:07Z</time></trkpt><trkpt lat="40.72437898908321" lon="17.59172506604111"><ele>201.8</ele><time>2026-03-29T14:34:08Z</time></trkpt><trkpt lat="40.72433968788042" lon="17.5916308798778"><ele>202.0</ele><time>2026-03-29T14:34:09Z</time></trkpt><trkpt lat="40.72425260309622" lon="17.59152594664963"><ele>202.0</ele><time>2026-03-29T14:34:10Z</time></trkpt><trkpt lat="40.72414981947559" lon="17.591446383300386"><ele>202.0</ele><time>2026-03-29T14:34:11Z</time></trkpt><trkpt lat="40.724151162279426" lon="17.591287337690392"><ele>202.0</ele><time>2026-03-29T14:34:11.999Z</time></trkpt><trkpt lat="40.724101288731305" lon="17.5911392841273"><ele>202.0</ele><time>2026-03-29T14:34:12.999Z</time></trkpt><trkpt lat="40.72404687072664" lon="17.59096988705897"><ele>202.5</ele><time>2026-03-29T14:34:13.999Z</time></trkpt><trkpt lat="40.72399789872687" lon="17.590784553275885"><ele>203.0</ele><time>2026-03-29T14:34:14.999Z</time></trkpt><trkpt lat="40.72396084397798" lon="17.59061410648659"><ele>203.5</ele><time>2026-03-29T14:34:15.999Z</time></trkpt><trkpt lat="40.723943043128294" lon="17.590457434766368"><ele>204.0</ele><time>2026-03-29T14:34:16.999Z</time></trkpt><trkpt lat="40.72394092733172" lon="17.59027012260583"><ele>205.25</ele><time>2026-03-29T14:34:17.999Z</time></trkpt><trkpt lat="40.723963604428114" lon="17.590077943367504"><ele>206.5</ele><time>2026-03-29T14:34:18.999Z</time></trkpt><trkpt lat="40.72401003970839" lon="17.589904799215663"><ele>207.75</ele><time>2026-03-29T14:34:19.999Z</time></trkpt><trkpt lat="40.72405246442538" lon="17.589769776102834"><ele>209.0</ele><time>2026-03-29T14:34:20.999Z</time></trkpt><trkpt lat="40.724101118682604" lon="17.58961849488901"><ele>210.0</ele><time>2026-03-29T14:34:21.999Z</time></trkpt><trkpt lat="40.72415081601268" lon="17.58946983842126"><ele>211.0</ele><time>2026-03-29T14:34:22.999Z</time></trkpt><trkpt lat="40.72420072319233" lon="17.589320554150685"><ele>212.0</ele><time>2026-03-29T14:34:23.999Z</time></trkpt><trkpt lat="40.72425310402109" lon="17.58916870409693"><ele>213.0</ele><time>2026-03-29T14:34:24.999Z</time></trkpt><trkpt lat="40.7242997633827" lon="17.589034721734876"><ele>213.0</ele><time>2026-03-29T14:34:25.999Z</time></trkpt><trkpt lat="40.72431388688112" lon="17.58890301179234"><ele>213.0</ele><time>2026-03-29T14:34:26.999Z</time></trkpt><trkpt lat="40.72434942727192" lon="17.588791034170722"><ele>213.0</ele><time>2026-03-29T14:34:27.999Z</time></trkpt><trkpt lat="40.724402075821345" lon="17.588696753027065"><ele>213.0</ele><time>2026-03-29T14:34:28.999Z</time></trkpt><trkpt lat="40.72443650738808" lon="17.588546648648283"><ele>213.0</ele><time>2026-03-29T14:34:29.999Z</time></trkpt><trkpt lat="40.724546448001746" lon="17.5884437473555"><ele>213.0</ele><time>2026-03-29T14:34:30.999Z</time></trkpt><trkpt lat="40.72460831687788" lon="17.588254187809316"><ele>213.0</ele><time>2026-03-29T14:34:31.999Z</time></trkpt><trkpt lat="40.72465723270431" lon="17.588106654777572"><ele>213.0</ele><time>2026-03-29T14:34:32.999Z</time></trkpt><trkpt lat="40.72470038922984" lon="17.587985789928005"><ele>213.0</ele><time>2026-03-29T14:34:33.999Z</time></trkpt><trkpt lat="40.72474809333869" lon="17.587882652403604"><ele>213.8</ele><time>2026-03-29T14:34:34.999Z</time></trkpt><trkpt lat="40.724794715941485" lon="17.58776308811958"><ele>214.60000000000002</ele><time>2026-03-29T14:34:35.999Z</time></trkpt><trkpt lat="40.72483800126599" lon="17.587664125682647"><ele>215.39999999999998</ele><time>2026-03-29T14:34:36.999Z</time></trkpt><trkpt lat="40.724903356682404" lon="17.587539756897755"><ele>216.2</ele><time>2026-03-29T14:34:38.999Z</time></trkpt><trkpt lat="40.72493847216777" lon="17.5874586527644"><ele>217.0</ele><time>2026-03-29T14:34:39.999Z</time></trkpt><trkpt lat="40.724990170300835" lon="17.58735393231598"><ele>217.0</ele><time>2026-03-29T14:34:40.999Z</time></trkpt><trkpt lat="40.725035575659035" lon="17.587242842244148"><ele>217.0</ele><time>2026-03-29T14:34:41.999Z</time></trkpt><trkpt lat="40.72509188276459" lon="17.587111999305794"><ele>217.0</ele><time>2026-03-29T14:34:42.999Z</time></trkpt><trkpt lat="40.725148895202494" lon="17.586960895291924"><ele>217.0</ele><time>2026-03-29T14:34:43.999Z</time></trkpt><trkpt lat="40.725183101656185" lon="17.58684617172475"><ele>217.0</ele><time>2026-03-29T14:34:44.999Z</time></trkpt><trkpt lat="40.72520561857" lon="17.586730677949294"><ele>217.16666666666666</ele><time>2026-03-29T14:34:45.999Z</time></trkpt><trkpt lat="40.725227791805814" lon="17.586607377005297"><ele>217.33333333333331</ele><time>2026-03-29T14:34:46.999Z</time></trkpt><trkpt lat="40.725252628930484" lon="17.58647574315205"><ele>217.5</ele><time>2026-03-29T14:34:47.999Z</time></trkpt><trkpt lat="40.72524857267797" lon="17.58635469220814"><ele>217.66666666666669</ele><time>2026-03-29T14:34:48.999Z</time></trkpt><trkpt lat="40.725243995297575" lon="17.586263474118365"><ele>217.83333333333334</ele><time>2026-03-29T14:34:49.999Z</time></trkpt><trkpt lat="40.725205006203325" lon="17.58619479434715"><ele>218.0</ele><time>2026-03-29T14:34:50.999Z</time></trkpt><trkpt lat="40.725205401528235" lon="17.586105272941513"><ele>218.0</ele><time>2026-03-29T14:34:51.999Z</time></trkpt><trkpt lat="40.72519722453057" lon="17.58598068223369"><ele>218.0</ele><time>2026-03-29T14:34:53.999Z</time></trkpt><trkpt lat="40.725170548294415" lon="17.585882913547938"><ele>218.0</ele><time>2026-03-29T14:34:55.999Z</time></trkpt><trkpt lat="40.72513040424807" lon="17.585800197971444"><ele>218.0</ele><time>2026-03-29T14:34:56.999Z</time></trkpt><trkpt lat="40.72497374623729" lon="17.585754873067426"><ele>218.0</ele><time>2026-03-29T14:34:58.999Z</time></trkpt><trkpt lat="40.72486644968934" lon="17.585694044075368"><ele>218.0</ele><time>2026-03-29T14:34:59.999Z</time></trkpt><trkpt lat="40.72478225559156" lon="17.585604118854608"><ele>218.0</ele><time>2026-03-29T14:35:00.999Z</time></trkpt><trkpt lat="40.72468769066265" lon="17.58549334788552"><ele>218.0</ele><time>2026-03-29T14:35:02Z</time></trkpt><trkpt lat="40.72458554211473" lon="17.585363906381257"><ele>218.0</ele><time>2026-03-29T14:35:03Z</time></trkpt><trkpt lat="40.72450638298078" lon="17.58525392421689"><ele>219.25</ele><time>2026-03-29T14:35:04Z</time></trkpt><trkpt lat="40.724428206412924" lon="17.5851393197266"><ele>220.5</ele><time>2026-03-29T14:35:05Z</time></trkpt><trkpt lat="40.724323024528886" lon="17.585011206125003"><ele>221.75</ele><time>2026-03-29T14:35:06Z</time></trkpt><trkpt lat="40.72425323564895" lon="17.584896428322324"><ele>223.0</ele><time>2026-03-29T14:35:07Z</time></trkpt><trkpt lat="40.724200780521755" lon="17.58480445057933"><ele>223.0</ele><time>2026-03-29T14:35:08Z</time></trkpt><trkpt lat="40.72413589397035" lon="17.58470735094505"><ele>223.0</ele><time>2026-03-29T14:35:09Z</time></trkpt><trkpt lat="40.72407444723931" lon="17.584601273806804"><ele>223.0</ele><time>2026-03-29T14:35:10Z</time></trkpt><trkpt lat="40.72398307719035" lon="17.58448962511405"><ele>223.0</ele><time>2026-03-29T14:35:11Z</time></trkpt><trkpt lat="40.72389679084027" lon="17.584405679785952"><ele>223.0</ele><time>2026-03-29T14:35:12Z</time></trkpt><trkpt lat="40.723849131692596" lon="17.58431198623088"><ele>223.60000000000002</ele><time>2026-03-29T14:35:13Z</time></trkpt><trkpt lat="40.72371308649134" lon="17.584314069703805"><ele>224.20000000000002</ele><time>2026-03-29T14:35:14Z</time></trkpt><trkpt lat="40.72361986404857" lon="17.58427163318347"><ele>224.8</ele><time>2026-03-29T14:35:15Z</time></trkpt><trkpt lat="40.72355169111183" lon="17.584241504553837"><ele>225.4</ele><time>2026-03-29T14:35:16Z</time></trkpt><trkpt lat="40.72349033580945" lon="17.584212418139366"><ele>226.0</ele><time>2026-03-29T14:35:17Z</time></trkpt><trkpt lat="40.723383511054664" lon="17.584152901767013"><ele>226.20000000000002</ele><time>2026-03-29T14:35:19Z</time></trkpt><trkpt lat="40.72327610938543" lon="17.584078058307888"><ele>226.40000000000003</ele><time>2026-03-29T14:35:21Z</time></trkpt><trkpt lat="40.72320047301981" lon="17.583969112944466"><ele>226.6</ele><time>2026-03-29T14:35:23Z</time></trkpt><trkpt lat="40.7231679668606" lon="17.583880719729024"><ele>226.8</ele><time>2026-03-29T14:35:25Z</time></trkpt><trkpt lat="40.72310178349249" lon="17.583842716949704"><ele>227.0</ele><time>2026-03-29T14:35:28Z</time></trkpt><trkpt lat="40.7229878034413" lon="17.583851755611565"><ele>227.0</ele><time>2026-03-29T14:35:30Z</time></trkpt><trkpt lat="40.7229021709903" lon="17.583861596515742"><ele>227.0</ele><time>2026-03-29T14:35:31Z</time></trkpt><trkpt lat="40.722797649320015" lon="17.583864689796577"><ele>227.0</ele><time>2026-03-29T14:35:32Z</time></trkpt><trkpt lat="40.722679322906174" lon="17.583863402791465"><ele>227.0</ele><time>2026-03-29T14:35:33Z</time></trkpt><trkpt lat="40.7225469990548" lon="17.583842732655803"><ele>227.0</ele><time>2026-03-29T14:35:34Z</time></trkpt><trkpt lat="40.72239116544238" lon="17.583786855744627"><ele>227.0</ele><time>2026-03-29T14:35:35Z</time></trkpt><trkpt lat="40.722257928286915" lon="17.583735222814163"><ele>227.0</ele><time>2026-03-29T14:35:36Z</time></trkpt><trkpt lat="40.722114824630026" lon="17.583637134529443"><ele>227.0</ele><time>2026-03-29T14:35:37Z</time></trkpt><trkpt lat="40.72199271787087" lon="17.583547586417716"><ele>227.0</ele><time>2026-03-29T14:35:38Z</time></trkpt><trkpt lat="40.72190501558264" lon="17.58347633726309"><ele>227.5</ele><time>2026-03-29T14:35:39Z</time></trkpt><trkpt lat="40.72182716362761" lon="17.58340984348016"><ele>228.0</ele><time>2026-03-29T14:35:40Z</time></trkpt><trkpt lat="40.721726680364746" lon="17.583326833815338"><ele>228.5</ele><time>2026-03-29T14:35:41Z</time></trkpt><trkpt lat="40.72161928412196" lon="17.583203465932364"><ele>229.0</ele><time>2026-03-29T14:35:42Z</time></trkpt><trkpt lat="40.72151299299911" lon="17.58308190663311"><ele>229.0</ele><time>2026-03-29T14:35:43Z</time></trkpt><trkpt lat="40.72141322201836" lon="17.58297664371492"><ele>229.0</ele><time>2026-03-29T14:35:44Z</time></trkpt><trkpt lat="40.72133272965958" lon="17.582846987324533"><ele>229.0</ele><time>2026-03-29T14:35:45Z</time></trkpt><trkpt lat="40.721250253881465" lon="17.582736859854133"><ele>229.0</ele><time>2026-03-29T14:35:46Z</time></trkpt><trkpt lat="40.72118355584841" lon="17.582588637103672"><ele>229.0</ele><time>2026-03-29T14:35:47Z</time></trkpt><trkpt lat="40.72111884596416" lon="17.5824671660266"><ele>229.0</ele><time>2026-03-29T14:35:48Z</time></trkpt><trkpt lat="40.72107334305298" lon="17.5823586341267"><ele>229.0</ele><time>2026-03-29T14:35:49Z</time></trkpt><trkpt lat="40.721059785323746" lon="17.582202391905046"><ele>229.0</ele><time>2026-03-29T14:35:50Z</time></trkpt><trkpt lat="40.721032062707295" lon="17.582041836922198"><ele>229.75</ele><time>2026-03-29T14:35:51Z</time></trkpt><trkpt lat="40.721004352036886" lon="17.58190777346885"><ele>230.5</ele><time>2026-03-29T14:35:52Z</time></trkpt><trkpt lat="40.7209663342213" lon="17.581776720982297"><ele>231.25</ele><time>2026-03-29T14:35:53Z</time></trkpt><trkpt lat="40.72091368584163" lon="17.58162049875336"><ele>232.0</ele><time>2026-03-29T14:35:54Z</time></trkpt><trkpt lat="40.72091709055705" lon="17.5814530082064"><ele>232.0</ele><time>2026-03-29T14:35:55Z</time></trkpt><trkpt lat="40.72092940786289" lon="17.581297236859836"><ele>232.0</ele><time>2026-03-29T14:35:56Z</time></trkpt><trkpt lat="40.72090186488872" lon="17.58113493446337"><ele>232.0</ele><time>2026-03-29T14:35:57Z</time></trkpt><trkpt lat="40.72089492997792" lon="17.581015082846164"><ele>232.0</ele><time>2026-03-29T14:35:58Z</time></trkpt><trkpt lat="40.72089449570424" lon="17.580886375599473"><ele>232.0</ele><time>2026-03-29T14:35:59Z</time></trkpt><trkpt lat="40.720871145222226" lon="17.580747174020416"><ele>232.25</ele><time>2026-03-29T14:36:00Z</time></trkpt><trkpt lat="40.72085225996574" lon="17.580610707068082"><ele>232.5</ele><time>2026-03-29T14:36:01Z</time></trkpt><trkpt lat="40.72085374016733" lon="17.580440165614323"><ele>232.75</ele><time>2026-03-29T14:36:02Z</time></trkpt><trkpt lat="40.72087686943702" lon="17.580217243618748"><ele>233.0</ele><time>2026-03-29T14:36:03Z</time></trkpt><trkpt lat="40.720851914223566" lon="17.580015429250214"><ele>233.0</ele><time>2026-03-29T14:36:04Z</time></trkpt><trkpt lat="40.72081075985598" lon="17.579873310872905"><ele>233.0</ele><time>2026-03-29T14:36:05Z</time></trkpt><trkpt lat="40.720774556427514" lon="17.57973574226451"><ele>233.0</ele><time>2026-03-29T14:36:06Z</time></trkpt><trkpt lat="40.72065999766986" lon="17.579629907045618"><ele>233.0</ele><time>2026-03-29T14:36:07Z</time></trkpt><trkpt lat="40.72061751481754" lon="17.579511734031463"><ele>233.00000000000003</ele><time>2026-03-29T14:36:08Z</time></trkpt><trkpt lat="40.72059621055568" lon="17.579409759699157"><ele>233.0</ele><time>2026-03-29T14:36:09Z</time></trkpt><trkpt lat="40.72059660541443" lon="17.57931890024398"><ele>233.0</ele><time>2026-03-29T14:36:10Z</time></trkpt><trkpt lat="40.720602993540155" lon="17.579203543132657"><ele>233.0</ele><time>2026-03-29T14:36:11Z</time></trkpt><trkpt lat="40.72062474771079" lon="17.57907714563555"><ele>233.00000000000003</ele><time>2026-03-29T14:36:12Z</time></trkpt><trkpt lat="40.720683042534915" lon="17.578959927701675"><ele>233.0</ele><time>2026-03-29T14:36:12.999Z</time></trkpt><trkpt lat="40.72075767482848" lon="17.5788767209329"><ele>233.0</ele><time>2026-03-29T14:36:13.999Z</time></trkpt><trkpt lat="40.72085675118804" lon="17.57877677559669"><ele>233.0</ele><time>2026-03-29T14:36:14.999Z</time></trkpt><trkpt lat="40.720931843478525" lon="17.57868765973701"><ele>233.0</ele><time>2026-03-29T14:36:15.999Z</time></trkpt><trkpt lat="40.720999522570665" lon="17.5785865199846"><ele>233.0</ele><time>2026-03-29T14:36:16.999Z</time></trkpt><trkpt lat="40.721074102760575" lon="17.578494596567516"><ele>233.0</ele><time>2026-03-29T14:36:17.999Z</time></trkpt><trkpt lat="40.72115890816412" lon="17.578388027631746"><ele>233.5</ele><time>2026-03-29T14:36:18.999Z</time></trkpt><trkpt lat="40.72125998361842" lon="17.578271341999812"><ele>234.0</ele><time>2026-03-29T14:36:19.999Z</time></trkpt><trkpt lat="40.72135469166293" lon="17.5781304485447"><ele>234.5</ele><time>2026-03-29T14:36:20.999Z</time></trkpt><trkpt lat="40.72144335098196" lon="17.578025980238312"><ele>235.0</ele><time>2026-03-29T14:36:21.999Z</time></trkpt><trkpt lat="40.721526343890666" lon="17.57791249039374"><ele>235.2</ele><time>2026-03-29T14:36:22.999Z</time></trkpt><trkpt lat="40.72154633688236" lon="17.577760359282557"><ele>235.4</ele><time>2026-03-29T14:36:23.999Z</time></trkpt><trkpt lat="40.72159920479004" lon="17.57768647038804"><ele>235.60000000000002</ele><time>2026-03-29T14:36:24.999Z</time></trkpt><trkpt lat="40.72163696726037" lon="17.577598476096256"><ele>235.8</ele><time>2026-03-29T14:36:25.999Z</time></trkpt><trkpt lat="40.72169307736992" lon="17.57748130756536"><ele>236.0</ele><time>2026-03-29T14:36:27.999Z</time></trkpt><trkpt lat="40.721758312767236" lon="17.577378273435563"><ele>236.0</ele><time>2026-03-29T14:36:29.999Z</time></trkpt><trkpt lat="40.72184716069459" lon="17.57728658209078"><ele>236.00000000000003</ele><time>2026-03-29T14:36:31.999Z</time></trkpt><trkpt lat="40.721874931541336" lon="17.577199133262344"><ele>236.00000000000003</ele><time>2026-03-29T14:36:34.999Z</time></trkpt><trkpt lat="40.7218861581885" lon="17.57710309060625"><ele>236.0</ele><time>2026-03-29T14:36:36.999Z</time></trkpt><trkpt lat="40.72189288532359" lon="17.57693514128764"><ele>236.0</ele><time>2026-03-29T14:36:38.999Z</time></trkpt><trkpt lat="40.72189563929781" lon="17.576845883344376"><ele>236.0</ele><time>2026-03-29T14:36:39.999Z</time></trkpt><trkpt lat="40.72187613467378" lon="17.5766916466574"><ele>236.00000000000003</ele><time>2026-03-29T14:36:41.999Z</time></trkpt><trkpt lat="40.72187369555476" lon="17.57659228631422"><ele>236.00000000000003</ele><time>2026-03-29T14:36:42.999Z</time></trkpt><trkpt lat="40.721850226708604" lon="17.576455070136433"><ele>236.0</ele><time>2026-03-29T14:36:43.999Z</time></trkpt><trkpt lat="40.72182807854314" lon="17.57637451123231"><ele>236.0</ele><time>2026-03-29T14:36:44.999Z</time></trkpt><trkpt lat="40.721814834406764" lon="17.576242625583255"><ele>236.0</ele><time>2026-03-29T14:36:45.999Z</time></trkpt><trkpt lat="40.72178822650473" lon="17.576089621398655"><ele>236.00000000000003</ele><time>2026-03-29T14:36:47.999Z</time></trkpt><trkpt lat="40.721764332326345" lon="17.57595120078587"><ele>236.00000000000003</ele><time>2026-03-29T14:36:49.999Z</time></trkpt><trkpt lat="40.72171365038957" lon="17.575789828024867"><ele>236.0</ele><time>2026-03-29T14:36:51.999Z</time></trkpt><trkpt lat="40.72170922316688" lon="17.57570367521357"><ele>236.0</ele><time>2026-03-29T14:36:52.999Z</time></trkpt><trkpt lat="40.721678737680925" lon="17.575559048814114"><ele>236.0</ele><time>2026-03-29T14:36:53.999Z</time></trkpt><trkpt lat="40.72165007146908" lon="17.57539695385762"><ele>236.00000000000003</ele><time>2026-03-29T14:36:54.999Z</time></trkpt><trkpt lat="40.72165601270062" lon="17.57528829797594"><ele>236.00000000000003</ele><time>2026-03-29T14:36:55.999Z</time></trkpt><trkpt lat="40.72161401484918" lon="17.575186030706018"><ele>236.0</ele><time>2026-03-29T14:36:56.999Z</time></trkpt><trkpt lat="40.72160939512981" lon="17.575093901779113"><ele>236.0</ele><time>2026-03-29T14:36:57.999Z</time></trkpt><trkpt lat="40.72156884021977" lon="17.574949415477047"><ele>236.00000000000003</ele><time>2026-03-29T14:36:59.999Z</time></trkpt><trkpt lat="40.721552339154016" lon="17.57481373493636"><ele>236.0</ele><time>2026-03-29T14:37:00.999Z</time></trkpt><trkpt lat="40.721542637265706" lon="17.574717954846157"><ele>236.0</ele><time>2026-03-29T14:37:01.999Z</time></trkpt><trkpt lat="40.72151980793211" lon="17.574614828915195"><ele>236.0</ele><time>2026-03-29T14:37:02.999Z</time></trkpt><trkpt lat="40.72151363872395" lon="17.574528174798502"><ele>236.00000000000003</ele><time>2026-03-29T14:37:03.999Z</time></trkpt><trkpt lat="40.72154094239892" lon="17.574411556959838"><ele>236.0</ele><time>2026-03-29T14:37:06.999Z</time></trkpt><trkpt lat="40.72160057109631" lon="17.5743412739612"><ele>236.00000000000003</ele><time>2026-03-29T14:37:09Z</time></trkpt><trkpt lat="40.72163716704792" lon="17.574239811176174"><ele>236.0</ele><time>2026-03-29T14:37:31Z</time></trkpt><trkpt lat="40.72169660236453" lon="17.57416137337184"><ele>236.0</ele><time>2026-03-29T14:37:56Z</time></trkpt><trkpt lat="40.72175199978521" lon="17.574094585468924"><ele>236.0</ele><time>2026-03-29T14:37:57Z</time></trkpt><trkpt lat="40.721827193076685" lon="17.574004087888753"><ele>236.00000000000003</ele><time>2026-03-29T14:37:58Z</time></trkpt><trkpt lat="40.721890812198474" lon="17.5739164534485"><ele>236.0</ele><time>2026-03-29T14:37:59Z</time></trkpt><trkpt lat="40.721947559991406" lon="17.57384074540115"><ele>235.0</ele><time>2026-03-29T14:38:00Z</time></trkpt><trkpt lat="40.72207563203899" lon="17.573653131266255"><ele>234.0</ele><time>2026-03-29T14:38:01Z</time></trkpt><trkpt lat="40.72216496312775" lon="17.5735340085042"><ele>233.0</ele><time>2026-03-29T14:38:02Z</time></trkpt><trkpt lat="40.722235984679" lon="17.57345481834859"><ele>232.0</ele><time>2026-03-29T14:38:03Z</time></trkpt><trkpt lat="40.72229695477402" lon="17.573366453560002"><ele>232.0</ele><time>2026-03-29T14:38:04Z</time></trkpt><trkpt lat="40.7223731622336" lon="17.573280321960667"><ele>232.0</ele><time>2026-03-29T14:38:05Z</time></trkpt><trkpt lat="40.72247569751059" lon="17.573155242590254"><ele>232.0</ele><time>2026-03-29T14:38:06Z</time></trkpt><trkpt lat="40.722602524747835" lon="17.57302215165346"><ele>232.0</ele><time>2026-03-29T14:38:07Z</time></trkpt><trkpt lat="40.72272911725958" lon="17.57286084029806"><ele>232.0</ele><time>2026-03-29T14:38:08Z</time></trkpt><trkpt lat="40.72285983676401" lon="17.572707706007805"><ele>232.0</ele><time>2026-03-29T14:38:09Z</time></trkpt><trkpt lat="40.72300143856058" lon="17.572582870719867"><ele>232.0</ele><time>2026-03-29T14:38:10Z</time></trkpt><trkpt lat="40.723100224351754" lon="17.57245550372181"><ele>232.0</ele><time>2026-03-29T14:38:11Z</time></trkpt><trkpt lat="40.72321757661947" lon="17.572336197792197"><ele>232.0</ele><time>2026-03-29T14:38:12Z</time></trkpt><trkpt lat="40.72333611779484" lon="17.572210008008835"><ele>232.0</ele><time>2026-03-29T14:38:13Z</time></trkpt><trkpt lat="40.7234486375384" lon="17.57216083818804"><ele>232.0</ele><time>2026-03-29T14:38:14Z</time></trkpt><trkpt lat="40.72351017901403" lon="17.572120452982027"><ele>232.16666666666666</ele><time>2026-03-29T14:38:15Z</time></trkpt><trkpt lat="40.72359596130583" lon="17.572101479836366"><ele>232.33333333333331</ele><time>2026-03-29T14:38:16Z</time></trkpt><trkpt lat="40.72367719780725" lon="17.572109753937607"><ele>232.5</ele><time>2026-03-29T14:38:17Z</time></trkpt><trkpt lat="40.72375561732268" lon="17.57209745788175"><ele>232.66666666666669</ele><time>2026-03-29T14:38:18Z</time></trkpt><trkpt lat="40.72383423820519" lon="17.572080448065886"><ele>232.83333333333334</ele><time>2026-03-29T14:38:19Z</time></trkpt><trkpt lat="40.72390382345676" lon="17.571985934819267"><ele>233.0</ele><time>2026-03-29T14:38:19.999Z</time></trkpt><trkpt lat="40.72400624735297" lon="17.57189999594904"><ele>233.0</ele><time>2026-03-29T14:38:20.999Z</time></trkpt><trkpt lat="40.72413150889472" lon="17.57182356323687"><ele>233.0</ele><time>2026-03-29T14:38:21.999Z</time></trkpt><trkpt lat="40.724270880227735" lon="17.57176206803544"><ele>233.0</ele><time>2026-03-29T14:38:22.999Z</time></trkpt><trkpt lat="40.72440534238447" lon="17.57170300912891"><ele>233.0</ele><time>2026-03-29T14:38:23.999Z</time></trkpt><trkpt lat="40.72454847952376" lon="17.571636887474003"><ele>232.75</ele><time>2026-03-29T14:38:24.999Z</time></trkpt><trkpt lat="40.72464960309454" lon="17.57158201869953"><ele>232.5</ele><time>2026-03-29T14:38:25.999Z</time></trkpt><trkpt lat="40.72476659885391" lon="17.57151421992391"><ele>232.25</ele><time>2026-03-29T14:38:26.999Z</time></trkpt><trkpt lat="40.72489726502611" lon="17.57147533516766"><ele>232.0</ele><time>2026-03-29T14:38:27.999Z</time></trkpt><trkpt lat="40.72502789681449" lon="17.571429154442114"><ele>231.99999999999997</ele><time>2026-03-29T14:38:28.999Z</time></trkpt><trkpt lat="40.72510227677454" lon="17.571432035963184"><ele>232.0</ele><time>2026-03-29T14:38:29.999Z</time></trkpt><trkpt lat="40.72519946664106" lon="17.57142236579602"><ele>232.0</ele><time>2026-03-29T14:38:30.999Z</time></trkpt><trkpt lat="40.725277773625656" lon="17.571428761882405"><ele>232.0</ele><time>2026-03-29T14:38:31.999Z</time></trkpt><trkpt lat="40.7253437213352" lon="17.57143890306322"><ele>231.99999999999997</ele><time>2026-03-29T14:38:32.999Z</time></trkpt><trkpt lat="40.72543940045561" lon="17.57133290001551"><ele>232.0</ele><time>2026-03-29T14:38:34.999Z</time></trkpt><trkpt lat="40.72541968963745" lon="17.571180550176003"><ele>231.75</ele><time>2026-03-29T14:38:36.999Z</time></trkpt><trkpt lat="40.725324883019454" lon="17.571060403324957"><ele>231.5</ele><time>2026-03-29T14:38:38.999Z</time></trkpt><trkpt lat="40.72523670008387" lon="17.570943477281514"><ele>231.25</ele><time>2026-03-29T14:38:39.999Z</time></trkpt><trkpt lat="40.7251443893697" lon="17.57079108390089"><ele>231.0</ele><time>2026-03-29T14:38:40.999Z</time></trkpt><trkpt lat="40.72509074789803" lon="17.570561433664338"><ele>230.33333333333331</ele><time>2026-03-29T14:38:41.999Z</time></trkpt><trkpt lat="40.7249721118064" lon="17.57029528013206"><ele>229.66666666666666</ele><time>2026-03-29T14:38:42.999Z</time></trkpt><trkpt lat="40.724873494287465" lon="17.570108096306406"><ele>229.0</ele><time>2026-03-29T14:38:43.999Z</time></trkpt><trkpt lat="40.724755392469326" lon="17.569914522879575"><ele>229.0</ele><time>2026-03-29T14:38:44.999Z</time></trkpt><trkpt lat="40.72465466531913" lon="17.569750811048593"><ele>229.0</ele><time>2026-03-29T14:38:45.999Z</time></trkpt><trkpt lat="40.72454425986313" lon="17.569601200253437"><ele>229.0</ele><time>2026-03-29T14:38:46.999Z</time></trkpt><trkpt lat="40.72439415563489" lon="17.569428697322564"><ele>227.0</ele><time>2026-03-29T14:38:47.999Z</time></trkpt><trkpt lat="40.72419190091962" lon="17.569222314504657"><ele>225.0</ele><time>2026-03-29T14:38:48.999Z</time></trkpt><trkpt lat="40.72398801671552" lon="17.56901695117689"><ele>225.0</ele><time>2026-03-29T14:38:49.999Z</time></trkpt><trkpt lat="40.72375489137372" lon="17.568837634425236"><ele>225.0</ele><time>2026-03-29T14:38:50.999Z</time></trkpt><trkpt lat="40.72349405761826" lon="17.56865082401132"><ele>223.5</ele><time>2026-03-29T14:38:51.999Z</time></trkpt><trkpt lat="40.72323053117091" lon="17.568463294029506"><ele>222.0</ele><time>2026-03-29T14:38:52.999Z</time></trkpt><trkpt lat="40.72297534303281" lon="17.568235265876325"><ele>223.5</ele><time>2026-03-29T14:38:53.999Z</time></trkpt><trkpt lat="40.72270755218111" lon="17.56800241477155"><ele>225.0</ele><time>2026-03-29T14:38:54.999Z</time></trkpt><trkpt lat="40.7224727997717" lon="17.56791748417757"><ele>223.5</ele><time>2026-03-29T14:38:55.999Z</time></trkpt><trkpt lat="40.7222524546575" lon="17.567690792978464"><ele>222.0</ele><time>2026-03-29T14:38:56.999Z</time></trkpt><trkpt lat="40.72204415389208" lon="17.567472598876563"><ele>223.5</ele><time>2026-03-29T14:38:57.999Z</time></trkpt><trkpt lat="40.72183961005314" lon="17.567201622397675"><ele>225.0</ele><time>2026-03-29T14:38:58.999Z</time></trkpt><trkpt lat="40.721721415815296" lon="17.56689034921552"><ele>222.0</ele><time>2026-03-29T14:38:59.999Z</time></trkpt><trkpt lat="40.721564942461164" lon="17.566659337177313"><ele>219.0</ele><time>2026-03-29T14:39:00.999Z</time></trkpt><trkpt lat="40.72136752893207" lon="17.566439443689752"><ele>219.0</ele><time>2026-03-29T14:39:01.999Z</time></trkpt><trkpt lat="40.72117466357248" lon="17.566279540709846"><ele>219.0</ele><time>2026-03-29T14:39:02.999Z</time></trkpt><trkpt lat="40.7209120758193" lon="17.566147226315096"><ele>217.5</ele><time>2026-03-29T14:39:03.999Z</time></trkpt><trkpt lat="40.72064923930409" lon="17.565999812589617"><ele>216.0</ele><time>2026-03-29T14:39:04.999Z</time></trkpt><trkpt lat="40.72036939057292" lon="17.565827073294674"><ele>214.0</ele><time>2026-03-29T14:39:05.999Z</time></trkpt><trkpt lat="40.72009671698292" lon="17.56562906902136"><ele>212.0</ele><time>2026-03-29T14:39:06.999Z</time></trkpt><trkpt lat="40.719899450168995" lon="17.565469728943544"><ele>212.66666666666669</ele><time>2026-03-29T14:39:07.999Z</time></trkpt><trkpt lat="40.71977123393344" lon="17.56530990057516"><ele>213.33333333333331</ele><time>2026-03-29T14:39:08.999Z</time></trkpt><trkpt lat="40.71964678243388" lon="17.5651204659833"><ele>214.0</ele><time>2026-03-29T14:39:09.999Z</time></trkpt><trkpt lat="40.719524064827084" lon="17.564884859982424"><ele>211.0</ele><time>2026-03-29T14:39:10.999Z</time></trkpt><trkpt lat="40.71935290057574" lon="17.564637152033214"><ele>208.0</ele><time>2026-03-29T14:39:11.999Z</time></trkpt><trkpt lat="40.7192547915604" lon="17.564327860225113"><ele>207.0</ele><time>2026-03-29T14:39:12.999Z</time></trkpt><trkpt lat="40.71913269903521" lon="17.564048614372208"><ele>206.0</ele><time>2026-03-29T14:39:14Z</time></trkpt><trkpt lat="40.71892841993936" lon="17.563768835971743"><ele>206.0</ele><time>2026-03-29T14:39:15Z</time></trkpt><trkpt lat="40.718693400624765" lon="17.563499456059855"><ele>206.0</ele><time>2026-03-29T14:39:16Z</time></trkpt><trkpt lat="40.71847509160711" lon="17.563226269471016"><ele>205.5</ele><time>2026-03-29T14:39:17Z</time></trkpt><trkpt lat="40.71828184399759" lon="17.562992674243066"><ele>205.0</ele><time>2026-03-29T14:39:18Z</time></trkpt><trkpt lat="40.71807959446812" lon="17.56274456602187"><ele>204.5</ele><time>2026-03-29T14:39:19Z</time></trkpt><trkpt lat="40.71790671116271" lon="17.562545726716383"><ele>204.0</ele><time>2026-03-29T14:39:20Z</time></trkpt><trkpt lat="40.71766727413368" lon="17.56243198456672"><ele>202.0</ele><time>2026-03-29T14:39:21Z</time></trkpt><trkpt lat="40.717379236387245" lon="17.562345412520667"><ele>200.0</ele><time>2026-03-29T14:39:22Z</time></trkpt><trkpt lat="40.71708351964047" lon="17.562281236571508"><ele>199.0</ele><time>2026-03-29T14:39:23Z</time></trkpt><trkpt lat="40.71680950316424" lon="17.562260881997993"><ele>198.0</ele><time>2026-03-29T14:39:24Z</time></trkpt><trkpt lat="40.71656430760653" lon="17.56220294826227"><ele>198.0</ele><time>2026-03-29T14:39:25Z</time></trkpt><trkpt lat="40.71635444396152" lon="17.5620664625624"><ele>198.0</ele><time>2026-03-29T14:39:26Z</time></trkpt><trkpt lat="40.71616221785613" lon="17.561917922050092"><ele>198.0</ele><time>2026-03-29T14:39:27Z</time></trkpt><trkpt lat="40.71600114130061" lon="17.561750729989658"><ele>198.0</ele><time>2026-03-29T14:39:28Z</time></trkpt><trkpt lat="40.71588514799049" lon="17.56155911992725"><ele>198.0</ele><time>2026-03-29T14:39:29Z</time></trkpt><trkpt lat="40.715788269939466" lon="17.561313647605783"><ele>198.5</ele><time>2026-03-29T14:39:30Z</time></trkpt><trkpt lat="40.715702786712704" lon="17.561002310878376"><ele>199.0</ele><time>2026-03-29T14:39:31Z</time></trkpt><trkpt lat="40.7156247856615" lon="17.56066730294"><ele>199.5</ele><time>2026-03-29T14:39:32Z</time></trkpt><trkpt lat="40.71553227087966" lon="17.560267242348413"><ele>200.0</ele><time>2026-03-29T14:39:33Z</time></trkpt><trkpt lat="40.715406233521826" lon="17.559941137379766"><ele>201.5</ele><time>2026-03-29T14:39:34Z</time></trkpt><trkpt lat="40.71523727393941" lon="17.559612175662544"><ele>203.0</ele><time>2026-03-29T14:39:35Z</time></trkpt><trkpt lat="40.71504512408649" lon="17.55927393316694"><ele>205.0</ele><time>2026-03-29T14:39:36Z</time></trkpt><trkpt lat="40.71483139108431" lon="17.558914393199707"><ele>207.0</ele><time>2026-03-29T14:39:37Z</time></trkpt><trkpt lat="40.71463975460411" lon="17.558535454164765"><ele>209.0</ele><time>2026-03-29T14:39:38Z</time></trkpt><trkpt lat="40.71447723539572" lon="17.558247852179846"><ele>211.0</ele><time>2026-03-29T14:39:39Z</time></trkpt><trkpt lat="40.71429370103772" lon="17.557988011197015"><ele>210.5</ele><time>2026-03-29T14:39:40Z</time></trkpt><trkpt lat="40.71414886180604" lon="17.557728228237586"><ele>210.0</ele><time>2026-03-29T14:39:41Z</time></trkpt><trkpt lat="40.714048773386374" lon="17.557432923498382"><ele>211.5</ele><time>2026-03-29T14:39:42Z</time></trkpt><trkpt lat="40.71397003622398" lon="17.55703311612702"><ele>213.0</ele><time>2026-03-29T14:39:43Z</time></trkpt><trkpt lat="40.71390285607402" lon="17.556613569284053"><ele>214.5</ele><time>2026-03-29T14:39:44Z</time></trkpt><trkpt lat="40.713841986112534" lon="17.55618907106664"><ele>216.0</ele><time>2026-03-29T14:39:45Z</time></trkpt><trkpt lat="40.71378634591856" lon="17.555802846745205"><ele>216.0</ele><time>2026-03-29T14:39:46Z</time></trkpt><trkpt lat="40.71377228400176" lon="17.555438532073968"><ele>216.0</ele><time>2026-03-29T14:39:47Z</time></trkpt><trkpt lat="40.71373577269573" lon="17.555072233044424"><ele>216.0</ele><time>2026-03-29T14:39:48Z</time></trkpt><trkpt lat="40.71368800636831" lon="17.55477710311519"><ele>216.0</ele><time>2026-03-29T14:39:49Z</time></trkpt><trkpt lat="40.71360260712139" lon="17.554498462007853"><ele>212.5</ele><time>2026-03-29T14:39:50Z</time></trkpt><trkpt lat="40.71347421162638" lon="17.554236031319682"><ele>209.0</ele><time>2026-03-29T14:39:51Z</time></trkpt><trkpt lat="40.713259752417464" lon="17.554037412088025"><ele>209.0</ele><time>2026-03-29T14:39:52Z</time></trkpt><trkpt lat="40.71300392198096" lon="17.55379972477632"><ele>209.0</ele><time>2026-03-29T14:39:53Z</time></trkpt><trkpt lat="40.712749329019815" lon="17.553604890432307"><ele>206.5</ele><time>2026-03-29T14:39:54Z</time></trkpt><trkpt lat="40.71248977434476" lon="17.553359482631343"><ele>204.0</ele><time>2026-03-29T14:39:55Z</time></trkpt><trkpt lat="40.71223003927011" lon="17.55304512505269"><ele>204.0</ele><time>2026-03-29T14:39:56Z</time></trkpt><trkpt lat="40.71204802117046" lon="17.552709526001365"><ele>204.0</ele><time>2026-03-29T14:39:57Z</time></trkpt><trkpt lat="40.71189946972765" lon="17.552420568304598"><ele>203.5</ele><time>2026-03-29T14:39:58Z</time></trkpt><trkpt lat="40.71178213018031" lon="17.55212329062871"><ele>203.0</ele><time>2026-03-29T14:39:59Z</time></trkpt><trkpt lat="40.71171801167191" lon="17.551767447527318"><ele>204.5</ele><time>2026-03-29T14:40:00Z</time></trkpt><trkpt lat="40.71167406964436" lon="17.551369277297898"><ele>206.0</ele><time>2026-03-29T14:40:01Z</time></trkpt><trkpt lat="40.71162286392566" lon="17.55094457099861"><ele>206.0</ele><time>2026-03-29T14:40:02Z</time></trkpt><trkpt lat="40.71154142375146" lon="17.55050894560503"><ele>206.0</ele><time>2026-03-29T14:40:03Z</time></trkpt><trkpt lat="40.711431692971786" lon="17.550076065831824"><ele>204.0</ele><time>2026-03-29T14:40:04Z</time></trkpt><trkpt lat="40.71132072776379" lon="17.549642302153845"><ele>202.0</ele><time>2026-03-29T14:40:05Z</time></trkpt><trkpt lat="40.711247720058154" lon="17.54923186184159"><ele>202.0</ele><time>2026-03-29T14:40:06Z</time></trkpt><trkpt lat="40.71119314021568" lon="17.548825425990668"><ele>202.0</ele><time>2026-03-29T14:40:07Z</time></trkpt><trkpt lat="40.71114044638443" lon="17.548412361443237"><ele>202.0</ele><time>2026-03-29T14:40:08Z</time></trkpt><trkpt lat="40.71115398994217" lon="17.5480423232951"><ele>202.0</ele><time>2026-03-29T14:40:09Z</time></trkpt><trkpt lat="40.71112937976978" lon="17.547712505462925"><ele>203.0</ele><time>2026-03-29T14:40:10Z</time></trkpt><trkpt lat="40.711117151892616" lon="17.547434827825303"><ele>204.0</ele><time>2026-03-29T14:40:11Z</time></trkpt><trkpt lat="40.711108580712825" lon="17.547198495121233"><ele>205.0</ele><time>2026-03-29T14:40:12Z</time></trkpt><trkpt lat="40.711109637540936" lon="17.54697628092411"><ele>206.5</ele><time>2026-03-29T14:40:13Z</time></trkpt><trkpt lat="40.711025780772296" lon="17.546834073634425"><ele>208.0</ele><time>2026-03-29T14:40:14Z</time></trkpt><trkpt lat="40.71093363011276" lon="17.54669287082917"><ele>209.5</ele><time>2026-03-29T14:40:15Z</time></trkpt><trkpt lat="40.71083516840378" lon="17.54656017754447"><ele>211.0</ele><time>2026-03-29T14:40:16Z</time></trkpt><trkpt lat="40.71072164005428" lon="17.546420941282282"><ele>211.0</ele><time>2026-03-29T14:40:17Z</time></trkpt><trkpt lat="40.71055946046954" lon="17.546258044240947"><ele>211.0</ele><time>2026-03-29T14:40:18Z</time></trkpt><trkpt lat="40.710380600253494" lon="17.546073834009068"><ele>211.0</ele><time>2026-03-29T14:40:19Z</time></trkpt><trkpt lat="40.710235226848084" lon="17.545882735807133"><ele>210.66666666666666</ele><time>2026-03-29T14:40:20Z</time></trkpt><trkpt lat="40.71010240313737" lon="17.545689361172"><ele>210.33333333333331</ele><time>2026-03-29T14:40:20.999Z</time></trkpt><trkpt lat="40.70996160365621" lon="17.54542189622434"><ele>210.0</ele><time>2026-03-29T14:40:21.999Z</time></trkpt><trkpt lat="40.70983438586758" lon="17.54507703869383"><ele>210.0</ele><time>2026-03-29T14:40:22.999Z</time></trkpt><trkpt lat="40.70969644200537" lon="17.544697842156697"><ele>210.0</ele><time>2026-03-29T14:40:23.999Z</time></trkpt><trkpt lat="40.70953070152503" lon="17.544308226472584"><ele>211.0</ele><time>2026-03-29T14:40:24.999Z</time></trkpt><trkpt lat="40.709347036691646" lon="17.543908855425098"><ele>212.0</ele><time>2026-03-29T14:40:25.999Z</time></trkpt><trkpt lat="40.709155355467544" lon="17.54348555541754"><ele>212.5</ele><time>2026-03-29T14:40:26.999Z</time></trkpt><trkpt lat="40.708965247060576" lon="17.543061512812596"><ele>213.0</ele><time>2026-03-29T14:40:27.999Z</time></trkpt><trkpt lat="40.708793492241604" lon="17.542665958575725"><ele>213.5</ele><time>2026-03-29T14:40:28.999Z</time></trkpt><trkpt lat="40.70861961175635" lon="17.542322239509335"><ele>214.0</ele><time>2026-03-29T14:40:29.999Z</time></trkpt><trkpt lat="40.70842245210049" lon="17.541997505548306"><ele>216.0</ele><time>2026-03-29T14:40:30.999Z</time></trkpt><trkpt lat="40.70819884240431" lon="17.54169168519738"><ele>218.0</ele><time>2026-03-29T14:40:31.999Z</time></trkpt><trkpt lat="40.70797207464941" lon="17.54138705442143"><ele>219.5</ele><time>2026-03-29T14:40:32.999Z</time></trkpt><trkpt lat="40.70777207989182" lon="17.54110411721095"><ele>221.0</ele><time>2026-03-29T14:40:33.999Z</time></trkpt><trkpt lat="40.707608822143655" lon="17.54083226774001"><ele>222.0</ele><time>2026-03-29T14:40:34.999Z</time></trkpt><trkpt lat="40.707495567720336" lon="17.540524685894717"><ele>223.0</ele><time>2026-03-29T14:40:35.999Z</time></trkpt><trkpt lat="40.70737725128667" lon="17.54023971656111"><ele>223.66666666666666</ele><time>2026-03-29T14:40:36.999Z</time></trkpt><trkpt lat="40.70728620349702" lon="17.5399547071505"><ele>224.33333333333331</ele><time>2026-03-29T14:40:37.999Z</time></trkpt><trkpt lat="40.707169056271745" lon="17.539727828660833"><ele>225.0</ele><time>2026-03-29T14:40:38.999Z</time></trkpt><trkpt lat="40.70727025155671" lon="17.53937959142373"><ele>226.5</ele><time>2026-03-29T14:40:39.999Z</time></trkpt><trkpt lat="40.707348579714306" lon="17.539038885560068"><ele>228.0</ele><time>2026-03-29T14:40:40.999Z</time></trkpt><trkpt lat="40.70745865460828" lon="17.5386705187522"><ele>228.0</ele><time>2026-03-29T14:40:41.999Z</time></trkpt><trkpt lat="40.70755871485903" lon="17.538300924827496"><ele>228.0</ele><time>2026-03-29T14:40:42.999Z</time></trkpt><trkpt lat="40.70763744283829" lon="17.537983847153853"><ele>227.0</ele><time>2026-03-29T14:40:43.999Z</time></trkpt><trkpt lat="40.70766087453068" lon="17.537736575707118"><ele>226.0</ele><time>2026-03-29T14:40:44.999Z</time></trkpt><trkpt lat="40.707657558532375" lon="17.53749204651783"><ele>225.0</ele><time>2026-03-29T14:40:45.999Z</time></trkpt><trkpt lat="40.707607349653195" lon="17.53722602508473"><ele>224.66666666666669</ele><time>2026-03-29T14:40:46.999Z</time></trkpt><trkpt lat="40.70751007032227" lon="17.53696225753123"><ele>224.33333333333334</ele><time>2026-03-29T14:40:47.999Z</time></trkpt><trkpt lat="40.707381066500325" lon="17.536719168174553"><ele>224.0</ele><time>2026-03-29T14:40:48.999Z</time></trkpt><trkpt lat="40.707266749869156" lon="17.53643361387576"><ele>224.66666666666669</ele><time>2026-03-29T14:40:49.999Z</time></trkpt><trkpt lat="40.707193259145136" lon="17.536199977600987"><ele>225.33333333333331</ele><time>2026-03-29T14:40:50.999Z</time></trkpt><trkpt lat="40.707135051043956" lon="17.535928307486255"><ele>226.0</ele><time>2026-03-29T14:40:51.999Z</time></trkpt><trkpt lat="40.70709011735504" lon="17.535584911972407"><ele>227.0</ele><time>2026-03-29T14:40:52.999Z</time></trkpt><trkpt lat="40.70705727006933" lon="17.535267609519153"><ele>228.0</ele><time>2026-03-29T14:40:53.999Z</time></trkpt><trkpt lat="40.70701997788848" lon="17.534997895573387"><ele>228.0</ele><time>2026-03-29T14:40:54.999Z</time></trkpt><trkpt lat="40.70697261297627" lon="17.534759821037955"><ele>228.0</ele><time>2026-03-29T14:40:55.999Z</time></trkpt><trkpt lat="40.70689034305534" lon="17.534494791196366"><ele>228.0</ele><time>2026-03-29T14:40:56.999Z</time></trkpt><trkpt lat="40.70680742511338" lon="17.534234883476454"><ele>227.0</ele><time>2026-03-29T14:40:57.999Z</time></trkpt><trkpt lat="40.70671995899955" lon="17.534031147156604"><ele>226.0</ele><time>2026-03-29T14:40:58.999Z</time></trkpt><trkpt lat="40.706600192023735" lon="17.533642982172065"><ele>226.0</ele><time>2026-03-29T14:40:59.999Z</time></trkpt><trkpt lat="40.70639396579866" lon="17.533398555185453"><ele>226.0</ele><time>2026-03-29T14:41:00.999Z</time></trkpt><trkpt lat="40.70622364381589" lon="17.533107731790007"><ele>226.66666666666666</ele><time>2026-03-29T14:41:01.999Z</time></trkpt><trkpt lat="40.70616431766195" lon="17.5328185067949"><ele>227.33333333333331</ele><time>2026-03-29T14:41:02.999Z</time></trkpt><trkpt lat="40.70617444473826" lon="17.532530378824084"><ele>228.0</ele><time>2026-03-29T14:41:03.999Z</time></trkpt><trkpt lat="40.706181027948446" lon="17.532304926456874"><ele>229.0</ele><time>2026-03-29T14:41:04.999Z</time></trkpt><trkpt lat="40.70625652980113" lon="17.53204911120758"><ele>230.0</ele><time>2026-03-29T14:41:05.999Z</time></trkpt><trkpt lat="40.706334423393045" lon="17.531772143602083"><ele>231.0</ele><time>2026-03-29T14:41:06.999Z</time></trkpt><trkpt lat="40.706461734795035" lon="17.53137379179907"><ele>233.0</ele><time>2026-03-29T14:41:07.999Z</time></trkpt><trkpt lat="40.706556433934495" lon="17.530946290607165"><ele>235.0</ele><time>2026-03-29T14:41:08.999Z</time></trkpt><trkpt lat="40.70666714850438" lon="17.530616262022328"><ele>234.5</ele><time>2026-03-29T14:41:09.999Z</time></trkpt><trkpt lat="40.706803350519635" lon="17.53028351938929"><ele>234.0</ele><time>2026-03-29T14:41:10.999Z</time></trkpt><trkpt lat="40.706930719594936" lon="17.529964709878925"><ele>234.0</ele><time>2026-03-29T14:41:11.999Z</time></trkpt><trkpt lat="40.70708236544072" lon="17.529685496288685"><ele>234.0</ele><time>2026-03-29T14:41:12.999Z</time></trkpt><trkpt lat="40.707227108072246" lon="17.52939781036623"><ele>236.0</ele><time>2026-03-29T14:41:13.999Z</time></trkpt><trkpt lat="40.707349424731795" lon="17.529123760394157"><ele>238.0</ele><time>2026-03-29T14:41:14.999Z</time></trkpt><trkpt lat="40.70751190767456" lon="17.52881775935047"><ele>238.0</ele><time>2026-03-29T14:41:15.999Z</time></trkpt><trkpt lat="40.70753788015939" lon="17.528564852204685"><ele>238.0</ele><time>2026-03-29T14:41:16.999Z</time></trkpt><trkpt lat="40.70761304557849" lon="17.528300444358873"><ele>238.0</ele><time>2026-03-29T14:41:17.999Z</time></trkpt><trkpt lat="40.707624089236695" lon="17.52794641423623"><ele>237.0</ele><time>2026-03-29T14:41:18.999Z</time></trkpt><trkpt lat="40.707648696572754" lon="17.5275719943747"><ele>236.0</ele><time>2026-03-29T14:41:20Z</time></trkpt><trkpt lat="40.7076699247712" lon="17.527240536533593"><ele>235.0</ele><time>2026-03-29T14:41:21Z</time></trkpt><trkpt lat="40.7076908050669" lon="17.52697536262322"><ele>234.0</ele><time>2026-03-29T14:41:22Z</time></trkpt><trkpt lat="40.70770113477487" lon="17.526737778323145"><ele>233.0</ele><time>2026-03-29T14:41:23Z</time></trkpt><trkpt lat="40.70768516364582" lon="17.526494189911435"><ele>231.0</ele><time>2026-03-29T14:41:24Z</time></trkpt><trkpt lat="40.70759284179002" lon="17.526211995003887"><ele>229.0</ele><time>2026-03-29T14:41:25Z</time></trkpt><trkpt lat="40.70745743667558" lon="17.525932492170966"><ele>229.0</ele><time>2026-03-29T14:41:26Z</time></trkpt><trkpt lat="40.70742766365859" lon="17.525646743425934"><ele>229.0</ele><time>2026-03-29T14:41:27Z</time></trkpt><trkpt lat="40.707447766538586" lon="17.525329989615468"><ele>230.0</ele><time>2026-03-29T14:41:28Z</time></trkpt><trkpt lat="40.70749586686175" lon="17.525098021874864"><ele>231.0</ele><time>2026-03-29T14:41:29Z</time></trkpt><trkpt lat="40.70760575197176" lon="17.524915549331897"><ele>232.0</ele><time>2026-03-29T14:41:30Z</time></trkpt><trkpt lat="40.70774040493859" lon="17.524653533165214"><ele>235.0</ele><time>2026-03-29T14:41:31Z</time></trkpt><trkpt lat="40.7078362531501" lon="17.52442440095699"><ele>238.0</ele><time>2026-03-29T14:41:32Z</time></trkpt><trkpt lat="40.70789284250299" lon="17.524126603856253"><ele>241.0</ele><time>2026-03-29T14:41:33Z</time></trkpt><trkpt lat="40.70792236986573" lon="17.523807689679614"><ele>241.0</ele><time>2026-03-29T14:41:34Z</time></trkpt><trkpt lat="40.70789208864909" lon="17.523482767222152"><ele>241.0</ele><time>2026-03-29T14:41:35Z</time></trkpt><trkpt lat="40.70783738951084" lon="17.523201631771812"><ele>241.0</ele><time>2026-03-29T14:41:36Z</time></trkpt><trkpt lat="40.707845622028756" lon="17.522950550782323"><ele>241.0</ele><time>2026-03-29T14:41:37Z</time></trkpt><trkpt lat="40.707910487962515" lon="17.522690424852176"><ele>241.0</ele><time>2026-03-29T14:41:38Z</time></trkpt><trkpt lat="40.707940585090036" lon="17.522362367508084"><ele>234.5</ele><time>2026-03-29T14:41:39Z</time></trkpt><trkpt lat="40.70815802090869" lon="17.52201483922988"><ele>228.0</ele><time>2026-03-29T14:41:40Z</time></trkpt><trkpt lat="40.708295984735074" lon="17.52161089286386"><ele>226.5</ele><time>2026-03-29T14:41:41Z</time></trkpt><trkpt lat="40.70843575476519" lon="17.52119659034487"><ele>225.0</ele><time>2026-03-29T14:41:42Z</time></trkpt><trkpt lat="40.708562145984466" lon="17.520815726032563"><ele>226.5</ele><time>2026-03-29T14:41:43Z</time></trkpt><trkpt lat="40.708667559573" lon="17.520455641766308"><ele>228.0</ele><time>2026-03-29T14:41:44Z</time></trkpt><trkpt lat="40.70877505628664" lon="17.52019682800139"><ele>228.0</ele><time>2026-03-29T14:41:45Z</time></trkpt><trkpt lat="40.70887958820797" lon="17.519938739408467"><ele>228.0</ele><time>2026-03-29T14:41:46Z</time></trkpt><trkpt lat="40.7089158313122" lon="17.51961235790997"><ele>226.0</ele><time>2026-03-29T14:41:47Z</time></trkpt><trkpt lat="40.708909496724594" lon="17.519281855408334"><ele>224.0</ele><time>2026-03-29T14:41:48Z</time></trkpt><trkpt lat="40.70884584568689" lon="17.51892879738619"><ele>224.0</ele><time>2026-03-29T14:41:49Z</time></trkpt><trkpt lat="40.70880030086049" lon="17.518537068297498"><ele>224.0</ele><time>2026-03-29T14:41:50Z</time></trkpt><trkpt lat="40.70868977408637" lon="17.518041068282887"><ele>224.5</ele><time>2026-03-29T14:41:51Z</time></trkpt><trkpt lat="40.70859034057904" lon="17.51764495624186"><ele>225.0</ele><time>2026-03-29T14:41:52Z</time></trkpt><trkpt lat="40.70850542973218" lon="17.517241551808247"><ele>226.0</ele><time>2026-03-29T14:41:53Z</time></trkpt><trkpt lat="40.70838124506175" lon="17.516800020297275"><ele>227.0</ele><time>2026-03-29T14:41:54Z</time></trkpt><trkpt lat="40.70823758724944" lon="17.51636651982928"><ele>229.5</ele><time>2026-03-29T14:41:55Z</time></trkpt><trkpt lat="40.708081271627044" lon="17.515924605789756"><ele>232.0</ele><time>2026-03-29T14:41:56Z</time></trkpt><trkpt lat="40.70792017963084" lon="17.51551107165342"><ele>232.5</ele><time>2026-03-29T14:41:57Z</time></trkpt><trkpt lat="40.70779182837851" lon="17.515113514774733"><ele>233.0</ele><time>2026-03-29T14:41:58Z</time></trkpt><trkpt lat="40.70766627915032" lon="17.514803591510507"><ele>234.0</ele><time>2026-03-29T14:41:59Z</time></trkpt><trkpt lat="40.707568087454014" lon="17.51452437466618"><ele>235.0</ele><time>2026-03-29T14:42:00Z</time></trkpt><trkpt lat="40.70748322271618" lon="17.514194384863757"><ele>235.0</ele><time>2026-03-29T14:42:01Z</time></trkpt><trkpt lat="40.70753293051567" lon="17.51384302332886"><ele>235.0</ele><time>2026-03-29T14:42:02Z</time></trkpt><trkpt lat="40.70764768663022" lon="17.51351009330523"><ele>238.0</ele><time>2026-03-29T14:42:03Z</time></trkpt><trkpt lat="40.70774506799075" lon="17.513163046667007"><ele>241.0</ele><time>2026-03-29T14:42:04Z</time></trkpt><trkpt lat="40.70783442043323" lon="17.51281850941406"><ele>242.0</ele><time>2026-03-29T14:42:05Z</time></trkpt><trkpt lat="40.70787297061348" lon="17.51247146162103"><ele>243.0</ele><time>2026-03-29T14:42:06Z</time></trkpt><trkpt lat="40.70789291865843" lon="17.51218194859608"><ele>243.0</ele><time>2026-03-29T14:42:07Z</time></trkpt><trkpt lat="40.70780380084223" lon="17.51186538604554"><ele>243.0</ele><time>2026-03-29T14:42:08Z</time></trkpt><trkpt lat="40.707648527825576" lon="17.511538252655217"><ele>241.5</ele><time>2026-03-29T14:42:09Z</time></trkpt><trkpt lat="40.70741304642625" lon="17.511265592379562"><ele>240.0</ele><time>2026-03-29T14:42:10Z</time></trkpt><trkpt lat="40.70740050478503" lon="17.51095679442813"><ele>239.66666666666669</ele><time>2026-03-29T14:42:11Z</time></trkpt><trkpt lat="40.70742311576694" lon="17.510657175297446"><ele>239.33333333333334</ele><time>2026-03-29T14:42:12Z</time></trkpt><trkpt lat="40.70745814246715" lon="17.510371157647196"><ele>239.0</ele><time>2026-03-29T14:42:13Z</time></trkpt><trkpt lat="40.7074829779585" lon="17.510097063756312"><ele>239.0</ele><time>2026-03-29T14:42:14Z</time></trkpt><trkpt lat="40.707548855340995" lon="17.509821076050613"><ele>239.0</ele><time>2026-03-29T14:42:15Z</time></trkpt><trkpt lat="40.707613142673196" lon="17.509522801001633"><ele>240.33333333333334</ele><time>2026-03-29T14:42:16Z</time></trkpt><trkpt lat="40.707649520122786" lon="17.5092569312283"><ele>241.66666666666669</ele><time>2026-03-29T14:42:16.999Z</time></trkpt><trkpt lat="40.707764804156255" lon="17.50903108155591"><ele>243.0</ele><time>2026-03-29T14:42:17.999Z</time></trkpt><trkpt lat="40.707617070240005" lon="17.508773325642693"><ele>243.0</ele><time>2026-03-29T14:42:18.999Z</time></trkpt><trkpt lat="40.70754869001269" lon="17.50855823610996"><ele>243.0</ele><time>2026-03-29T14:42:19.999Z</time></trkpt><trkpt lat="40.707417635627685" lon="17.508346465856746"><ele>243.0</ele><time>2026-03-29T14:42:20.999Z</time></trkpt><trkpt lat="40.70725021831635" lon="17.50810463915995"><ele>243.0</ele><time>2026-03-29T14:42:21.999Z</time></trkpt><trkpt lat="40.707078619165635" lon="17.50782452713254"><ele>243.0</ele><time>2026-03-29T14:42:22.999Z</time></trkpt><trkpt lat="40.706884729392954" lon="17.507556021280504"><ele>243.0</ele><time>2026-03-29T14:42:23.999Z</time></trkpt><trkpt lat="40.706730137194356" lon="17.507283097932053"><ele>243.0</ele><time>2026-03-29T14:42:24.999Z</time></trkpt><trkpt lat="40.70658720664671" lon="17.507034189160237"><ele>242.0</ele><time>2026-03-29T14:42:25.999Z</time></trkpt><trkpt lat="40.70646888551719" lon="17.506750475494677"><ele>241.0</ele><time>2026-03-29T14:42:26.999Z</time></trkpt><trkpt lat="40.70632807349334" lon="17.506410941018043"><ele>240.5</ele><time>2026-03-29T14:42:27.999Z</time></trkpt><trkpt lat="40.70611750650822" lon="17.50603615055611"><ele>240.0</ele><time>2026-03-29T14:42:28.999Z</time></trkpt><trkpt lat="40.70586001728176" lon="17.505694120137303"><ele>240.0</ele><time>2026-03-29T14:42:29.999Z</time></trkpt><trkpt lat="40.70564448251928" lon="17.505428133049822"><ele>240.0</ele><time>2026-03-29T14:42:30.999Z</time></trkpt><trkpt lat="40.705468294695365" lon="17.505195206467533"><ele>239.33333333333331</ele><time>2026-03-29T14:42:31.999Z</time></trkpt><trkpt lat="40.7053199511213" lon="17.504956775942436"><ele>238.66666666666666</ele><time>2026-03-29T14:42:32.999Z</time></trkpt><trkpt lat="40.70515393575178" lon="17.504789960670223"><ele>238.0</ele><time>2026-03-29T14:42:33.999Z</time></trkpt><trkpt lat="40.70508271824932" lon="17.50451528602257"><ele>236.5</ele><time>2026-03-29T14:42:34.999Z</time></trkpt><trkpt lat="40.705064678274795" lon="17.504176633053582"><ele>235.0</ele><time>2026-03-29T14:42:35.999Z</time></trkpt><trkpt lat="40.705094548911994" lon="17.503808379441708"><ele>236.0</ele><time>2026-03-29T14:42:36.999Z</time></trkpt><trkpt lat="40.70477882749854" lon="17.503514234983896"><ele>237.0</ele><time>2026-03-29T14:42:37.999Z</time></trkpt><trkpt lat="40.70497851432714" lon="17.503106139498193"><ele>239.5</ele><time>2026-03-29T14:42:38.999Z</time></trkpt><trkpt lat="40.70483531506237" lon="17.502764477701234"><ele>242.0</ele><time>2026-03-29T14:42:39.999Z</time></trkpt><trkpt lat="40.704718503757526" lon="17.502481585883643"><ele>242.0</ele><time>2026-03-29T14:42:40.999Z</time></trkpt><trkpt lat="40.70464888042152" lon="17.502178704955995"><ele>242.0</ele><time>2026-03-29T14:42:41.999Z</time></trkpt><trkpt lat="40.70463005827779" lon="17.501949778725407"><ele>242.0</ele><time>2026-03-29T14:42:42.999Z</time></trkpt><trkpt lat="40.704617366328485" lon="17.501702839124718"><ele>242.33333333333334</ele><time>2026-03-29T14:42:43.999Z</time></trkpt><trkpt lat="40.70461861771945" lon="17.501380527647676"><ele>242.66666666666669</ele><time>2026-03-29T14:42:44.999Z</time></trkpt><trkpt lat="40.704588987718225" lon="17.50111705776787"><ele>243.0</ele><time>2026-03-29T14:42:45.999Z</time></trkpt><trkpt lat="40.70454607819847" lon="17.50078968276691"><ele>242.33333333333331</ele><time>2026-03-29T14:42:46.999Z</time></trkpt><trkpt lat="40.70445625863849" lon="17.500516208596082"><ele>241.66666666666666</ele><time>2026-03-29T14:42:47.999Z</time></trkpt><trkpt lat="40.70439833785417" lon="17.50024301856526"><ele>241.0</ele><time>2026-03-29T14:42:48.999Z</time></trkpt><trkpt lat="40.70421523720469" lon="17.499956530601168"><ele>238.5</ele><time>2026-03-29T14:42:49.999Z</time></trkpt><trkpt lat="40.704019248746455" lon="17.499701554390285"><ele>236.0</ele><time>2026-03-29T14:42:50.999Z</time></trkpt><trkpt lat="40.70365882817641" lon="17.499484472279704"><ele>235.5</ele><time>2026-03-29T14:42:51.999Z</time></trkpt><trkpt lat="40.70337617511266" lon="17.499270378145944"><ele>235.0</ele><time>2026-03-29T14:42:52.999Z</time></trkpt><trkpt lat="40.70314824528269" lon="17.49903625365019"><ele>235.0</ele><time>2026-03-29T14:42:53.999Z</time></trkpt><trkpt lat="40.702936362601704" lon="17.49883089897134"><ele>235.0</ele><time>2026-03-29T14:42:54.999Z</time></trkpt><trkpt lat="40.70271230126094" lon="17.49861174748716"><ele>236.0</ele><time>2026-03-29T14:42:55.999Z</time></trkpt><trkpt lat="40.702543461952196" lon="17.498428582288586"><ele>237.0</ele><time>2026-03-29T14:42:56.999Z</time></trkpt><trkpt lat="40.702400599687486" lon="17.498252376788177"><ele>238.0</ele><time>2026-03-29T14:42:57.999Z</time></trkpt><trkpt lat="40.70224548465856" lon="17.49793388287544"><ele>240.0</ele><time>2026-03-29T14:42:58.999Z</time></trkpt><trkpt lat="40.70214596302267" lon="17.497664002874203"><ele>242.0</ele><time>2026-03-29T14:42:59.999Z</time></trkpt><trkpt lat="40.70208848999578" lon="17.497347913712428"><ele>245.5</ele><time>2026-03-29T14:43:00.999Z</time></trkpt><trkpt lat="40.70203735658098" lon="17.496987485051246"><ele>249.0</ele><time>2026-03-29T14:43:01.999Z</time></trkpt><trkpt lat="40.701960873919404" lon="17.496674515177304"><ele>249.5</ele><time>2026-03-29T14:43:02.999Z</time></trkpt><trkpt lat="40.70179965523941" lon="17.496390712438846"><ele>250.0</ele><time>2026-03-29T14:43:03.999Z</time></trkpt><trkpt lat="40.70160113448802" lon="17.496113507548504"><ele>251.5</ele><time>2026-03-29T14:43:04.999Z</time></trkpt><trkpt lat="40.701424921645696" lon="17.49587317906759"><ele>253.0</ele><time>2026-03-29T14:43:05.999Z</time></trkpt><trkpt lat="40.70128830147143" lon="17.495677951592942"><ele>253.0</ele><time>2026-03-29T14:43:06.999Z</time></trkpt><trkpt lat="40.7012087673391" lon="17.495448900126593"><ele>253.0</ele><time>2026-03-29T14:43:07.999Z</time></trkpt><trkpt lat="40.701125777219225" lon="17.49520935513753"><ele>253.0</ele><time>2026-03-29T14:43:08.999Z</time></trkpt><trkpt lat="40.7010876036067" lon="17.494956443683996"><ele>254.66666666666666</ele><time>2026-03-29T14:43:09.999Z</time></trkpt><trkpt lat="40.70109061700318" lon="17.494699913087203"><ele>256.3333333333333</ele><time>2026-03-29T14:43:10.999Z</time></trkpt><trkpt lat="40.70114443773256" lon="17.494404520486253"><ele>258.0</ele><time>2026-03-29T14:43:11.999Z</time></trkpt><trkpt lat="40.70122275649279" lon="17.494118801638372"><ele>259.3333333333333</ele><time>2026-03-29T14:43:12.999Z</time></trkpt><trkpt lat="40.70125482759418" lon="17.493835709353956"><ele>260.66666666666663</ele><time>2026-03-29T14:43:13.999Z</time></trkpt><trkpt lat="40.70125768522123" lon="17.49358286004169"><ele>262.0</ele><time>2026-03-29T14:43:14.999Z</time></trkpt><trkpt lat="40.70118886974805" lon="17.493285382994756"><ele>262.0</ele><time>2026-03-29T14:43:15.999Z</time></trkpt><trkpt lat="40.70109140992536" lon="17.49294352624848"><ele>262.0</ele><time>2026-03-29T14:43:16.999Z</time></trkpt><trkpt lat="40.70100994002597" lon="17.49261428961683"><ele>261.0</ele><time>2026-03-29T14:43:17.999Z</time></trkpt><trkpt lat="40.700951329870016" lon="17.492335448603495"><ele>260.0</ele><time>2026-03-29T14:43:18.999Z</time></trkpt><trkpt lat="40.70088464168172" lon="17.492115721636623"><ele>259.0</ele><time>2026-03-29T14:43:19.999Z</time></trkpt><trkpt lat="40.700867721707255" lon="17.491973244330737"><ele>258.4</ele><time>2026-03-29T14:43:20.999Z</time></trkpt><trkpt lat="40.70084041068598" lon="17.491850916688456"><ele>257.79999999999995</ele><time>2026-03-29T14:43:21.999Z</time></trkpt><trkpt lat="40.700835798067146" lon="17.491708216325733"><ele>257.20000000000005</ele><time>2026-03-29T14:43:22.999Z</time></trkpt><trkpt lat="40.70084792958501" lon="17.491607119049256"><ele>256.6</ele><time>2026-03-29T14:43:23.999Z</time></trkpt><trkpt lat="40.70088805725081" lon="17.49149837972933"><ele>256.0</ele><time>2026-03-29T14:43:24.999Z</time></trkpt><trkpt lat="40.700946019884064" lon="17.491425492587307"><ele>256.0</ele><time>2026-03-29T14:43:26Z</time></trkpt><trkpt lat="40.701016302182374" lon="17.491358875130857"><ele>256.0</ele><time>2026-03-29T14:43:27Z</time></trkpt><trkpt lat="40.70111427415139" lon="17.49128933583327"><ele>256.0</ele><time>2026-03-29T14:43:28Z</time></trkpt><trkpt lat="40.7012455469902" lon="17.491215830618238"><ele>256.0</ele><time>2026-03-29T14:43:29Z</time></trkpt><trkpt lat="40.701425959527896" lon="17.49115127801764"><ele>255.33333333333331</ele><time>2026-03-29T14:43:30Z</time></trkpt><trkpt lat="40.7016252887886" lon="17.491084311111628"><ele>254.66666666666669</ele><time>2026-03-29T14:43:31Z</time></trkpt><trkpt lat="40.701836695942674" lon="17.49101159305374"><ele>254.0</ele><time>2026-03-29T14:43:32Z</time></trkpt><trkpt lat="40.702126054482704" lon="17.490941020125963"><ele>252.5</ele><time>2026-03-29T14:43:33Z</time></trkpt><trkpt lat="40.70242062514749" lon="17.49085537686776"><ele>251.0</ele><time>2026-03-29T14:43:34Z</time></trkpt><trkpt lat="40.702726793744674" lon="17.490747073833575"><ele>249.5</ele><time>2026-03-29T14:43:35Z</time></trkpt><trkpt lat="40.70305492503898" lon="17.490619871132907"><ele>248.0</ele><time>2026-03-29T14:43:36Z</time></trkpt><trkpt lat="40.70336675789837" lon="17.49049236533901"><ele>247.0</ele><time>2026-03-29T14:43:37Z</time></trkpt><trkpt lat="40.70367657320182" lon="17.490358723403393"><ele>246.0</ele><time>2026-03-29T14:43:38Z</time></trkpt><trkpt lat="40.70401244256118" lon="17.490235117060724"><ele>246.0</ele><time>2026-03-29T14:43:39Z</time></trkpt><trkpt lat="40.704353635144905" lon="17.490094000823426"><ele>246.0</ele><time>2026-03-29T14:43:40Z</time></trkpt><trkpt lat="40.704702930326405" lon="17.48991986980311"><ele>246.0</ele><time>2026-03-29T14:43:41Z</time></trkpt><trkpt lat="40.70505307506922" lon="17.48970564763544"><ele>246.0</ele><time>2026-03-29T14:43:42Z</time></trkpt><trkpt lat="40.70541453848477" lon="17.489485084974618"><ele>247.0</ele><time>2026-03-29T14:43:43Z</time></trkpt><trkpt lat="40.705760777988935" lon="17.4892942133559"><ele>248.0</ele><time>2026-03-29T14:43:44Z</time></trkpt><trkpt lat="40.706091489429376" lon="17.489125078322765"><ele>248.0</ele><time>2026-03-29T14:43:45Z</time></trkpt><trkpt lat="40.70639389048281" lon="17.488980005794737"><ele>248.0</ele><time>2026-03-29T14:43:46Z</time></trkpt><trkpt lat="40.70667796826146" lon="17.48884333474638"><ele>247.5</ele><time>2026-03-29T14:43:47Z</time></trkpt><trkpt lat="40.70693261621621" lon="17.48871486783889"><ele>247.0</ele><time>2026-03-29T14:43:48Z</time></trkpt><trkpt lat="40.70715415103218" lon="17.488599669760337"><ele>247.0</ele><time>2026-03-29T14:43:49Z</time></trkpt><trkpt lat="40.70735305044127" lon="17.48851897015233"><ele>247.0</ele><time>2026-03-29T14:43:50Z</time></trkpt><trkpt lat="40.70754051621438" lon="17.488413987188547"><ele>247.0</ele><time>2026-03-29T14:43:51Z</time></trkpt><trkpt lat="40.707700506745084" lon="17.48828808913001"><ele>246.66666666666666</ele><time>2026-03-29T14:43:52Z</time></trkpt><trkpt lat="40.7078303109664" lon="17.488146967697176"><ele>246.33333333333331</ele><time>2026-03-29T14:43:53Z</time></trkpt><trkpt lat="40.70794946316797" lon="17.487983949307417"><ele>246.0</ele><time>2026-03-29T14:43:54Z</time></trkpt><trkpt lat="40.70809306956115" lon="17.487755601454925"><ele>246.0</ele><time>2026-03-29T14:43:55Z</time></trkpt><trkpt lat="40.70825751584006" lon="17.487495962854187"><ele>246.0</ele><time>2026-03-29T14:43:56Z</time></trkpt><trkpt lat="40.708432470079174" lon="17.487221619275147"><ele>246.0</ele><time>2026-03-29T14:43:57Z</time></trkpt><trkpt lat="40.70857398161643" lon="17.486912803998358"><ele>246.0</ele><time>2026-03-29T14:43:58Z</time></trkpt><trkpt lat="40.70870769009405" lon="17.486525627320702"><ele>245.5</ele><time>2026-03-29T14:43:59Z</time></trkpt><trkpt lat="40.708843430974966" lon="17.48613107197671"><ele>245.0</ele><time>2026-03-29T14:44:00Z</time></trkpt><trkpt lat="40.70892105177186" lon="17.48562533665044"><ele>245.0</ele><time>2026-03-29T14:44:01Z</time></trkpt><trkpt lat="40.709062142936304" lon="17.485181441901037"><ele>245.0</ele><time>2026-03-29T14:44:02Z</time></trkpt><trkpt lat="40.709201338445126" lon="17.484835948840143"><ele>245.0</ele><time>2026-03-29T14:44:03Z</time></trkpt><trkpt lat="40.709370631061084" lon="17.48445889005557"><ele>245.0</ele><time>2026-03-29T14:44:04Z</time></trkpt><trkpt lat="40.70954383673414" lon="17.484081228911798"><ele>244.5</ele><time>2026-03-29T14:44:05Z</time></trkpt><trkpt lat="40.70975765529104" lon="17.483692189200706"><ele>244.0</ele><time>2026-03-29T14:44:06Z</time></trkpt><trkpt lat="40.71001064112498" lon="17.483305843926072"><ele>244.0</ele><time>2026-03-29T14:44:07Z</time></trkpt><trkpt lat="40.71027824099363" lon="17.482903047001162"><ele>244.0</ele><time>2026-03-29T14:44:08Z</time></trkpt><trkpt lat="40.71050925488893" lon="17.482520791587937"><ele>244.0</ele><time>2026-03-29T14:44:09Z</time></trkpt><trkpt lat="40.71073053558157" lon="17.48216479172016"><ele>244.0</ele><time>2026-03-29T14:44:10Z</time></trkpt><trkpt lat="40.710966493633784" lon="17.48181389158411"><ele>244.5</ele><time>2026-03-29T14:44:11Z</time></trkpt><trkpt lat="40.71122201358794" lon="17.481467241754128"><ele>245.0</ele><time>2026-03-29T14:44:12Z</time></trkpt><trkpt lat="40.71149800630228" lon="17.481110280391555"><ele>244.0</ele><time>2026-03-29T14:44:13Z</time></trkpt><trkpt lat="40.711786157639835" lon="17.480748336619094"><ele>243.0</ele><time>2026-03-29T14:44:14Z</time></trkpt><trkpt lat="40.71210819470513" lon="17.48037562462801"><ele>243.0</ele><time>2026-03-29T14:44:15Z</time></trkpt><trkpt lat="40.7124374145769" lon="17.479998705537987"><ele>243.0</ele><time>2026-03-29T14:44:16Z</time></trkpt><trkpt lat="40.71276897527968" lon="17.479612916386426"><ele>243.0</ele><time>2026-03-29T14:44:17Z</time></trkpt><trkpt lat="40.71310151926257" lon="17.47920954877323"><ele>243.0</ele><time>2026-03-29T14:44:18Z</time></trkpt><trkpt lat="40.713430683041" lon="17.478814472436927"><ele>243.0</ele><time>2026-03-29T14:44:19Z</time></trkpt><trkpt lat="40.71374626381583" lon="17.478435463525653"><ele>243.0</ele><time>2026-03-29T14:44:20Z</time></trkpt><trkpt lat="40.714054860917734" lon="17.478041817076548"><ele>243.0</ele><time>2026-03-29T14:44:21Z</time></trkpt><trkpt lat="40.714334195532565" lon="17.477669858925587"><ele>243.5</ele><time>2026-03-29T14:44:22Z</time></trkpt><trkpt lat="40.714618234905984" lon="17.477254467249086"><ele>244.0</ele><time>2026-03-29T14:44:23Z</time></trkpt><trkpt lat="40.71488088452855" lon="17.476855489085743"><ele>244.0</ele><time>2026-03-29T14:44:24Z</time></trkpt><trkpt lat="40.71512020449614" lon="17.47647607497094"><ele>244.0</ele><time>2026-03-29T14:44:25Z</time></trkpt><trkpt lat="40.71534768774701" lon="17.476177974757917"><ele>244.5</ele><time>2026-03-29T14:44:26Z</time></trkpt><trkpt lat="40.71552931076315" lon="17.47591888750296"><ele>245.0</ele><time>2026-03-29T14:44:27Z</time></trkpt><trkpt lat="40.715746170752695" lon="17.475604086201322"><ele>245.0</ele><time>2026-03-29T14:44:28Z</time></trkpt><trkpt lat="40.71596976189531" lon="17.47523905549583"><ele>245.0</ele><time>2026-03-29T14:44:29Z</time></trkpt><trkpt lat="40.71618259779782" lon="17.474826755427454"><ele>245.0</ele><time>2026-03-29T14:44:30Z</time></trkpt><trkpt lat="40.71636536010817" lon="17.474389239412815"><ele>245.0</ele><time>2026-03-29T14:44:30.999Z</time></trkpt><trkpt lat="40.7165210928916" lon="17.473907051024455"><ele>244.5</ele><time>2026-03-29T14:44:31.999Z</time></trkpt><trkpt lat="40.716657152432276" lon="17.473395229888087"><ele>244.0</ele><time>2026-03-29T14:44:32.999Z</time></trkpt><trkpt lat="40.716760603301076" lon="17.472861697890544"><ele>244.5</ele><time>2026-03-29T14:44:33.999Z</time></trkpt><trkpt lat="40.71686226872322" lon="17.47229816457076"><ele>245.0</ele><time>2026-03-29T14:44:34.999Z</time></trkpt><trkpt lat="40.71694164059642" lon="17.47173189909495"><ele>245.5</ele><time>2026-03-29T14:44:35.999Z</time></trkpt><trkpt lat="40.716990102916206" lon="17.471215451440155"><ele>246.0</ele><time>2026-03-29T14:44:36.999Z</time></trkpt><trkpt lat="40.71701893214826" lon="17.470786994098468"><ele>249.0</ele><time>2026-03-29T14:44:37.999Z</time></trkpt><trkpt lat="40.717076000486415" lon="17.470411299255556"><ele>252.0</ele><time>2026-03-29T14:44:38.999Z</time></trkpt><trkpt lat="40.71716899457801" lon="17.470085161055355"><ele>252.0</ele><time>2026-03-29T14:44:39.999Z</time></trkpt><trkpt lat="40.71727476195047" lon="17.469760515646833"><ele>252.0</ele><time>2026-03-29T14:44:40.999Z</time></trkpt><trkpt lat="40.7173865026516" lon="17.46946920076497"><ele>252.5</ele><time>2026-03-29T14:44:41.999Z</time></trkpt><trkpt lat="40.71748878766067" lon="17.469159245326814"><ele>253.0</ele><time>2026-03-29T14:44:42.999Z</time></trkpt><trkpt lat="40.717552345432104" lon="17.46881395658076"><ele>251.5</ele><time>2026-03-29T14:44:43.999Z</time></trkpt><trkpt lat="40.717564176839964" lon="17.468455953023216"><ele>250.0</ele><time>2026-03-29T14:44:44.999Z</time></trkpt><trkpt lat="40.71755640239417" lon="17.468069326512243"><ele>251.0</ele><time>2026-03-29T14:44:45.999Z</time></trkpt><trkpt lat="40.717562791635515" lon="17.46765350446761"><ele>252.0</ele><time>2026-03-29T14:44:46.999Z</time></trkpt><trkpt lat="40.717546973823254" lon="17.46722578500822"><ele>253.5</ele><time>2026-03-29T14:44:47.999Z</time></trkpt><trkpt lat="40.71756152434121" lon="17.466830194011116"><ele>255.0</ele><time>2026-03-29T14:44:48.999Z</time></trkpt><trkpt lat="40.71760702306702" lon="17.466465975379943"><ele>256.0</ele><time>2026-03-29T14:44:49.999Z</time></trkpt><trkpt lat="40.71769976609767" lon="17.46608250864734"><ele>257.0</ele><time>2026-03-29T14:44:50.999Z</time></trkpt><trkpt lat="40.717820586867916" lon="17.465705257710514"><ele>258.0</ele><time>2026-03-29T14:44:51.999Z</time></trkpt><trkpt lat="40.71798142519986" lon="17.46530398382529"><ele>259.0</ele><time>2026-03-29T14:44:52.999Z</time></trkpt><trkpt lat="40.718163665429636" lon="17.4648793006284"><ele>259.5</ele><time>2026-03-29T14:44:53.999Z</time></trkpt><trkpt lat="40.718349729328" lon="17.46443130731609"><ele>260.0</ele><time>2026-03-29T14:44:54.999Z</time></trkpt><trkpt lat="40.718523677780674" lon="17.463966869008384"><ele>260.0</ele><time>2026-03-29T14:44:55.999Z</time></trkpt><trkpt lat="40.71870984084141" lon="17.463487188034367"><ele>260.0</ele><time>2026-03-29T14:44:56.999Z</time></trkpt><trkpt lat="40.71890551859914" lon="17.462990188634638"><ele>260.0</ele><time>2026-03-29T14:44:57.999Z</time></trkpt><trkpt lat="40.719113890369464" lon="17.462475278199356"><ele>260.0</ele><time>2026-03-29T14:44:58.999Z</time></trkpt><trkpt lat="40.71931940166977" lon="17.46196504613414"><ele>256.0</ele><time>2026-03-29T14:44:59.999Z</time></trkpt><trkpt lat="40.71952959864882" lon="17.461357756646805"><ele>258.5</ele><time>2026-03-29T14:45:00.999Z</time></trkpt><trkpt lat="40.71973715582526" lon="17.46084312857947"><ele>261.0</ele><time>2026-03-29T14:45:01.999Z</time></trkpt><trkpt lat="40.71994162146497" lon="17.4603314150837"><ele>263.5</ele><time>2026-03-29T14:45:02.999Z</time></trkpt><trkpt lat="40.720117589137715" lon="17.459863975802875"><ele>266.0</ele><time>2026-03-29T14:45:03.999Z</time></trkpt><trkpt lat="40.72026953319701" lon="17.459487518490693"><ele>267.5</ele><time>2026-03-29T14:45:04.999Z</time></trkpt><trkpt lat="40.72040309255328" lon="17.459144416792626"><ele>269.0</ele><time>2026-03-29T14:45:05.999Z</time></trkpt><trkpt lat="40.72050564446313" lon="17.45883144620141"><ele>270.0</ele><time>2026-03-29T14:45:06.999Z</time></trkpt><trkpt lat="40.72056247202925" lon="17.45851511311762"><ele>271.0</ele><time>2026-03-29T14:45:07.999Z</time></trkpt><trkpt lat="40.720575036392184" lon="17.458173934568162"><ele>271.0</ele><time>2026-03-29T14:45:08.999Z</time></trkpt><trkpt lat="40.72056112159745" lon="17.45782201091528"><ele>271.0</ele><time>2026-03-29T14:45:09.999Z</time></trkpt><trkpt lat="40.72057365287452" lon="17.457452415445488"><ele>273.0</ele><time>2026-03-29T14:45:10.999Z</time></trkpt><trkpt lat="40.72064517991926" lon="17.45707543671483"><ele>275.0</ele><time>2026-03-29T14:45:11.999Z</time></trkpt><trkpt lat="40.72075158448236" lon="17.456677625971654"><ele>275.0</ele><time>2026-03-29T14:45:12.999Z</time></trkpt><trkpt lat="40.720868194855214" lon="17.45630140660469"><ele>275.0</ele><time>2026-03-29T14:45:13.999Z</time></trkpt><trkpt lat="40.72097545256341" lon="17.455824209314272"><ele>278.0</ele><time>2026-03-29T14:45:14.999Z</time></trkpt><trkpt lat="40.721051277379495" lon="17.45536358783357"><ele>281.0</ele><time>2026-03-29T14:45:15.999Z</time></trkpt><trkpt lat="40.721117512026574" lon="17.45489545483515"><ele>283.5</ele><time>2026-03-29T14:45:16.999Z</time></trkpt><trkpt lat="40.721189705617725" lon="17.45437486927844"><ele>286.0</ele><time>2026-03-29T14:45:17.999Z</time></trkpt><trkpt lat="40.72125521250187" lon="17.453932099417198"><ele>288.5</ele><time>2026-03-29T14:45:18.999Z</time></trkpt><trkpt lat="40.72132793704289" lon="17.453543220004804"><ele>291.0</ele><time>2026-03-29T14:45:19.999Z</time></trkpt><trkpt lat="40.72138740934653" lon="17.453157593956373"><ele>293.5</ele><time>2026-03-29T14:45:20.999Z</time></trkpt><trkpt lat="40.72144270587372" lon="17.452808220535083"><ele>296.0</ele><time>2026-03-29T14:45:21.999Z</time></trkpt><trkpt lat="40.72151781283675" lon="17.452475958002466"><ele>301.0</ele><time>2026-03-29T14:45:22.999Z</time></trkpt><trkpt lat="40.721648540033726" lon="17.45212027230293"><ele>306.0</ele><time>2026-03-29T14:45:23.999Z</time></trkpt><trkpt lat="40.72180201948952" lon="17.451742202678183"><ele>306.5</ele><time>2026-03-29T14:45:24.999Z</time></trkpt><trkpt lat="40.721952494528495" lon="17.451340900276616"><ele>307.0</ele><time>2026-03-29T14:45:25.999Z</time></trkpt><trkpt lat="40.72211821000125" lon="17.450938994316868"><ele>307.0</ele><time>2026-03-29T14:45:26.999Z</time></trkpt><trkpt lat="40.722254470185824" lon="17.450626734247557"><ele>307.0</ele><time>2026-03-29T14:45:27.999Z</time></trkpt><trkpt lat="40.722382680345106" lon="17.450314335675216"><ele>309.5</ele><time>2026-03-29T14:45:28.999Z</time></trkpt><trkpt lat="40.72249566231188" lon="17.45003739375932"><ele>312.0</ele><time>2026-03-29T14:45:29.999Z</time></trkpt><trkpt lat="40.72259534668343" lon="17.449760038612165"><ele>313.0</ele><time>2026-03-29T14:45:30.999Z</time></trkpt><trkpt lat="40.722682103948074" lon="17.44949367066737"><ele>314.0</ele><time>2026-03-29T14:45:32Z</time></trkpt><trkpt lat="40.72273305706249" lon="17.449233708991205"><ele>315.0</ele><time>2026-03-29T14:45:33Z</time></trkpt><trkpt lat="40.722794384227086" lon="17.448996474439273"><ele>317.0</ele><time>2026-03-29T14:45:34Z</time></trkpt><trkpt lat="40.7228153128593" lon="17.448732689842473"><ele>319.0</ele><time>2026-03-29T14:45:35Z</time></trkpt><trkpt lat="40.72284143592215" lon="17.448434101030834"><ele>321.0</ele><time>2026-03-29T14:45:36Z</time></trkpt><trkpt lat="40.722852155588505" lon="17.448112118686677"><ele>322.0</ele><time>2026-03-29T14:45:37Z</time></trkpt><trkpt lat="40.722865133159765" lon="17.447795400058332"><ele>323.0</ele><time>2026-03-29T14:45:38Z</time></trkpt><trkpt lat="40.722877889251485" lon="17.447475414948094"><ele>323.0</ele><time>2026-03-29T14:45:39Z</time></trkpt><trkpt lat="40.72289711086133" lon="17.447140910583556"><ele>323.0</ele><time>2026-03-29T14:45:40Z</time></trkpt><trkpt lat="40.72291409621286" lon="17.446822815010393"><ele>323.0</ele><time>2026-03-29T14:45:41Z</time></trkpt><trkpt lat="40.72297388053822" lon="17.446482950732396"><ele>323.0</ele><time>2026-03-29T14:45:42Z</time></trkpt><trkpt lat="40.72305690033501" lon="17.446141365648064"><ele>320.5</ele><time>2026-03-29T14:45:43Z</time></trkpt><trkpt lat="40.72317239643166" lon="17.44581392382021"><ele>318.0</ele><time>2026-03-29T14:45:44Z</time></trkpt><trkpt lat="40.72331759331311" lon="17.44550358812916"><ele>317.0</ele><time>2026-03-29T14:45:45Z</time></trkpt><trkpt lat="40.7235081685849" lon="17.44520311408369"><ele>316.0</ele><time>2026-03-29T14:45:46Z</time></trkpt><trkpt lat="40.72375208785589" lon="17.444907385341168"><ele>314.5</ele><time>2026-03-29T14:45:47Z</time></trkpt><trkpt lat="40.72401831707771" lon="17.444609444801635"><ele>313.0</ele><time>2026-03-29T14:45:48Z</time></trkpt><trkpt lat="40.72434469156683" lon="17.444317411668074"><ele>312.5</ele><time>2026-03-29T14:45:49Z</time></trkpt><trkpt lat="40.7246629247105" lon="17.444004929921128"><ele>312.0</ele><time>2026-03-29T14:45:50Z</time></trkpt><trkpt lat="40.724989606534805" lon="17.44368979384792"><ele>312.5</ele><time>2026-03-29T14:45:51Z</time></trkpt><trkpt lat="40.72530745233941" lon="17.443380666015184"><ele>313.0</ele><time>2026-03-29T14:45:52Z</time></trkpt><trkpt lat="40.72563091529282" lon="17.443083930132502"><ele>313.5</ele><time>2026-03-29T14:45:53Z</time></trkpt><trkpt lat="40.72591709875372" lon="17.442799231237267"><ele>314.0</ele><time>2026-03-29T14:45:54Z</time></trkpt><trkpt lat="40.726192306609924" lon="17.44249031166016"><ele>314.0</ele><time>2026-03-29T14:45:55Z</time></trkpt><trkpt lat="40.72643679272555" lon="17.442230303586157"><ele>314.0</ele><time>2026-03-29T14:45:56Z</time></trkpt><trkpt lat="40.72666674016309" lon="17.442007175570296"><ele>314.0</ele><time>2026-03-29T14:45:57Z</time></trkpt><trkpt lat="40.726902263299216" lon="17.441788348235434"><ele>314.0</ele><time>2026-03-29T14:45:58Z</time></trkpt><trkpt lat="40.727176216452456" lon="17.441567163254543"><ele>314.0</ele><time>2026-03-29T14:45:59Z</time></trkpt><trkpt lat="40.727460997579385" lon="17.441341669363837"><ele>314.0</ele><time>2026-03-29T14:46:00Z</time></trkpt><trkpt lat="40.72764715947647" lon="17.44108552427201"><ele>314.0</ele><time>2026-03-29T14:46:01Z</time></trkpt><trkpt lat="40.727903181590676" lon="17.440849721443257"><ele>314.0</ele><time>2026-03-29T14:46:02Z</time></trkpt><trkpt lat="40.72811181206507" lon="17.440664515254266"><ele>314.0</ele><time>2026-03-29T14:46:03Z</time></trkpt><trkpt lat="40.728289647220855" lon="17.440501194201378"><ele>314.0</ele><time>2026-03-29T14:46:04Z</time></trkpt><trkpt lat="40.72840237062416" lon="17.44028364928804"><ele>314.0</ele><time>2026-03-29T14:46:05Z</time></trkpt><trkpt lat="40.72857034616735" lon="17.44013108467274"><ele>314.5</ele><time>2026-03-29T14:46:06Z</time></trkpt><trkpt lat="40.72878474599177" lon="17.4399196248233"><ele>315.0</ele><time>2026-03-29T14:46:07Z</time></trkpt><trkpt lat="40.72913383978233" lon="17.439571763300023"><ele>316.5</ele><time>2026-03-29T14:46:08Z</time></trkpt><trkpt lat="40.72939376370237" lon="17.439272871520068"><ele>318.0</ele><time>2026-03-29T14:46:09Z</time></trkpt><trkpt lat="40.72968743533814" lon="17.43900130591355"><ele>317.0</ele><time>2026-03-29T14:46:10Z</time></trkpt><trkpt lat="40.729995823598344" lon="17.438692796303492"><ele>316.0</ele><time>2026-03-29T14:46:11Z</time></trkpt><trkpt lat="40.730307403642605" lon="17.438388347244498"><ele>317.5</ele><time>2026-03-29T14:46:12Z</time></trkpt><trkpt lat="40.73059863943192" lon="17.438112584896377"><ele>319.0</ele><time>2026-03-29T14:46:13Z</time></trkpt><trkpt lat="40.7308981350854" lon="17.437823181697386"><ele>321.5</ele><time>2026-03-29T14:46:14Z</time></trkpt><trkpt lat="40.73120287299171" lon="17.43752100838886"><ele>324.0</ele><time>2026-03-29T14:46:15Z</time></trkpt><trkpt lat="40.731513173223064" lon="17.437210683083528"><ele>323.0</ele><time>2026-03-29T14:46:16Z</time></trkpt><trkpt lat="40.73182713442008" lon="17.43685306316464"><ele>322.0</ele><time>2026-03-29T14:46:17Z</time></trkpt><trkpt lat="40.73213345662036" lon="17.436570201947386"><ele>322.0</ele><time>2026-03-29T14:46:18Z</time></trkpt><trkpt lat="40.73245136372519" lon="17.436325220654865"><ele>322.0</ele><time>2026-03-29T14:46:19Z</time></trkpt><trkpt lat="40.73267085259352" lon="17.4360825914834"><ele>324.5</ele><time>2026-03-29T14:46:20Z</time></trkpt><trkpt lat="40.73288144492254" lon="17.4358494632578"><ele>327.0</ele><time>2026-03-29T14:46:21Z</time></trkpt><trkpt lat="40.73309117465974" lon="17.43564518673436"><ele>326.0</ele><time>2026-03-29T14:46:22Z</time></trkpt><trkpt lat="40.733282314280686" lon="17.43546478922657"><ele>325.0</ele><time>2026-03-29T14:46:23Z</time></trkpt><trkpt lat="40.73347473814677" lon="17.435275746338736"><ele>327.3333333333333</ele><time>2026-03-29T14:46:24Z</time></trkpt><trkpt lat="40.733673009757844" lon="17.435100730519"><ele>329.6666666666667</ele><time>2026-03-29T14:46:25Z</time></trkpt><trkpt lat="40.73385160579321" lon="17.434965782263227"><ele>332.0</ele><time>2026-03-29T14:46:26Z</time></trkpt><trkpt lat="40.73401720259719" lon="17.434858539076526"><ele>332.0</ele><time>2026-03-29T14:46:27Z</time></trkpt><trkpt lat="40.73416763417548" lon="17.43478484867799"><ele>332.0</ele><time>2026-03-29T14:46:28Z</time></trkpt><trkpt lat="40.73429602553197" lon="17.434728234490276"><ele>332.0</ele><time>2026-03-29T14:46:29Z</time></trkpt><trkpt lat="40.73439939976798" lon="17.43466300311962"><ele>332.0</ele><time>2026-03-29T14:46:30Z</time></trkpt><trkpt lat="40.734464627983385" lon="17.43462889930791"><ele>332.83333333333337</ele><time>2026-03-29T14:46:31Z</time></trkpt><trkpt lat="40.73455476382612" lon="17.43460642175751"><ele>333.6666666666667</ele><time>2026-03-29T14:46:32Z</time></trkpt><trkpt lat="40.734631933306815" lon="17.434610587602098"><ele>334.5</ele><time>2026-03-29T14:46:33Z</time></trkpt><trkpt lat="40.734700622188775" lon="17.434630368317013"><ele>335.3333333333333</ele><time>2026-03-29T14:46:34Z</time></trkpt><trkpt lat="40.7347495491981" lon="17.434684985434863"><ele>336.16666666666663</ele><time>2026-03-29T14:46:34.999Z</time></trkpt><trkpt lat="40.73481802071414" lon="17.43464327233082"><ele>337.0</ele><time>2026-03-29T14:46:35.999Z</time></trkpt><trkpt lat="40.734860011004024" lon="17.434566468848654"><ele>337.0</ele><time>2026-03-29T14:46:36.999Z</time></trkpt><trkpt lat="40.73492770090992" lon="17.43446573357009"><ele>337.0</ele><time>2026-03-29T14:46:37.999Z</time></trkpt><trkpt lat="40.73501566638687" lon="17.43436776434943"><ele>337.0</ele><time>2026-03-29T14:46:38.999Z</time></trkpt><trkpt lat="40.735074600728765" lon="17.43429466545268"><ele>337.0</ele><time>2026-03-29T14:46:39.999Z</time></trkpt><trkpt lat="40.7351752603507" lon="17.434227890626754"><ele>337.0</ele><time>2026-03-29T14:46:40.999Z</time></trkpt><trkpt lat="40.73530419012752" lon="17.434169433063932"><ele>340.0</ele><time>2026-03-29T14:46:41.999Z</time></trkpt><trkpt lat="40.73545257163908" lon="17.4340656790211"><ele>343.0</ele><time>2026-03-29T14:46:42.999Z</time></trkpt><trkpt lat="40.73559578011218" lon="17.433996740201195"><ele>346.0</ele><time>2026-03-29T14:46:43.999Z</time></trkpt><trkpt lat="40.7357385565642" lon="17.433854178034327"><ele>347.66666666666663</ele><time>2026-03-29T14:46:44.999Z</time></trkpt><trkpt lat="40.735899079759534" lon="17.43371280468161"><ele>349.3333333333333</ele><time>2026-03-29T14:46:45.999Z</time></trkpt><trkpt lat="40.736028520148515" lon="17.43357646554848"><ele>351.0</ele><time>2026-03-29T14:46:46.999Z</time></trkpt><trkpt lat="40.73613706796603" lon="17.433463332014153"><ele>351.0</ele><time>2026-03-29T14:46:47.999Z</time></trkpt><trkpt lat="40.736249072662915" lon="17.433347639408755"><ele>351.0</ele><time>2026-03-29T14:46:48.999Z</time></trkpt><trkpt lat="40.736366959615204" lon="17.43323500901452"><ele>351.0</ele><time>2026-03-29T14:46:49.999Z</time></trkpt><trkpt lat="40.73647783618496" lon="17.433125809763197"><ele>351.0</ele><time>2026-03-29T14:46:50.999Z</time></trkpt><trkpt lat="40.736582341699794" lon="17.433022715185444"><ele>353.0</ele><time>2026-03-29T14:46:51.999Z</time></trkpt><trkpt lat="40.736637633931615" lon="17.43292594037837"><ele>355.0</ele><time>2026-03-29T14:46:52.999Z</time></trkpt><trkpt lat="40.7368257863367" lon="17.43275298465361"><ele>357.0</ele><time>2026-03-29T14:46:53.999Z</time></trkpt><trkpt lat="40.73696091913437" lon="17.43263560852549"><ele>357.0</ele><time>2026-03-29T14:46:54.999Z</time></trkpt><trkpt lat="40.73708783848567" lon="17.43253700641329"><ele>357.0</ele><time>2026-03-29T14:46:55.999Z</time></trkpt><trkpt lat="40.73720891212618" lon="17.43243802207559"><ele>357.0</ele><time>2026-03-29T14:46:56.999Z</time></trkpt><trkpt lat="40.73732537107534" lon="17.432353413107283"><ele>357.0</ele><time>2026-03-29T14:46:57.999Z</time></trkpt><trkpt lat="40.73745430819056" lon="17.432244795750197"><ele>357.3333333333333</ele><time>2026-03-29T14:46:58.999Z</time></trkpt><trkpt lat="40.737575404283504" lon="17.432128958339543"><ele>357.66666666666663</ele><time>2026-03-29T14:46:59.999Z</time></trkpt><trkpt lat="40.73770750353073" lon="17.432019562500518"><ele>358.0</ele><time>2026-03-29T14:47:00.999Z</time></trkpt><trkpt lat="40.73783939233034" lon="17.43189832654733"><ele>358.0</ele><time>2026-03-29T14:47:01.999Z</time></trkpt><trkpt lat="40.73798705161294" lon="17.431780428897607"><ele>358.0</ele><time>2026-03-29T14:47:02.999Z</time></trkpt><trkpt lat="40.73812825876996" lon="17.431681826435927"><ele>358.0</ele><time>2026-03-29T14:47:03.999Z</time></trkpt><trkpt lat="40.73827474699861" lon="17.431573285206067"><ele>358.0</ele><time>2026-03-29T14:47:04.999Z</time></trkpt><trkpt lat="40.73838125240622" lon="17.431463754007844"><ele>358.0</ele><time>2026-03-29T14:47:05.999Z</time></trkpt><trkpt lat="40.7384944683138" lon="17.431356474211583"><ele>358.0</ele><time>2026-03-29T14:47:06.999Z</time></trkpt><trkpt lat="40.738616343671865" lon="17.431283878361803"><ele>358.0</ele><time>2026-03-29T14:47:07.999Z</time></trkpt><trkpt lat="40.73873369734473" lon="17.431229740073586"><ele>359.25</ele><time>2026-03-29T14:47:08.999Z</time></trkpt><trkpt lat="40.738867367608655" lon="17.431188366656578"><ele>360.5</ele><time>2026-03-29T14:47:09.999Z</time></trkpt><trkpt lat="40.73900116084644" lon="17.431165791822593"><ele>361.75</ele><time>2026-03-29T14:47:10.999Z</time></trkpt><trkpt lat="40.739128836506346" lon="17.4311738980376"><ele>363.0</ele><time>2026-03-29T14:47:11.999Z</time></trkpt><trkpt lat="40.73923540372302" lon="17.43119568336612"><ele>363.0</ele><time>2026-03-29T14:47:12.999Z</time></trkpt><trkpt lat="40.7393393432357" lon="17.43121528259038"><ele>363.0</ele><time>2026-03-29T14:47:13.999Z</time></trkpt><trkpt lat="40.73946835215371" lon="17.43124520627252"><ele>363.0</ele><time>2026-03-29T14:47:14.999Z</time></trkpt><trkpt lat="40.73958167524573" lon="17.431274866588637"><ele>363.0</ele><time>2026-03-29T14:47:15.999Z</time></trkpt><trkpt lat="40.739672874421196" lon="17.431303076625152"><ele>363.0</ele><time>2026-03-29T14:47:16.999Z</time></trkpt><trkpt lat="40.739764408188" lon="17.431334644627867"><ele>363.3333333333333</ele><time>2026-03-29T14:47:17.999Z</time></trkpt><trkpt lat="40.739853272273756" lon="17.431355242882383"><ele>363.6666666666667</ele><time>2026-03-29T14:47:18.999Z</time></trkpt><trkpt lat="40.7399228035317" lon="17.431376721713082"><ele>364.0</ele><time>2026-03-29T14:47:19.999Z</time></trkpt><trkpt lat="40.74002758303896" lon="17.431396820434305"><ele>364.33333333333337</ele><time>2026-03-29T14:47:21.999Z</time></trkpt><trkpt lat="40.74010787988966" lon="17.43142379695973"><ele>364.6666666666667</ele><time>2026-03-29T14:47:22.999Z</time></trkpt><trkpt lat="40.74018481561944" lon="17.431448430083076"><ele>365.0</ele><time>2026-03-29T14:47:23.999Z</time></trkpt><trkpt lat="40.740254489729544" lon="17.431501022280308"><ele>365.0</ele><time>2026-03-29T14:47:24.999Z</time></trkpt><trkpt lat="40.74032040394949" lon="17.43159781370058"><ele>365.0</ele><time>2026-03-29T14:47:25.999Z</time></trkpt><trkpt lat="40.74038482719853" lon="17.431690803289516"><ele>365.0</ele><time>2026-03-29T14:47:26.999Z</time></trkpt><trkpt lat="40.74046842531181" lon="17.43180794190694"><ele>365.0</ele><time>2026-03-29T14:47:27.999Z</time></trkpt><trkpt lat="40.74052562377009" lon="17.431887283643043"><ele>365.0</ele><time>2026-03-29T14:47:28.999Z</time></trkpt><trkpt lat="40.74056911766293" lon="17.431950672259124"><ele>365.0</ele><time>2026-03-29T14:47:29.999Z</time></trkpt><trkpt lat="40.74066473471894" lon="17.432069125212948"><ele>365.0</ele><time>2026-03-29T14:47:30.999Z</time></trkpt><trkpt lat="40.74076620207391" lon="17.432138100824154"><ele>365.0</ele><time>2026-03-29T14:47:31.999Z</time></trkpt><trkpt lat="40.74087433681023" lon="17.432182879840052"><ele>365.0</ele><time>2026-03-29T14:47:32.999Z</time></trkpt><trkpt lat="40.74095922030474" lon="17.43227549684896"><ele>364.5</ele><time>2026-03-29T14:47:34.999Z</time></trkpt><trkpt lat="40.741027339699436" lon="17.43230856339071"><ele>364.0</ele><time>2026-03-29T14:47:35.999Z</time></trkpt><trkpt lat="40.74113583454495" lon="17.432342024407788"><ele>363.5</ele><time>2026-03-29T14:47:38Z</time></trkpt><trkpt lat="40.74119719648504" lon="17.432318246062938"><ele>363.0</ele><time>2026-03-29T14:47:39Z</time></trkpt><trkpt lat="40.74124503304357" lon="17.43225841500788"><ele>362.5</ele><time>2026-03-29T14:47:40Z</time></trkpt><trkpt lat="40.74131644257496" lon="17.432199628993825"><ele>362.0</ele><time>2026-03-29T14:47:42Z</time></trkpt><trkpt lat="40.74123557126148" lon="17.432013803088072"><ele>361.5</ele><time>2026-03-29T14:47:43Z</time></trkpt><trkpt lat="40.74116933871459" lon="17.431938010611738"><ele>361.0</ele><time>2026-03-29T14:47:46Z</time></trkpt><trkpt lat="40.741033370075776" lon="17.431813093000923"><ele>360.5</ele><time>2026-03-29T14:47:48Z</time></trkpt><trkpt lat="40.740969166006124" lon="17.43173183103924"><ele>360.0</ele><time>2026-03-29T14:47:49Z</time></trkpt><trkpt lat="40.74096398493052" lon="17.431551783536346"><ele>361.0</ele><time>2026-03-29T14:47:50Z</time></trkpt><trkpt lat="40.740943597452215" lon="17.43143327011627"><ele>362.0</ele><time>2026-03-29T14:47:51Z</time></trkpt><trkpt lat="40.74091894893905" lon="17.431284819821244"><ele>363.0</ele><time>2026-03-29T14:47:52Z</time></trkpt><trkpt lat="40.740893717988996" lon="17.431164226872326"><ele>364.0</ele><time>2026-03-29T14:47:53Z</time></trkpt><trkpt lat="40.74087250667566" lon="17.43103571316611"><ele>365.0</ele><time>2026-03-29T14:47:54Z</time></trkpt><trkpt lat="40.74086267702568" lon="17.430880332476463"><ele>366.25</ele><time>2026-03-29T14:47:55Z</time></trkpt><trkpt lat="40.74086927585029" lon="17.43071200649054"><ele>367.5</ele><time>2026-03-29T14:47:56Z</time></trkpt><trkpt lat="40.74091853868727" lon="17.430518401576823"><ele>368.75</ele><time>2026-03-29T14:47:57Z</time></trkpt><trkpt lat="40.7409763573698" lon="17.430318802753465"><ele>370.0</ele><time>2026-03-29T14:47:58Z</time></trkpt><trkpt lat="40.74104565745377" lon="17.43019259621086"><ele>370.75</ele><time>2026-03-29T14:47:59Z</time></trkpt><trkpt lat="40.74113013001043" lon="17.43010554457423"><ele>371.5</ele><time>2026-03-29T14:48:00Z</time></trkpt><trkpt lat="40.741236526004414" lon="17.430014430625747"><ele>372.25</ele><time>2026-03-29T14:48:01Z</time></trkpt><trkpt lat="40.741340406326216" lon="17.429885159200452"><ele>373.0</ele><time>2026-03-29T14:48:02Z</time></trkpt><trkpt lat="40.741441293596466" lon="17.429719123429173"><ele>375.5</ele><time>2026-03-29T14:48:03Z</time></trkpt><trkpt lat="40.74151516924521" lon="17.429596707304427"><ele>378.0</ele><time>2026-03-29T14:48:04Z</time></trkpt><trkpt lat="40.741606349914974" lon="17.429471483376823"><ele>380.5</ele><time>2026-03-29T14:48:05Z</time></trkpt><trkpt lat="40.74169811286471" lon="17.42931572958243"><ele>383.0</ele><time>2026-03-29T14:48:06Z</time></trkpt><trkpt lat="40.74177058024296" lon="17.429172827213588"><ele>383.0</ele><time>2026-03-29T14:48:07Z</time></trkpt><trkpt lat="40.74185562129887" lon="17.429027011714727"><ele>383.0</ele><time>2026-03-29T14:48:08Z</time></trkpt><trkpt lat="40.7419252018446" lon="17.428909779670935"><ele>383.0</ele><time>2026-03-29T14:48:09Z</time></trkpt><trkpt lat="40.741983556182916" lon="17.428833385670618"><ele>383.0</ele><time>2026-03-29T14:48:10Z</time></trkpt><trkpt lat="40.74207058679856" lon="17.428722705062373"><ele>384.0</ele><time>2026-03-29T14:48:11Z</time></trkpt><trkpt lat="40.74216737594249" lon="17.428606085966216"><ele>385.0</ele><time>2026-03-29T14:48:12Z</time></trkpt><trkpt lat="40.7422778887847" lon="17.428487514568133"><ele>386.0</ele><time>2026-03-29T14:48:13Z</time></trkpt><trkpt lat="40.74234788194471" lon="17.428355836471884"><ele>387.0</ele><time>2026-03-29T14:48:14Z</time></trkpt><trkpt lat="40.74242683223327" lon="17.428239635992824"><ele>387.0</ele><time>2026-03-29T14:48:15Z</time></trkpt><trkpt lat="40.742526951300015" lon="17.428122695212622"><ele>387.0</ele><time>2026-03-29T14:48:16Z</time></trkpt><trkpt lat="40.7426180280148" lon="17.427980256568954"><ele>387.0</ele><time>2026-03-29T14:48:17Z</time></trkpt><trkpt lat="40.74269591199732" lon="17.427849652525087"><ele>387.0</ele><time>2026-03-29T14:48:18Z</time></trkpt><trkpt lat="40.74275499888712" lon="17.427744511082572"><ele>386.40000000000003</ele><time>2026-03-29T14:48:19Z</time></trkpt><trkpt lat="40.74280029986519" lon="17.427662644346352"><ele>385.8</ele><time>2026-03-29T14:48:20Z</time></trkpt><trkpt lat="40.74285646461463" lon="17.427538460666455"><ele>385.2</ele><time>2026-03-29T14:48:22Z</time></trkpt><trkpt lat="40.742877175456584" lon="17.42744243402312"><ele>384.6</ele><time>2026-03-29T14:48:23Z</time></trkpt><trkpt lat="40.742884165836244" lon="17.427297573945157"><ele>384.0</ele><time>2026-03-29T14:48:24Z</time></trkpt><trkpt lat="40.74287027180351" lon="17.427131199336163"><ele>384.0</ele><time>2026-03-29T14:48:25Z</time></trkpt><trkpt lat="40.74284743253977" lon="17.426956743715117"><ele>384.0</ele><time>2026-03-29T14:48:26Z</time></trkpt><trkpt lat="40.7428374884196" lon="17.42679457545912"><ele>384.0</ele><time>2026-03-29T14:48:27Z</time></trkpt><trkpt lat="40.742848249149255" lon="17.426657339354637"><ele>384.0</ele><time>2026-03-29T14:48:28Z</time></trkpt><trkpt lat="40.742880746506884" lon="17.426521361602557"><ele>384.0</ele><time>2026-03-29T14:48:29Z</time></trkpt><trkpt lat="40.74292442690399" lon="17.426363740530896"><ele>384.0</ele><time>2026-03-29T14:48:30Z</time></trkpt><trkpt lat="40.742929568923046" lon="17.426193291054226"><ele>384.0</ele><time>2026-03-29T14:48:31Z</time></trkpt><trkpt lat="40.742960795217726" lon="17.42605725946813"><ele>384.0</ele><time>2026-03-29T14:48:32Z</time></trkpt><trkpt lat="40.74298447822107" lon="17.425903782777624"><ele>384.25</ele><time>2026-03-29T14:48:33Z</time></trkpt><trkpt lat="40.74300880246648" lon="17.42572960226654"><ele>384.5</ele><time>2026-03-29T14:48:34Z</time></trkpt><trkpt lat="40.74304720158267" lon="17.42554642297907"><ele>384.75</ele><time>2026-03-29T14:48:35Z</time></trkpt><trkpt lat="40.74309123438626" lon="17.4253881512712"><ele>385.0</ele><time>2026-03-29T14:48:36Z</time></trkpt><trkpt lat="40.74312726012691" lon="17.42524582699498"><ele>385.5</ele><time>2026-03-29T14:48:37Z</time></trkpt><trkpt lat="40.7431546046741" lon="17.42508648614078"><ele>386.0</ele><time>2026-03-29T14:48:38Z</time></trkpt><trkpt lat="40.74319830954128" lon="17.42492238255488"><ele>386.5</ele><time>2026-03-29T14:48:39Z</time></trkpt><trkpt lat="40.74324347391031" lon="17.424730192757337"><ele>387.0</ele><time>2026-03-29T14:48:40Z</time></trkpt><trkpt lat="40.74328298931592" lon="17.42455256271042"><ele>387.75</ele><time>2026-03-29T14:48:40.999Z</time></trkpt><trkpt lat="40.74332025587732" lon="17.42439619858942"><ele>388.5</ele><time>2026-03-29T14:48:41.999Z</time></trkpt><trkpt lat="40.743361814088544" lon="17.424222636602877"><ele>389.25</ele><time>2026-03-29T14:48:42.999Z</time></trkpt><trkpt lat="40.74340617236397" lon="17.42408481548554"><ele>390.0</ele><time>2026-03-29T14:48:43.999Z</time></trkpt><trkpt lat="40.74344007970318" lon="17.42395444622364"><ele>390.0</ele><time>2026-03-29T14:48:44.999Z</time></trkpt><trkpt lat="40.74347940602908" lon="17.42386850953398"><ele>390.0</ele><time>2026-03-29T14:48:45.999Z</time></trkpt><trkpt lat="40.743490707552816" lon="17.423756856103132"><ele>390.0</ele><time>2026-03-29T14:48:46.999Z</time></trkpt><trkpt lat="40.74351278810659" lon="17.423670696254504"><ele>390.0</ele><time>2026-03-29T14:48:47.999Z</time></trkpt><trkpt lat="40.743551491877966" lon="17.42351733823299"><ele>390.0</ele><time>2026-03-29T14:48:49.999Z</time></trkpt><trkpt lat="40.74360387335619" lon="17.4234564648422"><ele>390.0</ele><time>2026-03-29T14:48:50.999Z</time></trkpt><trkpt lat="40.743612312797374" lon="17.42336701605115"><ele>388.75</ele><time>2026-03-29T14:48:51.999Z</time></trkpt><trkpt lat="40.74363911839945" lon="17.423171943906283"><ele>387.5</ele><time>2026-03-29T14:48:53.999Z</time></trkpt><trkpt lat="40.743659933375916" lon="17.423047357581158"><ele>386.25</ele><time>2026-03-29T14:48:54.999Z</time></trkpt><trkpt lat="40.743683972008405" lon="17.422920240129095"><ele>385.0</ele><time>2026-03-29T14:48:55.999Z</time></trkpt><trkpt lat="40.743719267672255" lon="17.422775593052453"><ele>385.0</ele><time>2026-03-29T14:48:56.999Z</time></trkpt><trkpt lat="40.743752422221604" lon="17.42262992121058"><ele>385.0</ele><time>2026-03-29T14:48:57.999Z</time></trkpt><trkpt lat="40.74379044997154" lon="17.42250126731581"><ele>385.0</ele><time>2026-03-29T14:48:58.999Z</time></trkpt><trkpt lat="40.743812619388486" lon="17.422349123955765"><ele>385.0</ele><time>2026-03-29T14:48:59.999Z</time></trkpt><trkpt lat="40.74384885476729" lon="17.422172340539348"><ele>386.5</ele><time>2026-03-29T14:49:00.999Z</time></trkpt><trkpt lat="40.74388282382435" lon="17.4219923110345"><ele>388.0</ele><time>2026-03-29T14:49:01.999Z</time></trkpt><trkpt lat="40.74390969235357" lon="17.421838819490404"><ele>389.5</ele><time>2026-03-29T14:49:02.999Z</time></trkpt><trkpt lat="40.74394697159041" lon="17.421679958107852"><ele>391.0</ele><time>2026-03-29T14:49:03.999Z</time></trkpt><trkpt lat="40.74401637170703" lon="17.42151499223921"><ele>391.0</ele><time>2026-03-29T14:49:04.999Z</time></trkpt><trkpt lat="40.74407200404729" lon="17.4213638841784"><ele>391.0</ele><time>2026-03-29T14:49:05.999Z</time></trkpt><trkpt lat="40.74412743224541" lon="17.421220554697374"><ele>391.0</ele><time>2026-03-29T14:49:06.999Z</time></trkpt><trkpt lat="40.744197527757315" lon="17.42106917381326"><ele>391.0</ele><time>2026-03-29T14:49:07.999Z</time></trkpt><trkpt lat="40.74426937057285" lon="17.42089223097643"><ele>391.0</ele><time>2026-03-29T14:49:08.999Z</time></trkpt><trkpt lat="40.74434080594161" lon="17.42071296699536"><ele>391.0</ele><time>2026-03-29T14:49:09.999Z</time></trkpt><trkpt lat="40.744432841321995" lon="17.42055371632844"><ele>391.0</ele><time>2026-03-29T14:49:10.999Z</time></trkpt><trkpt lat="40.744510560708065" lon="17.42040439399849"><ele>391.0</ele><time>2026-03-29T14:49:11.999Z</time></trkpt><trkpt lat="40.74456153899712" lon="17.420209509838962"><ele>389.5</ele><time>2026-03-29T14:49:12.999Z</time></trkpt><trkpt lat="40.744600813424384" lon="17.420004040038847"><ele>388.0</ele><time>2026-03-29T14:49:13.999Z</time></trkpt><trkpt lat="40.74461718638292" lon="17.419824107129287"><ele>386.5</ele><time>2026-03-29T14:49:14.999Z</time></trkpt><trkpt lat="40.7446236124825" lon="17.41966869316045"><ele>385.0</ele><time>2026-03-29T14:49:15.999Z</time></trkpt><trkpt lat="40.74464631793728" lon="17.419555590706082"><ele>385.0</ele><time>2026-03-29T14:49:16.999Z</time></trkpt><trkpt lat="40.744635521395544" lon="17.419467838295443"><ele>385.0</ele><time>2026-03-29T14:49:17.999Z</time></trkpt><trkpt lat="40.744644834274744" lon="17.41936655456239"><ele>385.0</ele><time>2026-03-29T14:49:18.999Z</time></trkpt><trkpt lat="40.74466083827899" lon="17.419214069490714"><ele>385.0</ele><time>2026-03-29T14:49:19.999Z</time></trkpt><trkpt lat="40.74469262620996" lon="17.419024455003296"><ele>385.0</ele><time>2026-03-29T14:49:20.999Z</time></trkpt><trkpt lat="40.74474905958691" lon="17.418822888657658"><ele>384.0</ele><time>2026-03-29T14:49:21.999Z</time></trkpt><trkpt lat="40.74480753039934" lon="17.418564759390172"><ele>383.0</ele><time>2026-03-29T14:49:22.999Z</time></trkpt><trkpt lat="40.74486146030655" lon="17.41836581641286"><ele>382.0</ele><time>2026-03-29T14:49:23.999Z</time></trkpt><trkpt lat="40.744940837161955" lon="17.418146702221886"><ele>381.0</ele><time>2026-03-29T14:49:24.999Z</time></trkpt><trkpt lat="40.74502417326788" lon="17.417969716561977"><ele>380.0</ele><time>2026-03-29T14:49:25.999Z</time></trkpt><trkpt lat="40.74509741980012" lon="17.417779785535433"><ele>379.0</ele><time>2026-03-29T14:49:26.999Z</time></trkpt><trkpt lat="40.745186310429645" lon="17.417605700412082"><ele>379.3333333333333</ele><time>2026-03-29T14:49:27.999Z</time></trkpt><trkpt lat="40.74528360119895" lon="17.41742080738398"><ele>379.6666666666667</ele><time>2026-03-29T14:49:28.999Z</time></trkpt><trkpt lat="40.74536465014108" lon="17.41724152363387"><ele>380.0</ele><time>2026-03-29T14:49:29.999Z</time></trkpt><trkpt lat="40.745460325685954" lon="17.417071467126366"><ele>380.0</ele><time>2026-03-29T14:49:30.999Z</time></trkpt><trkpt lat="40.74554783874764" lon="17.41688584356139"><ele>380.0</ele><time>2026-03-29T14:49:31.999Z</time></trkpt><trkpt lat="40.74563976255978" lon="17.41669979276323"><ele>380.0</ele><time>2026-03-29T14:49:32.999Z</time></trkpt><trkpt lat="40.7457243407592" lon="17.416514405856127"><ele>380.0</ele><time>2026-03-29T14:49:33.999Z</time></trkpt><trkpt lat="40.745823294446645" lon="17.416336444858945"><ele>380.0</ele><time>2026-03-29T14:49:34.999Z</time></trkpt><trkpt lat="40.74591768686807" lon="17.416176358382767"><ele>380.0</ele><time>2026-03-29T14:49:35.999Z</time></trkpt><trkpt lat="40.746000401457636" lon="17.416018393872218"><ele>378.75</ele><time>2026-03-29T14:49:36.999Z</time></trkpt><trkpt lat="40.746090531203286" lon="17.41588191007936"><ele>377.5</ele><time>2026-03-29T14:49:37.999Z</time></trkpt><trkpt lat="40.746187126658114" lon="17.415755633621934"><ele>376.25</ele><time>2026-03-29T14:49:38.999Z</time></trkpt><trkpt lat="40.74630179226755" lon="17.415631257539257"><ele>375.0</ele><time>2026-03-29T14:49:39.999Z</time></trkpt><trkpt lat="40.74642930021814" lon="17.415503776508665"><ele>375.3333333333333</ele><time>2026-03-29T14:49:40.999Z</time></trkpt><trkpt lat="40.74658625728489" lon="17.4153670983201"><ele>375.66666666666663</ele><time>2026-03-29T14:49:41.999Z</time></trkpt><trkpt lat="40.74676932160854" lon="17.415268180051886"><ele>376.0</ele><time>2026-03-29T14:49:42.999Z</time></trkpt><trkpt lat="40.74695095045311" lon="17.415133541216147"><ele>374.75</ele><time>2026-03-29T14:49:44Z</time></trkpt><trkpt lat="40.74710646795635" lon="17.415052144645493"><ele>373.5</ele><time>2026-03-29T14:49:45Z</time></trkpt><trkpt lat="40.74720106837565" lon="17.414963025310776"><ele>372.25</ele><time>2026-03-29T14:49:46Z</time></trkpt><trkpt lat="40.74731459302606" lon="17.41489307067807"><ele>371.0</ele><time>2026-03-29T14:49:47Z</time></trkpt><trkpt lat="40.74746936498384" lon="17.414804693973174"><ele>371.0</ele><time>2026-03-29T14:49:48Z</time></trkpt><trkpt lat="40.74761295293029" lon="17.414663973135642"><ele>371.0</ele><time>2026-03-29T14:49:49Z</time></trkpt><trkpt lat="40.7477767628507" lon="17.414528078438124"><ele>371.0</ele><time>2026-03-29T14:49:50Z</time></trkpt><trkpt lat="40.74792005715508" lon="17.414376751981642"><ele>368.33333333333337</ele><time>2026-03-29T14:49:51Z</time></trkpt><trkpt lat="40.74809240297039" lon="17.41425049966632"><ele>365.6666666666667</ele><time>2026-03-29T14:49:52Z</time></trkpt><trkpt lat="40.74828898696221" lon="17.414112623349606"><ele>363.0</ele><time>2026-03-29T14:49:53Z</time></trkpt><trkpt lat="40.74847959039472" lon="17.414014329239993"><ele>362.0</ele><time>2026-03-29T14:49:54Z</time></trkpt><trkpt lat="40.74863931410828" lon="17.41394228735944"><ele>361.0</ele><time>2026-03-29T14:49:55Z</time></trkpt><trkpt lat="40.74881095642487" lon="17.413864527465364"><ele>360.0</ele><time>2026-03-29T14:49:56Z</time></trkpt><trkpt lat="40.74896441250936" lon="17.413788819766527"><ele>359.3333333333333</ele><time>2026-03-29T14:49:57Z</time></trkpt><trkpt lat="40.74912799995074" lon="17.4137003351038"><ele>358.66666666666663</ele><time>2026-03-29T14:49:58Z</time></trkpt><trkpt lat="40.749281347716206" lon="17.41357455251656"><ele>358.0</ele><time>2026-03-29T14:49:59Z</time></trkpt><trkpt lat="40.749411571642895" lon="17.41342972165567"><ele>357.75</ele><time>2026-03-29T14:50:00Z</time></trkpt><trkpt lat="40.749505648286934" lon="17.413271906690078"><ele>357.5</ele><time>2026-03-29T14:50:01Z</time></trkpt><trkpt lat="40.74958659447009" lon="17.413115977839272"><ele>357.25</ele><time>2026-03-29T14:50:02Z</time></trkpt><trkpt lat="40.74964597134068" lon="17.41297217835163"><ele>357.0</ele><time>2026-03-29T14:50:03Z</time></trkpt><trkpt lat="40.74970754584022" lon="17.41283208335532"><ele>357.0</ele><time>2026-03-29T14:50:04Z</time></trkpt><trkpt lat="40.749777098481644" lon="17.412699948452"><ele>357.0</ele><time>2026-03-29T14:50:05Z</time></trkpt><trkpt lat="40.74984842232269" lon="17.41253460014622"><ele>357.0</ele><time>2026-03-29T14:50:06Z</time></trkpt><trkpt lat="40.74994363998906" lon="17.412343726364053"><ele>357.0</ele><time>2026-03-29T14:50:07Z</time></trkpt><trkpt lat="40.75003601755344" lon="17.412119759351977"><ele>358.6666666666667</ele><time>2026-03-29T14:50:08Z</time></trkpt><trkpt lat="40.750144685955526" lon="17.411879003357896"><ele>360.33333333333337</ele><time>2026-03-29T14:50:09Z</time></trkpt><trkpt lat="40.75024979817314" lon="17.411626198508436"><ele>362.0</ele><time>2026-03-29T14:50:10Z</time></trkpt><trkpt lat="40.7503617468914" lon="17.411347684583145"><ele>361.5</ele><time>2026-03-29T14:50:11Z</time></trkpt><trkpt lat="40.750464438767786" lon="17.411066543116043"><ele>361.0</ele><time>2026-03-29T14:50:12Z</time></trkpt><trkpt lat="40.7505634457413" lon="17.41079634481247"><ele>361.0</ele><time>2026-03-29T14:50:13Z</time></trkpt><trkpt lat="40.750696692838794" lon="17.410532056987563"><ele>361.0</ele><time>2026-03-29T14:50:14Z</time></trkpt><trkpt lat="40.75080838119565" lon="17.41030329783057"><ele>361.0</ele><time>2026-03-29T14:50:15Z</time></trkpt><trkpt lat="40.75094522344599" lon="17.41006407386584"><ele>361.0</ele><time>2026-03-29T14:50:16Z</time></trkpt><trkpt lat="40.75110330256125" lon="17.409823996932012"><ele>361.0</ele><time>2026-03-29T14:50:17Z</time></trkpt><trkpt lat="40.751263031937725" lon="17.40958111596504"><ele>361.0</ele><time>2026-03-29T14:50:18Z</time></trkpt><trkpt lat="40.75141509492586" lon="17.409369229228204"><ele>361.0</ele><time>2026-03-29T14:50:19Z</time></trkpt><trkpt lat="40.751597999857346" lon="17.409172603926354"><ele>361.0</ele><time>2026-03-29T14:50:20Z</time></trkpt><trkpt lat="40.75180583725784" lon="17.40901839492471"><ele>361.0</ele><time>2026-03-29T14:50:21Z</time></trkpt><trkpt lat="40.752070710723125" lon="17.408874385918065"><ele>357.0</ele><time>2026-03-29T14:50:22Z</time></trkpt><trkpt lat="40.752359383861275" lon="17.408736861542142"><ele>353.0</ele><time>2026-03-29T14:50:23Z</time></trkpt><trkpt lat="40.752670139791576" lon="17.408570996331242"><ele>351.5</ele><time>2026-03-29T14:50:24Z</time></trkpt><trkpt lat="40.752953853714764" lon="17.408452044353545"><ele>350.0</ele><time>2026-03-29T14:50:25Z</time></trkpt><trkpt lat="40.75318961555954" lon="17.408337903267554"><ele>350.0</ele><time>2026-03-29T14:50:26Z</time></trkpt><trkpt lat="40.753418906192756" lon="17.408229615801723"><ele>350.0</ele><time>2026-03-29T14:50:27Z</time></trkpt><trkpt lat="40.753645408344596" lon="17.4081366271457"><ele>350.33333333333337</ele><time>2026-03-29T14:50:28Z</time></trkpt><trkpt lat="40.75385126802313" lon="17.408027103688205"><ele>350.6666666666667</ele><time>2026-03-29T14:50:29Z</time></trkpt><trkpt lat="40.75404380505205" lon="17.407940958396217"><ele>351.0</ele><time>2026-03-29T14:50:30Z</time></trkpt><trkpt lat="40.754301823523356" lon="17.40782324135313"><ele>353.0</ele><time>2026-03-29T14:50:31Z</time></trkpt><trkpt lat="40.75456016059609" lon="17.40770923714392"><ele>355.0</ele><time>2026-03-29T14:50:32Z</time></trkpt><trkpt lat="40.754792317755296" lon="17.40758781677628"><ele>355.0</ele><time>2026-03-29T14:50:33Z</time></trkpt><trkpt lat="40.75501281850098" lon="17.407473184328868"><ele>355.0</ele><time>2026-03-29T14:50:34Z</time></trkpt><trkpt lat="40.75520437240013" lon="17.407340708567123"><ele>356.3333333333333</ele><time>2026-03-29T14:50:35Z</time></trkpt><trkpt lat="40.755353669015186" lon="17.407194680307903"><ele>357.6666666666667</ele><time>2026-03-29T14:50:36Z</time></trkpt><trkpt lat="40.755488548235995" lon="17.406957295556847"><ele>359.0</ele><time>2026-03-29T14:50:37Z</time></trkpt><trkpt lat="40.755638491198475" lon="17.406707470799777"><ele>359.0</ele><time>2026-03-29T14:50:38Z</time></trkpt><trkpt lat="40.75580776228176" lon="17.40648943152737"><ele>359.0</ele><time>2026-03-29T14:50:39Z</time></trkpt><trkpt lat="40.755991264992986" lon="17.406249025991524"><ele>359.5</ele><time>2026-03-29T14:50:40Z</time></trkpt><trkpt lat="40.75621488714233" lon="17.40601013699812"><ele>360.0</ele><time>2026-03-29T14:50:41Z</time></trkpt><trkpt lat="40.75644405549223" lon="17.405773928746513"><ele>360.0</ele><time>2026-03-29T14:50:42Z</time></trkpt><trkpt lat="40.75669236533803" lon="17.405525148212732"><ele>360.0</ele><time>2026-03-29T14:50:43Z</time></trkpt><trkpt lat="40.756986677318785" lon="17.405293446014188"><ele>362.0</ele><time>2026-03-29T14:50:44Z</time></trkpt><trkpt lat="40.75722444459651" lon="17.405068816907946"><ele>364.0</ele><time>2026-03-29T14:50:45Z</time></trkpt><trkpt lat="40.75741416083052" lon="17.4047223518738"><ele>365.5</ele><time>2026-03-29T14:50:46Z</time></trkpt><trkpt lat="40.75764273889528" lon="17.404435438422656"><ele>367.0</ele><time>2026-03-29T14:50:47Z</time></trkpt><trkpt lat="40.75785676288542" lon="17.404151702300567"><ele>367.0</ele><time>2026-03-29T14:50:47.999Z</time></trkpt><trkpt lat="40.75808666086495" lon="17.40387733064098"><ele>367.0</ele><time>2026-03-29T14:50:48.999Z</time></trkpt><trkpt lat="40.75830491188861" lon="17.40358776063268"><ele>368.0</ele><time>2026-03-29T14:50:49.999Z</time></trkpt><trkpt lat="40.75850649116967" lon="17.40328949083298"><ele>369.0</ele><time>2026-03-29T14:50:50.999Z</time></trkpt><trkpt lat="40.758742934384614" lon="17.402957705879615"><ele>367.0</ele><time>2026-03-29T14:50:51.999Z</time></trkpt><trkpt lat="40.75899802731377" lon="17.402708229182938"><ele>365.0</ele><time>2026-03-29T14:50:52.999Z</time></trkpt><trkpt lat="40.75923543436251" lon="17.40245498242904"><ele>361.5</ele><time>2026-03-29T14:50:53.999Z</time></trkpt><trkpt lat="40.759412415672706" lon="17.40216270584762"><ele>358.0</ele><time>2026-03-29T14:50:54.999Z</time></trkpt><trkpt lat="40.75961157150505" lon="17.401883251777296"><ele>358.0</ele><time>2026-03-29T14:50:55.999Z</time></trkpt><trkpt lat="40.75985151892036" lon="17.401635637822732"><ele>358.0</ele><time>2026-03-29T14:50:56.999Z</time></trkpt><trkpt lat="40.760061520399496" lon="17.401410409798068"><ele>357.0</ele><time>2026-03-29T14:50:57.999Z</time></trkpt><trkpt lat="40.760221434006965" lon="17.401141796495537"><ele>356.0</ele><time>2026-03-29T14:50:58.999Z</time></trkpt><trkpt lat="40.76039688792259" lon="17.400939206523308"><ele>356.0</ele><time>2026-03-29T14:50:59.999Z</time></trkpt><trkpt lat="40.76055338017212" lon="17.400722304631255"><ele>356.0</ele><time>2026-03-29T14:51:00.999Z</time></trkpt><trkpt lat="40.76069317614328" lon="17.40048550942354"><ele>355.5</ele><time>2026-03-29T14:51:01.999Z</time></trkpt><trkpt lat="40.760804217017004" lon="17.400216399832228"><ele>355.0</ele><time>2026-03-29T14:51:02.999Z</time></trkpt><trkpt lat="40.760885850597155" lon="17.399911060019875"><ele>354.0</ele><time>2026-03-29T14:51:03.999Z</time></trkpt><trkpt lat="40.7609727210115" lon="17.399578860063837"><ele>353.0</ele><time>2026-03-29T14:51:04.999Z</time></trkpt><trkpt lat="40.76108880071779" lon="17.39932745481068"><ele>352.5</ele><time>2026-03-29T14:51:05.999Z</time></trkpt><trkpt lat="40.76118542840708" lon="17.399018231404863"><ele>352.0</ele><time>2026-03-29T14:51:06.999Z</time></trkpt><trkpt lat="40.761343701465826" lon="17.398706372046078"><ele>351.0</ele><time>2026-03-29T14:51:07.999Z</time></trkpt><trkpt lat="40.76155130440611" lon="17.398378890758217"><ele>350.0</ele><time>2026-03-29T14:51:08.999Z</time></trkpt><trkpt lat="40.761807921282184" lon="17.398074509753865"><ele>349.5</ele><time>2026-03-29T14:51:09.999Z</time></trkpt><trkpt lat="40.76200600873395" lon="17.39777113541893"><ele>349.0</ele><time>2026-03-29T14:51:10.999Z</time></trkpt><trkpt lat="40.76218839812501" lon="17.39750433318204"><ele>349.0</ele><time>2026-03-29T14:51:11.999Z</time></trkpt><trkpt lat="40.762367616350296" lon="17.39724795111678"><ele>349.0</ele><time>2026-03-29T14:51:12.999Z</time></trkpt><trkpt lat="40.762584958056344" lon="17.39699712805105"><ele>350.0</ele><time>2026-03-29T14:51:13.999Z</time></trkpt><trkpt lat="40.76284912257163" lon="17.396757171436537"><ele>351.0</ele><time>2026-03-29T14:51:14.999Z</time></trkpt><trkpt lat="40.76312218493521" lon="17.39652018543757"><ele>351.0</ele><time>2026-03-29T14:51:15.999Z</time></trkpt><trkpt lat="40.76336986245411" lon="17.39632593409173"><ele>351.0</ele><time>2026-03-29T14:51:16.999Z</time></trkpt><trkpt lat="40.763604226672186" lon="17.396115320510592"><ele>352.0</ele><time>2026-03-29T14:51:17.999Z</time></trkpt><trkpt lat="40.76380548561925" lon="17.39590323235323"><ele>353.0</ele><time>2026-03-29T14:51:18.999Z</time></trkpt><trkpt lat="40.763977053264185" lon="17.395652805198"><ele>356.0</ele><time>2026-03-29T14:51:19.999Z</time></trkpt><trkpt lat="40.76411398754709" lon="17.395368270712762"><ele>359.0</ele><time>2026-03-29T14:51:20.999Z</time></trkpt><trkpt lat="40.76422948684968" lon="17.395034179229025"><ele>359.0</ele><time>2026-03-29T14:51:21.999Z</time></trkpt><trkpt lat="40.764341727803576" lon="17.394680401478254"><ele>359.0</ele><time>2026-03-29T14:51:22.999Z</time></trkpt><trkpt lat="40.76448362214913" lon="17.394335698145174"><ele>360.0</ele><time>2026-03-29T14:51:23.999Z</time></trkpt><trkpt lat="40.76460935146906" lon="17.39411751138375"><ele>361.0</ele><time>2026-03-29T14:51:24.999Z</time></trkpt><trkpt lat="40.76475465714077" lon="17.393911392481133"><ele>362.0</ele><time>2026-03-29T14:51:25.999Z</time></trkpt><trkpt lat="40.764959327537284" lon="17.393742381601122"><ele>362.5</ele><time>2026-03-29T14:51:26.999Z</time></trkpt><trkpt lat="40.76518243071036" lon="17.393579564499877"><ele>363.0</ele><time>2026-03-29T14:51:27.999Z</time></trkpt><trkpt lat="40.76544127509634" lon="17.393416310656907"><ele>363.0</ele><time>2026-03-29T14:51:28.999Z</time></trkpt><trkpt lat="40.76571458918087" lon="17.393247837894986"><ele>363.0</ele><time>2026-03-29T14:51:29.999Z</time></trkpt><trkpt lat="40.76599099067239" lon="17.393073149070347"><ele>364.5</ele><time>2026-03-29T14:51:30.999Z</time></trkpt><trkpt lat="40.7662719471167" lon="17.39287721881859"><ele>366.0</ele><time>2026-03-29T14:51:31.999Z</time></trkpt><trkpt lat="40.766518695947" lon="17.392694701128143"><ele>366.0</ele><time>2026-03-29T14:51:32.999Z</time></trkpt><trkpt lat="40.76671110433307" lon="17.392529364331647"><ele>366.0</ele><time>2026-03-29T14:51:33.999Z</time></trkpt><trkpt lat="40.76687107757344" lon="17.392400874308823"><ele>366.0</ele><time>2026-03-29T14:51:34.999Z</time></trkpt><trkpt lat="40.76700160527078" lon="17.392294376161786"><ele>366.3333333333333</ele><time>2026-03-29T14:51:35.999Z</time></trkpt><trkpt lat="40.767115504839296" lon="17.39215704285292"><ele>366.66666666666663</ele><time>2026-03-29T14:51:36.999Z</time></trkpt><trkpt lat="40.76725018741769" lon="17.391959470735937"><ele>367.0</ele><time>2026-03-29T14:51:37.999Z</time></trkpt><trkpt lat="40.76738032891968" lon="17.39178833538524"><ele>367.0</ele><time>2026-03-29T14:51:38.999Z</time></trkpt><trkpt lat="40.76750405489172" lon="17.391680054890024"><ele>367.0</ele><time>2026-03-29T14:51:39.999Z</time></trkpt><trkpt lat="40.767619594130196" lon="17.391504104143188"><ele>367.0</ele><time>2026-03-29T14:51:40.999Z</time></trkpt><trkpt lat="40.76769932581956" lon="17.391374881853082"><ele>367.0</ele><time>2026-03-29T14:51:41.999Z</time></trkpt><trkpt lat="40.76775437910543" lon="17.391214846766577"><ele>367.0</ele><time>2026-03-29T14:51:42.999Z</time></trkpt><trkpt lat="40.767788191097786" lon="17.391058531470218"><ele>367.0</ele><time>2026-03-29T14:51:43.999Z</time></trkpt><trkpt lat="40.767811449561094" lon="17.390876745922263"><ele>367.0</ele><time>2026-03-29T14:51:44.999Z</time></trkpt><trkpt lat="40.7678400517588" lon="17.390677640364785"><ele>366.3333333333333</ele><time>2026-03-29T14:51:45.999Z</time></trkpt><trkpt lat="40.76787519961935" lon="17.39046034850866"><ele>365.6666666666667</ele><time>2026-03-29T14:51:46.999Z</time></trkpt><trkpt lat="40.767939955151974" lon="17.390188159024653"><ele>365.0</ele><time>2026-03-29T14:51:47.999Z</time></trkpt><trkpt lat="40.76801822651924" lon="17.38989599738159"><ele>365.0</ele><time>2026-03-29T14:51:48.999Z</time></trkpt><trkpt lat="40.7680981268285" lon="17.389579781933328"><ele>365.0</ele><time>2026-03-29T14:51:50Z</time></trkpt><trkpt lat="40.768192029606524" lon="17.389268149131386"><ele>365.0</ele><time>2026-03-29T14:51:51Z</time></trkpt><trkpt lat="40.76829958358701" lon="17.388940480909653"><ele>365.0</ele><time>2026-03-29T14:51:52Z</time></trkpt><trkpt lat="40.76840174431579" lon="17.388616009867466"><ele>366.5</ele><time>2026-03-29T14:51:53Z</time></trkpt><trkpt lat="40.768508060814554" lon="17.388283931537337"><ele>368.0</ele><time>2026-03-29T14:51:54Z</time></trkpt><trkpt lat="40.768606605708705" lon="17.38798212534878"><ele>368.33333333333337</ele><time>2026-03-29T14:51:55Z</time></trkpt><trkpt lat="40.768706682356715" lon="17.387722861833893"><ele>368.6666666666667</ele><time>2026-03-29T14:51:56Z</time></trkpt><trkpt lat="40.76877963103644" lon="17.387513775795654"><ele>369.0</ele><time>2026-03-29T14:51:57Z</time></trkpt><trkpt lat="40.76884158345867" lon="17.38731074026433"><ele>369.6666666666667</ele><time>2026-03-29T14:51:58Z</time></trkpt><trkpt lat="40.76890111627091" lon="17.387122175438165"><ele>370.33333333333337</ele><time>2026-03-29T14:51:59Z</time></trkpt><trkpt lat="40.76895324879642" lon="17.386869819184547"><ele>371.0</ele><time>2026-03-29T14:52:00Z</time></trkpt><trkpt lat="40.76899171586294" lon="17.386634765999716"><ele>371.0</ele><time>2026-03-29T14:52:01Z</time></trkpt><trkpt lat="40.76905218854511" lon="17.38634008623759"><ele>371.0</ele><time>2026-03-29T14:52:02Z</time></trkpt><trkpt lat="40.76911460115881" lon="17.386036474516946"><ele>371.0</ele><time>2026-03-29T14:52:03Z</time></trkpt><trkpt lat="40.7691881089364" lon="17.385723663088278"><ele>371.0</ele><time>2026-03-29T14:52:04Z</time></trkpt><trkpt lat="40.76924199981274" lon="17.385425401344648"><ele>371.0</ele><time>2026-03-29T14:52:05Z</time></trkpt><trkpt lat="40.76928693208423" lon="17.38515748967336"><ele>371.0</ele><time>2026-03-29T14:52:06Z</time></trkpt><trkpt lat="40.76933939628267" lon="17.384891057551588"><ele>371.0</ele><time>2026-03-29T14:52:07Z</time></trkpt><trkpt lat="40.76939260223642" lon="17.384623032938503"><ele>371.0</ele><time>2026-03-29T14:52:08Z</time></trkpt><trkpt lat="40.76943958635955" lon="17.38437581601681"><ele>371.0</ele><time>2026-03-29T14:52:09Z</time></trkpt><trkpt lat="40.76946808849222" lon="17.384129019688572"><ele>371.0</ele><time>2026-03-29T14:52:10Z</time></trkpt><trkpt lat="40.76950753542599" lon="17.383844725504222"><ele>370.0</ele><time>2026-03-29T14:52:11Z</time></trkpt><trkpt lat="40.769528441692025" lon="17.38353484196758"><ele>369.0</ele><time>2026-03-29T14:52:12Z</time></trkpt><trkpt lat="40.76956582778" lon="17.38315573298324"><ele>367.5</ele><time>2026-03-29T14:52:13Z</time></trkpt><trkpt lat="40.76960645040503" lon="17.38285198925421"><ele>366.0</ele><time>2026-03-29T14:52:14Z</time></trkpt><trkpt lat="40.769605513345944" lon="17.382516617162317"><ele>366.0</ele><time>2026-03-29T14:52:15Z</time></trkpt><trkpt lat="40.7696447407923" lon="17.382198964392828"><ele>366.0</ele><time>2026-03-29T14:52:16Z</time></trkpt><trkpt lat="40.76967408507457" lon="17.381873931497534"><ele>364.0</ele><time>2026-03-29T14:52:17Z</time></trkpt><trkpt lat="40.769706808202805" lon="17.381537320411482"><ele>362.0</ele><time>2026-03-29T14:52:18Z</time></trkpt><trkpt lat="40.7697399253947" lon="17.381204340472948"><ele>362.0</ele><time>2026-03-29T14:52:19Z</time></trkpt><trkpt lat="40.76975660249317" lon="17.38089084604615"><ele>362.0</ele><time>2026-03-29T14:52:20Z</time></trkpt><trkpt lat="40.76980382477539" lon="17.380584966859647"><ele>362.0</ele><time>2026-03-29T14:52:21Z</time></trkpt><trkpt lat="40.76982490054593" lon="17.380292726684253"><ele>362.0</ele><time>2026-03-29T14:52:22Z</time></trkpt><trkpt lat="40.76982719006065" lon="17.380067476585"><ele>362.0</ele><time>2026-03-29T14:52:23Z</time></trkpt><trkpt lat="40.76979865012314" lon="17.379854787811976"><ele>361.25</ele><time>2026-03-29T14:52:24Z</time></trkpt><trkpt lat="40.769752492426576" lon="17.37964771562717"><ele>360.5</ele><time>2026-03-29T14:52:25Z</time></trkpt><trkpt lat="40.769734032653766" lon="17.37944428482895"><ele>359.75</ele><time>2026-03-29T14:52:26Z</time></trkpt><trkpt lat="40.76973315365294" lon="17.37928177677402"><ele>359.0</ele><time>2026-03-29T14:52:27Z</time></trkpt><trkpt lat="40.7697604614992" lon="17.37912179240091"><ele>359.0</ele><time>2026-03-29T14:52:28Z</time></trkpt><trkpt lat="40.76982611752331" lon="17.378996022556695"><ele>359.0</ele><time>2026-03-29T14:52:29Z</time></trkpt><trkpt lat="40.769899730486266" lon="17.378827104755754"><ele>359.0</ele><time>2026-03-29T14:52:30Z</time></trkpt><trkpt lat="40.76998950901798" lon="17.378591502793103"><ele>358.0</ele><time>2026-03-29T14:52:31Z</time></trkpt><trkpt lat="40.77007470280724" lon="17.378289071841813"><ele>357.0</ele><time>2026-03-29T14:52:32Z</time></trkpt><trkpt lat="40.77012107532634" lon="17.378066642749925"><ele>356.0</ele><time>2026-03-29T14:52:33Z</time></trkpt><trkpt lat="40.7701650584374" lon="17.377797287567137"><ele>357.0</ele><time>2026-03-29T14:52:34Z</time></trkpt><trkpt lat="40.77020628008068" lon="17.37750339459869"><ele>358.0</ele><time>2026-03-29T14:52:35Z</time></trkpt><trkpt lat="40.77024137664279" lon="17.3772020019939"><ele>358.0</ele><time>2026-03-29T14:52:36Z</time></trkpt><trkpt lat="40.770275222018874" lon="17.376896212109923"><ele>358.0</ele><time>2026-03-29T14:52:37Z</time></trkpt><trkpt lat="40.77031083360266" lon="17.376602597320844"><ele>358.66666666666663</ele><time>2026-03-29T14:52:38Z</time></trkpt><trkpt lat="40.77034317999887" lon="17.376316884647743"><ele>359.3333333333333</ele><time>2026-03-29T14:52:39Z</time></trkpt><trkpt lat="40.770375339552565" lon="17.376030755965974"><ele>360.0</ele><time>2026-03-29T14:52:40Z</time></trkpt><trkpt lat="40.770392696911074" lon="17.375738718699342"><ele>361.3333333333333</ele><time>2026-03-29T14:52:41Z</time></trkpt><trkpt lat="40.770416930280014" lon="17.375420357810622"><ele>362.66666666666663</ele><time>2026-03-29T14:52:42Z</time></trkpt><trkpt lat="40.77041397821959" lon="17.3751581323172"><ele>364.0</ele><time>2026-03-29T14:52:43Z</time></trkpt><trkpt lat="40.77043617729065" lon="17.3748906596978"><ele>364.66666666666663</ele><time>2026-03-29T14:52:44Z</time></trkpt><trkpt lat="40.770444308438606" lon="17.37462627361101"><ele>365.3333333333333</ele><time>2026-03-29T14:52:45Z</time></trkpt><trkpt lat="40.77044793004317" lon="17.37435073305363"><ele>366.0</ele><time>2026-03-29T14:52:46Z</time></trkpt><trkpt lat="40.770450183379154" lon="17.374059132820076"><ele>366.6666666666667</ele><time>2026-03-29T14:52:47Z</time></trkpt><trkpt lat="40.77045103954503" lon="17.373767479139737"><ele>367.33333333333337</ele><time>2026-03-29T14:52:48Z</time></trkpt><trkpt lat="40.77045242228411" lon="17.373484427549847"><ele>368.0</ele><time>2026-03-29T14:52:49Z</time></trkpt><trkpt lat="40.770456841654656" lon="17.373228710621763"><ele>369.0</ele><time>2026-03-29T14:52:50Z</time></trkpt><trkpt lat="40.77047745839762" lon="17.372978478879915"><ele>370.0</ele><time>2026-03-29T14:52:51Z</time></trkpt><trkpt lat="40.77051311001668" lon="17.372730023266246"><ele>371.0</ele><time>2026-03-29T14:52:52Z</time></trkpt><trkpt lat="40.77055485384361" lon="17.372498283831227"><ele>371.0</ele><time>2026-03-29T14:52:53Z</time></trkpt><trkpt lat="40.770608785533945" lon="17.372249082606704"><ele>371.0</ele><time>2026-03-29T14:52:54Z</time></trkpt><trkpt lat="40.77067507800146" lon="17.371970985711084"><ele>371.0</ele><time>2026-03-29T14:52:55Z</time></trkpt><trkpt lat="40.770741284559705" lon="17.371698354405634"><ele>371.33333333333337</ele><time>2026-03-29T14:52:56Z</time></trkpt><trkpt lat="40.77080828229474" lon="17.371422465305468"><ele>371.6666666666667</ele><time>2026-03-29T14:52:56.999Z</time></trkpt><trkpt lat="40.77087395957311" lon="17.371163510872726"><ele>372.0</ele><time>2026-03-29T14:52:57.999Z</time></trkpt><trkpt lat="40.77094099899016" lon="17.37090638038756"><ele>372.0</ele><time>2026-03-29T14:52:58.999Z</time></trkpt><trkpt lat="40.77101133143877" lon="17.370637891714974"><ele>372.0</ele><time>2026-03-29T14:52:59.999Z</time></trkpt><trkpt lat="40.77106158523188" lon="17.370389927679888"><ele>372.0</ele><time>2026-03-29T14:53:00.999Z</time></trkpt><trkpt lat="40.771125623942815" lon="17.37018958163548"><ele>371.25</ele><time>2026-03-29T14:53:01.999Z</time></trkpt><trkpt lat="40.771161827904066" lon="17.369996948608904"><ele>370.5</ele><time>2026-03-29T14:53:02.999Z</time></trkpt><trkpt lat="40.7711902811843" lon="17.369826843726166"><ele>369.75</ele><time>2026-03-29T14:53:03.999Z</time></trkpt><trkpt lat="40.77120232153407" lon="17.36962043804444"><ele>369.0</ele><time>2026-03-29T14:53:04.999Z</time></trkpt><trkpt lat="40.7711897966075" lon="17.369379723344057"><ele>368.0</ele><time>2026-03-29T14:53:05.999Z</time></trkpt><trkpt lat="40.77119712746363" lon="17.36916066081941"><ele>367.0</ele><time>2026-03-29T14:53:06.999Z</time></trkpt><trkpt lat="40.77119934027279" lon="17.368974912893485"><ele>366.0</ele><time>2026-03-29T14:53:07.999Z</time></trkpt><trkpt lat="40.77119858664125" lon="17.36877101504187"><ele>365.3333333333333</ele><time>2026-03-29T14:53:08.999Z</time></trkpt><trkpt lat="40.77116040150314" lon="17.368546590200964"><ele>364.66666666666663</ele><time>2026-03-29T14:53:09.999Z</time></trkpt><trkpt lat="40.77113679870898" lon="17.368336803861528"><ele>364.0</ele><time>2026-03-29T14:53:10.999Z</time></trkpt><trkpt lat="40.7711319413322" lon="17.36815580298691"><ele>364.2</ele><time>2026-03-29T14:53:11.999Z</time></trkpt><trkpt lat="40.771137867106624" lon="17.36800314315056"><ele>364.4</ele><time>2026-03-29T14:53:12.999Z</time></trkpt><trkpt lat="40.77117235741369" lon="17.36787244828203"><ele>364.6</ele><time>2026-03-29T14:53:13.999Z</time></trkpt><trkpt lat="40.771265230242044" lon="17.36776881672017"><ele>364.8</ele><time>2026-03-29T14:53:14.999Z</time></trkpt><trkpt lat="40.771337876321695" lon="17.36767854904846"><ele>365.0</ele><time>2026-03-29T14:53:15.999Z</time></trkpt><trkpt lat="40.77141201231602" lon="17.367601755890842"><ele>365.0</ele><time>2026-03-29T14:53:16.999Z</time></trkpt><trkpt lat="40.77150736037132" lon="17.367607519228354"><ele>365.0</ele><time>2026-03-29T14:53:17.999Z</time></trkpt><trkpt lat="40.771600243751216" lon="17.367678082390313"><ele>365.0</ele><time>2026-03-29T14:53:18.999Z</time></trkpt><trkpt lat="40.771729171046196" lon="17.36771425486205"><ele>365.0</ele><time>2026-03-29T14:53:19.999Z</time></trkpt><trkpt lat="40.7718923198548" lon="17.367791883856402"><ele>365.33333333333337</ele><time>2026-03-29T14:53:20.999Z</time></trkpt><trkpt lat="40.77206798564989" lon="17.36783128894246"><ele>365.6666666666667</ele><time>2026-03-29T14:53:21.999Z</time></trkpt><trkpt lat="40.772248157284956" lon="17.367805193195334"><ele>366.0</ele><time>2026-03-29T14:53:22.999Z</time></trkpt><trkpt lat="40.772459589082054" lon="17.367726739218117"><ele>371.5</ele><time>2026-03-29T14:53:23.999Z</time></trkpt><trkpt lat="40.772699611096755" lon="17.367647250806385"><ele>377.0</ele><time>2026-03-29T14:53:24.999Z</time></trkpt><trkpt lat="40.77296162563102" lon="17.367587980946062"><ele>377.0</ele><time>2026-03-29T14:53:25.999Z</time></trkpt><trkpt lat="40.77320769907103" lon="17.3675378586569"><ele>377.0</ele><time>2026-03-29T14:53:26.999Z</time></trkpt><trkpt lat="40.77340770506945" lon="17.367468487249948"><ele>379.0</ele><time>2026-03-29T14:53:27.999Z</time></trkpt><trkpt lat="40.77357528281459" lon="17.36738245268742"><ele>381.0</ele><time>2026-03-29T14:53:28.999Z</time></trkpt><trkpt lat="40.77373503307603" lon="17.367339526933403"><ele>383.0</ele><time>2026-03-29T14:53:29.999Z</time></trkpt><trkpt lat="40.77390394534972" lon="17.367322798058904"><ele>383.0</ele><time>2026-03-29T14:53:30.999Z</time></trkpt><trkpt lat="40.774100393730066" lon="17.367390291827594"><ele>383.0</ele><time>2026-03-29T14:53:31.999Z</time></trkpt><trkpt lat="40.77428977293733" lon="17.367439462904073"><ele>383.0</ele><time>2026-03-29T14:53:32.999Z</time></trkpt><trkpt lat="40.77444181771609" lon="17.367491529417276"><ele>382.6666666666667</ele><time>2026-03-29T14:53:33.999Z</time></trkpt><trkpt lat="40.77458950953931" lon="17.36751298214237"><ele>382.3333333333333</ele><time>2026-03-29T14:53:34.999Z</time></trkpt><trkpt lat="40.77473448367391" lon="17.367462462343205"><ele>382.0</ele><time>2026-03-29T14:53:35.999Z</time></trkpt><trkpt lat="40.77487505343858" lon="17.367388921103426"><ele>382.0</ele><time>2026-03-29T14:53:36.999Z</time></trkpt><trkpt lat="40.77501859240928" lon="17.36726864750553"><ele>382.0</ele><time>2026-03-29T14:53:37.999Z</time></trkpt><trkpt lat="40.77519325528065" lon="17.36711849373677"><ele>382.0</ele><time>2026-03-29T14:53:38.999Z</time></trkpt><trkpt lat="40.77538512089065" lon="17.366956611484582"><ele>381.5</ele><time>2026-03-29T14:53:39.999Z</time></trkpt><trkpt lat="40.77558088401882" lon="17.366793646631255"><ele>381.0</ele><time>2026-03-29T14:53:40.999Z</time></trkpt><trkpt lat="40.77578231534186" lon="17.36663118527168"><ele>381.0</ele><time>2026-03-29T14:53:41.999Z</time></trkpt><trkpt lat="40.77599183453869" lon="17.36647092634205"><ele>381.0</ele><time>2026-03-29T14:53:42.999Z</time></trkpt><trkpt lat="40.776198961136956" lon="17.366324403448115"><ele>380.0</ele><time>2026-03-29T14:53:43.999Z</time></trkpt><trkpt lat="40.776416904180316" lon="17.366195916702992"><ele>379.0</ele><time>2026-03-29T14:53:44.999Z</time></trkpt><trkpt lat="40.7766309433051" lon="17.3660888215427"><ele>379.0</ele><time>2026-03-29T14:53:45.999Z</time></trkpt><trkpt lat="40.77681875457062" lon="17.36599434197929"><ele>379.0</ele><time>2026-03-29T14:53:46.999Z</time></trkpt><trkpt lat="40.77699857499937" lon="17.365899347494363"><ele>379.0</ele><time>2026-03-29T14:53:47.999Z</time></trkpt><trkpt lat="40.777168325120556" lon="17.365857192561847"><ele>378.5</ele><time>2026-03-29T14:53:48.999Z</time></trkpt><trkpt lat="40.77732634814317" lon="17.365830022579257"><ele>378.0</ele><time>2026-03-29T14:53:49.999Z</time></trkpt><trkpt lat="40.77744603837937" lon="17.36583793331207"><ele>377.5</ele><time>2026-03-29T14:53:50.999Z</time></trkpt><trkpt lat="40.77754461444231" lon="17.365874230850793"><ele>377.0</ele><time>2026-03-29T14:53:51.999Z</time></trkpt><trkpt lat="40.777649340503096" lon="17.36592380445154"><ele>377.6666666666667</ele><time>2026-03-29T14:53:52.999Z</time></trkpt><trkpt lat="40.777780693754735" lon="17.366030407845308"><ele>378.3333333333333</ele><time>2026-03-29T14:53:53.999Z</time></trkpt><trkpt lat="40.777941356968384" lon="17.3661419614131"><ele>379.0</ele><time>2026-03-29T14:53:54.999Z</time></trkpt><trkpt lat="40.778101343785934" lon="17.36624351180755"><ele>379.0</ele><time>2026-03-29T14:53:56Z</time></trkpt><trkpt lat="40.77826789177128" lon="17.36635981005899"><ele>379.0</ele><time>2026-03-29T14:53:57Z</time></trkpt><trkpt lat="40.77841824356718" lon="17.366468624704545"><ele>379.0</ele><time>2026-03-29T14:53:58Z</time></trkpt><trkpt lat="40.77854921211737" lon="17.366536857473264"><ele>380.0</ele><time>2026-03-29T14:53:59Z</time></trkpt><trkpt lat="40.77865345125944" lon="17.36658915197781"><ele>381.0</ele><time>2026-03-29T14:54:00Z</time></trkpt><trkpt lat="40.778851003151956" lon="17.366637011780078"><ele>382.0</ele><time>2026-03-29T14:54:01Z</time></trkpt><trkpt lat="40.779015833675814" lon="17.366624310758525"><ele>382.0</ele><time>2026-03-29T14:54:02Z</time></trkpt><trkpt lat="40.779178179247815" lon="17.36657137919273"><ele>382.0</ele><time>2026-03-29T14:54:03Z</time></trkpt><trkpt lat="40.7792986203294" lon="17.36646580362467"><ele>382.0</ele><time>2026-03-29T14:54:04Z</time></trkpt><trkpt lat="40.779397865257096" lon="17.36631387449354"><ele>383.0</ele><time>2026-03-29T14:54:05Z</time></trkpt><trkpt lat="40.77950198606347" lon="17.366157319701237"><ele>384.0</ele><time>2026-03-29T14:54:06Z</time></trkpt><trkpt lat="40.77964312060537" lon="17.366121560633623"><ele>385.0</ele><time>2026-03-29T14:54:07Z</time></trkpt><trkpt lat="40.77981293168435" lon="17.366060659137066"><ele>385.0</ele><time>2026-03-29T14:54:08Z</time></trkpt><trkpt lat="40.78002610782505" lon="17.3659604959905"><ele>385.0</ele><time>2026-03-29T14:54:09Z</time></trkpt><trkpt lat="40.78025201177372" lon="17.36585465621018"><ele>383.0</ele><time>2026-03-29T14:54:10Z</time></trkpt><trkpt lat="40.78046729067763" lon="17.36573663176168"><ele>381.0</ele><time>2026-03-29T14:54:11Z</time></trkpt><trkpt lat="40.78065077112507" lon="17.36564742186851"><ele>379.0</ele><time>2026-03-29T14:54:12Z</time></trkpt><trkpt lat="40.780833896566" lon="17.365540991532065"><ele>372.5</ele><time>2026-03-29T14:54:13Z</time></trkpt><trkpt lat="40.781072467758776" lon="17.365408917878536"><ele>366.0</ele><time>2026-03-29T14:54:14Z</time></trkpt><trkpt lat="40.781294005786854" lon="17.365290262382246"><ele>366.0</ele><time>2026-03-29T14:54:15Z</time></trkpt><trkpt lat="40.781508767530624" lon="17.365153268453348"><ele>366.0</ele><time>2026-03-29T14:54:16Z</time></trkpt><trkpt lat="40.78172725387326" lon="17.365015070322528"><ele>364.5</ele><time>2026-03-29T14:54:17Z</time></trkpt><trkpt lat="40.78193042043627" lon="17.36487437606293"><ele>363.0</ele><time>2026-03-29T14:54:18Z</time></trkpt><trkpt lat="40.782161516761136" lon="17.364755933611402"><ele>363.3333333333333</ele><time>2026-03-29T14:54:19Z</time></trkpt><trkpt lat="40.78238757187552" lon="17.36466099216845"><ele>363.66666666666663</ele><time>2026-03-29T14:54:20Z</time></trkpt><trkpt lat="40.782576803794626" lon="17.364573472553317"><ele>364.0</ele><time>2026-03-29T14:54:21Z</time></trkpt><trkpt lat="40.78275917881831" lon="17.364502159410073"><ele>364.0</ele><time>2026-03-29T14:54:22Z</time></trkpt><trkpt lat="40.782912650268806" lon="17.36446736660841"><ele>364.0</ele><time>2026-03-29T14:54:23Z</time></trkpt><trkpt lat="40.78303498136489" lon="17.364471241386283"><ele>364.0</ele><time>2026-03-29T14:54:24Z</time></trkpt><trkpt lat="40.7831577558105" lon="17.36454142272817"><ele>364.0</ele><time>2026-03-29T14:54:25Z</time></trkpt><trkpt lat="40.783309460751745" lon="17.364635430556117"><ele>363.3333333333333</ele><time>2026-03-29T14:54:26Z</time></trkpt><trkpt lat="40.78345864936724" lon="17.36474415433623"><ele>362.6666666666667</ele><time>2026-03-29T14:54:27Z</time></trkpt><trkpt lat="40.78359985737578" lon="17.36486611284846"><ele>362.0</ele><time>2026-03-29T14:54:28Z</time></trkpt><trkpt lat="40.78378089865355" lon="17.364947755433366"><ele>363.33333333333337</ele><time>2026-03-29T14:54:29Z</time></trkpt><trkpt lat="40.783979184029484" lon="17.36503288804621"><ele>364.6666666666667</ele><time>2026-03-29T14:54:30Z</time></trkpt><trkpt lat="40.784189732776674" lon="17.365092783382913"><ele>366.0</ele><time>2026-03-29T14:54:31Z</time></trkpt><trkpt lat="40.7843622832643" lon="17.36514929095097"><ele>367.6666666666667</ele><time>2026-03-29T14:54:32Z</time></trkpt><trkpt lat="40.784513160351175" lon="17.365165757149537"><ele>369.33333333333337</ele><time>2026-03-29T14:54:33Z</time></trkpt><trkpt lat="40.784671778228876" lon="17.36512943325266"><ele>371.0</ele><time>2026-03-29T14:54:34Z</time></trkpt><trkpt lat="40.78484880273712" lon="17.36505593508555"><ele>371.0</ele><time>2026-03-29T14:54:35Z</time></trkpt><trkpt lat="40.78498410283182" lon="17.364965970984155"><ele>371.0</ele><time>2026-03-29T14:54:36Z</time></trkpt><trkpt lat="40.785100920681515" lon="17.364868398682347"><ele>371.0</ele><time>2026-03-29T14:54:37Z</time></trkpt><trkpt lat="40.785188260551756" lon="17.36477162641848"><ele>371.0</ele><time>2026-03-29T14:54:38Z</time></trkpt><trkpt lat="40.785239008071784" lon="17.364659896202742"><ele>371.5</ele><time>2026-03-29T14:54:39Z</time></trkpt><trkpt lat="40.78533977883869" lon="17.36455921561622"><ele>372.0</ele><time>2026-03-29T14:54:40Z</time></trkpt><trkpt lat="40.785437833204846" lon="17.364448338642458"><ele>372.5</ele><time>2026-03-29T14:54:41Z</time></trkpt><trkpt lat="40.78553769725212" lon="17.364355841407836"><ele>373.0</ele><time>2026-03-29T14:54:42Z</time></trkpt><trkpt lat="40.78561995573672" lon="17.364331200539578"><ele>373.0</ele><time>2026-03-29T14:54:43Z</time></trkpt><trkpt lat="40.785708161140576" lon="17.364281699554937"><ele>373.0</ele><time>2026-03-29T14:54:45Z</time></trkpt><trkpt lat="40.785761556970584" lon="17.364206119575453"><ele>373.0</ele><time>2026-03-29T14:55:09.999Z</time></trkpt><trkpt lat="40.78582482063947" lon="17.364159513737413"><ele>373.0</ele><time>2026-03-29T14:55:10.999Z</time></trkpt><trkpt lat="40.78590144310901" lon="17.364128419189647"><ele>373.0</ele><time>2026-03-29T14:55:11.999Z</time></trkpt><trkpt lat="40.785953980459674" lon="17.36403675957607"><ele>373.0</ele><time>2026-03-29T14:55:12.999Z</time></trkpt><trkpt lat="40.78600363355668" lon="17.363839854941553"><ele>372.66666666666663</ele><time>2026-03-29T14:55:13.999Z</time></trkpt><trkpt lat="40.78605073430869" lon="17.363658199813077"><ele>372.3333333333333</ele><time>2026-03-29T14:55:14.999Z</time></trkpt><trkpt lat="40.78610717858436" lon="17.36347338757971"><ele>372.0</ele><time>2026-03-29T14:55:15.999Z</time></trkpt><trkpt lat="40.78615666590657" lon="17.36326390337525"><ele>372.0</ele><time>2026-03-29T14:55:16.999Z</time></trkpt><trkpt lat="40.78622491477648" lon="17.363049018160698"><ele>372.0</ele><time>2026-03-29T14:55:17.999Z</time></trkpt><trkpt lat="40.786298401117214" lon="17.362814843582793"><ele>372.0</ele><time>2026-03-29T14:55:18.999Z</time></trkpt><trkpt lat="40.78637593460075" lon="17.362564287659687"><ele>370.0</ele><time>2026-03-29T14:55:19.999Z</time></trkpt><trkpt lat="40.786449381806534" lon="17.362298820478138"><ele>368.0</ele><time>2026-03-29T14:55:20.999Z</time></trkpt><trkpt lat="40.78652320029637" lon="17.36203844672856"><ele>366.0</ele><time>2026-03-29T14:55:21.999Z</time></trkpt><trkpt lat="40.78659338554474" lon="17.36179401638425"><ele>364.3333333333333</ele><time>2026-03-29T14:55:22.999Z</time></trkpt><trkpt lat="40.78664986264048" lon="17.361568073047184"><ele>362.66666666666663</ele><time>2026-03-29T14:55:23.999Z</time></trkpt><trkpt lat="40.78668820958266" lon="17.361347362317144"><ele>361.0</ele><time>2026-03-29T14:55:24.999Z</time></trkpt><trkpt lat="40.78671993942102" lon="17.361133110162676"><ele>360.0</ele><time>2026-03-29T14:55:25.999Z</time></trkpt><trkpt lat="40.7867862849398" lon="17.360942332209593"><ele>359.0</ele><time>2026-03-29T14:55:26.999Z</time></trkpt><trkpt lat="40.78685080007102" lon="17.36076193962133"><ele>358.0</ele><time>2026-03-29T14:55:27.999Z</time></trkpt><trkpt lat="40.78691743997675" lon="17.360612470380374"><ele>357.0</ele><time>2026-03-29T14:55:28.999Z</time></trkpt><trkpt lat="40.78697931725471" lon="17.36055501332158"><ele>357.0</ele><time>2026-03-29T14:55:30.999Z</time></trkpt><trkpt lat="40.78710636740836" lon="17.360537591123567"><ele>357.0</ele><time>2026-03-29T14:55:32.999Z</time></trkpt><trkpt lat="40.78720499821642" lon="17.36050635419987"><ele>357.0</ele><time>2026-03-29T14:55:33.999Z</time></trkpt><trkpt lat="40.787338398295404" lon="17.360383566539557"><ele>357.0</ele><time>2026-03-29T14:55:34.999Z</time></trkpt><trkpt lat="40.78744867746443" lon="17.36026479980656"><ele>354.6666666666667</ele><time>2026-03-29T14:55:35.999Z</time></trkpt><trkpt lat="40.78757392733122" lon="17.360079758291654"><ele>352.33333333333337</ele><time>2026-03-29T14:55:36.999Z</time></trkpt><trkpt lat="40.787698789154625" lon="17.359907139882473"><ele>350.0</ele><time>2026-03-29T14:55:37.999Z</time></trkpt><trkpt lat="40.78784686978747" lon="17.35972782318557"><ele>348.6666666666667</ele><time>2026-03-29T14:55:38.999Z</time></trkpt><trkpt lat="40.788010974609286" lon="17.359554357931533"><ele>347.3333333333333</ele><time>2026-03-29T14:55:39.999Z</time></trkpt><trkpt lat="40.78817322473935" lon="17.359390490735418"><ele>346.0</ele><time>2026-03-29T14:55:40.999Z</time></trkpt><trkpt lat="40.78834236451539" lon="17.35921127782209"><ele>346.0</ele><time>2026-03-29T14:55:41.999Z</time></trkpt><trkpt lat="40.78853216425335" lon="17.359028875615827"><ele>346.0</ele><time>2026-03-29T14:55:42.999Z</time></trkpt><trkpt lat="40.788701026111134" lon="17.3588477668388"><ele>345.0</ele><time>2026-03-29T14:55:43.999Z</time></trkpt><trkpt lat="40.78887703121703" lon="17.358665515277558"><ele>344.0</ele><time>2026-03-29T14:55:44.999Z</time></trkpt><trkpt lat="40.789091671098966" lon="17.358509616468552"><ele>344.0</ele><time>2026-03-29T14:55:45.999Z</time></trkpt><trkpt lat="40.78929656761317" lon="17.358303107857243"><ele>344.0</ele><time>2026-03-29T14:55:46.999Z</time></trkpt><trkpt lat="40.78952344931579" lon="17.358139209628007"><ele>341.0</ele><time>2026-03-29T14:55:47.999Z</time></trkpt><trkpt lat="40.78973220261781" lon="17.35797520700326"><ele>338.0</ele><time>2026-03-29T14:55:48.999Z</time></trkpt><trkpt lat="40.78993618778527" lon="17.357822068964303"><ele>338.0</ele><time>2026-03-29T14:55:49.999Z</time></trkpt><trkpt lat="40.79014294992434" lon="17.357647953304742"><ele>338.0</ele><time>2026-03-29T14:55:50.999Z</time></trkpt><trkpt lat="40.79033649258854" lon="17.357468218133416"><ele>338.5</ele><time>2026-03-29T14:55:51.999Z</time></trkpt><trkpt lat="40.790558342519375" lon="17.35731958991941"><ele>339.0</ele><time>2026-03-29T14:55:52.999Z</time></trkpt><trkpt lat="40.79076948802104" lon="17.357145140569965"><ele>339.0</ele><time>2026-03-29T14:55:53.999Z</time></trkpt><trkpt lat="40.79099232351312" lon="17.35697247784428"><ele>339.0</ele><time>2026-03-29T14:55:54.999Z</time></trkpt><trkpt lat="40.79122548844111" lon="17.356795809979058"><ele>341.5</ele><time>2026-03-29T14:55:55.999Z</time></trkpt><trkpt lat="40.79142254607555" lon="17.356636472470857"><ele>344.0</ele><time>2026-03-29T14:55:56.999Z</time></trkpt><trkpt lat="40.791614019799695" lon="17.356462031760834"><ele>344.0</ele><time>2026-03-29T14:55:57.999Z</time></trkpt><trkpt lat="40.79181557773529" lon="17.356303066458306"><ele>344.0</ele><time>2026-03-29T14:55:58.999Z</time></trkpt><trkpt lat="40.79201439298304" lon="17.356133867477958"><ele>345.6666666666667</ele><time>2026-03-29T14:55:59.999Z</time></trkpt><trkpt lat="40.79218871179885" lon="17.355988949150053"><ele>347.3333333333333</ele><time>2026-03-29T14:56:00.999Z</time></trkpt><trkpt lat="40.792361777024624" lon="17.355847960870356"><ele>349.0</ele><time>2026-03-29T14:56:02Z</time></trkpt><trkpt lat="40.792523789008484" lon="17.35570112984262"><ele>349.0</ele><time>2026-03-29T14:56:03Z</time></trkpt><trkpt lat="40.79266147272262" lon="17.355591290719122"><ele>349.0</ele><time>2026-03-29T14:56:04Z</time></trkpt><trkpt lat="40.79279050655642" lon="17.35548327845464"><ele>349.0</ele><time>2026-03-29T14:56:05Z</time></trkpt><trkpt lat="40.79292558798757" lon="17.35536756375729"><ele>348.5</ele><time>2026-03-29T14:56:06Z</time></trkpt><trkpt lat="40.79304370640372" lon="17.355269133611955"><ele>348.0</ele><time>2026-03-29T14:56:07Z</time></trkpt><trkpt lat="40.79314194426087" lon="17.355190563335807"><ele>347.5</ele><time>2026-03-29T14:56:08Z</time></trkpt><trkpt lat="40.79322524292426" lon="17.355112293061072"><ele>347.0</ele><time>2026-03-29T14:56:09Z</time></trkpt><trkpt lat="40.79332479869223" lon="17.355066569128944"><ele>347.0</ele><time>2026-03-29T14:56:10Z</time></trkpt><trkpt lat="40.79338326637879" lon="17.355027602462773"><ele>347.0</ele><time>2026-03-29T14:56:11Z</time></trkpt><trkpt lat="40.79353280362298" lon="17.355174464257068"><ele>347.0</ele><time>2026-03-29T14:56:12Z</time></trkpt><trkpt lat="40.79368005105806" lon="17.355256008365412"><ele>347.0</ele><time>2026-03-29T14:56:13Z</time></trkpt><trkpt lat="40.79382545018852" lon="17.355360852643617"><ele>347.0</ele><time>2026-03-29T14:56:14Z</time></trkpt><trkpt lat="40.79396128048772" lon="17.35544017128225"><ele>347.0</ele><time>2026-03-29T14:56:15Z</time></trkpt><trkpt lat="40.79406820697656" lon="17.35550064059679"><ele>347.0</ele><time>2026-03-29T14:56:16Z</time></trkpt><trkpt lat="40.794201295126236" lon="17.355504166702183"><ele>347.0</ele><time>2026-03-29T14:56:17Z</time></trkpt><trkpt lat="40.79434767103458" lon="17.35544516823936"><ele>347.0</ele><time>2026-03-29T14:56:18Z</time></trkpt><trkpt lat="40.79450592661665" lon="17.35534910045424"><ele>347.0</ele><time>2026-03-29T14:56:19Z</time></trkpt><trkpt lat="40.79466599144818" lon="17.355264884586884"><ele>347.0</ele><time>2026-03-29T14:56:20Z</time></trkpt><trkpt lat="40.79486088904527" lon="17.35524412905486"><ele>347.0</ele><time>2026-03-29T14:56:21Z</time></trkpt><trkpt lat="40.79504397162407" lon="17.35522647833094"><ele>347.0</ele><time>2026-03-29T14:56:22Z</time></trkpt><trkpt lat="40.79521472694316" lon="17.355201914326653"><ele>347.0</ele><time>2026-03-29T14:56:23Z</time></trkpt><trkpt lat="40.79539467720255" lon="17.355234106680964"><ele>348.0</ele><time>2026-03-29T14:56:24Z</time></trkpt><trkpt lat="40.79559706816434" lon="17.355304844821344"><ele>349.0</ele><time>2026-03-29T14:56:25Z</time></trkpt><trkpt lat="40.79577864796532" lon="17.355362925172354"><ele>350.0</ele><time>2026-03-29T14:56:26Z</time></trkpt><trkpt lat="40.795916534799304" lon="17.35538753538999"><ele>348.33333333333337</ele><time>2026-03-29T14:56:27Z</time></trkpt><trkpt lat="40.79604363594261" lon="17.35539030600416"><ele>346.6666666666667</ele><time>2026-03-29T14:56:28Z</time></trkpt><trkpt lat="40.79619616539606" lon="17.35537635200321"><ele>345.0</ele><time>2026-03-29T14:56:29Z</time></trkpt><trkpt lat="40.79638573843825" lon="17.35533631858773"><ele>345.0</ele><time>2026-03-29T14:56:30Z</time></trkpt><trkpt lat="40.796581407336824" lon="17.355315633088914"><ele>345.0</ele><time>2026-03-29T14:56:31Z</time></trkpt><trkpt lat="40.796727859667946" lon="17.35527464638494"><ele>345.0</ele><time>2026-03-29T14:56:32Z</time></trkpt><trkpt lat="40.79686501987421" lon="17.355244546523636"><ele>345.0</ele><time>2026-03-29T14:56:33Z</time></trkpt><trkpt lat="40.797001695274105" lon="17.35520882097721"><ele>345.0</ele><time>2026-03-29T14:56:34Z</time></trkpt><trkpt lat="40.79715229491361" lon="17.35512797461945"><ele>345.0</ele><time>2026-03-29T14:56:35Z</time></trkpt><trkpt lat="40.797319423518864" lon="17.355018171845074"><ele>345.0</ele><time>2026-03-29T14:56:36Z</time></trkpt><trkpt lat="40.79748297021374" lon="17.354927945014634"><ele>345.0</ele><time>2026-03-29T14:56:37Z</time></trkpt><trkpt lat="40.79761300639482" lon="17.354843929499097"><ele>345.0</ele><time>2026-03-29T14:56:38Z</time></trkpt><trkpt lat="40.79775985151472" lon="17.354749564026513"><ele>343.5</ele><time>2026-03-29T14:56:39Z</time></trkpt><trkpt lat="40.797875447074304" lon="17.354635429604528"><ele>342.0</ele><time>2026-03-29T14:56:40Z</time></trkpt><trkpt lat="40.79798102703288" lon="17.354521574792336"><ele>340.5</ele><time>2026-03-29T14:56:41Z</time></trkpt><trkpt lat="40.79809162737664" lon="17.354373031157987"><ele>339.0</ele><time>2026-03-29T14:56:42Z</time></trkpt><trkpt lat="40.79823546470571" lon="17.354198102440694"><ele>339.0</ele><time>2026-03-29T14:56:43Z</time></trkpt><trkpt lat="40.79838029933979" lon="17.3540449265445"><ele>339.0</ele><time>2026-03-29T14:56:44Z</time></trkpt><trkpt lat="40.79853511952901" lon="17.353899323582826"><ele>339.0</ele><time>2026-03-29T14:56:45Z</time></trkpt><trkpt lat="40.798679883924756" lon="17.353773556702226"><ele>336.75</ele><time>2026-03-29T14:56:46Z</time></trkpt><trkpt lat="40.798799029813885" lon="17.35368584657371"><ele>334.5</ele><time>2026-03-29T14:56:47Z</time></trkpt><trkpt lat="40.7989076600162" lon="17.353609366598047"><ele>332.25</ele><time>2026-03-29T14:56:48Z</time></trkpt><trkpt lat="40.79899414231835" lon="17.353504592031246"><ele>330.0</ele><time>2026-03-29T14:56:49Z</time></trkpt><trkpt lat="40.79905885456302" lon="17.353365215479037"><ele>330.0</ele><time>2026-03-29T14:56:50Z</time></trkpt><trkpt lat="40.79909050081946" lon="17.353182834967107"><ele>330.0</ele><time>2026-03-29T14:56:51Z</time></trkpt><trkpt lat="40.79910984486792" lon="17.352982363635324"><ele>330.0</ele><time>2026-03-29T14:56:52Z</time></trkpt><trkpt lat="40.79913846430467" lon="17.352808681167645"><ele>330.0</ele><time>2026-03-29T14:56:53Z</time></trkpt><trkpt lat="40.79916870675067" lon="17.352670568620315"><ele>329.5</ele><time>2026-03-29T14:56:54Z</time></trkpt><trkpt lat="40.79919689585728" lon="17.352567809568534"><ele>329.0</ele><time>2026-03-29T14:56:55Z</time></trkpt><trkpt lat="40.79922186654307" lon="17.352490504867646"><ele>328.5</ele><time>2026-03-29T14:56:56Z</time></trkpt><trkpt lat="40.7992812850108" lon="17.35241013868461"><ele>328.0</ele><time>2026-03-29T14:56:57.999Z</time></trkpt><trkpt lat="40.79935966904168" lon="17.35237576705678"><ele>327.5</ele><time>2026-03-29T14:56:59.999Z</time></trkpt><trkpt lat="40.7994385194739" lon="17.35237265967716"><ele>327.0</ele><time>2026-03-29T14:57:00.999Z</time></trkpt><trkpt lat="40.799565267481945" lon="17.352359413997448"><ele>325.0</ele><time>2026-03-29T14:57:01.999Z</time></trkpt><trkpt lat="40.79971443125066" lon="17.3523290035897"><ele>323.0</ele><time>2026-03-29T14:57:02.999Z</time></trkpt><trkpt lat="40.79989425989253" lon="17.352313460448308"><ele>321.0</ele><time>2026-03-29T14:57:03.999Z</time></trkpt><trkpt lat="40.80007668997714" lon="17.35229817026811"><ele>320.3333333333333</ele><time>2026-03-29T14:57:04.999Z</time></trkpt><trkpt lat="40.80023664108975" lon="17.352283238607956"><ele>319.66666666666663</ele><time>2026-03-29T14:57:05.999Z</time></trkpt><trkpt lat="40.80040062166015" lon="17.35227334401656"><ele>319.0</ele><time>2026-03-29T14:57:06.999Z</time></trkpt><trkpt lat="40.800586994820144" lon="17.352247308992336"><ele>320.0</ele><time>2026-03-29T14:57:07.999Z</time></trkpt><trkpt lat="40.800807730835984" lon="17.352194793695553"><ele>321.0</ele><time>2026-03-29T14:57:08.999Z</time></trkpt><trkpt lat="40.80100213444189" lon="17.352176048459093"><ele>322.0</ele><time>2026-03-29T14:57:09.999Z</time></trkpt><trkpt lat="40.801191352772264" lon="17.352261647374984"><ele>319.3333333333333</ele><time>2026-03-29T14:57:10.999Z</time></trkpt><trkpt lat="40.80137590012829" lon="17.352303974813854"><ele>316.6666666666667</ele><time>2026-03-29T14:57:11.999Z</time></trkpt><trkpt lat="40.80154335934868" lon="17.352296290749344"><ele>314.0</ele><time>2026-03-29T14:57:12.999Z</time></trkpt><trkpt lat="40.80173275103606" lon="17.352231856256612"><ele>313.5</ele><time>2026-03-29T14:57:13.999Z</time></trkpt><trkpt lat="40.80194094349042" lon="17.352079299288423"><ele>313.0</ele><time>2026-03-29T14:57:14.999Z</time></trkpt><trkpt lat="40.802201820129895" lon="17.351912143723336"><ele>313.0</ele><time>2026-03-29T14:57:15.999Z</time></trkpt><trkpt lat="40.802441930903065" lon="17.35180096913618"><ele>313.0</ele><time>2026-03-29T14:57:16.999Z</time></trkpt><trkpt lat="40.80272935328713" lon="17.351717086840388"><ele>305.5</ele><time>2026-03-29T14:57:17.999Z</time></trkpt><trkpt lat="40.802976053952214" lon="17.351590578555914"><ele>298.0</ele><time>2026-03-29T14:57:18.999Z</time></trkpt><trkpt lat="40.803197242119126" lon="17.35147416384926"><ele>298.0</ele><time>2026-03-29T14:57:19.999Z</time></trkpt><trkpt lat="40.803446451184925" lon="17.351444338028404"><ele>298.0</ele><time>2026-03-29T14:57:20.999Z</time></trkpt><trkpt lat="40.80367885536814" lon="17.35142395384121"><ele>304.3333333333333</ele><time>2026-03-29T14:57:21.999Z</time></trkpt><trkpt lat="40.80385742479609" lon="17.35136865060397"><ele>310.6666666666667</ele><time>2026-03-29T14:57:22.999Z</time></trkpt><trkpt lat="40.804055519645246" lon="17.351354431589126"><ele>317.0</ele><time>2026-03-29T14:57:23.999Z</time></trkpt><trkpt lat="40.804222658258496" lon="17.35136521000153"><ele>308.6666666666667</ele><time>2026-03-29T14:57:24.999Z</time></trkpt><trkpt lat="40.80437623525003" lon="17.35133742685601"><ele>300.3333333333333</ele><time>2026-03-29T14:57:25.999Z</time></trkpt><trkpt lat="40.80457175884379" lon="17.351254679753797"><ele>292.0</ele><time>2026-03-29T14:57:26.999Z</time></trkpt><trkpt lat="40.8047392756107" lon="17.35109225806637"><ele>292.0</ele><time>2026-03-29T14:57:27.999Z</time></trkpt><trkpt lat="40.80488708051047" lon="17.35089064984622"><ele>292.0</ele><time>2026-03-29T14:57:28.999Z</time></trkpt><trkpt lat="40.805003406399926" lon="17.350640007321758"><ele>292.0</ele><time>2026-03-29T14:57:29.999Z</time></trkpt><trkpt lat="40.805114748025964" lon="17.35030971494753"><ele>288.0</ele><time>2026-03-29T14:57:30.999Z</time></trkpt><trkpt lat="40.80517268757258" lon="17.350010656295307"><ele>284.0</ele><time>2026-03-29T14:57:31.999Z</time></trkpt><trkpt lat="40.80525315017616" lon="17.349769048986875"><ele>280.0</ele><time>2026-03-29T14:57:32.999Z</time></trkpt><trkpt lat="40.80533280845936" lon="17.34952525469295"><ele>280.0</ele><time>2026-03-29T14:57:33.999Z</time></trkpt><trkpt lat="40.80543948372029" lon="17.349292332169334"><ele>280.0</ele><time>2026-03-29T14:57:34.999Z</time></trkpt><trkpt lat="40.80555604720196" lon="17.34905289102934"><ele>280.0</ele><time>2026-03-29T14:57:35.999Z</time></trkpt><trkpt lat="40.805684766281885" lon="17.348822254010425"><ele>284.3333333333333</ele><time>2026-03-29T14:57:36.999Z</time></trkpt><trkpt lat="40.80580501488419" lon="17.34863429887892"><ele>288.6666666666667</ele><time>2026-03-29T14:57:37.999Z</time></trkpt><trkpt lat="40.80590361627661" lon="17.348428076451956"><ele>293.0</ele><time>2026-03-29T14:57:38.999Z</time></trkpt><trkpt lat="40.806004235913626" lon="17.34824882955392"><ele>289.0</ele><time>2026-03-29T14:57:39.999Z</time></trkpt><trkpt lat="40.80610535757839" lon="17.348093351664804"><ele>285.0</ele><time>2026-03-29T14:57:40.999Z</time></trkpt><trkpt lat="40.8061889919108" lon="17.3479439223894"><ele>281.0</ele><time>2026-03-29T14:57:41.999Z</time></trkpt><trkpt lat="40.806262830504004" lon="17.347824576372307"><ele>277.0</ele><time>2026-03-29T14:57:42.999Z</time></trkpt><trkpt lat="40.806324806430545" lon="17.347710894155117"><ele>277.0</ele><time>2026-03-29T14:57:43.999Z</time></trkpt><trkpt lat="40.80638820749155" lon="17.347621098157266"><ele>277.0</ele><time>2026-03-29T14:57:44.999Z</time></trkpt><trkpt lat="40.80644722024984" lon="17.347551353639627"><ele>277.0</ele><time>2026-03-29T14:57:45.999Z</time></trkpt><trkpt lat="40.80649979815529" lon="17.347479437402317"><ele>277.0</ele><time>2026-03-29T14:57:47.999Z</time></trkpt><trkpt lat="40.806581313374224" lon="17.347389679107252"><ele>277.0</ele><time>2026-03-29T14:57:58.999Z</time></trkpt><trkpt lat="40.80663224787141" lon="17.347327402207657"><ele>277.0</ele><time>2026-03-29T14:57:59.999Z</time></trkpt><trkpt lat="40.806589664808484" lon="17.347109361697516"><ele>276.6</ele><time>2026-03-29T14:58:00.999Z</time></trkpt><trkpt lat="40.80663473502799" lon="17.347040757865244"><ele>276.2</ele><time>2026-03-29T14:58:01.999Z</time></trkpt><trkpt lat="40.80668341457015" lon="17.3469498288244"><ele>275.8</ele><time>2026-03-29T14:58:02.999Z</time></trkpt><trkpt lat="40.806801923795874" lon="17.346909125551104"><ele>275.4</ele><time>2026-03-29T14:58:03.999Z</time></trkpt><trkpt lat="40.80692152216467" lon="17.34682892224299"><ele>275.0</ele><time>2026-03-29T14:58:04.999Z</time></trkpt><trkpt lat="40.80705412613877" lon="17.346723466857593"><ele>275.0</ele><time>2026-03-29T14:58:05.999Z</time></trkpt><trkpt lat="40.8072022929223" lon="17.346589183028293"><ele>275.0</ele><time>2026-03-29T14:58:06.999Z</time></trkpt><trkpt lat="40.80737392009493" lon="17.346366235531576"><ele>275.0</ele><time>2026-03-29T14:58:08Z</time></trkpt><trkpt lat="40.807584055624254" lon="17.346102348895315"><ele>274.0</ele><time>2026-03-29T14:58:09Z</time></trkpt><trkpt lat="40.807782862027025" lon="17.34578256809687"><ele>273.0</ele><time>2026-03-29T14:58:10Z</time></trkpt><trkpt lat="40.80794726178962" lon="17.345533841926986"><ele>280.0</ele><time>2026-03-29T14:58:11Z</time></trkpt><trkpt lat="40.80807863711604" lon="17.345311770187305"><ele>287.0</ele><time>2026-03-29T14:58:12Z</time></trkpt><trkpt lat="40.80818497139283" lon="17.345142603788354"><ele>294.0</ele><time>2026-03-29T14:58:13Z</time></trkpt><trkpt lat="40.808264266456504" lon="17.3449966518746"><ele>294.0</ele><time>2026-03-29T14:58:14Z</time></trkpt><trkpt lat="40.80830744649043" lon="17.34480851941606"><ele>294.0</ele><time>2026-03-29T14:58:15Z</time></trkpt><trkpt lat="40.80831214691766" lon="17.34460691623037"><ele>294.0</ele><time>2026-03-29T14:58:16Z</time></trkpt><trkpt lat="40.80834722002242" lon="17.34443591387509"><ele>294.0</ele><time>2026-03-29T14:58:17Z</time></trkpt><trkpt lat="40.80840665315833" lon="17.34431190446093"><ele>296.0</ele><time>2026-03-29T14:58:18Z</time></trkpt><trkpt lat="40.80853440333032" lon="17.344249966758007"><ele>298.0</ele><time>2026-03-29T14:58:19Z</time></trkpt><trkpt lat="40.80865989401925" lon="17.34420916626492"><ele>300.0</ele><time>2026-03-29T14:58:20Z</time></trkpt><trkpt lat="40.808906860181" lon="17.344135276293628"><ele>300.0</ele><time>2026-03-29T14:58:21Z</time></trkpt><trkpt lat="40.809177474937634" lon="17.34405645696529"><ele>300.0</ele><time>2026-03-29T14:58:22Z</time></trkpt><trkpt lat="40.809459415287996" lon="17.34397433868014"><ele>295.5</ele><time>2026-03-29T14:58:23Z</time></trkpt><trkpt lat="40.80971784342091" lon="17.343902966833895"><ele>291.0</ele><time>2026-03-29T14:58:24Z</time></trkpt><trkpt lat="40.80991784035731" lon="17.343843299899536"><ele>293.0</ele><time>2026-03-29T14:58:25Z</time></trkpt><trkpt lat="40.81006293830508" lon="17.343787926549563"><ele>295.0</ele><time>2026-03-29T14:58:26Z</time></trkpt><trkpt lat="40.81018010740691" lon="17.343744237716585"><ele>297.0</ele><time>2026-03-29T14:58:27Z</time></trkpt><trkpt lat="40.81025145289769" lon="17.343696383680548"><ele>299.0</ele><time>2026-03-29T14:58:28Z</time></trkpt><trkpt lat="40.810314720442875" lon="17.34366346386862"><ele>301.0</ele><time>2026-03-29T14:58:29Z</time></trkpt><trkpt lat="40.81041671309551" lon="17.343593918507786"><ele>301.0</ele><time>2026-03-29T14:58:30Z</time></trkpt><trkpt lat="40.810525119489874" lon="17.34350414425963"><ele>301.0</ele><time>2026-03-29T14:58:31Z</time></trkpt><trkpt lat="40.81064452237101" lon="17.343434291295267"><ele>301.0</ele><time>2026-03-29T14:58:32Z</time></trkpt><trkpt lat="40.81072373559437" lon="17.343271814213978"><ele>301.0</ele><time>2026-03-29T14:58:33Z</time></trkpt><trkpt lat="40.81079632046017" lon="17.343075343730682"><ele>303.66666666666663</ele><time>2026-03-29T14:58:34Z</time></trkpt><trkpt lat="40.81087552067643" lon="17.34281112893565"><ele>306.3333333333333</ele><time>2026-03-29T14:58:35Z</time></trkpt><trkpt lat="40.81096984023192" lon="17.34256392091256"><ele>309.0</ele><time>2026-03-29T14:58:36Z</time></trkpt><trkpt lat="40.81103547039476" lon="17.34236260500894"><ele>309.0</ele><time>2026-03-29T14:58:37Z</time></trkpt><trkpt lat="40.8110968082429" lon="17.342208162342605"><ele>309.0</ele><time>2026-03-29T14:58:38Z</time></trkpt><trkpt lat="40.81116492999754" lon="17.34205440032187"><ele>309.0</ele><time>2026-03-29T14:58:39Z</time></trkpt><trkpt lat="40.81125241128756" lon="17.341943427844352"><ele>309.0</ele><time>2026-03-29T14:58:40Z</time></trkpt><trkpt lat="40.81136418287425" lon="17.34189185238632"><ele>309.0</ele><time>2026-03-29T14:58:41Z</time></trkpt><trkpt lat="40.81150387853239" lon="17.341862485540542"><ele>309.0</ele><time>2026-03-29T14:58:42Z</time></trkpt><trkpt lat="40.81164959314737" lon="17.341816316706375"><ele>309.0</ele><time>2026-03-29T14:58:43Z</time></trkpt><trkpt lat="40.81181747839903" lon="17.341747437185674"><ele>312.0</ele><time>2026-03-29T14:58:44Z</time></trkpt><trkpt lat="40.811947648939906" lon="17.34161479901399"><ele>315.0</ele><time>2026-03-29T14:58:45Z</time></trkpt><trkpt lat="40.81208791747146" lon="17.34142601607317"><ele>318.0</ele><time>2026-03-29T14:58:46Z</time></trkpt><trkpt lat="40.81221346341506" lon="17.341189792310708"><ele>318.0</ele><time>2026-03-29T14:58:47Z</time></trkpt><trkpt lat="40.81231068495242" lon="17.340938365171006"><ele>318.0</ele><time>2026-03-29T14:58:48Z</time></trkpt><trkpt lat="40.81246103194366" lon="17.3406715232787"><ele>322.0</ele><time>2026-03-29T14:58:49Z</time></trkpt><trkpt lat="40.81264353505695" lon="17.340505429686072"><ele>326.0</ele><time>2026-03-29T14:58:50Z</time></trkpt><trkpt lat="40.8128320519589" lon="17.34031093895495"><ele>326.0</ele><time>2026-03-29T14:58:51Z</time></trkpt><trkpt lat="40.81289398830743" lon="17.340165242018788"><ele>326.0</ele><time>2026-03-29T14:58:52Z</time></trkpt><trkpt lat="40.81307496032863" lon="17.33998562072399"><ele>326.0</ele><time>2026-03-29T14:58:53Z</time></trkpt><trkpt lat="40.81327356648039" lon="17.33982147690488"><ele>323.33333333333337</ele><time>2026-03-29T14:58:54Z</time></trkpt><trkpt lat="40.813440549024754" lon="17.339664627114804"><ele>320.6666666666667</ele><time>2026-03-29T14:58:55Z</time></trkpt><trkpt lat="40.81355166058915" lon="17.339521549576162"><ele>318.0</ele><time>2026-03-29T14:58:56Z</time></trkpt><trkpt lat="40.81364144818173" lon="17.339359494434294"><ele>322.3333333333333</ele><time>2026-03-29T14:58:57Z</time></trkpt><trkpt lat="40.8137121300663" lon="17.33919520386408"><ele>326.66666666666663</ele><time>2026-03-29T14:58:58Z</time></trkpt><trkpt lat="40.81374027765517" lon="17.338979388179066"><ele>331.0</ele><time>2026-03-29T14:58:59Z</time></trkpt><trkpt lat="40.8137609372302" lon="17.338732867225755"><ele>331.0</ele><time>2026-03-29T14:59:00Z</time></trkpt><trkpt lat="40.813835069132274" lon="17.338503036033483"><ele>331.0</ele><time>2026-03-29T14:59:01Z</time></trkpt><trkpt lat="40.813939749959125" lon="17.33838470296463"><ele>331.0</ele><time>2026-03-29T14:59:02Z</time></trkpt><trkpt lat="40.81409008036266" lon="17.33823119060022"><ele>331.0</ele><time>2026-03-29T14:59:03Z</time></trkpt><trkpt lat="40.81427637016541" lon="17.33807269490924"><ele>331.0</ele><time>2026-03-29T14:59:04Z</time></trkpt><trkpt lat="40.81450273029451" lon="17.337862508691366"><ele>332.5</ele><time>2026-03-29T14:59:05Z</time></trkpt><trkpt lat="40.81473291856218" lon="17.337630795709615"><ele>334.0</ele><time>2026-03-29T14:59:06Z</time></trkpt><trkpt lat="40.814983163519706" lon="17.337362878899246"><ele>338.5</ele><time>2026-03-29T14:59:06.999Z</time></trkpt><trkpt lat="40.81519686652477" lon="17.3371379773093"><ele>343.0</ele><time>2026-03-29T14:59:07.999Z</time></trkpt><trkpt lat="40.8153910986005" lon="17.336916789009894"><ele>343.0</ele><time>2026-03-29T14:59:08.999Z</time></trkpt><trkpt lat="40.81553285578151" lon="17.336676991839195"><ele>343.0</ele><time>2026-03-29T14:59:09.999Z</time></trkpt><trkpt lat="40.815680170148596" lon="17.336527901178385"><ele>343.0</ele><time>2026-03-29T14:59:10.999Z</time></trkpt><trkpt lat="40.815825528438296" lon="17.33642821383255"><ele>343.0</ele><time>2026-03-29T14:59:11.999Z</time></trkpt><trkpt lat="40.81595164346853" lon="17.336352577126288"><ele>343.0</ele><time>2026-03-29T14:59:12.999Z</time></trkpt><trkpt lat="40.8160146791965" lon="17.336264581527228"><ele>343.0</ele><time>2026-03-29T14:59:13.999Z</time></trkpt><trkpt lat="40.81600145971389" lon="17.33615737682664"><ele>343.0</ele><time>2026-03-29T14:59:14.999Z</time></trkpt><trkpt lat="40.81608720099995" lon="17.336064547244497"><ele>343.0</ele><time>2026-03-29T14:59:15.999Z</time></trkpt><trkpt lat="40.816011018748775" lon="17.33594540051001"><ele>343.0</ele><time>2026-03-29T14:59:16.999Z</time></trkpt><trkpt lat="40.81594776606329" lon="17.335881395082982"><ele>343.0</ele><time>2026-03-29T14:59:17.999Z</time></trkpt><trkpt lat="40.815850805231186" lon="17.335710964834316"><ele>343.0</ele><time>2026-03-29T14:59:18.999Z</time></trkpt><trkpt lat="40.815855558798916" lon="17.335506970411735"><ele>343.0</ele><time>2026-03-29T14:59:19.999Z</time></trkpt><trkpt lat="40.815907475014725" lon="17.335368776255393"><ele>342.66666666666663</ele><time>2026-03-29T14:59:20.999Z</time></trkpt><trkpt lat="40.81591681415007" lon="17.33516194708062"><ele>342.3333333333333</ele><time>2026-03-29T14:59:21.999Z</time></trkpt><trkpt lat="40.81604017413588" lon="17.334845470633297"><ele>342.0</ele><time>2026-03-29T14:59:22.999Z</time></trkpt><trkpt lat="40.81605321851585" lon="17.33450924342853"><ele>344.3333333333333</ele><time>2026-03-29T14:59:23.999Z</time></trkpt><trkpt lat="40.81616168056429" lon="17.33424633190979"><ele>346.66666666666663</ele><time>2026-03-29T14:59:24.999Z</time></trkpt><trkpt lat="40.81623838968127" lon="17.334046857738883"><ele>349.0</ele><time>2026-03-29T14:59:25.999Z</time></trkpt><trkpt lat="40.81628069817804" lon="17.33387182371149"><ele>349.0</ele><time>2026-03-29T14:59:26.999Z</time></trkpt><trkpt lat="40.816417177610596" lon="17.333721840496697"><ele>349.0</ele><time>2026-03-29T14:59:27.999Z</time></trkpt><trkpt lat="40.81651865018875" lon="17.333547264280796"><ele>349.0</ele><time>2026-03-29T14:59:28.999Z</time></trkpt><trkpt lat="40.81669096790563" lon="17.333505655862584"><ele>349.0</ele><time>2026-03-29T14:59:29.999Z</time></trkpt><trkpt lat="40.8168173171683" lon="17.3334004477032"><ele>349.0</ele><time>2026-03-29T14:59:30.999Z</time></trkpt><trkpt lat="40.81695232020247" lon="17.333270216714745"><ele>349.0</ele><time>2026-03-29T14:59:31.999Z</time></trkpt><trkpt lat="40.81710568427698" lon="17.333078966937453"><ele>351.0</ele><time>2026-03-29T14:59:32.999Z</time></trkpt><trkpt lat="40.817291473392444" lon="17.332809392505865"><ele>353.0</ele><time>2026-03-29T14:59:33.999Z</time></trkpt><trkpt lat="40.81749765806884" lon="17.33256809713699"><ele>356.5</ele><time>2026-03-29T14:59:34.999Z</time></trkpt><trkpt lat="40.817707529230894" lon="17.33237934289516"><ele>360.0</ele><time>2026-03-29T14:59:35.999Z</time></trkpt><trkpt lat="40.8179391318517" lon="17.33218588064485"><ele>360.0</ele><time>2026-03-29T14:59:36.999Z</time></trkpt><trkpt lat="40.81819051894318" lon="17.331885711822853"><ele>360.0</ele><time>2026-03-29T14:59:37.999Z</time></trkpt><trkpt lat="40.81841617806887" lon="17.331567862635378"><ele>363.0</ele><time>2026-03-29T14:59:38.999Z</time></trkpt><trkpt lat="40.818641498617815" lon="17.331328246347333"><ele>366.0</ele><time>2026-03-29T14:59:39.999Z</time></trkpt><trkpt lat="40.81888758025516" lon="17.331120968757926"><ele>366.0</ele><time>2026-03-29T14:59:40.999Z</time></trkpt><trkpt lat="40.819177195810894" lon="17.33089377024377"><ele>366.0</ele><time>2026-03-29T14:59:41.999Z</time></trkpt><trkpt lat="40.819452305571" lon="17.330614188644102"><ele>367.0</ele><time>2026-03-29T14:59:42.999Z</time></trkpt><trkpt lat="40.819721936899874" lon="17.33026757479735"><ele>368.0</ele><time>2026-03-29T14:59:43.999Z</time></trkpt><trkpt lat="40.81999002719089" lon="17.329988759234244"><ele>376.5</ele><time>2026-03-29T14:59:44.999Z</time></trkpt><trkpt lat="40.82022066183014" lon="17.329730124540095"><ele>385.0</ele><time>2026-03-29T14:59:45.999Z</time></trkpt><trkpt lat="40.82043834987865" lon="17.329438684017692"><ele>385.0</ele><time>2026-03-29T14:59:46.999Z</time></trkpt><trkpt lat="40.820664782828565" lon="17.32909671212663"><ele>385.0</ele><time>2026-03-29T14:59:47.999Z</time></trkpt><trkpt lat="40.820838601056984" lon="17.328760042403225"><ele>382.0</ele><time>2026-03-29T14:59:48.999Z</time></trkpt><trkpt lat="40.82108310240867" lon="17.32841469483722"><ele>379.0</ele><time>2026-03-29T14:59:49.999Z</time></trkpt><trkpt lat="40.82135563519034" lon="17.32803274420817"><ele>379.0</ele><time>2026-03-29T14:59:50.999Z</time></trkpt><trkpt lat="40.821579555913594" lon="17.327757428297293"><ele>379.0</ele><time>2026-03-29T14:59:51.999Z</time></trkpt><trkpt lat="40.821770828212" lon="17.327529574365975"><ele>381.0</ele><time>2026-03-29T14:59:52.999Z</time></trkpt><trkpt lat="40.821956344040196" lon="17.327382906750344"><ele>383.0</ele><time>2026-03-29T14:59:53.999Z</time></trkpt><trkpt lat="40.82214406161855" lon="17.32722614542061"><ele>385.0</ele><time>2026-03-29T14:59:54.999Z</time></trkpt><trkpt lat="40.82231359520578" lon="17.327119845951135"><ele>385.0</ele><time>2026-03-29T14:59:55.999Z</time></trkpt><trkpt lat="40.82246250903514" lon="17.327071028866165"><ele>385.0</ele><time>2026-03-29T14:59:56.999Z</time></trkpt><trkpt lat="40.822593681466884" lon="17.327019706182607"><ele>385.0</ele><time>2026-03-29T14:59:57.999Z</time></trkpt><trkpt lat="40.82269059871486" lon="17.326980445327354"><ele>385.0</ele><time>2026-03-29T14:59:58.999Z</time></trkpt><trkpt lat="40.82275292145191" lon="17.326866893708356"><ele>386.6666666666667</ele><time>2026-03-29T14:59:59.999Z</time></trkpt><trkpt lat="40.822755287965116" lon="17.32667167402961"><ele>388.33333333333337</ele><time>2026-03-29T15:00:00.999Z</time></trkpt><trkpt lat="40.82277433595674" lon="17.32645949563684"><ele>390.0</ele><time>2026-03-29T15:00:01.999Z</time></trkpt><trkpt lat="40.822873064469256" lon="17.326240733415105"><ele>390.0</ele><time>2026-03-29T15:00:02.999Z</time></trkpt><trkpt lat="40.822973338891536" lon="17.32603214412747"><ele>390.0</ele><time>2026-03-29T15:00:03.999Z</time></trkpt><trkpt lat="40.8231211566845" lon="17.325942198551644"><ele>390.0</ele><time>2026-03-29T15:00:04.999Z</time></trkpt><trkpt lat="40.82324425752446" lon="17.325875311198953"><ele>390.0</ele><time>2026-03-29T15:00:05.999Z</time></trkpt><trkpt lat="40.82340530258629" lon="17.32590076069895"><ele>390.0</ele><time>2026-03-29T15:00:06.999Z</time></trkpt><trkpt lat="40.823616738997906" lon="17.32592515088827"><ele>390.0</ele><time>2026-03-29T15:00:07.999Z</time></trkpt><trkpt lat="40.823855839607184" lon="17.325884327075975"><ele>394.0</ele><time>2026-03-29T15:00:08.999Z</time></trkpt><trkpt lat="40.82405982322196" lon="17.325798907107604"><ele>398.0</ele><time>2026-03-29T15:00:09.999Z</time></trkpt><trkpt lat="40.82421150352428" lon="17.325704068952042"><ele>402.0</ele><time>2026-03-29T15:00:10.999Z</time></trkpt><trkpt lat="40.824363908503045" lon="17.325686924021934"><ele>402.20000000000005</ele><time>2026-03-29T15:00:11.999Z</time></trkpt><trkpt lat="40.82447341971106" lon="17.325674649529894"><ele>402.4</ele><time>2026-03-29T15:00:12.999Z</time></trkpt><trkpt lat="40.82457258404271" lon="17.325686894116053"><ele>402.6</ele><time>2026-03-29T15:00:14Z</time></trkpt><trkpt lat="40.82466855111822" lon="17.32576433990676"><ele>402.79999999999995</ele><time>2026-03-29T15:00:15Z</time></trkpt><trkpt lat="40.82475834899496" lon="17.325870361012683"><ele>403.0</ele><time>2026-03-29T15:00:16Z</time></trkpt><trkpt lat="40.824821291960184" lon="17.325932089908015"><ele>403.0</ele><time>2026-03-29T15:00:17Z</time></trkpt><trkpt lat="40.824903697362345" lon="17.325930444748415"><ele>403.0</ele><time>2026-03-29T15:00:20Z</time></trkpt><trkpt lat="40.824951355184254" lon="17.325867521962184"><ele>403.0</ele><time>2026-03-29T15:00:21Z</time></trkpt><trkpt lat="40.82502086993129" lon="17.325770847025723"><ele>403.0</ele><time>2026-03-29T15:00:22Z</time></trkpt><trkpt lat="40.82507502525537" lon="17.325669964401413"><ele>403.0</ele><time>2026-03-29T15:00:23Z</time></trkpt><trkpt lat="40.82514936652815" lon="17.325546590084564"><ele>402.25</ele><time>2026-03-29T15:00:24Z</time></trkpt><trkpt lat="40.825211374711536" lon="17.32541062464519"><ele>401.5</ele><time>2026-03-29T15:00:25Z</time></trkpt><trkpt lat="40.825308638602266" lon="17.32527985086981"><ele>400.75</ele><time>2026-03-29T15:00:26Z</time></trkpt><trkpt lat="40.82541540076332" lon="17.32511968490103"><ele>400.0</ele><time>2026-03-29T15:00:27Z</time></trkpt><trkpt lat="40.825551971196944" lon="17.324907410353003"><ele>398.6666666666667</ele><time>2026-03-29T15:00:28Z</time></trkpt><trkpt lat="40.82571066538888" lon="17.32470922096757"><ele>397.33333333333337</ele><time>2026-03-29T15:00:29Z</time></trkpt><trkpt lat="40.82578818647224" lon="17.32449109374163"><ele>396.0</ele><time>2026-03-29T15:00:30Z</time></trkpt><trkpt lat="40.82589744640002" lon="17.32438942091326"><ele>396.0</ele><time>2026-03-29T15:00:31Z</time></trkpt><trkpt lat="40.825994300827944" lon="17.324251049368556"><ele>396.0</ele><time>2026-03-29T15:00:32Z</time></trkpt><trkpt lat="40.82609157952547" lon="17.324098961082438"><ele>396.0</ele><time>2026-03-29T15:00:33Z</time></trkpt><trkpt lat="40.82617610022527" lon="17.323881830077806"><ele>396.33333333333337</ele><time>2026-03-29T15:00:34Z</time></trkpt><trkpt lat="40.82626966922354" lon="17.32366914493535"><ele>396.6666666666667</ele><time>2026-03-29T15:00:35Z</time></trkpt><trkpt lat="40.82634199942254" lon="17.323486849662906"><ele>397.0</ele><time>2026-03-29T15:00:36Z</time></trkpt><trkpt lat="40.82640668699373" lon="17.323329069846864"><ele>397.0</ele><time>2026-03-29T15:00:37Z</time></trkpt><trkpt lat="40.82648008498762" lon="17.323179377661543"><ele>397.0</ele><time>2026-03-29T15:00:38Z</time></trkpt><trkpt lat="40.8265317636729" lon="17.323019958882025"><ele>397.0</ele><time>2026-03-29T15:00:39Z</time></trkpt><trkpt lat="40.8265980887316" lon="17.322909832743413"><ele>397.0</ele><time>2026-03-29T15:00:40Z</time></trkpt><trkpt lat="40.826665234802256" lon="17.32279083070698"><ele>396.25</ele><time>2026-03-29T15:00:41Z</time></trkpt><trkpt lat="40.826700921025285" lon="17.322699499001367"><ele>395.5</ele><time>2026-03-29T15:00:42Z</time></trkpt><trkpt lat="40.82681219247547" lon="17.322604158018354"><ele>394.75</ele><time>2026-03-29T15:00:43Z</time></trkpt><trkpt lat="40.82694324518816" lon="17.322480268016214"><ele>394.0</ele><time>2026-03-29T15:00:44Z</time></trkpt><trkpt lat="40.82706474425067" lon="17.32239302576127"><ele>394.0</ele><time>2026-03-29T15:00:45Z</time></trkpt><trkpt lat="40.82714384539787" lon="17.322296831372714"><ele>394.0</ele><time>2026-03-29T15:00:46Z</time></trkpt><trkpt lat="40.827221473595735" lon="17.322219258949904"><ele>394.0</ele><time>2026-03-29T15:00:47Z</time></trkpt><trkpt lat="40.82728592523718" lon="17.322136296585736"><ele>394.0</ele><time>2026-03-29T15:00:48Z</time></trkpt><trkpt lat="40.827342534895024" lon="17.322067791944878"><ele>394.0</ele><time>2026-03-29T15:00:49Z</time></trkpt><trkpt lat="40.827412469290714" lon="17.321952553584104"><ele>393.50000000000006</ele><time>2026-03-29T15:00:51Z</time></trkpt><trkpt lat="40.8274556209524" lon="17.321880899385857"><ele>393.0</ele><time>2026-03-29T15:00:53Z</time></trkpt><trkpt lat="40.82750960936397" lon="17.321801192602052"><ele>392.5</ele><time>2026-03-29T15:00:56Z</time></trkpt><trkpt lat="40.82758774093535" lon="17.32172507030052"><ele>392.0</ele><time>2026-03-29T15:00:58Z</time></trkpt><trkpt lat="40.82763924451861" lon="17.321656392218202"><ele>391.50000000000006</ele><time>2026-03-29T15:00:59Z</time></trkpt><trkpt lat="40.827688622073396" lon="17.32156166489773"><ele>391.0</ele><time>2026-03-29T15:01:00Z</time></trkpt><trkpt lat="40.82781871767166" lon="17.321490850179803"><ele>391.00000000000006</ele><time>2026-03-29T15:01:02Z</time></trkpt><trkpt lat="40.82787960520684" lon="17.321423871821207"><ele>391.0</ele><time>2026-03-29T15:01:03Z</time></trkpt><trkpt lat="40.82794428763175" lon="17.321353094711156"><ele>391.0</ele><time>2026-03-29T15:01:04Z</time></trkpt><trkpt lat="40.82799968462881" lon="17.321292477893415"><ele>391.0</ele><time>2026-03-29T15:01:05Z</time></trkpt><trkpt lat="40.82804741533712" lon="17.321231795580342"><ele>391.00000000000006</ele><time>2026-03-29T15:01:06Z</time></trkpt><trkpt lat="40.82814506199088" lon="17.321118042064537"><ele>391.0</ele><time>2026-03-29T15:01:08Z</time></trkpt><trkpt lat="40.82820939167904" lon="17.321053515247698"><ele>391.00000000000006</ele><time>2026-03-29T15:01:09Z</time></trkpt><trkpt lat="40.82826919683743" lon="17.320990338180575"><ele>391.0</ele><time>2026-03-29T15:01:10Z</time></trkpt><trkpt lat="40.82834484464774" lon="17.320915665542287"><ele>391.0</ele><time>2026-03-29T15:01:12Z</time></trkpt><trkpt lat="40.82840797895803" lon="17.320854222249814"><ele>391.0</ele><time>2026-03-29T15:01:13Z</time></trkpt><trkpt lat="40.82845409453942" lon="17.320789071968186"><ele>391.00000000000006</ele><time>2026-03-29T15:01:14Z</time></trkpt><trkpt lat="40.8285385880826" lon="17.32070897191755"><ele>391.0</ele><time>2026-03-29T15:01:17Z</time></trkpt><trkpt lat="40.82859334881016" lon="17.32063456935183"><ele>391.8</ele><time>2026-03-29T15:01:19Z</time></trkpt><trkpt lat="40.828683743293766" lon="17.320531067902984"><ele>392.6</ele><time>2026-03-29T15:01:20.999Z</time></trkpt><trkpt lat="40.82876710557603" lon="17.32046525322341"><ele>393.4</ele><time>2026-03-29T15:01:21.999Z</time></trkpt><trkpt lat="40.82886079751071" lon="17.32040882232926"><ele>394.2</ele><time>2026-03-29T15:01:22.999Z</time></trkpt><trkpt lat="40.828925309241505" lon="17.320291606802584"><ele>395.0</ele><time>2026-03-29T15:01:23.999Z</time></trkpt><trkpt lat="40.828999743996185" lon="17.320228228956825"><ele>395.0</ele><time>2026-03-29T15:01:24.999Z</time></trkpt><trkpt lat="40.829055107668545" lon="17.320148068517362"><ele>395.0</ele><time>2026-03-29T15:01:25.999Z</time></trkpt><trkpt lat="40.829130286175804" lon="17.320038907715645"><ele>395.0</ele><time>2026-03-29T15:01:26.999Z</time></trkpt><trkpt lat="40.82921828336941" lon="17.319931871586295"><ele>395.0</ele><time>2026-03-29T15:01:27.999Z</time></trkpt><trkpt lat="40.82928453890514" lon="17.31989806889102"><ele>395.0</ele><time>2026-03-29T15:01:28.999Z</time></trkpt><trkpt lat="40.82937201067072" lon="17.319773603771264"><ele>395.16666666666663</ele><time>2026-03-29T15:01:30.999Z</time></trkpt><trkpt lat="40.829426653649435" lon="17.31970482070157"><ele>395.3333333333333</ele><time>2026-03-29T15:01:31.999Z</time></trkpt><trkpt lat="40.82949170030606" lon="17.319613014071678"><ele>395.5</ele><time>2026-03-29T15:01:33.999Z</time></trkpt><trkpt lat="40.82955773474854" lon="17.31955503649469"><ele>395.66666666666663</ele><time>2026-03-29T15:01:35.999Z</time></trkpt><trkpt lat="40.82964578654803" lon="17.31958631151749"><ele>395.8333333333333</ele><time>2026-03-29T15:01:39.999Z</time></trkpt><trkpt lat="40.829673919051096" lon="17.319671591570632"><ele>396.0</ele><time>2026-03-29T15:01:40.999Z</time></trkpt><trkpt lat="40.82972601237314" lon="17.319746094315434"><ele>396.0</ele><time>2026-03-29T15:01:41.999Z</time></trkpt><trkpt lat="40.82975670396616" lon="17.31985469458405"><ele>396.0</ele><time>2026-03-29T15:01:42.999Z</time></trkpt><trkpt lat="40.829812434078484" lon="17.31995798719837"><ele>396.0</ele><time>2026-03-29T15:01:43.999Z</time></trkpt><trkpt lat="40.829854793081545" lon="17.32006349455736"><ele>396.0</ele><time>2026-03-29T15:01:44.999Z</time></trkpt><trkpt lat="40.8298922760107" lon="17.320146836436667"><ele>396.0</ele><time>2026-03-29T15:01:45.999Z</time></trkpt><trkpt lat="40.82992220053431" lon="17.320248306278863"><ele>396.0</ele><time>2026-03-29T15:01:46.999Z</time></trkpt><trkpt lat="40.82995110643861" lon="17.320356550167514"><ele>396.0</ele><time>2026-03-29T15:01:47.999Z</time></trkpt><trkpt lat="40.83000024529756" lon="17.320463961446997"><ele>396.0</ele><time>2026-03-29T15:01:48.999Z</time></trkpt><trkpt lat="40.83004143049744" lon="17.32055296983029"><ele>396.0</ele><time>2026-03-29T15:01:49.999Z</time></trkpt><trkpt lat="40.83007327213727" lon="17.32065888760212"><ele>396.0</ele><time>2026-03-29T15:01:50.999Z</time></trkpt><trkpt lat="40.830118382929065" lon="17.320748220865706"><ele>396.0</ele><time>2026-03-29T15:01:51.999Z</time></trkpt><trkpt lat="40.83015319561671" lon="17.32082768443888"><ele>396.0</ele><time>2026-03-29T15:01:52.999Z</time></trkpt><trkpt lat="40.830196640817846" lon="17.32089994613871"><ele>394.0</ele><time>2026-03-29T15:01:53.999Z</time></trkpt><trkpt lat="40.83025693608604" lon="17.32096481069719"><ele>392.0</ele><time>2026-03-29T15:01:54.999Z</time></trkpt><trkpt lat="40.83039272276716" lon="17.320996760298776"><ele>390.0</ele><time>2026-03-29T15:01:56.999Z</time></trkpt><trkpt lat="40.83048472629605" lon="17.32099567700421"><ele>388.0</ele><time>2026-03-29T15:01:57.999Z</time></trkpt><trkpt lat="40.830554627758076" lon="17.320986332223182"><ele>386.0</ele><time>2026-03-29T15:01:58.999Z</time></trkpt><trkpt lat="40.83067573752841" lon="17.321068336349736"><ele>385.99999999999994</ele><time>2026-03-29T15:02:00.999Z</time></trkpt><trkpt lat="40.83070288164514" lon="17.321151691670707"><ele>386.0</ele><time>2026-03-29T15:02:01.999Z</time></trkpt><trkpt lat="40.83074882312253" lon="17.321250108892066"><ele>386.0</ele><time>2026-03-29T15:02:02.999Z</time></trkpt><trkpt lat="40.83080893618638" lon="17.321366644578116"><ele>386.0</ele><time>2026-03-29T15:02:03.999Z</time></trkpt><trkpt lat="40.830859920000925" lon="17.321475852137485"><ele>385.99999999999994</ele><time>2026-03-29T15:02:04.999Z</time></trkpt><trkpt lat="40.83090599997765" lon="17.32153356112191"><ele>386.0</ele><time>2026-03-29T15:02:05.999Z</time></trkpt><trkpt lat="40.83097812295735" lon="17.32164109738864"><ele>384.49999999999994</ele><time>2026-03-29T15:02:07.999Z</time></trkpt><trkpt lat="40.83102318014433" lon="17.321748753059023"><ele>383.0</ele><time>2026-03-29T15:02:09.999Z</time></trkpt><trkpt lat="40.831079754606286" lon="17.321816739590663"><ele>381.5</ele><time>2026-03-29T15:02:10.999Z</time></trkpt><trkpt lat="40.83113133633112" lon="17.32186888223219"><ele>380.0</ele><time>2026-03-29T15:02:11.999Z</time></trkpt><trkpt lat="40.83120302227753" lon="17.321940710359343"><ele>378.5</ele><time>2026-03-29T15:02:12.999Z</time></trkpt><trkpt lat="40.831268399644344" lon="17.321985027441894"><ele>377.0</ele><time>2026-03-29T15:02:13.999Z</time></trkpt><trkpt lat="40.83136559885453" lon="17.322070422514674"><ele>377.0</ele><time>2026-03-29T15:02:15.999Z</time></trkpt><trkpt lat="40.83145988055011" lon="17.322159077260043"><ele>377.0</ele><time>2026-03-29T15:02:16.999Z</time></trkpt><trkpt lat="40.831548770342955" lon="17.322238551307052"><ele>377.0</ele><time>2026-03-29T15:02:17.999Z</time></trkpt><trkpt lat="40.83160788835512" lon="17.322291406674125"><ele>377.0</ele><time>2026-03-29T15:02:18.999Z</time></trkpt><trkpt lat="40.831744267060095" lon="17.322415473261863"><ele>376.0</ele><time>2026-03-29T15:02:21Z</time></trkpt><trkpt lat="40.83182658708982" lon="17.322477144367483"><ele>375.0</ele><time>2026-03-29T15:02:22Z</time></trkpt><trkpt lat="40.83189882403756" lon="17.322572963799335"><ele>374.0</ele><time>2026-03-29T15:02:23Z</time></trkpt><trkpt lat="40.83195859955151" lon="17.32264581588771"><ele>373.0</ele><time>2026-03-29T15:02:24Z</time></trkpt><trkpt lat="40.8320245123464" lon="17.322682708401977"><ele>372.0</ele><time>2026-03-29T15:02:25Z</time></trkpt><trkpt lat="40.83209011022314" lon="17.322766809468312"><ele>371.0</ele><time>2026-03-29T15:02:27Z</time></trkpt><trkpt lat="40.83210694980627" lon="17.32292238928736"><ele>370.5</ele><time>2026-03-29T15:02:29Z</time></trkpt><trkpt lat="40.83204224032667" lon="17.32307555267645"><ele>370.0</ele><time>2026-03-29T15:02:31Z</time></trkpt><trkpt lat="40.83196512430144" lon="17.323138522917166"><ele>369.5</ele><time>2026-03-29T15:02:32Z</time></trkpt><trkpt lat="40.831868493002574" lon="17.323207126188308"><ele>369.0</ele><time>2026-03-29T15:02:33Z</time></trkpt><trkpt lat="40.83175706476922" lon="17.3232922101297"><ele>370.0</ele><time>2026-03-29T15:02:34Z</time></trkpt><trkpt lat="40.8316790537688" lon="17.323318256211525"><ele>371.0</ele><time>2026-03-29T15:02:35Z</time></trkpt><trkpt lat="40.83161073706321" lon="17.323401821149865"><ele>372.0</ele><time>2026-03-29T15:02:36Z</time></trkpt><trkpt lat="40.83154699750614" lon="17.323488580860904"><ele>373.0</ele><time>2026-03-29T15:02:37Z</time></trkpt><trkpt lat="40.83149682775137" lon="17.323611238062117"><ele>374.0</ele><time>2026-03-29T15:02:38Z</time></trkpt><trkpt lat="40.83148032222622" lon="17.32375102612815"><ele>374.0</ele><time>2026-03-29T15:02:39Z</time></trkpt><trkpt lat="40.831496486079914" lon="17.32388736209764"><ele>374.0</ele><time>2026-03-29T15:02:40Z</time></trkpt><trkpt lat="40.83152413164806" lon="17.324037978633328"><ele>374.0</ele><time>2026-03-29T15:02:41Z</time></trkpt><trkpt lat="40.831540908926684" lon="17.32420215386912"><ele>374.0</ele><time>2026-03-29T15:02:42Z</time></trkpt><trkpt lat="40.831522890166646" lon="17.324380807860326"><ele>374.25</ele><time>2026-03-29T15:02:43Z</time></trkpt><trkpt lat="40.83146348701852" lon="17.324496727863913"><ele>374.5</ele><time>2026-03-29T15:02:44Z</time></trkpt><trkpt lat="40.831386816900796" lon="17.324600780662283"><ele>374.75</ele><time>2026-03-29T15:02:45Z</time></trkpt><trkpt lat="40.83133736841005" lon="17.324741083466638"><ele>375.0</ele><time>2026-03-29T15:02:46Z</time></trkpt><trkpt lat="40.83131604201094" lon="17.324910033679334"><ele>375.0</ele><time>2026-03-29T15:02:47Z</time></trkpt><trkpt lat="40.83131214483095" lon="17.3250336305505"><ele>375.0</ele><time>2026-03-29T15:02:48Z</time></trkpt><trkpt lat="40.83136455958077" lon="17.325164525879845"><ele>375.0</ele><time>2026-03-29T15:02:49Z</time></trkpt><trkpt lat="40.831435359108674" lon="17.32529956965296"><ele>375.0</ele><time>2026-03-29T15:02:50Z</time></trkpt><trkpt lat="40.831513953555564" lon="17.325458927952152"><ele>375.8</ele><time>2026-03-29T15:02:51Z</time></trkpt><trkpt lat="40.831574600964515" lon="17.325617294442583"><ele>376.6</ele><time>2026-03-29T15:02:52Z</time></trkpt><trkpt lat="40.83160171791383" lon="17.325765959118062"><ele>377.4</ele><time>2026-03-29T15:02:53Z</time></trkpt><trkpt lat="40.83162229374089" lon="17.32587640642998"><ele>378.2</ele><time>2026-03-29T15:02:54Z</time></trkpt><trkpt lat="40.83165272484008" lon="17.32597423900726"><ele>379.0</ele><time>2026-03-29T15:02:55Z</time></trkpt><trkpt lat="40.83175717252532" lon="17.326129325787317"><ele>377.0</ele><time>2026-03-29T15:02:57Z</time></trkpt><trkpt lat="40.8318354839995" lon="17.326199331036165"><ele>375.0</ele><time>2026-03-29T15:02:58Z</time></trkpt><trkpt lat="40.8319360591424" lon="17.32625033142391"><ele>373.0</ele><time>2026-03-29T15:02:59Z</time></trkpt><trkpt lat="40.832035709093546" lon="17.326342455786687"><ele>371.0</ele><time>2026-03-29T15:03:01Z</time></trkpt><trkpt lat="40.832160411171216" lon="17.326392268816583"><ele>370.75</ele><time>2026-03-29T15:03:03Z</time></trkpt><trkpt lat="40.8322412990463" lon="17.326425170141416"><ele>370.5</ele><time>2026-03-29T15:03:04Z</time></trkpt><trkpt lat="40.83235807449272" lon="17.32650752731962"><ele>370.25</ele><time>2026-03-29T15:03:05Z</time></trkpt><trkpt lat="40.832468719746345" lon="17.326603855391237"><ele>370.0</ele><time>2026-03-29T15:03:06Z</time></trkpt><trkpt lat="40.832582233246036" lon="17.326695204045674"><ele>370.0</ele><time>2026-03-29T15:03:07Z</time></trkpt><trkpt lat="40.832720524999054" lon="17.326758348349255"><ele>370.0</ele><time>2026-03-29T15:03:08Z</time></trkpt><trkpt lat="40.83289976102025" lon="17.326864676770512"><ele>370.0</ele><time>2026-03-29T15:03:09Z</time></trkpt><trkpt lat="40.83303463534775" lon="17.326944494335752"><ele>370.0</ele><time>2026-03-29T15:03:10Z</time></trkpt><trkpt lat="40.83313516110535" lon="17.327003863416884"><ele>370.0</ele><time>2026-03-29T15:03:11Z</time></trkpt><trkpt lat="40.83326184569348" lon="17.32707885762721"><ele>370.0</ele><time>2026-03-29T15:03:12Z</time></trkpt><trkpt lat="40.83337386853439" lon="17.32717027229895"><ele>370.0</ele><time>2026-03-29T15:03:13Z</time></trkpt><trkpt lat="40.833479570802595" lon="17.327241883076844"><ele>372.25</ele><time>2026-03-29T15:03:14Z</time></trkpt><trkpt lat="40.833557116410844" lon="17.32734056000217"><ele>374.5</ele><time>2026-03-29T15:03:15Z</time></trkpt><trkpt lat="40.833620963064305" lon="17.327477219795405"><ele>376.75</ele><time>2026-03-29T15:03:16Z</time></trkpt><trkpt lat="40.83371552624753" lon="17.327604878488565"><ele>379.0</ele><time>2026-03-29T15:03:17Z</time></trkpt><trkpt lat="40.83380536786222" lon="17.327687173072494"><ele>379.0</ele><time>2026-03-29T15:03:18Z</time></trkpt><trkpt lat="40.8339149959469" lon="17.3277678550387"><ele>379.0</ele><time>2026-03-29T15:03:19Z</time></trkpt><trkpt lat="40.83401113836365" lon="17.327837989469117"><ele>379.0</ele><time>2026-03-29T15:03:19.999Z</time></trkpt><trkpt lat="40.8340955737066" lon="17.327890347078778"><ele>379.0</ele><time>2026-03-29T15:03:20.999Z</time></trkpt><trkpt lat="40.83418634149829" lon="17.327918047235475"><ele>379.0</ele><time>2026-03-29T15:03:22.999Z</time></trkpt><trkpt lat="40.8342281620816" lon="17.327994350681127"><ele>378.66666666666663</ele><time>2026-03-29T15:03:23.999Z</time></trkpt><trkpt lat="40.83437836181383" lon="17.3279082812763"><ele>378.3333333333333</ele><time>2026-03-29T15:03:24.999Z</time></trkpt><trkpt lat="40.83451727641851" lon="17.327839301649668"><ele>378.0</ele><time>2026-03-29T15:03:25.999Z</time></trkpt><trkpt lat="40.83466749259374" lon="17.32778637764242"><ele>378.0</ele><time>2026-03-29T15:03:26.999Z</time></trkpt><trkpt lat="40.83487361508842" lon="17.327784221131314"><ele>378.0</ele><time>2026-03-29T15:03:27.999Z</time></trkpt><trkpt lat="40.83502791773473" lon="17.3277932106886"><ele>378.0</ele><time>2026-03-29T15:03:28.999Z</time></trkpt><trkpt lat="40.835159497697106" lon="17.32775679267886"><ele>374.6666666666667</ele><time>2026-03-29T15:03:29.999Z</time></trkpt><trkpt lat="40.83527292489236" lon="17.327640819329336"><ele>371.33333333333337</ele><time>2026-03-29T15:03:30.999Z</time></trkpt><trkpt lat="40.83536566854143" lon="17.327468853265486"><ele>368.0</ele><time>2026-03-29T15:03:31.999Z</time></trkpt><trkpt lat="40.83544201144822" lon="17.327293094029017"><ele>372.6666666666667</ele><time>2026-03-29T15:03:32.999Z</time></trkpt><trkpt lat="40.835540642771335" lon="17.327079200054843"><ele>377.3333333333333</ele><time>2026-03-29T15:03:33.999Z</time></trkpt><trkpt lat="40.83564249180092" lon="17.326913627707444"><ele>382.0</ele><time>2026-03-29T15:03:34.999Z</time></trkpt><trkpt lat="40.83576684476516" lon="17.326768046087242"><ele>382.0</ele><time>2026-03-29T15:03:35.999Z</time></trkpt><trkpt lat="40.83587221265325" lon="17.32662575226529"><ele>382.0</ele><time>2026-03-29T15:03:36.999Z</time></trkpt><trkpt lat="40.835950550554664" lon="17.326485443671125"><ele>382.0</ele><time>2026-03-29T15:03:37.999Z</time></trkpt><trkpt lat="40.836005963971196" lon="17.326389672770198"><ele>382.0</ele><time>2026-03-29T15:03:38.999Z</time></trkpt><trkpt lat="40.83602682191644" lon="17.326222832186225"><ele>381.0</ele><time>2026-03-29T15:03:39.999Z</time></trkpt><trkpt lat="40.83598201216463" lon="17.326015591052307"><ele>380.0</ele><time>2026-03-29T15:03:40.999Z</time></trkpt><trkpt lat="40.836004897942175" lon="17.325775454473725"><ele>379.0</ele><time>2026-03-29T15:03:41.999Z</time></trkpt><trkpt lat="40.83603953588596" lon="17.32552021347106"><ele>381.0</ele><time>2026-03-29T15:03:42.999Z</time></trkpt><trkpt lat="40.8360814476238" lon="17.325257732316253"><ele>383.0</ele><time>2026-03-29T15:03:43.999Z</time></trkpt><trkpt lat="40.83611602140953" lon="17.325061762088477"><ele>385.0</ele><time>2026-03-29T15:03:44.999Z</time></trkpt><trkpt lat="40.8361651466013" lon="17.32483021758562"><ele>386.33333333333337</ele><time>2026-03-29T15:03:45.999Z</time></trkpt><trkpt lat="40.8362355334195" lon="17.324646472685895"><ele>387.66666666666663</ele><time>2026-03-29T15:03:46.999Z</time></trkpt><trkpt lat="40.836322028758595" lon="17.324478310556714"><ele>389.0</ele><time>2026-03-29T15:03:47.999Z</time></trkpt><trkpt lat="40.836409199083256" lon="17.324265676135244"><ele>389.0</ele><time>2026-03-29T15:03:48.999Z</time></trkpt><trkpt lat="40.836474985963214" lon="17.324028022367703"><ele>389.0</ele><time>2026-03-29T15:03:49.999Z</time></trkpt><trkpt lat="40.83649975654811" lon="17.323760357844932"><ele>389.0</ele><time>2026-03-29T15:03:50.999Z</time></trkpt><trkpt lat="40.83656749877443" lon="17.323541906184307"><ele>389.3333333333333</ele><time>2026-03-29T15:03:51.999Z</time></trkpt><trkpt lat="40.83666789074905" lon="17.323342167307455"><ele>389.66666666666663</ele><time>2026-03-29T15:03:52.999Z</time></trkpt><trkpt lat="40.836803112493264" lon="17.323171524696605"><ele>390.0</ele><time>2026-03-29T15:03:53.999Z</time></trkpt><trkpt lat="40.83698393180924" lon="17.323032629842842"><ele>388.0</ele><time>2026-03-29T15:03:54.999Z</time></trkpt><trkpt lat="40.837144854361405" lon="17.322841750828385"><ele>386.0</ele><time>2026-03-29T15:03:55.999Z</time></trkpt><trkpt lat="40.83732711149722" lon="17.322594705561244"><ele>386.0</ele><time>2026-03-29T15:03:56.999Z</time></trkpt><trkpt lat="40.83746529625268" lon="17.32234285928828"><ele>386.0</ele><time>2026-03-29T15:03:57.999Z</time></trkpt><trkpt lat="40.83758581166266" lon="17.322132515303817"><ele>386.0</ele><time>2026-03-29T15:03:58.999Z</time></trkpt><trkpt lat="40.837700309804944" lon="17.321973389007972"><ele>385.0</ele><time>2026-03-29T15:03:59.999Z</time></trkpt><trkpt lat="40.83783987107376" lon="17.321841303971574"><ele>384.0</ele><time>2026-03-29T15:04:00.999Z</time></trkpt><trkpt lat="40.8380030073329" lon="17.321731900452665"><ele>383.0</ele><time>2026-03-29T15:04:01.999Z</time></trkpt><trkpt lat="40.8381598297779" lon="17.3216240646077"><ele>383.0</ele><time>2026-03-29T15:04:02.999Z</time></trkpt><trkpt lat="40.83832742743376" lon="17.32146958083939"><ele>383.0</ele><time>2026-03-29T15:04:03.999Z</time></trkpt><trkpt lat="40.83850362206988" lon="17.321229460223513"><ele>379.0</ele><time>2026-03-29T15:04:04.999Z</time></trkpt><trkpt lat="40.838667658368195" lon="17.320917008479995"><ele>375.0</ele><time>2026-03-29T15:04:05.999Z</time></trkpt><trkpt lat="40.838813622833314" lon="17.320620063923343"><ele>377.0</ele><time>2026-03-29T15:04:06.999Z</time></trkpt><trkpt lat="40.838973353982894" lon="17.320384036282917"><ele>379.0</ele><time>2026-03-29T15:04:07.999Z</time></trkpt><trkpt lat="40.83909815573253" lon="17.32010489570544"><ele>379.0</ele><time>2026-03-29T15:04:08.999Z</time></trkpt><trkpt lat="40.83921404093652" lon="17.319860500436413"><ele>379.0</ele><time>2026-03-29T15:04:09.999Z</time></trkpt><trkpt lat="40.83933839105069" lon="17.319620909555276"><ele>379.0</ele><time>2026-03-29T15:04:10.999Z</time></trkpt><trkpt lat="40.83946039025068" lon="17.31940469740868"><ele>378.3333333333333</ele><time>2026-03-29T15:04:11.999Z</time></trkpt><trkpt lat="40.83958344276623" lon="17.319204039867635"><ele>377.6666666666667</ele><time>2026-03-29T15:04:12.999Z</time></trkpt><trkpt lat="40.8397155777733" lon="17.31900675920168"><ele>377.0</ele><time>2026-03-29T15:04:13.999Z</time></trkpt><trkpt lat="40.8398532311087" lon="17.318809733861983"><ele>377.0</ele><time>2026-03-29T15:04:14.999Z</time></trkpt><trkpt lat="40.83999189013219" lon="17.318614736168627"><ele>377.0</ele><time>2026-03-29T15:04:15.999Z</time></trkpt><trkpt lat="40.840128245137024" lon="17.31841424481148"><ele>377.0</ele><time>2026-03-29T15:04:16.999Z</time></trkpt><trkpt lat="40.840251315457294" lon="17.318175741163373"><ele>376.0</ele><time>2026-03-29T15:04:17.999Z</time></trkpt><trkpt lat="40.840363703814944" lon="17.317970946750002"><ele>375.0</ele><time>2026-03-29T15:04:18.999Z</time></trkpt><trkpt lat="40.84049263290835" lon="17.31770998972894"><ele>374.0</ele><time>2026-03-29T15:04:19.999Z</time></trkpt><trkpt lat="40.84066564119521" lon="17.31743404020264"><ele>374.33333333333337</ele><time>2026-03-29T15:04:20.999Z</time></trkpt><trkpt lat="40.840777128064786" lon="17.317213515660153"><ele>374.6666666666667</ele><time>2026-03-29T15:04:21.999Z</time></trkpt><trkpt lat="40.840836477512106" lon="17.31700942783092"><ele>375.0</ele><time>2026-03-29T15:04:22.999Z</time></trkpt><trkpt lat="40.840903944084566" lon="17.316758656737175"><ele>375.0</ele><time>2026-03-29T15:04:23.999Z</time></trkpt><trkpt lat="40.84095537291836" lon="17.316473381832203"><ele>375.0</ele><time>2026-03-29T15:04:24.999Z</time></trkpt><trkpt lat="40.8409694897316" lon="17.316194600201253"><ele>375.0</ele><time>2026-03-29T15:04:26Z</time></trkpt><trkpt lat="40.840974368644005" lon="17.31593894556142"><ele>374.6666666666667</ele><time>2026-03-29T15:04:27Z</time></trkpt><trkpt lat="40.8409649592409" lon="17.315685006361928"><ele>374.33333333333337</ele><time>2026-03-29T15:04:28Z</time></trkpt><trkpt lat="40.840950758127946" lon="17.315449348351997"><ele>374.0</ele><time>2026-03-29T15:04:29Z</time></trkpt><trkpt lat="40.84091665513716" lon="17.315222313692257"><ele>374.0</ele><time>2026-03-29T15:04:30Z</time></trkpt><trkpt lat="40.84084486666123" lon="17.315007070692054"><ele>374.0</ele><time>2026-03-29T15:04:31Z</time></trkpt><trkpt lat="40.840773382559625" lon="17.314831009104783"><ele>374.0</ele><time>2026-03-29T15:04:32Z</time></trkpt><trkpt lat="40.8407051273868" lon="17.314639799166915"><ele>373.0</ele><time>2026-03-29T15:04:33Z</time></trkpt><trkpt lat="40.84071526002039" lon="17.314435390566533"><ele>372.0</ele><time>2026-03-29T15:04:34Z</time></trkpt><trkpt lat="40.84072925773099" lon="17.31422378044979"><ele>371.0</ele><time>2026-03-29T15:04:35Z</time></trkpt><trkpt lat="40.84079737717325" lon="17.313993078712915"><ele>370.0</ele><time>2026-03-29T15:04:36Z</time></trkpt><trkpt lat="40.840859465454706" lon="17.31374063988698"><ele>369.0</ele><time>2026-03-29T15:04:37Z</time></trkpt><trkpt lat="40.84088678780037" lon="17.31347906218091"><ele>368.0</ele><time>2026-03-29T15:04:38Z</time></trkpt><trkpt lat="40.840865106246376" lon="17.31322703743488"><ele>367.33333333333337</ele><time>2026-03-29T15:04:39Z</time></trkpt><trkpt lat="40.84088617331245" lon="17.313002608330624"><ele>366.6666666666667</ele><time>2026-03-29T15:04:40Z</time></trkpt><trkpt lat="40.840944037767855" lon="17.31279415705917"><ele>366.0</ele><time>2026-03-29T15:04:41Z</time></trkpt><trkpt lat="40.84104591021929" lon="17.312624608915975"><ele>366.0</ele><time>2026-03-29T15:04:42Z</time></trkpt><trkpt lat="40.84115850232541" lon="17.312385027942454"><ele>366.0</ele><time>2026-03-29T15:04:43Z</time></trkpt><trkpt lat="40.84127480399661" lon="17.312125205093643"><ele>366.0</ele><time>2026-03-29T15:04:44Z</time></trkpt><trkpt lat="40.841364080379506" lon="17.311826403040115"><ele>366.0</ele><time>2026-03-29T15:04:45Z</time></trkpt><trkpt lat="40.84148351871513" lon="17.311508564154416"><ele>366.0</ele><time>2026-03-29T15:04:46Z</time></trkpt><trkpt lat="40.84164837855169" lon="17.311175378680016"><ele>366.5</ele><time>2026-03-29T15:04:47Z</time></trkpt><trkpt lat="40.84183235442963" lon="17.310830860180285"><ele>367.0</ele><time>2026-03-29T15:04:48Z</time></trkpt><trkpt lat="40.841994006598746" lon="17.310430762207762"><ele>367.5</ele><time>2026-03-29T15:04:49Z</time></trkpt><trkpt lat="40.84218221154771" lon="17.310025366884307"><ele>368.0</ele><time>2026-03-29T15:04:50Z</time></trkpt><trkpt lat="40.842384334996304" lon="17.309617154699527"><ele>366.5</ele><time>2026-03-29T15:04:51Z</time></trkpt><trkpt lat="40.842579021193316" lon="17.309180525748136"><ele>365.0</ele><time>2026-03-29T15:04:52Z</time></trkpt><trkpt lat="40.84277095199261" lon="17.30878625987778"><ele>364.5</ele><time>2026-03-29T15:04:53Z</time></trkpt><trkpt lat="40.842932113519325" lon="17.308436006689835"><ele>364.0</ele><time>2026-03-29T15:04:54Z</time></trkpt><trkpt lat="40.843081740128156" lon="17.308120289817513"><ele>366.0</ele><time>2026-03-29T15:04:55Z</time></trkpt><trkpt lat="40.84321957629669" lon="17.30783129306833"><ele>368.0</ele><time>2026-03-29T15:04:56Z</time></trkpt><trkpt lat="40.843340754279254" lon="17.30757539559745"><ele>368.0</ele><time>2026-03-29T15:04:57Z</time></trkpt><trkpt lat="40.843456535105375" lon="17.30735683249832"><ele>368.0</ele><time>2026-03-29T15:04:58Z</time></trkpt><trkpt lat="40.84352178561177" lon="17.307144328782453"><ele>368.0</ele><time>2026-03-29T15:04:59Z</time></trkpt><trkpt lat="40.843535528396245" lon="17.306896902465148"><ele>368.33333333333337</ele><time>2026-03-29T15:05:00Z</time></trkpt><trkpt lat="40.84349866480693" lon="17.30665051225115"><ele>368.6666666666667</ele><time>2026-03-29T15:05:01Z</time></trkpt><trkpt lat="40.84340352711651" lon="17.30639497437965"><ele>369.0</ele><time>2026-03-29T15:05:02Z</time></trkpt><trkpt lat="40.84326459909464" lon="17.306100940383875"><ele>369.0</ele><time>2026-03-29T15:05:03Z</time></trkpt><trkpt lat="40.843103126185014" lon="17.305763486163514"><ele>369.0</ele><time>2026-03-29T15:05:04Z</time></trkpt><trkpt lat="40.84297041025381" lon="17.305402588789587"><ele>370.5</ele><time>2026-03-29T15:05:05Z</time></trkpt><trkpt lat="40.842863585894634" lon="17.305050067403435"><ele>372.0</ele><time>2026-03-29T15:05:06Z</time></trkpt><trkpt lat="40.84279766375401" lon="17.304701288524374"><ele>373.3333333333333</ele><time>2026-03-29T15:05:07Z</time></trkpt><trkpt lat="40.84277460567879" lon="17.3044375595296"><ele>374.66666666666663</ele><time>2026-03-29T15:05:08Z</time></trkpt><trkpt lat="40.84277718785125" lon="17.304193334832718"><ele>376.0</ele><time>2026-03-29T15:05:09Z</time></trkpt><trkpt lat="40.842817402511905" lon="17.303953627878588"><ele>377.0</ele><time>2026-03-29T15:05:10Z</time></trkpt><trkpt lat="40.84289458540332" lon="17.303761319082014"><ele>378.0</ele><time>2026-03-29T15:05:11Z</time></trkpt><trkpt lat="40.8430014708367" lon="17.30355746644497"><ele>379.0</ele><time>2026-03-29T15:05:12Z</time></trkpt><trkpt lat="40.843176183966875" lon="17.303393850127783"><ele>379.0</ele><time>2026-03-29T15:05:13Z</time></trkpt><trkpt lat="40.84331236264718" lon="17.30313884300369"><ele>379.0</ele><time>2026-03-29T15:05:14Z</time></trkpt><trkpt lat="40.843488518930684" lon="17.302854494622178"><ele>379.0</ele><time>2026-03-29T15:05:15Z</time></trkpt><trkpt lat="40.8440213274442" lon="17.30290207807586"><ele>378.0</ele><time>2026-03-29T15:05:16Z</time></trkpt><trkpt lat="40.844362502442266" lon="17.3027181123637"><ele>377.0</ele><time>2026-03-29T15:05:17Z</time></trkpt><trkpt lat="40.844692232181394" lon="17.30252297487212"><ele>377.0</ele><time>2026-03-29T15:05:18Z</time></trkpt><trkpt lat="40.84503654713558" lon="17.30232700381874"><ele>377.0</ele><time>2026-03-29T15:05:19Z</time></trkpt><trkpt lat="40.84539300505875" lon="17.302111977065984"><ele>376.0</ele><time>2026-03-29T15:05:20Z</time></trkpt><trkpt lat="40.84572580110551" lon="17.301921592408736"><ele>375.0</ele><time>2026-03-29T15:05:21Z</time></trkpt><trkpt lat="40.84601461112936" lon="17.301737319199205"><ele>373.5</ele><time>2026-03-29T15:05:22Z</time></trkpt><trkpt lat="40.84630033934964" lon="17.301565072918788"><ele>372.0</ele><time>2026-03-29T15:05:23Z</time></trkpt><trkpt lat="40.84656965035541" lon="17.301334333816822"><ele>372.0</ele><time>2026-03-29T15:05:23.999Z</time></trkpt><trkpt lat="40.84679408441146" lon="17.30098503379411"><ele>372.0</ele><time>2026-03-29T15:05:24.999Z</time></trkpt><trkpt lat="40.84700649849697" lon="17.30056994056143"><ele>372.5</ele><time>2026-03-29T15:05:25.999Z</time></trkpt><trkpt lat="40.84719446222067" lon="17.3002480080771"><ele>373.0</ele><time>2026-03-29T15:05:26.999Z</time></trkpt><trkpt lat="40.847388851937254" lon="17.29996913095034"><ele>373.5</ele><time>2026-03-29T15:05:27.999Z</time></trkpt><trkpt lat="40.84762696243497" lon="17.299689502925002"><ele>374.0</ele><time>2026-03-29T15:05:28.999Z</time></trkpt><trkpt lat="40.8478856139299" lon="17.29944292977128"><ele>373.0</ele><time>2026-03-29T15:05:29.999Z</time></trkpt><trkpt lat="40.848127143420356" lon="17.299249657080484"><ele>372.0</ele><time>2026-03-29T15:05:30.999Z</time></trkpt><trkpt lat="40.84834756058294" lon="17.299113220492394"><ele>371.5</ele><time>2026-03-29T15:05:31.999Z</time></trkpt><trkpt lat="40.848607821330276" lon="17.29904679826874"><ele>371.0</ele><time>2026-03-29T15:05:32.999Z</time></trkpt><trkpt lat="40.84891512456815" lon="17.29902550010889"><ele>371.0</ele><time>2026-03-29T15:05:33.999Z</time></trkpt><trkpt lat="40.8492354454355" lon="17.298976218442235"><ele>371.0</ele><time>2026-03-29T15:05:34.999Z</time></trkpt><trkpt lat="40.84953791315521" lon="17.298899157627133"><ele>370.5</ele><time>2026-03-29T15:05:35.999Z</time></trkpt><trkpt lat="40.84986836208842" lon="17.298743416696666"><ele>370.0</ele><time>2026-03-29T15:05:36.999Z</time></trkpt><trkpt lat="40.850185650352" lon="17.29853580577194"><ele>369.5</ele><time>2026-03-29T15:05:37.999Z</time></trkpt><trkpt lat="40.85052747411222" lon="17.298310167962498"><ele>369.0</ele><time>2026-03-29T15:05:38.999Z</time></trkpt><trkpt lat="40.85090203916464" lon="17.29807077960992"><ele>369.0</ele><time>2026-03-29T15:05:39.999Z</time></trkpt><trkpt lat="40.85127277452257" lon="17.29786219262629"><ele>369.0</ele><time>2026-03-29T15:05:40.999Z</time></trkpt><trkpt lat="40.851605276345786" lon="17.297657283613354"><ele>368.0</ele><time>2026-03-29T15:05:41.999Z</time></trkpt><trkpt lat="40.85189957566054" lon="17.297477208513776"><ele>367.0</ele><time>2026-03-29T15:05:42.999Z</time></trkpt><trkpt lat="40.85221847560416" lon="17.297307601137376"><ele>367.5</ele><time>2026-03-29T15:05:43.999Z</time></trkpt><trkpt lat="40.85257287409817" lon="17.297159942360057"><ele>368.0</ele><time>2026-03-29T15:05:44.999Z</time></trkpt><trkpt lat="40.85289485143579" lon="17.29703695025643"><ele>367.0</ele><time>2026-03-29T15:05:45.999Z</time></trkpt><trkpt lat="40.85323176022106" lon="17.296908007777816"><ele>366.0</ele><time>2026-03-29T15:05:46.999Z</time></trkpt><trkpt lat="40.85358229627312" lon="17.296740891936555"><ele>365.5</ele><time>2026-03-29T15:05:47.999Z</time></trkpt><trkpt lat="40.853921468722376" lon="17.296484055300702"><ele>365.0</ele><time>2026-03-29T15:05:48.999Z</time></trkpt><trkpt lat="40.854290348631835" lon="17.296226176359035"><ele>363.5</ele><time>2026-03-29T15:05:49.999Z</time></trkpt><trkpt lat="40.85468711792324" lon="17.296007638516095"><ele>362.0</ele><time>2026-03-29T15:05:50.999Z</time></trkpt><trkpt lat="40.85507134492877" lon="17.295799067418017"><ele>361.0</ele><time>2026-03-29T15:05:51.999Z</time></trkpt><trkpt lat="40.85542322747349" lon="17.295617221174002"><ele>360.0</ele><time>2026-03-29T15:05:52.999Z</time></trkpt><trkpt lat="40.85576632337586" lon="17.29543446632339"><ele>358.0</ele><time>2026-03-29T15:05:53.999Z</time></trkpt><trkpt lat="40.85608431889968" lon="17.295252537858953"><ele>356.0</ele><time>2026-03-29T15:05:54.999Z</time></trkpt><trkpt lat="40.85638687146408" lon="17.295064199161445"><ele>356.0</ele><time>2026-03-29T15:05:55.999Z</time></trkpt><trkpt lat="40.85668010444824" lon="17.29482913729181"><ele>356.0</ele><time>2026-03-29T15:05:56.999Z</time></trkpt><trkpt lat="40.856970198288565" lon="17.29459016557016"><ele>356.5</ele><time>2026-03-29T15:05:57.999Z</time></trkpt><trkpt lat="40.85722651276407" lon="17.29439024967969"><ele>357.0</ele><time>2026-03-29T15:05:58.999Z</time></trkpt><trkpt lat="40.85745170124361" lon="17.294181663255667"><ele>357.0</ele><time>2026-03-29T15:05:59.999Z</time></trkpt><trkpt lat="40.85770755103346" lon="17.293965969231042"><ele>357.0</ele><time>2026-03-29T15:06:00.999Z</time></trkpt><trkpt lat="40.857987187289204" lon="17.29383689476607"><ele>357.0</ele><time>2026-03-29T15:06:01.999Z</time></trkpt><trkpt lat="40.858269282915764" lon="17.2937563222266"><ele>357.0</ele><time>2026-03-29T15:06:02.999Z</time></trkpt><trkpt lat="40.858579707560594" lon="17.293700618471888"><ele>355.5</ele><time>2026-03-29T15:06:03.999Z</time></trkpt><trkpt lat="40.85891606733804" lon="17.293644802145394"><ele>354.0</ele><time>2026-03-29T15:06:04.999Z</time></trkpt><trkpt lat="40.85922046161281" lon="17.29359117740817"><ele>351.5</ele><time>2026-03-29T15:06:05.999Z</time></trkpt><trkpt lat="40.85958384015613" lon="17.293484614941796"><ele>349.0</ele><time>2026-03-29T15:06:06.999Z</time></trkpt><trkpt lat="40.859889475984694" lon="17.29333946133072"><ele>350.0</ele><time>2026-03-29T15:06:07.999Z</time></trkpt><trkpt lat="40.860184898743256" lon="17.293100032480176"><ele>351.0</ele><time>2026-03-29T15:06:08.999Z</time></trkpt><trkpt lat="40.860464136507304" lon="17.29286883874424"><ele>351.0</ele><time>2026-03-29T15:06:09.999Z</time></trkpt><trkpt lat="40.860694270492374" lon="17.29264472094652"><ele>351.0</ele><time>2026-03-29T15:06:10.999Z</time></trkpt><trkpt lat="40.86089263961597" lon="17.29246831337246"><ele>350.3333333333333</ele><time>2026-03-29T15:06:11.999Z</time></trkpt><trkpt lat="40.86107601996914" lon="17.2923112726302"><ele>349.66666666666663</ele><time>2026-03-29T15:06:12.999Z</time></trkpt><trkpt lat="40.86127183292509" lon="17.29218822098355"><ele>349.0</ele><time>2026-03-29T15:06:13.999Z</time></trkpt><trkpt lat="40.86147319223047" lon="17.292157913570048"><ele>349.0</ele><time>2026-03-29T15:06:14.999Z</time></trkpt><trkpt lat="40.861695046396136" lon="17.29218595348841"><ele>349.0</ele><time>2026-03-29T15:06:15.999Z</time></trkpt><trkpt lat="40.86198654154624" lon="17.29224505715449"><ele>341.0</ele><time>2026-03-29T15:06:16.999Z</time></trkpt><trkpt lat="40.8622761225644" lon="17.292300673232564"><ele>333.0</ele><time>2026-03-29T15:06:17.999Z</time></trkpt><trkpt lat="40.862508273647286" lon="17.292365687989506"><ele>335.3333333333333</ele><time>2026-03-29T15:06:18.999Z</time></trkpt><trkpt lat="40.8626987908507" lon="17.292350135555093"><ele>337.66666666666663</ele><time>2026-03-29T15:06:19.999Z</time></trkpt><trkpt lat="40.86290564165967" lon="17.292277715915464"><ele>340.0</ele><time>2026-03-29T15:06:20.999Z</time></trkpt><trkpt lat="40.86308148324056" lon="17.29214264347534"><ele>340.0</ele><time>2026-03-29T15:06:21.999Z</time></trkpt><trkpt lat="40.86323479280431" lon="17.292013595013955"><ele>340.0</ele><time>2026-03-29T15:06:22.999Z</time></trkpt><trkpt lat="40.863391348873776" lon="17.291710390733996"><ele>341.3333333333333</ele><time>2026-03-29T15:06:23.999Z</time></trkpt><trkpt lat="40.86348542624348" lon="17.291472187322544"><ele>342.6666666666667</ele><time>2026-03-29T15:06:24.999Z</time></trkpt><trkpt lat="40.863552692960575" lon="17.291185682963405"><ele>344.0</ele><time>2026-03-29T15:06:25.999Z</time></trkpt><trkpt lat="40.86365340652472" lon="17.290819810691545"><ele>347.0</ele><time>2026-03-29T15:06:26.999Z</time></trkpt><trkpt lat="40.86367279490695" lon="17.29048262235287"><ele>350.0</ele><time>2026-03-29T15:06:27.999Z</time></trkpt><trkpt lat="40.86366012753896" lon="17.290144596821083"><ele>350.0</ele><time>2026-03-29T15:06:28.999Z</time></trkpt><trkpt lat="40.86361976488846" lon="17.289816272016086"><ele>350.0</ele><time>2026-03-29T15:06:29.999Z</time></trkpt><trkpt lat="40.863573783252804" lon="17.28943440271793"><ele>351.0</ele><time>2026-03-29T15:06:30.999Z</time></trkpt><trkpt lat="40.86349121815801" lon="17.289101740117086"><ele>352.0</ele><time>2026-03-29T15:06:32Z</time></trkpt><trkpt lat="40.86341314322377" lon="17.288805248303692"><ele>349.3333333333333</ele><time>2026-03-29T15:06:33Z</time></trkpt><trkpt lat="40.86336078327402" lon="17.288536041149616"><ele>346.6666666666667</ele><time>2026-03-29T15:06:34Z</time></trkpt><trkpt lat="40.8633344203956" lon="17.288298351065475"><ele>344.0</ele><time>2026-03-29T15:06:35Z</time></trkpt><trkpt lat="40.86330051737882" lon="17.288110702257388"><ele>344.4</ele><time>2026-03-29T15:06:36Z</time></trkpt><trkpt lat="40.863286445112635" lon="17.287948895736413"><ele>344.79999999999995</ele><time>2026-03-29T15:06:37Z</time></trkpt><trkpt lat="40.86332577011075" lon="17.287830578593077"><ele>345.20000000000005</ele><time>2026-03-29T15:06:38Z</time></trkpt><trkpt lat="40.86335712022602" lon="17.28771208541858"><ele>345.6</ele><time>2026-03-29T15:06:39Z</time></trkpt><trkpt lat="40.86341769883543" lon="17.287580824408643"><ele>346.0</ele><time>2026-03-29T15:06:40Z</time></trkpt><trkpt lat="40.86350326832284" lon="17.28747047293982"><ele>345.75</ele><time>2026-03-29T15:06:41Z</time></trkpt><trkpt lat="40.86361529923242" lon="17.287366808451537"><ele>345.5</ele><time>2026-03-29T15:06:42Z</time></trkpt><trkpt lat="40.86373819520815" lon="17.287269656481595"><ele>345.25</ele><time>2026-03-29T15:06:43Z</time></trkpt><trkpt lat="40.86384135041809" lon="17.28719845922479"><ele>345.0</ele><time>2026-03-29T15:06:44Z</time></trkpt><trkpt lat="40.86393275490178" lon="17.287175325945157"><ele>346.0</ele><time>2026-03-29T15:06:45Z</time></trkpt><trkpt lat="40.8640571891934" lon="17.28729933680444"><ele>347.0</ele><time>2026-03-29T15:06:46Z</time></trkpt><trkpt lat="40.86418694952188" lon="17.28736033372572"><ele>348.0</ele><time>2026-03-29T15:06:47Z</time></trkpt><trkpt lat="40.86428153053937" lon="17.287545172594104"><ele>350.0</ele><time>2026-03-29T15:06:48Z</time></trkpt><trkpt lat="40.864385302497965" lon="17.28771526651007"><ele>352.0</ele><time>2026-03-29T15:06:49Z</time></trkpt><trkpt lat="40.86447277776987" lon="17.287912204328922"><ele>354.0</ele><time>2026-03-29T15:06:50Z</time></trkpt><trkpt lat="40.86453396705104" lon="17.28816285614528"><ele>354.5</ele><time>2026-03-29T15:06:51Z</time></trkpt><trkpt lat="40.86456450484081" lon="17.288450165022113"><ele>355.0</ele><time>2026-03-29T15:06:52Z</time></trkpt><trkpt lat="40.864554110714096" lon="17.288755463306952"><ele>356.5</ele><time>2026-03-29T15:06:53Z</time></trkpt><trkpt lat="40.86452739251795" lon="17.28911178832226"><ele>358.0</ele><time>2026-03-29T15:06:54Z</time></trkpt><trkpt lat="40.86449805130335" lon="17.28944624918823"><ele>358.0</ele><time>2026-03-29T15:06:55Z</time></trkpt><trkpt lat="40.86450170525164" lon="17.28972973037567"><ele>358.0</ele><time>2026-03-29T15:06:56Z</time></trkpt><trkpt lat="40.86451515976097" lon="17.28997564703985"><ele>358.0</ele><time>2026-03-29T15:06:57Z</time></trkpt><trkpt lat="40.8645625389423" lon="17.2902302145281"><ele>358.66666666666663</ele><time>2026-03-29T15:06:58Z</time></trkpt><trkpt lat="40.86467518468669" lon="17.290437553811948"><ele>359.3333333333333</ele><time>2026-03-29T15:06:59Z</time></trkpt><trkpt lat="40.86480412171574" lon="17.290655040275638"><ele>360.0</ele><time>2026-03-29T15:07:00Z</time></trkpt><trkpt lat="40.86498149802774" lon="17.290826411283085"><ele>359.6666666666667</ele><time>2026-03-29T15:07:01Z</time></trkpt><trkpt lat="40.86512195607024" lon="17.290946401671075"><ele>359.33333333333337</ele><time>2026-03-29T15:07:02Z</time></trkpt><trkpt lat="40.86525556547133" lon="17.291025625401385"><ele>359.0</ele><time>2026-03-29T15:07:03Z</time></trkpt><trkpt lat="40.8654013470167" lon="17.29107880738884"><ele>359.0</ele><time>2026-03-29T15:07:04Z</time></trkpt><trkpt lat="40.86571639545109" lon="17.291091799756128"><ele>359.0</ele><time>2026-03-29T15:07:05Z</time></trkpt><trkpt lat="40.86595115626069" lon="17.29108295168329"><ele>360.5</ele><time>2026-03-29T15:07:06Z</time></trkpt><trkpt lat="40.86618177518838" lon="17.291059725395268"><ele>362.0</ele><time>2026-03-29T15:07:07Z</time></trkpt><trkpt lat="40.86642931263021" lon="17.29103489715341"><ele>362.0</ele><time>2026-03-29T15:07:08Z</time></trkpt><trkpt lat="40.86665033703846" lon="17.291029497453916"><ele>362.0</ele><time>2026-03-29T15:07:09Z</time></trkpt><trkpt lat="40.866856369188376" lon="17.291029881463395"><ele>362.0</ele><time>2026-03-29T15:07:10Z</time></trkpt><trkpt lat="40.86706482708653" lon="17.291036883950756"><ele>361.6666666666667</ele><time>2026-03-29T15:07:11Z</time></trkpt><trkpt lat="40.86725147102469" lon="17.290990677810196"><ele>361.3333333333333</ele><time>2026-03-29T15:07:12Z</time></trkpt><trkpt lat="40.867430956765745" lon="17.291001071746752"><ele>361.0</ele><time>2026-03-29T15:07:13Z</time></trkpt><trkpt lat="40.8675980557144" lon="17.290996529173857"><ele>359.3333333333333</ele><time>2026-03-29T15:07:14Z</time></trkpt><trkpt lat="40.86781666188855" lon="17.290987339415807"><ele>357.6666666666667</ele><time>2026-03-29T15:07:15Z</time></trkpt><trkpt lat="40.86802305858008" lon="17.29097402917652"><ele>356.0</ele><time>2026-03-29T15:07:16Z</time></trkpt><trkpt lat="40.86823577670487" lon="17.290933217476546"><ele>356.0</ele><time>2026-03-29T15:07:17Z</time></trkpt><trkpt lat="40.86841057675915" lon="17.29087448850921"><ele>356.0</ele><time>2026-03-29T15:07:18Z</time></trkpt><trkpt lat="40.868590406258114" lon="17.290787335130968"><ele>356.0</ele><time>2026-03-29T15:07:19Z</time></trkpt><trkpt lat="40.86876903389517" lon="17.290653707919287"><ele>358.5</ele><time>2026-03-29T15:07:20Z</time></trkpt><trkpt lat="40.86897069023796" lon="17.29055004909727"><ele>361.0</ele><time>2026-03-29T15:07:21Z</time></trkpt><trkpt lat="40.86918868588071" lon="17.290407801789087"><ele>359.0</ele><time>2026-03-29T15:07:22Z</time></trkpt><trkpt lat="40.869414432653535" lon="17.29026735132935"><ele>357.0</ele><time>2026-03-29T15:07:23Z</time></trkpt><trkpt lat="40.869618699591435" lon="17.290122810129557"><ele>357.0</ele><time>2026-03-29T15:07:24Z</time></trkpt><trkpt lat="40.869798821375355" lon="17.289996764798"><ele>357.0</ele><time>2026-03-29T15:07:25Z</time></trkpt><trkpt lat="40.869975404834584" lon="17.28988321773063"><ele>357.0</ele><time>2026-03-29T15:07:26Z</time></trkpt><trkpt lat="40.87014737474585" lon="17.28975599588916"><ele>358.3333333333333</ele><time>2026-03-29T15:07:27Z</time></trkpt><trkpt lat="40.870313102680186" lon="17.28960757324415"><ele>359.66666666666663</ele><time>2026-03-29T15:07:28Z</time></trkpt><trkpt lat="40.870501270405036" lon="17.289451682729556"><ele>361.0</ele><time>2026-03-29T15:07:29Z</time></trkpt><trkpt lat="40.87071584732165" lon="17.289293654257254"><ele>361.0</ele><time>2026-03-29T15:07:30Z</time></trkpt><trkpt lat="40.87091177739358" lon="17.289164240583467"><ele>361.0</ele><time>2026-03-29T15:07:31Z</time></trkpt><trkpt lat="40.871072131146256" lon="17.28904191555659"><ele>361.0</ele><time>2026-03-29T15:07:32Z</time></trkpt><trkpt lat="40.87119672896466" lon="17.288928484277918"><ele>361.75</ele><time>2026-03-29T15:07:33Z</time></trkpt><trkpt lat="40.87130645366977" lon="17.2888340728812"><ele>362.5</ele><time>2026-03-29T15:07:34Z</time></trkpt><trkpt lat="40.87139435319988" lon="17.288706982102045"><ele>363.25</ele><time>2026-03-29T15:07:35Z</time></trkpt><trkpt lat="40.8714739389321" lon="17.28854010968026"><ele>364.0</ele><time>2026-03-29T15:07:36Z</time></trkpt><trkpt lat="40.87147586289281" lon="17.288367524004247"><ele>364.0</ele><time>2026-03-29T15:07:37Z</time></trkpt><trkpt lat="40.87142495361356" lon="17.288147874279403"><ele>364.0</ele><time>2026-03-29T15:07:38Z</time></trkpt><trkpt lat="40.87135653198199" lon="17.2879570900388"><ele>364.0</ele><time>2026-03-29T15:07:38.999Z</time></trkpt><trkpt lat="40.87120408321468" lon="17.287734080556117"><ele>364.66666666666663</ele><time>2026-03-29T15:07:39.999Z</time></trkpt><trkpt lat="40.871027928613756" lon="17.287494441732246"><ele>365.3333333333333</ele><time>2026-03-29T15:07:40.999Z</time></trkpt><trkpt lat="40.87092894848689" lon="17.287294569416606"><ele>366.0</ele><time>2026-03-29T15:07:41.999Z</time></trkpt><trkpt lat="40.870812910430665" lon="17.287101100362953"><ele>365.6666666666667</ele><time>2026-03-29T15:07:42.999Z</time></trkpt><trkpt lat="40.87068406589664" lon="17.28687985604861"><ele>365.33333333333337</ele><time>2026-03-29T15:07:43.999Z</time></trkpt><trkpt lat="40.87054173642972" lon="17.286633025300123"><ele>365.0</ele><time>2026-03-29T15:07:44.999Z</time></trkpt><trkpt lat="40.87040823830781" lon="17.286399686597058"><ele>365.0</ele><time>2026-03-29T15:07:45.999Z</time></trkpt><trkpt lat="40.870252026212775" lon="17.286153338295648"><ele>365.0</ele><time>2026-03-29T15:07:46.999Z</time></trkpt><trkpt lat="40.870096151838545" lon="17.285890165011153"><ele>360.5</ele><time>2026-03-29T15:07:47.999Z</time></trkpt><trkpt lat="40.86993465083045" lon="17.285580940027216"><ele>356.0</ele><time>2026-03-29T15:07:48.999Z</time></trkpt><trkpt lat="40.86974634160918" lon="17.285252111290493"><ele>356.0</ele><time>2026-03-29T15:07:49.999Z</time></trkpt><trkpt lat="40.869551287733245" lon="17.28490942450432"><ele>356.0</ele><time>2026-03-29T15:07:50.999Z</time></trkpt><trkpt lat="40.869331084966134" lon="17.284597238627736"><ele>354.0</ele><time>2026-03-29T15:07:51.999Z</time></trkpt><trkpt lat="40.86910097141057" lon="17.284304984292774"><ele>352.0</ele><time>2026-03-29T15:07:52.999Z</time></trkpt><trkpt lat="40.86889223579791" lon="17.283992795112464"><ele>350.0</ele><time>2026-03-29T15:07:53.999Z</time></trkpt><trkpt lat="40.8687003622362" lon="17.28366340000305"><ele>348.0</ele><time>2026-03-29T15:07:54.999Z</time></trkpt><trkpt lat="40.8685167988993" lon="17.283342112607997"><ele>347.5</ele><time>2026-03-29T15:07:55.999Z</time></trkpt><trkpt lat="40.86834960597129" lon="17.28305467135888"><ele>347.0</ele><time>2026-03-29T15:07:56.999Z</time></trkpt><trkpt lat="40.86820318920343" lon="17.282802136607668"><ele>347.0</ele><time>2026-03-29T15:07:57.999Z</time></trkpt><trkpt lat="40.86807307451388" lon="17.282568767522225"><ele>347.0</ele><time>2026-03-29T15:07:58.999Z</time></trkpt><trkpt lat="40.867950734643784" lon="17.28235895898351"><ele>347.0</ele><time>2026-03-29T15:07:59.999Z</time></trkpt><trkpt lat="40.8678304610559" lon="17.282156474486264"><ele>346.6666666666667</ele><time>2026-03-29T15:08:00.999Z</time></trkpt><trkpt lat="40.86771239694621" lon="17.28194661105597"><ele>346.3333333333333</ele><time>2026-03-29T15:08:01.999Z</time></trkpt><trkpt lat="40.867605663006024" lon="17.281756887612364"><ele>346.0</ele><time>2026-03-29T15:08:02.999Z</time></trkpt><trkpt lat="40.867507913580035" lon="17.28158672237873"><ele>345.75</ele><time>2026-03-29T15:08:03.999Z</time></trkpt><trkpt lat="40.867420526530374" lon="17.281437392326353"><ele>345.5</ele><time>2026-03-29T15:08:04.999Z</time></trkpt><trkpt lat="40.86734329497779" lon="17.28130523180537"><ele>345.25</ele><time>2026-03-29T15:08:05.999Z</time></trkpt><trkpt lat="40.86725812124773" lon="17.281190418541566"><ele>345.0</ele><time>2026-03-29T15:08:06.999Z</time></trkpt><trkpt lat="40.86721997915901" lon="17.281055434330117"><ele>344.75</ele><time>2026-03-29T15:08:07.999Z</time></trkpt><trkpt lat="40.8671687511175" lon="17.280950851320075"><ele>344.5</ele><time>2026-03-29T15:08:08.999Z</time></trkpt><trkpt lat="40.86721643711361" lon="17.280764133922574"><ele>344.25</ele><time>2026-03-29T15:08:09.999Z</time></trkpt><trkpt lat="40.86724547295014" lon="17.280614986200863"><ele>344.0</ele><time>2026-03-29T15:08:10.999Z</time></trkpt><trkpt lat="40.86727778043954" lon="17.280454026554374"><ele>344.0</ele><time>2026-03-29T15:08:11.999Z</time></trkpt><trkpt lat="40.8673849383009" lon="17.2803007280753"><ele>344.0</ele><time>2026-03-29T15:08:12.999Z</time></trkpt><trkpt lat="40.86752342288308" lon="17.28014846670226"><ele>344.0</ele><time>2026-03-29T15:08:13.999Z</time></trkpt><trkpt lat="40.86768293347347" lon="17.280017296302173"><ele>344.0</ele><time>2026-03-29T15:08:14.999Z</time></trkpt><trkpt lat="40.867882058848274" lon="17.279912895871586"><ele>344.0</ele><time>2026-03-29T15:08:15.999Z</time></trkpt><trkpt lat="40.86811120637223" lon="17.279790851229993"><ele>343.5</ele><time>2026-03-29T15:08:16.999Z</time></trkpt><trkpt lat="40.86833363738072" lon="17.279673629855363"><ele>343.0</ele><time>2026-03-29T15:08:17.999Z</time></trkpt><trkpt lat="40.868544705496504" lon="17.279573371039632"><ele>342.66666666666663</ele><time>2026-03-29T15:08:18.999Z</time></trkpt><trkpt lat="40.86876868315836" lon="17.279424586791365"><ele>342.3333333333333</ele><time>2026-03-29T15:08:19.999Z</time></trkpt><trkpt lat="40.868947486780364" lon="17.279310329844115"><ele>342.0</ele><time>2026-03-29T15:08:20.999Z</time></trkpt><trkpt lat="40.86919056010753" lon="17.279202833077612"><ele>341.0</ele><time>2026-03-29T15:08:21.999Z</time></trkpt><trkpt lat="40.86942436360169" lon="17.27909924432466"><ele>340.0</ele><time>2026-03-29T15:08:22.999Z</time></trkpt><trkpt lat="40.86968532344841" lon="17.27898004079934"><ele>340.0</ele><time>2026-03-29T15:08:23.999Z</time></trkpt><trkpt lat="40.869900760703366" lon="17.278814229942515"><ele>340.0</ele><time>2026-03-29T15:08:24.999Z</time></trkpt><trkpt lat="40.87009456849173" lon="17.278689015654844"><ele>339.3333333333333</ele><time>2026-03-29T15:08:25.999Z</time></trkpt><trkpt lat="40.870273198761424" lon="17.27858612352715"><ele>338.6666666666667</ele><time>2026-03-29T15:08:26.999Z</time></trkpt><trkpt lat="40.870463756735816" lon="17.278539353138243"><ele>338.0</ele><time>2026-03-29T15:08:27.999Z</time></trkpt><trkpt lat="40.87065481345232" lon="17.278502946644263"><ele>338.0</ele><time>2026-03-29T15:08:28.999Z</time></trkpt><trkpt lat="40.87085519966418" lon="17.278452648434477"><ele>338.0</ele><time>2026-03-29T15:08:29.999Z</time></trkpt><trkpt lat="40.87106012630004" lon="17.278411812213765"><ele>338.0</ele><time>2026-03-29T15:08:30.999Z</time></trkpt><trkpt lat="40.87126810101766" lon="17.278378793576774"><ele>338.0</ele><time>2026-03-29T15:08:31.999Z</time></trkpt><trkpt lat="40.87145031588602" lon="17.27831376139641"><ele>338.0</ele><time>2026-03-29T15:08:32.999Z</time></trkpt><trkpt lat="40.87162986607998" lon="17.278271795367914"><ele>338.0</ele><time>2026-03-29T15:08:33.999Z</time></trkpt><trkpt lat="40.8717979367167" lon="17.278236599499774"><ele>338.0</ele><time>2026-03-29T15:08:34.999Z</time></trkpt><trkpt lat="40.87197462077129" lon="17.278183835622542"><ele>338.0</ele><time>2026-03-29T15:08:35.999Z</time></trkpt><trkpt lat="40.87217272720419" lon="17.27813804375751"><ele>338.0</ele><time>2026-03-29T15:08:36.999Z</time></trkpt><trkpt lat="40.87238920845585" lon="17.278071186560776"><ele>337.0</ele><time>2026-03-29T15:08:38Z</time></trkpt><trkpt lat="40.87259795845387" lon="17.27792253475949"><ele>336.0</ele><time>2026-03-29T15:08:39Z</time></trkpt><trkpt lat="40.872834387426835" lon="17.27770101653641"><ele>336.0</ele><time>2026-03-29T15:08:40Z</time></trkpt><trkpt lat="40.873097457083446" lon="17.277483998199433"><ele>336.0</ele><time>2026-03-29T15:08:41Z</time></trkpt><trkpt lat="40.873359097281885" lon="17.277275010148905"><ele>335.3333333333333</ele><time>2026-03-29T15:08:42Z</time></trkpt><trkpt lat="40.87355865890736" lon="17.27712588628368"><ele>334.66666666666663</ele><time>2026-03-29T15:08:43Z</time></trkpt><trkpt lat="40.87371876900355" lon="17.277033728125662"><ele>334.0</ele><time>2026-03-29T15:08:44Z</time></trkpt><trkpt lat="40.87387983089899" lon="17.27693278176939"><ele>334.0</ele><time>2026-03-29T15:08:45Z</time></trkpt><trkpt lat="40.87410035788289" lon="17.276743594752205"><ele>334.0</ele><time>2026-03-29T15:08:46Z</time></trkpt><trkpt lat="40.874230597401926" lon="17.276461788426012"><ele>335.0</ele><time>2026-03-29T15:08:47Z</time></trkpt><trkpt lat="40.87441888768736" lon="17.276183158747195"><ele>336.0</ele><time>2026-03-29T15:08:48Z</time></trkpt><trkpt lat="40.87465670743317" lon="17.275948140018116"><ele>336.0</ele><time>2026-03-29T15:08:49Z</time></trkpt><trkpt lat="40.8749039614253" lon="17.275741983369834"><ele>336.0</ele><time>2026-03-29T15:08:50Z</time></trkpt><trkpt lat="40.87510133235973" lon="17.275524912553298"><ele>336.3333333333333</ele><time>2026-03-29T15:08:51Z</time></trkpt><trkpt lat="40.875248787525614" lon="17.27531841167913"><ele>336.66666666666663</ele><time>2026-03-29T15:08:52Z</time></trkpt><trkpt lat="40.875366390421384" lon="17.275061775839088"><ele>337.0</ele><time>2026-03-29T15:08:53Z</time></trkpt><trkpt lat="40.87546815719469" lon="17.27478311342771"><ele>336.0</ele><time>2026-03-29T15:08:54Z</time></trkpt><trkpt lat="40.875533616008" lon="17.274533536207464"><ele>335.0</ele><time>2026-03-29T15:08:55Z</time></trkpt><trkpt lat="40.875587994753595" lon="17.274268803431898"><ele>334.0</ele><time>2026-03-29T15:08:56Z</time></trkpt><trkpt lat="40.875608629155096" lon="17.27392867963486"><ele>332.5</ele><time>2026-03-29T15:08:57Z</time></trkpt><trkpt lat="40.87561796226107" lon="17.273594257570245"><ele>331.0</ele><time>2026-03-29T15:08:58Z</time></trkpt><trkpt lat="40.87565172544343" lon="17.27329127252358"><ele>330.0</ele><time>2026-03-29T15:08:59Z</time></trkpt><trkpt lat="40.87575146607832" lon="17.27300675072026"><ele>329.0</ele><time>2026-03-29T15:09:00Z</time></trkpt><trkpt lat="40.87584747845757" lon="17.272750741711032"><ele>328.33333333333337</ele><time>2026-03-29T15:09:01Z</time></trkpt><trkpt lat="40.87596038951664" lon="17.272503137166076"><ele>327.6666666666667</ele><time>2026-03-29T15:09:02Z</time></trkpt><trkpt lat="40.87605858659847" lon="17.272254800003047"><ele>327.0</ele><time>2026-03-29T15:09:03Z</time></trkpt><trkpt lat="40.8761658133839" lon="17.27205308646753"><ele>325.6666666666667</ele><time>2026-03-29T15:09:04Z</time></trkpt><trkpt lat="40.87626940139634" lon="17.271861656722347"><ele>324.33333333333337</ele><time>2026-03-29T15:09:05Z</time></trkpt><trkpt lat="40.876361824336925" lon="17.271683885831827"><ele>323.0</ele><time>2026-03-29T15:09:06Z</time></trkpt><trkpt lat="40.87645687661155" lon="17.27153708085065"><ele>322.4</ele><time>2026-03-29T15:09:07Z</time></trkpt><trkpt lat="40.87655253393486" lon="17.271416980328617"><ele>321.79999999999995</ele><time>2026-03-29T15:09:08Z</time></trkpt><trkpt lat="40.87665303020321" lon="17.2712936093388"><ele>321.2</ele><time>2026-03-29T15:09:09Z</time></trkpt><trkpt lat="40.87669993343375" lon="17.271217425984464"><ele>320.6</ele><time>2026-03-29T15:09:10Z</time></trkpt><trkpt lat="40.876764389547944" lon="17.27116808343552"><ele>320.0</ele><time>2026-03-29T15:09:11Z</time></trkpt><trkpt lat="40.876841367230064" lon="17.27115355281605"><ele>319.8</ele><time>2026-03-29T15:09:12Z</time></trkpt><trkpt lat="40.876907266924114" lon="17.271141466446956"><ele>319.6</ele><time>2026-03-29T15:09:13Z</time></trkpt><trkpt lat="40.876999889351424" lon="17.271188345250632"><ele>319.4</ele><time>2026-03-29T15:09:14Z</time></trkpt><trkpt lat="40.8770937276699" lon="17.27125852806918"><ele>319.2</ele><time>2026-03-29T15:09:15Z</time></trkpt><trkpt lat="40.87720430743977" lon="17.271378634570596"><ele>319.0</ele><time>2026-03-29T15:09:16Z</time></trkpt><trkpt lat="40.87732001259602" lon="17.271519046575428"><ele>320.66666666666663</ele><time>2026-03-29T15:09:17Z</time></trkpt><trkpt lat="40.8774378810699" lon="17.271660411639044"><ele>322.3333333333333</ele><time>2026-03-29T15:09:18Z</time></trkpt><trkpt lat="40.87757851554664" lon="17.27181973274835"><ele>324.0</ele><time>2026-03-29T15:09:19Z</time></trkpt><trkpt lat="40.87773014738985" lon="17.27196367249352"><ele>324.6666666666667</ele><time>2026-03-29T15:09:20Z</time></trkpt><trkpt lat="40.87789178442228" lon="17.272056644065106"><ele>325.33333333333337</ele><time>2026-03-29T15:09:21Z</time></trkpt><trkpt lat="40.878077298840786" lon="17.272081635031547"><ele>326.0</ele><time>2026-03-29T15:09:22Z</time></trkpt><trkpt lat="40.87830631230881" lon="17.27209081296886"><ele>324.6666666666667</ele><time>2026-03-29T15:09:23Z</time></trkpt><trkpt lat="40.87851287484341" lon="17.272106142694867"><ele>323.3333333333333</ele><time>2026-03-29T15:09:24Z</time></trkpt><trkpt lat="40.87865526718433" lon="17.272146846907997"><ele>322.0</ele><time>2026-03-29T15:09:25Z</time></trkpt><trkpt lat="40.878791664941964" lon="17.27222323595805"><ele>322.66666666666663</ele><time>2026-03-29T15:09:26Z</time></trkpt><trkpt lat="40.87890414076062" lon="17.27228601735525"><ele>323.3333333333333</ele><time>2026-03-29T15:09:27Z</time></trkpt><trkpt lat="40.87901762170923" lon="17.27244211264954"><ele>324.0</ele><time>2026-03-29T15:09:28Z</time></trkpt><trkpt lat="40.87911610547312" lon="17.272650740607233"><ele>324.0</ele><time>2026-03-29T15:09:29Z</time></trkpt><trkpt lat="40.87918635875507" lon="17.27290048743124"><ele>324.0</ele><time>2026-03-29T15:09:30Z</time></trkpt><trkpt lat="40.87929278819555" lon="17.273153497004945"><ele>324.0</ele><time>2026-03-29T15:09:31Z</time></trkpt><trkpt lat="40.879404745776846" lon="17.273412177731366"><ele>325.5</ele><time>2026-03-29T15:09:32Z</time></trkpt><trkpt lat="40.87955451039102" lon="17.27364288393475"><ele>327.0</ele><time>2026-03-29T15:09:33Z</time></trkpt><trkpt lat="40.87967578717496" lon="17.273914139246106"><ele>325.5</ele><time>2026-03-29T15:09:33.999Z</time></trkpt><trkpt lat="40.87982081469804" lon="17.274159151454057"><ele>324.0</ele><time>2026-03-29T15:09:34.999Z</time></trkpt><trkpt lat="40.87998064691556" lon="17.274364762990686"><ele>322.0</ele><time>2026-03-29T15:09:35.999Z</time></trkpt><trkpt lat="40.88017130947274" lon="17.27456630633419"><ele>320.0</ele><time>2026-03-29T15:09:36.999Z</time></trkpt><trkpt lat="40.880404265169624" lon="17.27480630990453"><ele>320.0</ele><time>2026-03-29T15:09:37.999Z</time></trkpt><trkpt lat="40.88066210082283" lon="17.2750086696164"><ele>320.0</ele><time>2026-03-29T15:09:38.999Z</time></trkpt><trkpt lat="40.88091061209761" lon="17.275261100640446"><ele>325.0</ele><time>2026-03-29T15:09:39.999Z</time></trkpt><trkpt lat="40.88110768524049" lon="17.275455560517766"><ele>330.0</ele><time>2026-03-29T15:09:40.999Z</time></trkpt><trkpt lat="40.881298089086194" lon="17.27563342750939"><ele>322.3333333333333</ele><time>2026-03-29T15:09:41.999Z</time></trkpt><trkpt lat="40.88147691727624" lon="17.275838924059"><ele>314.66666666666663</ele><time>2026-03-29T15:09:42.999Z</time></trkpt><trkpt lat="40.88160321851377" lon="17.27600057546946"><ele>307.0</ele><time>2026-03-29T15:09:43.999Z</time></trkpt><trkpt lat="40.88173631665705" lon="17.27613026772539"><ele>303.75</ele><time>2026-03-29T15:09:44.999Z</time></trkpt><trkpt lat="40.881869281282576" lon="17.276251163109528"><ele>300.5</ele><time>2026-03-29T15:09:45.999Z</time></trkpt><trkpt lat="40.8819447538608" lon="17.276297072662626"><ele>297.25</ele><time>2026-03-29T15:09:46.999Z</time></trkpt><trkpt lat="40.88204463916129" lon="17.276312776457026"><ele>294.0</ele><time>2026-03-29T15:09:47.999Z</time></trkpt><trkpt lat="40.882150063815786" lon="17.27626254300566"><ele>294.0</ele><time>2026-03-29T15:09:48.999Z</time></trkpt><trkpt lat="40.882254829794626" lon="17.27613646292265"><ele>294.0</ele><time>2026-03-29T15:09:49.999Z</time></trkpt><trkpt lat="40.88232818758625" lon="17.27595529054467"><ele>294.0</ele><time>2026-03-29T15:09:50.999Z</time></trkpt><trkpt lat="40.88240025833899" lon="17.275725518716595"><ele>300.0</ele><time>2026-03-29T15:09:51.999Z</time></trkpt><trkpt lat="40.88248835691532" lon="17.275424685871073"><ele>306.0</ele><time>2026-03-29T15:09:52.999Z</time></trkpt><trkpt lat="40.88262591171002" lon="17.27507758392549"><ele>298.5</ele><time>2026-03-29T15:09:53.999Z</time></trkpt><trkpt lat="40.88276942734158" lon="17.274739654773175"><ele>291.0</ele><time>2026-03-29T15:09:54.999Z</time></trkpt><trkpt lat="40.88291843356578" lon="17.274483357021147"><ele>291.0</ele><time>2026-03-29T15:09:55.999Z</time></trkpt><trkpt lat="40.8830389110084" lon="17.274271053913658"><ele>291.0</ele><time>2026-03-29T15:09:56.999Z</time></trkpt><trkpt lat="40.88314322309995" lon="17.27412018488898"><ele>291.0</ele><time>2026-03-29T15:09:57.999Z</time></trkpt><trkpt lat="40.88325332816482" lon="17.27402226158279"><ele>291.0</ele><time>2026-03-29T15:09:58.999Z</time></trkpt><trkpt lat="40.88334313438066" lon="17.273939264506996"><ele>291.0</ele><time>2026-03-29T15:09:59.999Z</time></trkpt><trkpt lat="40.883489318289904" lon="17.273905019804516"><ele>291.0</ele><time>2026-03-29T15:10:00.999Z</time></trkpt><trkpt lat="40.88366529548803" lon="17.273969863375804"><ele>291.0</ele><time>2026-03-29T15:10:01.999Z</time></trkpt><trkpt lat="40.88389088721156" lon="17.27405216634962"><ele>289.5</ele><time>2026-03-29T15:10:02.999Z</time></trkpt><trkpt lat="40.88418241074287" lon="17.27419241856603"><ele>288.0</ele><time>2026-03-29T15:10:03.999Z</time></trkpt><trkpt lat="40.884454204258205" lon="17.274262371345195"><ele>291.0</ele><time>2026-03-29T15:10:04.999Z</time></trkpt><trkpt lat="40.88473855938967" lon="17.274344654200288"><ele>294.0</ele><time>2026-03-29T15:10:05.999Z</time></trkpt><trkpt lat="40.88497190035092" lon="17.274454311468443"><ele>293.6666666666667</ele><time>2026-03-29T15:10:06.999Z</time></trkpt><trkpt lat="40.88518142655412" lon="17.274539965905728"><ele>293.33333333333337</ele><time>2026-03-29T15:10:07.999Z</time></trkpt><trkpt lat="40.88539948609823" lon="17.274568003703116"><ele>293.0</ele><time>2026-03-29T15:10:08.999Z</time></trkpt><trkpt lat="40.88561980553355" lon="17.274545076593483"><ele>293.0</ele><time>2026-03-29T15:10:09.999Z</time></trkpt><trkpt lat="40.88583460347847" lon="17.274492094238134"><ele>293.0</ele><time>2026-03-29T15:10:10.999Z</time></trkpt><trkpt lat="40.885999303903766" lon="17.274436475176763"><ele>293.0</ele><time>2026-03-29T15:10:11.999Z</time></trkpt><trkpt lat="40.886160083934406" lon="17.274389438433495"><ele>293.6666666666667</ele><time>2026-03-29T15:10:12.999Z</time></trkpt><trkpt lat="40.8862977479572" lon="17.2743062243665"><ele>294.3333333333333</ele><time>2026-03-29T15:10:13.999Z</time></trkpt><trkpt lat="40.88644670062521" lon="17.274275364088037"><ele>295.0</ele><time>2026-03-29T15:10:14.999Z</time></trkpt><trkpt lat="40.88663356685326" lon="17.274484288578186"><ele>295.0</ele><time>2026-03-29T15:10:15.999Z</time></trkpt><trkpt lat="40.88674900905152" lon="17.274597875323018"><ele>295.0</ele><time>2026-03-29T15:10:16.999Z</time></trkpt><trkpt lat="40.88681049036004" lon="17.274821473259564"><ele>295.0</ele><time>2026-03-29T15:10:17.999Z</time></trkpt><trkpt lat="40.88690324554727" lon="17.27504004189166"><ele>297.0</ele><time>2026-03-29T15:10:18.999Z</time></trkpt><trkpt lat="40.887007174386106" lon="17.27532624604344"><ele>299.0</ele><time>2026-03-29T15:10:19.999Z</time></trkpt><trkpt lat="40.88712528845658" lon="17.275672251991164"><ele>292.0</ele><time>2026-03-29T15:10:20.999Z</time></trkpt><trkpt lat="40.88723398362164" lon="17.27608321754309"><ele>285.0</ele><time>2026-03-29T15:10:21.999Z</time></trkpt><trkpt lat="40.88732659902919" lon="17.276438378983546"><ele>277.5</ele><time>2026-03-29T15:10:22.999Z</time></trkpt><trkpt lat="40.8874306600092" lon="17.276745252277294"><ele>270.0</ele><time>2026-03-29T15:10:23.999Z</time></trkpt><trkpt lat="40.88754785053142" lon="17.27703895844508"><ele>269.6666666666667</ele><time>2026-03-29T15:10:24.999Z</time></trkpt><trkpt lat="40.887699050747834" lon="17.277296235400243"><ele>269.33333333333337</ele><time>2026-03-29T15:10:25.999Z</time></trkpt><trkpt lat="40.88783086787469" lon="17.277489591651623"><ele>269.0</ele><time>2026-03-29T15:10:26.999Z</time></trkpt><trkpt lat="40.88797349741793" lon="17.2776198609626"><ele>269.0</ele><time>2026-03-29T15:10:27.999Z</time></trkpt><trkpt lat="40.8881486180479" lon="17.277708749835895"><ele>269.0</ele><time>2026-03-29T15:10:28.999Z</time></trkpt><trkpt lat="40.888371561198404" lon="17.27770696629982"><ele>269.0</ele><time>2026-03-29T15:10:29.999Z</time></trkpt><trkpt lat="40.88863940116633" lon="17.277715858609415"><ele>267.5</ele><time>2026-03-29T15:10:30.999Z</time></trkpt><trkpt lat="40.88895389540694" lon="17.27769049855545"><ele>266.0</ele><time>2026-03-29T15:10:31.999Z</time></trkpt><trkpt lat="40.889215765400905" lon="17.2776881555457"><ele>268.0</ele><time>2026-03-29T15:10:32.999Z</time></trkpt><trkpt lat="40.889408128224126" lon="17.277680186578145"><ele>270.0</ele><time>2026-03-29T15:10:33.999Z</time></trkpt><trkpt lat="40.88957393724009" lon="17.27770675256712"><ele>272.0</ele><time>2026-03-29T15:10:34.999Z</time></trkpt><trkpt lat="40.889729876826266" lon="17.277774721304116"><ele>272.0</ele><time>2026-03-29T15:10:35.999Z</time></trkpt><trkpt lat="40.88986552336335" lon="17.277940826912925"><ele>272.0</ele><time>2026-03-29T15:10:36.999Z</time></trkpt><trkpt lat="40.889970203916924" lon="17.278155407303466"><ele>272.0</ele><time>2026-03-29T15:10:37.999Z</time></trkpt><trkpt lat="40.89004309961989" lon="17.27840786435088"><ele>272.5</ele><time>2026-03-29T15:10:38.999Z</time></trkpt><trkpt lat="40.89012017966498" lon="17.278719662815664"><ele>273.0</ele><time>2026-03-29T15:10:39.999Z</time></trkpt><trkpt lat="40.89024758254544" lon="17.279018848305753"><ele>266.0</ele><time>2026-03-29T15:10:40.999Z</time></trkpt><trkpt lat="40.890415964540466" lon="17.279309932580542"><ele>259.0</ele><time>2026-03-29T15:10:41.999Z</time></trkpt><trkpt lat="40.890652223134865" lon="17.279600862793046"><ele>262.0</ele><time>2026-03-29T15:10:42.999Z</time></trkpt><trkpt lat="40.890921155035116" lon="17.279930845003"><ele>265.0</ele><time>2026-03-29T15:10:44Z</time></trkpt><trkpt lat="40.891173657296214" lon="17.28026558948921"><ele>255.5</ele><time>2026-03-29T15:10:45Z</time></trkpt><trkpt lat="40.891412210050234" lon="17.28061004667745"><ele>246.0</ele><time>2026-03-29T15:10:46Z</time></trkpt><trkpt lat="40.89166403500931" lon="17.28103287015199"><ele>250.5</ele><time>2026-03-29T15:10:47Z</time></trkpt><trkpt lat="40.891889741368196" lon="17.28146508313196"><ele>255.0</ele><time>2026-03-29T15:10:48Z</time></trkpt><trkpt lat="40.892101274527604" lon="17.281856567079355"><ele>255.0</ele><time>2026-03-29T15:10:49Z</time></trkpt><trkpt lat="40.8922791924051" lon="17.282233840575802"><ele>255.0</ele><time>2026-03-29T15:10:50Z</time></trkpt><trkpt lat="40.89241178521627" lon="17.28263165481463"><ele>257.5</ele><time>2026-03-29T15:10:51Z</time></trkpt><trkpt lat="40.89249617819662" lon="17.28304068326837"><ele>260.0</ele><time>2026-03-29T15:10:52Z</time></trkpt><trkpt lat="40.89259517206066" lon="17.28349390756623"><ele>260.0</ele><time>2026-03-29T15:10:53Z</time></trkpt><trkpt lat="40.8927321040241" lon="17.283911463876034"><ele>260.0</ele><time>2026-03-29T15:10:54Z</time></trkpt><trkpt lat="40.89283736546295" lon="17.28427655551626"><ele>253.5</ele><time>2026-03-29T15:10:55Z</time></trkpt><trkpt lat="40.89289123482181" lon="17.284573204996715"><ele>247.0</ele><time>2026-03-29T15:10:56Z</time></trkpt><trkpt lat="40.89292690593743" lon="17.28494772752097"><ele>243.0</ele><time>2026-03-29T15:10:57Z</time></trkpt><trkpt lat="40.892963195715716" lon="17.285311535805064"><ele>239.0</ele><time>2026-03-29T15:10:58Z</time></trkpt><trkpt lat="40.892989413422086" lon="17.285574370692224"><ele>233.75</ele><time>2026-03-29T15:10:59Z</time></trkpt><trkpt lat="40.8930331690679" lon="17.28578157335999"><ele>228.5</ele><time>2026-03-29T15:11:00Z</time></trkpt><trkpt lat="40.89304190956156" lon="17.285971955064326"><ele>223.25</ele><time>2026-03-29T15:11:01Z</time></trkpt><trkpt lat="40.89309567065811" lon="17.286117342719837"><ele>218.0</ele><time>2026-03-29T15:11:02Z</time></trkpt><trkpt lat="40.89318824907767" lon="17.286222180565943"><ele>218.0</ele><time>2026-03-29T15:11:03Z</time></trkpt><trkpt lat="40.89332532267506" lon="17.286298969868767"><ele>218.0</ele><time>2026-03-29T15:11:04Z</time></trkpt><trkpt lat="40.893492807060575" lon="17.286316373880517"><ele>218.0</ele><time>2026-03-29T15:11:05Z</time></trkpt><trkpt lat="40.89366762008175" lon="17.28624575721141"><ele>215.0</ele><time>2026-03-29T15:11:06Z</time></trkpt><trkpt lat="40.89385541166497" lon="17.28607941916995"><ele>212.0</ele><time>2026-03-29T15:11:07Z</time></trkpt><trkpt lat="40.89410213130462" lon="17.28586489518676"><ele>206.5</ele><time>2026-03-29T15:11:08Z</time></trkpt><trkpt lat="40.894365280823195" lon="17.285805943521968"><ele>201.0</ele><time>2026-03-29T15:11:09Z</time></trkpt><trkpt lat="40.894671270202224" lon="17.2857739851685"><ele>201.0</ele><time>2026-03-29T15:11:10Z</time></trkpt><trkpt lat="40.8950199463229" lon="17.285740874874612"><ele>201.0</ele><time>2026-03-29T15:11:11Z</time></trkpt><trkpt lat="40.89532990876454" lon="17.28571520412117"><ele>200.0</ele><time>2026-03-29T15:11:12Z</time></trkpt><trkpt lat="40.89560044763459" lon="17.28572811248689"><ele>199.0</ele><time>2026-03-29T15:11:13Z</time></trkpt><trkpt lat="40.895845932586376" lon="17.285781283189664"><ele>196.66666666666666</ele><time>2026-03-29T15:11:14Z</time></trkpt><trkpt lat="40.896032854954264" lon="17.285892967362592"><ele>194.33333333333331</ele><time>2026-03-29T15:11:15Z</time></trkpt><trkpt lat="40.896196110742906" lon="17.285936242594808"><ele>192.0</ele><time>2026-03-29T15:11:16Z</time></trkpt><trkpt lat="40.896372965456116" lon="17.285920585628038"><ele>192.0</ele><time>2026-03-29T15:11:17Z</time></trkpt><trkpt lat="40.89655002992508" lon="17.285824853718335"><ele>192.0</ele><time>2026-03-29T15:11:18Z</time></trkpt><trkpt lat="40.89664969288509" lon="17.285642959283777"><ele>192.0</ele><time>2026-03-29T15:11:19Z</time></trkpt><trkpt lat="40.896810944293726" lon="17.28536520721286"><ele>184.0</ele><time>2026-03-29T15:11:20Z</time></trkpt><trkpt lat="40.896941326248864" lon="17.28504222868138"><ele>176.0</ele><time>2026-03-29T15:11:21Z</time></trkpt><trkpt lat="40.897048865289975" lon="17.284628477066015"><ele>176.0</ele><time>2026-03-29T15:11:22Z</time></trkpt><trkpt lat="40.89715324926107" lon="17.284241543425356"><ele>176.0</ele><time>2026-03-29T15:11:23Z</time></trkpt><trkpt lat="40.89722119154156" lon="17.283887428336588"><ele>176.0</ele><time>2026-03-29T15:11:24Z</time></trkpt><trkpt lat="40.89721370312577" lon="17.28353170085502"><ele>176.0</ele><time>2026-03-29T15:11:25Z</time></trkpt><trkpt lat="40.89714694891391" lon="17.28315470778626"><ele>176.0</ele><time>2026-03-29T15:11:26Z</time></trkpt><trkpt lat="40.89703843898517" lon="17.28276487378513"><ele>176.0</ele><time>2026-03-29T15:11:27Z</time></trkpt><trkpt lat="40.89693774873288" lon="17.282446293977127"><ele>178.33333333333331</ele><time>2026-03-29T15:11:28Z</time></trkpt><trkpt lat="40.89687094940541" lon="17.282201896957673"><ele>180.66666666666666</ele><time>2026-03-29T15:11:29Z</time></trkpt><trkpt lat="40.896820499358775" lon="17.281971346002063"><ele>183.0</ele><time>2026-03-29T15:11:30Z</time></trkpt><trkpt lat="40.89695150823235" lon="17.2817402523472"><ele>183.0</ele><time>2026-03-29T15:11:31Z</time></trkpt><trkpt lat="40.8970631687732" lon="17.281574444171664"><ele>183.0</ele><time>2026-03-29T15:11:32Z</time></trkpt><trkpt lat="40.89718375516899" lon="17.28142497620543"><ele>183.0</ele><time>2026-03-29T15:11:33Z</time></trkpt><trkpt lat="40.89738330528724" lon="17.28129336583207"><ele>182.66666666666666</ele><time>2026-03-29T15:11:34Z</time></trkpt><trkpt lat="40.89747230360158" lon="17.2811352278277"><ele>182.33333333333331</ele><time>2026-03-29T15:11:35Z</time></trkpt><trkpt lat="40.897659110356756" lon="17.28093507633684"><ele>182.0</ele><time>2026-03-29T15:11:36Z</time></trkpt><trkpt lat="40.89806327037381" lon="17.28083252555134"><ele>176.5</ele><time>2026-03-29T15:11:37Z</time></trkpt><trkpt lat="40.89841576918625" lon="17.28050848186671"><ele>171.0</ele><time>2026-03-29T15:11:38Z</time></trkpt><trkpt lat="40.89869681438353" lon="17.280298346636265"><ele>171.0</ele><time>2026-03-29T15:11:39Z</time></trkpt><trkpt lat="40.89876342798885" lon="17.27998469761538"><ele>171.0</ele><time>2026-03-29T15:11:40Z</time></trkpt><trkpt lat="40.89890175300819" lon="17.279662338229723"><ele>171.0</ele><time>2026-03-29T15:11:41Z</time></trkpt><trkpt lat="40.89900016715362" lon="17.27929324917114"><ele>171.0</ele><time>2026-03-29T15:11:41.999Z</time></trkpt><trkpt lat="40.89905496667215" lon="17.27887907379603"><ele>171.0</ele><time>2026-03-29T15:11:42.999Z</time></trkpt><trkpt lat="40.899053211680624" lon="17.27846156285195"><ele>171.0</ele><time>2026-03-29T15:11:43.999Z</time></trkpt><trkpt lat="40.89901081277533" lon="17.278064719504265"><ele>170.0</ele><time>2026-03-29T15:11:44.999Z</time></trkpt><trkpt lat="40.898961285336945" lon="17.277687245733325"><ele>169.0</ele><time>2026-03-29T15:11:45.999Z</time></trkpt><trkpt lat="40.89896431895371" lon="17.277303989363613"><ele>168.5</ele><time>2026-03-29T15:11:46.999Z</time></trkpt><trkpt lat="40.89902165390827" lon="17.27686156967125"><ele>168.0</ele><time>2026-03-29T15:11:47.999Z</time></trkpt><trkpt lat="40.89907696872921" lon="17.276443423067825"><ele>168.5</ele><time>2026-03-29T15:11:48.999Z</time></trkpt><trkpt lat="40.89921074541867" lon="17.276133585467313"><ele>169.0</ele><time>2026-03-29T15:11:49.999Z</time></trkpt><trkpt lat="40.89936727301758" lon="17.275806796598662"><ele>167.0</ele><time>2026-03-29T15:11:50.999Z</time></trkpt><trkpt lat="40.8995569752556" lon="17.275482988454367"><ele>165.0</ele><time>2026-03-29T15:11:51.999Z</time></trkpt><trkpt lat="40.89978454138875" lon="17.275177310534247"><ele>165.0</ele><time>2026-03-29T15:11:52.999Z</time></trkpt><trkpt lat="40.90003601993937" lon="17.2749149327712"><ele>165.0</ele><time>2026-03-29T15:11:53.999Z</time></trkpt><trkpt lat="40.90033708377299" lon="17.274684319038823"><ele>165.5</ele><time>2026-03-29T15:11:54.999Z</time></trkpt><trkpt lat="40.90064709659438" lon="17.2744730651015"><ele>166.0</ele><time>2026-03-29T15:11:55.999Z</time></trkpt><trkpt lat="40.90098003480619" lon="17.27425029698283"><ele>163.5</ele><time>2026-03-29T15:11:56.999Z</time></trkpt><trkpt lat="40.90128762081949" lon="17.27403892171806"><ele>161.0</ele><time>2026-03-29T15:11:57.999Z</time></trkpt><trkpt lat="40.90155161650821" lon="17.273845355615048"><ele>157.0</ele><time>2026-03-29T15:11:58.999Z</time></trkpt><trkpt lat="40.901787071735825" lon="17.273677905573628"><ele>153.0</ele><time>2026-03-29T15:11:59.999Z</time></trkpt><trkpt lat="40.902002553904936" lon="17.273501591316087"><ele>153.0</ele><time>2026-03-29T15:12:00.999Z</time></trkpt><trkpt lat="40.902214559592366" lon="17.27326590880727"><ele>153.0</ele><time>2026-03-29T15:12:01.999Z</time></trkpt><trkpt lat="40.90235102998486" lon="17.272950356893176"><ele>153.0</ele><time>2026-03-29T15:12:02.999Z</time></trkpt><trkpt lat="40.90246467957799" lon="17.27259376200562"><ele>153.0</ele><time>2026-03-29T15:12:03.999Z</time></trkpt><trkpt lat="40.90252989733734" lon="17.272287128056636"><ele>151.66666666666666</ele><time>2026-03-29T15:12:04.999Z</time></trkpt><trkpt lat="40.902593659580425" lon="17.271980367102653"><ele>150.33333333333331</ele><time>2026-03-29T15:12:05.999Z</time></trkpt><trkpt lat="40.90260965695775" lon="17.271723777310267"><ele>149.0</ele><time>2026-03-29T15:12:06.999Z</time></trkpt><trkpt lat="40.902664365628695" lon="17.271513825789835"><ele>147.66666666666666</ele><time>2026-03-29T15:12:07.999Z</time></trkpt><trkpt lat="40.90273574715427" lon="17.271321461443552"><ele>146.33333333333334</ele><time>2026-03-29T15:12:08.999Z</time></trkpt><trkpt lat="40.902854264660945" lon="17.271136510283355"><ele>145.0</ele><time>2026-03-29T15:12:09.999Z</time></trkpt><trkpt lat="40.902957665515274" lon="17.270954042607602"><ele>145.0</ele><time>2026-03-29T15:12:10.999Z</time></trkpt><trkpt lat="40.90306613699722" lon="17.270798243608283"><ele>145.0</ele><time>2026-03-29T15:12:11.999Z</time></trkpt><trkpt lat="40.90316891335521" lon="17.27063563611244"><ele>145.0</ele><time>2026-03-29T15:12:12.999Z</time></trkpt><trkpt lat="40.90374951498979" lon="17.270891807172337"><ele>143.5</ele><time>2026-03-29T15:12:13.999Z</time></trkpt><trkpt lat="40.90411159743995" lon="17.270917835392414"><ele>142.0</ele><time>2026-03-29T15:12:14.999Z</time></trkpt><trkpt lat="40.904297174498595" lon="17.270663850315753"><ele>139.0</ele><time>2026-03-29T15:12:15.999Z</time></trkpt><trkpt lat="40.90465421079989" lon="17.27080307480253"><ele>136.0</ele><time>2026-03-29T15:12:16.999Z</time></trkpt><trkpt lat="40.90508665393022" lon="17.27083742617168"><ele>133.0</ele><time>2026-03-29T15:12:17.999Z</time></trkpt><trkpt lat="40.90539692648941" lon="17.270928434257986"><ele>130.0</ele><time>2026-03-29T15:12:18.999Z</time></trkpt><trkpt lat="40.905677001397585" lon="17.27097799729624"><ele>128.0</ele><time>2026-03-29T15:12:19.999Z</time></trkpt><trkpt lat="40.90596413572654" lon="17.27105899861943"><ele>126.0</ele><time>2026-03-29T15:12:20.999Z</time></trkpt><trkpt lat="40.90632181762335" lon="17.27122458531342"><ele>126.0</ele><time>2026-03-29T15:12:21.999Z</time></trkpt><trkpt lat="40.90668295510807" lon="17.271381754638277"><ele>126.0</ele><time>2026-03-29T15:12:22.999Z</time></trkpt><trkpt lat="40.90704960208017" lon="17.271547054682223"><ele>123.0</ele><time>2026-03-29T15:12:23.999Z</time></trkpt><trkpt lat="40.90735276469744" lon="17.27171675379084"><ele>120.0</ele><time>2026-03-29T15:12:24.999Z</time></trkpt><trkpt lat="40.907667021617094" lon="17.271927542838544"><ele>118.5</ele><time>2026-03-29T15:12:25.999Z</time></trkpt><trkpt lat="40.90795459677326" lon="17.27216817123486"><ele>117.0</ele><time>2026-03-29T15:12:26.999Z</time></trkpt><trkpt lat="40.908200424585324" lon="17.272397926348336"><ele>114.5</ele><time>2026-03-29T15:12:27.999Z</time></trkpt><trkpt lat="40.90848002787475" lon="17.272662606979885"><ele>112.0</ele><time>2026-03-29T15:12:28.999Z</time></trkpt><trkpt lat="40.90887508845" lon="17.27303889517812"><ele>107.0</ele><time>2026-03-29T15:12:29.999Z</time></trkpt><trkpt lat="40.909297839529295" lon="17.273370202431135"><ele>107.0</ele><time>2026-03-29T15:12:30.999Z</time></trkpt><trkpt lat="40.90962101401419" lon="17.27367393533588"><ele>107.0</ele><time>2026-03-29T15:12:31.999Z</time></trkpt><trkpt lat="40.90985911595615" lon="17.27399259834578"><ele>106.0</ele><time>2026-03-29T15:12:32.999Z</time></trkpt><trkpt lat="40.910066558292606" lon="17.274194461395652"><ele>105.0</ele><time>2026-03-29T15:12:33.999Z</time></trkpt><trkpt lat="40.91029479546511" lon="17.274402448051767"><ele>103.5</ele><time>2026-03-29T15:12:34.999Z</time></trkpt><trkpt lat="40.910486063683905" lon="17.274569725649542"><ele>102.0</ele><time>2026-03-29T15:12:35.999Z</time></trkpt><trkpt lat="40.91071730681569" lon="17.274720535368495"><ele>99.0</ele><time>2026-03-29T15:12:36.999Z</time></trkpt><trkpt lat="40.91097051549546" lon="17.27485216740334"><ele>96.0</ele><time>2026-03-29T15:12:37.999Z</time></trkpt><trkpt lat="40.91130075138446" lon="17.274966234344788"><ele>96.0</ele><time>2026-03-29T15:12:38.999Z</time></trkpt><trkpt lat="40.911667798902734" lon="17.275031447778066"><ele>96.0</ele><time>2026-03-29T15:12:39.999Z</time></trkpt><trkpt lat="40.91205317228077" lon="17.275108401475944"><ele>95.5</ele><time>2026-03-29T15:12:40.999Z</time></trkpt><trkpt lat="40.91241230116951" lon="17.275207559599146"><ele>95.0</ele><time>2026-03-29T15:12:41.999Z</time></trkpt><trkpt lat="40.912792955395666" lon="17.27528703214325"><ele>93.5</ele><time>2026-03-29T15:12:42.999Z</time></trkpt><trkpt lat="40.913111856495284" lon="17.275354880332124"><ele>92.0</ele><time>2026-03-29T15:12:43.999Z</time></trkpt><trkpt lat="40.91339829443608" lon="17.275416038717243"><ele>91.5</ele><time>2026-03-29T15:12:44.999Z</time></trkpt><trkpt lat="40.913654268601455" lon="17.275472250431452"><ele>91.0</ele><time>2026-03-29T15:12:45.999Z</time></trkpt><trkpt lat="40.913884145945744" lon="17.27553275985122"><ele>90.0</ele><time>2026-03-29T15:12:46.999Z</time></trkpt><trkpt lat="40.914116402858575" lon="17.275611578674127"><ele>89.0</ele><time>2026-03-29T15:12:47.999Z</time></trkpt><trkpt lat="40.91432522497533" lon="17.27571297376206"><ele>88.5</ele><time>2026-03-29T15:12:48.999Z</time></trkpt><trkpt lat="40.91453307943307" lon="17.275833757559248"><ele>88.0</ele><time>2026-03-29T15:12:50Z</time></trkpt><trkpt lat="40.914766749832964" lon="17.27601052331066"><ele>88.0</ele><time>2026-03-29T15:12:51Z</time></trkpt><trkpt lat="40.915007551298174" lon="17.276216356965982"><ele>88.0</ele><time>2026-03-29T15:12:52Z</time></trkpt><trkpt lat="40.91522990649979" lon="17.27641210064969"><ele>88.0</ele><time>2026-03-29T15:12:53Z</time></trkpt><trkpt lat="40.915416340098595" lon="17.276595569420582"><ele>88.0</ele><time>2026-03-29T15:12:54Z</time></trkpt><trkpt lat="40.91559360575229" lon="17.27675965012328"><ele>88.0</ele><time>2026-03-29T15:12:55Z</time></trkpt><trkpt lat="40.91576343635191" lon="17.27690328987418"><ele>87.5</ele><time>2026-03-29T15:12:56Z</time></trkpt><trkpt lat="40.915921905276164" lon="17.277051373134555"><ele>87.0</ele><time>2026-03-29T15:12:57Z</time></trkpt><trkpt lat="40.91612842846789" lon="17.277251931568077"><ele>86.0</ele><time>2026-03-29T15:12:58Z</time></trkpt><trkpt lat="40.916395751059866" lon="17.277493559237033"><ele>85.0</ele><time>2026-03-29T15:12:59Z</time></trkpt><trkpt lat="40.91668284468028" lon="17.27776028327972"><ele>84.0</ele><time>2026-03-29T15:13:00Z</time></trkpt><trkpt lat="40.91699469802939" lon="17.27803634551723"><ele>83.0</ele><time>2026-03-29T15:13:01Z</time></trkpt><trkpt lat="40.91731783406878" lon="17.27831101058953"><ele>81.0</ele><time>2026-03-29T15:13:02Z</time></trkpt><trkpt lat="40.9176541001044" lon="17.27858311765116"><ele>79.0</ele><time>2026-03-29T15:13:03Z</time></trkpt><trkpt lat="40.917980244190154" lon="17.278874349913316"><ele>78.0</ele><time>2026-03-29T15:13:04Z</time></trkpt><trkpt lat="40.918344599753034" lon="17.279154188119783"><ele>77.0</ele><time>2026-03-29T15:13:05Z</time></trkpt><trkpt lat="40.91867954604432" lon="17.27946416401825"><ele>76.5</ele><time>2026-03-29T15:13:06Z</time></trkpt><trkpt lat="40.918991456692375" lon="17.279728955890807"><ele>76.0</ele><time>2026-03-29T15:13:07Z</time></trkpt><trkpt lat="40.91926798859229" lon="17.27996206820113"><ele>74.0</ele><time>2026-03-29T15:13:08Z</time></trkpt><trkpt lat="40.91952818519301" lon="17.28016503312927"><ele>72.0</ele><time>2026-03-29T15:13:09Z</time></trkpt><trkpt lat="40.919795922559146" lon="17.280324545608416"><ele>71.5</ele><time>2026-03-29T15:13:10Z</time></trkpt><trkpt lat="40.92008016240192" lon="17.28041788319596"><ele>71.0</ele><time>2026-03-29T15:13:11Z</time></trkpt><trkpt lat="40.92039860997346" lon="17.280482779240085"><ele>71.0</ele><time>2026-03-29T15:13:12Z</time></trkpt><trkpt lat="40.92067781121695" lon="17.280555314429385"><ele>71.0</ele><time>2026-03-29T15:13:13Z</time></trkpt><trkpt lat="40.92095128138121" lon="17.2807392307483"><ele>71.0</ele><time>2026-03-29T15:13:14Z</time></trkpt><trkpt lat="40.921238215693634" lon="17.280950947427286"><ele>71.0</ele><time>2026-03-29T15:13:15Z</time></trkpt><trkpt lat="40.921603406907565" lon="17.281189841817085"><ele>69.0</ele><time>2026-03-29T15:13:16Z</time></trkpt><trkpt lat="40.921977477285324" lon="17.28144884293903"><ele>67.0</ele><time>2026-03-29T15:13:17Z</time></trkpt><trkpt lat="40.922367741284155" lon="17.28166550519551"><ele>67.0</ele><time>2026-03-29T15:13:18Z</time></trkpt><trkpt lat="40.922702745003626" lon="17.28190042151931"><ele>67.0</ele><time>2026-03-29T15:13:19Z</time></trkpt><trkpt lat="40.92301047224239" lon="17.282088980958168"><ele>66.5</ele><time>2026-03-29T15:13:20Z</time></trkpt><trkpt lat="40.923315395430365" lon="17.28231125445267"><ele>66.0</ele><time>2026-03-29T15:13:21Z</time></trkpt><trkpt lat="40.92360834556736" lon="17.282586684187144"><ele>66.0</ele><time>2026-03-29T15:13:22Z</time></trkpt><trkpt lat="40.92391803432443" lon="17.282901671687558"><ele>66.0</ele><time>2026-03-29T15:13:23Z</time></trkpt><trkpt lat="40.92426501740902" lon="17.283263011330266"><ele>64.5</ele><time>2026-03-29T15:13:24Z</time></trkpt><trkpt lat="40.92461342131305" lon="17.283601720493547"><ele>63.0</ele><time>2026-03-29T15:13:25Z</time></trkpt><trkpt lat="40.92493725026353" lon="17.283953857065573"><ele>61.5</ele><time>2026-03-29T15:13:26Z</time></trkpt><trkpt lat="40.92522472070045" lon="17.28427243051599"><ele>60.0</ele><time>2026-03-29T15:13:27Z</time></trkpt><trkpt lat="40.92544820890289" lon="17.284509976275814"><ele>60.0</ele><time>2026-03-29T15:13:28Z</time></trkpt><trkpt lat="40.92564093125899" lon="17.28471332028375"><ele>60.0</ele><time>2026-03-29T15:13:29Z</time></trkpt><trkpt lat="40.92583479288959" lon="17.284899412260216"><ele>59.5</ele><time>2026-03-29T15:13:30Z</time></trkpt><trkpt lat="40.92605830052852" lon="17.285034833036686"><ele>59.0</ele><time>2026-03-29T15:13:31Z</time></trkpt><trkpt lat="40.92632624146137" lon="17.28510364728601"><ele>59.0</ele><time>2026-03-29T15:13:32Z</time></trkpt><trkpt lat="40.92660091697132" lon="17.285235160120724"><ele>59.0</ele><time>2026-03-29T15:13:33Z</time></trkpt><trkpt lat="40.926844140050754" lon="17.285453652181737"><ele>58.0</ele><time>2026-03-29T15:13:34Z</time></trkpt><trkpt lat="40.92709814379225" lon="17.285707027389332"><ele>57.0</ele><time>2026-03-29T15:13:35Z</time></trkpt><trkpt lat="40.92741988780529" lon="17.286024642951414"><ele>56.5</ele><time>2026-03-29T15:13:36Z</time></trkpt><trkpt lat="40.92768101845843" lon="17.2863213068104"><ele>56.0</ele><time>2026-03-29T15:13:37Z</time></trkpt><trkpt lat="40.92790250601037" lon="17.286566639735955"><ele>55.0</ele><time>2026-03-29T15:13:38Z</time></trkpt><trkpt lat="40.92810382461239" lon="17.28675399451133"><ele>54.0</ele><time>2026-03-29T15:13:39Z</time></trkpt><trkpt lat="40.928344630549326" lon="17.28695584922234"><ele>52.5</ele><time>2026-03-29T15:13:40Z</time></trkpt><trkpt lat="40.928662440718156" lon="17.287060934588407"><ele>51.0</ele><time>2026-03-29T15:13:41Z</time></trkpt><trkpt lat="40.928997533506134" lon="17.287153607737114"><ele>52.0</ele><time>2026-03-29T15:13:42Z</time></trkpt><trkpt lat="40.92927995345325" lon="17.28726240985573"><ele>53.0</ele><time>2026-03-29T15:13:43Z</time></trkpt><trkpt lat="40.92950159774082" lon="17.2873583301673"><ele>53.0</ele><time>2026-03-29T15:13:44Z</time></trkpt><trkpt lat="40.929701921195225" lon="17.28745117605562"><ele>53.0</ele><time>2026-03-29T15:13:45Z</time></trkpt><trkpt lat="40.92988182184305" lon="17.28752847475095"><ele>53.0</ele><time>2026-03-29T15:13:46Z</time></trkpt><trkpt lat="40.93007631834843" lon="17.287600748207964"><ele>53.333333333333336</ele><time>2026-03-29T15:13:47Z</time></trkpt><trkpt lat="40.930251760949" lon="17.287681504435028"><ele>53.66666666666667</ele><time>2026-03-29T15:13:48Z</time></trkpt><trkpt lat="40.930409704420796" lon="17.2877918132825"><ele>54.0</ele><time>2026-03-29T15:13:49Z</time></trkpt><trkpt lat="40.93056503878141" lon="17.287852655758783"><ele>54.0</ele><time>2026-03-29T15:13:50Z</time></trkpt><trkpt lat="40.93072363055762" lon="17.287948960596914"><ele>54.0</ele><time>2026-03-29T15:13:51Z</time></trkpt><trkpt lat="40.930891665105996" lon="17.288110234020074"><ele>54.0</ele><time>2026-03-29T15:13:52Z</time></trkpt><trkpt lat="40.93106073230605" lon="17.28834760701311"><ele>53.0</ele><time>2026-03-29T15:13:53Z</time></trkpt><trkpt lat="40.93124344072605" lon="17.28860106509431"><ele>52.0</ele><time>2026-03-29T15:13:54Z</time></trkpt><trkpt lat="40.931503802071255" lon="17.28888965895271"><ele>51.0</ele><time>2026-03-29T15:13:54.999Z</time></trkpt><trkpt lat="40.9317694938939" lon="17.289215290138852"><ele>50.0</ele><time>2026-03-29T15:13:55.999Z</time></trkpt><trkpt lat="40.93204245466209" lon="17.28955743483921"><ele>49.5</ele><time>2026-03-29T15:13:56.999Z</time></trkpt><trkpt lat="40.93232284727447" lon="17.289849913176138"><ele>49.0</ele><time>2026-03-29T15:13:57.999Z</time></trkpt><trkpt lat="40.93261415294244" lon="17.29008694586298"><ele>49.0</ele><time>2026-03-29T15:13:58.999Z</time></trkpt><trkpt lat="40.932902957927375" lon="17.290359574250477"><ele>49.0</ele><time>2026-03-29T15:13:59.999Z</time></trkpt><trkpt lat="40.93321179830118" lon="17.290631196260627"><ele>49.0</ele><time>2026-03-29T15:14:00.999Z</time></trkpt><trkpt lat="40.93355929725984" lon="17.290932737119515"><ele>49.0</ele><time>2026-03-29T15:14:01.999Z</time></trkpt><trkpt lat="40.9339288238739" lon="17.291226023485773"><ele>48.5</ele><time>2026-03-29T15:14:02.999Z</time></trkpt><trkpt lat="40.93429614864987" lon="17.291518911505435"><ele>48.0</ele><time>2026-03-29T15:14:03.999Z</time></trkpt><trkpt lat="40.93466554602611" lon="17.291792355262963"><ele>48.0</ele><time>2026-03-29T15:14:04.999Z</time></trkpt><trkpt lat="40.93503762840475" lon="17.292028919907487"><ele>48.0</ele><time>2026-03-29T15:14:05.999Z</time></trkpt><trkpt lat="40.93543165686796" lon="17.292275898732726"><ele>44.0</ele><time>2026-03-29T15:14:06.999Z</time></trkpt><trkpt lat="40.93584381003872" lon="17.292530613751282"><ele>42.5</ele><time>2026-03-29T15:14:07.999Z</time></trkpt><trkpt lat="40.93619559687903" lon="17.292759191672147"><ele>41.0</ele><time>2026-03-29T15:14:08.999Z</time></trkpt><trkpt lat="40.93650144231298" lon="17.29296689926645"><ele>40.5</ele><time>2026-03-29T15:14:09.999Z</time></trkpt><trkpt lat="40.93677467614247" lon="17.293152765379094"><ele>40.0</ele><time>2026-03-29T15:14:10.999Z</time></trkpt><trkpt lat="40.937039511147816" lon="17.293325508212185"><ele>40.0</ele><time>2026-03-29T15:14:11.999Z</time></trkpt><trkpt lat="40.93733898228874" lon="17.293514322208935"><ele>40.0</ele><time>2026-03-29T15:14:12.999Z</time></trkpt><trkpt lat="40.937652324642926" lon="17.29372390023442"><ele>39.5</ele><time>2026-03-29T15:14:13.999Z</time></trkpt><trkpt lat="40.93794919156996" lon="17.293991749489326"><ele>39.0</ele><time>2026-03-29T15:14:14.999Z</time></trkpt><trkpt lat="40.9382054013286" lon="17.294216696926966"><ele>38.5</ele><time>2026-03-29T15:14:15.999Z</time></trkpt><trkpt lat="40.93844390357756" lon="17.294413545161568"><ele>38.0</ele><time>2026-03-29T15:14:16.999Z</time></trkpt><trkpt lat="40.93866249483059" lon="17.294600975474143"><ele>38.0</ele><time>2026-03-29T15:14:17.999Z</time></trkpt><trkpt lat="40.93885211782489" lon="17.29477388145293"><ele>38.0</ele><time>2026-03-29T15:14:18.999Z</time></trkpt><trkpt lat="40.93902189657765" lon="17.29492206323921"><ele>38.0</ele><time>2026-03-29T15:14:19.999Z</time></trkpt><trkpt lat="40.93917190776383" lon="17.29505440521197"><ele>37.666666666666664</ele><time>2026-03-29T15:14:20.999Z</time></trkpt><trkpt lat="40.9393032555095" lon="17.29517785921692"><ele>37.333333333333336</ele><time>2026-03-29T15:14:21.999Z</time></trkpt><trkpt lat="40.93945619224621" lon="17.29528912906869"><ele>37.0</ele><time>2026-03-29T15:14:22.999Z</time></trkpt><trkpt lat="40.93964513742232" lon="17.295448018687004"><ele>36.5</ele><time>2026-03-29T15:14:23.999Z</time></trkpt><trkpt lat="40.939874144342745" lon="17.295608279989118"><ele>36.0</ele><time>2026-03-29T15:14:24.999Z</time></trkpt><trkpt lat="40.94016013233417" lon="17.29578708071487"><ele>35.0</ele><time>2026-03-29T15:14:25.999Z</time></trkpt><trkpt lat="40.94045503694787" lon="17.29600601336689"><ele>34.0</ele><time>2026-03-29T15:14:26.999Z</time></trkpt><trkpt lat="40.94069819569323" lon="17.296232374155394"><ele>34.0</ele><time>2026-03-29T15:14:27.999Z</time></trkpt><trkpt lat="40.94091229712506" lon="17.296416845143824"><ele>34.0</ele><time>2026-03-29T15:14:28.999Z</time></trkpt><trkpt lat="40.941116042355574" lon="17.296580179765343"><ele>33.333333333333336</ele><time>2026-03-29T15:14:29.999Z</time></trkpt><trkpt lat="40.94128923536194" lon="17.29671043768283"><ele>32.666666666666664</ele><time>2026-03-29T15:14:30.999Z</time></trkpt><trkpt lat="40.941457194260465" lon="17.296846917523116"><ele>32.0</ele><time>2026-03-29T15:14:31.999Z</time></trkpt><trkpt lat="40.94160180414321" lon="17.296970797168136"><ele>32.0</ele><time>2026-03-29T15:14:32.999Z</time></trkpt><trkpt lat="40.94173462306432" lon="17.29709200727529"><ele>32.0</ele><time>2026-03-29T15:14:33.999Z</time></trkpt><trkpt lat="40.94185807020553" lon="17.29720840562809"><ele>32.0</ele><time>2026-03-29T15:14:34.999Z</time></trkpt><trkpt lat="40.94197200388311" lon="17.297307160908897"><ele>32.0</ele><time>2026-03-29T15:14:35.999Z</time></trkpt><trkpt lat="40.94207271862825" lon="17.297411673791782"><ele>31.5</ele><time>2026-03-29T15:14:36.999Z</time></trkpt><trkpt lat="40.942166052340006" lon="17.297525729354906"><ele>31.0</ele><time>2026-03-29T15:14:37.999Z</time></trkpt><trkpt lat="40.94227360980153" lon="17.29763423761251"><ele>30.5</ele><time>2026-03-29T15:14:38.999Z</time></trkpt><trkpt lat="40.94238763824813" lon="17.297740861912008"><ele>30.0</ele><time>2026-03-29T15:14:39.999Z</time></trkpt><trkpt lat="40.942506530882895" lon="17.29784931465866"><ele>30.0</ele><time>2026-03-29T15:14:40.999Z</time></trkpt><trkpt lat="40.94265581538524" lon="17.297961597502947"><ele>30.0</ele><time>2026-03-29T15:14:41.999Z</time></trkpt><trkpt lat="40.94278135187497" lon="17.29805577941691"><ele>30.0</ele><time>2026-03-29T15:14:42.999Z</time></trkpt><trkpt lat="40.942882962153085" lon="17.298127836457386"><ele>30.0</ele><time>2026-03-29T15:14:43.999Z</time></trkpt><trkpt lat="40.94300929393076" lon="17.298261842844322"><ele>29.333333333333336</ele><time>2026-03-29T15:14:44.999Z</time></trkpt><trkpt lat="40.94315661833129" lon="17.298374898772604"><ele>28.666666666666668</ele><time>2026-03-29T15:14:45.999Z</time></trkpt><trkpt lat="40.94328666555464" lon="17.298506118169044"><ele>28.0</ele><time>2026-03-29T15:14:46.999Z</time></trkpt><trkpt lat="40.94338614567512" lon="17.29858926517707"><ele>27.75</ele><time>2026-03-29T15:14:47.999Z</time></trkpt><trkpt lat="40.94348106394201" lon="17.298665025654422"><ele>27.5</ele><time>2026-03-29T15:14:48.999Z</time></trkpt><trkpt lat="40.943580780154655" lon="17.298747396999797"><ele>27.25</ele><time>2026-03-29T15:14:49.999Z</time></trkpt><trkpt lat="40.943684189928405" lon="17.29884213715259"><ele>27.0</ele><time>2026-03-29T15:14:50.999Z</time></trkpt><trkpt lat="40.94378974344219" lon="17.29891855266668"><ele>26.833333333333332</ele><time>2026-03-29T15:14:51.999Z</time></trkpt><trkpt lat="40.9438679815053" lon="17.298996529820062"><ele>26.666666666666664</ele><time>2026-03-29T15:14:52.999Z</time></trkpt><trkpt lat="40.94394716437172" lon="17.299067826948946"><ele>26.5</ele><time>2026-03-29T15:14:53.999Z</time></trkpt><trkpt lat="40.94401596857173" lon="17.299136743333694"><ele>26.333333333333332</ele><time>2026-03-29T15:14:54.999Z</time></trkpt><trkpt lat="40.944067301263345" lon="17.299191982615003"><ele>26.166666666666664</ele><time>2026-03-29T15:14:56Z</time></trkpt><trkpt lat="40.94412822535641" lon="17.299284813355214"><ele>26.0</ele><time>2026-03-29T15:14:58Z</time></trkpt><trkpt lat="40.944152350073686" lon="17.299439873542614"><ele>26.0</ele><time>2026-03-29T15:15:02Z</time></trkpt><trkpt lat="40.944104981144356" lon="17.299561444457794"><ele>26.0</ele><time>2026-03-29T15:15:04Z</time></trkpt><trkpt lat="40.94405175668433" lon="17.29968505987487"><ele>26.0</ele><time>2026-03-29T15:15:05Z</time></trkpt><trkpt lat="40.94398297934651" lon="17.299851224834786"><ele>26.0</ele><time>2026-03-29T15:15:06Z</time></trkpt><trkpt lat="40.943901969089865" lon="17.300061558670677"><ele>26.5</ele><time>2026-03-29T15:15:07Z</time></trkpt><trkpt lat="40.943797470551964" lon="17.300326548887067"><ele>27.0</ele><time>2026-03-29T15:15:08Z</time></trkpt><trkpt lat="40.943664140449854" lon="17.300650296668415"><ele>26.0</ele><time>2026-03-29T15:15:09Z</time></trkpt><trkpt lat="40.943540724787326" lon="17.30100960142541"><ele>25.0</ele><time>2026-03-29T15:15:10Z</time></trkpt><trkpt lat="40.94339528555443" lon="17.301386864725806"><ele>25.0</ele><time>2026-03-29T15:15:11Z</time></trkpt><trkpt lat="40.94326695972153" lon="17.30175066936071"><ele>25.0</ele><time>2026-03-29T15:15:12Z</time></trkpt><trkpt lat="40.9431709823528" lon="17.302086800352473"><ele>25.0</ele><time>2026-03-29T15:15:13Z</time></trkpt><trkpt lat="40.943087699996745" lon="17.302326133581424"><ele>25.0</ele><time>2026-03-29T15:15:14Z</time></trkpt><trkpt lat="40.94306789189536" lon="17.302538608974206"><ele>25.0</ele><time>2026-03-29T15:15:15Z</time></trkpt><trkpt lat="40.94303378058141" lon="17.302747606397368"><ele>25.0</ele><time>2026-03-29T15:15:16Z</time></trkpt><trkpt lat="40.94299090057526" lon="17.302925299322663"><ele>25.0</ele><time>2026-03-29T15:15:17Z</time></trkpt><trkpt lat="40.9429547377632" lon="17.303052890468436"><ele>25.0</ele><time>2026-03-29T15:15:18Z</time></trkpt><trkpt lat="40.9429278565" lon="17.303153419380614"><ele>25.0</ele><time>2026-03-29T15:15:19Z</time></trkpt><trkpt lat="40.94291282657256" lon="17.303249302251487"><ele>25.0</ele><time>2026-03-29T15:15:20Z</time></trkpt><trkpt lat="40.942859389697475" lon="17.303317645126995"><ele>24.6</ele><time>2026-03-29T15:15:21Z</time></trkpt><trkpt lat="40.94280421521809" lon="17.303382562747554"><ele>24.2</ele><time>2026-03-29T15:15:22Z</time></trkpt><trkpt lat="40.94274049348462" lon="17.3034647539332"><ele>23.799999999999997</ele><time>2026-03-29T15:15:23Z</time></trkpt><trkpt lat="40.94269811418153" lon="17.303569711367405"><ele>23.4</ele><time>2026-03-29T15:15:24Z</time></trkpt><trkpt lat="40.94270125089242" lon="17.303668779010508"><ele>23.0</ele><time>2026-03-29T15:15:25Z</time></trkpt><trkpt lat="40.94280457654464" lon="17.303774554927685"><ele>23.0</ele><time>2026-03-29T15:15:27Z</time></trkpt><trkpt lat="40.94287784099524" lon="17.30379460422038"><ele>23.0</ele><time>2026-03-29T15:15:28Z</time></trkpt><trkpt lat="40.942970234216176" lon="17.303737968311058"><ele>23.0</ele><time>2026-03-29T15:15:29Z</time></trkpt><trkpt lat="40.94306015204257" lon="17.303632272587826"><ele>23.0</ele><time>2026-03-29T15:15:30Z</time></trkpt><trkpt lat="40.943165264854755" lon="17.30350379973864"><ele>23.0</ele><time>2026-03-29T15:15:31Z</time></trkpt><trkpt lat="40.94328906522264" lon="17.303364598070555"><ele>23.333333333333336</ele><time>2026-03-29T15:15:32Z</time></trkpt><trkpt lat="40.94343464871834" lon="17.303220453993816"><ele>23.666666666666668</ele><time>2026-03-29T15:15:33Z</time></trkpt><trkpt lat="40.943614606086065" lon="17.30305190477926"><ele>24.0</ele><time>2026-03-29T15:15:34Z</time></trkpt><trkpt lat="40.94380421043172" lon="17.302874066326233"><ele>24.0</ele><time>2026-03-29T15:15:35Z</time></trkpt><trkpt lat="40.943942301194774" lon="17.302737332096765"><ele>24.0</ele><time>2026-03-29T15:15:36Z</time></trkpt><trkpt lat="40.944069292366024" lon="17.302599937752024"><ele>24.0</ele><time>2026-03-29T15:15:37Z</time></trkpt><trkpt lat="40.944174855009784" lon="17.30250135347389"><ele>23.5</ele><time>2026-03-29T15:15:38Z</time></trkpt><trkpt lat="40.94428848880034" lon="17.302377800849964"><ele>23.0</ele><time>2026-03-29T15:15:39Z</time></trkpt><trkpt lat="40.944388586327904" lon="17.302293046999687"><ele>22.5</ele><time>2026-03-29T15:15:40Z</time></trkpt><trkpt lat="40.94450290620069" lon="17.302179521875672"><ele>22.0</ele><time>2026-03-29T15:15:41Z</time></trkpt><trkpt lat="40.944617033874955" lon="17.3020666718505"><ele>22.0</ele><time>2026-03-29T15:15:42Z</time></trkpt><trkpt lat="40.944675437038676" lon="17.302008960305777"><ele>22.0</ele><time>2026-03-29T15:15:43Z</time></trkpt><trkpt lat="40.9447482528394" lon="17.30193726435969"><ele>22.0</ele><time>2026-03-29T15:15:44Z</time></trkpt><trkpt lat="40.94480224981946" lon="17.301861317553286"><ele>22.0</ele><time>2026-03-29T15:15:45Z</time></trkpt><trkpt lat="40.94487265273573" lon="17.30185810067484"><ele>22.0</ele><time>2026-03-29T15:15:46Z</time></trkpt><trkpt lat="40.945025233985554" lon="17.301979158433863"><ele>22.25</ele><time>2026-03-29T15:15:48Z</time></trkpt><trkpt lat="40.94509948611324" lon="17.302057359276525"><ele>22.5</ele><time>2026-03-29T15:15:49Z</time></trkpt><trkpt lat="40.94517521353521" lon="17.30212833225865"><ele>22.75</ele><time>2026-03-29T15:15:50Z</time></trkpt><trkpt lat="40.94532887959844" lon="17.302145146237017"><ele>23.0</ele><time>2026-03-29T15:15:51Z</time></trkpt><trkpt lat="40.9454649516975" lon="17.302111809635228"><ele>23.0</ele><time>2026-03-29T15:15:52Z</time></trkpt><trkpt lat="40.94559809270348" lon="17.302030204003184"><ele>23.0</ele><time>2026-03-29T15:15:53Z</time></trkpt><trkpt lat="40.9457449688678" lon="17.302006855034687"><ele>23.0</ele><time>2026-03-29T15:15:54Z</time></trkpt><trkpt lat="40.94588719506687" lon="17.30205709565548"><ele>23.0</ele><time>2026-03-29T15:15:55Z</time></trkpt><trkpt lat="40.946068606789474" lon="17.302170454308033"><ele>21.5</ele><time>2026-03-29T15:15:56Z</time></trkpt><trkpt lat="40.946282207711555" lon="17.30222954619178"><ele>20.0</ele><time>2026-03-29T15:15:57Z</time></trkpt><trkpt lat="40.9465459297661" lon="17.30233589438184"><ele>18.666666666666668</ele><time>2026-03-29T15:15:58Z</time></trkpt><trkpt lat="40.94679857920291" lon="17.30244364852345"><ele>17.333333333333332</ele><time>2026-03-29T15:15:59Z</time></trkpt><trkpt lat="40.94695683843493" lon="17.30252748603659"><ele>16.0</ele><time>2026-03-29T15:16:00Z</time></trkpt><trkpt lat="40.94710678311971" lon="17.302581643371255"><ele>16.0</ele><time>2026-03-29T15:16:01Z</time></trkpt><trkpt lat="40.94723956075326" lon="17.30263369054059"><ele>16.0</ele><time>2026-03-29T15:16:02Z</time></trkpt><trkpt lat="40.94735844475045" lon="17.302685579185013"><ele>16.0</ele><time>2026-03-29T15:16:03Z</time></trkpt><trkpt lat="40.9474514906859" lon="17.302754779617803"><ele>16.0</ele><time>2026-03-29T15:16:04Z</time></trkpt><trkpt lat="40.94751285250227" lon="17.30286747243516"><ele>15.75</ele><time>2026-03-29T15:16:05Z</time></trkpt><trkpt lat="40.94760261024694" lon="17.30296930342996"><ele>15.5</ele><time>2026-03-29T15:16:05.999Z</time></trkpt><trkpt lat="40.947610783115735" lon="17.30318492858471"><ele>15.25</ele><time>2026-03-29T15:16:06.999Z</time></trkpt><trkpt lat="40.947633578532056" lon="17.303325901218496"><ele>15.0</ele><time>2026-03-29T15:16:07.999Z</time></trkpt><trkpt lat="40.94765791111408" lon="17.303434113489537"><ele>14.8</ele><time>2026-03-29T15:16:08.999Z</time></trkpt><trkpt lat="40.947692347621235" lon="17.303507614746817"><ele>14.6</ele><time>2026-03-29T15:16:09.999Z</time></trkpt><trkpt lat="40.94773647484483" lon="17.30361095674368"><ele>14.399999999999999</ele><time>2026-03-29T15:16:14.999Z</time></trkpt><trkpt lat="40.94790334147115" lon="17.303516400440316"><ele>14.2</ele><time>2026-03-29T15:16:16.999Z</time></trkpt><trkpt lat="40.94798587361786" lon="17.303497142155926"><ele>14.0</ele><time>2026-03-29T15:16:17.999Z</time></trkpt><trkpt lat="40.94806756810747" lon="17.303442195842734"><ele>14.0</ele><time>2026-03-29T15:16:18.999Z</time></trkpt><trkpt lat="40.948136607862175" lon="17.303425536611982"><ele>13.999999999999998</ele><time>2026-03-29T15:16:19.999Z</time></trkpt><trkpt lat="40.94820238845903" lon="17.303398834604714"><ele>13.999999999999998</ele><time>2026-03-29T15:16:20.999Z</time></trkpt><trkpt lat="40.94826038495323" lon="17.303332576649733"><ele>14.0</ele><time>2026-03-29T15:16:21.999Z</time></trkpt><trkpt lat="40.94839711473069" lon="17.303267193990095"><ele>14.0</ele><time>2026-03-29T15:16:22.999Z</time></trkpt><trkpt lat="40.94851222956897" lon="17.303208150124505"><ele>13.833333333333334</ele><time>2026-03-29T15:16:23.999Z</time></trkpt><trkpt lat="40.94857544208329" lon="17.30317572762216"><ele>13.666666666666668</ele><time>2026-03-29T15:16:24.999Z</time></trkpt><trkpt lat="40.94865374219547" lon="17.303137304785075"><ele>13.5</ele><time>2026-03-29T15:16:26.999Z</time></trkpt><trkpt lat="40.94872307731628" lon="17.303108919441808"><ele>13.333333333333332</ele><time>2026-03-29T15:16:29.999Z</time></trkpt><trkpt lat="40.948816392395365" lon="17.30307180199033"><ele>13.166666666666666</ele><time>2026-03-29T15:16:31.999Z</time></trkpt><trkpt lat="40.94892109966722" lon="17.303023115450447"><ele>13.0</ele><time>2026-03-29T15:16:33.999Z</time></trkpt><trkpt lat="40.94900359487622" lon="17.302978621383126"><ele>13.0</ele><time>2026-03-29T15:16:34.999Z</time></trkpt><trkpt lat="40.94909210566533" lon="17.302931092224966"><ele>13.0</ele><time>2026-03-29T15:16:35.999Z</time></trkpt><trkpt lat="40.949192519705136" lon="17.302876730472597"><ele>13.0</ele><time>2026-03-29T15:16:36.999Z</time></trkpt><trkpt lat="40.9492962737243" lon="17.302821093788964"><ele>13.0</ele><time>2026-03-29T15:16:37.999Z</time></trkpt><trkpt lat="40.94939374803059" lon="17.30276990839131"><ele>13.0</ele><time>2026-03-29T15:16:38.999Z</time></trkpt><trkpt lat="40.949476525822" lon="17.302724696349287"><ele>13.166666666666666</ele><time>2026-03-29T15:16:39.999Z</time></trkpt><trkpt lat="40.949558888425344" lon="17.302678019096895"><ele>13.333333333333332</ele><time>2026-03-29T15:16:40.999Z</time></trkpt><trkpt lat="40.94964165934375" lon="17.302648334102475"><ele>13.5</ele><time>2026-03-29T15:16:41.999Z</time></trkpt><trkpt lat="40.949701866962386" lon="17.30259607590233"><ele>13.666666666666668</ele><time>2026-03-29T15:16:42.999Z</time></trkpt><trkpt lat="40.94969478961466" lon="17.302458926465462"><ele>13.833333333333334</ele><time>2026-03-29T15:16:43.999Z</time></trkpt><trkpt lat="40.94975628039067" lon="17.302415860796106"><ele>14.0</ele><time>2026-03-29T15:16:45.999Z</time></trkpt><trkpt lat="40.949821005264084" lon="17.30227749006323"><ele>14.0</ele><time>2026-03-29T15:16:47.999Z</time></trkpt><trkpt lat="40.949958155869034" lon="17.3022756180319"><ele>14.0</ele><time>2026-03-29T15:16:48.999Z</time></trkpt><trkpt lat="40.9500670191922" lon="17.302224183961187"><ele>14.0</ele><time>2026-03-29T15:16:49.999Z</time></trkpt><trkpt lat="40.9501480468313" lon="17.302204186392466"><ele>14.0</ele><time>2026-03-29T15:16:50.999Z</time></trkpt><trkpt lat="40.950241783054864" lon="17.30211572043445"><ele>14.0</ele><time>2026-03-29T15:16:51.999Z</time></trkpt><trkpt lat="40.950330213622664" lon="17.30207211803873"><ele>14.0</ele><time>2026-03-29T15:16:52.999Z</time></trkpt><trkpt lat="40.950411362947975" lon="17.302032105797302"><ele>14.0</ele><time>2026-03-29T15:16:53.999Z</time></trkpt><trkpt lat="40.950523340199894" lon="17.30223769079416"><ele>14.0</ele><time>2026-03-29T15:16:58.999Z</time></trkpt><trkpt lat="40.95058232027903" lon="17.302322323894305"><ele>14.000000000000002</ele><time>2026-03-29T15:17:00.999Z</time></trkpt><trkpt lat="40.950591532320836" lon="17.302412956446194"><ele>14.0</ele><time>2026-03-29T15:17:03Z</time></trkpt><trkpt lat="40.95052237345881" lon="17.302488769439474"><ele>14.0</ele><time>2026-03-29T15:17:07Z</time></trkpt><trkpt lat="40.9504261294252" lon="17.302512913088542"><ele>14.0</ele><time>2026-03-29T15:17:08Z</time></trkpt><trkpt lat="40.95033786336096" lon="17.302563811523815"><ele>14.000000000000002</ele><time>2026-03-29T15:17:09Z</time></trkpt><trkpt lat="40.950274340323475" lon="17.302594040331204"><ele>14.0</ele><time>2026-03-29T15:17:10Z</time></trkpt><trkpt lat="40.95015081192821" lon="17.30267560060971"><ele>14.0</ele><time>2026-03-29T15:17:12Z</time></trkpt><trkpt lat="40.950054945014486" lon="17.3026895741075"><ele>14.0</ele><time>2026-03-29T15:17:13Z</time></trkpt><trkpt lat="40.9499826066258" lon="17.30272546710614"><ele>14.0</ele><time>2026-03-29T15:17:14Z</time></trkpt><trkpt lat="40.94989105612646" lon="17.302755296118747"><ele>14.0</ele><time>2026-03-29T15:17:16Z</time></trkpt><trkpt lat="40.94995532407296" lon="17.30307024074096"><ele>13.799999999999999</ele><time>2026-03-29T15:17:21Z</time></trkpt><trkpt lat="40.949978380233595" lon="17.303184537049162"><ele>13.599999999999998</ele><time>2026-03-29T15:17:22Z</time></trkpt><trkpt lat="40.95001171635129" lon="17.303330530091785"><ele>13.4</ele><time>2026-03-29T15:17:24Z</time></trkpt><trkpt lat="40.95003763431572" lon="17.303416625489795"><ele>13.2</ele><time>2026-03-29T15:17:25Z</time></trkpt><trkpt lat="40.950069805317426" lon="17.303518376821508"><ele>13.0</ele><time>2026-03-29T15:17:26Z</time></trkpt><trkpt lat="40.95012932947571" lon="17.30366181338203"><ele>13.499999999999998</ele><time>2026-03-29T15:17:28Z</time></trkpt><trkpt lat="40.95014932425394" lon="17.303752865339305"><ele>14.0</ele><time>2026-03-29T15:17:29Z</time></trkpt><trkpt lat="40.950194168834145" lon="17.30389066561119"><ele>14.5</ele><time>2026-03-29T15:17:31Z</time></trkpt><trkpt lat="40.95021216056171" lon="17.303975319813315"><ele>15.0</ele><time>2026-03-29T15:17:32Z</time></trkpt><trkpt lat="40.950250179580856" lon="17.304113379905154"><ele>15.499999999999998</ele><time>2026-03-29T15:17:34Z</time></trkpt><trkpt lat="40.950277596748535" lon="17.304221035327487"><ele>16.0</ele><time>2026-03-29T15:17:36Z</time></trkpt><trkpt lat="40.95030858087769" lon="17.304330430067775"><ele>15.999999999999998</ele><time>2026-03-29T15:17:38Z</time></trkpt><trkpt lat="40.950328404922956" lon="17.304446100015625"><ele>16.0</ele><time>2026-03-29T15:17:40Z</time></trkpt><trkpt lat="40.950383335217126" lon="17.304572608328552"><ele>16.0</ele><time>2026-03-29T15:17:42Z</time></trkpt><trkpt lat="40.95040160021776" lon="17.30466446139356"><ele>16.0</ele><time>2026-03-29T15:17:44Z</time></trkpt><trkpt lat="40.95043851354778" lon="17.304745091945385"><ele>15.999999999999998</ele><time>2026-03-29T15:17:50Z</time></trkpt><trkpt lat="40.9504229430672" lon="17.304827552772405"><ele>16.0</ele><time>2026-03-29T15:17:53Z</time></trkpt><trkpt lat="40.95035778546381" lon="17.3048386172447"><ele>14.499999999999998</ele><time>2026-03-29T15:17:54Z</time></trkpt><trkpt lat="40.95026659079999" lon="17.304902877002498"><ele>13.0</ele><time>2026-03-29T15:18:00Z</time></trkpt><trkpt lat="40.95019450761056" lon="17.30493489104343"><ele>11.5</ele><time>2026-03-29T15:18:02Z</time></trkpt><trkpt lat="40.95011408777805" lon="17.304952107146672"><ele>10.0</ele><time>2026-03-29T15:18:02.999Z</time></trkpt><trkpt lat="40.95003414674675" lon="17.305015111962177"><ele>8.5</ele><time>2026-03-29T15:18:04.999Z</time></trkpt><trkpt lat="40.94997249548422" lon="17.305034410927828"><ele>7.0</ele><time>2026-03-29T15:18:06.999Z</time></trkpt><trkpt lat="40.94985962453564" lon="17.305114350967468"><ele>7.0</ele><time>2026-03-29T15:18:08.999Z</time></trkpt><trkpt lat="40.949791479800034" lon="17.305134501880335"><ele>7.0</ele><time>2026-03-29T15:18:09.999Z</time></trkpt><trkpt lat="40.94971236048788" lon="17.305148889186444"><ele>7.0</ele><time>2026-03-29T15:18:11.999Z</time></trkpt><trkpt lat="40.94964179240696" lon="17.30519567997045"><ele>7.0</ele><time>2026-03-29T15:18:14.999Z</time></trkpt><trkpt lat="40.94957679541783" lon="17.305227251363654"><ele>7.0</ele><time>2026-03-29T15:18:16.999Z</time></trkpt><trkpt lat="40.949495224381096" lon="17.305244195621192"><ele>7.0</ele><time>2026-03-29T15:18:18.999Z</time></trkpt><trkpt lat="40.94943645209384" lon="17.305281050081835"><ele>7.0</ele><time>2026-03-29T15:18:20.999Z</time></trkpt><trkpt lat="40.94937122103376" lon="17.305332762129204"><ele>7.000000000000001</ele><time>2026-03-29T15:18:23.999Z</time></trkpt><trkpt lat="40.9493917543943" lon="17.305442400411973"><ele>7.0</ele><time>2026-03-29T15:18:26.999Z</time></trkpt><trkpt lat="40.94942683938222" lon="17.305570767003367"><ele>7.0</ele><time>2026-03-29T15:18:28.999Z</time></trkpt><trkpt lat="40.94945003411788" lon="17.305652139287318"><ele>7.0</ele><time>2026-03-29T15:18:37.999Z</time></trkpt><trkpt lat="40.949473492742634" lon="17.305734437354452"><ele>7.000000000000001</ele><time>2026-03-29T15:18:41.999Z</time></trkpt><trkpt lat="40.94939901776787" lon="17.305825105395595"><ele>7.0</ele><time>2026-03-29T15:18:45.999Z</time></trkpt><trkpt lat="40.94933597862054" lon="17.305862866959036"><ele>6.8</ele><time>2026-03-29T15:18:46.999Z</time></trkpt><trkpt lat="40.949278970451424" lon="17.305911421491192"><ele>6.6</ele><time>2026-03-29T15:18:47.999Z</time></trkpt><trkpt lat="40.94918020514049" lon="17.305951680895802"><ele>6.3999999999999995</ele><time>2026-03-29T15:18:49.999Z</time></trkpt><trkpt lat="40.949081484448584" lon="17.306107248775017"><ele>6.199999999999999</ele><time>2026-03-29T15:18:52.999Z</time></trkpt><trkpt lat="40.94917908453477" lon="17.306132369869363"><ele>6.0</ele><time>2026-03-29T15:18:53.999Z</time></trkpt><trkpt lat="40.949225836382176" lon="17.30622649122331"><ele>6.0</ele><time>2026-03-29T15:18:55.999Z</time></trkpt><trkpt lat="40.949241213064994" lon="17.306346386759397"><ele>6.0</ele><time>2026-03-29T15:18:57.999Z</time></trkpt><trkpt lat="40.94926289189492" lon="17.306451853188513"><ele>6.0</ele><time>2026-03-29T15:19:00.999Z</time></trkpt><trkpt lat="40.949198062159645" lon="17.306534556596556"><ele>6.0</ele><time>2026-03-29T15:19:01.999Z</time></trkpt><trkpt lat="40.94923436401951" lon="17.306621253390478"><ele>6.0</ele><time>2026-03-29T15:19:05.999Z</time></trkpt><trkpt lat="40.94927721567976" lon="17.30669852004385"><ele>6.0</ele><time>2026-03-29T15:19:09Z</time></trkpt><trkpt lat="40.94940110705735" lon="17.306410750755923"><ele>6.0</ele><time>2026-03-29T15:19:13Z</time></trkpt><trkpt lat="40.94944574934248" lon="17.306328072864833"><ele>6.0</ele><time>2026-03-29T15:19:17Z</time></trkpt><trkpt lat="40.9494682642871" lon="17.30623738000552"><ele>6.0</ele><time>2026-03-29T15:19:22Z</time></trkpt><trkpt lat="40.94945561085166" lon="17.306135690043277"><ele>6.0</ele><time>2026-03-29T15:19:25Z</time></trkpt><trkpt lat="40.949416473741785" lon="17.306062557095007"><ele>6.0</ele><time>2026-03-29T15:19:27Z</time></trkpt><trkpt lat="40.949366074989875" lon="17.305999997261058"><ele>6.0</ele><time>2026-03-29T15:19:29Z</time></trkpt><trkpt lat="40.94923764026414" lon="17.30601202110293"><ele>6.75</ele><time>2026-03-29T15:19:31Z</time></trkpt><trkpt lat="40.949119254522294" lon="17.306003129726594"><ele>7.5</ele><time>2026-03-29T15:19:32Z</time></trkpt><trkpt lat="40.94896961161467" lon="17.3060337843842"><ele>8.25</ele><time>2026-03-29T15:19:33Z</time></trkpt><trkpt lat="40.948857786254955" lon="17.306038329507523"><ele>9.0</ele><time>2026-03-29T15:19:34Z</time></trkpt><trkpt lat="40.948720893229044" lon="17.30602145306445"><ele>9.0</ele><time>2026-03-29T15:19:35Z</time></trkpt><trkpt lat="40.94863476844861" lon="17.3059476921194"><ele>9.0</ele><time>2026-03-29T15:19:36Z</time></trkpt><trkpt lat="40.9485671856936" lon="17.305924087000562"><ele>9.0</ele><time>2026-03-29T15:19:37Z</time></trkpt><trkpt lat="40.948480168634426" lon="17.305888916338052"><ele>9.0</ele><time>2026-03-29T15:19:38Z</time></trkpt><trkpt lat="40.94836983973847" lon="17.30586483216022"><ele>9.0</ele><time>2026-03-29T15:19:39Z</time></trkpt><trkpt lat="40.94828391980316" lon="17.30588538819289"><ele>9.6</ele><time>2026-03-29T15:19:40Z</time></trkpt><trkpt lat="40.94820015890233" lon="17.305900209581296"><ele>10.2</ele><time>2026-03-29T15:19:41Z</time></trkpt><trkpt lat="40.94809464598843" lon="17.30594549353518"><ele>10.799999999999999</ele><time>2026-03-29T15:19:42Z</time></trkpt><trkpt lat="40.94800353316674" lon="17.30599059584284"><ele>11.4</ele><time>2026-03-29T15:19:43Z</time></trkpt><trkpt lat="40.94789243078035" lon="17.30605073323281"><ele>12.0</ele><time>2026-03-29T15:19:44Z</time></trkpt><trkpt lat="40.947788507954776" lon="17.306121197270198"><ele>12.0</ele><time>2026-03-29T15:19:45Z</time></trkpt><trkpt lat="40.94768214208242" lon="17.30612764998797"><ele>12.0</ele><time>2026-03-29T15:19:46Z</time></trkpt><trkpt lat="40.94758809271533" lon="17.30619813977738"><ele>12.0</ele><time>2026-03-29T15:19:47Z</time></trkpt><trkpt lat="40.94745610067778" lon="17.30626924886874"><ele>12.0</ele><time>2026-03-29T15:19:48Z</time></trkpt><trkpt lat="40.947353390076664" lon="17.30629167641882"><ele>11.8</ele><time>2026-03-29T15:19:49Z</time></trkpt><trkpt lat="40.94726997782033" lon="17.306255041732065"><ele>11.6</ele><time>2026-03-29T15:19:52Z</time></trkpt><trkpt lat="40.9472485242054" lon="17.30602483641149"><ele>11.4</ele><time>2026-03-29T15:19:54Z</time></trkpt><trkpt lat="40.94722475007143" lon="17.305885180763095"><ele>11.200000000000001</ele><time>2026-03-29T15:19:56Z</time></trkpt><trkpt lat="40.94719955000052" lon="17.305796548047354"><ele>11.0</ele><time>2026-03-29T15:19:57Z</time></trkpt><trkpt lat="40.9474323448212" lon="17.305680479376523"><ele>11.0</ele><time>2026-03-29T15:19:58Z</time></trkpt><trkpt lat="40.9475119843353" lon="17.305573297212494"><ele>11.0</ele><time>2026-03-29T15:19:59Z</time></trkpt><trkpt lat="40.94759624503416" lon="17.30546091070661"><ele>11.0</ele><time>2026-03-29T15:20:00Z</time></trkpt><trkpt lat="40.947666597530585" lon="17.305367412498992"><ele>11.0</ele><time>2026-03-29T15:20:01Z</time></trkpt><trkpt lat="40.9477202482653" lon="17.30526561480395"><ele>11.0</ele><time>2026-03-29T15:20:02Z</time></trkpt><trkpt lat="40.94779904566409" lon="17.305190603055344"><ele>11.0</ele><time>2026-03-29T15:20:03Z</time></trkpt><trkpt lat="40.94787294351169" lon="17.30509549892013"><ele>11.0</ele><time>2026-03-29T15:20:04Z</time></trkpt><trkpt lat="40.94791806686393" lon="17.305001585176043"><ele>11.0</ele><time>2026-03-29T15:20:05Z</time></trkpt><trkpt lat="40.947932367080696" lon="17.30490032496196"><ele>11.0</ele><time>2026-03-29T15:20:06Z</time></trkpt><trkpt lat="40.94792600973865" lon="17.304809146397677"><ele>11.0</ele><time>2026-03-29T15:20:07Z</time></trkpt><trkpt lat="40.94793230914435" lon="17.30471776847427"><ele>11.0</ele><time>2026-03-29T15:20:08Z</time></trkpt><trkpt lat="40.94793285868954" lon="17.30463142595706"><ele>11.5</ele><time>2026-03-29T15:20:09Z</time></trkpt><trkpt lat="40.9479091629378" lon="17.304468033575823"><ele>12.0</ele><time>2026-03-29T15:20:10Z</time></trkpt><trkpt lat="40.947869114928515" lon="17.30426893228027"><ele>12.5</ele><time>2026-03-29T15:20:10.999Z</time></trkpt><trkpt lat="40.94783856445915" lon="17.304090181790567"><ele>13.0</ele><time>2026-03-29T15:20:11.999Z</time></trkpt><trkpt lat="40.94779600196428" lon="17.303936890175088"><ele>13.166666666666666</ele><time>2026-03-29T15:20:12.999Z</time></trkpt><trkpt lat="40.94779339957056" lon="17.303829258668042"><ele>13.333333333333332</ele><time>2026-03-29T15:20:13.999Z</time></trkpt><trkpt lat="40.94777700189025" lon="17.303735979316496"><ele>13.5</ele><time>2026-03-29T15:20:15.999Z</time></trkpt><trkpt lat="40.94778060362968" lon="17.30364254223582"><ele>13.666666666666668</ele><time>2026-03-29T15:20:19.999Z</time></trkpt><trkpt lat="40.947898351361935" lon="17.303518776582766"><ele>13.833333333333334</ele><time>2026-03-29T15:20:21.999Z</time></trkpt><trkpt lat="40.94796610008947" lon="17.30348652492277"><ele>14.0</ele><time>2026-03-29T15:20:22.999Z</time></trkpt><trkpt lat="40.94805175733021" lon="17.30344655945342"><ele>14.0</ele><time>2026-03-29T15:20:23.999Z</time></trkpt><trkpt lat="40.94814672194097" lon="17.303404423743498"><ele>14.0</ele><time>2026-03-29T15:20:24.999Z</time></trkpt><trkpt lat="40.948268424792204" lon="17.3033522067658"><ele>14.0</ele><time>2026-03-29T15:20:25.999Z</time></trkpt><trkpt lat="40.94842205311956" lon="17.30327797701511"><ele>14.0</ele><time>2026-03-29T15:20:26.999Z</time></trkpt><trkpt lat="40.94855037238095" lon="17.30321216041275"><ele>13.75</ele><time>2026-03-29T15:20:27.999Z</time></trkpt><trkpt lat="40.948630416915925" lon="17.30317110461928"><ele>13.5</ele><time>2026-03-29T15:20:28.999Z</time></trkpt><trkpt lat="40.94876565902542" lon="17.303092390175568"><ele>13.25</ele><time>2026-03-29T15:20:30.999Z</time></trkpt><trkpt lat="40.94888896742245" lon="17.30304172367553"><ele>13.0</ele><time>2026-03-29T15:20:34.999Z</time></trkpt><trkpt lat="40.94905310269274" lon="17.30295214294614"><ele>13.0</ele><time>2026-03-29T15:20:36.999Z</time></trkpt><trkpt lat="40.94917805762699" lon="17.302884559186314"><ele>13.0</ele><time>2026-03-29T15:20:37.999Z</time></trkpt><trkpt lat="40.94929711005224" lon="17.302820653939833"><ele>13.0</ele><time>2026-03-29T15:20:38.999Z</time></trkpt><trkpt lat="40.94939691877965" lon="17.30276824274599"><ele>13.0</ele><time>2026-03-29T15:20:39.999Z</time></trkpt><trkpt lat="40.94947307990329" lon="17.302726648624656"><ele>13.2</ele><time>2026-03-29T15:20:40.999Z</time></trkpt><trkpt lat="40.94955994280532" lon="17.302677420194872"><ele>13.4</ele><time>2026-03-29T15:20:41.999Z</time></trkpt><trkpt lat="40.94965080876385" lon="17.302644754422108"><ele>13.599999999999998</ele><time>2026-03-29T15:20:42.999Z</time></trkpt><trkpt lat="40.94968603822724" lon="17.30247207305259"><ele>13.799999999999999</ele><time>2026-03-29T15:20:43.999Z</time></trkpt><trkpt lat="40.94975486785666" lon="17.302373551735208"><ele>14.0</ele><time>2026-03-29T15:20:46.999Z</time></trkpt><trkpt lat="40.94982197485728" lon="17.302310068131387"><ele>14.0</ele><time>2026-03-29T15:20:47.999Z</time></trkpt><trkpt lat="40.949922615140125" lon="17.302276269374982"><ele>13.999999999999998</ele><time>2026-03-29T15:20:48.999Z</time></trkpt><trkpt lat="40.9500008635445" lon="17.302222388792227"><ele>13.999999999999998</ele><time>2026-03-29T15:20:49.999Z</time></trkpt><trkpt lat="40.95008227033947" lon="17.302193639868474"><ele>14.0</ele><time>2026-03-29T15:20:50.999Z</time></trkpt><trkpt lat="40.95014974225902" lon="17.302157874498995"><ele>14.0</ele><time>2026-03-29T15:20:52.999Z</time></trkpt><trkpt lat="40.95024602670801" lon="17.30210777235587"><ele>14.0</ele><time>2026-03-29T15:20:55.999Z</time></trkpt><trkpt lat="40.9503096909051" lon="17.302087075567126"><ele>14.0</ele><time>2026-03-29T15:20:56.999Z</time></trkpt><trkpt lat="40.95038509391214" lon="17.302079104851888"><ele>14.0</ele><time>2026-03-29T15:20:58.999Z</time></trkpt><trkpt lat="40.95044216827337" lon="17.30201980902588"><ele>14.0</ele><time>2026-03-29T15:21:00.999Z</time></trkpt><trkpt lat="40.95050734951575" lon="17.301984776086965"><ele>14.0</ele><time>2026-03-29T15:21:01.999Z</time></trkpt><trkpt lat="40.95057564524923" lon="17.30195170292939"><ele>14.0</ele><time>2026-03-29T15:21:02.999Z</time></trkpt><trkpt lat="40.950640174254104" lon="17.30192062379127"><ele>14.0</ele><time>2026-03-29T15:21:03.999Z</time></trkpt><trkpt lat="40.95071242421599" lon="17.301886566218776"><ele>14.000000000000002</ele><time>2026-03-29T15:21:04.999Z</time></trkpt><trkpt lat="40.950787711558064" lon="17.30185107696729"><ele>14.0</ele><time>2026-03-29T15:21:06.999Z</time></trkpt><trkpt lat="40.950882877311564" lon="17.301806244874996"><ele>14.0</ele><time>2026-03-29T15:21:09.999Z</time></trkpt><trkpt lat="40.9509556823721" lon="17.301771971487728"><ele>14.0</ele><time>2026-03-29T15:21:11.999Z</time></trkpt><trkpt lat="40.95101436805236" lon="17.301723605243225"><ele>14.000000000000002</ele><time>2026-03-29T15:21:14Z</time></trkpt><trkpt lat="40.95111451322339" lon="17.3016866628067"><ele>14.0</ele><time>2026-03-29T15:21:16Z</time></trkpt><trkpt lat="40.95119678944715" lon="17.301644696171376"><ele>14.166666666666668</ele><time>2026-03-29T15:21:18Z</time></trkpt><trkpt lat="40.95128219207938" lon="17.301617222474558"><ele>14.333333333333334</ele><time>2026-03-29T15:21:20Z</time></trkpt><trkpt lat="40.95136867954781" lon="17.30157249812016"><ele>14.5</ele><time>2026-03-29T15:21:22Z</time></trkpt><trkpt lat="40.951475344093986" lon="17.301523998538652"><ele>14.666666666666668</ele><time>2026-03-29T15:21:24Z</time></trkpt><trkpt lat="40.951536792704125" lon="17.30149545961428"><ele>14.833333333333334</ele><time>2026-03-29T15:21:26Z</time></trkpt><trkpt lat="40.95160116190743" lon="17.301475316259104"><ele>15.0</ele><time>2026-03-29T15:21:27Z</time></trkpt><trkpt lat="40.951678073733056" lon="17.30140355232952"><ele>15.4</ele><time>2026-03-29T15:21:29Z</time></trkpt><trkpt lat="40.95175689015747" lon="17.301372552405972"><ele>15.8</ele><time>2026-03-29T15:21:31Z</time></trkpt><trkpt lat="40.95187080359462" lon="17.3013352271558"><ele>16.2</ele><time>2026-03-29T15:21:33Z</time></trkpt><trkpt lat="40.95191314220597" lon="17.30116247499356"><ele>16.6</ele><time>2026-03-29T15:21:36Z</time></trkpt><trkpt lat="40.951877366957106" lon="17.301033748320865"><ele>17.0</ele><time>2026-03-29T15:21:38Z</time></trkpt><trkpt lat="40.95199546635025" lon="17.30090500543516"><ele>17.0</ele><time>2026-03-29T15:21:42Z</time></trkpt><trkpt lat="40.95206889836374" lon="17.30087508842714"><ele>17.0</ele><time>2026-03-29T15:21:43Z</time></trkpt><trkpt lat="40.95213450199981" lon="17.300847375459036"><ele>17.0</ele><time>2026-03-29T15:21:44Z</time></trkpt><trkpt lat="40.95222664925152" lon="17.300814610646857"><ele>17.0</ele><time>2026-03-29T15:21:45Z</time></trkpt><trkpt lat="40.95230335546454" lon="17.300751506442"><ele>17.0</ele><time>2026-03-29T15:21:46Z</time></trkpt><trkpt lat="40.952405754510096" lon="17.300718377132043"><ele>17.0</ele><time>2026-03-29T15:21:48Z</time></trkpt><trkpt lat="40.95246943825448" lon="17.300679113524236"><ele>16.666666666666668</ele><time>2026-03-29T15:21:50Z</time></trkpt><trkpt lat="40.952550527984194" lon="17.300664949956673"><ele>16.333333333333336</ele><time>2026-03-29T15:22:03Z</time></trkpt><trkpt lat="40.95265076072353" lon="17.300622510228244"><ele>16.0</ele><time>2026-03-29T15:22:05Z</time></trkpt><trkpt lat="40.952741466212125" lon="17.300583512098658"><ele>15.666666666666668</ele><time>2026-03-29T15:22:07Z</time></trkpt><trkpt lat="40.952799612114305" lon="17.30053919425822"><ele>15.333333333333334</ele><time>2026-03-29T15:22:09Z</time></trkpt><trkpt lat="40.95285545891347" lon="17.300495900516246"><ele>15.0</ele><time>2026-03-29T15:22:11Z</time></trkpt><trkpt lat="40.95298785643098" lon="17.30044499213975"><ele>15.0</ele><time>2026-03-29T15:22:13Z</time></trkpt><trkpt lat="40.952960686214745" lon="17.300164932157454"><ele>15.0</ele><time>2026-03-29T15:22:15.999Z</time></trkpt><trkpt lat="40.95291284215906" lon="17.300034324745127"><ele>15.0</ele><time>2026-03-29T15:22:16.999Z</time></trkpt><trkpt lat="40.95289556322383" lon="17.299916299265526"><ele>15.0</ele><time>2026-03-29T15:22:17.999Z</time></trkpt><trkpt lat="40.95285553613985" lon="17.29975842349157"><ele>15.0</ele><time>2026-03-29T15:22:18.999Z</time></trkpt><trkpt lat="40.952820299274954" lon="17.29955084977788"><ele>15.0</ele><time>2026-03-29T15:22:19.999Z</time></trkpt><trkpt lat="40.9527668887077" lon="17.299368794763517"><ele>15.0</ele><time>2026-03-29T15:22:20.999Z</time></trkpt><trkpt lat="40.95272376696468" lon="17.29923708387449"><ele>15.0</ele><time>2026-03-29T15:22:22.999Z</time></trkpt><trkpt lat="40.952673680702866" lon="17.299116428720332"><ele>15.0</ele><time>2026-03-29T15:22:24.999Z</time></trkpt><trkpt lat="40.952644066414486" lon="17.29901425289619"><ele>15.0</ele><time>2026-03-29T15:22:25.999Z</time></trkpt><trkpt lat="40.95261131763506" lon="17.29889932482322"><ele>15.0</ele><time>2026-03-29T15:22:26.999Z</time></trkpt><trkpt lat="40.95260795014271" lon="17.29879287551921"><ele>15.0</ele><time>2026-03-29T15:22:27.999Z</time></trkpt><trkpt lat="40.95256227578808" lon="17.29868495384078"><ele>15.0</ele><time>2026-03-29T15:22:29.999Z</time></trkpt><trkpt lat="40.952548606911115" lon="17.29858766928753"><ele>15.0</ele><time>2026-03-29T15:22:31.999Z</time></trkpt><trkpt lat="40.95276624545042" lon="17.29847311196592"><ele>15.0</ele><time>2026-03-29T15:22:34.999Z</time></trkpt><trkpt lat="40.95290446236237" lon="17.29840708593227"><ele>15.0</ele><time>2026-03-29T15:22:35.999Z</time></trkpt><trkpt lat="40.95307914431356" lon="17.298323218712003"><ele>15.0</ele><time>2026-03-29T15:22:36.999Z</time></trkpt><trkpt lat="40.953219260729796" lon="17.298255915706715"><ele>15.0</ele><time>2026-03-29T15:22:37.999Z</time></trkpt><trkpt lat="40.953377522067434" lon="17.298179674931642"><ele>15.0</ele><time>2026-03-29T15:22:38.999Z</time></trkpt><trkpt lat="40.95356338329104" lon="17.298087930678548"><ele>15.0</ele><time>2026-03-29T15:22:39.999Z</time></trkpt><trkpt lat="40.95376058888075" lon="17.29799017937946"><ele>15.0</ele><time>2026-03-29T15:22:40.999Z</time></trkpt><trkpt lat="40.953891162839575" lon="17.297930667067646"><ele>15.0</ele><time>2026-03-29T15:22:41.999Z</time></trkpt><trkpt lat="40.953973956681885" lon="17.29789293175615"><ele>15.0</ele><time>2026-03-29T15:22:42.999Z</time></trkpt><trkpt lat="40.95405691852086" lon="17.297854868404208"><ele>15.0</ele><time>2026-03-29T15:22:43.999Z</time></trkpt><trkpt lat="40.95415750161356" lon="17.297808557391416"><ele>15.0</ele><time>2026-03-29T15:22:44.999Z</time></trkpt><trkpt lat="40.954314209073594" lon="17.29775661064812"><ele>14.333333333333332</ele><time>2026-03-29T15:22:45.999Z</time></trkpt><trkpt lat="40.95450160428396" lon="17.297648470960628"><ele>13.666666666666666</ele><time>2026-03-29T15:22:46.999Z</time></trkpt><trkpt lat="40.95463913032509" lon="17.297583595314876"><ele>13.0</ele><time>2026-03-29T15:22:47.999Z</time></trkpt><trkpt lat="40.95474381176601" lon="17.297534213770607"><ele>13.0</ele><time>2026-03-29T15:22:48.999Z</time></trkpt><trkpt lat="40.95488411358771" lon="17.297468403533728"><ele>13.0</ele><time>2026-03-29T15:22:49.999Z</time></trkpt><trkpt lat="40.95507416379384" lon="17.29737787081682"><ele>13.0</ele><time>2026-03-29T15:22:50.999Z</time></trkpt><trkpt lat="40.95529544256157" lon="17.29727032527835"><ele>13.333333333333332</ele><time>2026-03-29T15:22:51.999Z</time></trkpt><trkpt lat="40.95545724514027" lon="17.29719187951657"><ele>13.666666666666668</ele><time>2026-03-29T15:22:52.999Z</time></trkpt><trkpt lat="40.95561394339232" lon="17.29711823992135"><ele>14.0</ele><time>2026-03-29T15:22:53.999Z</time></trkpt><trkpt lat="40.95579624375999" lon="17.297033028109986"><ele>13.0</ele><time>2026-03-29T15:22:54.999Z</time></trkpt><trkpt lat="40.95595658314588" lon="17.296960844630583"><ele>11.999999999999998</ele><time>2026-03-29T15:22:55.999Z</time></trkpt><trkpt lat="40.95606780134879" lon="17.29691105171732"><ele>11.0</ele><time>2026-03-29T15:22:56.999Z</time></trkpt><trkpt lat="40.956139902532854" lon="17.29687606917709"><ele>10.0</ele><time>2026-03-29T15:22:57.999Z</time></trkpt><trkpt lat="40.956213196909225" lon="17.296866333411938"><ele>9.0</ele><time>2026-03-29T15:22:59.999Z</time></trkpt><trkpt lat="40.95630436466396" lon="17.296894536974026"><ele>9.0</ele><time>2026-03-29T15:23:01.999Z</time></trkpt><trkpt lat="40.95640724170136" lon="17.29695009449175"><ele>9.0</ele><time>2026-03-29T15:23:02.999Z</time></trkpt><trkpt lat="40.95655442251873" lon="17.29705225810452"><ele>9.0</ele><time>2026-03-29T15:23:03.999Z</time></trkpt><trkpt lat="40.95670070663175" lon="17.2971581950643"><ele>9.0</ele><time>2026-03-29T15:23:04.999Z</time></trkpt><trkpt lat="40.95685161954404" lon="17.297255459319924"><ele>8.0</ele><time>2026-03-29T15:23:05.999Z</time></trkpt><trkpt lat="40.956954313213345" lon="17.297334649407485"><ele>7.0</ele><time>2026-03-29T15:23:06.999Z</time></trkpt><trkpt lat="40.957022149573184" lon="17.297417124377347"><ele>6.0</ele><time>2026-03-29T15:23:07.999Z</time></trkpt><trkpt lat="40.95713798660416" lon="17.297525968235973"><ele>5.0</ele><time>2026-03-29T15:23:08.999Z</time></trkpt><trkpt lat="40.95728144901781" lon="17.297640884241957"><ele>5.0</ele><time>2026-03-29T15:23:09.999Z</time></trkpt><trkpt lat="40.95746234991215" lon="17.29781455396294"><ele>5.0</ele><time>2026-03-29T15:23:10.999Z</time></trkpt><trkpt lat="40.95758986690142" lon="17.297917056013713"><ele>5.0</ele><time>2026-03-29T15:23:11.999Z</time></trkpt><trkpt lat="40.95771599837341" lon="17.29799015422168"><ele>4.6</ele><time>2026-03-29T15:23:12.999Z</time></trkpt><trkpt lat="40.95784502205097" lon="17.29801175632158"><ele>4.2</ele><time>2026-03-29T15:23:13.999Z</time></trkpt><trkpt lat="40.95795998666679" lon="17.298037936093056"><ele>3.8</ele><time>2026-03-29T15:23:14.999Z</time></trkpt><trkpt lat="40.95804798962987" lon="17.298088678494395"><ele>3.4</ele><time>2026-03-29T15:23:15.999Z</time></trkpt><trkpt lat="40.95812414324637" lon="17.298112854981024"><ele>3.0</ele><time>2026-03-29T15:23:16.999Z</time></trkpt><trkpt lat="40.958183722355756" lon="17.298216106840123"><ele>3.0</ele><time>2026-03-29T15:23:17.999Z</time></trkpt><trkpt lat="40.95829464514197" lon="17.29818418882002"><ele>3.0</ele><time>2026-03-29T15:23:20Z</time></trkpt><trkpt lat="40.95832821751785" lon="17.298109157924213"><ele>3.0</ele><time>2026-03-29T15:23:21Z</time></trkpt><trkpt lat="40.958353385554396" lon="17.29800309720077"><ele>3.0</ele><time>2026-03-29T15:23:22Z</time></trkpt><trkpt lat="40.958356292661946" lon="17.29787158632264"><ele>3.0</ele><time>2026-03-29T15:23:23Z</time></trkpt><trkpt lat="40.95834094382511" lon="17.297750380651447"><ele>3.0</ele><time>2026-03-29T15:23:24Z</time></trkpt><trkpt lat="40.95833677096004" lon="17.297641626867996"><ele>3.0</ele><time>2026-03-29T15:23:25Z</time></trkpt><trkpt lat="40.95837412421629" lon="17.29754244395337"><ele>3.0</ele><time>2026-03-29T15:23:26Z</time></trkpt><trkpt lat="40.958436900790254" lon="17.297431055730073"><ele>3.0</ele><time>2026-03-29T15:23:27Z</time></trkpt><trkpt lat="40.95849984126366" lon="17.297289863307498"><ele>3.0</ele><time>2026-03-29T15:23:28Z</time></trkpt><trkpt lat="40.95852021659242" lon="17.297107018378007"><ele>2.25</ele><time>2026-03-29T15:23:29Z</time></trkpt><trkpt lat="40.958526873659864" lon="17.296921798581028"><ele>1.5</ele><time>2026-03-29T15:23:30Z</time></trkpt><trkpt lat="40.9585174326324" lon="17.2967298483511"><ele>0.75</ele><time>2026-03-29T15:23:31Z</time></trkpt><trkpt lat="40.958478062716296" lon="17.296519837943777"><ele>0.0</ele><time>2026-03-29T15:23:32Z</time></trkpt><trkpt lat="40.95842919968734" lon="17.296287037507643"><ele>0.0</ele><time>2026-03-29T15:23:33Z</time></trkpt><trkpt lat="40.95840022411446" lon="17.296050606492486"><ele>0.0</ele><time>2026-03-29T15:23:34Z</time></trkpt><trkpt lat="40.95836622275169" lon="17.295807300847283"><ele>0.0</ele><time>2026-03-29T15:23:35Z</time></trkpt><trkpt lat="40.958325148245486" lon="17.295553866314375"><ele>1.3333333333333333</ele><time>2026-03-29T15:23:36Z</time></trkpt><trkpt lat="40.95828725949308" lon="17.295324929930317"><ele>2.6666666666666665</ele><time>2026-03-29T15:23:37Z</time></trkpt><trkpt lat="40.95824404277159" lon="17.295136717215243"><ele>4.0</ele><time>2026-03-29T15:23:38Z</time></trkpt><trkpt lat="40.95823124525894" lon="17.294938703821632"><ele>4.0</ele><time>2026-03-29T15:23:39Z</time></trkpt><trkpt lat="40.95818489383187" lon="17.29476893465823"><ele>4.0</ele><time>2026-03-29T15:23:40Z</time></trkpt><trkpt lat="40.95817769421666" lon="17.294615380117815"><ele>4.0</ele><time>2026-03-29T15:23:41Z</time></trkpt><trkpt lat="40.958153061785694" lon="17.29446450236178"><ele>4.0</ele><time>2026-03-29T15:23:42Z</time></trkpt><trkpt lat="40.958123857808474" lon="17.29431271181218"><ele>4.4</ele><time>2026-03-29T15:23:43Z</time></trkpt><trkpt lat="40.95805667938774" lon="17.294197916555355"><ele>4.800000000000001</ele><time>2026-03-29T15:23:44Z</time></trkpt><trkpt lat="40.95802193455953" lon="17.294056400687175"><ele>5.199999999999999</ele><time>2026-03-29T15:23:45Z</time></trkpt><trkpt lat="40.95798791002856" lon="17.293919266925986"><ele>5.6</ele><time>2026-03-29T15:23:46Z</time></trkpt><trkpt lat="40.95796665389456" lon="17.293815740656935"><ele>6.0</ele><time>2026-03-29T15:23:47Z</time></trkpt><trkpt lat="40.95792477733" lon="17.293696965269444"><ele>6.75</ele><time>2026-03-29T15:23:49Z</time></trkpt><trkpt lat="40.95809062633082" lon="17.293556188411358"><ele>7.5</ele><time>2026-03-29T15:23:50Z</time></trkpt><trkpt lat="40.958147278808106" lon="17.293418828998135"><ele>8.25</ele><time>2026-03-29T15:23:51Z</time></trkpt><trkpt lat="40.958230650354686" lon="17.293300454540734"><ele>9.0</ele><time>2026-03-29T15:23:52Z</time></trkpt><trkpt lat="40.95829474972455" lon="17.293225767776775"><ele>9.0</ele><time>2026-03-29T15:23:53Z</time></trkpt><trkpt lat="40.958341117923105" lon="17.29315129328246"><ele>9.0</ele><time>2026-03-29T15:23:54Z</time></trkpt><trkpt lat="40.95837243117877" lon="17.293072809784082"><ele>9.0</ele><time>2026-03-29T15:23:55Z</time></trkpt><trkpt lat="40.95831032499936" lon="17.292862487425577"><ele>9.0</ele><time>2026-03-29T15:23:57Z</time></trkpt><trkpt lat="40.958232799832174" lon="17.292794143048337"><ele>9.0</ele><time>2026-03-29T15:23:58Z</time></trkpt><trkpt lat="40.958127996857485" lon="17.292695796746663"><ele>9.0</ele><time>2026-03-29T15:23:59Z</time></trkpt><trkpt lat="40.95800137994056" lon="17.292584706631178"><ele>9.0</ele><time>2026-03-29T15:24:00Z</time></trkpt><trkpt lat="40.957831499728805" lon="17.29244060871741"><ele>9.0</ele><time>2026-03-29T15:24:01Z</time></trkpt><trkpt lat="40.957695412394585" lon="17.292320960979193"><ele>9.25</ele><time>2026-03-29T15:24:02Z</time></trkpt><trkpt lat="40.95759709521432" lon="17.292236754915074"><ele>9.5</ele><time>2026-03-29T15:24:03Z</time></trkpt><trkpt lat="40.95747958317078" lon="17.292136108966588"><ele>9.75</ele><time>2026-03-29T15:24:04Z</time></trkpt><trkpt lat="40.95734616543852" lon="17.292021885758334"><ele>10.0</ele><time>2026-03-29T15:24:05Z</time></trkpt><trkpt lat="40.95720255944658" lon="17.291901558899415"><ele>10.25</ele><time>2026-03-29T15:24:06Z</time></trkpt><trkpt lat="40.95708886273312" lon="17.29179370442633"><ele>10.5</ele><time>2026-03-29T15:24:07Z</time></trkpt><trkpt lat="40.9569673633304" lon="17.29168490051009"><ele>10.75</ele><time>2026-03-29T15:24:08Z</time></trkpt><trkpt lat="40.95684655057303" lon="17.29157873167924"><ele>11.0</ele><time>2026-03-29T15:24:09Z</time></trkpt><trkpt lat="40.95674777804103" lon="17.291494761580356"><ele>11.833333333333332</ele><time>2026-03-29T15:24:10Z</time></trkpt><trkpt lat="40.95665662934416" lon="17.29142099709481"><ele>12.666666666666666</ele><time>2026-03-29T15:24:11Z</time></trkpt><trkpt lat="40.95658434297447" lon="17.29136364943633"><ele>13.5</ele><time>2026-03-29T15:24:12Z</time></trkpt><trkpt lat="40.95652381683407" lon="17.291315401381354"><ele>14.333333333333332</ele><time>2026-03-29T15:24:13Z</time></trkpt><trkpt lat="40.9564292678517" lon="17.29126218486085"><ele>15.166666666666666</ele><time>2026-03-29T15:24:15Z</time></trkpt><trkpt lat="40.95637742652908" lon="17.291197352510842"><ele>16.0</ele><time>2026-03-29T15:24:16Z</time></trkpt><trkpt lat="40.95629539918734" lon="17.29113120706808"><ele>16.0</ele><time>2026-03-29T15:24:17Z</time></trkpt><trkpt lat="40.95618463491402" lon="17.291052199407844"><ele>16.0</ele><time>2026-03-29T15:24:18Z</time></trkpt><trkpt lat="40.956027109619995" lon="17.2909193076183"><ele>16.0</ele><time>2026-03-29T15:24:19Z</time></trkpt><trkpt lat="40.955898937040196" lon="17.29079322848274"><ele>16.400000000000002</ele><time>2026-03-29T15:24:20Z</time></trkpt><trkpt lat="40.9558101273181" lon="17.290730623975193"><ele>16.8</ele><time>2026-03-29T15:24:21Z</time></trkpt><trkpt lat="40.955755692485184" lon="17.290657556896768"><ele>17.200000000000003</ele><time>2026-03-29T15:24:22Z</time></trkpt><trkpt lat="40.95570344310761" lon="17.29055244601299"><ele>17.6</ele><time>2026-03-29T15:24:26Z</time></trkpt><trkpt lat="40.9556806935763" lon="17.290423055505215"><ele>18.0</ele><time>2026-03-29T15:24:28Z</time></trkpt><trkpt lat="40.95585711672262" lon="17.2903080044446"><ele>18.0</ele><time>2026-03-29T15:24:30Z</time></trkpt><trkpt lat="40.95593126328241" lon="17.29017122724132"><ele>18.0</ele><time>2026-03-29T15:24:31Z</time></trkpt><trkpt lat="40.955994885313174" lon="17.290037024045517"><ele>18.0</ele><time>2026-03-29T15:24:32Z</time></trkpt><trkpt lat="40.956035309794515" lon="17.289924605833747"><ele>18.0</ele><time>2026-03-29T15:24:32.999Z</time></trkpt><trkpt lat="40.9560634663074" lon="17.289845153449505"><ele>18.0</ele><time>2026-03-29T15:24:33.999Z</time></trkpt><trkpt lat="40.956167483956314" lon="17.289698172530525"><ele>18.0</ele><time>2026-03-29T15:24:37.999Z</time></trkpt><trkpt lat="40.956210625020276" lon="17.289582079584275"><ele>18.0</ele><time>2026-03-29T15:24:38.999Z</time></trkpt><trkpt lat="40.95625110762937" lon="17.28948445541227"><ele>18.0</ele><time>2026-03-29T15:24:40.999Z</time></trkpt><trkpt lat="40.956426181889285" lon="17.289616010029015"><ele>18.0</ele><time>2026-03-29T15:24:44.999Z</time></trkpt><trkpt lat="40.956489850955045" lon="17.28964928361473"><ele>18.0</ele><time>2026-03-29T15:24:47.999Z</time></trkpt><trkpt lat="40.95658805819555" lon="17.289454143977785"><ele>18.0</ele><time>2026-03-29T15:24:51.999Z</time></trkpt><trkpt lat="40.95662930038363" lon="17.289362528459524"><ele>18.0</ele><time>2026-03-29T15:24:52.999Z</time></trkpt><trkpt lat="40.95667188582472" lon="17.28927892703379"><ele>18.0</ele><time>2026-03-29T15:24:53.999Z</time></trkpt><trkpt lat="40.95670502305998" lon="17.289193934446256"><ele>18.0</ele><time>2026-03-29T15:24:55.999Z</time></trkpt><trkpt lat="40.9569734752052" lon="17.289017975930577"><ele>16.5</ele><time>2026-03-29T15:25:00.999Z</time></trkpt><trkpt lat="40.95675119596964" lon="17.289176651148168"><ele>15.0</ele><time>2026-03-29T15:25:03.999Z</time></trkpt><trkpt lat="40.957108484328565" lon="17.289181663716743"><ele>15.0</ele><time>2026-03-29T15:25:52Z</time></trkpt></trkseg></trk></gpx>